<?xml version="1.0" encoding="UTF-8" standalone="no" ?>
<gpx xmlns="http://www.topografix.com/GPX/1/1" xmlns:xsi="http://www.w3.org/2001/XMLSchema-instance" xsi:schemaLocation="http://www.topografix.com/GPX/1/1 http://www.topografix.com/GPX/1/1/gpx.xsd" version="1.1" creator="VisuGPX - https://www.visugpx.com">
  <metadata>
    <name>Trace transv 2010</name>
    <desc><![CDATA[Transv 2010]]></desc>
  </metadata>
  <trk>
    <name><![CDATA[Ride187351025 on GPSies.com]]></name>
    <trkseg>
      <trkpt lat="44.07085" lon="7.22207">
        <ele>1500</ele>
        <time>2014-08-30T08:11:55Z</time>
      </trkpt>
      <trkpt lat="44.07078" lon="7.22205">
        <ele>1500</ele>
        <time>2014-08-30T08:11:58Z</time>
      </trkpt>
      <trkpt lat="44.07076" lon="7.22199">
        <ele>1500</ele>
        <time>2014-08-30T08:12:01Z</time>
      </trkpt>
      <trkpt lat="44.07077" lon="7.2219">
        <ele>1500</ele>
        <time>2014-08-30T08:12:04Z</time>
      </trkpt>
      <trkpt lat="44.07077" lon="7.22178">
        <ele>1501</ele>
        <time>2014-08-30T08:12:07Z</time>
      </trkpt>
      <trkpt lat="44.07078" lon="7.22166">
        <ele>1502</ele>
        <time>2014-08-30T08:12:10Z</time>
      </trkpt>
      <trkpt lat="44.07079" lon="7.22154">
        <ele>1502</ele>
        <time>2014-08-30T08:12:13Z</time>
      </trkpt>
      <trkpt lat="44.07079" lon="7.22142">
        <ele>1502</ele>
        <time>2014-08-30T08:12:16Z</time>
      </trkpt>
      <trkpt lat="44.0708" lon="7.2213">
        <ele>1502</ele>
        <time>2014-08-30T08:12:19Z</time>
      </trkpt>
      <trkpt lat="44.07082" lon="7.22118">
        <ele>1502</ele>
        <time>2014-08-30T08:12:22Z</time>
      </trkpt>
      <trkpt lat="44.07082" lon="7.22104">
        <ele>1504</ele>
        <time>2014-08-30T08:12:25Z</time>
      </trkpt>
      <trkpt lat="44.07082" lon="7.22091">
        <ele>1505</ele>
        <time>2014-08-30T08:12:28Z</time>
      </trkpt>
      <trkpt lat="44.07081" lon="7.22082">
        <ele>1505</ele>
        <time>2014-08-30T08:12:31Z</time>
      </trkpt>
      <trkpt lat="44.0708" lon="7.22072">
        <ele>1506</ele>
        <time>2014-08-30T08:12:34Z</time>
      </trkpt>
      <trkpt lat="44.07079" lon="7.22061">
        <ele>1507</ele>
        <time>2014-08-30T08:12:37Z</time>
      </trkpt>
      <trkpt lat="44.07079" lon="7.2205">
        <ele>1507</ele>
        <time>2014-08-30T08:12:40Z</time>
      </trkpt>
      <trkpt lat="44.07078" lon="7.22041">
        <ele>1509</ele>
        <time>2014-08-30T08:12:43Z</time>
      </trkpt>
      <trkpt lat="44.07077" lon="7.22031">
        <ele>1509</ele>
        <time>2014-08-30T08:12:46Z</time>
      </trkpt>
      <trkpt lat="44.07076" lon="7.22021">
        <ele>1510</ele>
        <time>2014-08-30T08:12:49Z</time>
      </trkpt>
      <trkpt lat="44.07075" lon="7.22011">
        <ele>1511</ele>
        <time>2014-08-30T08:12:52Z</time>
      </trkpt>
      <trkpt lat="44.07074" lon="7.22002">
        <ele>1512</ele>
        <time>2014-08-30T08:12:55Z</time>
      </trkpt>
      <trkpt lat="44.07074" lon="7.21993">
        <ele>1513</ele>
        <time>2014-08-30T08:12:58Z</time>
      </trkpt>
      <trkpt lat="44.07073" lon="7.21983">
        <ele>1513</ele>
        <time>2014-08-30T08:13:01Z</time>
      </trkpt>
      <trkpt lat="44.0707" lon="7.21973">
        <ele>1514</ele>
        <time>2014-08-30T08:13:04Z</time>
      </trkpt>
      <trkpt lat="44.07067" lon="7.21964">
        <ele>1515</ele>
        <time>2014-08-30T08:13:07Z</time>
      </trkpt>
      <trkpt lat="44.07063" lon="7.21955">
        <ele>1515</ele>
        <time>2014-08-30T08:13:10Z</time>
      </trkpt>
      <trkpt lat="44.07058" lon="7.21946">
        <ele>1515</ele>
        <time>2014-08-30T08:13:13Z</time>
      </trkpt>
      <trkpt lat="44.07052" lon="7.21939">
        <ele>1516</ele>
        <time>2014-08-30T08:13:16Z</time>
      </trkpt>
      <trkpt lat="44.07046" lon="7.21932">
        <ele>1517</ele>
        <time>2014-08-30T08:13:19Z</time>
      </trkpt>
      <trkpt lat="44.0704" lon="7.21926">
        <ele>1517</ele>
        <time>2014-08-30T08:13:22Z</time>
      </trkpt>
      <trkpt lat="44.07035" lon="7.2192">
        <ele>1517</ele>
        <time>2014-08-30T08:13:25Z</time>
      </trkpt>
      <trkpt lat="44.07029" lon="7.21915">
        <ele>1519</ele>
        <time>2014-08-30T08:13:28Z</time>
      </trkpt>
      <trkpt lat="44.07023" lon="7.2191">
        <ele>1520</ele>
        <time>2014-08-30T08:13:31Z</time>
      </trkpt>
      <trkpt lat="44.07018" lon="7.21905">
        <ele>1521</ele>
        <time>2014-08-30T08:13:34Z</time>
      </trkpt>
      <trkpt lat="44.07013" lon="7.21899">
        <ele>1522</ele>
        <time>2014-08-30T08:13:37Z</time>
      </trkpt>
      <trkpt lat="44.07008" lon="7.21893">
        <ele>1522</ele>
        <time>2014-08-30T08:13:40Z</time>
      </trkpt>
      <trkpt lat="44.07003" lon="7.21888">
        <ele>1523</ele>
        <time>2014-08-30T08:13:43Z</time>
      </trkpt>
      <trkpt lat="44.06998" lon="7.21881">
        <ele>1524</ele>
        <time>2014-08-30T08:13:46Z</time>
      </trkpt>
      <trkpt lat="44.06993" lon="7.21875">
        <ele>1524</ele>
        <time>2014-08-30T08:13:49Z</time>
      </trkpt>
      <trkpt lat="44.06988" lon="7.2187">
        <ele>1526</ele>
        <time>2014-08-30T08:13:52Z</time>
      </trkpt>
      <trkpt lat="44.06983" lon="7.21866">
        <ele>1526</ele>
        <time>2014-08-30T08:13:55Z</time>
      </trkpt>
      <trkpt lat="44.06977" lon="7.21863">
        <ele>1527</ele>
        <time>2014-08-30T08:13:58Z</time>
      </trkpt>
      <trkpt lat="44.06971" lon="7.21861">
        <ele>1528</ele>
        <time>2014-08-30T08:14:01Z</time>
      </trkpt>
      <trkpt lat="44.06965" lon="7.21859">
        <ele>1528</ele>
        <time>2014-08-30T08:14:04Z</time>
      </trkpt>
      <trkpt lat="44.06959" lon="7.21858">
        <ele>1529</ele>
        <time>2014-08-30T08:14:07Z</time>
      </trkpt>
      <trkpt lat="44.06952" lon="7.21857">
        <ele>1530</ele>
        <time>2014-08-30T08:14:10Z</time>
      </trkpt>
      <trkpt lat="44.06944" lon="7.21857">
        <ele>1530</ele>
        <time>2014-08-30T08:14:13Z</time>
      </trkpt>
      <trkpt lat="44.06936" lon="7.21855">
        <ele>1531</ele>
        <time>2014-08-30T08:14:16Z</time>
      </trkpt>
      <trkpt lat="44.06929" lon="7.21854">
        <ele>1532</ele>
        <time>2014-08-30T08:14:19Z</time>
      </trkpt>
      <trkpt lat="44.06923" lon="7.21852">
        <ele>1532</ele>
        <time>2014-08-30T08:14:22Z</time>
      </trkpt>
      <trkpt lat="44.06917" lon="7.2185">
        <ele>1533</ele>
        <time>2014-08-30T08:14:25Z</time>
      </trkpt>
      <trkpt lat="44.06911" lon="7.21849">
        <ele>1535</ele>
        <time>2014-08-30T08:14:28Z</time>
      </trkpt>
      <trkpt lat="44.06905" lon="7.21848">
        <ele>1535</ele>
        <time>2014-08-30T08:14:31Z</time>
      </trkpt>
      <trkpt lat="44.06898" lon="7.21848">
        <ele>1536</ele>
        <time>2014-08-30T08:14:34Z</time>
      </trkpt>
      <trkpt lat="44.0689" lon="7.21847">
        <ele>1537</ele>
        <time>2014-08-30T08:14:37Z</time>
      </trkpt>
      <trkpt lat="44.06882" lon="7.21847">
        <ele>1537</ele>
        <time>2014-08-30T08:14:40Z</time>
      </trkpt>
      <trkpt lat="44.06875" lon="7.21848">
        <ele>1537</ele>
        <time>2014-08-30T08:14:43Z</time>
      </trkpt>
      <trkpt lat="44.06867" lon="7.2185">
        <ele>1538</ele>
        <time>2014-08-30T08:14:46Z</time>
      </trkpt>
      <trkpt lat="44.0686" lon="7.2185">
        <ele>1539</ele>
        <time>2014-08-30T08:14:49Z</time>
      </trkpt>
      <trkpt lat="44.06852" lon="7.21851">
        <ele>1539</ele>
        <time>2014-08-30T08:14:52Z</time>
      </trkpt>
      <trkpt lat="44.06844" lon="7.21852">
        <ele>1539</ele>
        <time>2014-08-30T08:14:55Z</time>
      </trkpt>
      <trkpt lat="44.06837" lon="7.21852">
        <ele>1540</ele>
        <time>2014-08-30T08:14:58Z</time>
      </trkpt>
      <trkpt lat="44.06829" lon="7.21852">
        <ele>1541</ele>
        <time>2014-08-30T08:15:01Z</time>
      </trkpt>
      <trkpt lat="44.06821" lon="7.21851">
        <ele>1541</ele>
        <time>2014-08-30T08:15:04Z</time>
      </trkpt>
      <trkpt lat="44.06813" lon="7.21851">
        <ele>1542</ele>
        <time>2014-08-30T08:15:07Z</time>
      </trkpt>
      <trkpt lat="44.06806" lon="7.21852">
        <ele>1543</ele>
        <time>2014-08-30T08:15:10Z</time>
      </trkpt>
      <trkpt lat="44.06799" lon="7.21853">
        <ele>1543</ele>
        <time>2014-08-30T08:15:13Z</time>
      </trkpt>
      <trkpt lat="44.06792" lon="7.21857">
        <ele>1544</ele>
        <time>2014-08-30T08:15:16Z</time>
      </trkpt>
      <trkpt lat="44.06785" lon="7.21861">
        <ele>1545</ele>
        <time>2014-08-30T08:15:19Z</time>
      </trkpt>
      <trkpt lat="44.06778" lon="7.21865">
        <ele>1545</ele>
        <time>2014-08-30T08:15:22Z</time>
      </trkpt>
      <trkpt lat="44.06771" lon="7.21869">
        <ele>1546</ele>
        <time>2014-08-30T08:15:25Z</time>
      </trkpt>
      <trkpt lat="44.06763" lon="7.21874">
        <ele>1547</ele>
        <time>2014-08-30T08:15:28Z</time>
      </trkpt>
      <trkpt lat="44.06756" lon="7.2188">
        <ele>1548</ele>
        <time>2014-08-30T08:15:31Z</time>
      </trkpt>
      <trkpt lat="44.06749" lon="7.21887">
        <ele>1548</ele>
        <time>2014-08-30T08:15:34Z</time>
      </trkpt>
      <trkpt lat="44.06742" lon="7.21895">
        <ele>1549</ele>
        <time>2014-08-30T08:15:37Z</time>
      </trkpt>
      <trkpt lat="44.06735" lon="7.21904">
        <ele>1550</ele>
        <time>2014-08-30T08:15:40Z</time>
      </trkpt>
      <trkpt lat="44.06729" lon="7.21912">
        <ele>1551</ele>
        <time>2014-08-30T08:15:43Z</time>
      </trkpt>
      <trkpt lat="44.06723" lon="7.21919">
        <ele>1552</ele>
        <time>2014-08-30T08:15:46Z</time>
      </trkpt>
      <trkpt lat="44.06716" lon="7.21926">
        <ele>1552</ele>
        <time>2014-08-30T08:15:49Z</time>
      </trkpt>
      <trkpt lat="44.0671" lon="7.21934">
        <ele>1554</ele>
        <time>2014-08-30T08:15:52Z</time>
      </trkpt>
      <trkpt lat="44.06704" lon="7.2194">
        <ele>1554</ele>
        <time>2014-08-30T08:15:55Z</time>
      </trkpt>
      <trkpt lat="44.06699" lon="7.21946">
        <ele>1554</ele>
        <time>2014-08-30T08:15:58Z</time>
      </trkpt>
      <trkpt lat="44.06694" lon="7.21952">
        <ele>1556</ele>
        <time>2014-08-30T08:16:01Z</time>
      </trkpt>
      <trkpt lat="44.06687" lon="7.21956">
        <ele>1556</ele>
        <time>2014-08-30T08:16:04Z</time>
      </trkpt>
      <trkpt lat="44.06679" lon="7.2196">
        <ele>1556</ele>
        <time>2014-08-30T08:16:07Z</time>
      </trkpt>
      <trkpt lat="44.0667" lon="7.21964">
        <ele>1556</ele>
        <time>2014-08-30T08:16:10Z</time>
      </trkpt>
      <trkpt lat="44.06662" lon="7.21971">
        <ele>1557</ele>
        <time>2014-08-30T08:16:13Z</time>
      </trkpt>
      <trkpt lat="44.06653" lon="7.21978">
        <ele>1559</ele>
        <time>2014-08-30T08:16:16Z</time>
      </trkpt>
      <trkpt lat="44.06646" lon="7.21985">
        <ele>1559</ele>
        <time>2014-08-30T08:16:19Z</time>
      </trkpt>
      <trkpt lat="44.06639" lon="7.21993">
        <ele>1559</ele>
        <time>2014-08-30T08:16:22Z</time>
      </trkpt>
      <trkpt lat="44.06633" lon="7.22001">
        <ele>1560</ele>
        <time>2014-08-30T08:16:25Z</time>
      </trkpt>
      <trkpt lat="44.06626" lon="7.22009">
        <ele>1561</ele>
        <time>2014-08-30T08:16:28Z</time>
      </trkpt>
      <trkpt lat="44.06618" lon="7.22016">
        <ele>1561</ele>
        <time>2014-08-30T08:16:31Z</time>
      </trkpt>
      <trkpt lat="44.06611" lon="7.22023">
        <ele>1562</ele>
        <time>2014-08-30T08:16:34Z</time>
      </trkpt>
      <trkpt lat="44.06604" lon="7.22029">
        <ele>1563</ele>
        <time>2014-08-30T08:16:37Z</time>
      </trkpt>
      <trkpt lat="44.06596" lon="7.22036">
        <ele>1563</ele>
        <time>2014-08-30T08:16:40Z</time>
      </trkpt>
      <trkpt lat="44.06589" lon="7.22043">
        <ele>1564</ele>
        <time>2014-08-30T08:16:43Z</time>
      </trkpt>
      <trkpt lat="44.06582" lon="7.2205">
        <ele>1565</ele>
        <time>2014-08-30T08:16:46Z</time>
      </trkpt>
      <trkpt lat="44.06575" lon="7.22057">
        <ele>1566</ele>
        <time>2014-08-30T08:16:49Z</time>
      </trkpt>
      <trkpt lat="44.06568" lon="7.22064">
        <ele>1567</ele>
        <time>2014-08-30T08:16:52Z</time>
      </trkpt>
      <trkpt lat="44.06561" lon="7.2207">
        <ele>1567</ele>
        <time>2014-08-30T08:16:55Z</time>
      </trkpt>
      <trkpt lat="44.06554" lon="7.22077">
        <ele>1568</ele>
        <time>2014-08-30T08:16:58Z</time>
      </trkpt>
      <trkpt lat="44.06547" lon="7.22083">
        <ele>1569</ele>
        <time>2014-08-30T08:17:01Z</time>
      </trkpt>
      <trkpt lat="44.06538" lon="7.22088">
        <ele>1569</ele>
        <time>2014-08-30T08:17:04Z</time>
      </trkpt>
      <trkpt lat="44.06529" lon="7.22092">
        <ele>1569</ele>
        <time>2014-08-30T08:17:07Z</time>
      </trkpt>
      <trkpt lat="44.0652" lon="7.22094">
        <ele>1571</ele>
        <time>2014-08-30T08:17:10Z</time>
      </trkpt>
      <trkpt lat="44.06511" lon="7.22093">
        <ele>1572</ele>
        <time>2014-08-30T08:17:13Z</time>
      </trkpt>
      <trkpt lat="44.06501" lon="7.22093">
        <ele>1572</ele>
        <time>2014-08-30T08:17:17Z</time>
      </trkpt>
      <trkpt lat="44.06491" lon="7.22092">
        <ele>1573</ele>
        <time>2014-08-30T08:17:20Z</time>
      </trkpt>
      <trkpt lat="44.06484" lon="7.22089">
        <ele>1574</ele>
        <time>2014-08-30T08:17:23Z</time>
      </trkpt>
      <trkpt lat="44.06478" lon="7.22086">
        <ele>1575</ele>
        <time>2014-08-30T08:17:26Z</time>
      </trkpt>
      <trkpt lat="44.06472" lon="7.22081">
        <ele>1576</ele>
        <time>2014-08-30T08:17:29Z</time>
      </trkpt>
      <trkpt lat="44.06468" lon="7.22074">
        <ele>1577</ele>
        <time>2014-08-30T08:17:32Z</time>
      </trkpt>
      <trkpt lat="44.06464" lon="7.22069">
        <ele>1578</ele>
        <time>2014-08-30T08:17:35Z</time>
      </trkpt>
      <trkpt lat="44.06461" lon="7.22063">
        <ele>1580</ele>
        <time>2014-08-30T08:17:38Z</time>
      </trkpt>
      <trkpt lat="44.06458" lon="7.22057">
        <ele>1580</ele>
        <time>2014-08-30T08:17:41Z</time>
      </trkpt>
      <trkpt lat="44.06454" lon="7.22049">
        <ele>1581</ele>
        <time>2014-08-30T08:17:44Z</time>
      </trkpt>
      <trkpt lat="44.0645" lon="7.22042">
        <ele>1582</ele>
        <time>2014-08-30T08:17:47Z</time>
      </trkpt>
      <trkpt lat="44.06446" lon="7.22036">
        <ele>1583</ele>
        <time>2014-08-30T08:17:50Z</time>
      </trkpt>
      <trkpt lat="44.06442" lon="7.22031">
        <ele>1584</ele>
        <time>2014-08-30T08:17:53Z</time>
      </trkpt>
      <trkpt lat="44.06438" lon="7.22026">
        <ele>1584</ele>
        <time>2014-08-30T08:17:56Z</time>
      </trkpt>
      <trkpt lat="44.06434" lon="7.2202">
        <ele>1585</ele>
        <time>2014-08-30T08:17:59Z</time>
      </trkpt>
      <trkpt lat="44.06431" lon="7.22014">
        <ele>1587</ele>
        <time>2014-08-30T08:18:02Z</time>
      </trkpt>
      <trkpt lat="44.06427" lon="7.22008">
        <ele>1587</ele>
        <time>2014-08-30T08:18:05Z</time>
      </trkpt>
      <trkpt lat="44.06423" lon="7.22002">
        <ele>1588</ele>
        <time>2014-08-30T08:18:08Z</time>
      </trkpt>
      <trkpt lat="44.0642" lon="7.21996">
        <ele>1589</ele>
        <time>2014-08-30T08:18:11Z</time>
      </trkpt>
      <trkpt lat="44.06416" lon="7.2199">
        <ele>1590</ele>
        <time>2014-08-30T08:18:14Z</time>
      </trkpt>
      <trkpt lat="44.06412" lon="7.21984">
        <ele>1591</ele>
        <time>2014-08-30T08:18:17Z</time>
      </trkpt>
      <trkpt lat="44.06409" lon="7.21978">
        <ele>1592</ele>
        <time>2014-08-30T08:18:20Z</time>
      </trkpt>
      <trkpt lat="44.06406" lon="7.21972">
        <ele>1593</ele>
        <time>2014-08-30T08:18:23Z</time>
      </trkpt>
      <trkpt lat="44.06404" lon="7.21966">
        <ele>1594</ele>
        <time>2014-08-30T08:18:26Z</time>
      </trkpt>
      <trkpt lat="44.06401" lon="7.2196">
        <ele>1595</ele>
        <time>2014-08-30T08:18:29Z</time>
      </trkpt>
      <trkpt lat="44.06398" lon="7.21953">
        <ele>1595</ele>
        <time>2014-08-30T08:18:32Z</time>
      </trkpt>
      <trkpt lat="44.06395" lon="7.21947">
        <ele>1597</ele>
        <time>2014-08-30T08:18:35Z</time>
      </trkpt>
      <trkpt lat="44.06392" lon="7.21941">
        <ele>1598</ele>
        <time>2014-08-30T08:18:38Z</time>
      </trkpt>
      <trkpt lat="44.06389" lon="7.21935">
        <ele>1598</ele>
        <time>2014-08-30T08:18:41Z</time>
      </trkpt>
      <trkpt lat="44.06386" lon="7.21928">
        <ele>1599</ele>
        <time>2014-08-30T08:18:44Z</time>
      </trkpt>
      <trkpt lat="44.06383" lon="7.21921">
        <ele>1600</ele>
        <time>2014-08-30T08:18:47Z</time>
      </trkpt>
      <trkpt lat="44.06381" lon="7.21913">
        <ele>1601</ele>
        <time>2014-08-30T08:18:50Z</time>
      </trkpt>
      <trkpt lat="44.06379" lon="7.21905">
        <ele>1602</ele>
        <time>2014-08-30T08:18:53Z</time>
      </trkpt>
      <trkpt lat="44.06377" lon="7.21896">
        <ele>1602</ele>
        <time>2014-08-30T08:18:56Z</time>
      </trkpt>
      <trkpt lat="44.06376" lon="7.21888">
        <ele>1603</ele>
        <time>2014-08-30T08:18:59Z</time>
      </trkpt>
      <trkpt lat="44.06374" lon="7.2188">
        <ele>1605</ele>
        <time>2014-08-30T08:19:02Z</time>
      </trkpt>
      <trkpt lat="44.06372" lon="7.21872">
        <ele>1605</ele>
        <time>2014-08-30T08:19:05Z</time>
      </trkpt>
      <trkpt lat="44.0637" lon="7.21865">
        <ele>1605</ele>
        <time>2014-08-30T08:19:08Z</time>
      </trkpt>
      <trkpt lat="44.06368" lon="7.21858">
        <ele>1607</ele>
        <time>2014-08-30T08:19:11Z</time>
      </trkpt>
      <trkpt lat="44.06366" lon="7.21851">
        <ele>1607</ele>
        <time>2014-08-30T08:19:14Z</time>
      </trkpt>
      <trkpt lat="44.06364" lon="7.21843">
        <ele>1608</ele>
        <time>2014-08-30T08:19:17Z</time>
      </trkpt>
      <trkpt lat="44.06361" lon="7.21835">
        <ele>1609</ele>
        <time>2014-08-30T08:19:20Z</time>
      </trkpt>
      <trkpt lat="44.06359" lon="7.21826">
        <ele>1609</ele>
        <time>2014-08-30T08:19:23Z</time>
      </trkpt>
      <trkpt lat="44.06357" lon="7.21818">
        <ele>1611</ele>
        <time>2014-08-30T08:19:26Z</time>
      </trkpt>
      <trkpt lat="44.06355" lon="7.21811">
        <ele>1611</ele>
        <time>2014-08-30T08:19:29Z</time>
      </trkpt>
      <trkpt lat="44.06354" lon="7.21802">
        <ele>1611</ele>
        <time>2014-08-30T08:19:32Z</time>
      </trkpt>
      <trkpt lat="44.06353" lon="7.21793">
        <ele>1613</ele>
        <time>2014-08-30T08:19:35Z</time>
      </trkpt>
      <trkpt lat="44.06352" lon="7.21785">
        <ele>1613</ele>
        <time>2014-08-30T08:19:38Z</time>
      </trkpt>
      <trkpt lat="44.06351" lon="7.21778">
        <ele>1615</ele>
        <time>2014-08-30T08:19:41Z</time>
      </trkpt>
      <trkpt lat="44.06349" lon="7.21771">
        <ele>1615</ele>
        <time>2014-08-30T08:19:44Z</time>
      </trkpt>
      <trkpt lat="44.06348" lon="7.21763">
        <ele>1616</ele>
        <time>2014-08-30T08:19:47Z</time>
      </trkpt>
      <trkpt lat="44.06346" lon="7.21756">
        <ele>1618</ele>
        <time>2014-08-30T08:19:50Z</time>
      </trkpt>
      <trkpt lat="44.06345" lon="7.21747">
        <ele>1618</ele>
        <time>2014-08-30T08:19:53Z</time>
      </trkpt>
      <trkpt lat="44.06344" lon="7.21739">
        <ele>1619</ele>
        <time>2014-08-30T08:19:56Z</time>
      </trkpt>
      <trkpt lat="44.06343" lon="7.21731">
        <ele>1620</ele>
        <time>2014-08-30T08:19:59Z</time>
      </trkpt>
      <trkpt lat="44.0634" lon="7.21724">
        <ele>1621</ele>
        <time>2014-08-30T08:20:02Z</time>
      </trkpt>
      <trkpt lat="44.06338" lon="7.21716">
        <ele>1622</ele>
        <time>2014-08-30T08:20:05Z</time>
      </trkpt>
      <trkpt lat="44.06335" lon="7.21708">
        <ele>1623</ele>
        <time>2014-08-30T08:20:08Z</time>
      </trkpt>
      <trkpt lat="44.06332" lon="7.21701">
        <ele>1624</ele>
        <time>2014-08-30T08:20:11Z</time>
      </trkpt>
      <trkpt lat="44.06329" lon="7.21693">
        <ele>1624</ele>
        <time>2014-08-30T08:20:14Z</time>
      </trkpt>
      <trkpt lat="44.06326" lon="7.21685">
        <ele>1626</ele>
        <time>2014-08-30T08:20:17Z</time>
      </trkpt>
      <trkpt lat="44.06323" lon="7.21677">
        <ele>1627</ele>
        <time>2014-08-30T08:20:20Z</time>
      </trkpt>
      <trkpt lat="44.0632" lon="7.21668">
        <ele>1627</ele>
        <time>2014-08-30T08:20:23Z</time>
      </trkpt>
      <trkpt lat="44.06317" lon="7.21658">
        <ele>1627</ele>
        <time>2014-08-30T08:20:26Z</time>
      </trkpt>
      <trkpt lat="44.06313" lon="7.21648">
        <ele>1628</ele>
        <time>2014-08-30T08:20:29Z</time>
      </trkpt>
      <trkpt lat="44.06309" lon="7.21639">
        <ele>1629</ele>
        <time>2014-08-30T08:20:32Z</time>
      </trkpt>
      <trkpt lat="44.06303" lon="7.21632">
        <ele>1629</ele>
        <time>2014-08-30T08:20:35Z</time>
      </trkpt>
      <trkpt lat="44.06296" lon="7.21623">
        <ele>1629</ele>
        <time>2014-08-30T08:20:38Z</time>
      </trkpt>
      <trkpt lat="44.06288" lon="7.21617">
        <ele>1629</ele>
        <time>2014-08-30T08:20:41Z</time>
      </trkpt>
      <trkpt lat="44.06279" lon="7.21609">
        <ele>1629</ele>
        <time>2014-08-30T08:20:44Z</time>
      </trkpt>
      <trkpt lat="44.06269" lon="7.21605">
        <ele>1629</ele>
        <time>2014-08-30T08:20:47Z</time>
      </trkpt>
      <trkpt lat="44.06259" lon="7.21603">
        <ele>1629</ele>
        <time>2014-08-30T08:20:50Z</time>
      </trkpt>
      <trkpt lat="44.06249" lon="7.21601">
        <ele>1630</ele>
        <time>2014-08-30T08:20:53Z</time>
      </trkpt>
      <trkpt lat="44.06241" lon="7.21597">
        <ele>1631</ele>
        <time>2014-08-30T08:20:56Z</time>
      </trkpt>
      <trkpt lat="44.06233" lon="7.21593">
        <ele>1632</ele>
        <time>2014-08-30T08:20:59Z</time>
      </trkpt>
      <trkpt lat="44.06228" lon="7.21588">
        <ele>1633</ele>
        <time>2014-08-30T08:21:02Z</time>
      </trkpt>
      <trkpt lat="44.06223" lon="7.21583">
        <ele>1633</ele>
        <time>2014-08-30T08:21:05Z</time>
      </trkpt>
      <trkpt lat="44.06219" lon="7.21578">
        <ele>1635</ele>
        <time>2014-08-30T08:21:08Z</time>
      </trkpt>
      <trkpt lat="44.06215" lon="7.21572">
        <ele>1636</ele>
        <time>2014-08-30T08:21:11Z</time>
      </trkpt>
      <trkpt lat="44.06212" lon="7.21566">
        <ele>1637</ele>
        <time>2014-08-30T08:21:14Z</time>
      </trkpt>
      <trkpt lat="44.06208" lon="7.2156">
        <ele>1638</ele>
        <time>2014-08-30T08:21:17Z</time>
      </trkpt>
      <trkpt lat="44.06205" lon="7.21553">
        <ele>1639</ele>
        <time>2014-08-30T08:21:20Z</time>
      </trkpt>
      <trkpt lat="44.06201" lon="7.21546">
        <ele>1639</ele>
        <time>2014-08-30T08:21:23Z</time>
      </trkpt>
      <trkpt lat="44.06197" lon="7.2154">
        <ele>1640</ele>
        <time>2014-08-30T08:21:26Z</time>
      </trkpt>
      <trkpt lat="44.06192" lon="7.21534">
        <ele>1641</ele>
        <time>2014-08-30T08:21:29Z</time>
      </trkpt>
      <trkpt lat="44.06187" lon="7.21529">
        <ele>1642</ele>
        <time>2014-08-30T08:21:32Z</time>
      </trkpt>
      <trkpt lat="44.06183" lon="7.21525">
        <ele>1643</ele>
        <time>2014-08-30T08:21:35Z</time>
      </trkpt>
      <trkpt lat="44.06179" lon="7.21522">
        <ele>1644</ele>
        <time>2014-08-30T08:21:38Z</time>
      </trkpt>
      <trkpt lat="44.06175" lon="7.21518">
        <ele>1645</ele>
        <time>2014-08-30T08:21:41Z</time>
      </trkpt>
      <trkpt lat="44.0617" lon="7.21514">
        <ele>1646</ele>
        <time>2014-08-30T08:21:44Z</time>
      </trkpt>
      <trkpt lat="44.06164" lon="7.2151">
        <ele>1647</ele>
        <time>2014-08-30T08:21:47Z</time>
      </trkpt>
      <trkpt lat="44.06159" lon="7.21507">
        <ele>1648</ele>
        <time>2014-08-30T08:21:50Z</time>
      </trkpt>
      <trkpt lat="44.06154" lon="7.21505">
        <ele>1648</ele>
        <time>2014-08-30T08:21:53Z</time>
      </trkpt>
      <trkpt lat="44.0615" lon="7.21501">
        <ele>1650</ele>
        <time>2014-08-30T08:21:56Z</time>
      </trkpt>
      <trkpt lat="44.06146" lon="7.21497">
        <ele>1650</ele>
        <time>2014-08-30T08:21:59Z</time>
      </trkpt>
      <trkpt lat="44.06142" lon="7.21493">
        <ele>1651</ele>
        <time>2014-08-30T08:22:02Z</time>
      </trkpt>
      <trkpt lat="44.06138" lon="7.21488">
        <ele>1652</ele>
        <time>2014-08-30T08:22:05Z</time>
      </trkpt>
      <trkpt lat="44.06133" lon="7.21484">
        <ele>1653</ele>
        <time>2014-08-30T08:22:08Z</time>
      </trkpt>
      <trkpt lat="44.06128" lon="7.21481">
        <ele>1654</ele>
        <time>2014-08-30T08:22:11Z</time>
      </trkpt>
      <trkpt lat="44.06122" lon="7.21479">
        <ele>1655</ele>
        <time>2014-08-30T08:22:14Z</time>
      </trkpt>
      <trkpt lat="44.06116" lon="7.21477">
        <ele>1656</ele>
        <time>2014-08-30T08:22:17Z</time>
      </trkpt>
      <trkpt lat="44.06111" lon="7.21473">
        <ele>1656</ele>
        <time>2014-08-30T08:22:20Z</time>
      </trkpt>
      <trkpt lat="44.06107" lon="7.21468">
        <ele>1657</ele>
        <time>2014-08-30T08:22:23Z</time>
      </trkpt>
      <trkpt lat="44.06103" lon="7.21464">
        <ele>1658</ele>
        <time>2014-08-30T08:22:26Z</time>
      </trkpt>
      <trkpt lat="44.06096" lon="7.21461">
        <ele>1658</ele>
        <time>2014-08-30T08:22:29Z</time>
      </trkpt>
      <trkpt lat="44.0609" lon="7.21459">
        <ele>1660</ele>
        <time>2014-08-30T08:22:32Z</time>
      </trkpt>
      <trkpt lat="44.06084" lon="7.21456">
        <ele>1661</ele>
        <time>2014-08-30T08:22:35Z</time>
      </trkpt>
      <trkpt lat="44.06078" lon="7.21453">
        <ele>1661</ele>
        <time>2014-08-30T08:22:38Z</time>
      </trkpt>
      <trkpt lat="44.06072" lon="7.21451">
        <ele>1662</ele>
        <time>2014-08-30T08:22:41Z</time>
      </trkpt>
      <trkpt lat="44.06064" lon="7.21448">
        <ele>1663</ele>
        <time>2014-08-30T08:22:45Z</time>
      </trkpt>
      <trkpt lat="44.06058" lon="7.21446">
        <ele>1664</ele>
        <time>2014-08-30T08:22:48Z</time>
      </trkpt>
      <trkpt lat="44.06053" lon="7.21442">
        <ele>1665</ele>
        <time>2014-08-30T08:22:51Z</time>
      </trkpt>
      <trkpt lat="44.06049" lon="7.21438">
        <ele>1666</ele>
        <time>2014-08-30T08:22:54Z</time>
      </trkpt>
      <trkpt lat="44.06044" lon="7.21435">
        <ele>1667</ele>
        <time>2014-08-30T08:22:57Z</time>
      </trkpt>
      <trkpt lat="44.06038" lon="7.21434">
        <ele>1667</ele>
        <time>2014-08-30T08:23:00Z</time>
      </trkpt>
      <trkpt lat="44.06033" lon="7.21434">
        <ele>1668</ele>
        <time>2014-08-30T08:23:03Z</time>
      </trkpt>
      <trkpt lat="44.06028" lon="7.21436">
        <ele>1669</ele>
        <time>2014-08-30T08:23:06Z</time>
      </trkpt>
      <trkpt lat="44.06023" lon="7.21437">
        <ele>1669</ele>
        <time>2014-08-30T08:23:09Z</time>
      </trkpt>
      <trkpt lat="44.06019" lon="7.21439">
        <ele>1671</ele>
        <time>2014-08-30T08:23:12Z</time>
      </trkpt>
      <trkpt lat="44.06014" lon="7.21442">
        <ele>1671</ele>
        <time>2014-08-30T08:23:15Z</time>
      </trkpt>
      <trkpt lat="44.06009" lon="7.21446">
        <ele>1672</ele>
        <time>2014-08-30T08:23:18Z</time>
      </trkpt>
      <trkpt lat="44.06005" lon="7.2145">
        <ele>1674</ele>
        <time>2014-08-30T08:23:21Z</time>
      </trkpt>
      <trkpt lat="44.05999" lon="7.21454">
        <ele>1674</ele>
        <time>2014-08-30T08:23:24Z</time>
      </trkpt>
      <trkpt lat="44.05995" lon="7.21459">
        <ele>1676</ele>
        <time>2014-08-30T08:23:27Z</time>
      </trkpt>
      <trkpt lat="44.0599" lon="7.21462">
        <ele>1676</ele>
        <time>2014-08-30T08:23:30Z</time>
      </trkpt>
      <trkpt lat="44.05985" lon="7.21466">
        <ele>1676</ele>
        <time>2014-08-30T08:23:33Z</time>
      </trkpt>
      <trkpt lat="44.0598" lon="7.2147">
        <ele>1678</ele>
        <time>2014-08-30T08:23:36Z</time>
      </trkpt>
      <trkpt lat="44.05975" lon="7.21474">
        <ele>1678</ele>
        <time>2014-08-30T08:23:39Z</time>
      </trkpt>
      <trkpt lat="44.0597" lon="7.21479">
        <ele>1679</ele>
        <time>2014-08-30T08:23:42Z</time>
      </trkpt>
      <trkpt lat="44.05965" lon="7.21484">
        <ele>1680</ele>
        <time>2014-08-30T08:23:45Z</time>
      </trkpt>
      <trkpt lat="44.05961" lon="7.21488">
        <ele>1681</ele>
        <time>2014-08-30T08:23:48Z</time>
      </trkpt>
      <trkpt lat="44.05956" lon="7.21491">
        <ele>1682</ele>
        <time>2014-08-30T08:23:51Z</time>
      </trkpt>
      <trkpt lat="44.05952" lon="7.21496">
        <ele>1683</ele>
        <time>2014-08-30T08:23:54Z</time>
      </trkpt>
      <trkpt lat="44.05948" lon="7.21503">
        <ele>1683</ele>
        <time>2014-08-30T08:23:57Z</time>
      </trkpt>
      <trkpt lat="44.05944" lon="7.21507">
        <ele>1684</ele>
        <time>2014-08-30T08:24:00Z</time>
      </trkpt>
      <trkpt lat="44.05941" lon="7.2151">
        <ele>1685</ele>
        <time>2014-08-30T08:24:03Z</time>
      </trkpt>
      <trkpt lat="44.05936" lon="7.21514">
        <ele>1686</ele>
        <time>2014-08-30T08:24:06Z</time>
      </trkpt>
      <trkpt lat="44.0593" lon="7.21518">
        <ele>1687</ele>
        <time>2014-08-30T08:24:09Z</time>
      </trkpt>
      <trkpt lat="44.05924" lon="7.21521">
        <ele>1687</ele>
        <time>2014-08-30T08:24:12Z</time>
      </trkpt>
      <trkpt lat="44.05918" lon="7.21524">
        <ele>1688</ele>
        <time>2014-08-30T08:24:15Z</time>
      </trkpt>
      <trkpt lat="44.05913" lon="7.21526">
        <ele>1689</ele>
        <time>2014-08-30T08:24:18Z</time>
      </trkpt>
      <trkpt lat="44.05908" lon="7.21529">
        <ele>1691</ele>
        <time>2014-08-30T08:24:21Z</time>
      </trkpt>
      <trkpt lat="44.05903" lon="7.21533">
        <ele>1691</ele>
        <time>2014-08-30T08:24:24Z</time>
      </trkpt>
      <trkpt lat="44.05899" lon="7.21538">
        <ele>1691</ele>
        <time>2014-08-30T08:24:27Z</time>
      </trkpt>
      <trkpt lat="44.05894" lon="7.21543">
        <ele>1693</ele>
        <time>2014-08-30T08:24:30Z</time>
      </trkpt>
      <trkpt lat="44.0589" lon="7.21548">
        <ele>1694</ele>
        <time>2014-08-30T08:24:33Z</time>
      </trkpt>
      <trkpt lat="44.05885" lon="7.21554">
        <ele>1694</ele>
        <time>2014-08-30T08:24:36Z</time>
      </trkpt>
      <trkpt lat="44.0588" lon="7.21559">
        <ele>1695</ele>
        <time>2014-08-30T08:24:39Z</time>
      </trkpt>
      <trkpt lat="44.05875" lon="7.21564">
        <ele>1696</ele>
        <time>2014-08-30T08:24:42Z</time>
      </trkpt>
      <trkpt lat="44.0587" lon="7.21568">
        <ele>1697</ele>
        <time>2014-08-30T08:24:45Z</time>
      </trkpt>
      <trkpt lat="44.05865" lon="7.21572">
        <ele>1698</ele>
        <time>2014-08-30T08:24:48Z</time>
      </trkpt>
      <trkpt lat="44.05861" lon="7.21577">
        <ele>1698</ele>
        <time>2014-08-30T08:24:51Z</time>
      </trkpt>
      <trkpt lat="44.05857" lon="7.21582">
        <ele>1700</ele>
        <time>2014-08-30T08:24:54Z</time>
      </trkpt>
      <trkpt lat="44.05852" lon="7.21586">
        <ele>1700</ele>
        <time>2014-08-30T08:24:57Z</time>
      </trkpt>
      <trkpt lat="44.05845" lon="7.21591">
        <ele>1700</ele>
        <time>2014-08-30T08:25:01Z</time>
      </trkpt>
      <trkpt lat="44.05839" lon="7.21594">
        <ele>1701</ele>
        <time>2014-08-30T08:25:04Z</time>
      </trkpt>
      <trkpt lat="44.05834" lon="7.21597">
        <ele>1702</ele>
        <time>2014-08-30T08:25:07Z</time>
      </trkpt>
      <trkpt lat="44.05828" lon="7.21598">
        <ele>1703</ele>
        <time>2014-08-30T08:25:10Z</time>
      </trkpt>
      <trkpt lat="44.05822" lon="7.21599">
        <ele>1704</ele>
        <time>2014-08-30T08:25:13Z</time>
      </trkpt>
      <trkpt lat="44.05816" lon="7.216">
        <ele>1705</ele>
        <time>2014-08-30T08:25:16Z</time>
      </trkpt>
      <trkpt lat="44.05811" lon="7.21602">
        <ele>1707</ele>
        <time>2014-08-30T08:25:19Z</time>
      </trkpt>
      <trkpt lat="44.05806" lon="7.21605">
        <ele>1708</ele>
        <time>2014-08-30T08:25:22Z</time>
      </trkpt>
      <trkpt lat="44.05801" lon="7.21608">
        <ele>1709</ele>
        <time>2014-08-30T08:25:25Z</time>
      </trkpt>
      <trkpt lat="44.05796" lon="7.21612">
        <ele>1709</ele>
        <time>2014-08-30T08:25:28Z</time>
      </trkpt>
      <trkpt lat="44.05791" lon="7.21616">
        <ele>1710</ele>
        <time>2014-08-30T08:25:31Z</time>
      </trkpt>
      <trkpt lat="44.05786" lon="7.21618">
        <ele>1711</ele>
        <time>2014-08-30T08:25:34Z</time>
      </trkpt>
      <trkpt lat="44.05781" lon="7.21621">
        <ele>1712</ele>
        <time>2014-08-30T08:25:37Z</time>
      </trkpt>
      <trkpt lat="44.05777" lon="7.21625">
        <ele>1713</ele>
        <time>2014-08-30T08:25:40Z</time>
      </trkpt>
      <trkpt lat="44.05773" lon="7.21627">
        <ele>1713</ele>
        <time>2014-08-30T08:25:43Z</time>
      </trkpt>
      <trkpt lat="44.05768" lon="7.2163">
        <ele>1715</ele>
        <time>2014-08-30T08:25:46Z</time>
      </trkpt>
      <trkpt lat="44.05762" lon="7.21633">
        <ele>1715</ele>
        <time>2014-08-30T08:25:49Z</time>
      </trkpt>
      <trkpt lat="44.05754" lon="7.21637">
        <ele>1716</ele>
        <time>2014-08-30T08:25:52Z</time>
      </trkpt>
      <trkpt lat="44.05749" lon="7.2164">
        <ele>1717</ele>
        <time>2014-08-30T08:25:55Z</time>
      </trkpt>
      <trkpt lat="44.05743" lon="7.21641">
        <ele>1718</ele>
        <time>2014-08-30T08:25:58Z</time>
      </trkpt>
      <trkpt lat="44.05738" lon="7.21642">
        <ele>1719</ele>
        <time>2014-08-30T08:26:01Z</time>
      </trkpt>
      <trkpt lat="44.05733" lon="7.21643">
        <ele>1720</ele>
        <time>2014-08-30T08:26:04Z</time>
      </trkpt>
      <trkpt lat="44.05728" lon="7.21643">
        <ele>1720</ele>
        <time>2014-08-30T08:26:07Z</time>
      </trkpt>
      <trkpt lat="44.05721" lon="7.21644">
        <ele>1721</ele>
        <time>2014-08-30T08:26:10Z</time>
      </trkpt>
      <trkpt lat="44.05715" lon="7.21643">
        <ele>1722</ele>
        <time>2014-08-30T08:26:13Z</time>
      </trkpt>
      <trkpt lat="44.05709" lon="7.21642">
        <ele>1722</ele>
        <time>2014-08-30T08:26:16Z</time>
      </trkpt>
      <trkpt lat="44.05703" lon="7.21642">
        <ele>1723</ele>
        <time>2014-08-30T08:26:19Z</time>
      </trkpt>
      <trkpt lat="44.05696" lon="7.21643">
        <ele>1724</ele>
        <time>2014-08-30T08:26:22Z</time>
      </trkpt>
      <trkpt lat="44.05691" lon="7.21643">
        <ele>1724</ele>
        <time>2014-08-30T08:26:25Z</time>
      </trkpt>
      <trkpt lat="44.05685" lon="7.21643">
        <ele>1725</ele>
        <time>2014-08-30T08:26:28Z</time>
      </trkpt>
      <trkpt lat="44.05679" lon="7.21642">
        <ele>1726</ele>
        <time>2014-08-30T08:26:31Z</time>
      </trkpt>
      <trkpt lat="44.05674" lon="7.21641">
        <ele>1726</ele>
        <time>2014-08-30T08:26:34Z</time>
      </trkpt>
      <trkpt lat="44.05668" lon="7.21637">
        <ele>1728</ele>
        <time>2014-08-30T08:26:37Z</time>
      </trkpt>
      <trkpt lat="44.05663" lon="7.21631">
        <ele>1728</ele>
        <time>2014-08-30T08:26:40Z</time>
      </trkpt>
      <trkpt lat="44.05657" lon="7.21626">
        <ele>1728</ele>
        <time>2014-08-30T08:26:43Z</time>
      </trkpt>
      <trkpt lat="44.05651" lon="7.21622">
        <ele>1729</ele>
        <time>2014-08-30T08:26:46Z</time>
      </trkpt>
      <trkpt lat="44.05646" lon="7.2162">
        <ele>1730</ele>
        <time>2014-08-30T08:26:49Z</time>
      </trkpt>
      <trkpt lat="44.05641" lon="7.21619">
        <ele>1731</ele>
        <time>2014-08-30T08:26:52Z</time>
      </trkpt>
      <trkpt lat="44.05637" lon="7.21614">
        <ele>1732</ele>
        <time>2014-08-30T08:26:55Z</time>
      </trkpt>
      <trkpt lat="44.05633" lon="7.21609">
        <ele>1733</ele>
        <time>2014-08-30T08:26:58Z</time>
      </trkpt>
      <trkpt lat="44.05629" lon="7.21606">
        <ele>1733</ele>
        <time>2014-08-30T08:27:01Z</time>
      </trkpt>
      <trkpt lat="44.05625" lon="7.21604">
        <ele>1734</ele>
        <time>2014-08-30T08:27:04Z</time>
      </trkpt>
      <trkpt lat="44.0562" lon="7.21601">
        <ele>1735</ele>
        <time>2014-08-30T08:27:07Z</time>
      </trkpt>
      <trkpt lat="44.05616" lon="7.21599">
        <ele>1736</ele>
        <time>2014-08-30T08:27:10Z</time>
      </trkpt>
      <trkpt lat="44.05612" lon="7.21596">
        <ele>1737</ele>
        <time>2014-08-30T08:27:13Z</time>
      </trkpt>
      <trkpt lat="44.05608" lon="7.21593">
        <ele>1737</ele>
        <time>2014-08-30T08:27:16Z</time>
      </trkpt>
      <trkpt lat="44.05605" lon="7.2159">
        <ele>1739</ele>
        <time>2014-08-30T08:27:19Z</time>
      </trkpt>
      <trkpt lat="44.05601" lon="7.21587">
        <ele>1739</ele>
        <time>2014-08-30T08:27:22Z</time>
      </trkpt>
      <trkpt lat="44.05597" lon="7.21583">
        <ele>1740</ele>
        <time>2014-08-30T08:27:25Z</time>
      </trkpt>
      <trkpt lat="44.05593" lon="7.21578">
        <ele>1741</ele>
        <time>2014-08-30T08:27:28Z</time>
      </trkpt>
      <trkpt lat="44.05589" lon="7.21572">
        <ele>1741</ele>
        <time>2014-08-30T08:27:31Z</time>
      </trkpt>
      <trkpt lat="44.05585" lon="7.21566">
        <ele>1741</ele>
        <time>2014-08-30T08:27:34Z</time>
      </trkpt>
      <trkpt lat="44.05581" lon="7.21562">
        <ele>1742</ele>
        <time>2014-08-30T08:27:37Z</time>
      </trkpt>
      <trkpt lat="44.05575" lon="7.21558">
        <ele>1743</ele>
        <time>2014-08-30T08:27:40Z</time>
      </trkpt>
      <trkpt lat="44.05562" lon="7.21551">
        <ele>1742</ele>
        <time>2014-08-30T08:27:43Z</time>
      </trkpt>
      <trkpt lat="44.05548" lon="7.21543">
        <ele>1741</ele>
        <time>2014-08-30T08:27:46Z</time>
      </trkpt>
      <trkpt lat="44.05538" lon="7.21535">
        <ele>1741</ele>
        <time>2014-08-30T08:27:49Z</time>
      </trkpt>
      <trkpt lat="44.0553" lon="7.21529">
        <ele>1741</ele>
        <time>2014-08-30T08:27:52Z</time>
      </trkpt>
      <trkpt lat="44.05523" lon="7.21524">
        <ele>1741</ele>
        <time>2014-08-30T08:27:55Z</time>
      </trkpt>
      <trkpt lat="44.05518" lon="7.21519">
        <ele>1743</ele>
        <time>2014-08-30T08:27:58Z</time>
      </trkpt>
      <trkpt lat="44.05511" lon="7.21513">
        <ele>1743</ele>
        <time>2014-08-30T08:28:01Z</time>
      </trkpt>
      <trkpt lat="44.05503" lon="7.21507">
        <ele>1743</ele>
        <time>2014-08-30T08:28:04Z</time>
      </trkpt>
      <trkpt lat="44.05496" lon="7.21501">
        <ele>1744</ele>
        <time>2014-08-30T08:28:07Z</time>
      </trkpt>
      <trkpt lat="44.05488" lon="7.21494">
        <ele>1745</ele>
        <time>2014-08-30T08:28:10Z</time>
      </trkpt>
      <trkpt lat="44.05481" lon="7.21488">
        <ele>1745</ele>
        <time>2014-08-30T08:28:13Z</time>
      </trkpt>
      <trkpt lat="44.05475" lon="7.21484">
        <ele>1746</ele>
        <time>2014-08-30T08:28:16Z</time>
      </trkpt>
      <trkpt lat="44.05469" lon="7.21479">
        <ele>1747</ele>
        <time>2014-08-30T08:28:19Z</time>
      </trkpt>
      <trkpt lat="44.05464" lon="7.21475">
        <ele>1749</ele>
        <time>2014-08-30T08:28:22Z</time>
      </trkpt>
      <trkpt lat="44.05459" lon="7.2147">
        <ele>1750</ele>
        <time>2014-08-30T08:28:25Z</time>
      </trkpt>
      <trkpt lat="44.05453" lon="7.21464">
        <ele>1750</ele>
        <time>2014-08-30T08:28:28Z</time>
      </trkpt>
      <trkpt lat="44.05449" lon="7.21457">
        <ele>1751</ele>
        <time>2014-08-30T08:28:31Z</time>
      </trkpt>
      <trkpt lat="44.05444" lon="7.21448">
        <ele>1752</ele>
        <time>2014-08-30T08:28:34Z</time>
      </trkpt>
      <trkpt lat="44.05435" lon="7.21435">
        <ele>1750</ele>
        <time>2014-08-30T08:28:37Z</time>
      </trkpt>
      <trkpt lat="44.0542" lon="7.21415">
        <ele>1748</ele>
        <time>2014-08-30T08:28:40Z</time>
      </trkpt>
      <trkpt lat="44.05412" lon="7.21408">
        <ele>1746</ele>
        <time>2014-08-30T08:28:43Z</time>
      </trkpt>
      <trkpt lat="44.05401" lon="7.21397">
        <ele>1743</ele>
        <time>2014-08-30T08:28:46Z</time>
      </trkpt>
      <trkpt lat="44.05393" lon="7.21381">
        <ele>1740</ele>
        <time>2014-08-30T08:28:49Z</time>
      </trkpt>
      <trkpt lat="44.05384" lon="7.21365">
        <ele>1736</ele>
        <time>2014-08-30T08:28:52Z</time>
      </trkpt>
      <trkpt lat="44.05377" lon="7.21352">
        <ele>1733</ele>
        <time>2014-08-30T08:28:55Z</time>
      </trkpt>
      <trkpt lat="44.05364" lon="7.21341">
        <ele>1730</ele>
        <time>2014-08-30T08:28:58Z</time>
      </trkpt>
      <trkpt lat="44.05352" lon="7.21333">
        <ele>1727</ele>
        <time>2014-08-30T08:29:01Z</time>
      </trkpt>
      <trkpt lat="44.05345" lon="7.21326">
        <ele>1723</ele>
        <time>2014-08-30T08:29:04Z</time>
      </trkpt>
      <trkpt lat="44.05337" lon="7.21314">
        <ele>1721</ele>
        <time>2014-08-30T08:29:07Z</time>
      </trkpt>
      <trkpt lat="44.05322" lon="7.21295">
        <ele>1717</ele>
        <time>2014-08-30T08:29:10Z</time>
      </trkpt>
      <trkpt lat="44.05305" lon="7.21282">
        <ele>1712</ele>
        <time>2014-08-30T08:29:13Z</time>
      </trkpt>
      <trkpt lat="44.0529" lon="7.21277">
        <ele>1707</ele>
        <time>2014-08-30T08:29:16Z</time>
      </trkpt>
      <trkpt lat="44.05284" lon="7.21275">
        <ele>1702</ele>
        <time>2014-08-30T08:29:19Z</time>
      </trkpt>
      <trkpt lat="44.05277" lon="7.21268">
        <ele>1702</ele>
        <time>2014-08-30T08:29:22Z</time>
      </trkpt>
      <trkpt lat="44.05274" lon="7.21259">
        <ele>1702</ele>
        <time>2014-08-30T08:29:25Z</time>
      </trkpt>
      <trkpt lat="44.0527" lon="7.21251">
        <ele>1700</ele>
        <time>2014-08-30T08:29:28Z</time>
      </trkpt>
      <trkpt lat="44.05261" lon="7.21241">
        <ele>1700</ele>
        <time>2014-08-30T08:29:31Z</time>
      </trkpt>
      <trkpt lat="44.05256" lon="7.21232">
        <ele>1700</ele>
        <time>2014-08-30T08:29:34Z</time>
      </trkpt>
      <trkpt lat="44.05251" lon="7.21226">
        <ele>1700</ele>
        <time>2014-08-30T08:29:37Z</time>
      </trkpt>
      <trkpt lat="44.05244" lon="7.21218">
        <ele>1701</ele>
        <time>2014-08-30T08:29:40Z</time>
      </trkpt>
      <trkpt lat="44.05237" lon="7.2121">
        <ele>1702</ele>
        <time>2014-08-30T08:29:43Z</time>
      </trkpt>
      <trkpt lat="44.05229" lon="7.21202">
        <ele>1702</ele>
        <time>2014-08-30T08:29:46Z</time>
      </trkpt>
      <trkpt lat="44.05224" lon="7.21191">
        <ele>1702</ele>
        <time>2014-08-30T08:29:49Z</time>
      </trkpt>
      <trkpt lat="44.05218" lon="7.21181">
        <ele>1702</ele>
        <time>2014-08-30T08:29:52Z</time>
      </trkpt>
      <trkpt lat="44.05211" lon="7.21172">
        <ele>1702</ele>
        <time>2014-08-30T08:29:55Z</time>
      </trkpt>
      <trkpt lat="44.05206" lon="7.21168">
        <ele>1704</ele>
        <time>2014-08-30T08:29:58Z</time>
      </trkpt>
      <trkpt lat="44.05203" lon="7.21166">
        <ele>1705</ele>
        <time>2014-08-30T08:30:01Z</time>
      </trkpt>
      <trkpt lat="44.052" lon="7.21163">
        <ele>1706</ele>
        <time>2014-08-30T08:30:04Z</time>
      </trkpt>
      <trkpt lat="44.05195" lon="7.21158">
        <ele>1707</ele>
        <time>2014-08-30T08:30:07Z</time>
      </trkpt>
      <trkpt lat="44.05189" lon="7.21153">
        <ele>1708</ele>
        <time>2014-08-30T08:30:10Z</time>
      </trkpt>
      <trkpt lat="44.05185" lon="7.2115">
        <ele>1709</ele>
        <time>2014-08-30T08:30:13Z</time>
      </trkpt>
      <trkpt lat="44.05181" lon="7.21146">
        <ele>1710</ele>
        <time>2014-08-30T08:30:16Z</time>
      </trkpt>
      <trkpt lat="44.05175" lon="7.21143">
        <ele>1711</ele>
        <time>2014-08-30T08:30:19Z</time>
      </trkpt>
      <trkpt lat="44.0517" lon="7.21141">
        <ele>1711</ele>
        <time>2014-08-30T08:30:22Z</time>
      </trkpt>
      <trkpt lat="44.05167" lon="7.21138">
        <ele>1712</ele>
        <time>2014-08-30T08:30:25Z</time>
      </trkpt>
      <trkpt lat="44.0516" lon="7.21136">
        <ele>1713</ele>
        <time>2014-08-30T08:30:28Z</time>
      </trkpt>
      <trkpt lat="44.05155" lon="7.21135">
        <ele>1714</ele>
        <time>2014-08-30T08:30:31Z</time>
      </trkpt>
      <trkpt lat="44.05153" lon="7.21131">
        <ele>1715</ele>
        <time>2014-08-30T08:30:34Z</time>
      </trkpt>
      <trkpt lat="44.0515" lon="7.21128">
        <ele>1715</ele>
        <time>2014-08-30T08:30:37Z</time>
      </trkpt>
      <trkpt lat="44.05146" lon="7.21125">
        <ele>1715</ele>
        <time>2014-08-30T08:30:40Z</time>
      </trkpt>
      <trkpt lat="44.0514" lon="7.21124">
        <ele>1716</ele>
        <time>2014-08-30T08:30:43Z</time>
      </trkpt>
      <trkpt lat="44.05137" lon="7.21122">
        <ele>1718</ele>
        <time>2014-08-30T08:30:46Z</time>
      </trkpt>
      <trkpt lat="44.05136" lon="7.21121">
        <ele>1718</ele>
        <time>2014-08-30T08:30:49Z</time>
      </trkpt>
      <trkpt lat="44.05138" lon="7.2112">
        <ele>1718</ele>
        <time>2014-08-30T08:30:52Z</time>
      </trkpt>
      <trkpt lat="44.05139" lon="7.21118">
        <ele>1719</ele>
        <time>2014-08-30T08:30:55Z</time>
      </trkpt>
      <trkpt lat="44.0514" lon="7.21117">
        <ele>1720</ele>
        <time>2014-08-30T08:30:58Z</time>
      </trkpt>
      <trkpt lat="44.05141" lon="7.21115">
        <ele>1720</ele>
        <time>2014-08-30T08:31:01Z</time>
      </trkpt>
      <trkpt lat="44.05142" lon="7.21113">
        <ele>1720</ele>
        <time>2014-08-30T08:31:04Z</time>
      </trkpt>
      <trkpt lat="44.05143" lon="7.21111">
        <ele>1721</ele>
        <time>2014-08-30T08:31:07Z</time>
      </trkpt>
      <trkpt lat="44.05143" lon="7.21109">
        <ele>1722</ele>
        <time>2014-08-30T08:31:10Z</time>
      </trkpt>
      <trkpt lat="44.05143" lon="7.21104">
        <ele>1722</ele>
        <time>2014-08-30T08:31:13Z</time>
      </trkpt>
      <trkpt lat="44.05144" lon="7.21101">
        <ele>1724</ele>
        <time>2014-08-30T08:31:16Z</time>
      </trkpt>
      <trkpt lat="44.05144" lon="7.21099">
        <ele>1724</ele>
        <time>2014-08-30T08:31:19Z</time>
      </trkpt>
      <trkpt lat="44.05141" lon="7.21098">
        <ele>1725</ele>
        <time>2014-08-30T08:31:25Z</time>
      </trkpt>
      <trkpt lat="44.05137" lon="7.21099">
        <ele>1726</ele>
        <time>2014-08-30T08:31:28Z</time>
      </trkpt>
      <trkpt lat="44.05136" lon="7.211">
        <ele>1726</ele>
        <time>2014-08-30T08:31:31Z</time>
      </trkpt>
      <trkpt lat="44.05132" lon="7.21101">
        <ele>1726</ele>
        <time>2014-08-30T08:31:34Z</time>
      </trkpt>
      <trkpt lat="44.05128" lon="7.211">
        <ele>1727</ele>
        <time>2014-08-30T08:31:37Z</time>
      </trkpt>
      <trkpt lat="44.05123" lon="7.21099">
        <ele>1728</ele>
        <time>2014-08-30T08:31:40Z</time>
      </trkpt>
      <trkpt lat="44.05119" lon="7.21099">
        <ele>1728</ele>
        <time>2014-08-30T08:31:43Z</time>
      </trkpt>
      <trkpt lat="44.05115" lon="7.21098">
        <ele>1728</ele>
        <time>2014-08-30T08:31:46Z</time>
      </trkpt>
      <trkpt lat="44.05116" lon="7.21095">
        <ele>1729</ele>
        <time>2014-08-30T08:31:49Z</time>
      </trkpt>
      <trkpt lat="44.05119" lon="7.21095">
        <ele>1730</ele>
        <time>2014-08-30T08:31:52Z</time>
      </trkpt>
      <trkpt lat="44.0512" lon="7.21092">
        <ele>1731</ele>
        <time>2014-08-30T08:31:55Z</time>
      </trkpt>
      <trkpt lat="44.05121" lon="7.21089">
        <ele>1731</ele>
        <time>2014-08-30T08:31:58Z</time>
      </trkpt>
      <trkpt lat="44.0512" lon="7.21085">
        <ele>1732</ele>
        <time>2014-08-30T08:32:01Z</time>
      </trkpt>
      <trkpt lat="44.05121" lon="7.21082">
        <ele>1733</ele>
        <time>2014-08-30T08:32:04Z</time>
      </trkpt>
      <trkpt lat="44.05122" lon="7.21079">
        <ele>1733</ele>
        <time>2014-08-30T08:32:07Z</time>
      </trkpt>
      <trkpt lat="44.05121" lon="7.21075">
        <ele>1735</ele>
        <time>2014-08-30T08:32:10Z</time>
      </trkpt>
      <trkpt lat="44.05119" lon="7.21072">
        <ele>1735</ele>
        <time>2014-08-30T08:32:13Z</time>
      </trkpt>
      <trkpt lat="44.05118" lon="7.2107">
        <ele>1736</ele>
        <time>2014-08-30T08:32:16Z</time>
      </trkpt>
      <trkpt lat="44.05116" lon="7.21067">
        <ele>1737</ele>
        <time>2014-08-30T08:32:19Z</time>
      </trkpt>
      <trkpt lat="44.05114" lon="7.21064">
        <ele>1737</ele>
        <time>2014-08-30T08:32:22Z</time>
      </trkpt>
      <trkpt lat="44.05112" lon="7.21062">
        <ele>1738</ele>
        <time>2014-08-30T08:32:25Z</time>
      </trkpt>
      <trkpt lat="44.05109" lon="7.21057">
        <ele>1739</ele>
        <time>2014-08-30T08:32:28Z</time>
      </trkpt>
      <trkpt lat="44.05107" lon="7.21054">
        <ele>1739</ele>
        <time>2014-08-30T08:32:31Z</time>
      </trkpt>
      <trkpt lat="44.05108" lon="7.21049">
        <ele>1739</ele>
        <time>2014-08-30T08:32:34Z</time>
      </trkpt>
      <trkpt lat="44.0511" lon="7.21046">
        <ele>1739</ele>
        <time>2014-08-30T08:32:37Z</time>
      </trkpt>
      <trkpt lat="44.0511" lon="7.21043">
        <ele>1740</ele>
        <time>2014-08-30T08:32:40Z</time>
      </trkpt>
      <trkpt lat="44.05112" lon="7.21041">
        <ele>1741</ele>
        <time>2014-08-30T08:32:43Z</time>
      </trkpt>
      <trkpt lat="44.05112" lon="7.21036">
        <ele>1742</ele>
        <time>2014-08-30T08:32:46Z</time>
      </trkpt>
      <trkpt lat="44.05112" lon="7.21027">
        <ele>1742</ele>
        <time>2014-08-30T08:32:49Z</time>
      </trkpt>
      <trkpt lat="44.05112" lon="7.21019">
        <ele>1744</ele>
        <time>2014-08-30T08:32:52Z</time>
      </trkpt>
      <trkpt lat="44.05114" lon="7.2101">
        <ele>1744</ele>
        <time>2014-08-30T08:32:55Z</time>
      </trkpt>
      <trkpt lat="44.05113" lon="7.21002">
        <ele>1745</ele>
        <time>2014-08-30T08:32:58Z</time>
      </trkpt>
      <trkpt lat="44.05114" lon="7.20995">
        <ele>1746</ele>
        <time>2014-08-30T08:33:01Z</time>
      </trkpt>
      <trkpt lat="44.05114" lon="7.20986">
        <ele>1746</ele>
        <time>2014-08-30T08:33:04Z</time>
      </trkpt>
      <trkpt lat="44.05115" lon="7.20978">
        <ele>1746</ele>
        <time>2014-08-30T08:33:07Z</time>
      </trkpt>
      <trkpt lat="44.05116" lon="7.20973">
        <ele>1746</ele>
        <time>2014-08-30T08:33:10Z</time>
      </trkpt>
      <trkpt lat="44.05117" lon="7.20967">
        <ele>1748</ele>
        <time>2014-08-30T08:33:13Z</time>
      </trkpt>
      <trkpt lat="44.05116" lon="7.20957">
        <ele>1748</ele>
        <time>2014-08-30T08:33:16Z</time>
      </trkpt>
      <trkpt lat="44.05116" lon="7.20949">
        <ele>1748</ele>
        <time>2014-08-30T08:33:19Z</time>
      </trkpt>
      <trkpt lat="44.05116" lon="7.20939">
        <ele>1748</ele>
        <time>2014-08-30T08:33:22Z</time>
      </trkpt>
      <trkpt lat="44.05117" lon="7.20929">
        <ele>1748</ele>
        <time>2014-08-30T08:33:25Z</time>
      </trkpt>
      <trkpt lat="44.0512" lon="7.20918">
        <ele>1748</ele>
        <time>2014-08-30T08:33:28Z</time>
      </trkpt>
      <trkpt lat="44.05125" lon="7.20907">
        <ele>1748</ele>
        <time>2014-08-30T08:33:31Z</time>
      </trkpt>
      <trkpt lat="44.05126" lon="7.20895">
        <ele>1748</ele>
        <time>2014-08-30T08:33:34Z</time>
      </trkpt>
      <trkpt lat="44.05127" lon="7.20887">
        <ele>1748</ele>
        <time>2014-08-30T08:33:37Z</time>
      </trkpt>
      <trkpt lat="44.0513" lon="7.20882">
        <ele>1749</ele>
        <time>2014-08-30T08:33:40Z</time>
      </trkpt>
      <trkpt lat="44.05133" lon="7.20874">
        <ele>1750</ele>
        <time>2014-08-30T08:33:43Z</time>
      </trkpt>
      <trkpt lat="44.05137" lon="7.20864">
        <ele>1750</ele>
        <time>2014-08-30T08:33:46Z</time>
      </trkpt>
      <trkpt lat="44.05142" lon="7.20852">
        <ele>1750</ele>
        <time>2014-08-30T08:33:49Z</time>
      </trkpt>
      <trkpt lat="44.05148" lon="7.20839">
        <ele>1750</ele>
        <time>2014-08-30T08:33:52Z</time>
      </trkpt>
      <trkpt lat="44.05153" lon="7.20828">
        <ele>1750</ele>
        <time>2014-08-30T08:33:55Z</time>
      </trkpt>
      <trkpt lat="44.05156" lon="7.2082">
        <ele>1750</ele>
        <time>2014-08-30T08:33:58Z</time>
      </trkpt>
      <trkpt lat="44.05159" lon="7.20814">
        <ele>1750</ele>
        <time>2014-08-30T08:34:01Z</time>
      </trkpt>
      <trkpt lat="44.05162" lon="7.20808">
        <ele>1750</ele>
        <time>2014-08-30T08:34:04Z</time>
      </trkpt>
      <trkpt lat="44.05166" lon="7.20804">
        <ele>1751</ele>
        <time>2014-08-30T08:34:07Z</time>
      </trkpt>
      <trkpt lat="44.05168" lon="7.20799">
        <ele>1752</ele>
        <time>2014-08-30T08:34:10Z</time>
      </trkpt>
      <trkpt lat="44.05167" lon="7.20795">
        <ele>1752</ele>
        <time>2014-08-30T08:34:13Z</time>
      </trkpt>
      <trkpt lat="44.05167" lon="7.2079">
        <ele>1752</ele>
        <time>2014-08-30T08:34:16Z</time>
      </trkpt>
      <trkpt lat="44.05169" lon="7.20784">
        <ele>1752</ele>
        <time>2014-08-30T08:34:19Z</time>
      </trkpt>
      <trkpt lat="44.05168" lon="7.20776">
        <ele>1754</ele>
        <time>2014-08-30T08:34:22Z</time>
      </trkpt>
      <trkpt lat="44.05165" lon="7.20767">
        <ele>1755</ele>
        <time>2014-08-30T08:34:25Z</time>
      </trkpt>
      <trkpt lat="44.05162" lon="7.2076">
        <ele>1755</ele>
        <time>2014-08-30T08:34:28Z</time>
      </trkpt>
      <trkpt lat="44.05158" lon="7.20753">
        <ele>1755</ele>
        <time>2014-08-30T08:34:31Z</time>
      </trkpt>
      <trkpt lat="44.05155" lon="7.20747">
        <ele>1757</ele>
        <time>2014-08-30T08:34:34Z</time>
      </trkpt>
      <trkpt lat="44.05154" lon="7.20739">
        <ele>1757</ele>
        <time>2014-08-30T08:34:37Z</time>
      </trkpt>
      <trkpt lat="44.05153" lon="7.20731">
        <ele>1758</ele>
        <time>2014-08-30T08:34:40Z</time>
      </trkpt>
      <trkpt lat="44.05152" lon="7.20725">
        <ele>1759</ele>
        <time>2014-08-30T08:34:43Z</time>
      </trkpt>
      <trkpt lat="44.05148" lon="7.20719">
        <ele>1759</ele>
        <time>2014-08-30T08:34:46Z</time>
      </trkpt>
      <trkpt lat="44.05143" lon="7.20713">
        <ele>1759</ele>
        <time>2014-08-30T08:34:49Z</time>
      </trkpt>
      <trkpt lat="44.05138" lon="7.20706">
        <ele>1760</ele>
        <time>2014-08-30T08:34:52Z</time>
      </trkpt>
      <trkpt lat="44.05134" lon="7.207">
        <ele>1761</ele>
        <time>2014-08-30T08:34:55Z</time>
      </trkpt>
      <trkpt lat="44.0513" lon="7.20694">
        <ele>1761</ele>
        <time>2014-08-30T08:34:58Z</time>
      </trkpt>
      <trkpt lat="44.05126" lon="7.20688">
        <ele>1761</ele>
        <time>2014-08-30T08:35:01Z</time>
      </trkpt>
      <trkpt lat="44.05123" lon="7.20684">
        <ele>1762</ele>
        <time>2014-08-30T08:35:04Z</time>
      </trkpt>
      <trkpt lat="44.05123" lon="7.20683">
        <ele>1763</ele>
        <time>2014-08-30T08:35:07Z</time>
      </trkpt>
      <trkpt lat="44.05122" lon="7.20681">
        <ele>1763</ele>
        <time>2014-08-30T08:35:10Z</time>
      </trkpt>
      <trkpt lat="44.0512" lon="7.20677">
        <ele>1763</ele>
        <time>2014-08-30T08:35:13Z</time>
      </trkpt>
      <trkpt lat="44.05117" lon="7.20674">
        <ele>1763</ele>
        <time>2014-08-30T08:35:16Z</time>
      </trkpt>
      <trkpt lat="44.05112" lon="7.2067">
        <ele>1763</ele>
        <time>2014-08-30T08:35:19Z</time>
      </trkpt>
      <trkpt lat="44.05106" lon="7.20666">
        <ele>1763</ele>
        <time>2014-08-30T08:35:22Z</time>
      </trkpt>
      <trkpt lat="44.05101" lon="7.20661">
        <ele>1764</ele>
        <time>2014-08-30T08:35:25Z</time>
      </trkpt>
      <trkpt lat="44.05097" lon="7.20658">
        <ele>1765</ele>
        <time>2014-08-30T08:35:28Z</time>
      </trkpt>
      <trkpt lat="44.05093" lon="7.20655">
        <ele>1766</ele>
        <time>2014-08-30T08:35:31Z</time>
      </trkpt>
      <trkpt lat="44.05088" lon="7.20652">
        <ele>1767</ele>
        <time>2014-08-30T08:35:34Z</time>
      </trkpt>
      <trkpt lat="44.05084" lon="7.20648">
        <ele>1768</ele>
        <time>2014-08-30T08:35:37Z</time>
      </trkpt>
      <trkpt lat="44.05081" lon="7.20644">
        <ele>1768</ele>
        <time>2014-08-30T08:35:40Z</time>
      </trkpt>
      <trkpt lat="44.05078" lon="7.20641">
        <ele>1770</ele>
        <time>2014-08-30T08:35:43Z</time>
      </trkpt>
      <trkpt lat="44.05074" lon="7.20638">
        <ele>1770</ele>
        <time>2014-08-30T08:35:46Z</time>
      </trkpt>
      <trkpt lat="44.05071" lon="7.20635">
        <ele>1771</ele>
        <time>2014-08-30T08:35:49Z</time>
      </trkpt>
      <trkpt lat="44.05069" lon="7.20632">
        <ele>1772</ele>
        <time>2014-08-30T08:35:52Z</time>
      </trkpt>
      <trkpt lat="44.05066" lon="7.20628">
        <ele>1772</ele>
        <time>2014-08-30T08:35:55Z</time>
      </trkpt>
      <trkpt lat="44.05062" lon="7.20626">
        <ele>1774</ele>
        <time>2014-08-30T08:35:58Z</time>
      </trkpt>
      <trkpt lat="44.05059" lon="7.20625">
        <ele>1774</ele>
        <time>2014-08-30T08:36:01Z</time>
      </trkpt>
      <trkpt lat="44.05057" lon="7.20625">
        <ele>1774</ele>
        <time>2014-08-30T08:36:04Z</time>
      </trkpt>
      <trkpt lat="44.05053" lon="7.20624">
        <ele>1775</ele>
        <time>2014-08-30T08:36:07Z</time>
      </trkpt>
      <trkpt lat="44.05049" lon="7.20622">
        <ele>1776</ele>
        <time>2014-08-30T08:36:10Z</time>
      </trkpt>
      <trkpt lat="44.05046" lon="7.20619">
        <ele>1777</ele>
        <time>2014-08-30T08:36:13Z</time>
      </trkpt>
      <trkpt lat="44.05044" lon="7.20618">
        <ele>1778</ele>
        <time>2014-08-30T08:36:16Z</time>
      </trkpt>
      <trkpt lat="44.05042" lon="7.20616">
        <ele>1778</ele>
        <time>2014-08-30T08:36:19Z</time>
      </trkpt>
      <trkpt lat="44.05041" lon="7.20615">
        <ele>1778</ele>
        <time>2014-08-30T08:36:22Z</time>
      </trkpt>
      <trkpt lat="44.05041" lon="7.20616">
        <ele>1778</ele>
        <time>2014-08-30T08:36:25Z</time>
      </trkpt>
      <trkpt lat="44.05042" lon="7.20614">
        <ele>1778</ele>
        <time>2014-08-30T08:36:28Z</time>
      </trkpt>
      <trkpt lat="44.05039" lon="7.2061">
        <ele>1778</ele>
        <time>2014-08-30T08:36:31Z</time>
      </trkpt>
      <trkpt lat="44.05035" lon="7.20606">
        <ele>1779</ele>
        <time>2014-08-30T08:36:34Z</time>
      </trkpt>
      <trkpt lat="44.05032" lon="7.20603">
        <ele>1780</ele>
        <time>2014-08-30T08:36:37Z</time>
      </trkpt>
      <trkpt lat="44.05027" lon="7.206">
        <ele>1780</ele>
        <time>2014-08-30T08:36:40Z</time>
      </trkpt>
      <trkpt lat="44.05022" lon="7.20596">
        <ele>1780</ele>
        <time>2014-08-30T08:36:43Z</time>
      </trkpt>
      <trkpt lat="44.05016" lon="7.20591">
        <ele>1781</ele>
        <time>2014-08-30T08:36:46Z</time>
      </trkpt>
      <trkpt lat="44.0501" lon="7.20587">
        <ele>1782</ele>
        <time>2014-08-30T08:36:49Z</time>
      </trkpt>
      <trkpt lat="44.05005" lon="7.20584">
        <ele>1783</ele>
        <time>2014-08-30T08:36:52Z</time>
      </trkpt>
      <trkpt lat="44.05002" lon="7.20581">
        <ele>1784</ele>
        <time>2014-08-30T08:36:55Z</time>
      </trkpt>
      <trkpt lat="44.04998" lon="7.20579">
        <ele>1785</ele>
        <time>2014-08-30T08:36:58Z</time>
      </trkpt>
      <trkpt lat="44.04995" lon="7.20574">
        <ele>1785</ele>
        <time>2014-08-30T08:37:01Z</time>
      </trkpt>
      <trkpt lat="44.04993" lon="7.20568">
        <ele>1786</ele>
        <time>2014-08-30T08:37:04Z</time>
      </trkpt>
      <trkpt lat="44.04991" lon="7.20563">
        <ele>1787</ele>
        <time>2014-08-30T08:37:07Z</time>
      </trkpt>
      <trkpt lat="44.04987" lon="7.20557">
        <ele>1787</ele>
        <time>2014-08-30T08:37:10Z</time>
      </trkpt>
      <trkpt lat="44.04984" lon="7.20552">
        <ele>1787</ele>
        <time>2014-08-30T08:37:13Z</time>
      </trkpt>
      <trkpt lat="44.04983" lon="7.20549">
        <ele>1788</ele>
        <time>2014-08-30T08:37:16Z</time>
      </trkpt>
      <trkpt lat="44.04982" lon="7.20546">
        <ele>1789</ele>
        <time>2014-08-30T08:37:19Z</time>
      </trkpt>
      <trkpt lat="44.0498" lon="7.20544">
        <ele>1789</ele>
        <time>2014-08-30T08:37:22Z</time>
      </trkpt>
      <trkpt lat="44.04978" lon="7.2054">
        <ele>1789</ele>
        <time>2014-08-30T08:37:25Z</time>
      </trkpt>
      <trkpt lat="44.04977" lon="7.20535">
        <ele>1789</ele>
        <time>2014-08-30T08:37:28Z</time>
      </trkpt>
      <trkpt lat="44.04973" lon="7.20528">
        <ele>1790</ele>
        <time>2014-08-30T08:37:31Z</time>
      </trkpt>
      <trkpt lat="44.0497" lon="7.20524">
        <ele>1792</ele>
        <time>2014-08-30T08:37:34Z</time>
      </trkpt>
      <trkpt lat="44.04967" lon="7.2052">
        <ele>1792</ele>
        <time>2014-08-30T08:37:37Z</time>
      </trkpt>
      <trkpt lat="44.04966" lon="7.20514">
        <ele>1792</ele>
        <time>2014-08-30T08:37:40Z</time>
      </trkpt>
      <trkpt lat="44.04963" lon="7.20508">
        <ele>1792</ele>
        <time>2014-08-30T08:37:43Z</time>
      </trkpt>
      <trkpt lat="44.04961" lon="7.20502">
        <ele>1792</ele>
        <time>2014-08-30T08:37:46Z</time>
      </trkpt>
      <trkpt lat="44.04959" lon="7.20496">
        <ele>1793</ele>
        <time>2014-08-30T08:37:49Z</time>
      </trkpt>
      <trkpt lat="44.04956" lon="7.20491">
        <ele>1794</ele>
        <time>2014-08-30T08:37:52Z</time>
      </trkpt>
      <trkpt lat="44.04952" lon="7.20484">
        <ele>1794</ele>
        <time>2014-08-30T08:37:55Z</time>
      </trkpt>
      <trkpt lat="44.04949" lon="7.20476">
        <ele>1795</ele>
        <time>2014-08-30T08:37:58Z</time>
      </trkpt>
      <trkpt lat="44.04945" lon="7.20468">
        <ele>1796</ele>
        <time>2014-08-30T08:38:01Z</time>
      </trkpt>
      <trkpt lat="44.04941" lon="7.20458">
        <ele>1796</ele>
        <time>2014-08-30T08:38:04Z</time>
      </trkpt>
      <trkpt lat="44.04937" lon="7.20451">
        <ele>1797</ele>
        <time>2014-08-30T08:38:07Z</time>
      </trkpt>
      <trkpt lat="44.04934" lon="7.20447">
        <ele>1798</ele>
        <time>2014-08-30T08:38:10Z</time>
      </trkpt>
      <trkpt lat="44.04933" lon="7.20445">
        <ele>1798</ele>
        <time>2014-08-30T08:38:13Z</time>
      </trkpt>
      <trkpt lat="44.04931" lon="7.20443">
        <ele>1800</ele>
        <time>2014-08-30T08:38:16Z</time>
      </trkpt>
      <trkpt lat="44.04928" lon="7.20441">
        <ele>1800</ele>
        <time>2014-08-30T08:38:19Z</time>
      </trkpt>
      <trkpt lat="44.04924" lon="7.20439">
        <ele>1801</ele>
        <time>2014-08-30T08:38:22Z</time>
      </trkpt>
      <trkpt lat="44.04923" lon="7.20435">
        <ele>1802</ele>
        <time>2014-08-30T08:38:25Z</time>
      </trkpt>
      <trkpt lat="44.04923" lon="7.20432">
        <ele>1802</ele>
        <time>2014-08-30T08:38:28Z</time>
      </trkpt>
      <trkpt lat="44.04922" lon="7.20427">
        <ele>1803</ele>
        <time>2014-08-30T08:38:31Z</time>
      </trkpt>
      <trkpt lat="44.0492" lon="7.20423">
        <ele>1804</ele>
        <time>2014-08-30T08:38:34Z</time>
      </trkpt>
      <trkpt lat="44.04918" lon="7.20418">
        <ele>1804</ele>
        <time>2014-08-30T08:38:37Z</time>
      </trkpt>
      <trkpt lat="44.04918" lon="7.20414">
        <ele>1804</ele>
        <time>2014-08-30T08:38:40Z</time>
      </trkpt>
      <trkpt lat="44.04916" lon="7.20411">
        <ele>1805</ele>
        <time>2014-08-30T08:38:43Z</time>
      </trkpt>
      <trkpt lat="44.04914" lon="7.20407">
        <ele>1806</ele>
        <time>2014-08-30T08:38:46Z</time>
      </trkpt>
      <trkpt lat="44.04911" lon="7.20402">
        <ele>1806</ele>
        <time>2014-08-30T08:38:49Z</time>
      </trkpt>
      <trkpt lat="44.04906" lon="7.20398">
        <ele>1807</ele>
        <time>2014-08-30T08:38:52Z</time>
      </trkpt>
      <trkpt lat="44.04901" lon="7.20396">
        <ele>1809</ele>
        <time>2014-08-30T08:38:55Z</time>
      </trkpt>
      <trkpt lat="44.04897" lon="7.20395">
        <ele>1809</ele>
        <time>2014-08-30T08:38:58Z</time>
      </trkpt>
      <trkpt lat="44.04896" lon="7.20393">
        <ele>1811</ele>
        <time>2014-08-30T08:39:01Z</time>
      </trkpt>
      <trkpt lat="44.04894" lon="7.20391">
        <ele>1811</ele>
        <time>2014-08-30T08:39:04Z</time>
      </trkpt>
      <trkpt lat="44.04893" lon="7.20388">
        <ele>1812</ele>
        <time>2014-08-30T08:39:07Z</time>
      </trkpt>
      <trkpt lat="44.04892" lon="7.20383">
        <ele>1813</ele>
        <time>2014-08-30T08:39:10Z</time>
      </trkpt>
      <trkpt lat="44.04891" lon="7.20378">
        <ele>1813</ele>
        <time>2014-08-30T08:39:13Z</time>
      </trkpt>
      <trkpt lat="44.0489" lon="7.20374">
        <ele>1813</ele>
        <time>2014-08-30T08:39:16Z</time>
      </trkpt>
      <trkpt lat="44.0489" lon="7.20371">
        <ele>1813</ele>
        <time>2014-08-30T08:39:19Z</time>
      </trkpt>
      <trkpt lat="44.0489" lon="7.20369">
        <ele>1814</ele>
        <time>2014-08-30T08:39:22Z</time>
      </trkpt>
      <trkpt lat="44.04889" lon="7.20366">
        <ele>1815</ele>
        <time>2014-08-30T08:39:25Z</time>
      </trkpt>
      <trkpt lat="44.04887" lon="7.20363">
        <ele>1815</ele>
        <time>2014-08-30T08:39:28Z</time>
      </trkpt>
      <trkpt lat="44.04885" lon="7.20358">
        <ele>1816</ele>
        <time>2014-08-30T08:39:31Z</time>
      </trkpt>
      <trkpt lat="44.04883" lon="7.20355">
        <ele>1817</ele>
        <time>2014-08-30T08:39:34Z</time>
      </trkpt>
      <trkpt lat="44.0488" lon="7.20352">
        <ele>1817</ele>
        <time>2014-08-30T08:39:37Z</time>
      </trkpt>
      <trkpt lat="44.04878" lon="7.20348">
        <ele>1818</ele>
        <time>2014-08-30T08:39:40Z</time>
      </trkpt>
      <trkpt lat="44.04877" lon="7.20344">
        <ele>1819</ele>
        <time>2014-08-30T08:39:43Z</time>
      </trkpt>
      <trkpt lat="44.04876" lon="7.2034">
        <ele>1819</ele>
        <time>2014-08-30T08:39:46Z</time>
      </trkpt>
      <trkpt lat="44.04875" lon="7.20335">
        <ele>1820</ele>
        <time>2014-08-30T08:39:49Z</time>
      </trkpt>
      <trkpt lat="44.04873" lon="7.20332">
        <ele>1821</ele>
        <time>2014-08-30T08:39:52Z</time>
      </trkpt>
      <trkpt lat="44.04872" lon="7.20329">
        <ele>1821</ele>
        <time>2014-08-30T08:39:55Z</time>
      </trkpt>
      <trkpt lat="44.0487" lon="7.20328">
        <ele>1822</ele>
        <time>2014-08-30T08:39:58Z</time>
      </trkpt>
      <trkpt lat="44.04868" lon="7.20326">
        <ele>1823</ele>
        <time>2014-08-30T08:40:01Z</time>
      </trkpt>
      <trkpt lat="44.04866" lon="7.20322">
        <ele>1823</ele>
        <time>2014-08-30T08:40:04Z</time>
      </trkpt>
      <trkpt lat="44.04865" lon="7.20319">
        <ele>1823</ele>
        <time>2014-08-30T08:40:07Z</time>
      </trkpt>
      <trkpt lat="44.04864" lon="7.20315">
        <ele>1823</ele>
        <time>2014-08-30T08:40:10Z</time>
      </trkpt>
      <trkpt lat="44.04862" lon="7.20309">
        <ele>1825</ele>
        <time>2014-08-30T08:40:13Z</time>
      </trkpt>
      <trkpt lat="44.0486" lon="7.20303">
        <ele>1825</ele>
        <time>2014-08-30T08:40:16Z</time>
      </trkpt>
      <trkpt lat="44.04859" lon="7.20296">
        <ele>1825</ele>
        <time>2014-08-30T08:40:19Z</time>
      </trkpt>
      <trkpt lat="44.04856" lon="7.20287">
        <ele>1825</ele>
        <time>2014-08-30T08:40:22Z</time>
      </trkpt>
      <trkpt lat="44.04852" lon="7.20281">
        <ele>1825</ele>
        <time>2014-08-30T08:40:25Z</time>
      </trkpt>
      <trkpt lat="44.04848" lon="7.20275">
        <ele>1825</ele>
        <time>2014-08-30T08:40:28Z</time>
      </trkpt>
      <trkpt lat="44.04845" lon="7.20271">
        <ele>1825</ele>
        <time>2014-08-30T08:40:31Z</time>
      </trkpt>
      <trkpt lat="44.04843" lon="7.20268">
        <ele>1825</ele>
        <time>2014-08-30T08:40:34Z</time>
      </trkpt>
      <trkpt lat="44.04843" lon="7.20267">
        <ele>1825</ele>
        <time>2014-08-30T08:40:37Z</time>
      </trkpt>
      <trkpt lat="44.04843" lon="7.20264">
        <ele>1825</ele>
        <time>2014-08-30T08:40:40Z</time>
      </trkpt>
      <trkpt lat="44.04841" lon="7.20255">
        <ele>1825</ele>
        <time>2014-08-30T08:40:43Z</time>
      </trkpt>
      <trkpt lat="44.04837" lon="7.20241">
        <ele>1825</ele>
        <time>2014-08-30T08:40:46Z</time>
      </trkpt>
      <trkpt lat="44.04832" lon="7.20232">
        <ele>1825</ele>
        <time>2014-08-30T08:40:49Z</time>
      </trkpt>
      <trkpt lat="44.04829" lon="7.20228">
        <ele>1826</ele>
        <time>2014-08-30T08:40:52Z</time>
      </trkpt>
      <trkpt lat="44.04823" lon="7.20224">
        <ele>1828</ele>
        <time>2014-08-30T08:40:55Z</time>
      </trkpt>
      <trkpt lat="44.04819" lon="7.20222">
        <ele>1828</ele>
        <time>2014-08-30T08:40:58Z</time>
      </trkpt>
      <trkpt lat="44.04819" lon="7.2022">
        <ele>1828</ele>
        <time>2014-08-30T08:41:01Z</time>
      </trkpt>
      <trkpt lat="44.04817" lon="7.20218">
        <ele>1828</ele>
        <time>2014-08-30T08:41:04Z</time>
      </trkpt>
      <trkpt lat="44.04814" lon="7.20218">
        <ele>1829</ele>
        <time>2014-08-30T08:41:07Z</time>
      </trkpt>
      <trkpt lat="44.04811" lon="7.20219">
        <ele>1830</ele>
        <time>2014-08-30T08:41:10Z</time>
      </trkpt>
      <trkpt lat="44.04808" lon="7.20218">
        <ele>1831</ele>
        <time>2014-08-30T08:41:13Z</time>
      </trkpt>
      <trkpt lat="44.04805" lon="7.20218">
        <ele>1832</ele>
        <time>2014-08-30T08:41:16Z</time>
      </trkpt>
      <trkpt lat="44.04802" lon="7.20218">
        <ele>1832</ele>
        <time>2014-08-30T08:41:19Z</time>
      </trkpt>
      <trkpt lat="44.048" lon="7.20218">
        <ele>1832</ele>
        <time>2014-08-30T08:41:22Z</time>
      </trkpt>
      <trkpt lat="44.04798" lon="7.20216">
        <ele>1832</ele>
        <time>2014-08-30T08:41:25Z</time>
      </trkpt>
      <trkpt lat="44.04796" lon="7.20214">
        <ele>1832</ele>
        <time>2014-08-30T08:41:28Z</time>
      </trkpt>
      <trkpt lat="44.04794" lon="7.20212">
        <ele>1833</ele>
        <time>2014-08-30T08:41:31Z</time>
      </trkpt>
      <trkpt lat="44.0479" lon="7.20209">
        <ele>1834</ele>
        <time>2014-08-30T08:41:34Z</time>
      </trkpt>
      <trkpt lat="44.04786" lon="7.20206">
        <ele>1834</ele>
        <time>2014-08-30T08:41:37Z</time>
      </trkpt>
      <trkpt lat="44.04783" lon="7.20201">
        <ele>1835</ele>
        <time>2014-08-30T08:41:40Z</time>
      </trkpt>
      <trkpt lat="44.04778" lon="7.20198">
        <ele>1836</ele>
        <time>2014-08-30T08:41:43Z</time>
      </trkpt>
      <trkpt lat="44.04775" lon="7.20198">
        <ele>1836</ele>
        <time>2014-08-30T08:41:46Z</time>
      </trkpt>
      <trkpt lat="44.04772" lon="7.20199">
        <ele>1836</ele>
        <time>2014-08-30T08:41:49Z</time>
      </trkpt>
      <trkpt lat="44.04769" lon="7.20198">
        <ele>1837</ele>
        <time>2014-08-30T08:41:52Z</time>
      </trkpt>
      <trkpt lat="44.04767" lon="7.20197">
        <ele>1838</ele>
        <time>2014-08-30T08:41:55Z</time>
      </trkpt>
      <trkpt lat="44.04766" lon="7.20196">
        <ele>1839</ele>
        <time>2014-08-30T08:41:58Z</time>
      </trkpt>
      <trkpt lat="44.04768" lon="7.20193">
        <ele>1840</ele>
        <time>2014-08-30T08:42:01Z</time>
      </trkpt>
      <trkpt lat="44.04771" lon="7.20189">
        <ele>1840</ele>
        <time>2014-08-30T08:42:04Z</time>
      </trkpt>
      <trkpt lat="44.04774" lon="7.20187">
        <ele>1841</ele>
        <time>2014-08-30T08:42:07Z</time>
      </trkpt>
      <trkpt lat="44.04776" lon="7.20183">
        <ele>1842</ele>
        <time>2014-08-30T08:42:10Z</time>
      </trkpt>
      <trkpt lat="44.04775" lon="7.20181">
        <ele>1843</ele>
        <time>2014-08-30T08:42:13Z</time>
      </trkpt>
      <trkpt lat="44.04774" lon="7.20181">
        <ele>1843</ele>
        <time>2014-08-30T08:42:16Z</time>
      </trkpt>
      <trkpt lat="44.04775" lon="7.20182">
        <ele>1844</ele>
        <time>2014-08-30T08:42:19Z</time>
      </trkpt>
      <trkpt lat="44.04775" lon="7.20183">
        <ele>1845</ele>
        <time>2014-08-30T08:42:22Z</time>
      </trkpt>
      <trkpt lat="44.04775" lon="7.20184">
        <ele>1845</ele>
        <time>2014-08-30T08:42:25Z</time>
      </trkpt>
      <trkpt lat="44.04776" lon="7.20187">
        <ele>1845</ele>
        <time>2014-08-30T08:42:28Z</time>
      </trkpt>
      <trkpt lat="44.04778" lon="7.20188">
        <ele>1845</ele>
        <time>2014-08-30T08:42:31Z</time>
      </trkpt>
      <trkpt lat="44.0478" lon="7.20192">
        <ele>1846</ele>
        <time>2014-08-30T08:42:34Z</time>
      </trkpt>
      <trkpt lat="44.04782" lon="7.20195">
        <ele>1847</ele>
        <time>2014-08-30T08:42:37Z</time>
      </trkpt>
      <trkpt lat="44.04781" lon="7.20198">
        <ele>1847</ele>
        <time>2014-08-30T08:42:40Z</time>
      </trkpt>
      <trkpt lat="44.0478" lon="7.20198">
        <ele>1848</ele>
        <time>2014-08-30T08:42:43Z</time>
      </trkpt>
      <trkpt lat="44.0478" lon="7.20199">
        <ele>1849</ele>
        <time>2014-08-30T08:42:46Z</time>
      </trkpt>
      <trkpt lat="44.0478" lon="7.20201">
        <ele>1849</ele>
        <time>2014-08-30T08:42:49Z</time>
      </trkpt>
      <trkpt lat="44.04777" lon="7.20201">
        <ele>1849</ele>
        <time>2014-08-30T08:42:52Z</time>
      </trkpt>
      <trkpt lat="44.04772" lon="7.202">
        <ele>1850</ele>
        <time>2014-08-30T08:42:55Z</time>
      </trkpt>
      <trkpt lat="44.04767" lon="7.20202">
        <ele>1851</ele>
        <time>2014-08-30T08:42:58Z</time>
      </trkpt>
      <trkpt lat="44.04764" lon="7.20207">
        <ele>1852</ele>
        <time>2014-08-30T08:43:01Z</time>
      </trkpt>
      <trkpt lat="44.04762" lon="7.20208">
        <ele>1853</ele>
        <time>2014-08-30T08:43:04Z</time>
      </trkpt>
      <trkpt lat="44.04762" lon="7.20206">
        <ele>1853</ele>
        <time>2014-08-30T08:43:07Z</time>
      </trkpt>
      <trkpt lat="44.0476" lon="7.20202">
        <ele>1854</ele>
        <time>2014-08-30T08:43:10Z</time>
      </trkpt>
      <trkpt lat="44.04757" lon="7.20198">
        <ele>1855</ele>
        <time>2014-08-30T08:43:13Z</time>
      </trkpt>
      <trkpt lat="44.04756" lon="7.20198">
        <ele>1855</ele>
        <time>2014-08-30T08:43:16Z</time>
      </trkpt>
      <trkpt lat="44.04754" lon="7.20197">
        <ele>1855</ele>
        <time>2014-08-30T08:43:19Z</time>
      </trkpt>
      <trkpt lat="44.04753" lon="7.20195">
        <ele>1856</ele>
        <time>2014-08-30T08:43:22Z</time>
      </trkpt>
      <trkpt lat="44.04752" lon="7.20194">
        <ele>1857</ele>
        <time>2014-08-30T08:43:25Z</time>
      </trkpt>
      <trkpt lat="44.04751" lon="7.20192">
        <ele>1857</ele>
        <time>2014-08-30T08:43:28Z</time>
      </trkpt>
      <trkpt lat="44.0475" lon="7.2019">
        <ele>1859</ele>
        <time>2014-08-30T08:43:31Z</time>
      </trkpt>
      <trkpt lat="44.04751" lon="7.20188">
        <ele>1859</ele>
        <time>2014-08-30T08:43:34Z</time>
      </trkpt>
      <trkpt lat="44.04757" lon="7.20184">
        <ele>1859</ele>
        <time>2014-08-30T08:43:37Z</time>
      </trkpt>
      <trkpt lat="44.04758" lon="7.20184">
        <ele>1859</ele>
        <time>2014-08-30T08:43:40Z</time>
      </trkpt>
      <trkpt lat="44.04757" lon="7.20185">
        <ele>1862</ele>
        <time>2014-08-30T08:43:46Z</time>
      </trkpt>
      <trkpt lat="44.04755" lon="7.20185">
        <ele>1863</ele>
        <time>2014-08-30T08:43:52Z</time>
      </trkpt>
      <trkpt lat="44.04752" lon="7.20187">
        <ele>1864</ele>
        <time>2014-08-30T08:43:55Z</time>
      </trkpt>
      <trkpt lat="44.0475" lon="7.20188">
        <ele>1864</ele>
        <time>2014-08-30T08:43:58Z</time>
      </trkpt>
      <trkpt lat="44.04748" lon="7.20189">
        <ele>1865</ele>
        <time>2014-08-30T08:44:01Z</time>
      </trkpt>
      <trkpt lat="44.04746" lon="7.20193">
        <ele>1866</ele>
        <time>2014-08-30T08:44:04Z</time>
      </trkpt>
      <trkpt lat="44.04745" lon="7.20196">
        <ele>1866</ele>
        <time>2014-08-30T08:44:07Z</time>
      </trkpt>
      <trkpt lat="44.04746" lon="7.20198">
        <ele>1866</ele>
        <time>2014-08-30T08:44:10Z</time>
      </trkpt>
      <trkpt lat="44.04748" lon="7.20199">
        <ele>1868</ele>
        <time>2014-08-30T08:44:13Z</time>
      </trkpt>
      <trkpt lat="44.0475" lon="7.20203">
        <ele>1868</ele>
        <time>2014-08-30T08:44:16Z</time>
      </trkpt>
      <trkpt lat="44.04751" lon="7.20204">
        <ele>1868</ele>
        <time>2014-08-30T08:44:19Z</time>
      </trkpt>
      <trkpt lat="44.04751" lon="7.20205">
        <ele>1869</ele>
        <time>2014-08-30T08:44:22Z</time>
      </trkpt>
      <trkpt lat="44.0475" lon="7.20207">
        <ele>1870</ele>
        <time>2014-08-30T08:44:25Z</time>
      </trkpt>
      <trkpt lat="44.04748" lon="7.20209">
        <ele>1870</ele>
        <time>2014-08-30T08:44:28Z</time>
      </trkpt>
      <trkpt lat="44.04747" lon="7.20211">
        <ele>1871</ele>
        <time>2014-08-30T08:44:31Z</time>
      </trkpt>
      <trkpt lat="44.04746" lon="7.20211">
        <ele>1872</ele>
        <time>2014-08-30T08:44:34Z</time>
      </trkpt>
      <trkpt lat="44.04745" lon="7.20212">
        <ele>1873</ele>
        <time>2014-08-30T08:44:37Z</time>
      </trkpt>
      <trkpt lat="44.04744" lon="7.20214">
        <ele>1874</ele>
        <time>2014-08-30T08:44:40Z</time>
      </trkpt>
      <trkpt lat="44.04743" lon="7.20217">
        <ele>1875</ele>
        <time>2014-08-30T08:44:43Z</time>
      </trkpt>
      <trkpt lat="44.04743" lon="7.20219">
        <ele>1875</ele>
        <time>2014-08-30T08:44:46Z</time>
      </trkpt>
      <trkpt lat="44.04742" lon="7.2022">
        <ele>1875</ele>
        <time>2014-08-30T08:44:49Z</time>
      </trkpt>
      <trkpt lat="44.0474" lon="7.20216">
        <ele>1876</ele>
        <time>2014-08-30T08:44:52Z</time>
      </trkpt>
      <trkpt lat="44.04737" lon="7.20213">
        <ele>1877</ele>
        <time>2014-08-30T08:44:55Z</time>
      </trkpt>
      <trkpt lat="44.04732" lon="7.20209">
        <ele>1877</ele>
        <time>2014-08-30T08:44:58Z</time>
      </trkpt>
      <trkpt lat="44.04728" lon="7.20206">
        <ele>1877</ele>
        <time>2014-08-30T08:45:01Z</time>
      </trkpt>
      <trkpt lat="44.04724" lon="7.20203">
        <ele>1879</ele>
        <time>2014-08-30T08:45:04Z</time>
      </trkpt>
      <trkpt lat="44.04722" lon="7.20198">
        <ele>1879</ele>
        <time>2014-08-30T08:45:07Z</time>
      </trkpt>
      <trkpt lat="44.0472" lon="7.20193">
        <ele>1879</ele>
        <time>2014-08-30T08:45:10Z</time>
      </trkpt>
      <trkpt lat="44.04717" lon="7.20189">
        <ele>1880</ele>
        <time>2014-08-30T08:45:13Z</time>
      </trkpt>
      <trkpt lat="44.04715" lon="7.20187">
        <ele>1881</ele>
        <time>2014-08-30T08:45:16Z</time>
      </trkpt>
      <trkpt lat="44.04714" lon="7.20185">
        <ele>1881</ele>
        <time>2014-08-30T08:45:19Z</time>
      </trkpt>
      <trkpt lat="44.04712" lon="7.20183">
        <ele>1882</ele>
        <time>2014-08-30T08:45:22Z</time>
      </trkpt>
      <trkpt lat="44.04711" lon="7.20181">
        <ele>1883</ele>
        <time>2014-08-30T08:45:25Z</time>
      </trkpt>
      <trkpt lat="44.0471" lon="7.20178">
        <ele>1884</ele>
        <time>2014-08-30T08:45:28Z</time>
      </trkpt>
      <trkpt lat="44.04708" lon="7.20174">
        <ele>1884</ele>
        <time>2014-08-30T08:45:31Z</time>
      </trkpt>
      <trkpt lat="44.04709" lon="7.20169">
        <ele>1885</ele>
        <time>2014-08-30T08:45:34Z</time>
      </trkpt>
      <trkpt lat="44.04711" lon="7.20165">
        <ele>1886</ele>
        <time>2014-08-30T08:45:37Z</time>
      </trkpt>
      <trkpt lat="44.04714" lon="7.20158">
        <ele>1886</ele>
        <time>2014-08-30T08:45:40Z</time>
      </trkpt>
      <trkpt lat="44.04716" lon="7.20151">
        <ele>1886</ele>
        <time>2014-08-30T08:45:43Z</time>
      </trkpt>
      <trkpt lat="44.04716" lon="7.20146">
        <ele>1888</ele>
        <time>2014-08-30T08:45:46Z</time>
      </trkpt>
      <trkpt lat="44.04715" lon="7.20143">
        <ele>1888</ele>
        <time>2014-08-30T08:45:49Z</time>
      </trkpt>
      <trkpt lat="44.04716" lon="7.20145">
        <ele>1889</ele>
        <time>2014-08-30T08:45:55Z</time>
      </trkpt>
      <trkpt lat="44.04716" lon="7.20148">
        <ele>1890</ele>
        <time>2014-08-30T08:45:58Z</time>
      </trkpt>
      <trkpt lat="44.04714" lon="7.20151">
        <ele>1890</ele>
        <time>2014-08-30T08:46:01Z</time>
      </trkpt>
      <trkpt lat="44.04712" lon="7.20153">
        <ele>1890</ele>
        <time>2014-08-30T08:46:04Z</time>
      </trkpt>
      <trkpt lat="44.04711" lon="7.20156">
        <ele>1891</ele>
        <time>2014-08-30T08:46:07Z</time>
      </trkpt>
      <trkpt lat="44.0471" lon="7.2016">
        <ele>1892</ele>
        <time>2014-08-30T08:46:10Z</time>
      </trkpt>
      <trkpt lat="44.04709" lon="7.20164">
        <ele>1892</ele>
        <time>2014-08-30T08:46:13Z</time>
      </trkpt>
      <trkpt lat="44.04707" lon="7.20168">
        <ele>1894</ele>
        <time>2014-08-30T08:46:16Z</time>
      </trkpt>
      <trkpt lat="44.04703" lon="7.20169">
        <ele>1894</ele>
        <time>2014-08-30T08:46:19Z</time>
      </trkpt>
      <trkpt lat="44.04699" lon="7.20168">
        <ele>1894</ele>
        <time>2014-08-30T08:46:22Z</time>
      </trkpt>
      <trkpt lat="44.04691" lon="7.20168">
        <ele>1894</ele>
        <time>2014-08-30T08:46:25Z</time>
      </trkpt>
      <trkpt lat="44.04666" lon="7.20172">
        <ele>1892</ele>
        <time>2014-08-30T08:46:28Z</time>
      </trkpt>
      <trkpt lat="44.04651" lon="7.20176">
        <ele>1890</ele>
        <time>2014-08-30T08:46:31Z</time>
      </trkpt>
      <trkpt lat="44.04633" lon="7.20179">
        <ele>1888</ele>
        <time>2014-08-30T08:46:34Z</time>
      </trkpt>
      <trkpt lat="44.04617" lon="7.20185">
        <ele>1887</ele>
        <time>2014-08-30T08:46:37Z</time>
      </trkpt>
      <trkpt lat="44.04607" lon="7.20193">
        <ele>1886</ele>
        <time>2014-08-30T08:46:40Z</time>
      </trkpt>
      <trkpt lat="44.046" lon="7.20197">
        <ele>1886</ele>
        <time>2014-08-30T08:46:43Z</time>
      </trkpt>
      <trkpt lat="44.0459" lon="7.20203">
        <ele>1886</ele>
        <time>2014-08-30T08:46:46Z</time>
      </trkpt>
      <trkpt lat="44.04582" lon="7.20211">
        <ele>1884</ele>
        <time>2014-08-30T08:46:49Z</time>
      </trkpt>
      <trkpt lat="44.04578" lon="7.20214">
        <ele>1883</ele>
        <time>2014-08-30T08:46:52Z</time>
      </trkpt>
      <trkpt lat="44.04574" lon="7.20217">
        <ele>1883</ele>
        <time>2014-08-30T08:46:55Z</time>
      </trkpt>
      <trkpt lat="44.04565" lon="7.20225">
        <ele>1883</ele>
        <time>2014-08-30T08:46:58Z</time>
      </trkpt>
      <trkpt lat="44.04556" lon="7.20231">
        <ele>1882</ele>
        <time>2014-08-30T08:47:01Z</time>
      </trkpt>
      <trkpt lat="44.04547" lon="7.20235">
        <ele>1881</ele>
        <time>2014-08-30T08:47:04Z</time>
      </trkpt>
      <trkpt lat="44.04535" lon="7.20242">
        <ele>1881</ele>
        <time>2014-08-30T08:47:07Z</time>
      </trkpt>
      <trkpt lat="44.04523" lon="7.20252">
        <ele>1881</ele>
        <time>2014-08-30T08:47:10Z</time>
      </trkpt>
      <trkpt lat="44.04512" lon="7.20264">
        <ele>1881</ele>
        <time>2014-08-30T08:47:13Z</time>
      </trkpt>
      <trkpt lat="44.04503" lon="7.20278">
        <ele>1880</ele>
        <time>2014-08-30T08:47:16Z</time>
      </trkpt>
      <trkpt lat="44.04496" lon="7.20289">
        <ele>1879</ele>
        <time>2014-08-30T08:47:19Z</time>
      </trkpt>
      <trkpt lat="44.04489" lon="7.20303">
        <ele>1879</ele>
        <time>2014-08-30T08:47:22Z</time>
      </trkpt>
      <trkpt lat="44.04487" lon="7.20316">
        <ele>1879</ele>
        <time>2014-08-30T08:47:25Z</time>
      </trkpt>
      <trkpt lat="44.04488" lon="7.20323">
        <ele>1879</ele>
        <time>2014-08-30T08:47:28Z</time>
      </trkpt>
      <trkpt lat="44.04484" lon="7.20328">
        <ele>1879</ele>
        <time>2014-08-30T08:47:31Z</time>
      </trkpt>
      <trkpt lat="44.04475" lon="7.20336">
        <ele>1879</ele>
        <time>2014-08-30T08:47:34Z</time>
      </trkpt>
      <trkpt lat="44.04468" lon="7.20347">
        <ele>1879</ele>
        <time>2014-08-30T08:47:37Z</time>
      </trkpt>
      <trkpt lat="44.04463" lon="7.20355">
        <ele>1879</ele>
        <time>2014-08-30T08:47:40Z</time>
      </trkpt>
      <trkpt lat="44.04456" lon="7.20361">
        <ele>1879</ele>
        <time>2014-08-30T08:47:43Z</time>
      </trkpt>
      <trkpt lat="44.04449" lon="7.20367">
        <ele>1880</ele>
        <time>2014-08-30T08:47:46Z</time>
      </trkpt>
      <trkpt lat="44.04442" lon="7.20373">
        <ele>1881</ele>
        <time>2014-08-30T08:47:49Z</time>
      </trkpt>
      <trkpt lat="44.04438" lon="7.20378">
        <ele>1881</ele>
        <time>2014-08-30T08:47:52Z</time>
      </trkpt>
      <trkpt lat="44.04431" lon="7.20385">
        <ele>1883</ele>
        <time>2014-08-30T08:47:55Z</time>
      </trkpt>
      <trkpt lat="44.04424" lon="7.20392">
        <ele>1883</ele>
        <time>2014-08-30T08:47:58Z</time>
      </trkpt>
      <trkpt lat="44.04417" lon="7.20398">
        <ele>1883</ele>
        <time>2014-08-30T08:48:01Z</time>
      </trkpt>
      <trkpt lat="44.04408" lon="7.20404">
        <ele>1883</ele>
        <time>2014-08-30T08:48:04Z</time>
      </trkpt>
      <trkpt lat="44.04397" lon="7.20413">
        <ele>1883</ele>
        <time>2014-08-30T08:48:07Z</time>
      </trkpt>
      <trkpt lat="44.04384" lon="7.20421">
        <ele>1883</ele>
        <time>2014-08-30T08:48:10Z</time>
      </trkpt>
      <trkpt lat="44.04371" lon="7.2043">
        <ele>1883</ele>
        <time>2014-08-30T08:48:13Z</time>
      </trkpt>
      <trkpt lat="44.04361" lon="7.20436">
        <ele>1885</ele>
        <time>2014-08-30T08:48:16Z</time>
      </trkpt>
      <trkpt lat="44.0435" lon="7.20442">
        <ele>1886</ele>
        <time>2014-08-30T08:48:19Z</time>
      </trkpt>
      <trkpt lat="44.04342" lon="7.20448">
        <ele>1886</ele>
        <time>2014-08-30T08:48:22Z</time>
      </trkpt>
      <trkpt lat="44.04334" lon="7.20451">
        <ele>1886</ele>
        <time>2014-08-30T08:48:25Z</time>
      </trkpt>
      <trkpt lat="44.04325" lon="7.20455">
        <ele>1887</ele>
        <time>2014-08-30T08:48:28Z</time>
      </trkpt>
      <trkpt lat="44.04317" lon="7.20459">
        <ele>1888</ele>
        <time>2014-08-30T08:48:31Z</time>
      </trkpt>
      <trkpt lat="44.04312" lon="7.20462">
        <ele>1890</ele>
        <time>2014-08-30T08:48:34Z</time>
      </trkpt>
      <trkpt lat="44.04303" lon="7.20467">
        <ele>1890</ele>
        <time>2014-08-30T08:48:37Z</time>
      </trkpt>
      <trkpt lat="44.04295" lon="7.20471">
        <ele>1890</ele>
        <time>2014-08-30T08:48:40Z</time>
      </trkpt>
      <trkpt lat="44.04289" lon="7.20474">
        <ele>1890</ele>
        <time>2014-08-30T08:48:43Z</time>
      </trkpt>
      <trkpt lat="44.04283" lon="7.20478">
        <ele>1891</ele>
        <time>2014-08-30T08:48:46Z</time>
      </trkpt>
      <trkpt lat="44.04279" lon="7.20482">
        <ele>1892</ele>
        <time>2014-08-30T08:48:49Z</time>
      </trkpt>
      <trkpt lat="44.04272" lon="7.20488">
        <ele>1892</ele>
        <time>2014-08-30T08:48:52Z</time>
      </trkpt>
      <trkpt lat="44.04265" lon="7.20492">
        <ele>1893</ele>
        <time>2014-08-30T08:48:55Z</time>
      </trkpt>
      <trkpt lat="44.04259" lon="7.20494">
        <ele>1894</ele>
        <time>2014-08-30T08:49:00Z</time>
      </trkpt>
      <trkpt lat="44.04253" lon="7.20496">
        <ele>1894</ele>
        <time>2014-08-30T08:49:03Z</time>
      </trkpt>
      <trkpt lat="44.04247" lon="7.20497">
        <ele>1896</ele>
        <time>2014-08-30T08:49:06Z</time>
      </trkpt>
      <trkpt lat="44.04241" lon="7.205">
        <ele>1896</ele>
        <time>2014-08-30T08:49:09Z</time>
      </trkpt>
      <trkpt lat="44.04239" lon="7.20498">
        <ele>1896</ele>
        <time>2014-08-30T08:49:12Z</time>
      </trkpt>
      <trkpt lat="44.04241" lon="7.20491">
        <ele>1898</ele>
        <time>2014-08-30T08:49:15Z</time>
      </trkpt>
      <trkpt lat="44.04239" lon="7.20487">
        <ele>1899</ele>
        <time>2014-08-30T08:49:18Z</time>
      </trkpt>
      <trkpt lat="44.04234" lon="7.20486">
        <ele>1899</ele>
        <time>2014-08-30T08:49:21Z</time>
      </trkpt>
      <trkpt lat="44.0423" lon="7.20483">
        <ele>1900</ele>
        <time>2014-08-30T08:49:24Z</time>
      </trkpt>
      <trkpt lat="44.04228" lon="7.20479">
        <ele>1901</ele>
        <time>2014-08-30T08:49:27Z</time>
      </trkpt>
      <trkpt lat="44.04221" lon="7.20478">
        <ele>1901</ele>
        <time>2014-08-30T08:49:30Z</time>
      </trkpt>
      <trkpt lat="44.04214" lon="7.20476">
        <ele>1902</ele>
        <time>2014-08-30T08:49:33Z</time>
      </trkpt>
      <trkpt lat="44.04209" lon="7.20473">
        <ele>1903</ele>
        <time>2014-08-30T08:49:36Z</time>
      </trkpt>
      <trkpt lat="44.042" lon="7.20473">
        <ele>1903</ele>
        <time>2014-08-30T08:49:39Z</time>
      </trkpt>
      <trkpt lat="44.04192" lon="7.20474">
        <ele>1903</ele>
        <time>2014-08-30T08:49:42Z</time>
      </trkpt>
      <trkpt lat="44.04184" lon="7.20477">
        <ele>1903</ele>
        <time>2014-08-30T08:49:45Z</time>
      </trkpt>
      <trkpt lat="44.04177" lon="7.20479">
        <ele>1903</ele>
        <time>2014-08-30T08:49:48Z</time>
      </trkpt>
      <trkpt lat="44.0417" lon="7.20482">
        <ele>1904</ele>
        <time>2014-08-30T08:49:51Z</time>
      </trkpt>
      <trkpt lat="44.04163" lon="7.20486">
        <ele>1905</ele>
        <time>2014-08-30T08:49:54Z</time>
      </trkpt>
      <trkpt lat="44.04155" lon="7.2049">
        <ele>1905</ele>
        <time>2014-08-30T08:49:57Z</time>
      </trkpt>
      <trkpt lat="44.0415" lon="7.20493">
        <ele>1907</ele>
        <time>2014-08-30T08:50:00Z</time>
      </trkpt>
      <trkpt lat="44.04144" lon="7.20494">
        <ele>1907</ele>
        <time>2014-08-30T08:50:03Z</time>
      </trkpt>
      <trkpt lat="44.04138" lon="7.20493">
        <ele>1908</ele>
        <time>2014-08-30T08:50:06Z</time>
      </trkpt>
      <trkpt lat="44.04134" lon="7.20488">
        <ele>1910</ele>
        <time>2014-08-30T08:50:09Z</time>
      </trkpt>
      <trkpt lat="44.04129" lon="7.20484">
        <ele>1910</ele>
        <time>2014-08-30T08:50:12Z</time>
      </trkpt>
      <trkpt lat="44.04123" lon="7.20482">
        <ele>1910</ele>
        <time>2014-08-30T08:50:15Z</time>
      </trkpt>
      <trkpt lat="44.04116" lon="7.20483">
        <ele>1911</ele>
        <time>2014-08-30T08:50:18Z</time>
      </trkpt>
      <trkpt lat="44.04109" lon="7.20486">
        <ele>1912</ele>
        <time>2014-08-30T08:50:21Z</time>
      </trkpt>
      <trkpt lat="44.04101" lon="7.20487">
        <ele>1912</ele>
        <time>2014-08-30T08:50:24Z</time>
      </trkpt>
      <trkpt lat="44.04093" lon="7.20489">
        <ele>1912</ele>
        <time>2014-08-30T08:50:27Z</time>
      </trkpt>
      <trkpt lat="44.04086" lon="7.20489">
        <ele>1912</ele>
        <time>2014-08-30T08:50:30Z</time>
      </trkpt>
      <trkpt lat="44.04081" lon="7.20482">
        <ele>1912</ele>
        <time>2014-08-30T08:50:33Z</time>
      </trkpt>
      <trkpt lat="44.04075" lon="7.20474">
        <ele>1912</ele>
        <time>2014-08-30T08:50:36Z</time>
      </trkpt>
      <trkpt lat="44.0407" lon="7.20467">
        <ele>1914</ele>
        <time>2014-08-30T08:50:39Z</time>
      </trkpt>
      <trkpt lat="44.04067" lon="7.20464">
        <ele>1914</ele>
        <time>2014-08-30T08:50:42Z</time>
      </trkpt>
      <trkpt lat="44.04065" lon="7.20464">
        <ele>1915</ele>
        <time>2014-08-30T08:50:45Z</time>
      </trkpt>
      <trkpt lat="44.04063" lon="7.20463">
        <ele>1916</ele>
        <time>2014-08-30T08:50:48Z</time>
      </trkpt>
      <trkpt lat="44.0406" lon="7.20461">
        <ele>1916</ele>
        <time>2014-08-30T08:50:51Z</time>
      </trkpt>
      <trkpt lat="44.04057" lon="7.20461">
        <ele>1916</ele>
        <time>2014-08-30T08:50:54Z</time>
      </trkpt>
      <trkpt lat="44.04054" lon="7.20461">
        <ele>1917</ele>
        <time>2014-08-30T08:50:57Z</time>
      </trkpt>
      <trkpt lat="44.04051" lon="7.20459">
        <ele>1918</ele>
        <time>2014-08-30T08:51:00Z</time>
      </trkpt>
      <trkpt lat="44.04048" lon="7.20456">
        <ele>1919</ele>
        <time>2014-08-30T08:51:03Z</time>
      </trkpt>
      <trkpt lat="44.04047" lon="7.20456">
        <ele>1920</ele>
        <time>2014-08-30T08:51:06Z</time>
      </trkpt>
      <trkpt lat="44.04044" lon="7.20457">
        <ele>1920</ele>
        <time>2014-08-30T08:51:09Z</time>
      </trkpt>
      <trkpt lat="44.04041" lon="7.20459">
        <ele>1921</ele>
        <time>2014-08-30T08:51:12Z</time>
      </trkpt>
      <trkpt lat="44.04038" lon="7.20457">
        <ele>1922</ele>
        <time>2014-08-30T08:51:15Z</time>
      </trkpt>
      <trkpt lat="44.04035" lon="7.20455">
        <ele>1922</ele>
        <time>2014-08-30T08:51:18Z</time>
      </trkpt>
      <trkpt lat="44.04033" lon="7.20453">
        <ele>1923</ele>
        <time>2014-08-30T08:51:21Z</time>
      </trkpt>
      <trkpt lat="44.04031" lon="7.20451">
        <ele>1924</ele>
        <time>2014-08-30T08:51:24Z</time>
      </trkpt>
      <trkpt lat="44.04029" lon="7.2045">
        <ele>1924</ele>
        <time>2014-08-30T08:51:27Z</time>
      </trkpt>
      <trkpt lat="44.04027" lon="7.20448">
        <ele>1925</ele>
        <time>2014-08-30T08:51:30Z</time>
      </trkpt>
      <trkpt lat="44.04025" lon="7.20446">
        <ele>1927</ele>
        <time>2014-08-30T08:51:33Z</time>
      </trkpt>
      <trkpt lat="44.04023" lon="7.20445">
        <ele>1927</ele>
        <time>2014-08-30T08:51:36Z</time>
      </trkpt>
      <trkpt lat="44.0402" lon="7.20444">
        <ele>1927</ele>
        <time>2014-08-30T08:51:39Z</time>
      </trkpt>
      <trkpt lat="44.04018" lon="7.20442">
        <ele>1927</ele>
        <time>2014-08-30T08:51:42Z</time>
      </trkpt>
      <trkpt lat="44.04015" lon="7.20441">
        <ele>1929</ele>
        <time>2014-08-30T08:51:45Z</time>
      </trkpt>
      <trkpt lat="44.04013" lon="7.2044">
        <ele>1929</ele>
        <time>2014-08-30T08:51:48Z</time>
      </trkpt>
      <trkpt lat="44.0401" lon="7.20439">
        <ele>1930</ele>
        <time>2014-08-30T08:51:51Z</time>
      </trkpt>
      <trkpt lat="44.04008" lon="7.20438">
        <ele>1931</ele>
        <time>2014-08-30T08:51:54Z</time>
      </trkpt>
      <trkpt lat="44.04005" lon="7.20436">
        <ele>1931</ele>
        <time>2014-08-30T08:51:57Z</time>
      </trkpt>
      <trkpt lat="44.04002" lon="7.20435">
        <ele>1932</ele>
        <time>2014-08-30T08:52:00Z</time>
      </trkpt>
      <trkpt lat="44.03999" lon="7.20433">
        <ele>1934</ele>
        <time>2014-08-30T08:52:03Z</time>
      </trkpt>
      <trkpt lat="44.03995" lon="7.20431">
        <ele>1934</ele>
        <time>2014-08-30T08:52:06Z</time>
      </trkpt>
      <trkpt lat="44.03992" lon="7.2043">
        <ele>1934</ele>
        <time>2014-08-30T08:52:09Z</time>
      </trkpt>
      <trkpt lat="44.03989" lon="7.20429">
        <ele>1935</ele>
        <time>2014-08-30T08:52:12Z</time>
      </trkpt>
      <trkpt lat="44.03987" lon="7.20427">
        <ele>1936</ele>
        <time>2014-08-30T08:52:15Z</time>
      </trkpt>
      <trkpt lat="44.03984" lon="7.20425">
        <ele>1936</ele>
        <time>2014-08-30T08:52:18Z</time>
      </trkpt>
      <trkpt lat="44.03981" lon="7.20424">
        <ele>1938</ele>
        <time>2014-08-30T08:52:21Z</time>
      </trkpt>
      <trkpt lat="44.03978" lon="7.20422">
        <ele>1938</ele>
        <time>2014-08-30T08:52:24Z</time>
      </trkpt>
      <trkpt lat="44.03975" lon="7.20421">
        <ele>1938</ele>
        <time>2014-08-30T08:52:27Z</time>
      </trkpt>
      <trkpt lat="44.03972" lon="7.2042">
        <ele>1940</ele>
        <time>2014-08-30T08:52:30Z</time>
      </trkpt>
      <trkpt lat="44.03969" lon="7.20418">
        <ele>1940</ele>
        <time>2014-08-30T08:52:33Z</time>
      </trkpt>
      <trkpt lat="44.03966" lon="7.20417">
        <ele>1940</ele>
        <time>2014-08-30T08:52:36Z</time>
      </trkpt>
      <trkpt lat="44.03963" lon="7.20417">
        <ele>1941</ele>
        <time>2014-08-30T08:52:39Z</time>
      </trkpt>
      <trkpt lat="44.0396" lon="7.20415">
        <ele>1942</ele>
        <time>2014-08-30T08:52:42Z</time>
      </trkpt>
      <trkpt lat="44.03957" lon="7.20412">
        <ele>1942</ele>
        <time>2014-08-30T08:52:45Z</time>
      </trkpt>
      <trkpt lat="44.03954" lon="7.20411">
        <ele>1943</ele>
        <time>2014-08-30T08:52:48Z</time>
      </trkpt>
      <trkpt lat="44.0395" lon="7.20411">
        <ele>1944</ele>
        <time>2014-08-30T08:52:51Z</time>
      </trkpt>
      <trkpt lat="44.03946" lon="7.20411">
        <ele>1944</ele>
        <time>2014-08-30T08:52:54Z</time>
      </trkpt>
      <trkpt lat="44.03943" lon="7.20411">
        <ele>1944</ele>
        <time>2014-08-30T08:52:57Z</time>
      </trkpt>
      <trkpt lat="44.03941" lon="7.20411">
        <ele>1946</ele>
        <time>2014-08-30T08:53:00Z</time>
      </trkpt>
      <trkpt lat="44.03939" lon="7.20414">
        <ele>1946</ele>
        <time>2014-08-30T08:53:03Z</time>
      </trkpt>
      <trkpt lat="44.03937" lon="7.20417">
        <ele>1946</ele>
        <time>2014-08-30T08:53:06Z</time>
      </trkpt>
      <trkpt lat="44.03936" lon="7.20422">
        <ele>1946</ele>
        <time>2014-08-30T08:53:09Z</time>
      </trkpt>
      <trkpt lat="44.03934" lon="7.20427">
        <ele>1946</ele>
        <time>2014-08-30T08:53:12Z</time>
      </trkpt>
      <trkpt lat="44.03933" lon="7.20433">
        <ele>1947</ele>
        <time>2014-08-30T08:53:15Z</time>
      </trkpt>
      <trkpt lat="44.03933" lon="7.20441">
        <ele>1948</ele>
        <time>2014-08-30T08:53:18Z</time>
      </trkpt>
      <trkpt lat="44.03932" lon="7.2045">
        <ele>1949</ele>
        <time>2014-08-30T08:53:21Z</time>
      </trkpt>
      <trkpt lat="44.03931" lon="7.20458">
        <ele>1949</ele>
        <time>2014-08-30T08:53:24Z</time>
      </trkpt>
      <trkpt lat="44.0393" lon="7.20468">
        <ele>1949</ele>
        <time>2014-08-30T08:53:27Z</time>
      </trkpt>
      <trkpt lat="44.03929" lon="7.20481">
        <ele>1949</ele>
        <time>2014-08-30T08:53:30Z</time>
      </trkpt>
      <trkpt lat="44.03929" lon="7.20497">
        <ele>1949</ele>
        <time>2014-08-30T08:53:33Z</time>
      </trkpt>
      <trkpt lat="44.03924" lon="7.20515">
        <ele>1949</ele>
        <time>2014-08-30T08:53:36Z</time>
      </trkpt>
      <trkpt lat="44.03916" lon="7.20531">
        <ele>1948</ele>
        <time>2014-08-30T08:53:39Z</time>
      </trkpt>
      <trkpt lat="44.03907" lon="7.20547">
        <ele>1947</ele>
        <time>2014-08-30T08:53:42Z</time>
      </trkpt>
      <trkpt lat="44.03895" lon="7.20565">
        <ele>1947</ele>
        <time>2014-08-30T08:53:45Z</time>
      </trkpt>
      <trkpt lat="44.03885" lon="7.20583">
        <ele>1947</ele>
        <time>2014-08-30T08:53:48Z</time>
      </trkpt>
      <trkpt lat="44.03882" lon="7.20588">
        <ele>1947</ele>
        <time>2014-08-30T08:53:51Z</time>
      </trkpt>
      <trkpt lat="44.0388" lon="7.20595">
        <ele>1947</ele>
        <time>2014-08-30T08:53:54Z</time>
      </trkpt>
      <trkpt lat="44.03878" lon="7.20604">
        <ele>1947</ele>
        <time>2014-08-30T08:53:57Z</time>
      </trkpt>
      <trkpt lat="44.03875" lon="7.20613">
        <ele>1947</ele>
        <time>2014-08-30T08:54:00Z</time>
      </trkpt>
      <trkpt lat="44.03871" lon="7.20621">
        <ele>1947</ele>
        <time>2014-08-30T08:54:03Z</time>
      </trkpt>
      <trkpt lat="44.0387" lon="7.20628">
        <ele>1947</ele>
        <time>2014-08-30T08:54:06Z</time>
      </trkpt>
      <trkpt lat="44.03868" lon="7.20632">
        <ele>1947</ele>
        <time>2014-08-30T08:54:09Z</time>
      </trkpt>
      <trkpt lat="44.03867" lon="7.20639">
        <ele>1949</ele>
        <time>2014-08-30T08:54:12Z</time>
      </trkpt>
      <trkpt lat="44.03866" lon="7.20646">
        <ele>1949</ele>
        <time>2014-08-30T08:54:15Z</time>
      </trkpt>
      <trkpt lat="44.03862" lon="7.20651">
        <ele>1951</ele>
        <time>2014-08-30T08:54:18Z</time>
      </trkpt>
      <trkpt lat="44.0386" lon="7.20655">
        <ele>1951</ele>
        <time>2014-08-30T08:54:21Z</time>
      </trkpt>
      <trkpt lat="44.03859" lon="7.2066">
        <ele>1951</ele>
        <time>2014-08-30T08:54:24Z</time>
      </trkpt>
      <trkpt lat="44.03858" lon="7.20663">
        <ele>1952</ele>
        <time>2014-08-30T08:54:27Z</time>
      </trkpt>
      <trkpt lat="44.03855" lon="7.20666">
        <ele>1953</ele>
        <time>2014-08-30T08:54:30Z</time>
      </trkpt>
      <trkpt lat="44.03855" lon="7.2067">
        <ele>1953</ele>
        <time>2014-08-30T08:54:33Z</time>
      </trkpt>
      <trkpt lat="44.03855" lon="7.20675">
        <ele>1954</ele>
        <time>2014-08-30T08:54:36Z</time>
      </trkpt>
      <trkpt lat="44.03852" lon="7.20679">
        <ele>1955</ele>
        <time>2014-08-30T08:54:39Z</time>
      </trkpt>
      <trkpt lat="44.0385" lon="7.20683">
        <ele>1955</ele>
        <time>2014-08-30T08:54:42Z</time>
      </trkpt>
      <trkpt lat="44.03851" lon="7.20682">
        <ele>1955</ele>
        <time>2014-08-30T08:54:45Z</time>
      </trkpt>
      <trkpt lat="44.03849" lon="7.20685">
        <ele>1955</ele>
        <time>2014-08-30T08:54:48Z</time>
      </trkpt>
      <trkpt lat="44.03846" lon="7.20693">
        <ele>1955</ele>
        <time>2014-08-30T08:54:51Z</time>
      </trkpt>
      <trkpt lat="44.03842" lon="7.20702">
        <ele>1955</ele>
        <time>2014-08-30T08:54:54Z</time>
      </trkpt>
      <trkpt lat="44.03839" lon="7.20709">
        <ele>1957</ele>
        <time>2014-08-30T08:54:57Z</time>
      </trkpt>
      <trkpt lat="44.03838" lon="7.20715">
        <ele>1958</ele>
        <time>2014-08-30T08:55:00Z</time>
      </trkpt>
      <trkpt lat="44.03836" lon="7.20723">
        <ele>1959</ele>
        <time>2014-08-30T08:55:03Z</time>
      </trkpt>
      <trkpt lat="44.03834" lon="7.20729">
        <ele>1960</ele>
        <time>2014-08-30T08:55:06Z</time>
      </trkpt>
      <trkpt lat="44.03833" lon="7.20738">
        <ele>1960</ele>
        <time>2014-08-30T08:55:09Z</time>
      </trkpt>
      <trkpt lat="44.03831" lon="7.20749">
        <ele>1960</ele>
        <time>2014-08-30T08:55:12Z</time>
      </trkpt>
      <trkpt lat="44.03827" lon="7.20758">
        <ele>1960</ele>
        <time>2014-08-30T08:55:15Z</time>
      </trkpt>
      <trkpt lat="44.03824" lon="7.20765">
        <ele>1962</ele>
        <time>2014-08-30T08:55:18Z</time>
      </trkpt>
      <trkpt lat="44.03821" lon="7.20772">
        <ele>1962</ele>
        <time>2014-08-30T08:55:21Z</time>
      </trkpt>
      <trkpt lat="44.03818" lon="7.2078">
        <ele>1962</ele>
        <time>2014-08-30T08:55:24Z</time>
      </trkpt>
      <trkpt lat="44.03813" lon="7.2079">
        <ele>1963</ele>
        <time>2014-08-30T08:55:27Z</time>
      </trkpt>
      <trkpt lat="44.03808" lon="7.20799">
        <ele>1964</ele>
        <time>2014-08-30T08:55:30Z</time>
      </trkpt>
      <trkpt lat="44.03802" lon="7.2081">
        <ele>1964</ele>
        <time>2014-08-30T08:55:33Z</time>
      </trkpt>
      <trkpt lat="44.03796" lon="7.20821">
        <ele>1964</ele>
        <time>2014-08-30T08:55:36Z</time>
      </trkpt>
      <trkpt lat="44.0379" lon="7.2083">
        <ele>1964</ele>
        <time>2014-08-30T08:55:39Z</time>
      </trkpt>
      <trkpt lat="44.03785" lon="7.20839">
        <ele>1964</ele>
        <time>2014-08-30T08:55:42Z</time>
      </trkpt>
      <trkpt lat="44.0378" lon="7.20849">
        <ele>1964</ele>
        <time>2014-08-30T08:55:45Z</time>
      </trkpt>
      <trkpt lat="44.03776" lon="7.2086">
        <ele>1964</ele>
        <time>2014-08-30T08:55:48Z</time>
      </trkpt>
      <trkpt lat="44.03773" lon="7.20868">
        <ele>1964</ele>
        <time>2014-08-30T08:55:51Z</time>
      </trkpt>
      <trkpt lat="44.03769" lon="7.20873">
        <ele>1965</ele>
        <time>2014-08-30T08:55:54Z</time>
      </trkpt>
      <trkpt lat="44.03761" lon="7.20879">
        <ele>1966</ele>
        <time>2014-08-30T08:55:57Z</time>
      </trkpt>
      <trkpt lat="44.03753" lon="7.20885">
        <ele>1966</ele>
        <time>2014-08-30T08:56:00Z</time>
      </trkpt>
      <trkpt lat="44.03745" lon="7.20891">
        <ele>1967</ele>
        <time>2014-08-30T08:56:03Z</time>
      </trkpt>
      <trkpt lat="44.03735" lon="7.20895">
        <ele>1968</ele>
        <time>2014-08-30T08:56:06Z</time>
      </trkpt>
      <trkpt lat="44.03724" lon="7.20896">
        <ele>1969</ele>
        <time>2014-08-30T08:56:09Z</time>
      </trkpt>
      <trkpt lat="44.03715" lon="7.20895">
        <ele>1970</ele>
        <time>2014-08-30T08:56:12Z</time>
      </trkpt>
      <trkpt lat="44.03706" lon="7.20894">
        <ele>1970</ele>
        <time>2014-08-30T08:56:15Z</time>
      </trkpt>
      <trkpt lat="44.03698" lon="7.20895">
        <ele>1970</ele>
        <time>2014-08-30T08:56:18Z</time>
      </trkpt>
      <trkpt lat="44.03689" lon="7.20901">
        <ele>1970</ele>
        <time>2014-08-30T08:56:21Z</time>
      </trkpt>
      <trkpt lat="44.03679" lon="7.20909">
        <ele>1970</ele>
        <time>2014-08-30T08:56:24Z</time>
      </trkpt>
      <trkpt lat="44.03663" lon="7.20914">
        <ele>1969</ele>
        <time>2014-08-30T08:56:27Z</time>
      </trkpt>
      <trkpt lat="44.03652" lon="7.20915">
        <ele>1968</ele>
        <time>2014-08-30T08:56:30Z</time>
      </trkpt>
      <trkpt lat="44.03644" lon="7.20912">
        <ele>1968</ele>
        <time>2014-08-30T08:56:33Z</time>
      </trkpt>
      <trkpt lat="44.03635" lon="7.20918">
        <ele>1968</ele>
        <time>2014-08-30T08:56:36Z</time>
      </trkpt>
      <trkpt lat="44.03626" lon="7.20923">
        <ele>1968</ele>
        <time>2014-08-30T08:56:39Z</time>
      </trkpt>
      <trkpt lat="44.0362" lon="7.20932">
        <ele>1967</ele>
        <time>2014-08-30T08:56:42Z</time>
      </trkpt>
      <trkpt lat="44.03618" lon="7.20942">
        <ele>1966</ele>
        <time>2014-08-30T08:56:45Z</time>
      </trkpt>
      <trkpt lat="44.03616" lon="7.2095">
        <ele>1966</ele>
        <time>2014-08-30T08:56:48Z</time>
      </trkpt>
      <trkpt lat="44.03613" lon="7.20958">
        <ele>1966</ele>
        <time>2014-08-30T08:56:51Z</time>
      </trkpt>
      <trkpt lat="44.03613" lon="7.20968">
        <ele>1966</ele>
        <time>2014-08-30T08:56:54Z</time>
      </trkpt>
      <trkpt lat="44.03609" lon="7.20976">
        <ele>1967</ele>
        <time>2014-08-30T08:56:57Z</time>
      </trkpt>
      <trkpt lat="44.03602" lon="7.2098">
        <ele>1968</ele>
        <time>2014-08-30T08:57:00Z</time>
      </trkpt>
      <trkpt lat="44.03595" lon="7.20986">
        <ele>1968</ele>
        <time>2014-08-30T08:57:03Z</time>
      </trkpt>
      <trkpt lat="44.03587" lon="7.20994">
        <ele>1969</ele>
        <time>2014-08-30T08:57:06Z</time>
      </trkpt>
      <trkpt lat="44.03582" lon="7.20998">
        <ele>1970</ele>
        <time>2014-08-30T08:57:09Z</time>
      </trkpt>
      <trkpt lat="44.03576" lon="7.21">
        <ele>1970</ele>
        <time>2014-08-30T08:57:12Z</time>
      </trkpt>
      <trkpt lat="44.03574" lon="7.21001">
        <ele>1972</ele>
        <time>2014-08-30T08:57:15Z</time>
      </trkpt>
      <trkpt lat="44.03572" lon="7.21003">
        <ele>1972</ele>
        <time>2014-08-30T08:57:18Z</time>
      </trkpt>
      <trkpt lat="44.0357" lon="7.21002">
        <ele>1972</ele>
        <time>2014-08-30T08:57:21Z</time>
      </trkpt>
      <trkpt lat="44.03567" lon="7.21001">
        <ele>1972</ele>
        <time>2014-08-30T08:57:24Z</time>
      </trkpt>
      <trkpt lat="44.03563" lon="7.21007">
        <ele>1973</ele>
        <time>2014-08-30T08:57:27Z</time>
      </trkpt>
      <trkpt lat="44.0356" lon="7.21008">
        <ele>1974</ele>
        <time>2014-08-30T08:57:30Z</time>
      </trkpt>
      <trkpt lat="44.03555" lon="7.21011">
        <ele>1974</ele>
        <time>2014-08-30T08:57:33Z</time>
      </trkpt>
      <trkpt lat="44.0355" lon="7.21018">
        <ele>1974</ele>
        <time>2014-08-30T08:57:36Z</time>
      </trkpt>
      <trkpt lat="44.03544" lon="7.21023">
        <ele>1974</ele>
        <time>2014-08-30T08:57:39Z</time>
      </trkpt>
      <trkpt lat="44.03538" lon="7.21023">
        <ele>1974</ele>
        <time>2014-08-30T08:57:42Z</time>
      </trkpt>
      <trkpt lat="44.03535" lon="7.21021">
        <ele>1974</ele>
        <time>2014-08-30T08:57:45Z</time>
      </trkpt>
      <trkpt lat="44.03528" lon="7.21024">
        <ele>1975</ele>
        <time>2014-08-30T08:57:48Z</time>
      </trkpt>
      <trkpt lat="44.0352" lon="7.21029">
        <ele>1976</ele>
        <time>2014-08-30T08:57:51Z</time>
      </trkpt>
      <trkpt lat="44.03511" lon="7.21036">
        <ele>1977</ele>
        <time>2014-08-30T08:57:54Z</time>
      </trkpt>
      <trkpt lat="44.03502" lon="7.21039">
        <ele>1977</ele>
        <time>2014-08-30T08:57:57Z</time>
      </trkpt>
      <trkpt lat="44.03493" lon="7.21045">
        <ele>1977</ele>
        <time>2014-08-30T08:58:00Z</time>
      </trkpt>
      <trkpt lat="44.03487" lon="7.21051">
        <ele>1977</ele>
        <time>2014-08-30T08:58:03Z</time>
      </trkpt>
      <trkpt lat="44.0348" lon="7.21053">
        <ele>1978</ele>
        <time>2014-08-30T08:58:06Z</time>
      </trkpt>
      <trkpt lat="44.03474" lon="7.21055">
        <ele>1979</ele>
        <time>2014-08-30T08:58:09Z</time>
      </trkpt>
      <trkpt lat="44.0347" lon="7.21057">
        <ele>1979</ele>
        <time>2014-08-30T08:58:12Z</time>
      </trkpt>
      <trkpt lat="44.03467" lon="7.21059">
        <ele>1980</ele>
        <time>2014-08-30T08:58:15Z</time>
      </trkpt>
      <trkpt lat="44.03462" lon="7.2106">
        <ele>1981</ele>
        <time>2014-08-30T08:58:18Z</time>
      </trkpt>
      <trkpt lat="44.03461" lon="7.21061">
        <ele>1981</ele>
        <time>2014-08-30T08:58:21Z</time>
      </trkpt>
      <trkpt lat="44.0346" lon="7.21061">
        <ele>1982</ele>
        <time>2014-08-30T08:58:24Z</time>
      </trkpt>
      <trkpt lat="44.03458" lon="7.21061">
        <ele>1983</ele>
        <time>2014-08-30T08:58:27Z</time>
      </trkpt>
      <trkpt lat="44.03455" lon="7.21062">
        <ele>1983</ele>
        <time>2014-08-30T08:58:30Z</time>
      </trkpt>
      <trkpt lat="44.03452" lon="7.21063">
        <ele>1984</ele>
        <time>2014-08-30T08:58:33Z</time>
      </trkpt>
      <trkpt lat="44.03452" lon="7.21064">
        <ele>1985</ele>
        <time>2014-08-30T08:58:39Z</time>
      </trkpt>
      <trkpt lat="44.0345" lon="7.21066">
        <ele>1985</ele>
        <time>2014-08-30T08:58:42Z</time>
      </trkpt>
      <trkpt lat="44.03447" lon="7.21069">
        <ele>1985</ele>
        <time>2014-08-30T08:58:45Z</time>
      </trkpt>
      <trkpt lat="44.03444" lon="7.2107">
        <ele>1985</ele>
        <time>2014-08-30T08:58:48Z</time>
      </trkpt>
      <trkpt lat="44.03442" lon="7.21071">
        <ele>1985</ele>
        <time>2014-08-30T08:58:51Z</time>
      </trkpt>
      <trkpt lat="44.03439" lon="7.21073">
        <ele>1985</ele>
        <time>2014-08-30T08:58:54Z</time>
      </trkpt>
      <trkpt lat="44.03437" lon="7.21075">
        <ele>1985</ele>
        <time>2014-08-30T08:58:57Z</time>
      </trkpt>
      <trkpt lat="44.03433" lon="7.21081">
        <ele>1986</ele>
        <time>2014-08-30T08:59:00Z</time>
      </trkpt>
      <trkpt lat="44.03429" lon="7.21082">
        <ele>1987</ele>
        <time>2014-08-30T08:59:03Z</time>
      </trkpt>
      <trkpt lat="44.03424" lon="7.21084">
        <ele>1987</ele>
        <time>2014-08-30T08:59:06Z</time>
      </trkpt>
      <trkpt lat="44.03418" lon="7.21089">
        <ele>1988</ele>
        <time>2014-08-30T08:59:09Z</time>
      </trkpt>
      <trkpt lat="44.03414" lon="7.2109">
        <ele>1989</ele>
        <time>2014-08-30T08:59:12Z</time>
      </trkpt>
      <trkpt lat="44.03407" lon="7.21092">
        <ele>1989</ele>
        <time>2014-08-30T08:59:15Z</time>
      </trkpt>
      <trkpt lat="44.03402" lon="7.21094">
        <ele>1989</ele>
        <time>2014-08-30T08:59:18Z</time>
      </trkpt>
      <trkpt lat="44.03401" lon="7.21095">
        <ele>1989</ele>
        <time>2014-08-30T08:59:21Z</time>
      </trkpt>
      <trkpt lat="44.03399" lon="7.21097">
        <ele>1989</ele>
        <time>2014-08-30T08:59:24Z</time>
      </trkpt>
      <trkpt lat="44.03396" lon="7.21102">
        <ele>1990</ele>
        <time>2014-08-30T08:59:27Z</time>
      </trkpt>
      <trkpt lat="44.03395" lon="7.21104">
        <ele>1991</ele>
        <time>2014-08-30T08:59:30Z</time>
      </trkpt>
      <trkpt lat="44.03394" lon="7.21105">
        <ele>1991</ele>
        <time>2014-08-30T08:59:33Z</time>
      </trkpt>
      <trkpt lat="44.0339" lon="7.21107">
        <ele>1991</ele>
        <time>2014-08-30T08:59:36Z</time>
      </trkpt>
      <trkpt lat="44.03385" lon="7.21112">
        <ele>1993</ele>
        <time>2014-08-30T08:59:39Z</time>
      </trkpt>
      <trkpt lat="44.03384" lon="7.21114">
        <ele>1993</ele>
        <time>2014-08-30T08:59:42Z</time>
      </trkpt>
      <trkpt lat="44.03379" lon="7.21118">
        <ele>1993</ele>
        <time>2014-08-30T08:59:45Z</time>
      </trkpt>
      <trkpt lat="44.03375" lon="7.21121">
        <ele>1993</ele>
        <time>2014-08-30T08:59:48Z</time>
      </trkpt>
      <trkpt lat="44.0337" lon="7.21124">
        <ele>1993</ele>
        <time>2014-08-30T08:59:51Z</time>
      </trkpt>
      <trkpt lat="44.03364" lon="7.21126">
        <ele>1993</ele>
        <time>2014-08-30T08:59:54Z</time>
      </trkpt>
      <trkpt lat="44.03358" lon="7.21127">
        <ele>1995</ele>
        <time>2014-08-30T08:59:57Z</time>
      </trkpt>
      <trkpt lat="44.0335" lon="7.21128">
        <ele>1995</ele>
        <time>2014-08-30T09:00:00Z</time>
      </trkpt>
      <trkpt lat="44.03344" lon="7.21127">
        <ele>1995</ele>
        <time>2014-08-30T09:00:03Z</time>
      </trkpt>
      <trkpt lat="44.03336" lon="7.21126">
        <ele>1995</ele>
        <time>2014-08-30T09:00:06Z</time>
      </trkpt>
      <trkpt lat="44.0333" lon="7.21123">
        <ele>1997</ele>
        <time>2014-08-30T09:00:09Z</time>
      </trkpt>
      <trkpt lat="44.03326" lon="7.21117">
        <ele>1998</ele>
        <time>2014-08-30T09:00:12Z</time>
      </trkpt>
      <trkpt lat="44.0332" lon="7.21113">
        <ele>1998</ele>
        <time>2014-08-30T09:00:15Z</time>
      </trkpt>
      <trkpt lat="44.03305" lon="7.21114">
        <ele>1998</ele>
        <time>2014-08-30T09:00:18Z</time>
      </trkpt>
      <trkpt lat="44.03292" lon="7.21115">
        <ele>1998</ele>
        <time>2014-08-30T09:00:21Z</time>
      </trkpt>
      <trkpt lat="44.03282" lon="7.21118">
        <ele>1998</ele>
        <time>2014-08-30T09:00:24Z</time>
      </trkpt>
      <trkpt lat="44.03269" lon="7.21122">
        <ele>1998</ele>
        <time>2014-08-30T09:00:27Z</time>
      </trkpt>
      <trkpt lat="44.03263" lon="7.21125">
        <ele>1998</ele>
        <time>2014-08-30T09:00:30Z</time>
      </trkpt>
      <trkpt lat="44.03258" lon="7.21127">
        <ele>1998</ele>
        <time>2014-08-30T09:00:33Z</time>
      </trkpt>
      <trkpt lat="44.03253" lon="7.21133">
        <ele>1998</ele>
        <time>2014-08-30T09:00:36Z</time>
      </trkpt>
      <trkpt lat="44.03249" lon="7.21142">
        <ele>1998</ele>
        <time>2014-08-30T09:00:39Z</time>
      </trkpt>
      <trkpt lat="44.03241" lon="7.21155">
        <ele>1998</ele>
        <time>2014-08-30T09:00:42Z</time>
      </trkpt>
      <trkpt lat="44.03227" lon="7.21173">
        <ele>1997</ele>
        <time>2014-08-30T09:00:45Z</time>
      </trkpt>
      <trkpt lat="44.03216" lon="7.21194">
        <ele>1995</ele>
        <time>2014-08-30T09:00:48Z</time>
      </trkpt>
      <trkpt lat="44.03208" lon="7.21212">
        <ele>1992</ele>
        <time>2014-08-30T09:00:51Z</time>
      </trkpt>
      <trkpt lat="44.03206" lon="7.21233">
        <ele>1990</ele>
        <time>2014-08-30T09:00:54Z</time>
      </trkpt>
      <trkpt lat="44.03207" lon="7.21256">
        <ele>1987</ele>
        <time>2014-08-30T09:00:57Z</time>
      </trkpt>
      <trkpt lat="44.03209" lon="7.21274">
        <ele>1985</ele>
        <time>2014-08-30T09:01:00Z</time>
      </trkpt>
      <trkpt lat="44.0321" lon="7.21292">
        <ele>1983</ele>
        <time>2014-08-30T09:01:03Z</time>
      </trkpt>
      <trkpt lat="44.0321" lon="7.2131">
        <ele>1980</ele>
        <time>2014-08-30T09:01:06Z</time>
      </trkpt>
      <trkpt lat="44.03212" lon="7.21334">
        <ele>1978</ele>
        <time>2014-08-30T09:01:09Z</time>
      </trkpt>
      <trkpt lat="44.03213" lon="7.2136">
        <ele>1974</ele>
        <time>2014-08-30T09:01:12Z</time>
      </trkpt>
      <trkpt lat="44.03212" lon="7.21378">
        <ele>1971</ele>
        <time>2014-08-30T09:01:15Z</time>
      </trkpt>
      <trkpt lat="44.03211" lon="7.21394">
        <ele>1968</ele>
        <time>2014-08-30T09:01:18Z</time>
      </trkpt>
      <trkpt lat="44.03209" lon="7.21417">
        <ele>1966</ele>
        <time>2014-08-30T09:01:21Z</time>
      </trkpt>
      <trkpt lat="44.03207" lon="7.21441">
        <ele>1964</ele>
        <time>2014-08-30T09:01:24Z</time>
      </trkpt>
      <trkpt lat="44.03208" lon="7.21462">
        <ele>1962</ele>
        <time>2014-08-30T09:01:27Z</time>
      </trkpt>
      <trkpt lat="44.03212" lon="7.21481">
        <ele>1960</ele>
        <time>2014-08-30T09:01:30Z</time>
      </trkpt>
      <trkpt lat="44.03206" lon="7.21499">
        <ele>1958</ele>
        <time>2014-08-30T09:01:33Z</time>
      </trkpt>
      <trkpt lat="44.03192" lon="7.21514">
        <ele>1956</ele>
        <time>2014-08-30T09:01:36Z</time>
      </trkpt>
      <trkpt lat="44.03184" lon="7.21528">
        <ele>1953</ele>
        <time>2014-08-30T09:01:39Z</time>
      </trkpt>
      <trkpt lat="44.03181" lon="7.21541">
        <ele>1951</ele>
        <time>2014-08-30T09:01:42Z</time>
      </trkpt>
      <trkpt lat="44.03174" lon="7.2155">
        <ele>1951</ele>
        <time>2014-08-30T09:01:45Z</time>
      </trkpt>
      <trkpt lat="44.03164" lon="7.21561">
        <ele>1951</ele>
        <time>2014-08-30T09:01:48Z</time>
      </trkpt>
      <trkpt lat="44.03157" lon="7.21572">
        <ele>1951</ele>
        <time>2014-08-30T09:01:51Z</time>
      </trkpt>
      <trkpt lat="44.03152" lon="7.21575">
        <ele>1951</ele>
        <time>2014-08-30T09:01:54Z</time>
      </trkpt>
      <trkpt lat="44.03142" lon="7.21581">
        <ele>1951</ele>
        <time>2014-08-30T09:01:57Z</time>
      </trkpt>
      <trkpt lat="44.03132" lon="7.21591">
        <ele>1950</ele>
        <time>2014-08-30T09:02:00Z</time>
      </trkpt>
      <trkpt lat="44.03119" lon="7.21603">
        <ele>1948</ele>
        <time>2014-08-30T09:02:03Z</time>
      </trkpt>
      <trkpt lat="44.03112" lon="7.21612">
        <ele>1946</ele>
        <time>2014-08-30T09:02:06Z</time>
      </trkpt>
      <trkpt lat="44.03109" lon="7.21618">
        <ele>1945</ele>
        <time>2014-08-30T09:02:09Z</time>
      </trkpt>
      <trkpt lat="44.03101" lon="7.21629">
        <ele>1944</ele>
        <time>2014-08-30T09:02:12Z</time>
      </trkpt>
      <trkpt lat="44.03088" lon="7.21639">
        <ele>1942</ele>
        <time>2014-08-30T09:02:15Z</time>
      </trkpt>
      <trkpt lat="44.03073" lon="7.21644">
        <ele>1940</ele>
        <time>2014-08-30T09:02:18Z</time>
      </trkpt>
      <trkpt lat="44.03059" lon="7.21645">
        <ele>1937</ele>
        <time>2014-08-30T09:02:21Z</time>
      </trkpt>
      <trkpt lat="44.03045" lon="7.21649">
        <ele>1934</ele>
        <time>2014-08-30T09:02:24Z</time>
      </trkpt>
      <trkpt lat="44.03034" lon="7.21661">
        <ele>1932</ele>
        <time>2014-08-30T09:02:27Z</time>
      </trkpt>
      <trkpt lat="44.0303" lon="7.21679">
        <ele>1932</ele>
        <time>2014-08-30T09:02:30Z</time>
      </trkpt>
      <trkpt lat="44.03025" lon="7.21695">
        <ele>1931</ele>
        <time>2014-08-30T09:02:33Z</time>
      </trkpt>
      <trkpt lat="44.0302" lon="7.21702">
        <ele>1930</ele>
        <time>2014-08-30T09:02:36Z</time>
      </trkpt>
      <trkpt lat="44.03016" lon="7.21704">
        <ele>1930</ele>
        <time>2014-08-30T09:02:39Z</time>
      </trkpt>
      <trkpt lat="44.03013" lon="7.21706">
        <ele>1930</ele>
        <time>2014-08-30T09:02:42Z</time>
      </trkpt>
      <trkpt lat="44.03009" lon="7.2171">
        <ele>1930</ele>
        <time>2014-08-30T09:02:45Z</time>
      </trkpt>
      <trkpt lat="44.03004" lon="7.21715">
        <ele>1930</ele>
        <time>2014-08-30T09:02:48Z</time>
      </trkpt>
      <trkpt lat="44.03002" lon="7.21719">
        <ele>1930</ele>
        <time>2014-08-30T09:02:51Z</time>
      </trkpt>
      <trkpt lat="44.02999" lon="7.21721">
        <ele>1930</ele>
        <time>2014-08-30T09:02:54Z</time>
      </trkpt>
      <trkpt lat="44.02996" lon="7.21721">
        <ele>1931</ele>
        <time>2014-08-30T09:02:57Z</time>
      </trkpt>
      <trkpt lat="44.02992" lon="7.21717">
        <ele>1932</ele>
        <time>2014-08-30T09:03:00Z</time>
      </trkpt>
      <trkpt lat="44.02988" lon="7.21715">
        <ele>1932</ele>
        <time>2014-08-30T09:03:03Z</time>
      </trkpt>
      <trkpt lat="44.02986" lon="7.21716">
        <ele>1933</ele>
        <time>2014-08-30T09:03:06Z</time>
      </trkpt>
      <trkpt lat="44.02984" lon="7.21716">
        <ele>1934</ele>
        <time>2014-08-30T09:03:09Z</time>
      </trkpt>
      <trkpt lat="44.02982" lon="7.21715">
        <ele>1934</ele>
        <time>2014-08-30T09:03:12Z</time>
      </trkpt>
      <trkpt lat="44.02978" lon="7.21715">
        <ele>1934</ele>
        <time>2014-08-30T09:03:15Z</time>
      </trkpt>
      <trkpt lat="44.02975" lon="7.21718">
        <ele>1934</ele>
        <time>2014-08-30T09:03:18Z</time>
      </trkpt>
      <trkpt lat="44.0297" lon="7.21723">
        <ele>1934</ele>
        <time>2014-08-30T09:03:21Z</time>
      </trkpt>
      <trkpt lat="44.02962" lon="7.21735">
        <ele>1934</ele>
        <time>2014-08-30T09:03:24Z</time>
      </trkpt>
      <trkpt lat="44.02951" lon="7.21747">
        <ele>1932</ele>
        <time>2014-08-30T09:03:27Z</time>
      </trkpt>
      <trkpt lat="44.02935" lon="7.21751">
        <ele>1931</ele>
        <time>2014-08-30T09:03:30Z</time>
      </trkpt>
      <trkpt lat="44.02919" lon="7.21752">
        <ele>1929</ele>
        <time>2014-08-30T09:03:33Z</time>
      </trkpt>
      <trkpt lat="44.02917" lon="7.21753">
        <ele>1929</ele>
        <time>2014-08-30T09:03:36Z</time>
      </trkpt>
      <trkpt lat="44.02917" lon="7.21754">
        <ele>1929</ele>
        <time>2014-08-30T09:03:39Z</time>
      </trkpt>
      <trkpt lat="44.02918" lon="7.21752">
        <ele>1929</ele>
        <time>2014-08-30T09:03:42Z</time>
      </trkpt>
      <trkpt lat="44.02915" lon="7.21752">
        <ele>1929</ele>
        <time>2014-08-30T09:03:45Z</time>
      </trkpt>
      <trkpt lat="44.02911" lon="7.2175">
        <ele>1930</ele>
        <time>2014-08-30T09:03:48Z</time>
      </trkpt>
      <trkpt lat="44.02907" lon="7.21751">
        <ele>1932</ele>
        <time>2014-08-30T09:03:51Z</time>
      </trkpt>
      <trkpt lat="44.02903" lon="7.21753">
        <ele>1932</ele>
        <time>2014-08-30T09:03:54Z</time>
      </trkpt>
      <trkpt lat="44.029" lon="7.21762">
        <ele>1932</ele>
        <time>2014-08-30T09:03:57Z</time>
      </trkpt>
      <trkpt lat="44.02896" lon="7.21774">
        <ele>1932</ele>
        <time>2014-08-30T09:04:00Z</time>
      </trkpt>
      <trkpt lat="44.02895" lon="7.21779">
        <ele>1930</ele>
        <time>2014-08-30T09:04:03Z</time>
      </trkpt>
      <trkpt lat="44.02895" lon="7.21783">
        <ele>1929</ele>
        <time>2014-08-30T09:04:06Z</time>
      </trkpt>
      <trkpt lat="44.02895" lon="7.21788">
        <ele>1929</ele>
        <time>2014-08-30T09:04:09Z</time>
      </trkpt>
      <trkpt lat="44.02894" lon="7.21796">
        <ele>1929</ele>
        <time>2014-08-30T09:04:12Z</time>
      </trkpt>
      <trkpt lat="44.02895" lon="7.21801">
        <ele>1929</ele>
        <time>2014-08-30T09:04:15Z</time>
      </trkpt>
      <trkpt lat="44.02895" lon="7.21806">
        <ele>1929</ele>
        <time>2014-08-30T09:04:18Z</time>
      </trkpt>
      <trkpt lat="44.02893" lon="7.21808">
        <ele>1929</ele>
        <time>2014-08-30T09:04:21Z</time>
      </trkpt>
      <trkpt lat="44.02893" lon="7.21807">
        <ele>1929</ele>
        <time>2014-08-30T09:04:24Z</time>
      </trkpt>
      <trkpt lat="44.02894" lon="7.21806">
        <ele>1929</ele>
        <time>2014-08-30T09:04:27Z</time>
      </trkpt>
      <trkpt lat="44.02895" lon="7.21806">
        <ele>1929</ele>
        <time>2014-08-30T09:04:36Z</time>
      </trkpt>
      <trkpt lat="44.02892" lon="7.2181">
        <ele>1929</ele>
        <time>2014-08-30T09:04:57Z</time>
      </trkpt>
      <trkpt lat="44.02885" lon="7.21823">
        <ele>1929</ele>
        <time>2014-08-30T09:05:00Z</time>
      </trkpt>
      <trkpt lat="44.02875" lon="7.21838">
        <ele>1929</ele>
        <time>2014-08-30T09:05:03Z</time>
      </trkpt>
      <trkpt lat="44.02863" lon="7.21846">
        <ele>1929</ele>
        <time>2014-08-30T09:05:06Z</time>
      </trkpt>
      <trkpt lat="44.02855" lon="7.21848">
        <ele>1927</ele>
        <time>2014-08-30T09:05:09Z</time>
      </trkpt>
      <trkpt lat="44.02847" lon="7.21853">
        <ele>1927</ele>
        <time>2014-08-30T09:05:12Z</time>
      </trkpt>
      <trkpt lat="44.02834" lon="7.21858">
        <ele>1925</ele>
        <time>2014-08-30T09:05:15Z</time>
      </trkpt>
      <trkpt lat="44.02823" lon="7.21867">
        <ele>1925</ele>
        <time>2014-08-30T09:05:18Z</time>
      </trkpt>
      <trkpt lat="44.02817" lon="7.21882">
        <ele>1925</ele>
        <time>2014-08-30T09:05:21Z</time>
      </trkpt>
      <trkpt lat="44.02812" lon="7.21899">
        <ele>1925</ele>
        <time>2014-08-30T09:05:24Z</time>
      </trkpt>
      <trkpt lat="44.02807" lon="7.21917">
        <ele>1923</ele>
        <time>2014-08-30T09:05:27Z</time>
      </trkpt>
      <trkpt lat="44.028" lon="7.21935">
        <ele>1923</ele>
        <time>2014-08-30T09:05:30Z</time>
      </trkpt>
      <trkpt lat="44.0279" lon="7.21955">
        <ele>1923</ele>
        <time>2014-08-30T09:05:33Z</time>
      </trkpt>
      <trkpt lat="44.02781" lon="7.2197">
        <ele>1922</ele>
        <time>2014-08-30T09:05:36Z</time>
      </trkpt>
      <trkpt lat="44.02768" lon="7.2199">
        <ele>1920</ele>
        <time>2014-08-30T09:05:39Z</time>
      </trkpt>
      <trkpt lat="44.02749" lon="7.2201">
        <ele>1917</ele>
        <time>2014-08-30T09:05:42Z</time>
      </trkpt>
      <trkpt lat="44.0273" lon="7.2203">
        <ele>1916</ele>
        <time>2014-08-30T09:05:45Z</time>
      </trkpt>
      <trkpt lat="44.02714" lon="7.2205">
        <ele>1916</ele>
        <time>2014-08-30T09:05:48Z</time>
      </trkpt>
      <trkpt lat="44.02699" lon="7.22073">
        <ele>1915</ele>
        <time>2014-08-30T09:05:51Z</time>
      </trkpt>
      <trkpt lat="44.02695" lon="7.22099">
        <ele>1914</ele>
        <time>2014-08-30T09:05:54Z</time>
      </trkpt>
      <trkpt lat="44.02694" lon="7.2213">
        <ele>1913</ele>
        <time>2014-08-30T09:05:57Z</time>
      </trkpt>
      <trkpt lat="44.02687" lon="7.22156">
        <ele>1911</ele>
        <time>2014-08-30T09:06:00Z</time>
      </trkpt>
      <trkpt lat="44.02683" lon="7.22181">
        <ele>1911</ele>
        <time>2014-08-30T09:06:03Z</time>
      </trkpt>
      <trkpt lat="44.02686" lon="7.22208">
        <ele>1910</ele>
        <time>2014-08-30T09:06:06Z</time>
      </trkpt>
      <trkpt lat="44.02688" lon="7.22235">
        <ele>1909</ele>
        <time>2014-08-30T09:06:09Z</time>
      </trkpt>
      <trkpt lat="44.0268" lon="7.22258">
        <ele>1908</ele>
        <time>2014-08-30T09:06:12Z</time>
      </trkpt>
      <trkpt lat="44.0267" lon="7.22276">
        <ele>1907</ele>
        <time>2014-08-30T09:06:15Z</time>
      </trkpt>
      <trkpt lat="44.02663" lon="7.22292">
        <ele>1907</ele>
        <time>2014-08-30T09:06:18Z</time>
      </trkpt>
      <trkpt lat="44.02654" lon="7.22309">
        <ele>1907</ele>
        <time>2014-08-30T09:06:21Z</time>
      </trkpt>
      <trkpt lat="44.02646" lon="7.22319">
        <ele>1907</ele>
        <time>2014-08-30T09:06:24Z</time>
      </trkpt>
      <trkpt lat="44.02639" lon="7.22324">
        <ele>1907</ele>
        <time>2014-08-30T09:06:27Z</time>
      </trkpt>
      <trkpt lat="44.02629" lon="7.2233">
        <ele>1907</ele>
        <time>2014-08-30T09:06:30Z</time>
      </trkpt>
      <trkpt lat="44.0262" lon="7.22335">
        <ele>1907</ele>
        <time>2014-08-30T09:06:33Z</time>
      </trkpt>
      <trkpt lat="44.02614" lon="7.22339">
        <ele>1909</ele>
        <time>2014-08-30T09:06:36Z</time>
      </trkpt>
      <trkpt lat="44.0261" lon="7.22341">
        <ele>1910</ele>
        <time>2014-08-30T09:06:39Z</time>
      </trkpt>
      <trkpt lat="44.02605" lon="7.22345">
        <ele>1910</ele>
        <time>2014-08-30T09:06:42Z</time>
      </trkpt>
      <trkpt lat="44.02599" lon="7.22349">
        <ele>1910</ele>
        <time>2014-08-30T09:06:45Z</time>
      </trkpt>
      <trkpt lat="44.02592" lon="7.22353">
        <ele>1911</ele>
        <time>2014-08-30T09:06:48Z</time>
      </trkpt>
      <trkpt lat="44.02588" lon="7.22358">
        <ele>1912</ele>
        <time>2014-08-30T09:06:51Z</time>
      </trkpt>
      <trkpt lat="44.02586" lon="7.22358">
        <ele>1912</ele>
        <time>2014-08-30T09:06:54Z</time>
      </trkpt>
      <trkpt lat="44.02583" lon="7.22362">
        <ele>1913</ele>
        <time>2014-08-30T09:06:57Z</time>
      </trkpt>
      <trkpt lat="44.02577" lon="7.22364">
        <ele>1914</ele>
        <time>2014-08-30T09:07:00Z</time>
      </trkpt>
      <trkpt lat="44.02571" lon="7.22364">
        <ele>1914</ele>
        <time>2014-08-30T09:07:03Z</time>
      </trkpt>
      <trkpt lat="44.02564" lon="7.22369">
        <ele>1916</ele>
        <time>2014-08-30T09:07:06Z</time>
      </trkpt>
      <trkpt lat="44.02558" lon="7.22373">
        <ele>1916</ele>
        <time>2014-08-30T09:07:09Z</time>
      </trkpt>
      <trkpt lat="44.02555" lon="7.22374">
        <ele>1916</ele>
        <time>2014-08-30T09:07:12Z</time>
      </trkpt>
      <trkpt lat="44.02551" lon="7.22378">
        <ele>1916</ele>
        <time>2014-08-30T09:07:15Z</time>
      </trkpt>
      <trkpt lat="44.02547" lon="7.22382">
        <ele>1916</ele>
        <time>2014-08-30T09:07:18Z</time>
      </trkpt>
      <trkpt lat="44.02542" lon="7.22386">
        <ele>1917</ele>
        <time>2014-08-30T09:07:21Z</time>
      </trkpt>
      <trkpt lat="44.02538" lon="7.2239">
        <ele>1918</ele>
        <time>2014-08-30T09:07:24Z</time>
      </trkpt>
      <trkpt lat="44.02533" lon="7.22391">
        <ele>1918</ele>
        <time>2014-08-30T09:07:27Z</time>
      </trkpt>
      <trkpt lat="44.02528" lon="7.22395">
        <ele>1919</ele>
        <time>2014-08-30T09:07:30Z</time>
      </trkpt>
      <trkpt lat="44.02522" lon="7.22401">
        <ele>1920</ele>
        <time>2014-08-30T09:07:33Z</time>
      </trkpt>
      <trkpt lat="44.02519" lon="7.22406">
        <ele>1920</ele>
        <time>2014-08-30T09:07:36Z</time>
      </trkpt>
      <trkpt lat="44.02516" lon="7.22407">
        <ele>1921</ele>
        <time>2014-08-30T09:07:39Z</time>
      </trkpt>
      <trkpt lat="44.0251" lon="7.22413">
        <ele>1922</ele>
        <time>2014-08-30T09:07:42Z</time>
      </trkpt>
      <trkpt lat="44.02505" lon="7.22422">
        <ele>1922</ele>
        <time>2014-08-30T09:07:45Z</time>
      </trkpt>
      <trkpt lat="44.02504" lon="7.22428">
        <ele>1923</ele>
        <time>2014-08-30T09:07:48Z</time>
      </trkpt>
      <trkpt lat="44.02502" lon="7.22435">
        <ele>1924</ele>
        <time>2014-08-30T09:07:51Z</time>
      </trkpt>
      <trkpt lat="44.02502" lon="7.22442">
        <ele>1924</ele>
        <time>2014-08-30T09:07:54Z</time>
      </trkpt>
      <trkpt lat="44.02503" lon="7.22452">
        <ele>1926</ele>
        <time>2014-08-30T09:07:57Z</time>
      </trkpt>
      <trkpt lat="44.02502" lon="7.2246">
        <ele>1926</ele>
        <time>2014-08-30T09:08:00Z</time>
      </trkpt>
      <trkpt lat="44.02503" lon="7.22471">
        <ele>1926</ele>
        <time>2014-08-30T09:08:03Z</time>
      </trkpt>
      <trkpt lat="44.02504" lon="7.22481">
        <ele>1926</ele>
        <time>2014-08-30T09:08:06Z</time>
      </trkpt>
      <trkpt lat="44.02505" lon="7.2249">
        <ele>1927</ele>
        <time>2014-08-30T09:08:09Z</time>
      </trkpt>
      <trkpt lat="44.02504" lon="7.22498">
        <ele>1929</ele>
        <time>2014-08-30T09:08:12Z</time>
      </trkpt>
      <trkpt lat="44.02505" lon="7.22506">
        <ele>1929</ele>
        <time>2014-08-30T09:08:15Z</time>
      </trkpt>
      <trkpt lat="44.02506" lon="7.22516">
        <ele>1929</ele>
        <time>2014-08-30T09:08:18Z</time>
      </trkpt>
      <trkpt lat="44.02505" lon="7.22523">
        <ele>1929</ele>
        <time>2014-08-30T09:08:21Z</time>
      </trkpt>
      <trkpt lat="44.02503" lon="7.22532">
        <ele>1930</ele>
        <time>2014-08-30T09:08:24Z</time>
      </trkpt>
      <trkpt lat="44.02501" lon="7.22542">
        <ele>1931</ele>
        <time>2014-08-30T09:08:27Z</time>
      </trkpt>
      <trkpt lat="44.02501" lon="7.22551">
        <ele>1931</ele>
        <time>2014-08-30T09:08:30Z</time>
      </trkpt>
      <trkpt lat="44.02501" lon="7.2256">
        <ele>1931</ele>
        <time>2014-08-30T09:08:33Z</time>
      </trkpt>
      <trkpt lat="44.025" lon="7.22568">
        <ele>1932</ele>
        <time>2014-08-30T09:08:36Z</time>
      </trkpt>
      <trkpt lat="44.02499" lon="7.22575">
        <ele>1933</ele>
        <time>2014-08-30T09:08:39Z</time>
      </trkpt>
      <trkpt lat="44.02496" lon="7.2258">
        <ele>1933</ele>
        <time>2014-08-30T09:08:42Z</time>
      </trkpt>
      <trkpt lat="44.02493" lon="7.22587">
        <ele>1935</ele>
        <time>2014-08-30T09:08:45Z</time>
      </trkpt>
      <trkpt lat="44.02491" lon="7.22594">
        <ele>1935</ele>
        <time>2014-08-30T09:08:48Z</time>
      </trkpt>
      <trkpt lat="44.02488" lon="7.22601">
        <ele>1936</ele>
        <time>2014-08-30T09:08:51Z</time>
      </trkpt>
      <trkpt lat="44.02486" lon="7.22609">
        <ele>1937</ele>
        <time>2014-08-30T09:08:54Z</time>
      </trkpt>
      <trkpt lat="44.02485" lon="7.22618">
        <ele>1938</ele>
        <time>2014-08-30T09:08:57Z</time>
      </trkpt>
      <trkpt lat="44.02483" lon="7.22626">
        <ele>1939</ele>
        <time>2014-08-30T09:09:00Z</time>
      </trkpt>
      <trkpt lat="44.02481" lon="7.22635">
        <ele>1939</ele>
        <time>2014-08-30T09:09:03Z</time>
      </trkpt>
      <trkpt lat="44.02479" lon="7.22644">
        <ele>1941</ele>
        <time>2014-08-30T09:09:06Z</time>
      </trkpt>
      <trkpt lat="44.02477" lon="7.22654">
        <ele>1941</ele>
        <time>2014-08-30T09:09:09Z</time>
      </trkpt>
      <trkpt lat="44.02476" lon="7.22664">
        <ele>1941</ele>
        <time>2014-08-30T09:09:12Z</time>
      </trkpt>
      <trkpt lat="44.02473" lon="7.22676">
        <ele>1941</ele>
        <time>2014-08-30T09:09:15Z</time>
      </trkpt>
      <trkpt lat="44.02471" lon="7.22686">
        <ele>1941</ele>
        <time>2014-08-30T09:09:18Z</time>
      </trkpt>
      <trkpt lat="44.02469" lon="7.22697">
        <ele>1942</ele>
        <time>2014-08-30T09:09:21Z</time>
      </trkpt>
      <trkpt lat="44.02466" lon="7.22708">
        <ele>1943</ele>
        <time>2014-08-30T09:09:24Z</time>
      </trkpt>
      <trkpt lat="44.0246" lon="7.2272">
        <ele>1944</ele>
        <time>2014-08-30T09:09:27Z</time>
      </trkpt>
      <trkpt lat="44.0245" lon="7.22738">
        <ele>1943</ele>
        <time>2014-08-30T09:09:30Z</time>
      </trkpt>
      <trkpt lat="44.0244" lon="7.22755">
        <ele>1942</ele>
        <time>2014-08-30T09:09:33Z</time>
      </trkpt>
      <trkpt lat="44.02428" lon="7.22772">
        <ele>1939</ele>
        <time>2014-08-30T09:09:36Z</time>
      </trkpt>
      <trkpt lat="44.02418" lon="7.22783">
        <ele>1939</ele>
        <time>2014-08-30T09:09:39Z</time>
      </trkpt>
      <trkpt lat="44.02411" lon="7.22791">
        <ele>1939</ele>
        <time>2014-08-30T09:09:42Z</time>
      </trkpt>
      <trkpt lat="44.02408" lon="7.22798">
        <ele>1939</ele>
        <time>2014-08-30T09:09:45Z</time>
      </trkpt>
      <trkpt lat="44.02405" lon="7.22805">
        <ele>1939</ele>
        <time>2014-08-30T09:09:48Z</time>
      </trkpt>
      <trkpt lat="44.02404" lon="7.22814">
        <ele>1939</ele>
        <time>2014-08-30T09:09:51Z</time>
      </trkpt>
      <trkpt lat="44.02403" lon="7.22825">
        <ele>1941</ele>
        <time>2014-08-30T09:09:54Z</time>
      </trkpt>
      <trkpt lat="44.02402" lon="7.22836">
        <ele>1941</ele>
        <time>2014-08-30T09:09:57Z</time>
      </trkpt>
      <trkpt lat="44.024" lon="7.22847">
        <ele>1942</ele>
        <time>2014-08-30T09:10:00Z</time>
      </trkpt>
      <trkpt lat="44.02398" lon="7.22861">
        <ele>1943</ele>
        <time>2014-08-30T09:10:03Z</time>
      </trkpt>
      <trkpt lat="44.02392" lon="7.22872">
        <ele>1943</ele>
        <time>2014-08-30T09:10:06Z</time>
      </trkpt>
      <trkpt lat="44.02387" lon="7.2288">
        <ele>1943</ele>
        <time>2014-08-30T09:10:09Z</time>
      </trkpt>
      <trkpt lat="44.02381" lon="7.2289">
        <ele>1944</ele>
        <time>2014-08-30T09:10:13Z</time>
      </trkpt>
      <trkpt lat="44.02373" lon="7.22898">
        <ele>1945</ele>
        <time>2014-08-30T09:10:16Z</time>
      </trkpt>
      <trkpt lat="44.02366" lon="7.22905">
        <ele>1945</ele>
        <time>2014-08-30T09:10:19Z</time>
      </trkpt>
      <trkpt lat="44.02361" lon="7.2291">
        <ele>1945</ele>
        <time>2014-08-30T09:10:22Z</time>
      </trkpt>
      <trkpt lat="44.02354" lon="7.22917">
        <ele>1945</ele>
        <time>2014-08-30T09:10:25Z</time>
      </trkpt>
      <trkpt lat="44.02346" lon="7.22929">
        <ele>1945</ele>
        <time>2014-08-30T09:10:28Z</time>
      </trkpt>
      <trkpt lat="44.02335" lon="7.2294">
        <ele>1945</ele>
        <time>2014-08-30T09:10:31Z</time>
      </trkpt>
      <trkpt lat="44.02321" lon="7.22948">
        <ele>1945</ele>
        <time>2014-08-30T09:10:34Z</time>
      </trkpt>
      <trkpt lat="44.02311" lon="7.22961">
        <ele>1945</ele>
        <time>2014-08-30T09:10:37Z</time>
      </trkpt>
      <trkpt lat="44.02306" lon="7.22982">
        <ele>1945</ele>
        <time>2014-08-30T09:10:40Z</time>
      </trkpt>
      <trkpt lat="44.02299" lon="7.23001">
        <ele>1945</ele>
        <time>2014-08-30T09:10:43Z</time>
      </trkpt>
      <trkpt lat="44.02291" lon="7.23018">
        <ele>1945</ele>
        <time>2014-08-30T09:10:46Z</time>
      </trkpt>
      <trkpt lat="44.02281" lon="7.23035">
        <ele>1944</ele>
        <time>2014-08-30T09:10:49Z</time>
      </trkpt>
      <trkpt lat="44.02271" lon="7.23046">
        <ele>1943</ele>
        <time>2014-08-30T09:10:52Z</time>
      </trkpt>
      <trkpt lat="44.02259" lon="7.23053">
        <ele>1943</ele>
        <time>2014-08-30T09:10:55Z</time>
      </trkpt>
      <trkpt lat="44.02249" lon="7.23058">
        <ele>1943</ele>
        <time>2014-08-30T09:10:58Z</time>
      </trkpt>
      <trkpt lat="44.02234" lon="7.23068">
        <ele>1941</ele>
        <time>2014-08-30T09:11:01Z</time>
      </trkpt>
      <trkpt lat="44.02215" lon="7.2308">
        <ele>1939</ele>
        <time>2014-08-30T09:11:04Z</time>
      </trkpt>
      <trkpt lat="44.02197" lon="7.23085">
        <ele>1937</ele>
        <time>2014-08-30T09:11:07Z</time>
      </trkpt>
      <trkpt lat="44.02186" lon="7.23088">
        <ele>1936</ele>
        <time>2014-08-30T09:11:10Z</time>
      </trkpt>
      <trkpt lat="44.02175" lon="7.23095">
        <ele>1936</ele>
        <time>2014-08-30T09:11:13Z</time>
      </trkpt>
      <trkpt lat="44.02164" lon="7.23103">
        <ele>1936</ele>
        <time>2014-08-30T09:11:16Z</time>
      </trkpt>
      <trkpt lat="44.0215" lon="7.23104">
        <ele>1936</ele>
        <time>2014-08-30T09:11:19Z</time>
      </trkpt>
      <trkpt lat="44.02134" lon="7.23103">
        <ele>1936</ele>
        <time>2014-08-30T09:11:22Z</time>
      </trkpt>
      <trkpt lat="44.02117" lon="7.23112">
        <ele>1934</ele>
        <time>2014-08-30T09:11:25Z</time>
      </trkpt>
      <trkpt lat="44.02104" lon="7.23121">
        <ele>1933</ele>
        <time>2014-08-30T09:11:28Z</time>
      </trkpt>
      <trkpt lat="44.02095" lon="7.23123">
        <ele>1931</ele>
        <time>2014-08-30T09:11:31Z</time>
      </trkpt>
      <trkpt lat="44.02087" lon="7.23126">
        <ele>1931</ele>
        <time>2014-08-30T09:11:34Z</time>
      </trkpt>
      <trkpt lat="44.02074" lon="7.23131">
        <ele>1929</ele>
        <time>2014-08-30T09:11:37Z</time>
      </trkpt>
      <trkpt lat="44.02059" lon="7.23144">
        <ele>1928</ele>
        <time>2014-08-30T09:11:40Z</time>
      </trkpt>
      <trkpt lat="44.02047" lon="7.23152">
        <ele>1927</ele>
        <time>2014-08-30T09:11:43Z</time>
      </trkpt>
      <trkpt lat="44.02042" lon="7.2316">
        <ele>1926</ele>
        <time>2014-08-30T09:11:46Z</time>
      </trkpt>
      <trkpt lat="44.02041" lon="7.23162">
        <ele>1926</ele>
        <time>2014-08-30T09:11:49Z</time>
      </trkpt>
      <trkpt lat="44.0204" lon="7.23163">
        <ele>1926</ele>
        <time>2014-08-30T09:11:52Z</time>
      </trkpt>
      <trkpt lat="44.02039" lon="7.23165">
        <ele>1926</ele>
        <time>2014-08-30T09:11:55Z</time>
      </trkpt>
      <trkpt lat="44.02038" lon="7.23168">
        <ele>1926</ele>
        <time>2014-08-30T09:11:58Z</time>
      </trkpt>
      <trkpt lat="44.02037" lon="7.23171">
        <ele>1926</ele>
        <time>2014-08-30T09:12:01Z</time>
      </trkpt>
      <trkpt lat="44.02037" lon="7.23173">
        <ele>1926</ele>
        <time>2014-08-30T09:12:04Z</time>
      </trkpt>
      <trkpt lat="44.02037" lon="7.23176">
        <ele>1928</ele>
        <time>2014-08-30T09:12:07Z</time>
      </trkpt>
      <trkpt lat="44.02037" lon="7.23178">
        <ele>1928</ele>
        <time>2014-08-30T09:12:10Z</time>
      </trkpt>
      <trkpt lat="44.02036" lon="7.23179">
        <ele>1929</ele>
        <time>2014-08-30T09:12:13Z</time>
      </trkpt>
      <trkpt lat="44.02036" lon="7.2318">
        <ele>1930</ele>
        <time>2014-08-30T09:12:16Z</time>
      </trkpt>
      <trkpt lat="44.02036" lon="7.23181">
        <ele>1930</ele>
        <time>2014-08-30T09:12:19Z</time>
      </trkpt>
      <trkpt lat="44.02035" lon="7.23182">
        <ele>1931</ele>
        <time>2014-08-30T09:12:22Z</time>
      </trkpt>
      <trkpt lat="44.02034" lon="7.23184">
        <ele>1933</ele>
        <time>2014-08-30T09:12:25Z</time>
      </trkpt>
      <trkpt lat="44.02031" lon="7.23183">
        <ele>1933</ele>
        <time>2014-08-30T09:12:28Z</time>
      </trkpt>
      <trkpt lat="44.0203" lon="7.23183">
        <ele>1933</ele>
        <time>2014-08-30T09:12:31Z</time>
      </trkpt>
      <trkpt lat="44.0203" lon="7.23184">
        <ele>1933</ele>
        <time>2014-08-30T09:12:34Z</time>
      </trkpt>
      <trkpt lat="44.0203" lon="7.23186">
        <ele>1933</ele>
        <time>2014-08-30T09:12:37Z</time>
      </trkpt>
      <trkpt lat="44.0203" lon="7.23188">
        <ele>1934</ele>
        <time>2014-08-30T09:12:40Z</time>
      </trkpt>
      <trkpt lat="44.02031" lon="7.23191">
        <ele>1935</ele>
        <time>2014-08-30T09:12:43Z</time>
      </trkpt>
      <trkpt lat="44.02029" lon="7.23194">
        <ele>1935</ele>
        <time>2014-08-30T09:12:46Z</time>
      </trkpt>
      <trkpt lat="44.02025" lon="7.23197">
        <ele>1935</ele>
        <time>2014-08-30T09:12:49Z</time>
      </trkpt>
      <trkpt lat="44.02022" lon="7.232">
        <ele>1937</ele>
        <time>2014-08-30T09:12:52Z</time>
      </trkpt>
      <trkpt lat="44.02021" lon="7.23202">
        <ele>1937</ele>
        <time>2014-08-30T09:12:55Z</time>
      </trkpt>
      <trkpt lat="44.02022" lon="7.23203">
        <ele>1937</ele>
        <time>2014-08-30T09:12:58Z</time>
      </trkpt>
      <trkpt lat="44.02021" lon="7.23204">
        <ele>1939</ele>
        <time>2014-08-30T09:13:01Z</time>
      </trkpt>
      <trkpt lat="44.02019" lon="7.23205">
        <ele>1939</ele>
        <time>2014-08-30T09:13:04Z</time>
      </trkpt>
      <trkpt lat="44.02017" lon="7.23205">
        <ele>1939</ele>
        <time>2014-08-30T09:13:07Z</time>
      </trkpt>
      <trkpt lat="44.02016" lon="7.23205">
        <ele>1940</ele>
        <time>2014-08-30T09:13:10Z</time>
      </trkpt>
      <trkpt lat="44.02012" lon="7.23204">
        <ele>1941</ele>
        <time>2014-08-30T09:13:13Z</time>
      </trkpt>
      <trkpt lat="44.02007" lon="7.23204">
        <ele>1941</ele>
        <time>2014-08-30T09:13:16Z</time>
      </trkpt>
      <trkpt lat="44.02003" lon="7.23207">
        <ele>1941</ele>
        <time>2014-08-30T09:13:19Z</time>
      </trkpt>
      <trkpt lat="44.02001" lon="7.23209">
        <ele>1942</ele>
        <time>2014-08-30T09:13:22Z</time>
      </trkpt>
      <trkpt lat="44.01999" lon="7.2321">
        <ele>1943</ele>
        <time>2014-08-30T09:13:25Z</time>
      </trkpt>
      <trkpt lat="44.01997" lon="7.23213">
        <ele>1943</ele>
        <time>2014-08-30T09:13:28Z</time>
      </trkpt>
      <trkpt lat="44.01998" lon="7.23216">
        <ele>1944</ele>
        <time>2014-08-30T09:13:31Z</time>
      </trkpt>
      <trkpt lat="44.01999" lon="7.23218">
        <ele>1945</ele>
        <time>2014-08-30T09:13:34Z</time>
      </trkpt>
      <trkpt lat="44.02001" lon="7.23221">
        <ele>1946</ele>
        <time>2014-08-30T09:13:37Z</time>
      </trkpt>
      <trkpt lat="44.02001" lon="7.23222">
        <ele>1946</ele>
        <time>2014-08-30T09:13:40Z</time>
      </trkpt>
      <trkpt lat="44.01999" lon="7.23222">
        <ele>1947</ele>
        <time>2014-08-30T09:13:46Z</time>
      </trkpt>
      <trkpt lat="44.02" lon="7.23222">
        <ele>1948</ele>
        <time>2014-08-30T09:13:49Z</time>
      </trkpt>
      <trkpt lat="44.01999" lon="7.23221">
        <ele>1948</ele>
        <time>2014-08-30T09:13:52Z</time>
      </trkpt>
      <trkpt lat="44.01998" lon="7.23221">
        <ele>1949</ele>
        <time>2014-08-30T09:13:55Z</time>
      </trkpt>
      <trkpt lat="44.01997" lon="7.23219">
        <ele>1950</ele>
        <time>2014-08-30T09:13:58Z</time>
      </trkpt>
      <trkpt lat="44.01993" lon="7.2322">
        <ele>1950</ele>
        <time>2014-08-30T09:14:01Z</time>
      </trkpt>
      <trkpt lat="44.0199" lon="7.2322">
        <ele>1950</ele>
        <time>2014-08-30T09:14:04Z</time>
      </trkpt>
      <trkpt lat="44.01986" lon="7.2322">
        <ele>1951</ele>
        <time>2014-08-30T09:14:07Z</time>
      </trkpt>
      <trkpt lat="44.01985" lon="7.23222">
        <ele>1952</ele>
        <time>2014-08-30T09:14:10Z</time>
      </trkpt>
      <trkpt lat="44.01984" lon="7.23223">
        <ele>1952</ele>
        <time>2014-08-30T09:14:13Z</time>
      </trkpt>
      <trkpt lat="44.01983" lon="7.23227">
        <ele>1953</ele>
        <time>2014-08-30T09:14:16Z</time>
      </trkpt>
      <trkpt lat="44.01986" lon="7.23227">
        <ele>1954</ele>
        <time>2014-08-30T09:14:19Z</time>
      </trkpt>
      <trkpt lat="44.01986" lon="7.23228">
        <ele>1954</ele>
        <time>2014-08-30T09:14:22Z</time>
      </trkpt>
      <trkpt lat="44.01988" lon="7.23228">
        <ele>1954</ele>
        <time>2014-08-30T09:14:25Z</time>
      </trkpt>
      <trkpt lat="44.0199" lon="7.23227">
        <ele>1955</ele>
        <time>2014-08-30T09:14:28Z</time>
      </trkpt>
      <trkpt lat="44.0199" lon="7.2323">
        <ele>1956</ele>
        <time>2014-08-30T09:14:31Z</time>
      </trkpt>
      <trkpt lat="44.01988" lon="7.23235">
        <ele>1956</ele>
        <time>2014-08-30T09:14:34Z</time>
      </trkpt>
      <trkpt lat="44.01988" lon="7.23237">
        <ele>1957</ele>
        <time>2014-08-30T09:14:37Z</time>
      </trkpt>
      <trkpt lat="44.01988" lon="7.23239">
        <ele>1958</ele>
        <time>2014-08-30T09:14:40Z</time>
      </trkpt>
      <trkpt lat="44.01987" lon="7.23241">
        <ele>1959</ele>
        <time>2014-08-30T09:14:43Z</time>
      </trkpt>
      <trkpt lat="44.01986" lon="7.23244">
        <ele>1960</ele>
        <time>2014-08-30T09:14:46Z</time>
      </trkpt>
      <trkpt lat="44.01985" lon="7.23246">
        <ele>1960</ele>
        <time>2014-08-30T09:14:49Z</time>
      </trkpt>
      <trkpt lat="44.01983" lon="7.23248">
        <ele>1961</ele>
        <time>2014-08-30T09:14:52Z</time>
      </trkpt>
      <trkpt lat="44.01981" lon="7.23249">
        <ele>1962</ele>
        <time>2014-08-30T09:14:55Z</time>
      </trkpt>
      <trkpt lat="44.01977" lon="7.23253">
        <ele>1963</ele>
        <time>2014-08-30T09:14:58Z</time>
      </trkpt>
      <trkpt lat="44.01976" lon="7.23258">
        <ele>1964</ele>
        <time>2014-08-30T09:15:01Z</time>
      </trkpt>
      <trkpt lat="44.01974" lon="7.23261">
        <ele>1965</ele>
        <time>2014-08-30T09:15:04Z</time>
      </trkpt>
      <trkpt lat="44.01971" lon="7.23264">
        <ele>1965</ele>
        <time>2014-08-30T09:15:07Z</time>
      </trkpt>
      <trkpt lat="44.01969" lon="7.23264">
        <ele>1965</ele>
        <time>2014-08-30T09:15:10Z</time>
      </trkpt>
      <trkpt lat="44.01963" lon="7.23268">
        <ele>1965</ele>
        <time>2014-08-30T09:15:13Z</time>
      </trkpt>
      <trkpt lat="44.01949" lon="7.23273">
        <ele>1965</ele>
        <time>2014-08-30T09:15:16Z</time>
      </trkpt>
      <trkpt lat="44.01941" lon="7.23276">
        <ele>1965</ele>
        <time>2014-08-30T09:15:19Z</time>
      </trkpt>
      <trkpt lat="44.01936" lon="7.23279">
        <ele>1965</ele>
        <time>2014-08-30T09:15:22Z</time>
      </trkpt>
      <trkpt lat="44.01927" lon="7.23284">
        <ele>1965</ele>
        <time>2014-08-30T09:15:25Z</time>
      </trkpt>
      <trkpt lat="44.01917" lon="7.23288">
        <ele>1965</ele>
        <time>2014-08-30T09:15:28Z</time>
      </trkpt>
      <trkpt lat="44.01905" lon="7.23301">
        <ele>1965</ele>
        <time>2014-08-30T09:15:31Z</time>
      </trkpt>
      <trkpt lat="44.01903" lon="7.23313">
        <ele>1964</ele>
        <time>2014-08-30T09:15:34Z</time>
      </trkpt>
      <trkpt lat="44.01902" lon="7.23321">
        <ele>1962</ele>
        <time>2014-08-30T09:15:37Z</time>
      </trkpt>
      <trkpt lat="44.019" lon="7.23328">
        <ele>1962</ele>
        <time>2014-08-30T09:15:40Z</time>
      </trkpt>
      <trkpt lat="44.019" lon="7.23333">
        <ele>1962</ele>
        <time>2014-08-30T09:15:43Z</time>
      </trkpt>
      <trkpt lat="44.01901" lon="7.23338">
        <ele>1963</ele>
        <time>2014-08-30T09:15:46Z</time>
      </trkpt>
      <trkpt lat="44.01902" lon="7.23343">
        <ele>1964</ele>
        <time>2014-08-30T09:15:49Z</time>
      </trkpt>
      <trkpt lat="44.01899" lon="7.23347">
        <ele>1965</ele>
        <time>2014-08-30T09:15:52Z</time>
      </trkpt>
      <trkpt lat="44.01897" lon="7.23349">
        <ele>1966</ele>
        <time>2014-08-30T09:15:55Z</time>
      </trkpt>
      <trkpt lat="44.01896" lon="7.23349">
        <ele>1967</ele>
        <time>2014-08-30T09:15:58Z</time>
      </trkpt>
      <trkpt lat="44.01896" lon="7.2335">
        <ele>1967</ele>
        <time>2014-08-30T09:16:01Z</time>
      </trkpt>
      <trkpt lat="44.01889" lon="7.23357">
        <ele>1967</ele>
        <time>2014-08-30T09:16:04Z</time>
      </trkpt>
      <trkpt lat="44.01885" lon="7.23361">
        <ele>1967</ele>
        <time>2014-08-30T09:16:07Z</time>
      </trkpt>
      <trkpt lat="44.01885" lon="7.23363">
        <ele>1966</ele>
        <time>2014-08-30T09:16:10Z</time>
      </trkpt>
      <trkpt lat="44.01883" lon="7.2337">
        <ele>1965</ele>
        <time>2014-08-30T09:16:13Z</time>
      </trkpt>
      <trkpt lat="44.01882" lon="7.23375">
        <ele>1965</ele>
        <time>2014-08-30T09:16:16Z</time>
      </trkpt>
      <trkpt lat="44.0188" lon="7.23384">
        <ele>1965</ele>
        <time>2014-08-30T09:16:19Z</time>
      </trkpt>
      <trkpt lat="44.01872" lon="7.23397">
        <ele>1963</ele>
        <time>2014-08-30T09:16:22Z</time>
      </trkpt>
      <trkpt lat="44.01868" lon="7.234">
        <ele>1962</ele>
        <time>2014-08-30T09:16:25Z</time>
      </trkpt>
      <trkpt lat="44.01862" lon="7.23404">
        <ele>1962</ele>
        <time>2014-08-30T09:16:28Z</time>
      </trkpt>
      <trkpt lat="44.01858" lon="7.23405">
        <ele>1962</ele>
        <time>2014-08-30T09:16:31Z</time>
      </trkpt>
      <trkpt lat="44.01855" lon="7.23411">
        <ele>1962</ele>
        <time>2014-08-30T09:16:34Z</time>
      </trkpt>
      <trkpt lat="44.01848" lon="7.2342">
        <ele>1962</ele>
        <time>2014-08-30T09:16:37Z</time>
      </trkpt>
      <trkpt lat="44.01844" lon="7.23425">
        <ele>1962</ele>
        <time>2014-08-30T09:16:40Z</time>
      </trkpt>
      <trkpt lat="44.01841" lon="7.23432">
        <ele>1962</ele>
        <time>2014-08-30T09:16:43Z</time>
      </trkpt>
      <trkpt lat="44.01836" lon="7.2344">
        <ele>1962</ele>
        <time>2014-08-30T09:16:46Z</time>
      </trkpt>
      <trkpt lat="44.0183" lon="7.23448">
        <ele>1962</ele>
        <time>2014-08-30T09:16:49Z</time>
      </trkpt>
      <trkpt lat="44.01825" lon="7.23454">
        <ele>1962</ele>
        <time>2014-08-30T09:16:52Z</time>
      </trkpt>
      <trkpt lat="44.01824" lon="7.23455">
        <ele>1963</ele>
        <time>2014-08-30T09:16:55Z</time>
      </trkpt>
      <trkpt lat="44.01819" lon="7.23458">
        <ele>1964</ele>
        <time>2014-08-30T09:16:58Z</time>
      </trkpt>
      <trkpt lat="44.01817" lon="7.23459">
        <ele>1964</ele>
        <time>2014-08-30T09:17:01Z</time>
      </trkpt>
      <trkpt lat="44.01816" lon="7.2346">
        <ele>1965</ele>
        <time>2014-08-30T09:17:04Z</time>
      </trkpt>
      <trkpt lat="44.01813" lon="7.23462">
        <ele>1966</ele>
        <time>2014-08-30T09:17:07Z</time>
      </trkpt>
      <trkpt lat="44.01812" lon="7.23462">
        <ele>1967</ele>
        <time>2014-08-30T09:17:10Z</time>
      </trkpt>
      <trkpt lat="44.01811" lon="7.23463">
        <ele>1968</ele>
        <time>2014-08-30T09:17:13Z</time>
      </trkpt>
      <trkpt lat="44.01807" lon="7.23465">
        <ele>1969</ele>
        <time>2014-08-30T09:17:16Z</time>
      </trkpt>
      <trkpt lat="44.01805" lon="7.23464">
        <ele>1969</ele>
        <time>2014-08-30T09:17:19Z</time>
      </trkpt>
      <trkpt lat="44.01803" lon="7.23467">
        <ele>1970</ele>
        <time>2014-08-30T09:17:22Z</time>
      </trkpt>
      <trkpt lat="44.01802" lon="7.23467">
        <ele>1971</ele>
        <time>2014-08-30T09:17:25Z</time>
      </trkpt>
      <trkpt lat="44.01799" lon="7.23471">
        <ele>1972</ele>
        <time>2014-08-30T09:17:31Z</time>
      </trkpt>
      <trkpt lat="44.01796" lon="7.23476">
        <ele>1973</ele>
        <time>2014-08-30T09:17:34Z</time>
      </trkpt>
      <trkpt lat="44.01796" lon="7.23479">
        <ele>1973</ele>
        <time>2014-08-30T09:17:37Z</time>
      </trkpt>
      <trkpt lat="44.01794" lon="7.23481">
        <ele>1974</ele>
        <time>2014-08-30T09:17:40Z</time>
      </trkpt>
      <trkpt lat="44.01791" lon="7.23485">
        <ele>1975</ele>
        <time>2014-08-30T09:17:43Z</time>
      </trkpt>
      <trkpt lat="44.01788" lon="7.23487">
        <ele>1975</ele>
        <time>2014-08-30T09:17:46Z</time>
      </trkpt>
      <trkpt lat="44.01786" lon="7.2349">
        <ele>1975</ele>
        <time>2014-08-30T09:17:49Z</time>
      </trkpt>
      <trkpt lat="44.01781" lon="7.23494">
        <ele>1975</ele>
        <time>2014-08-30T09:17:52Z</time>
      </trkpt>
      <trkpt lat="44.0178" lon="7.23502">
        <ele>1975</ele>
        <time>2014-08-30T09:17:55Z</time>
      </trkpt>
      <trkpt lat="44.0178" lon="7.23509">
        <ele>1975</ele>
        <time>2014-08-30T09:17:58Z</time>
      </trkpt>
      <trkpt lat="44.01779" lon="7.23518">
        <ele>1975</ele>
        <time>2014-08-30T09:18:01Z</time>
      </trkpt>
      <trkpt lat="44.01778" lon="7.23527">
        <ele>1975</ele>
        <time>2014-08-30T09:18:04Z</time>
      </trkpt>
      <trkpt lat="44.01779" lon="7.23535">
        <ele>1975</ele>
        <time>2014-08-30T09:18:07Z</time>
      </trkpt>
      <trkpt lat="44.01775" lon="7.23543">
        <ele>1975</ele>
        <time>2014-08-30T09:18:10Z</time>
      </trkpt>
      <trkpt lat="44.01769" lon="7.23547">
        <ele>1975</ele>
        <time>2014-08-30T09:18:13Z</time>
      </trkpt>
      <trkpt lat="44.01764" lon="7.23554">
        <ele>1975</ele>
        <time>2014-08-30T09:18:16Z</time>
      </trkpt>
      <trkpt lat="44.01765" lon="7.23562">
        <ele>1975</ele>
        <time>2014-08-30T09:18:19Z</time>
      </trkpt>
      <trkpt lat="44.01769" lon="7.23569">
        <ele>1975</ele>
        <time>2014-08-30T09:18:22Z</time>
      </trkpt>
      <trkpt lat="44.01776" lon="7.23574">
        <ele>1975</ele>
        <time>2014-08-30T09:18:25Z</time>
      </trkpt>
      <trkpt lat="44.01778" lon="7.23579">
        <ele>1975</ele>
        <time>2014-08-30T09:18:28Z</time>
      </trkpt>
      <trkpt lat="44.01776" lon="7.23586">
        <ele>1977</ele>
        <time>2014-08-30T09:18:31Z</time>
      </trkpt>
      <trkpt lat="44.01773" lon="7.23594">
        <ele>1977</ele>
        <time>2014-08-30T09:18:34Z</time>
      </trkpt>
      <trkpt lat="44.01766" lon="7.23606">
        <ele>1977</ele>
        <time>2014-08-30T09:18:37Z</time>
      </trkpt>
      <trkpt lat="44.01758" lon="7.23616">
        <ele>1977</ele>
        <time>2014-08-30T09:18:40Z</time>
      </trkpt>
      <trkpt lat="44.01742" lon="7.23622">
        <ele>1977</ele>
        <time>2014-08-30T09:18:43Z</time>
      </trkpt>
      <trkpt lat="44.01731" lon="7.23623">
        <ele>1977</ele>
        <time>2014-08-30T09:18:46Z</time>
      </trkpt>
      <trkpt lat="44.01732" lon="7.23633">
        <ele>1975</ele>
        <time>2014-08-30T09:18:49Z</time>
      </trkpt>
      <trkpt lat="44.01734" lon="7.23656">
        <ele>1973</ele>
        <time>2014-08-30T09:18:52Z</time>
      </trkpt>
      <trkpt lat="44.01736" lon="7.23678">
        <ele>1971</ele>
        <time>2014-08-30T09:18:55Z</time>
      </trkpt>
      <trkpt lat="44.01741" lon="7.23693">
        <ele>1970</ele>
        <time>2014-08-30T09:18:58Z</time>
      </trkpt>
      <trkpt lat="44.01745" lon="7.23705">
        <ele>1970</ele>
        <time>2014-08-30T09:19:01Z</time>
      </trkpt>
      <trkpt lat="44.01746" lon="7.23715">
        <ele>1971</ele>
        <time>2014-08-30T09:19:04Z</time>
      </trkpt>
      <trkpt lat="44.01747" lon="7.23724">
        <ele>1972</ele>
        <time>2014-08-30T09:19:07Z</time>
      </trkpt>
      <trkpt lat="44.01751" lon="7.23733">
        <ele>1973</ele>
        <time>2014-08-30T09:19:10Z</time>
      </trkpt>
      <trkpt lat="44.01754" lon="7.23746">
        <ele>1973</ele>
        <time>2014-08-30T09:19:13Z</time>
      </trkpt>
      <trkpt lat="44.01755" lon="7.23757">
        <ele>1973</ele>
        <time>2014-08-30T09:19:16Z</time>
      </trkpt>
      <trkpt lat="44.01755" lon="7.23768">
        <ele>1973</ele>
        <time>2014-08-30T09:19:19Z</time>
      </trkpt>
      <trkpt lat="44.01755" lon="7.23783">
        <ele>1974</ele>
        <time>2014-08-30T09:19:22Z</time>
      </trkpt>
      <trkpt lat="44.01755" lon="7.23804">
        <ele>1974</ele>
        <time>2014-08-30T09:19:25Z</time>
      </trkpt>
      <trkpt lat="44.01754" lon="7.23819">
        <ele>1973</ele>
        <time>2014-08-30T09:19:28Z</time>
      </trkpt>
      <trkpt lat="44.01753" lon="7.23829">
        <ele>1973</ele>
        <time>2014-08-30T09:19:31Z</time>
      </trkpt>
      <trkpt lat="44.01751" lon="7.23841">
        <ele>1973</ele>
        <time>2014-08-30T09:19:34Z</time>
      </trkpt>
      <trkpt lat="44.01751" lon="7.23854">
        <ele>1973</ele>
        <time>2014-08-30T09:19:37Z</time>
      </trkpt>
      <trkpt lat="44.01753" lon="7.23863">
        <ele>1973</ele>
        <time>2014-08-30T09:19:40Z</time>
      </trkpt>
      <trkpt lat="44.01753" lon="7.23868">
        <ele>1973</ele>
        <time>2014-08-30T09:19:43Z</time>
      </trkpt>
      <trkpt lat="44.01752" lon="7.23877">
        <ele>1973</ele>
        <time>2014-08-30T09:19:46Z</time>
      </trkpt>
      <trkpt lat="44.0175" lon="7.23897">
        <ele>1972</ele>
        <time>2014-08-30T09:19:49Z</time>
      </trkpt>
      <trkpt lat="44.0175" lon="7.23918">
        <ele>1971</ele>
        <time>2014-08-30T09:19:52Z</time>
      </trkpt>
      <trkpt lat="44.0175" lon="7.23936">
        <ele>1970</ele>
        <time>2014-08-30T09:19:55Z</time>
      </trkpt>
      <trkpt lat="44.01748" lon="7.23948">
        <ele>1970</ele>
        <time>2014-08-30T09:19:58Z</time>
      </trkpt>
      <trkpt lat="44.01748" lon="7.23959">
        <ele>1970</ele>
        <time>2014-08-30T09:20:01Z</time>
      </trkpt>
      <trkpt lat="44.01747" lon="7.23975">
        <ele>1970</ele>
        <time>2014-08-30T09:20:04Z</time>
      </trkpt>
      <trkpt lat="44.01748" lon="7.23989">
        <ele>1970</ele>
        <time>2014-08-30T09:20:07Z</time>
      </trkpt>
      <trkpt lat="44.01744" lon="7.24002">
        <ele>1970</ele>
        <time>2014-08-30T09:20:10Z</time>
      </trkpt>
      <trkpt lat="44.01738" lon="7.24017">
        <ele>1970</ele>
        <time>2014-08-30T09:20:13Z</time>
      </trkpt>
      <trkpt lat="44.01735" lon="7.2404">
        <ele>1970</ele>
        <time>2014-08-30T09:20:16Z</time>
      </trkpt>
      <trkpt lat="44.01732" lon="7.24064">
        <ele>1970</ele>
        <time>2014-08-30T09:20:19Z</time>
      </trkpt>
      <trkpt lat="44.0173" lon="7.24083">
        <ele>1970</ele>
        <time>2014-08-30T09:20:22Z</time>
      </trkpt>
      <trkpt lat="44.01728" lon="7.24106">
        <ele>1969</ele>
        <time>2014-08-30T09:20:25Z</time>
      </trkpt>
      <trkpt lat="44.01727" lon="7.24132">
        <ele>1968</ele>
        <time>2014-08-30T09:20:28Z</time>
      </trkpt>
      <trkpt lat="44.01725" lon="7.24153">
        <ele>1966</ele>
        <time>2014-08-30T09:20:31Z</time>
      </trkpt>
      <trkpt lat="44.01729" lon="7.24174">
        <ele>1963</ele>
        <time>2014-08-30T09:20:34Z</time>
      </trkpt>
      <trkpt lat="44.01729" lon="7.242">
        <ele>1960</ele>
        <time>2014-08-30T09:20:37Z</time>
      </trkpt>
      <trkpt lat="44.01725" lon="7.24213">
        <ele>1957</ele>
        <time>2014-08-30T09:20:40Z</time>
      </trkpt>
      <trkpt lat="44.01719" lon="7.24222">
        <ele>1955</ele>
        <time>2014-08-30T09:20:43Z</time>
      </trkpt>
      <trkpt lat="44.01718" lon="7.24233">
        <ele>1953</ele>
        <time>2014-08-30T09:20:46Z</time>
      </trkpt>
      <trkpt lat="44.0172" lon="7.24242">
        <ele>1951</ele>
        <time>2014-08-30T09:20:49Z</time>
      </trkpt>
      <trkpt lat="44.01717" lon="7.24255">
        <ele>1949</ele>
        <time>2014-08-30T09:20:52Z</time>
      </trkpt>
      <trkpt lat="44.01709" lon="7.24271">
        <ele>1947</ele>
        <time>2014-08-30T09:20:55Z</time>
      </trkpt>
      <trkpt lat="44.01701" lon="7.24286">
        <ele>1944</ele>
        <time>2014-08-30T09:20:58Z</time>
      </trkpt>
      <trkpt lat="44.01698" lon="7.24297">
        <ele>1942</ele>
        <time>2014-08-30T09:21:01Z</time>
      </trkpt>
      <trkpt lat="44.0169" lon="7.24309">
        <ele>1939</ele>
        <time>2014-08-30T09:21:04Z</time>
      </trkpt>
      <trkpt lat="44.01682" lon="7.24326">
        <ele>1936</ele>
        <time>2014-08-30T09:21:07Z</time>
      </trkpt>
      <trkpt lat="44.01681" lon="7.24341">
        <ele>1933</ele>
        <time>2014-08-30T09:21:10Z</time>
      </trkpt>
      <trkpt lat="44.01674" lon="7.24362">
        <ele>1930</ele>
        <time>2014-08-30T09:21:13Z</time>
      </trkpt>
      <trkpt lat="44.01667" lon="7.24393">
        <ele>1928</ele>
        <time>2014-08-30T09:21:16Z</time>
      </trkpt>
      <trkpt lat="44.01662" lon="7.24423">
        <ele>1925</ele>
        <time>2014-08-30T09:21:19Z</time>
      </trkpt>
      <trkpt lat="44.01652" lon="7.24449">
        <ele>1923</ele>
        <time>2014-08-30T09:21:22Z</time>
      </trkpt>
      <trkpt lat="44.01638" lon="7.24472">
        <ele>1920</ele>
        <time>2014-08-30T09:21:25Z</time>
      </trkpt>
      <trkpt lat="44.01626" lon="7.24503">
        <ele>1917</ele>
        <time>2014-08-30T09:21:28Z</time>
      </trkpt>
      <trkpt lat="44.01617" lon="7.24535">
        <ele>1915</ele>
        <time>2014-08-30T09:21:31Z</time>
      </trkpt>
      <trkpt lat="44.01606" lon="7.24562">
        <ele>1913</ele>
        <time>2014-08-30T09:21:34Z</time>
      </trkpt>
      <trkpt lat="44.01597" lon="7.24588">
        <ele>1911</ele>
        <time>2014-08-30T09:21:37Z</time>
      </trkpt>
      <trkpt lat="44.01588" lon="7.24615">
        <ele>1909</ele>
        <time>2014-08-30T09:21:40Z</time>
      </trkpt>
      <trkpt lat="44.0158" lon="7.24629">
        <ele>1907</ele>
        <time>2014-08-30T09:21:43Z</time>
      </trkpt>
      <trkpt lat="44.01572" lon="7.2464">
        <ele>1906</ele>
        <time>2014-08-30T09:21:46Z</time>
      </trkpt>
      <trkpt lat="44.01567" lon="7.24649">
        <ele>1903</ele>
        <time>2014-08-30T09:21:49Z</time>
      </trkpt>
      <trkpt lat="44.01562" lon="7.24662">
        <ele>1901</ele>
        <time>2014-08-30T09:21:52Z</time>
      </trkpt>
      <trkpt lat="44.01553" lon="7.24674">
        <ele>1898</ele>
        <time>2014-08-30T09:21:55Z</time>
      </trkpt>
      <trkpt lat="44.01545" lon="7.24683">
        <ele>1895</ele>
        <time>2014-08-30T09:21:58Z</time>
      </trkpt>
      <trkpt lat="44.01535" lon="7.24697">
        <ele>1893</ele>
        <time>2014-08-30T09:22:01Z</time>
      </trkpt>
      <trkpt lat="44.01525" lon="7.24711">
        <ele>1890</ele>
        <time>2014-08-30T09:22:04Z</time>
      </trkpt>
      <trkpt lat="44.01517" lon="7.24725">
        <ele>1887</ele>
        <time>2014-08-30T09:22:07Z</time>
      </trkpt>
      <trkpt lat="44.0151" lon="7.24743">
        <ele>1884</ele>
        <time>2014-08-30T09:22:10Z</time>
      </trkpt>
      <trkpt lat="44.01506" lon="7.24751">
        <ele>1882</ele>
        <time>2014-08-30T09:22:13Z</time>
      </trkpt>
      <trkpt lat="44.01502" lon="7.24755">
        <ele>1881</ele>
        <time>2014-08-30T09:22:16Z</time>
      </trkpt>
      <trkpt lat="44.01498" lon="7.24764">
        <ele>1880</ele>
        <time>2014-08-30T09:22:19Z</time>
      </trkpt>
      <trkpt lat="44.01496" lon="7.24771">
        <ele>1878</ele>
        <time>2014-08-30T09:22:22Z</time>
      </trkpt>
      <trkpt lat="44.01492" lon="7.24778">
        <ele>1876</ele>
        <time>2014-08-30T09:22:25Z</time>
      </trkpt>
      <trkpt lat="44.01485" lon="7.24787">
        <ele>1873</ele>
        <time>2014-08-30T09:22:28Z</time>
      </trkpt>
      <trkpt lat="44.01473" lon="7.24796">
        <ele>1870</ele>
        <time>2014-08-30T09:22:31Z</time>
      </trkpt>
      <trkpt lat="44.01467" lon="7.24803">
        <ele>1867</ele>
        <time>2014-08-30T09:22:34Z</time>
      </trkpt>
      <trkpt lat="44.01461" lon="7.24805">
        <ele>1864</ele>
        <time>2014-08-30T09:22:37Z</time>
      </trkpt>
      <trkpt lat="44.01454" lon="7.24812">
        <ele>1862</ele>
        <time>2014-08-30T09:22:40Z</time>
      </trkpt>
      <trkpt lat="44.01451" lon="7.24816">
        <ele>1859</ele>
        <time>2014-08-30T09:22:43Z</time>
      </trkpt>
      <trkpt lat="44.01449" lon="7.24817">
        <ele>1857</ele>
        <time>2014-08-30T09:22:46Z</time>
      </trkpt>
      <trkpt lat="44.01447" lon="7.24817">
        <ele>1856</ele>
        <time>2014-08-30T09:22:49Z</time>
      </trkpt>
      <trkpt lat="44.01445" lon="7.24818">
        <ele>1855</ele>
        <time>2014-08-30T09:22:52Z</time>
      </trkpt>
      <trkpt lat="44.01441" lon="7.24824">
        <ele>1853</ele>
        <time>2014-08-30T09:22:55Z</time>
      </trkpt>
      <trkpt lat="44.01437" lon="7.2483">
        <ele>1851</ele>
        <time>2014-08-30T09:22:58Z</time>
      </trkpt>
      <trkpt lat="44.01435" lon="7.24834">
        <ele>1849</ele>
        <time>2014-08-30T09:23:01Z</time>
      </trkpt>
      <trkpt lat="44.01432" lon="7.24837">
        <ele>1846</ele>
        <time>2014-08-30T09:23:04Z</time>
      </trkpt>
      <trkpt lat="44.01428" lon="7.24842">
        <ele>1844</ele>
        <time>2014-08-30T09:23:07Z</time>
      </trkpt>
      <trkpt lat="44.01419" lon="7.24858">
        <ele>1841</ele>
        <time>2014-08-30T09:23:10Z</time>
      </trkpt>
      <trkpt lat="44.01406" lon="7.24869">
        <ele>1838</ele>
        <time>2014-08-30T09:23:13Z</time>
      </trkpt>
      <trkpt lat="44.01397" lon="7.24876">
        <ele>1835</ele>
        <time>2014-08-30T09:23:16Z</time>
      </trkpt>
      <trkpt lat="44.01391" lon="7.24877">
        <ele>1833</ele>
        <time>2014-08-30T09:23:19Z</time>
      </trkpt>
      <trkpt lat="44.01389" lon="7.24874">
        <ele>1830</ele>
        <time>2014-08-30T09:23:22Z</time>
      </trkpt>
      <trkpt lat="44.01384" lon="7.24871">
        <ele>1828</ele>
        <time>2014-08-30T09:23:25Z</time>
      </trkpt>
      <trkpt lat="44.01378" lon="7.24868">
        <ele>1826</ele>
        <time>2014-08-30T09:23:28Z</time>
      </trkpt>
      <trkpt lat="44.0137" lon="7.24867">
        <ele>1824</ele>
        <time>2014-08-30T09:23:31Z</time>
      </trkpt>
      <trkpt lat="44.01361" lon="7.24858">
        <ele>1822</ele>
        <time>2014-08-30T09:23:34Z</time>
      </trkpt>
      <trkpt lat="44.01354" lon="7.24853">
        <ele>1820</ele>
        <time>2014-08-30T09:23:37Z</time>
      </trkpt>
      <trkpt lat="44.01346" lon="7.2485">
        <ele>1818</ele>
        <time>2014-08-30T09:23:40Z</time>
      </trkpt>
      <trkpt lat="44.0134" lon="7.24838">
        <ele>1815</ele>
        <time>2014-08-30T09:23:43Z</time>
      </trkpt>
      <trkpt lat="44.01332" lon="7.24827">
        <ele>1812</ele>
        <time>2014-08-30T09:23:46Z</time>
      </trkpt>
      <trkpt lat="44.01322" lon="7.24818">
        <ele>1809</ele>
        <time>2014-08-30T09:23:49Z</time>
      </trkpt>
      <trkpt lat="44.01313" lon="7.24807">
        <ele>1806</ele>
        <time>2014-08-30T09:23:52Z</time>
      </trkpt>
      <trkpt lat="44.01308" lon="7.24797">
        <ele>1803</ele>
        <time>2014-08-30T09:23:55Z</time>
      </trkpt>
      <trkpt lat="44.01303" lon="7.24794">
        <ele>1801</ele>
        <time>2014-08-30T09:23:58Z</time>
      </trkpt>
      <trkpt lat="44.013" lon="7.24785">
        <ele>1798</ele>
        <time>2014-08-30T09:24:01Z</time>
      </trkpt>
      <trkpt lat="44.01297" lon="7.24782">
        <ele>1796</ele>
        <time>2014-08-30T09:24:04Z</time>
      </trkpt>
      <trkpt lat="44.01295" lon="7.24783">
        <ele>1794</ele>
        <time>2014-08-30T09:24:07Z</time>
      </trkpt>
      <trkpt lat="44.01293" lon="7.24781">
        <ele>1793</ele>
        <time>2014-08-30T09:24:10Z</time>
      </trkpt>
      <trkpt lat="44.01292" lon="7.2478">
        <ele>1792</ele>
        <time>2014-08-30T09:24:13Z</time>
      </trkpt>
      <trkpt lat="44.01287" lon="7.2478">
        <ele>1790</ele>
        <time>2014-08-30T09:24:16Z</time>
      </trkpt>
      <trkpt lat="44.01284" lon="7.2478">
        <ele>1789</ele>
        <time>2014-08-30T09:24:19Z</time>
      </trkpt>
      <trkpt lat="44.01283" lon="7.24779">
        <ele>1789</ele>
        <time>2014-08-30T09:24:22Z</time>
      </trkpt>
      <trkpt lat="44.01282" lon="7.24778">
        <ele>1787</ele>
        <time>2014-08-30T09:24:28Z</time>
      </trkpt>
      <trkpt lat="44.01281" lon="7.24777">
        <ele>1787</ele>
        <time>2014-08-30T09:24:31Z</time>
      </trkpt>
      <trkpt lat="44.01275" lon="7.24774">
        <ele>1786</ele>
        <time>2014-08-30T09:24:34Z</time>
      </trkpt>
      <trkpt lat="44.01269" lon="7.24773">
        <ele>1785</ele>
        <time>2014-08-30T09:24:37Z</time>
      </trkpt>
      <trkpt lat="44.01264" lon="7.2477">
        <ele>1783</ele>
        <time>2014-08-30T09:24:40Z</time>
      </trkpt>
      <trkpt lat="44.01262" lon="7.24764">
        <ele>1781</ele>
        <time>2014-08-30T09:24:43Z</time>
      </trkpt>
      <trkpt lat="44.01256" lon="7.24763">
        <ele>1779</ele>
        <time>2014-08-30T09:24:46Z</time>
      </trkpt>
      <trkpt lat="44.01251" lon="7.24762">
        <ele>1777</ele>
        <time>2014-08-30T09:24:49Z</time>
      </trkpt>
      <trkpt lat="44.01246" lon="7.2476">
        <ele>1775</ele>
        <time>2014-08-30T09:24:52Z</time>
      </trkpt>
      <trkpt lat="44.01241" lon="7.24759">
        <ele>1773</ele>
        <time>2014-08-30T09:24:55Z</time>
      </trkpt>
      <trkpt lat="44.01235" lon="7.24759">
        <ele>1771</ele>
        <time>2014-08-30T09:24:58Z</time>
      </trkpt>
      <trkpt lat="44.0123" lon="7.24756">
        <ele>1769</ele>
        <time>2014-08-30T09:25:01Z</time>
      </trkpt>
      <trkpt lat="44.01227" lon="7.24752">
        <ele>1768</ele>
        <time>2014-08-30T09:25:04Z</time>
      </trkpt>
      <trkpt lat="44.01223" lon="7.24752">
        <ele>1767</ele>
        <time>2014-08-30T09:25:07Z</time>
      </trkpt>
      <trkpt lat="44.01221" lon="7.24752">
        <ele>1767</ele>
        <time>2014-08-30T09:25:10Z</time>
      </trkpt>
      <trkpt lat="44.01217" lon="7.24752">
        <ele>1766</ele>
        <time>2014-08-30T09:25:13Z</time>
      </trkpt>
      <trkpt lat="44.01214" lon="7.24749">
        <ele>1764</ele>
        <time>2014-08-30T09:25:16Z</time>
      </trkpt>
      <trkpt lat="44.01207" lon="7.24748">
        <ele>1764</ele>
        <time>2014-08-30T09:25:19Z</time>
      </trkpt>
      <trkpt lat="44.012" lon="7.2475">
        <ele>1763</ele>
        <time>2014-08-30T09:25:22Z</time>
      </trkpt>
      <trkpt lat="44.01196" lon="7.24749">
        <ele>1762</ele>
        <time>2014-08-30T09:25:25Z</time>
      </trkpt>
      <trkpt lat="44.01194" lon="7.24739">
        <ele>1761</ele>
        <time>2014-08-30T09:25:28Z</time>
      </trkpt>
      <trkpt lat="44.01189" lon="7.24732">
        <ele>1760</ele>
        <time>2014-08-30T09:25:31Z</time>
      </trkpt>
      <trkpt lat="44.01183" lon="7.24744">
        <ele>1759</ele>
        <time>2014-08-30T09:25:34Z</time>
      </trkpt>
      <trkpt lat="44.01182" lon="7.24763">
        <ele>1757</ele>
        <time>2014-08-30T09:25:37Z</time>
      </trkpt>
      <trkpt lat="44.01178" lon="7.24775">
        <ele>1756</ele>
        <time>2014-08-30T09:25:40Z</time>
      </trkpt>
      <trkpt lat="44.01173" lon="7.2479">
        <ele>1755</ele>
        <time>2014-08-30T09:25:43Z</time>
      </trkpt>
      <trkpt lat="44.01165" lon="7.24811">
        <ele>1753</ele>
        <time>2014-08-30T09:25:46Z</time>
      </trkpt>
      <trkpt lat="44.01152" lon="7.24825">
        <ele>1751</ele>
        <time>2014-08-30T09:25:49Z</time>
      </trkpt>
      <trkpt lat="44.0114" lon="7.24839">
        <ele>1749</ele>
        <time>2014-08-30T09:25:52Z</time>
      </trkpt>
      <trkpt lat="44.01138" lon="7.24843">
        <ele>1747</ele>
        <time>2014-08-30T09:25:55Z</time>
      </trkpt>
      <trkpt lat="44.01137" lon="7.24837">
        <ele>1746</ele>
        <time>2014-08-30T09:25:58Z</time>
      </trkpt>
      <trkpt lat="44.0113" lon="7.24836">
        <ele>1745</ele>
        <time>2014-08-30T09:26:01Z</time>
      </trkpt>
      <trkpt lat="44.01121" lon="7.24836">
        <ele>1742</ele>
        <time>2014-08-30T09:26:04Z</time>
      </trkpt>
      <trkpt lat="44.01114" lon="7.24839">
        <ele>1740</ele>
        <time>2014-08-30T09:26:07Z</time>
      </trkpt>
      <trkpt lat="44.0111" lon="7.24838">
        <ele>1737</ele>
        <time>2014-08-30T09:26:10Z</time>
      </trkpt>
      <trkpt lat="44.01107" lon="7.24839">
        <ele>1736</ele>
        <time>2014-08-30T09:26:13Z</time>
      </trkpt>
      <trkpt lat="44.01101" lon="7.24839">
        <ele>1734</ele>
        <time>2014-08-30T09:26:16Z</time>
      </trkpt>
      <trkpt lat="44.01093" lon="7.24845">
        <ele>1732</ele>
        <time>2014-08-30T09:26:19Z</time>
      </trkpt>
      <trkpt lat="44.01086" lon="7.24863">
        <ele>1731</ele>
        <time>2014-08-30T09:26:22Z</time>
      </trkpt>
      <trkpt lat="44.01073" lon="7.24886">
        <ele>1729</ele>
        <time>2014-08-30T09:26:25Z</time>
      </trkpt>
      <trkpt lat="44.0106" lon="7.24903">
        <ele>1727</ele>
        <time>2014-08-30T09:26:28Z</time>
      </trkpt>
      <trkpt lat="44.01047" lon="7.24923">
        <ele>1725</ele>
        <time>2014-08-30T09:26:31Z</time>
      </trkpt>
      <trkpt lat="44.01031" lon="7.24945">
        <ele>1722</ele>
        <time>2014-08-30T09:26:34Z</time>
      </trkpt>
      <trkpt lat="44.01019" lon="7.24964">
        <ele>1719</ele>
        <time>2014-08-30T09:26:37Z</time>
      </trkpt>
      <trkpt lat="44.01005" lon="7.24983">
        <ele>1717</ele>
        <time>2014-08-30T09:26:40Z</time>
      </trkpt>
      <trkpt lat="44.00999" lon="7.2501">
        <ele>1714</ele>
        <time>2014-08-30T09:26:43Z</time>
      </trkpt>
      <trkpt lat="44.00995" lon="7.25025">
        <ele>1711</ele>
        <time>2014-08-30T09:26:46Z</time>
      </trkpt>
      <trkpt lat="44.00995" lon="7.25024">
        <ele>1709</ele>
        <time>2014-08-30T09:26:49Z</time>
      </trkpt>
      <trkpt lat="44.00995" lon="7.25025">
        <ele>1709</ele>
        <time>2014-08-30T09:26:52Z</time>
      </trkpt>
      <trkpt lat="44.00996" lon="7.25027">
        <ele>1709</ele>
        <time>2014-08-30T09:26:55Z</time>
      </trkpt>
      <trkpt lat="44.00995" lon="7.25043">
        <ele>1709</ele>
        <time>2014-08-30T09:26:58Z</time>
      </trkpt>
      <trkpt lat="44.00993" lon="7.25064">
        <ele>1708</ele>
        <time>2014-08-30T09:27:01Z</time>
      </trkpt>
      <trkpt lat="44.00985" lon="7.25074">
        <ele>1706</ele>
        <time>2014-08-30T09:27:04Z</time>
      </trkpt>
      <trkpt lat="44.00973" lon="7.25063">
        <ele>1704</ele>
        <time>2014-08-30T09:27:07Z</time>
      </trkpt>
      <trkpt lat="44.00963" lon="7.25053">
        <ele>1702</ele>
        <time>2014-08-30T09:27:10Z</time>
      </trkpt>
      <trkpt lat="44.00953" lon="7.25061">
        <ele>1700</ele>
        <time>2014-08-30T09:27:13Z</time>
      </trkpt>
      <trkpt lat="44.00941" lon="7.25068">
        <ele>1698</ele>
        <time>2014-08-30T09:27:16Z</time>
      </trkpt>
      <trkpt lat="44.0093" lon="7.25066">
        <ele>1695</ele>
        <time>2014-08-30T09:27:19Z</time>
      </trkpt>
      <trkpt lat="44.00921" lon="7.25052">
        <ele>1692</ele>
        <time>2014-08-30T09:27:22Z</time>
      </trkpt>
      <trkpt lat="44.00922" lon="7.25027">
        <ele>1691</ele>
        <time>2014-08-30T09:27:25Z</time>
      </trkpt>
      <trkpt lat="44.00921" lon="7.24998">
        <ele>1690</ele>
        <time>2014-08-30T09:27:28Z</time>
      </trkpt>
      <trkpt lat="44.00918" lon="7.24971">
        <ele>1690</ele>
        <time>2014-08-30T09:27:31Z</time>
      </trkpt>
      <trkpt lat="44.00916" lon="7.24944">
        <ele>1689</ele>
        <time>2014-08-30T09:27:34Z</time>
      </trkpt>
      <trkpt lat="44.00917" lon="7.24919">
        <ele>1688</ele>
        <time>2014-08-30T09:27:37Z</time>
      </trkpt>
      <trkpt lat="44.00917" lon="7.24892">
        <ele>1687</ele>
        <time>2014-08-30T09:27:40Z</time>
      </trkpt>
      <trkpt lat="44.00918" lon="7.24865">
        <ele>1687</ele>
        <time>2014-08-30T09:27:43Z</time>
      </trkpt>
      <trkpt lat="44.00919" lon="7.24835">
        <ele>1687</ele>
        <time>2014-08-30T09:27:46Z</time>
      </trkpt>
      <trkpt lat="44.00924" lon="7.24801">
        <ele>1687</ele>
        <time>2014-08-30T09:27:49Z</time>
      </trkpt>
      <trkpt lat="44.00931" lon="7.24768">
        <ele>1687</ele>
        <time>2014-08-30T09:27:52Z</time>
      </trkpt>
      <trkpt lat="44.00937" lon="7.24731">
        <ele>1687</ele>
        <time>2014-08-30T09:27:55Z</time>
      </trkpt>
      <trkpt lat="44.00935" lon="7.24692">
        <ele>1686</ele>
        <time>2014-08-30T09:27:58Z</time>
      </trkpt>
      <trkpt lat="44.00927" lon="7.24658">
        <ele>1684</ele>
        <time>2014-08-30T09:28:01Z</time>
      </trkpt>
      <trkpt lat="44.00921" lon="7.24625">
        <ele>1683</ele>
        <time>2014-08-30T09:28:04Z</time>
      </trkpt>
      <trkpt lat="44.00919" lon="7.24593">
        <ele>1683</ele>
        <time>2014-08-30T09:28:07Z</time>
      </trkpt>
      <trkpt lat="44.00913" lon="7.24559">
        <ele>1683</ele>
        <time>2014-08-30T09:28:10Z</time>
      </trkpt>
      <trkpt lat="44.00907" lon="7.2453">
        <ele>1683</ele>
        <time>2014-08-30T09:28:13Z</time>
      </trkpt>
      <trkpt lat="44.00903" lon="7.245">
        <ele>1683</ele>
        <time>2014-08-30T09:28:16Z</time>
      </trkpt>
      <trkpt lat="44.00903" lon="7.2447">
        <ele>1683</ele>
        <time>2014-08-30T09:28:19Z</time>
      </trkpt>
      <trkpt lat="44.00904" lon="7.24442">
        <ele>1683</ele>
        <time>2014-08-30T09:28:22Z</time>
      </trkpt>
      <trkpt lat="44.00908" lon="7.24418">
        <ele>1683</ele>
        <time>2014-08-30T09:28:25Z</time>
      </trkpt>
      <trkpt lat="44.00914" lon="7.24387">
        <ele>1682</ele>
        <time>2014-08-30T09:28:28Z</time>
      </trkpt>
      <trkpt lat="44.00921" lon="7.24357">
        <ele>1681</ele>
        <time>2014-08-30T09:28:31Z</time>
      </trkpt>
      <trkpt lat="44.00928" lon="7.24329">
        <ele>1679</ele>
        <time>2014-08-30T09:28:34Z</time>
      </trkpt>
      <trkpt lat="44.00935" lon="7.24293">
        <ele>1678</ele>
        <time>2014-08-30T09:28:37Z</time>
      </trkpt>
      <trkpt lat="44.00941" lon="7.24256">
        <ele>1678</ele>
        <time>2014-08-30T09:28:40Z</time>
      </trkpt>
      <trkpt lat="44.00947" lon="7.24223">
        <ele>1678</ele>
        <time>2014-08-30T09:28:43Z</time>
      </trkpt>
      <trkpt lat="44.00956" lon="7.24192">
        <ele>1678</ele>
        <time>2014-08-30T09:28:46Z</time>
      </trkpt>
      <trkpt lat="44.00966" lon="7.24164">
        <ele>1678</ele>
        <time>2014-08-30T09:28:49Z</time>
      </trkpt>
      <trkpt lat="44.00975" lon="7.24133">
        <ele>1676</ele>
        <time>2014-08-30T09:28:52Z</time>
      </trkpt>
      <trkpt lat="44.00986" lon="7.24103">
        <ele>1676</ele>
        <time>2014-08-30T09:28:55Z</time>
      </trkpt>
      <trkpt lat="44.00996" lon="7.24072">
        <ele>1676</ele>
        <time>2014-08-30T09:28:58Z</time>
      </trkpt>
      <trkpt lat="44.01004" lon="7.24039">
        <ele>1675</ele>
        <time>2014-08-30T09:29:01Z</time>
      </trkpt>
      <trkpt lat="44.01011" lon="7.24005">
        <ele>1674</ele>
        <time>2014-08-30T09:29:04Z</time>
      </trkpt>
      <trkpt lat="44.01015" lon="7.23976">
        <ele>1674</ele>
        <time>2014-08-30T09:29:07Z</time>
      </trkpt>
      <trkpt lat="44.01017" lon="7.23948">
        <ele>1674</ele>
        <time>2014-08-30T09:29:10Z</time>
      </trkpt>
      <trkpt lat="44.01015" lon="7.23923">
        <ele>1674</ele>
        <time>2014-08-30T09:29:13Z</time>
      </trkpt>
      <trkpt lat="44.01013" lon="7.23907">
        <ele>1674</ele>
        <time>2014-08-30T09:29:16Z</time>
      </trkpt>
      <trkpt lat="44.01016" lon="7.23879">
        <ele>1674</ele>
        <time>2014-08-30T09:29:19Z</time>
      </trkpt>
      <trkpt lat="44.01016" lon="7.23853">
        <ele>1674</ele>
        <time>2014-08-30T09:29:22Z</time>
      </trkpt>
      <trkpt lat="44.01014" lon="7.23831">
        <ele>1674</ele>
        <time>2014-08-30T09:29:25Z</time>
      </trkpt>
      <trkpt lat="44.0101" lon="7.2381">
        <ele>1674</ele>
        <time>2014-08-30T09:29:28Z</time>
      </trkpt>
      <trkpt lat="44.01002" lon="7.2378">
        <ele>1675</ele>
        <time>2014-08-30T09:29:31Z</time>
      </trkpt>
      <trkpt lat="44.00988" lon="7.23755">
        <ele>1676</ele>
        <time>2014-08-30T09:29:34Z</time>
      </trkpt>
      <trkpt lat="44.00971" lon="7.23735">
        <ele>1676</ele>
        <time>2014-08-30T09:29:37Z</time>
      </trkpt>
      <trkpt lat="44.00958" lon="7.23714">
        <ele>1676</ele>
        <time>2014-08-30T09:29:40Z</time>
      </trkpt>
      <trkpt lat="44.00945" lon="7.23701">
        <ele>1675</ele>
        <time>2014-08-30T09:29:43Z</time>
      </trkpt>
      <trkpt lat="44.0093" lon="7.23683">
        <ele>1674</ele>
        <time>2014-08-30T09:29:46Z</time>
      </trkpt>
      <trkpt lat="44.00915" lon="7.23665">
        <ele>1674</ele>
        <time>2014-08-30T09:29:49Z</time>
      </trkpt>
      <trkpt lat="44.0089" lon="7.23649">
        <ele>1673</ele>
        <time>2014-08-30T09:29:52Z</time>
      </trkpt>
      <trkpt lat="44.00861" lon="7.23646">
        <ele>1672</ele>
        <time>2014-08-30T09:29:55Z</time>
      </trkpt>
      <trkpt lat="44.00841" lon="7.23646">
        <ele>1670</ele>
        <time>2014-08-30T09:29:58Z</time>
      </trkpt>
      <trkpt lat="44.00823" lon="7.23651">
        <ele>1670</ele>
        <time>2014-08-30T09:30:01Z</time>
      </trkpt>
      <trkpt lat="44.00789" lon="7.23652">
        <ele>1670</ele>
        <time>2014-08-30T09:30:04Z</time>
      </trkpt>
      <trkpt lat="44.00766" lon="7.23652">
        <ele>1669</ele>
        <time>2014-08-30T09:30:07Z</time>
      </trkpt>
      <trkpt lat="44.00744" lon="7.23653">
        <ele>1668</ele>
        <time>2014-08-30T09:30:10Z</time>
      </trkpt>
      <trkpt lat="44.00716" lon="7.23652">
        <ele>1667</ele>
        <time>2014-08-30T09:30:13Z</time>
      </trkpt>
      <trkpt lat="44.00685" lon="7.2365">
        <ele>1666</ele>
        <time>2014-08-30T09:30:16Z</time>
      </trkpt>
      <trkpt lat="44.00653" lon="7.23644">
        <ele>1665</ele>
        <time>2014-08-30T09:30:19Z</time>
      </trkpt>
      <trkpt lat="44.00627" lon="7.23641">
        <ele>1665</ele>
        <time>2014-08-30T09:30:22Z</time>
      </trkpt>
      <trkpt lat="44.00601" lon="7.23637">
        <ele>1665</ele>
        <time>2014-08-30T09:30:25Z</time>
      </trkpt>
      <trkpt lat="44.00572" lon="7.23632">
        <ele>1665</ele>
        <time>2014-08-30T09:30:28Z</time>
      </trkpt>
      <trkpt lat="44.00556" lon="7.23627">
        <ele>1664</ele>
        <time>2014-08-30T09:30:31Z</time>
      </trkpt>
      <trkpt lat="44.00547" lon="7.23606">
        <ele>1663</ele>
        <time>2014-08-30T09:30:34Z</time>
      </trkpt>
      <trkpt lat="44.00536" lon="7.23585">
        <ele>1663</ele>
        <time>2014-08-30T09:30:37Z</time>
      </trkpt>
      <trkpt lat="44.0052" lon="7.2356">
        <ele>1663</ele>
        <time>2014-08-30T09:30:40Z</time>
      </trkpt>
      <trkpt lat="44.00503" lon="7.23541">
        <ele>1663</ele>
        <time>2014-08-30T09:30:43Z</time>
      </trkpt>
      <trkpt lat="44.00487" lon="7.23536">
        <ele>1663</ele>
        <time>2014-08-30T09:30:46Z</time>
      </trkpt>
      <trkpt lat="44.00458" lon="7.23531">
        <ele>1663</ele>
        <time>2014-08-30T09:30:49Z</time>
      </trkpt>
      <trkpt lat="44.00431" lon="7.23528">
        <ele>1663</ele>
        <time>2014-08-30T09:30:52Z</time>
      </trkpt>
      <trkpt lat="44.00404" lon="7.23526">
        <ele>1663</ele>
        <time>2014-08-30T09:30:55Z</time>
      </trkpt>
      <trkpt lat="44.00381" lon="7.23524">
        <ele>1663</ele>
        <time>2014-08-30T09:30:58Z</time>
      </trkpt>
      <trkpt lat="44.00368" lon="7.2352">
        <ele>1663</ele>
        <time>2014-08-30T09:31:01Z</time>
      </trkpt>
      <trkpt lat="44.00349" lon="7.2352">
        <ele>1663</ele>
        <time>2014-08-30T09:31:04Z</time>
      </trkpt>
      <trkpt lat="44.00328" lon="7.23517">
        <ele>1663</ele>
        <time>2014-08-30T09:31:07Z</time>
      </trkpt>
      <trkpt lat="44.00307" lon="7.23515">
        <ele>1663</ele>
        <time>2014-08-30T09:31:10Z</time>
      </trkpt>
      <trkpt lat="44.00284" lon="7.23517">
        <ele>1663</ele>
        <time>2014-08-30T09:31:13Z</time>
      </trkpt>
      <trkpt lat="44.0026" lon="7.2352">
        <ele>1663</ele>
        <time>2014-08-30T09:31:16Z</time>
      </trkpt>
      <trkpt lat="44.00241" lon="7.23523">
        <ele>1664</ele>
        <time>2014-08-30T09:31:19Z</time>
      </trkpt>
      <trkpt lat="44.00225" lon="7.23525">
        <ele>1665</ele>
        <time>2014-08-30T09:31:22Z</time>
      </trkpt>
      <trkpt lat="44.00209" lon="7.23528">
        <ele>1666</ele>
        <time>2014-08-30T09:31:25Z</time>
      </trkpt>
      <trkpt lat="44.00193" lon="7.23533">
        <ele>1667</ele>
        <time>2014-08-30T09:31:28Z</time>
      </trkpt>
      <trkpt lat="44.00181" lon="7.23537">
        <ele>1668</ele>
        <time>2014-08-30T09:31:31Z</time>
      </trkpt>
      <trkpt lat="44.00168" lon="7.23543">
        <ele>1670</ele>
        <time>2014-08-30T09:31:34Z</time>
      </trkpt>
      <trkpt lat="44.00154" lon="7.23551">
        <ele>1670</ele>
        <time>2014-08-30T09:31:37Z</time>
      </trkpt>
      <trkpt lat="44.00141" lon="7.23556">
        <ele>1670</ele>
        <time>2014-08-30T09:31:40Z</time>
      </trkpt>
      <trkpt lat="44.00128" lon="7.23558">
        <ele>1670</ele>
        <time>2014-08-30T09:31:43Z</time>
      </trkpt>
      <trkpt lat="44.0012" lon="7.23561">
        <ele>1671</ele>
        <time>2014-08-30T09:31:46Z</time>
      </trkpt>
      <trkpt lat="44.00108" lon="7.23567">
        <ele>1672</ele>
        <time>2014-08-30T09:31:49Z</time>
      </trkpt>
      <trkpt lat="44.00101" lon="7.23575">
        <ele>1672</ele>
        <time>2014-08-30T09:31:52Z</time>
      </trkpt>
      <trkpt lat="44.00098" lon="7.23584">
        <ele>1673</ele>
        <time>2014-08-30T09:31:55Z</time>
      </trkpt>
      <trkpt lat="44.00095" lon="7.23594">
        <ele>1675</ele>
        <time>2014-08-30T09:31:58Z</time>
      </trkpt>
      <trkpt lat="44.00087" lon="7.23604">
        <ele>1676</ele>
        <time>2014-08-30T09:32:01Z</time>
      </trkpt>
      <trkpt lat="44.00077" lon="7.23611">
        <ele>1677</ele>
        <time>2014-08-30T09:32:04Z</time>
      </trkpt>
      <trkpt lat="44.0007" lon="7.23617">
        <ele>1678</ele>
        <time>2014-08-30T09:32:07Z</time>
      </trkpt>
      <trkpt lat="44.00065" lon="7.23626">
        <ele>1679</ele>
        <time>2014-08-30T09:32:10Z</time>
      </trkpt>
      <trkpt lat="44.00057" lon="7.23639">
        <ele>1679</ele>
        <time>2014-08-30T09:32:13Z</time>
      </trkpt>
      <trkpt lat="44.00046" lon="7.23646">
        <ele>1679</ele>
        <time>2014-08-30T09:32:16Z</time>
      </trkpt>
      <trkpt lat="44.00034" lon="7.23649">
        <ele>1680</ele>
        <time>2014-08-30T09:32:19Z</time>
      </trkpt>
      <trkpt lat="44.00025" lon="7.23648">
        <ele>1681</ele>
        <time>2014-08-30T09:32:22Z</time>
      </trkpt>
      <trkpt lat="44.00016" lon="7.23648">
        <ele>1681</ele>
        <time>2014-08-30T09:32:25Z</time>
      </trkpt>
      <trkpt lat="44.00006" lon="7.23645">
        <ele>1681</ele>
        <time>2014-08-30T09:32:28Z</time>
      </trkpt>
      <trkpt lat="43.99995" lon="7.2364">
        <ele>1682</ele>
        <time>2014-08-30T09:32:31Z</time>
      </trkpt>
      <trkpt lat="43.99985" lon="7.23637">
        <ele>1683</ele>
        <time>2014-08-30T09:32:34Z</time>
      </trkpt>
      <trkpt lat="43.99977" lon="7.23634">
        <ele>1683</ele>
        <time>2014-08-30T09:32:37Z</time>
      </trkpt>
      <trkpt lat="43.99965" lon="7.23634">
        <ele>1684</ele>
        <time>2014-08-30T09:32:40Z</time>
      </trkpt>
      <trkpt lat="43.99953" lon="7.23632">
        <ele>1685</ele>
        <time>2014-08-30T09:32:43Z</time>
      </trkpt>
      <trkpt lat="43.99939" lon="7.23627">
        <ele>1686</ele>
        <time>2014-08-30T09:32:46Z</time>
      </trkpt>
      <trkpt lat="43.99927" lon="7.23626">
        <ele>1687</ele>
        <time>2014-08-30T09:32:49Z</time>
      </trkpt>
      <trkpt lat="43.99922" lon="7.23619">
        <ele>1687</ele>
        <time>2014-08-30T09:32:52Z</time>
      </trkpt>
      <trkpt lat="43.99913" lon="7.23619">
        <ele>1687</ele>
        <time>2014-08-30T09:32:55Z</time>
      </trkpt>
      <trkpt lat="43.99901" lon="7.23622">
        <ele>1687</ele>
        <time>2014-08-30T09:32:58Z</time>
      </trkpt>
      <trkpt lat="43.99886" lon="7.23615">
        <ele>1687</ele>
        <time>2014-08-30T09:33:01Z</time>
      </trkpt>
      <trkpt lat="43.99876" lon="7.23605">
        <ele>1687</ele>
        <time>2014-08-30T09:33:04Z</time>
      </trkpt>
      <trkpt lat="43.99872" lon="7.23601">
        <ele>1687</ele>
        <time>2014-08-30T09:33:07Z</time>
      </trkpt>
      <trkpt lat="43.99867" lon="7.23597">
        <ele>1686</ele>
        <time>2014-08-30T09:33:10Z</time>
      </trkpt>
      <trkpt lat="43.99862" lon="7.23594">
        <ele>1684</ele>
        <time>2014-08-30T09:33:13Z</time>
      </trkpt>
      <trkpt lat="43.99859" lon="7.23581">
        <ele>1682</ele>
        <time>2014-08-30T09:33:16Z</time>
      </trkpt>
      <trkpt lat="43.99854" lon="7.23569">
        <ele>1680</ele>
        <time>2014-08-30T09:33:19Z</time>
      </trkpt>
      <trkpt lat="43.99848" lon="7.23571">
        <ele>1678</ele>
        <time>2014-08-30T09:33:22Z</time>
      </trkpt>
      <trkpt lat="43.9984" lon="7.23566">
        <ele>1676</ele>
        <time>2014-08-30T09:33:25Z</time>
      </trkpt>
      <trkpt lat="43.99819" lon="7.23572">
        <ele>1675</ele>
        <time>2014-08-30T09:33:31Z</time>
      </trkpt>
      <trkpt lat="43.99811" lon="7.23575">
        <ele>1672</ele>
        <time>2014-08-30T09:33:34Z</time>
      </trkpt>
      <trkpt lat="43.99809" lon="7.23567">
        <ele>1669</ele>
        <time>2014-08-30T09:33:37Z</time>
      </trkpt>
      <trkpt lat="43.99812" lon="7.23559">
        <ele>1666</ele>
        <time>2014-08-30T09:33:40Z</time>
      </trkpt>
      <trkpt lat="43.99812" lon="7.23551">
        <ele>1664</ele>
        <time>2014-08-30T09:33:43Z</time>
      </trkpt>
      <trkpt lat="43.99809" lon="7.23552">
        <ele>1662</ele>
        <time>2014-08-30T09:33:46Z</time>
      </trkpt>
      <trkpt lat="43.99801" lon="7.23556">
        <ele>1661</ele>
        <time>2014-08-30T09:33:49Z</time>
      </trkpt>
      <trkpt lat="43.99795" lon="7.23552">
        <ele>1659</ele>
        <time>2014-08-30T09:33:52Z</time>
      </trkpt>
      <trkpt lat="43.99789" lon="7.23545">
        <ele>1657</ele>
        <time>2014-08-30T09:33:55Z</time>
      </trkpt>
      <trkpt lat="43.99781" lon="7.23536">
        <ele>1654</ele>
        <time>2014-08-30T09:33:58Z</time>
      </trkpt>
      <trkpt lat="43.9978" lon="7.23532">
        <ele>1653</ele>
        <time>2014-08-30T09:34:01Z</time>
      </trkpt>
      <trkpt lat="43.99777" lon="7.23529">
        <ele>1651</ele>
        <time>2014-08-30T09:34:04Z</time>
      </trkpt>
      <trkpt lat="43.99774" lon="7.23527">
        <ele>1649</ele>
        <time>2014-08-30T09:34:07Z</time>
      </trkpt>
      <trkpt lat="43.9977" lon="7.23527">
        <ele>1649</ele>
        <time>2014-08-30T09:34:10Z</time>
      </trkpt>
      <trkpt lat="43.99768" lon="7.23523">
        <ele>1647</ele>
        <time>2014-08-30T09:34:13Z</time>
      </trkpt>
      <trkpt lat="43.99765" lon="7.23519">
        <ele>1646</ele>
        <time>2014-08-30T09:34:16Z</time>
      </trkpt>
      <trkpt lat="43.9976" lon="7.23517">
        <ele>1644</ele>
        <time>2014-08-30T09:34:19Z</time>
      </trkpt>
      <trkpt lat="43.99759" lon="7.23513">
        <ele>1642</ele>
        <time>2014-08-30T09:34:22Z</time>
      </trkpt>
      <trkpt lat="43.99756" lon="7.23512">
        <ele>1640</ele>
        <time>2014-08-30T09:34:25Z</time>
      </trkpt>
      <trkpt lat="43.99747" lon="7.23512">
        <ele>1637</ele>
        <time>2014-08-30T09:34:28Z</time>
      </trkpt>
      <trkpt lat="43.99736" lon="7.23508">
        <ele>1636</ele>
        <time>2014-08-30T09:34:31Z</time>
      </trkpt>
      <trkpt lat="43.99731" lon="7.23504">
        <ele>1634</ele>
        <time>2014-08-30T09:34:34Z</time>
      </trkpt>
      <trkpt lat="43.99733" lon="7.23495">
        <ele>1632</ele>
        <time>2014-08-30T09:34:37Z</time>
      </trkpt>
      <trkpt lat="43.99727" lon="7.23489">
        <ele>1630</ele>
        <time>2014-08-30T09:34:40Z</time>
      </trkpt>
      <trkpt lat="43.99714" lon="7.23493">
        <ele>1628</ele>
        <time>2014-08-30T09:34:43Z</time>
      </trkpt>
      <trkpt lat="43.99703" lon="7.23497">
        <ele>1626</ele>
        <time>2014-08-30T09:34:46Z</time>
      </trkpt>
      <trkpt lat="43.99702" lon="7.23492">
        <ele>1625</ele>
        <time>2014-08-30T09:34:49Z</time>
      </trkpt>
      <trkpt lat="43.99701" lon="7.23486">
        <ele>1624</ele>
        <time>2014-08-30T09:34:52Z</time>
      </trkpt>
      <trkpt lat="43.99692" lon="7.23482">
        <ele>1622</ele>
        <time>2014-08-30T09:34:55Z</time>
      </trkpt>
      <trkpt lat="43.99689" lon="7.23477">
        <ele>1621</ele>
        <time>2014-08-30T09:34:58Z</time>
      </trkpt>
      <trkpt lat="43.9969" lon="7.23472">
        <ele>1619</ele>
        <time>2014-08-30T09:35:01Z</time>
      </trkpt>
      <trkpt lat="43.99683" lon="7.23473">
        <ele>1617</ele>
        <time>2014-08-30T09:35:04Z</time>
      </trkpt>
      <trkpt lat="43.99672" lon="7.23478">
        <ele>1616</ele>
        <time>2014-08-30T09:35:07Z</time>
      </trkpt>
      <trkpt lat="43.99663" lon="7.23473">
        <ele>1614</ele>
        <time>2014-08-30T09:35:10Z</time>
      </trkpt>
      <trkpt lat="43.9966" lon="7.23466">
        <ele>1612</ele>
        <time>2014-08-30T09:35:13Z</time>
      </trkpt>
      <trkpt lat="43.99659" lon="7.23462">
        <ele>1610</ele>
        <time>2014-08-30T09:35:16Z</time>
      </trkpt>
      <trkpt lat="43.99653" lon="7.2346">
        <ele>1608</ele>
        <time>2014-08-30T09:35:19Z</time>
      </trkpt>
      <trkpt lat="43.99644" lon="7.23452">
        <ele>1607</ele>
        <time>2014-08-30T09:35:22Z</time>
      </trkpt>
      <trkpt lat="43.99642" lon="7.23448">
        <ele>1605</ele>
        <time>2014-08-30T09:35:25Z</time>
      </trkpt>
      <trkpt lat="43.99644" lon="7.23442">
        <ele>1603</ele>
        <time>2014-08-30T09:35:28Z</time>
      </trkpt>
      <trkpt lat="43.99642" lon="7.23436">
        <ele>1601</ele>
        <time>2014-08-30T09:35:31Z</time>
      </trkpt>
      <trkpt lat="43.99633" lon="7.2344">
        <ele>1599</ele>
        <time>2014-08-30T09:35:34Z</time>
      </trkpt>
      <trkpt lat="43.9962" lon="7.23438">
        <ele>1597</ele>
        <time>2014-08-30T09:35:37Z</time>
      </trkpt>
      <trkpt lat="43.99603" lon="7.23432">
        <ele>1594</ele>
        <time>2014-08-30T09:35:40Z</time>
      </trkpt>
      <trkpt lat="43.99586" lon="7.23438">
        <ele>1590</ele>
        <time>2014-08-30T09:35:43Z</time>
      </trkpt>
      <trkpt lat="43.99573" lon="7.23427">
        <ele>1587</ele>
        <time>2014-08-30T09:35:46Z</time>
      </trkpt>
      <trkpt lat="43.99563" lon="7.23424">
        <ele>1585</ele>
        <time>2014-08-30T09:35:49Z</time>
      </trkpt>
      <trkpt lat="43.99559" lon="7.23418">
        <ele>1584</ele>
        <time>2014-08-30T09:35:52Z</time>
      </trkpt>
      <trkpt lat="43.99569" lon="7.23405">
        <ele>1583</ele>
        <time>2014-08-30T09:35:55Z</time>
      </trkpt>
      <trkpt lat="43.99575" lon="7.234">
        <ele>1582</ele>
        <time>2014-08-30T09:35:58Z</time>
      </trkpt>
      <trkpt lat="43.99573" lon="7.23399">
        <ele>1580</ele>
        <time>2014-08-30T09:36:01Z</time>
      </trkpt>
      <trkpt lat="43.99575" lon="7.23399">
        <ele>1578</ele>
        <time>2014-08-30T09:36:04Z</time>
      </trkpt>
      <trkpt lat="43.99578" lon="7.23392">
        <ele>1576</ele>
        <time>2014-08-30T09:36:07Z</time>
      </trkpt>
      <trkpt lat="43.99568" lon="7.23386">
        <ele>1573</ele>
        <time>2014-08-30T09:36:10Z</time>
      </trkpt>
      <trkpt lat="43.9956" lon="7.23377">
        <ele>1572</ele>
        <time>2014-08-30T09:36:13Z</time>
      </trkpt>
      <trkpt lat="43.99539" lon="7.23365">
        <ele>1570</ele>
        <time>2014-08-30T09:36:16Z</time>
      </trkpt>
      <trkpt lat="43.99527" lon="7.23356">
        <ele>1568</ele>
        <time>2014-08-30T09:36:19Z</time>
      </trkpt>
      <trkpt lat="43.99514" lon="7.23347">
        <ele>1565</ele>
        <time>2014-08-30T09:36:22Z</time>
      </trkpt>
      <trkpt lat="43.99501" lon="7.23336">
        <ele>1562</ele>
        <time>2014-08-30T09:36:25Z</time>
      </trkpt>
      <trkpt lat="43.99492" lon="7.23329">
        <ele>1558</ele>
        <time>2014-08-30T09:36:28Z</time>
      </trkpt>
      <trkpt lat="43.99484" lon="7.23323">
        <ele>1556</ele>
        <time>2014-08-30T09:36:31Z</time>
      </trkpt>
      <trkpt lat="43.99473" lon="7.23319">
        <ele>1553</ele>
        <time>2014-08-30T09:36:34Z</time>
      </trkpt>
      <trkpt lat="43.99466" lon="7.23318">
        <ele>1551</ele>
        <time>2014-08-30T09:36:37Z</time>
      </trkpt>
      <trkpt lat="43.99462" lon="7.23312">
        <ele>1549</ele>
        <time>2014-08-30T09:36:40Z</time>
      </trkpt>
      <trkpt lat="43.99451" lon="7.23307">
        <ele>1547</ele>
        <time>2014-08-30T09:36:43Z</time>
      </trkpt>
      <trkpt lat="43.99441" lon="7.23301">
        <ele>1544</ele>
        <time>2014-08-30T09:36:46Z</time>
      </trkpt>
      <trkpt lat="43.99435" lon="7.23295">
        <ele>1542</ele>
        <time>2014-08-30T09:36:49Z</time>
      </trkpt>
      <trkpt lat="43.99431" lon="7.23286">
        <ele>1539</ele>
        <time>2014-08-30T09:36:52Z</time>
      </trkpt>
      <trkpt lat="43.99423" lon="7.23279">
        <ele>1536</ele>
        <time>2014-08-30T09:36:55Z</time>
      </trkpt>
      <trkpt lat="43.99408" lon="7.23272">
        <ele>1534</ele>
        <time>2014-08-30T09:36:58Z</time>
      </trkpt>
      <trkpt lat="43.99401" lon="7.23256">
        <ele>1532</ele>
        <time>2014-08-30T09:37:01Z</time>
      </trkpt>
      <trkpt lat="43.99398" lon="7.23246">
        <ele>1530</ele>
        <time>2014-08-30T09:37:04Z</time>
      </trkpt>
      <trkpt lat="43.99394" lon="7.23237">
        <ele>1528</ele>
        <time>2014-08-30T09:37:07Z</time>
      </trkpt>
      <trkpt lat="43.9939" lon="7.23231">
        <ele>1526</ele>
        <time>2014-08-30T09:37:10Z</time>
      </trkpt>
      <trkpt lat="43.99384" lon="7.23229">
        <ele>1523</ele>
        <time>2014-08-30T09:37:13Z</time>
      </trkpt>
      <trkpt lat="43.99379" lon="7.23226">
        <ele>1520</ele>
        <time>2014-08-30T09:37:16Z</time>
      </trkpt>
      <trkpt lat="43.99376" lon="7.23224">
        <ele>1518</ele>
        <time>2014-08-30T09:37:19Z</time>
      </trkpt>
      <trkpt lat="43.99372" lon="7.23224">
        <ele>1516</ele>
        <time>2014-08-30T09:37:22Z</time>
      </trkpt>
      <trkpt lat="43.99364" lon="7.2322">
        <ele>1514</ele>
        <time>2014-08-30T09:37:25Z</time>
      </trkpt>
      <trkpt lat="43.99352" lon="7.2322">
        <ele>1511</ele>
        <time>2014-08-30T09:37:28Z</time>
      </trkpt>
      <trkpt lat="43.99344" lon="7.2322">
        <ele>1509</ele>
        <time>2014-08-30T09:37:31Z</time>
      </trkpt>
      <trkpt lat="43.99331" lon="7.23214">
        <ele>1506</ele>
        <time>2014-08-30T09:37:34Z</time>
      </trkpt>
      <trkpt lat="43.99323" lon="7.23211">
        <ele>1503</ele>
        <time>2014-08-30T09:37:37Z</time>
      </trkpt>
      <trkpt lat="43.99324" lon="7.23215">
        <ele>1501</ele>
        <time>2014-08-30T09:37:40Z</time>
      </trkpt>
      <trkpt lat="43.99322" lon="7.23214">
        <ele>1501</ele>
        <time>2014-08-30T09:37:43Z</time>
      </trkpt>
      <trkpt lat="43.99321" lon="7.23211">
        <ele>1501</ele>
        <time>2014-08-30T09:37:46Z</time>
      </trkpt>
      <trkpt lat="43.99322" lon="7.2321">
        <ele>1501</ele>
        <time>2014-08-30T09:37:49Z</time>
      </trkpt>
      <trkpt lat="43.99323" lon="7.23212">
        <ele>1501</ele>
        <time>2014-08-30T09:37:52Z</time>
      </trkpt>
      <trkpt lat="43.99322" lon="7.23213">
        <ele>1499</ele>
        <time>2014-08-30T09:37:58Z</time>
      </trkpt>
      <trkpt lat="43.99319" lon="7.23214">
        <ele>1499</ele>
        <time>2014-08-30T09:38:01Z</time>
      </trkpt>
      <trkpt lat="43.99312" lon="7.23212">
        <ele>1498</ele>
        <time>2014-08-30T09:38:04Z</time>
      </trkpt>
      <trkpt lat="43.99304" lon="7.23214">
        <ele>1497</ele>
        <time>2014-08-30T09:38:07Z</time>
      </trkpt>
      <trkpt lat="43.99295" lon="7.23219">
        <ele>1497</ele>
        <time>2014-08-30T09:38:10Z</time>
      </trkpt>
      <trkpt lat="43.99291" lon="7.2322">
        <ele>1495</ele>
        <time>2014-08-30T09:38:13Z</time>
      </trkpt>
      <trkpt lat="43.99286" lon="7.23221">
        <ele>1495</ele>
        <time>2014-08-30T09:38:16Z</time>
      </trkpt>
      <trkpt lat="43.9928" lon="7.23223">
        <ele>1495</ele>
        <time>2014-08-30T09:38:19Z</time>
      </trkpt>
      <trkpt lat="43.99282" lon="7.23216">
        <ele>1495</ele>
        <time>2014-08-30T09:38:22Z</time>
      </trkpt>
      <trkpt lat="43.99279" lon="7.23205">
        <ele>1496</ele>
        <time>2014-08-30T09:38:25Z</time>
      </trkpt>
      <trkpt lat="43.99278" lon="7.23204">
        <ele>1497</ele>
        <time>2014-08-30T09:38:28Z</time>
      </trkpt>
      <trkpt lat="43.99277" lon="7.23204">
        <ele>1497</ele>
        <time>2014-08-30T09:38:31Z</time>
      </trkpt>
      <trkpt lat="43.99275" lon="7.23202">
        <ele>1498</ele>
        <time>2014-08-30T09:38:34Z</time>
      </trkpt>
      <trkpt lat="43.99273" lon="7.23196">
        <ele>1499</ele>
        <time>2014-08-30T09:38:37Z</time>
      </trkpt>
      <trkpt lat="43.99266" lon="7.23189">
        <ele>1500</ele>
        <time>2014-08-30T09:38:40Z</time>
      </trkpt>
      <trkpt lat="43.99259" lon="7.2318">
        <ele>1500</ele>
        <time>2014-08-30T09:38:43Z</time>
      </trkpt>
      <trkpt lat="43.99248" lon="7.23176">
        <ele>1500</ele>
        <time>2014-08-30T09:38:46Z</time>
      </trkpt>
      <trkpt lat="43.99238" lon="7.23175">
        <ele>1500</ele>
        <time>2014-08-30T09:38:49Z</time>
      </trkpt>
      <trkpt lat="43.99237" lon="7.23179">
        <ele>1500</ele>
        <time>2014-08-30T09:38:52Z</time>
      </trkpt>
      <trkpt lat="43.99237" lon="7.23182">
        <ele>1500</ele>
        <time>2014-08-30T09:38:55Z</time>
      </trkpt>
      <trkpt lat="43.99234" lon="7.23183">
        <ele>1500</ele>
        <time>2014-08-30T09:38:58Z</time>
      </trkpt>
      <trkpt lat="43.99227" lon="7.23186">
        <ele>1500</ele>
        <time>2014-08-30T09:39:01Z</time>
      </trkpt>
      <trkpt lat="43.99221" lon="7.23186">
        <ele>1500</ele>
        <time>2014-08-30T09:39:04Z</time>
      </trkpt>
      <trkpt lat="43.99216" lon="7.2318">
        <ele>1499</ele>
        <time>2014-08-30T09:39:07Z</time>
      </trkpt>
      <trkpt lat="43.99214" lon="7.23179">
        <ele>1497</ele>
        <time>2014-08-30T09:39:10Z</time>
      </trkpt>
      <trkpt lat="43.99208" lon="7.23182">
        <ele>1495</ele>
        <time>2014-08-30T09:39:13Z</time>
      </trkpt>
      <trkpt lat="43.99196" lon="7.23186">
        <ele>1494</ele>
        <time>2014-08-30T09:39:16Z</time>
      </trkpt>
      <trkpt lat="43.99186" lon="7.23185">
        <ele>1492</ele>
        <time>2014-08-30T09:39:19Z</time>
      </trkpt>
      <trkpt lat="43.99173" lon="7.23187">
        <ele>1489</ele>
        <time>2014-08-30T09:39:22Z</time>
      </trkpt>
      <trkpt lat="43.99159" lon="7.2319">
        <ele>1487</ele>
        <time>2014-08-30T09:39:25Z</time>
      </trkpt>
      <trkpt lat="43.99155" lon="7.23193">
        <ele>1485</ele>
        <time>2014-08-30T09:39:28Z</time>
      </trkpt>
      <trkpt lat="43.99143" lon="7.232">
        <ele>1483</ele>
        <time>2014-08-30T09:39:31Z</time>
      </trkpt>
      <trkpt lat="43.99129" lon="7.23209">
        <ele>1483</ele>
        <time>2014-08-30T09:39:34Z</time>
      </trkpt>
      <trkpt lat="43.99116" lon="7.23216">
        <ele>1482</ele>
        <time>2014-08-30T09:39:37Z</time>
      </trkpt>
      <trkpt lat="43.99097" lon="7.2322">
        <ele>1481</ele>
        <time>2014-08-30T09:39:40Z</time>
      </trkpt>
      <trkpt lat="43.99092" lon="7.23209">
        <ele>1481</ele>
        <time>2014-08-30T09:39:43Z</time>
      </trkpt>
      <trkpt lat="43.99084" lon="7.23198">
        <ele>1481</ele>
        <time>2014-08-30T09:39:46Z</time>
      </trkpt>
      <trkpt lat="43.99069" lon="7.23192">
        <ele>1480</ele>
        <time>2014-08-30T09:39:49Z</time>
      </trkpt>
      <trkpt lat="43.99072" lon="7.23183">
        <ele>1478</ele>
        <time>2014-08-30T09:39:52Z</time>
      </trkpt>
      <trkpt lat="43.99067" lon="7.23177">
        <ele>1476</ele>
        <time>2014-08-30T09:39:55Z</time>
      </trkpt>
      <trkpt lat="43.99051" lon="7.2319">
        <ele>1474</ele>
        <time>2014-08-30T09:39:58Z</time>
      </trkpt>
      <trkpt lat="43.99043" lon="7.23189">
        <ele>1473</ele>
        <time>2014-08-30T09:40:01Z</time>
      </trkpt>
      <trkpt lat="43.99041" lon="7.23185">
        <ele>1471</ele>
        <time>2014-08-30T09:40:04Z</time>
      </trkpt>
      <trkpt lat="43.99038" lon="7.2318">
        <ele>1469</ele>
        <time>2014-08-30T09:40:07Z</time>
      </trkpt>
      <trkpt lat="43.99033" lon="7.23174">
        <ele>1467</ele>
        <time>2014-08-30T09:40:10Z</time>
      </trkpt>
      <trkpt lat="43.99031" lon="7.23167">
        <ele>1465</ele>
        <time>2014-08-30T09:40:13Z</time>
      </trkpt>
      <trkpt lat="43.99037" lon="7.2316">
        <ele>1462</ele>
        <time>2014-08-30T09:40:16Z</time>
      </trkpt>
      <trkpt lat="43.99035" lon="7.2316">
        <ele>1460</ele>
        <time>2014-08-30T09:40:19Z</time>
      </trkpt>
      <trkpt lat="43.99026" lon="7.23158">
        <ele>1459</ele>
        <time>2014-08-30T09:40:22Z</time>
      </trkpt>
      <trkpt lat="43.99014" lon="7.23146">
        <ele>1456</ele>
        <time>2014-08-30T09:40:25Z</time>
      </trkpt>
      <trkpt lat="43.99002" lon="7.23142">
        <ele>1453</ele>
        <time>2014-08-30T09:40:28Z</time>
      </trkpt>
      <trkpt lat="43.98989" lon="7.23141">
        <ele>1450</ele>
        <time>2014-08-30T09:40:31Z</time>
      </trkpt>
      <trkpt lat="43.98983" lon="7.23147">
        <ele>1448</ele>
        <time>2014-08-30T09:40:34Z</time>
      </trkpt>
      <trkpt lat="43.9898" lon="7.23153">
        <ele>1447</ele>
        <time>2014-08-30T09:40:37Z</time>
      </trkpt>
      <trkpt lat="43.98974" lon="7.23149">
        <ele>1445</ele>
        <time>2014-08-30T09:40:40Z</time>
      </trkpt>
      <trkpt lat="43.98968" lon="7.23146">
        <ele>1444</ele>
        <time>2014-08-30T09:40:43Z</time>
      </trkpt>
      <trkpt lat="43.98963" lon="7.23145">
        <ele>1443</ele>
        <time>2014-08-30T09:40:46Z</time>
      </trkpt>
      <trkpt lat="43.98959" lon="7.23145">
        <ele>1442</ele>
        <time>2014-08-30T09:40:49Z</time>
      </trkpt>
      <trkpt lat="43.98956" lon="7.23148">
        <ele>1440</ele>
        <time>2014-08-30T09:40:52Z</time>
      </trkpt>
      <trkpt lat="43.98953" lon="7.2315">
        <ele>1440</ele>
        <time>2014-08-30T09:40:55Z</time>
      </trkpt>
      <trkpt lat="43.98944" lon="7.23153">
        <ele>1438</ele>
        <time>2014-08-30T09:40:58Z</time>
      </trkpt>
      <trkpt lat="43.98935" lon="7.23163">
        <ele>1436</ele>
        <time>2014-08-30T09:41:01Z</time>
      </trkpt>
      <trkpt lat="43.98922" lon="7.2317">
        <ele>1435</ele>
        <time>2014-08-30T09:41:04Z</time>
      </trkpt>
      <trkpt lat="43.98906" lon="7.23167">
        <ele>1433</ele>
        <time>2014-08-30T09:41:07Z</time>
      </trkpt>
      <trkpt lat="43.98899" lon="7.23161">
        <ele>1432</ele>
        <time>2014-08-30T09:41:10Z</time>
      </trkpt>
      <trkpt lat="43.98887" lon="7.2316">
        <ele>1431</ele>
        <time>2014-08-30T09:41:13Z</time>
      </trkpt>
      <trkpt lat="43.98878" lon="7.23164">
        <ele>1430</ele>
        <time>2014-08-30T09:41:16Z</time>
      </trkpt>
      <trkpt lat="43.98867" lon="7.23167">
        <ele>1429</ele>
        <time>2014-08-30T09:41:19Z</time>
      </trkpt>
      <trkpt lat="43.9886" lon="7.23167">
        <ele>1428</ele>
        <time>2014-08-30T09:41:22Z</time>
      </trkpt>
      <trkpt lat="43.98854" lon="7.23163">
        <ele>1426</ele>
        <time>2014-08-30T09:41:25Z</time>
      </trkpt>
      <trkpt lat="43.98854" lon="7.23161">
        <ele>1425</ele>
        <time>2014-08-30T09:41:28Z</time>
      </trkpt>
      <trkpt lat="43.98856" lon="7.23159">
        <ele>1425</ele>
        <time>2014-08-30T09:41:31Z</time>
      </trkpt>
      <trkpt lat="43.98856" lon="7.23155">
        <ele>1423</ele>
        <time>2014-08-30T09:41:34Z</time>
      </trkpt>
      <trkpt lat="43.98851" lon="7.23154">
        <ele>1422</ele>
        <time>2014-08-30T09:41:37Z</time>
      </trkpt>
      <trkpt lat="43.98843" lon="7.23159">
        <ele>1420</ele>
        <time>2014-08-30T09:41:40Z</time>
      </trkpt>
      <trkpt lat="43.98836" lon="7.23163">
        <ele>1419</ele>
        <time>2014-08-30T09:41:43Z</time>
      </trkpt>
      <trkpt lat="43.98831" lon="7.23164">
        <ele>1418</ele>
        <time>2014-08-30T09:41:46Z</time>
      </trkpt>
      <trkpt lat="43.98829" lon="7.23162">
        <ele>1416</ele>
        <time>2014-08-30T09:41:49Z</time>
      </trkpt>
      <trkpt lat="43.98829" lon="7.23157">
        <ele>1414</ele>
        <time>2014-08-30T09:41:52Z</time>
      </trkpt>
      <trkpt lat="43.98824" lon="7.23156">
        <ele>1413</ele>
        <time>2014-08-30T09:41:55Z</time>
      </trkpt>
      <trkpt lat="43.98816" lon="7.23155">
        <ele>1412</ele>
        <time>2014-08-30T09:41:58Z</time>
      </trkpt>
      <trkpt lat="43.98809" lon="7.23157">
        <ele>1410</ele>
        <time>2014-08-30T09:42:01Z</time>
      </trkpt>
      <trkpt lat="43.98808" lon="7.23157">
        <ele>1409</ele>
        <time>2014-08-30T09:42:04Z</time>
      </trkpt>
      <trkpt lat="43.9881" lon="7.23154">
        <ele>1409</ele>
        <time>2014-08-30T09:42:07Z</time>
      </trkpt>
      <trkpt lat="43.9881" lon="7.23151">
        <ele>1407</ele>
        <time>2014-08-30T09:42:10Z</time>
      </trkpt>
      <trkpt lat="43.98808" lon="7.2315">
        <ele>1406</ele>
        <time>2014-08-30T09:42:13Z</time>
      </trkpt>
      <trkpt lat="43.98805" lon="7.2315">
        <ele>1405</ele>
        <time>2014-08-30T09:42:16Z</time>
      </trkpt>
      <trkpt lat="43.98801" lon="7.23152">
        <ele>1404</ele>
        <time>2014-08-30T09:42:19Z</time>
      </trkpt>
      <trkpt lat="43.988" lon="7.2315">
        <ele>1404</ele>
        <time>2014-08-30T09:42:22Z</time>
      </trkpt>
      <trkpt lat="43.98799" lon="7.23146">
        <ele>1403</ele>
        <time>2014-08-30T09:42:25Z</time>
      </trkpt>
      <trkpt lat="43.98798" lon="7.23145">
        <ele>1402</ele>
        <time>2014-08-30T09:42:28Z</time>
      </trkpt>
      <trkpt lat="43.98797" lon="7.23144">
        <ele>1402</ele>
        <time>2014-08-30T09:42:31Z</time>
      </trkpt>
      <trkpt lat="43.98795" lon="7.23142">
        <ele>1400</ele>
        <time>2014-08-30T09:42:37Z</time>
      </trkpt>
      <trkpt lat="43.98791" lon="7.23141">
        <ele>1399</ele>
        <time>2014-08-30T09:42:40Z</time>
      </trkpt>
      <trkpt lat="43.98788" lon="7.23142">
        <ele>1398</ele>
        <time>2014-08-30T09:42:43Z</time>
      </trkpt>
      <trkpt lat="43.98787" lon="7.23143">
        <ele>1398</ele>
        <time>2014-08-30T09:42:46Z</time>
      </trkpt>
      <trkpt lat="43.98781" lon="7.23143">
        <ele>1396</ele>
        <time>2014-08-30T09:42:49Z</time>
      </trkpt>
      <trkpt lat="43.98775" lon="7.23143">
        <ele>1394</ele>
        <time>2014-08-30T09:42:52Z</time>
      </trkpt>
      <trkpt lat="43.98771" lon="7.23143">
        <ele>1393</ele>
        <time>2014-08-30T09:42:55Z</time>
      </trkpt>
      <trkpt lat="43.98764" lon="7.23147">
        <ele>1392</ele>
        <time>2014-08-30T09:42:58Z</time>
      </trkpt>
      <trkpt lat="43.98754" lon="7.23151">
        <ele>1389</ele>
        <time>2014-08-30T09:43:01Z</time>
      </trkpt>
      <trkpt lat="43.98743" lon="7.2316">
        <ele>1387</ele>
        <time>2014-08-30T09:43:04Z</time>
      </trkpt>
      <trkpt lat="43.98733" lon="7.23165">
        <ele>1386</ele>
        <time>2014-08-30T09:43:07Z</time>
      </trkpt>
      <trkpt lat="43.98728" lon="7.23168">
        <ele>1386</ele>
        <time>2014-08-30T09:43:10Z</time>
      </trkpt>
      <trkpt lat="43.98722" lon="7.23171">
        <ele>1384</ele>
        <time>2014-08-30T09:43:13Z</time>
      </trkpt>
      <trkpt lat="43.98716" lon="7.2318">
        <ele>1382</ele>
        <time>2014-08-30T09:43:16Z</time>
      </trkpt>
      <trkpt lat="43.98713" lon="7.2319">
        <ele>1380</ele>
        <time>2014-08-30T09:43:19Z</time>
      </trkpt>
      <trkpt lat="43.98706" lon="7.23193">
        <ele>1378</ele>
        <time>2014-08-30T09:43:22Z</time>
      </trkpt>
      <trkpt lat="43.98694" lon="7.23197">
        <ele>1376</ele>
        <time>2014-08-30T09:43:25Z</time>
      </trkpt>
      <trkpt lat="43.98682" lon="7.23206">
        <ele>1375</ele>
        <time>2014-08-30T09:43:28Z</time>
      </trkpt>
      <trkpt lat="43.98672" lon="7.23212">
        <ele>1375</ele>
        <time>2014-08-30T09:43:31Z</time>
      </trkpt>
      <trkpt lat="43.98665" lon="7.23217">
        <ele>1374</ele>
        <time>2014-08-30T09:43:34Z</time>
      </trkpt>
      <trkpt lat="43.98654" lon="7.23219">
        <ele>1373</ele>
        <time>2014-08-30T09:43:37Z</time>
      </trkpt>
      <trkpt lat="43.98641" lon="7.23224">
        <ele>1373</ele>
        <time>2014-08-30T09:43:40Z</time>
      </trkpt>
      <trkpt lat="43.98623" lon="7.23233">
        <ele>1373</ele>
        <time>2014-08-30T09:43:43Z</time>
      </trkpt>
      <trkpt lat="43.98608" lon="7.2324">
        <ele>1371</ele>
        <time>2014-08-30T09:43:46Z</time>
      </trkpt>
      <trkpt lat="43.98603" lon="7.23242">
        <ele>1371</ele>
        <time>2014-08-30T09:43:49Z</time>
      </trkpt>
      <trkpt lat="43.98595" lon="7.23246">
        <ele>1369</ele>
        <time>2014-08-30T09:43:55Z</time>
      </trkpt>
      <trkpt lat="43.98573" lon="7.23262">
        <ele>1368</ele>
        <time>2014-08-30T09:43:58Z</time>
      </trkpt>
      <trkpt lat="43.98561" lon="7.23269">
        <ele>1368</ele>
        <time>2014-08-30T09:44:01Z</time>
      </trkpt>
      <trkpt lat="43.98556" lon="7.23273">
        <ele>1368</ele>
        <time>2014-08-30T09:44:04Z</time>
      </trkpt>
      <trkpt lat="43.98549" lon="7.23284">
        <ele>1368</ele>
        <time>2014-08-30T09:44:07Z</time>
      </trkpt>
      <trkpt lat="43.98543" lon="7.23296">
        <ele>1368</ele>
        <time>2014-08-30T09:44:10Z</time>
      </trkpt>
      <trkpt lat="43.98534" lon="7.23307">
        <ele>1368</ele>
        <time>2014-08-30T09:44:13Z</time>
      </trkpt>
      <trkpt lat="43.98522" lon="7.23316">
        <ele>1368</ele>
        <time>2014-08-30T09:44:16Z</time>
      </trkpt>
      <trkpt lat="43.98507" lon="7.23325">
        <ele>1368</ele>
        <time>2014-08-30T09:44:19Z</time>
      </trkpt>
      <trkpt lat="43.98492" lon="7.23333">
        <ele>1368</ele>
        <time>2014-08-30T09:44:22Z</time>
      </trkpt>
      <trkpt lat="43.98484" lon="7.23342">
        <ele>1368</ele>
        <time>2014-08-30T09:44:25Z</time>
      </trkpt>
      <trkpt lat="43.98479" lon="7.23351">
        <ele>1370</ele>
        <time>2014-08-30T09:44:28Z</time>
      </trkpt>
      <trkpt lat="43.98475" lon="7.23357">
        <ele>1371</ele>
        <time>2014-08-30T09:44:31Z</time>
      </trkpt>
      <trkpt lat="43.9847" lon="7.23364">
        <ele>1372</ele>
        <time>2014-08-30T09:44:34Z</time>
      </trkpt>
      <trkpt lat="43.98466" lon="7.23369">
        <ele>1373</ele>
        <time>2014-08-30T09:44:37Z</time>
      </trkpt>
      <trkpt lat="43.98463" lon="7.23371">
        <ele>1374</ele>
        <time>2014-08-30T09:44:40Z</time>
      </trkpt>
      <trkpt lat="43.98462" lon="7.2337">
        <ele>1375</ele>
        <time>2014-08-30T09:44:43Z</time>
      </trkpt>
      <trkpt lat="43.98461" lon="7.2337">
        <ele>1375</ele>
        <time>2014-08-30T09:44:46Z</time>
      </trkpt>
      <trkpt lat="43.98458" lon="7.23371">
        <ele>1377</ele>
        <time>2014-08-30T09:44:49Z</time>
      </trkpt>
      <trkpt lat="43.98455" lon="7.23377">
        <ele>1378</ele>
        <time>2014-08-30T09:44:52Z</time>
      </trkpt>
      <trkpt lat="43.98453" lon="7.23385">
        <ele>1379</ele>
        <time>2014-08-30T09:44:55Z</time>
      </trkpt>
      <trkpt lat="43.9845" lon="7.23388">
        <ele>1380</ele>
        <time>2014-08-30T09:44:58Z</time>
      </trkpt>
      <trkpt lat="43.98448" lon="7.23389">
        <ele>1380</ele>
        <time>2014-08-30T09:45:01Z</time>
      </trkpt>
      <trkpt lat="43.98445" lon="7.23395">
        <ele>1381</ele>
        <time>2014-08-30T09:45:04Z</time>
      </trkpt>
      <trkpt lat="43.9844" lon="7.23407">
        <ele>1382</ele>
        <time>2014-08-30T09:45:07Z</time>
      </trkpt>
      <trkpt lat="43.98434" lon="7.23414">
        <ele>1382</ele>
        <time>2014-08-30T09:45:10Z</time>
      </trkpt>
      <trkpt lat="43.98433" lon="7.23424">
        <ele>1383</ele>
        <time>2014-08-30T09:45:13Z</time>
      </trkpt>
      <trkpt lat="43.98433" lon="7.23432">
        <ele>1384</ele>
        <time>2014-08-30T09:45:16Z</time>
      </trkpt>
      <trkpt lat="43.98429" lon="7.23436">
        <ele>1384</ele>
        <time>2014-08-30T09:45:19Z</time>
      </trkpt>
      <trkpt lat="43.98424" lon="7.23444">
        <ele>1384</ele>
        <time>2014-08-30T09:45:22Z</time>
      </trkpt>
      <trkpt lat="43.98415" lon="7.2345">
        <ele>1384</ele>
        <time>2014-08-30T09:45:25Z</time>
      </trkpt>
      <trkpt lat="43.98403" lon="7.23455">
        <ele>1384</ele>
        <time>2014-08-30T09:45:28Z</time>
      </trkpt>
      <trkpt lat="43.9839" lon="7.23464">
        <ele>1384</ele>
        <time>2014-08-30T09:45:31Z</time>
      </trkpt>
      <trkpt lat="43.98378" lon="7.23471">
        <ele>1384</ele>
        <time>2014-08-30T09:45:34Z</time>
      </trkpt>
      <trkpt lat="43.98365" lon="7.23479">
        <ele>1384</ele>
        <time>2014-08-30T09:45:37Z</time>
      </trkpt>
      <trkpt lat="43.98354" lon="7.23486">
        <ele>1384</ele>
        <time>2014-08-30T09:45:40Z</time>
      </trkpt>
      <trkpt lat="43.98342" lon="7.23494">
        <ele>1384</ele>
        <time>2014-08-30T09:45:43Z</time>
      </trkpt>
      <trkpt lat="43.9833" lon="7.23504">
        <ele>1385</ele>
        <time>2014-08-30T09:45:46Z</time>
      </trkpt>
      <trkpt lat="43.98313" lon="7.23516">
        <ele>1386</ele>
        <time>2014-08-30T09:45:49Z</time>
      </trkpt>
      <trkpt lat="43.98298" lon="7.23523">
        <ele>1386</ele>
        <time>2014-08-30T09:45:52Z</time>
      </trkpt>
      <trkpt lat="43.98284" lon="7.23531">
        <ele>1386</ele>
        <time>2014-08-30T09:45:55Z</time>
      </trkpt>
      <trkpt lat="43.98273" lon="7.23536">
        <ele>1386</ele>
        <time>2014-08-30T09:45:58Z</time>
      </trkpt>
      <trkpt lat="43.98264" lon="7.23542">
        <ele>1386</ele>
        <time>2014-08-30T09:46:01Z</time>
      </trkpt>
      <trkpt lat="43.98254" lon="7.23551">
        <ele>1386</ele>
        <time>2014-08-30T09:46:04Z</time>
      </trkpt>
      <trkpt lat="43.98237" lon="7.23557">
        <ele>1386</ele>
        <time>2014-08-30T09:46:07Z</time>
      </trkpt>
      <trkpt lat="43.98224" lon="7.23565">
        <ele>1386</ele>
        <time>2014-08-30T09:46:10Z</time>
      </trkpt>
      <trkpt lat="43.98217" lon="7.2357">
        <ele>1386</ele>
        <time>2014-08-30T09:46:13Z</time>
      </trkpt>
      <trkpt lat="43.98211" lon="7.23578">
        <ele>1386</ele>
        <time>2014-08-30T09:46:16Z</time>
      </trkpt>
      <trkpt lat="43.98201" lon="7.23587">
        <ele>1387</ele>
        <time>2014-08-30T09:46:19Z</time>
      </trkpt>
      <trkpt lat="43.98194" lon="7.2359">
        <ele>1389</ele>
        <time>2014-08-30T09:46:22Z</time>
      </trkpt>
      <trkpt lat="43.98188" lon="7.23586">
        <ele>1389</ele>
        <time>2014-08-30T09:46:25Z</time>
      </trkpt>
      <trkpt lat="43.98183" lon="7.23578">
        <ele>1391</ele>
        <time>2014-08-30T09:46:28Z</time>
      </trkpt>
      <trkpt lat="43.98178" lon="7.23567">
        <ele>1391</ele>
        <time>2014-08-30T09:46:31Z</time>
      </trkpt>
      <trkpt lat="43.98171" lon="7.23561">
        <ele>1391</ele>
        <time>2014-08-30T09:46:34Z</time>
      </trkpt>
      <trkpt lat="43.98159" lon="7.23562">
        <ele>1391</ele>
        <time>2014-08-30T09:46:37Z</time>
      </trkpt>
      <trkpt lat="43.98153" lon="7.23559">
        <ele>1391</ele>
        <time>2014-08-30T09:46:40Z</time>
      </trkpt>
      <trkpt lat="43.98148" lon="7.23555">
        <ele>1391</ele>
        <time>2014-08-30T09:46:43Z</time>
      </trkpt>
      <trkpt lat="43.98146" lon="7.2355">
        <ele>1392</ele>
        <time>2014-08-30T09:46:46Z</time>
      </trkpt>
      <trkpt lat="43.98133" lon="7.23546">
        <ele>1393</ele>
        <time>2014-08-30T09:46:49Z</time>
      </trkpt>
      <trkpt lat="43.98122" lon="7.23539">
        <ele>1393</ele>
        <time>2014-08-30T09:46:52Z</time>
      </trkpt>
      <trkpt lat="43.98113" lon="7.23528">
        <ele>1393</ele>
        <time>2014-08-30T09:46:55Z</time>
      </trkpt>
      <trkpt lat="43.98095" lon="7.23514">
        <ele>1393</ele>
        <time>2014-08-30T09:46:58Z</time>
      </trkpt>
      <trkpt lat="43.98088" lon="7.23503">
        <ele>1393</ele>
        <time>2014-08-30T09:47:01Z</time>
      </trkpt>
      <trkpt lat="43.9808" lon="7.23496">
        <ele>1393</ele>
        <time>2014-08-30T09:47:04Z</time>
      </trkpt>
      <trkpt lat="43.98075" lon="7.23487">
        <ele>1393</ele>
        <time>2014-08-30T09:47:07Z</time>
      </trkpt>
      <trkpt lat="43.98064" lon="7.23481">
        <ele>1393</ele>
        <time>2014-08-30T09:47:10Z</time>
      </trkpt>
      <trkpt lat="43.98056" lon="7.23472">
        <ele>1393</ele>
        <time>2014-08-30T09:47:13Z</time>
      </trkpt>
      <trkpt lat="43.98047" lon="7.23462">
        <ele>1395</ele>
        <time>2014-08-30T09:47:16Z</time>
      </trkpt>
      <trkpt lat="43.98042" lon="7.23455">
        <ele>1395</ele>
        <time>2014-08-30T09:47:19Z</time>
      </trkpt>
      <trkpt lat="43.98036" lon="7.23449">
        <ele>1396</ele>
        <time>2014-08-30T09:47:22Z</time>
      </trkpt>
      <trkpt lat="43.98024" lon="7.23446">
        <ele>1397</ele>
        <time>2014-08-30T09:47:25Z</time>
      </trkpt>
      <trkpt lat="43.98024" lon="7.23439">
        <ele>1397</ele>
        <time>2014-08-30T09:47:28Z</time>
      </trkpt>
      <trkpt lat="43.98016" lon="7.23432">
        <ele>1397</ele>
        <time>2014-08-30T09:47:31Z</time>
      </trkpt>
      <trkpt lat="43.98002" lon="7.23427">
        <ele>1398</ele>
        <time>2014-08-30T09:47:34Z</time>
      </trkpt>
      <trkpt lat="43.97987" lon="7.23424">
        <ele>1399</ele>
        <time>2014-08-30T09:47:37Z</time>
      </trkpt>
      <trkpt lat="43.97976" lon="7.23422">
        <ele>1399</ele>
        <time>2014-08-30T09:47:40Z</time>
      </trkpt>
      <trkpt lat="43.97962" lon="7.2342">
        <ele>1399</ele>
        <time>2014-08-30T09:47:43Z</time>
      </trkpt>
      <trkpt lat="43.97949" lon="7.23419">
        <ele>1399</ele>
        <time>2014-08-30T09:47:46Z</time>
      </trkpt>
      <trkpt lat="43.97937" lon="7.23419">
        <ele>1399</ele>
        <time>2014-08-30T09:47:49Z</time>
      </trkpt>
      <trkpt lat="43.97925" lon="7.23417">
        <ele>1399</ele>
        <time>2014-08-30T09:47:52Z</time>
      </trkpt>
      <trkpt lat="43.97913" lon="7.23416">
        <ele>1401</ele>
        <time>2014-08-30T09:47:55Z</time>
      </trkpt>
      <trkpt lat="43.97902" lon="7.23415">
        <ele>1402</ele>
        <time>2014-08-30T09:47:58Z</time>
      </trkpt>
      <trkpt lat="43.97887" lon="7.23417">
        <ele>1402</ele>
        <time>2014-08-30T09:48:01Z</time>
      </trkpt>
      <trkpt lat="43.9788" lon="7.2342">
        <ele>1402</ele>
        <time>2014-08-30T09:48:04Z</time>
      </trkpt>
      <trkpt lat="43.97872" lon="7.23424">
        <ele>1403</ele>
        <time>2014-08-30T09:48:07Z</time>
      </trkpt>
      <trkpt lat="43.9786" lon="7.23428">
        <ele>1404</ele>
        <time>2014-08-30T09:48:10Z</time>
      </trkpt>
      <trkpt lat="43.97849" lon="7.23431">
        <ele>1405</ele>
        <time>2014-08-30T09:48:13Z</time>
      </trkpt>
      <trkpt lat="43.97838" lon="7.23438">
        <ele>1406</ele>
        <time>2014-08-30T09:48:16Z</time>
      </trkpt>
      <trkpt lat="43.97828" lon="7.23445">
        <ele>1406</ele>
        <time>2014-08-30T09:48:19Z</time>
      </trkpt>
      <trkpt lat="43.97814" lon="7.23452">
        <ele>1406</ele>
        <time>2014-08-30T09:48:22Z</time>
      </trkpt>
      <trkpt lat="43.97802" lon="7.23458">
        <ele>1406</ele>
        <time>2014-08-30T09:48:25Z</time>
      </trkpt>
      <trkpt lat="43.97787" lon="7.23465">
        <ele>1406</ele>
        <time>2014-08-30T09:48:28Z</time>
      </trkpt>
      <trkpt lat="43.97772" lon="7.23473">
        <ele>1406</ele>
        <time>2014-08-30T09:48:31Z</time>
      </trkpt>
      <trkpt lat="43.97758" lon="7.23475">
        <ele>1406</ele>
        <time>2014-08-30T09:48:34Z</time>
      </trkpt>
      <trkpt lat="43.9775" lon="7.23478">
        <ele>1406</ele>
        <time>2014-08-30T09:48:37Z</time>
      </trkpt>
      <trkpt lat="43.97742" lon="7.23484">
        <ele>1406</ele>
        <time>2014-08-30T09:48:40Z</time>
      </trkpt>
      <trkpt lat="43.97738" lon="7.23494">
        <ele>1406</ele>
        <time>2014-08-30T09:48:43Z</time>
      </trkpt>
      <trkpt lat="43.97734" lon="7.23504">
        <ele>1407</ele>
        <time>2014-08-30T09:48:46Z</time>
      </trkpt>
      <trkpt lat="43.97733" lon="7.23509">
        <ele>1408</ele>
        <time>2014-08-30T09:48:49Z</time>
      </trkpt>
      <trkpt lat="43.97733" lon="7.23513">
        <ele>1408</ele>
        <time>2014-08-30T09:48:52Z</time>
      </trkpt>
      <trkpt lat="43.97729" lon="7.23525">
        <ele>1409</ele>
        <time>2014-08-30T09:48:55Z</time>
      </trkpt>
      <trkpt lat="43.97726" lon="7.23534">
        <ele>1410</ele>
        <time>2014-08-30T09:48:58Z</time>
      </trkpt>
      <trkpt lat="43.97726" lon="7.23541">
        <ele>1411</ele>
        <time>2014-08-30T09:49:01Z</time>
      </trkpt>
      <trkpt lat="43.97724" lon="7.23546">
        <ele>1412</ele>
        <time>2014-08-30T09:49:04Z</time>
      </trkpt>
      <trkpt lat="43.97721" lon="7.23552">
        <ele>1413</ele>
        <time>2014-08-30T09:49:07Z</time>
      </trkpt>
      <trkpt lat="43.97716" lon="7.23556">
        <ele>1414</ele>
        <time>2014-08-30T09:49:10Z</time>
      </trkpt>
      <trkpt lat="43.97713" lon="7.23564">
        <ele>1415</ele>
        <time>2014-08-30T09:49:13Z</time>
      </trkpt>
      <trkpt lat="43.97713" lon="7.2357">
        <ele>1416</ele>
        <time>2014-08-30T09:49:16Z</time>
      </trkpt>
      <trkpt lat="43.97707" lon="7.23579">
        <ele>1417</ele>
        <time>2014-08-30T09:49:19Z</time>
      </trkpt>
      <trkpt lat="43.97702" lon="7.23587">
        <ele>1417</ele>
        <time>2014-08-30T09:49:22Z</time>
      </trkpt>
      <trkpt lat="43.97699" lon="7.23592">
        <ele>1419</ele>
        <time>2014-08-30T09:49:25Z</time>
      </trkpt>
      <trkpt lat="43.97688" lon="7.236">
        <ele>1419</ele>
        <time>2014-08-30T09:49:28Z</time>
      </trkpt>
      <trkpt lat="43.97682" lon="7.23608">
        <ele>1420</ele>
        <time>2014-08-30T09:49:31Z</time>
      </trkpt>
      <trkpt lat="43.97677" lon="7.23615">
        <ele>1421</ele>
        <time>2014-08-30T09:49:34Z</time>
      </trkpt>
      <trkpt lat="43.97672" lon="7.23624">
        <ele>1422</ele>
        <time>2014-08-30T09:49:37Z</time>
      </trkpt>
      <trkpt lat="43.97666" lon="7.2363">
        <ele>1423</ele>
        <time>2014-08-30T09:49:40Z</time>
      </trkpt>
      <trkpt lat="43.97663" lon="7.23643">
        <ele>1423</ele>
        <time>2014-08-30T09:49:43Z</time>
      </trkpt>
      <trkpt lat="43.9766" lon="7.23655">
        <ele>1424</ele>
        <time>2014-08-30T09:49:46Z</time>
      </trkpt>
      <trkpt lat="43.97654" lon="7.23657">
        <ele>1425</ele>
        <time>2014-08-30T09:49:49Z</time>
      </trkpt>
      <trkpt lat="43.9765" lon="7.2366">
        <ele>1425</ele>
        <time>2014-08-30T09:49:52Z</time>
      </trkpt>
      <trkpt lat="43.97647" lon="7.23663">
        <ele>1426</ele>
        <time>2014-08-30T09:49:55Z</time>
      </trkpt>
      <trkpt lat="43.97642" lon="7.23664">
        <ele>1427</ele>
        <time>2014-08-30T09:49:58Z</time>
      </trkpt>
      <trkpt lat="43.97638" lon="7.23665">
        <ele>1427</ele>
        <time>2014-08-30T09:50:01Z</time>
      </trkpt>
      <trkpt lat="43.97632" lon="7.2366">
        <ele>1427</ele>
        <time>2014-08-30T09:50:04Z</time>
      </trkpt>
      <trkpt lat="43.97627" lon="7.23655">
        <ele>1427</ele>
        <time>2014-08-30T09:50:07Z</time>
      </trkpt>
      <trkpt lat="43.97618" lon="7.23653">
        <ele>1427</ele>
        <time>2014-08-30T09:50:10Z</time>
      </trkpt>
      <trkpt lat="43.97603" lon="7.23653">
        <ele>1427</ele>
        <time>2014-08-30T09:50:13Z</time>
      </trkpt>
      <trkpt lat="43.97594" lon="7.23654">
        <ele>1427</ele>
        <time>2014-08-30T09:50:16Z</time>
      </trkpt>
      <trkpt lat="43.97581" lon="7.23661">
        <ele>1427</ele>
        <time>2014-08-30T09:50:19Z</time>
      </trkpt>
      <trkpt lat="43.97572" lon="7.23668">
        <ele>1426</ele>
        <time>2014-08-30T09:50:22Z</time>
      </trkpt>
      <trkpt lat="43.97562" lon="7.2367">
        <ele>1425</ele>
        <time>2014-08-30T09:50:25Z</time>
      </trkpt>
      <trkpt lat="43.97554" lon="7.23667">
        <ele>1424</ele>
        <time>2014-08-30T09:50:28Z</time>
      </trkpt>
      <trkpt lat="43.97544" lon="7.23669">
        <ele>1423</ele>
        <time>2014-08-30T09:50:31Z</time>
      </trkpt>
      <trkpt lat="43.97534" lon="7.23675">
        <ele>1422</ele>
        <time>2014-08-30T09:50:34Z</time>
      </trkpt>
      <trkpt lat="43.97519" lon="7.23679">
        <ele>1421</ele>
        <time>2014-08-30T09:50:37Z</time>
      </trkpt>
      <trkpt lat="43.97503" lon="7.23684">
        <ele>1421</ele>
        <time>2014-08-30T09:50:40Z</time>
      </trkpt>
      <trkpt lat="43.97495" lon="7.2369">
        <ele>1421</ele>
        <time>2014-08-30T09:50:43Z</time>
      </trkpt>
      <trkpt lat="43.97485" lon="7.23693">
        <ele>1420</ele>
        <time>2014-08-30T09:50:46Z</time>
      </trkpt>
      <trkpt lat="43.97473" lon="7.23696">
        <ele>1418</ele>
        <time>2014-08-30T09:50:49Z</time>
      </trkpt>
      <trkpt lat="43.97462" lon="7.237">
        <ele>1418</ele>
        <time>2014-08-30T09:50:52Z</time>
      </trkpt>
      <trkpt lat="43.97451" lon="7.23702">
        <ele>1418</ele>
        <time>2014-08-30T09:50:55Z</time>
      </trkpt>
      <trkpt lat="43.97441" lon="7.23705">
        <ele>1418</ele>
        <time>2014-08-30T09:50:58Z</time>
      </trkpt>
      <trkpt lat="43.9743" lon="7.23712">
        <ele>1418</ele>
        <time>2014-08-30T09:51:01Z</time>
      </trkpt>
      <trkpt lat="43.9742" lon="7.23719">
        <ele>1418</ele>
        <time>2014-08-30T09:51:04Z</time>
      </trkpt>
      <trkpt lat="43.97412" lon="7.23725">
        <ele>1418</ele>
        <time>2014-08-30T09:51:07Z</time>
      </trkpt>
      <trkpt lat="43.97401" lon="7.23726">
        <ele>1418</ele>
        <time>2014-08-30T09:51:10Z</time>
      </trkpt>
      <trkpt lat="43.97392" lon="7.23727">
        <ele>1418</ele>
        <time>2014-08-30T09:51:13Z</time>
      </trkpt>
      <trkpt lat="43.97379" lon="7.23725">
        <ele>1418</ele>
        <time>2014-08-30T09:51:16Z</time>
      </trkpt>
      <trkpt lat="43.97373" lon="7.23725">
        <ele>1418</ele>
        <time>2014-08-30T09:51:19Z</time>
      </trkpt>
      <trkpt lat="43.97367" lon="7.23728">
        <ele>1418</ele>
        <time>2014-08-30T09:51:22Z</time>
      </trkpt>
      <trkpt lat="43.9736" lon="7.23731">
        <ele>1418</ele>
        <time>2014-08-30T09:51:25Z</time>
      </trkpt>
      <trkpt lat="43.97354" lon="7.23734">
        <ele>1418</ele>
        <time>2014-08-30T09:51:28Z</time>
      </trkpt>
      <trkpt lat="43.97347" lon="7.23738">
        <ele>1419</ele>
        <time>2014-08-30T09:51:31Z</time>
      </trkpt>
      <trkpt lat="43.9734" lon="7.23743">
        <ele>1420</ele>
        <time>2014-08-30T09:51:34Z</time>
      </trkpt>
      <trkpt lat="43.97333" lon="7.23743">
        <ele>1421</ele>
        <time>2014-08-30T09:51:37Z</time>
      </trkpt>
      <trkpt lat="43.97328" lon="7.23745">
        <ele>1422</ele>
        <time>2014-08-30T09:51:40Z</time>
      </trkpt>
      <trkpt lat="43.97321" lon="7.2375">
        <ele>1423</ele>
        <time>2014-08-30T09:51:43Z</time>
      </trkpt>
      <trkpt lat="43.97312" lon="7.23751">
        <ele>1423</ele>
        <time>2014-08-30T09:51:46Z</time>
      </trkpt>
      <trkpt lat="43.97304" lon="7.23754">
        <ele>1423</ele>
        <time>2014-08-30T09:51:49Z</time>
      </trkpt>
      <trkpt lat="43.97303" lon="7.23762">
        <ele>1424</ele>
        <time>2014-08-30T09:51:52Z</time>
      </trkpt>
      <trkpt lat="43.97305" lon="7.23773">
        <ele>1425</ele>
        <time>2014-08-30T09:51:55Z</time>
      </trkpt>
      <trkpt lat="43.97302" lon="7.23796">
        <ele>1424</ele>
        <time>2014-08-30T09:51:58Z</time>
      </trkpt>
      <trkpt lat="43.97296" lon="7.23821">
        <ele>1421</ele>
        <time>2014-08-30T09:52:01Z</time>
      </trkpt>
      <trkpt lat="43.97287" lon="7.2384">
        <ele>1420</ele>
        <time>2014-08-30T09:52:04Z</time>
      </trkpt>
      <trkpt lat="43.97276" lon="7.23849">
        <ele>1419</ele>
        <time>2014-08-30T09:52:07Z</time>
      </trkpt>
      <trkpt lat="43.97259" lon="7.23864">
        <ele>1417</ele>
        <time>2014-08-30T09:52:10Z</time>
      </trkpt>
      <trkpt lat="43.97243" lon="7.23876">
        <ele>1415</ele>
        <time>2014-08-30T09:52:13Z</time>
      </trkpt>
      <trkpt lat="43.97232" lon="7.23886">
        <ele>1415</ele>
        <time>2014-08-30T09:52:16Z</time>
      </trkpt>
      <trkpt lat="43.97219" lon="7.23898">
        <ele>1415</ele>
        <time>2014-08-30T09:52:19Z</time>
      </trkpt>
      <trkpt lat="43.97206" lon="7.23909">
        <ele>1415</ele>
        <time>2014-08-30T09:52:22Z</time>
      </trkpt>
      <trkpt lat="43.97194" lon="7.23917">
        <ele>1415</ele>
        <time>2014-08-30T09:52:25Z</time>
      </trkpt>
      <trkpt lat="43.97183" lon="7.23923">
        <ele>1415</ele>
        <time>2014-08-30T09:52:28Z</time>
      </trkpt>
      <trkpt lat="43.97172" lon="7.23927">
        <ele>1414</ele>
        <time>2014-08-30T09:52:31Z</time>
      </trkpt>
      <trkpt lat="43.97159" lon="7.2393">
        <ele>1413</ele>
        <time>2014-08-30T09:52:34Z</time>
      </trkpt>
      <trkpt lat="43.97149" lon="7.23933">
        <ele>1413</ele>
        <time>2014-08-30T09:52:37Z</time>
      </trkpt>
      <trkpt lat="43.97141" lon="7.23938">
        <ele>1415</ele>
        <time>2014-08-30T09:52:40Z</time>
      </trkpt>
      <trkpt lat="43.97133" lon="7.23938">
        <ele>1415</ele>
        <time>2014-08-30T09:52:43Z</time>
      </trkpt>
      <trkpt lat="43.97126" lon="7.2394">
        <ele>1417</ele>
        <time>2014-08-30T09:52:46Z</time>
      </trkpt>
      <trkpt lat="43.97121" lon="7.23941">
        <ele>1417</ele>
        <time>2014-08-30T09:52:49Z</time>
      </trkpt>
      <trkpt lat="43.9712" lon="7.23939">
        <ele>1417</ele>
        <time>2014-08-30T09:52:52Z</time>
      </trkpt>
      <trkpt lat="43.97116" lon="7.23939">
        <ele>1417</ele>
        <time>2014-08-30T09:52:58Z</time>
      </trkpt>
      <trkpt lat="43.9711" lon="7.23935">
        <ele>1417</ele>
        <time>2014-08-30T09:53:01Z</time>
      </trkpt>
      <trkpt lat="43.97102" lon="7.23927">
        <ele>1417</ele>
        <time>2014-08-30T09:53:04Z</time>
      </trkpt>
      <trkpt lat="43.97098" lon="7.23918">
        <ele>1415</ele>
        <time>2014-08-30T09:53:07Z</time>
      </trkpt>
      <trkpt lat="43.97097" lon="7.23911">
        <ele>1415</ele>
        <time>2014-08-30T09:53:10Z</time>
      </trkpt>
      <trkpt lat="43.97095" lon="7.23906">
        <ele>1415</ele>
        <time>2014-08-30T09:53:13Z</time>
      </trkpt>
      <trkpt lat="43.97092" lon="7.23897">
        <ele>1415</ele>
        <time>2014-08-30T09:53:16Z</time>
      </trkpt>
      <trkpt lat="43.97088" lon="7.23888">
        <ele>1414</ele>
        <time>2014-08-30T09:53:19Z</time>
      </trkpt>
      <trkpt lat="43.97081" lon="7.23882">
        <ele>1413</ele>
        <time>2014-08-30T09:53:22Z</time>
      </trkpt>
      <trkpt lat="43.97078" lon="7.23876">
        <ele>1413</ele>
        <time>2014-08-30T09:53:25Z</time>
      </trkpt>
      <trkpt lat="43.97076" lon="7.23871">
        <ele>1413</ele>
        <time>2014-08-30T09:53:28Z</time>
      </trkpt>
      <trkpt lat="43.97072" lon="7.23867">
        <ele>1413</ele>
        <time>2014-08-30T09:53:31Z</time>
      </trkpt>
      <trkpt lat="43.97067" lon="7.23857">
        <ele>1413</ele>
        <time>2014-08-30T09:53:34Z</time>
      </trkpt>
      <trkpt lat="43.97063" lon="7.23846">
        <ele>1413</ele>
        <time>2014-08-30T09:53:37Z</time>
      </trkpt>
      <trkpt lat="43.97061" lon="7.23841">
        <ele>1413</ele>
        <time>2014-08-30T09:53:40Z</time>
      </trkpt>
      <trkpt lat="43.97057" lon="7.23832">
        <ele>1413</ele>
        <time>2014-08-30T09:53:43Z</time>
      </trkpt>
      <trkpt lat="43.9705" lon="7.23832">
        <ele>1413</ele>
        <time>2014-08-30T09:53:46Z</time>
      </trkpt>
      <trkpt lat="43.97041" lon="7.23834">
        <ele>1413</ele>
        <time>2014-08-30T09:53:49Z</time>
      </trkpt>
      <trkpt lat="43.97034" lon="7.23832">
        <ele>1411</ele>
        <time>2014-08-30T09:53:52Z</time>
      </trkpt>
      <trkpt lat="43.97026" lon="7.23826">
        <ele>1411</ele>
        <time>2014-08-30T09:53:55Z</time>
      </trkpt>
      <trkpt lat="43.97016" lon="7.23819">
        <ele>1411</ele>
        <time>2014-08-30T09:53:58Z</time>
      </trkpt>
      <trkpt lat="43.9701" lon="7.23813">
        <ele>1410</ele>
        <time>2014-08-30T09:54:01Z</time>
      </trkpt>
      <trkpt lat="43.97005" lon="7.23804">
        <ele>1408</ele>
        <time>2014-08-30T09:54:04Z</time>
      </trkpt>
      <trkpt lat="43.97001" lon="7.23796">
        <ele>1409</ele>
        <time>2014-08-30T09:54:07Z</time>
      </trkpt>
      <trkpt lat="43.96997" lon="7.23789">
        <ele>1410</ele>
        <time>2014-08-30T09:54:10Z</time>
      </trkpt>
      <trkpt lat="43.96993" lon="7.23782">
        <ele>1411</ele>
        <time>2014-08-30T09:54:13Z</time>
      </trkpt>
      <trkpt lat="43.9699" lon="7.23779">
        <ele>1412</ele>
        <time>2014-08-30T09:54:16Z</time>
      </trkpt>
      <trkpt lat="43.96987" lon="7.23774">
        <ele>1413</ele>
        <time>2014-08-30T09:54:19Z</time>
      </trkpt>
      <trkpt lat="43.96982" lon="7.23771">
        <ele>1413</ele>
        <time>2014-08-30T09:54:22Z</time>
      </trkpt>
      <trkpt lat="43.96973" lon="7.23767">
        <ele>1413</ele>
        <time>2014-08-30T09:54:25Z</time>
      </trkpt>
      <trkpt lat="43.96963" lon="7.23762">
        <ele>1413</ele>
        <time>2014-08-30T09:54:28Z</time>
      </trkpt>
      <trkpt lat="43.96957" lon="7.23755">
        <ele>1411</ele>
        <time>2014-08-30T09:54:31Z</time>
      </trkpt>
      <trkpt lat="43.96952" lon="7.23748">
        <ele>1411</ele>
        <time>2014-08-30T09:54:34Z</time>
      </trkpt>
      <trkpt lat="43.96946" lon="7.23744">
        <ele>1411</ele>
        <time>2014-08-30T09:54:37Z</time>
      </trkpt>
      <trkpt lat="43.96933" lon="7.23743">
        <ele>1413</ele>
        <time>2014-08-30T09:54:40Z</time>
      </trkpt>
      <trkpt lat="43.9692" lon="7.23743">
        <ele>1413</ele>
        <time>2014-08-30T09:54:43Z</time>
      </trkpt>
      <trkpt lat="43.96911" lon="7.23744">
        <ele>1413</ele>
        <time>2014-08-30T09:54:46Z</time>
      </trkpt>
      <trkpt lat="43.969" lon="7.23744">
        <ele>1413</ele>
        <time>2014-08-30T09:54:49Z</time>
      </trkpt>
      <trkpt lat="43.96888" lon="7.23745">
        <ele>1413</ele>
        <time>2014-08-30T09:54:52Z</time>
      </trkpt>
      <trkpt lat="43.96878" lon="7.23742">
        <ele>1413</ele>
        <time>2014-08-30T09:54:55Z</time>
      </trkpt>
      <trkpt lat="43.96871" lon="7.23741">
        <ele>1414</ele>
        <time>2014-08-30T09:54:58Z</time>
      </trkpt>
      <trkpt lat="43.96865" lon="7.23741">
        <ele>1415</ele>
        <time>2014-08-30T09:55:01Z</time>
      </trkpt>
      <trkpt lat="43.96859" lon="7.23739">
        <ele>1416</ele>
        <time>2014-08-30T09:55:04Z</time>
      </trkpt>
      <trkpt lat="43.96852" lon="7.2374">
        <ele>1417</ele>
        <time>2014-08-30T09:55:07Z</time>
      </trkpt>
      <trkpt lat="43.96845" lon="7.23742">
        <ele>1417</ele>
        <time>2014-08-30T09:55:10Z</time>
      </trkpt>
      <trkpt lat="43.96838" lon="7.23739">
        <ele>1418</ele>
        <time>2014-08-30T09:55:13Z</time>
      </trkpt>
      <trkpt lat="43.96831" lon="7.23737">
        <ele>1420</ele>
        <time>2014-08-30T09:55:16Z</time>
      </trkpt>
      <trkpt lat="43.96825" lon="7.23738">
        <ele>1420</ele>
        <time>2014-08-30T09:55:19Z</time>
      </trkpt>
      <trkpt lat="43.96816" lon="7.23739">
        <ele>1420</ele>
        <time>2014-08-30T09:55:22Z</time>
      </trkpt>
      <trkpt lat="43.96808" lon="7.23739">
        <ele>1421</ele>
        <time>2014-08-30T09:55:25Z</time>
      </trkpt>
      <trkpt lat="43.968" lon="7.23741">
        <ele>1422</ele>
        <time>2014-08-30T09:55:28Z</time>
      </trkpt>
      <trkpt lat="43.96791" lon="7.23744">
        <ele>1422</ele>
        <time>2014-08-30T09:55:31Z</time>
      </trkpt>
      <trkpt lat="43.96781" lon="7.23747">
        <ele>1422</ele>
        <time>2014-08-30T09:55:34Z</time>
      </trkpt>
      <trkpt lat="43.96769" lon="7.23751">
        <ele>1422</ele>
        <time>2014-08-30T09:55:37Z</time>
      </trkpt>
      <trkpt lat="43.96757" lon="7.23754">
        <ele>1422</ele>
        <time>2014-08-30T09:55:40Z</time>
      </trkpt>
      <trkpt lat="43.96748" lon="7.23755">
        <ele>1422</ele>
        <time>2014-08-30T09:55:43Z</time>
      </trkpt>
      <trkpt lat="43.9674" lon="7.23757">
        <ele>1422</ele>
        <time>2014-08-30T09:55:46Z</time>
      </trkpt>
      <trkpt lat="43.96732" lon="7.23761">
        <ele>1422</ele>
        <time>2014-08-30T09:55:49Z</time>
      </trkpt>
      <trkpt lat="43.96719" lon="7.23763">
        <ele>1422</ele>
        <time>2014-08-30T09:55:52Z</time>
      </trkpt>
      <trkpt lat="43.96707" lon="7.23762">
        <ele>1422</ele>
        <time>2014-08-30T09:55:55Z</time>
      </trkpt>
      <trkpt lat="43.96692" lon="7.23763">
        <ele>1422</ele>
        <time>2014-08-30T09:55:58Z</time>
      </trkpt>
      <trkpt lat="43.96678" lon="7.23768">
        <ele>1422</ele>
        <time>2014-08-30T09:56:01Z</time>
      </trkpt>
      <trkpt lat="43.9667" lon="7.2377">
        <ele>1422</ele>
        <time>2014-08-30T09:56:04Z</time>
      </trkpt>
      <trkpt lat="43.9666" lon="7.23772">
        <ele>1422</ele>
        <time>2014-08-30T09:56:07Z</time>
      </trkpt>
      <trkpt lat="43.96649" lon="7.23773">
        <ele>1422</ele>
        <time>2014-08-30T09:56:10Z</time>
      </trkpt>
      <trkpt lat="43.96639" lon="7.23773">
        <ele>1422</ele>
        <time>2014-08-30T09:56:13Z</time>
      </trkpt>
      <trkpt lat="43.9663" lon="7.23772">
        <ele>1423</ele>
        <time>2014-08-30T09:56:16Z</time>
      </trkpt>
      <trkpt lat="43.96624" lon="7.23775">
        <ele>1424</ele>
        <time>2014-08-30T09:56:19Z</time>
      </trkpt>
      <trkpt lat="43.96618" lon="7.23776">
        <ele>1424</ele>
        <time>2014-08-30T09:56:22Z</time>
      </trkpt>
      <trkpt lat="43.9661" lon="7.23774">
        <ele>1425</ele>
        <time>2014-08-30T09:56:25Z</time>
      </trkpt>
      <trkpt lat="43.96603" lon="7.23773">
        <ele>1426</ele>
        <time>2014-08-30T09:56:28Z</time>
      </trkpt>
      <trkpt lat="43.96597" lon="7.23772">
        <ele>1427</ele>
        <time>2014-08-30T09:56:31Z</time>
      </trkpt>
      <trkpt lat="43.96588" lon="7.23776">
        <ele>1428</ele>
        <time>2014-08-30T09:56:34Z</time>
      </trkpt>
      <trkpt lat="43.96582" lon="7.23778">
        <ele>1428</ele>
        <time>2014-08-30T09:56:37Z</time>
      </trkpt>
      <trkpt lat="43.96576" lon="7.23779">
        <ele>1430</ele>
        <time>2014-08-30T09:56:40Z</time>
      </trkpt>
      <trkpt lat="43.9657" lon="7.23779">
        <ele>1431</ele>
        <time>2014-08-30T09:56:43Z</time>
      </trkpt>
      <trkpt lat="43.96561" lon="7.23781">
        <ele>1431</ele>
        <time>2014-08-30T09:56:46Z</time>
      </trkpt>
      <trkpt lat="43.96549" lon="7.23788">
        <ele>1433</ele>
        <time>2014-08-30T09:56:49Z</time>
      </trkpt>
      <trkpt lat="43.96537" lon="7.23795">
        <ele>1433</ele>
        <time>2014-08-30T09:56:52Z</time>
      </trkpt>
      <trkpt lat="43.96526" lon="7.23802">
        <ele>1433</ele>
        <time>2014-08-30T09:56:55Z</time>
      </trkpt>
      <trkpt lat="43.96513" lon="7.23812">
        <ele>1433</ele>
        <time>2014-08-30T09:56:58Z</time>
      </trkpt>
      <trkpt lat="43.96502" lon="7.23817">
        <ele>1433</ele>
        <time>2014-08-30T09:57:01Z</time>
      </trkpt>
      <trkpt lat="43.96495" lon="7.2382">
        <ele>1434</ele>
        <time>2014-08-30T09:57:04Z</time>
      </trkpt>
      <trkpt lat="43.96484" lon="7.23829">
        <ele>1435</ele>
        <time>2014-08-30T09:57:07Z</time>
      </trkpt>
      <trkpt lat="43.96471" lon="7.23841">
        <ele>1435</ele>
        <time>2014-08-30T09:57:10Z</time>
      </trkpt>
      <trkpt lat="43.96455" lon="7.23854">
        <ele>1434</ele>
        <time>2014-08-30T09:57:13Z</time>
      </trkpt>
      <trkpt lat="43.96443" lon="7.23863">
        <ele>1433</ele>
        <time>2014-08-30T09:57:16Z</time>
      </trkpt>
      <trkpt lat="43.96433" lon="7.2387">
        <ele>1431</ele>
        <time>2014-08-30T09:57:19Z</time>
      </trkpt>
      <trkpt lat="43.96417" lon="7.23879">
        <ele>1429</ele>
        <time>2014-08-30T09:57:22Z</time>
      </trkpt>
      <trkpt lat="43.96401" lon="7.23885">
        <ele>1427</ele>
        <time>2014-08-30T09:57:25Z</time>
      </trkpt>
      <trkpt lat="43.96385" lon="7.23895">
        <ele>1426</ele>
        <time>2014-08-30T09:57:28Z</time>
      </trkpt>
      <trkpt lat="43.96366" lon="7.23906">
        <ele>1423</ele>
        <time>2014-08-30T09:57:31Z</time>
      </trkpt>
      <trkpt lat="43.96346" lon="7.23916">
        <ele>1421</ele>
        <time>2014-08-30T09:57:34Z</time>
      </trkpt>
      <trkpt lat="43.96327" lon="7.23927">
        <ele>1420</ele>
        <time>2014-08-30T09:57:37Z</time>
      </trkpt>
      <trkpt lat="43.96312" lon="7.23934">
        <ele>1419</ele>
        <time>2014-08-30T09:57:40Z</time>
      </trkpt>
      <trkpt lat="43.96299" lon="7.23942">
        <ele>1419</ele>
        <time>2014-08-30T09:57:43Z</time>
      </trkpt>
      <trkpt lat="43.96287" lon="7.23953">
        <ele>1419</ele>
        <time>2014-08-30T09:57:46Z</time>
      </trkpt>
      <trkpt lat="43.96273" lon="7.23967">
        <ele>1419</ele>
        <time>2014-08-30T09:57:49Z</time>
      </trkpt>
      <trkpt lat="43.96257" lon="7.23976">
        <ele>1417</ele>
        <time>2014-08-30T09:57:52Z</time>
      </trkpt>
      <trkpt lat="43.96245" lon="7.23989">
        <ele>1417</ele>
        <time>2014-08-30T09:57:55Z</time>
      </trkpt>
      <trkpt lat="43.96229" lon="7.24007">
        <ele>1417</ele>
        <time>2014-08-30T09:57:58Z</time>
      </trkpt>
      <trkpt lat="43.96212" lon="7.24023">
        <ele>1417</ele>
        <time>2014-08-30T09:58:01Z</time>
      </trkpt>
      <trkpt lat="43.96206" lon="7.2404">
        <ele>1416</ele>
        <time>2014-08-30T09:58:04Z</time>
      </trkpt>
      <trkpt lat="43.96197" lon="7.24066">
        <ele>1414</ele>
        <time>2014-08-30T09:58:07Z</time>
      </trkpt>
      <trkpt lat="43.9618" lon="7.24074">
        <ele>1412</ele>
        <time>2014-08-30T09:58:10Z</time>
      </trkpt>
      <trkpt lat="43.96165" lon="7.24075">
        <ele>1412</ele>
        <time>2014-08-30T09:58:13Z</time>
      </trkpt>
      <trkpt lat="43.96152" lon="7.24083">
        <ele>1412</ele>
        <time>2014-08-30T09:58:16Z</time>
      </trkpt>
      <trkpt lat="43.96141" lon="7.24083">
        <ele>1412</ele>
        <time>2014-08-30T09:58:19Z</time>
      </trkpt>
      <trkpt lat="43.9613" lon="7.24092">
        <ele>1412</ele>
        <time>2014-08-30T09:58:22Z</time>
      </trkpt>
      <trkpt lat="43.96117" lon="7.241">
        <ele>1411</ele>
        <time>2014-08-30T09:58:25Z</time>
      </trkpt>
      <trkpt lat="43.96107" lon="7.24107">
        <ele>1410</ele>
        <time>2014-08-30T09:58:28Z</time>
      </trkpt>
      <trkpt lat="43.961" lon="7.24111">
        <ele>1410</ele>
        <time>2014-08-30T09:58:31Z</time>
      </trkpt>
      <trkpt lat="43.96093" lon="7.24118">
        <ele>1410</ele>
        <time>2014-08-30T09:58:34Z</time>
      </trkpt>
      <trkpt lat="43.96087" lon="7.24124">
        <ele>1410</ele>
        <time>2014-08-30T09:58:37Z</time>
      </trkpt>
      <trkpt lat="43.9608" lon="7.24136">
        <ele>1410</ele>
        <time>2014-08-30T09:58:40Z</time>
      </trkpt>
      <trkpt lat="43.96075" lon="7.24145">
        <ele>1410</ele>
        <time>2014-08-30T09:58:43Z</time>
      </trkpt>
      <trkpt lat="43.9607" lon="7.24155">
        <ele>1410</ele>
        <time>2014-08-30T09:58:46Z</time>
      </trkpt>
      <trkpt lat="43.96062" lon="7.24172">
        <ele>1410</ele>
        <time>2014-08-30T09:58:49Z</time>
      </trkpt>
      <trkpt lat="43.9605" lon="7.24184">
        <ele>1410</ele>
        <time>2014-08-30T09:58:52Z</time>
      </trkpt>
      <trkpt lat="43.9604" lon="7.24191">
        <ele>1410</ele>
        <time>2014-08-30T09:58:55Z</time>
      </trkpt>
      <trkpt lat="43.96031" lon="7.24202">
        <ele>1410</ele>
        <time>2014-08-30T09:58:58Z</time>
      </trkpt>
      <trkpt lat="43.96022" lon="7.24218">
        <ele>1410</ele>
        <time>2014-08-30T09:59:01Z</time>
      </trkpt>
      <trkpt lat="43.96011" lon="7.24234">
        <ele>1410</ele>
        <time>2014-08-30T09:59:04Z</time>
      </trkpt>
      <trkpt lat="43.95999" lon="7.24247">
        <ele>1410</ele>
        <time>2014-08-30T09:59:07Z</time>
      </trkpt>
      <trkpt lat="43.9598" lon="7.24262">
        <ele>1410</ele>
        <time>2014-08-30T09:59:10Z</time>
      </trkpt>
      <trkpt lat="43.95966" lon="7.2427">
        <ele>1410</ele>
        <time>2014-08-30T09:59:13Z</time>
      </trkpt>
      <trkpt lat="43.95951" lon="7.24279">
        <ele>1409</ele>
        <time>2014-08-30T09:59:16Z</time>
      </trkpt>
      <trkpt lat="43.95937" lon="7.24288">
        <ele>1408</ele>
        <time>2014-08-30T09:59:19Z</time>
      </trkpt>
      <trkpt lat="43.95928" lon="7.24294">
        <ele>1408</ele>
        <time>2014-08-30T09:59:22Z</time>
      </trkpt>
      <trkpt lat="43.95917" lon="7.24296">
        <ele>1410</ele>
        <time>2014-08-30T09:59:25Z</time>
      </trkpt>
      <trkpt lat="43.95907" lon="7.24297">
        <ele>1410</ele>
        <time>2014-08-30T09:59:28Z</time>
      </trkpt>
      <trkpt lat="43.95901" lon="7.24301">
        <ele>1411</ele>
        <time>2014-08-30T09:59:31Z</time>
      </trkpt>
      <trkpt lat="43.95895" lon="7.24305">
        <ele>1412</ele>
        <time>2014-08-30T09:59:34Z</time>
      </trkpt>
      <trkpt lat="43.95887" lon="7.24309">
        <ele>1412</ele>
        <time>2014-08-30T09:59:37Z</time>
      </trkpt>
      <trkpt lat="43.95881" lon="7.24313">
        <ele>1413</ele>
        <time>2014-08-30T09:59:40Z</time>
      </trkpt>
      <trkpt lat="43.95875" lon="7.24314">
        <ele>1414</ele>
        <time>2014-08-30T09:59:43Z</time>
      </trkpt>
      <trkpt lat="43.95868" lon="7.24318">
        <ele>1414</ele>
        <time>2014-08-30T09:59:46Z</time>
      </trkpt>
      <trkpt lat="43.95862" lon="7.2432">
        <ele>1415</ele>
        <time>2014-08-30T09:59:49Z</time>
      </trkpt>
      <trkpt lat="43.95855" lon="7.24321">
        <ele>1416</ele>
        <time>2014-08-30T09:59:52Z</time>
      </trkpt>
      <trkpt lat="43.95847" lon="7.24319">
        <ele>1417</ele>
        <time>2014-08-30T09:59:55Z</time>
      </trkpt>
      <trkpt lat="43.95841" lon="7.24321">
        <ele>1417</ele>
        <time>2014-08-30T09:59:58Z</time>
      </trkpt>
      <trkpt lat="43.95836" lon="7.24319">
        <ele>1417</ele>
        <time>2014-08-30T10:00:01Z</time>
      </trkpt>
      <trkpt lat="43.9583" lon="7.24315">
        <ele>1417</ele>
        <time>2014-08-30T10:00:04Z</time>
      </trkpt>
      <trkpt lat="43.95823" lon="7.24316">
        <ele>1417</ele>
        <time>2014-08-30T10:00:07Z</time>
      </trkpt>
      <trkpt lat="43.95814" lon="7.24315">
        <ele>1419</ele>
        <time>2014-08-30T10:00:10Z</time>
      </trkpt>
      <trkpt lat="43.95803" lon="7.24313">
        <ele>1419</ele>
        <time>2014-08-30T10:00:13Z</time>
      </trkpt>
      <trkpt lat="43.95794" lon="7.24312">
        <ele>1419</ele>
        <time>2014-08-30T10:00:16Z</time>
      </trkpt>
      <trkpt lat="43.95791" lon="7.2431">
        <ele>1419</ele>
        <time>2014-08-30T10:00:19Z</time>
      </trkpt>
      <trkpt lat="43.95786" lon="7.24305">
        <ele>1420</ele>
        <time>2014-08-30T10:00:22Z</time>
      </trkpt>
      <trkpt lat="43.95776" lon="7.24298">
        <ele>1421</ele>
        <time>2014-08-30T10:00:25Z</time>
      </trkpt>
      <trkpt lat="43.95772" lon="7.24296">
        <ele>1421</ele>
        <time>2014-08-30T10:00:28Z</time>
      </trkpt>
      <trkpt lat="43.95766" lon="7.24295">
        <ele>1421</ele>
        <time>2014-08-30T10:00:31Z</time>
      </trkpt>
      <trkpt lat="43.95761" lon="7.2429">
        <ele>1422</ele>
        <time>2014-08-30T10:00:34Z</time>
      </trkpt>
      <trkpt lat="43.95753" lon="7.24285">
        <ele>1423</ele>
        <time>2014-08-30T10:00:37Z</time>
      </trkpt>
      <trkpt lat="43.95742" lon="7.24279">
        <ele>1423</ele>
        <time>2014-08-30T10:00:40Z</time>
      </trkpt>
      <trkpt lat="43.95737" lon="7.24278">
        <ele>1423</ele>
        <time>2014-08-30T10:00:43Z</time>
      </trkpt>
      <trkpt lat="43.95731" lon="7.24282">
        <ele>1424</ele>
        <time>2014-08-30T10:00:46Z</time>
      </trkpt>
      <trkpt lat="43.95721" lon="7.24281">
        <ele>1425</ele>
        <time>2014-08-30T10:00:49Z</time>
      </trkpt>
      <trkpt lat="43.95715" lon="7.24272">
        <ele>1425</ele>
        <time>2014-08-30T10:00:52Z</time>
      </trkpt>
      <trkpt lat="43.9571" lon="7.24266">
        <ele>1425</ele>
        <time>2014-08-30T10:00:55Z</time>
      </trkpt>
      <trkpt lat="43.95701" lon="7.24262">
        <ele>1425</ele>
        <time>2014-08-30T10:00:58Z</time>
      </trkpt>
      <trkpt lat="43.95693" lon="7.24258">
        <ele>1425</ele>
        <time>2014-08-30T10:01:01Z</time>
      </trkpt>
      <trkpt lat="43.95682" lon="7.24256">
        <ele>1425</ele>
        <time>2014-08-30T10:01:04Z</time>
      </trkpt>
      <trkpt lat="43.95674" lon="7.24249">
        <ele>1425</ele>
        <time>2014-08-30T10:01:07Z</time>
      </trkpt>
      <trkpt lat="43.95667" lon="7.24243">
        <ele>1427</ele>
        <time>2014-08-30T10:01:10Z</time>
      </trkpt>
      <trkpt lat="43.95661" lon="7.24238">
        <ele>1427</ele>
        <time>2014-08-30T10:01:13Z</time>
      </trkpt>
      <trkpt lat="43.95653" lon="7.24234">
        <ele>1428</ele>
        <time>2014-08-30T10:01:16Z</time>
      </trkpt>
      <trkpt lat="43.95646" lon="7.24228">
        <ele>1429</ele>
        <time>2014-08-30T10:01:19Z</time>
      </trkpt>
      <trkpt lat="43.95639" lon="7.24223">
        <ele>1429</ele>
        <time>2014-08-30T10:01:22Z</time>
      </trkpt>
      <trkpt lat="43.95633" lon="7.24218">
        <ele>1430</ele>
        <time>2014-08-30T10:01:25Z</time>
      </trkpt>
      <trkpt lat="43.95626" lon="7.24214">
        <ele>1431</ele>
        <time>2014-08-30T10:01:28Z</time>
      </trkpt>
      <trkpt lat="43.95619" lon="7.24212">
        <ele>1431</ele>
        <time>2014-08-30T10:01:31Z</time>
      </trkpt>
      <trkpt lat="43.95617" lon="7.24207">
        <ele>1433</ele>
        <time>2014-08-30T10:01:34Z</time>
      </trkpt>
      <trkpt lat="43.95615" lon="7.24199">
        <ele>1433</ele>
        <time>2014-08-30T10:01:37Z</time>
      </trkpt>
      <trkpt lat="43.9561" lon="7.24194">
        <ele>1434</ele>
        <time>2014-08-30T10:01:40Z</time>
      </trkpt>
      <trkpt lat="43.95605" lon="7.24192">
        <ele>1436</ele>
        <time>2014-08-30T10:01:43Z</time>
      </trkpt>
      <trkpt lat="43.95596" lon="7.24193">
        <ele>1436</ele>
        <time>2014-08-30T10:01:46Z</time>
      </trkpt>
      <trkpt lat="43.95587" lon="7.24193">
        <ele>1436</ele>
        <time>2014-08-30T10:01:49Z</time>
      </trkpt>
      <trkpt lat="43.95581" lon="7.2419">
        <ele>1437</ele>
        <time>2014-08-30T10:01:52Z</time>
      </trkpt>
      <trkpt lat="43.95574" lon="7.24188">
        <ele>1438</ele>
        <time>2014-08-30T10:01:55Z</time>
      </trkpt>
      <trkpt lat="43.95568" lon="7.24187">
        <ele>1438</ele>
        <time>2014-08-30T10:01:58Z</time>
      </trkpt>
      <trkpt lat="43.95563" lon="7.24184">
        <ele>1438</ele>
        <time>2014-08-30T10:02:01Z</time>
      </trkpt>
      <trkpt lat="43.95559" lon="7.24183">
        <ele>1438</ele>
        <time>2014-08-30T10:02:04Z</time>
      </trkpt>
      <trkpt lat="43.95557" lon="7.24181">
        <ele>1438</ele>
        <time>2014-08-30T10:02:07Z</time>
      </trkpt>
      <trkpt lat="43.95549" lon="7.2418">
        <ele>1440</ele>
        <time>2014-08-30T10:02:10Z</time>
      </trkpt>
      <trkpt lat="43.95538" lon="7.24179">
        <ele>1441</ele>
        <time>2014-08-30T10:02:13Z</time>
      </trkpt>
      <trkpt lat="43.95535" lon="7.24178">
        <ele>1441</ele>
        <time>2014-08-30T10:02:16Z</time>
      </trkpt>
      <trkpt lat="43.95531" lon="7.24176">
        <ele>1442</ele>
        <time>2014-08-30T10:02:19Z</time>
      </trkpt>
      <trkpt lat="43.95524" lon="7.24174">
        <ele>1443</ele>
        <time>2014-08-30T10:02:22Z</time>
      </trkpt>
      <trkpt lat="43.95516" lon="7.24173">
        <ele>1444</ele>
        <time>2014-08-30T10:02:25Z</time>
      </trkpt>
      <trkpt lat="43.95509" lon="7.24172">
        <ele>1445</ele>
        <time>2014-08-30T10:02:28Z</time>
      </trkpt>
      <trkpt lat="43.95502" lon="7.24174">
        <ele>1446</ele>
        <time>2014-08-30T10:02:31Z</time>
      </trkpt>
      <trkpt lat="43.955" lon="7.24174">
        <ele>1447</ele>
        <time>2014-08-30T10:02:34Z</time>
      </trkpt>
      <trkpt lat="43.955" lon="7.24172">
        <ele>1447</ele>
        <time>2014-08-30T10:02:37Z</time>
      </trkpt>
      <trkpt lat="43.95498" lon="7.24169">
        <ele>1447</ele>
        <time>2014-08-30T10:02:40Z</time>
      </trkpt>
      <trkpt lat="43.95496" lon="7.24167">
        <ele>1447</ele>
        <time>2014-08-30T10:02:43Z</time>
      </trkpt>
      <trkpt lat="43.95498" lon="7.24169">
        <ele>1449</ele>
        <time>2014-08-30T10:02:46Z</time>
      </trkpt>
      <trkpt lat="43.95499" lon="7.2417">
        <ele>1449</ele>
        <time>2014-08-30T10:02:49Z</time>
      </trkpt>
      <trkpt lat="43.95498" lon="7.2417">
        <ele>1451</ele>
        <time>2014-08-30T10:02:55Z</time>
      </trkpt>
      <trkpt lat="43.95499" lon="7.24165">
        <ele>1451</ele>
        <time>2014-08-30T10:02:58Z</time>
      </trkpt>
      <trkpt lat="43.95499" lon="7.24164">
        <ele>1452</ele>
        <time>2014-08-30T10:03:01Z</time>
      </trkpt>
      <trkpt lat="43.95496" lon="7.24168">
        <ele>1453</ele>
        <time>2014-08-30T10:03:04Z</time>
      </trkpt>
      <trkpt lat="43.95491" lon="7.24175">
        <ele>1453</ele>
        <time>2014-08-30T10:03:07Z</time>
      </trkpt>
      <trkpt lat="43.95486" lon="7.24182">
        <ele>1454</ele>
        <time>2014-08-30T10:03:10Z</time>
      </trkpt>
      <trkpt lat="43.9548" lon="7.24182">
        <ele>1455</ele>
        <time>2014-08-30T10:03:13Z</time>
      </trkpt>
      <trkpt lat="43.95477" lon="7.24181">
        <ele>1456</ele>
        <time>2014-08-30T10:03:16Z</time>
      </trkpt>
      <trkpt lat="43.95472" lon="7.24181">
        <ele>1457</ele>
        <time>2014-08-30T10:03:19Z</time>
      </trkpt>
      <trkpt lat="43.95467" lon="7.24183">
        <ele>1458</ele>
        <time>2014-08-30T10:03:22Z</time>
      </trkpt>
      <trkpt lat="43.95463" lon="7.24185">
        <ele>1458</ele>
        <time>2014-08-30T10:03:25Z</time>
      </trkpt>
      <trkpt lat="43.95462" lon="7.24183">
        <ele>1458</ele>
        <time>2014-08-30T10:03:28Z</time>
      </trkpt>
      <trkpt lat="43.95461" lon="7.24181">
        <ele>1460</ele>
        <time>2014-08-30T10:03:31Z</time>
      </trkpt>
      <trkpt lat="43.95463" lon="7.2418">
        <ele>1460</ele>
        <time>2014-08-30T10:03:34Z</time>
      </trkpt>
      <trkpt lat="43.95467" lon="7.2418">
        <ele>1461</ele>
        <time>2014-08-30T10:03:37Z</time>
      </trkpt>
      <trkpt lat="43.95469" lon="7.2418">
        <ele>1462</ele>
        <time>2014-08-30T10:03:40Z</time>
      </trkpt>
      <trkpt lat="43.95469" lon="7.24179">
        <ele>1462</ele>
        <time>2014-08-30T10:03:43Z</time>
      </trkpt>
      <trkpt lat="43.95471" lon="7.24178">
        <ele>1463</ele>
        <time>2014-08-30T10:03:46Z</time>
      </trkpt>
      <trkpt lat="43.95473" lon="7.24179">
        <ele>1464</ele>
        <time>2014-08-30T10:03:49Z</time>
      </trkpt>
      <trkpt lat="43.95471" lon="7.2418">
        <ele>1464</ele>
        <time>2014-08-30T10:03:52Z</time>
      </trkpt>
      <trkpt lat="43.95468" lon="7.24181">
        <ele>1465</ele>
        <time>2014-08-30T10:03:55Z</time>
      </trkpt>
      <trkpt lat="43.95469" lon="7.24182">
        <ele>1466</ele>
        <time>2014-08-30T10:03:58Z</time>
      </trkpt>
      <trkpt lat="43.9547" lon="7.24188">
        <ele>1466</ele>
        <time>2014-08-30T10:04:01Z</time>
      </trkpt>
      <trkpt lat="43.95469" lon="7.24194">
        <ele>1467</ele>
        <time>2014-08-30T10:04:04Z</time>
      </trkpt>
      <trkpt lat="43.95467" lon="7.24203">
        <ele>1468</ele>
        <time>2014-08-30T10:04:07Z</time>
      </trkpt>
      <trkpt lat="43.95471" lon="7.24206">
        <ele>1468</ele>
        <time>2014-08-30T10:04:10Z</time>
      </trkpt>
      <trkpt lat="43.95473" lon="7.24207">
        <ele>1468</ele>
        <time>2014-08-30T10:04:13Z</time>
      </trkpt>
      <trkpt lat="43.95468" lon="7.24206">
        <ele>1469</ele>
        <time>2014-08-30T10:04:16Z</time>
      </trkpt>
      <trkpt lat="43.95469" lon="7.24205">
        <ele>1470</ele>
        <time>2014-08-30T10:04:19Z</time>
      </trkpt>
      <trkpt lat="43.95472" lon="7.24205">
        <ele>1470</ele>
        <time>2014-08-30T10:04:22Z</time>
      </trkpt>
      <trkpt lat="43.95476" lon="7.24205">
        <ele>1471</ele>
        <time>2014-08-30T10:04:25Z</time>
      </trkpt>
      <trkpt lat="43.95478" lon="7.24203">
        <ele>1472</ele>
        <time>2014-08-30T10:04:28Z</time>
      </trkpt>
      <trkpt lat="43.95478" lon="7.24206">
        <ele>1474</ele>
        <time>2014-08-30T10:04:34Z</time>
      </trkpt>
      <trkpt lat="43.95481" lon="7.24207">
        <ele>1475</ele>
        <time>2014-08-30T10:04:37Z</time>
      </trkpt>
      <trkpt lat="43.95485" lon="7.24209">
        <ele>1475</ele>
        <time>2014-08-30T10:04:40Z</time>
      </trkpt>
      <trkpt lat="43.95489" lon="7.24209">
        <ele>1476</ele>
        <time>2014-08-30T10:04:43Z</time>
      </trkpt>
      <trkpt lat="43.9549" lon="7.24209">
        <ele>1477</ele>
        <time>2014-08-30T10:04:46Z</time>
      </trkpt>
      <trkpt lat="43.95487" lon="7.24212">
        <ele>1477</ele>
        <time>2014-08-30T10:04:49Z</time>
      </trkpt>
      <trkpt lat="43.95482" lon="7.24217">
        <ele>1478</ele>
        <time>2014-08-30T10:04:52Z</time>
      </trkpt>
      <trkpt lat="43.95477" lon="7.24219">
        <ele>1479</ele>
        <time>2014-08-30T10:04:55Z</time>
      </trkpt>
      <trkpt lat="43.95473" lon="7.2422">
        <ele>1479</ele>
        <time>2014-08-30T10:04:58Z</time>
      </trkpt>
      <trkpt lat="43.9547" lon="7.24221">
        <ele>1480</ele>
        <time>2014-08-30T10:05:01Z</time>
      </trkpt>
      <trkpt lat="43.95466" lon="7.24224">
        <ele>1481</ele>
        <time>2014-08-30T10:05:04Z</time>
      </trkpt>
      <trkpt lat="43.95463" lon="7.24228">
        <ele>1482</ele>
        <time>2014-08-30T10:05:07Z</time>
      </trkpt>
      <trkpt lat="43.9546" lon="7.24232">
        <ele>1483</ele>
        <time>2014-08-30T10:05:10Z</time>
      </trkpt>
      <trkpt lat="43.95458" lon="7.24235">
        <ele>1483</ele>
        <time>2014-08-30T10:05:13Z</time>
      </trkpt>
      <trkpt lat="43.95453" lon="7.24239">
        <ele>1484</ele>
        <time>2014-08-30T10:05:16Z</time>
      </trkpt>
      <trkpt lat="43.95445" lon="7.24246">
        <ele>1485</ele>
        <time>2014-08-30T10:05:19Z</time>
      </trkpt>
      <trkpt lat="43.95438" lon="7.2425">
        <ele>1485</ele>
        <time>2014-08-30T10:05:22Z</time>
      </trkpt>
      <trkpt lat="43.95433" lon="7.24253">
        <ele>1486</ele>
        <time>2014-08-30T10:05:25Z</time>
      </trkpt>
      <trkpt lat="43.95425" lon="7.24258">
        <ele>1487</ele>
        <time>2014-08-30T10:05:28Z</time>
      </trkpt>
      <trkpt lat="43.95416" lon="7.2426">
        <ele>1487</ele>
        <time>2014-08-30T10:05:31Z</time>
      </trkpt>
      <trkpt lat="43.9541" lon="7.24263">
        <ele>1487</ele>
        <time>2014-08-30T10:05:34Z</time>
      </trkpt>
      <trkpt lat="43.95402" lon="7.24265">
        <ele>1487</ele>
        <time>2014-08-30T10:05:37Z</time>
      </trkpt>
      <trkpt lat="43.95393" lon="7.24264">
        <ele>1487</ele>
        <time>2014-08-30T10:05:40Z</time>
      </trkpt>
      <trkpt lat="43.95385" lon="7.24264">
        <ele>1487</ele>
        <time>2014-08-30T10:05:43Z</time>
      </trkpt>
      <trkpt lat="43.95375" lon="7.24262">
        <ele>1487</ele>
        <time>2014-08-30T10:05:46Z</time>
      </trkpt>
      <trkpt lat="43.95363" lon="7.24262">
        <ele>1487</ele>
        <time>2014-08-30T10:05:49Z</time>
      </trkpt>
      <trkpt lat="43.95348" lon="7.24265">
        <ele>1487</ele>
        <time>2014-08-30T10:05:52Z</time>
      </trkpt>
      <trkpt lat="43.95336" lon="7.24265">
        <ele>1485</ele>
        <time>2014-08-30T10:05:55Z</time>
      </trkpt>
      <trkpt lat="43.95329" lon="7.24264">
        <ele>1486</ele>
        <time>2014-08-30T10:05:58Z</time>
      </trkpt>
      <trkpt lat="43.95325" lon="7.24266">
        <ele>1487</ele>
        <time>2014-08-30T10:06:01Z</time>
      </trkpt>
      <trkpt lat="43.95322" lon="7.24266">
        <ele>1489</ele>
        <time>2014-08-30T10:06:04Z</time>
      </trkpt>
      <trkpt lat="43.95316" lon="7.24265">
        <ele>1489</ele>
        <time>2014-08-30T10:06:07Z</time>
      </trkpt>
      <trkpt lat="43.95311" lon="7.24262">
        <ele>1489</ele>
        <time>2014-08-30T10:06:10Z</time>
      </trkpt>
      <trkpt lat="43.95306" lon="7.24261">
        <ele>1491</ele>
        <time>2014-08-30T10:06:13Z</time>
      </trkpt>
      <trkpt lat="43.953" lon="7.24263">
        <ele>1492</ele>
        <time>2014-08-30T10:06:16Z</time>
      </trkpt>
      <trkpt lat="43.95294" lon="7.24266">
        <ele>1492</ele>
        <time>2014-08-30T10:06:19Z</time>
      </trkpt>
      <trkpt lat="43.95289" lon="7.24267">
        <ele>1492</ele>
        <time>2014-08-30T10:06:22Z</time>
      </trkpt>
      <trkpt lat="43.95285" lon="7.24267">
        <ele>1493</ele>
        <time>2014-08-30T10:06:25Z</time>
      </trkpt>
      <trkpt lat="43.95283" lon="7.24264">
        <ele>1494</ele>
        <time>2014-08-30T10:06:28Z</time>
      </trkpt>
      <trkpt lat="43.95281" lon="7.24261">
        <ele>1495</ele>
        <time>2014-08-30T10:06:31Z</time>
      </trkpt>
      <trkpt lat="43.95277" lon="7.24261">
        <ele>1496</ele>
        <time>2014-08-30T10:06:34Z</time>
      </trkpt>
      <trkpt lat="43.95271" lon="7.24263">
        <ele>1496</ele>
        <time>2014-08-30T10:06:37Z</time>
      </trkpt>
      <trkpt lat="43.95262" lon="7.24272">
        <ele>1496</ele>
        <time>2014-08-30T10:06:40Z</time>
      </trkpt>
      <trkpt lat="43.95249" lon="7.24282">
        <ele>1496</ele>
        <time>2014-08-30T10:06:43Z</time>
      </trkpt>
      <trkpt lat="43.95241" lon="7.24291">
        <ele>1496</ele>
        <time>2014-08-30T10:06:46Z</time>
      </trkpt>
      <trkpt lat="43.95231" lon="7.24294">
        <ele>1495</ele>
        <time>2014-08-30T10:06:49Z</time>
      </trkpt>
      <trkpt lat="43.9522" lon="7.2429">
        <ele>1494</ele>
        <time>2014-08-30T10:06:52Z</time>
      </trkpt>
      <trkpt lat="43.95215" lon="7.24285">
        <ele>1494</ele>
        <time>2014-08-30T10:06:55Z</time>
      </trkpt>
      <trkpt lat="43.95212" lon="7.24282">
        <ele>1494</ele>
        <time>2014-08-30T10:06:58Z</time>
      </trkpt>
      <trkpt lat="43.9521" lon="7.24281">
        <ele>1494</ele>
        <time>2014-08-30T10:07:01Z</time>
      </trkpt>
      <trkpt lat="43.95208" lon="7.24282">
        <ele>1495</ele>
        <time>2014-08-30T10:07:04Z</time>
      </trkpt>
      <trkpt lat="43.95206" lon="7.24282">
        <ele>1496</ele>
        <time>2014-08-30T10:07:07Z</time>
      </trkpt>
      <trkpt lat="43.95204" lon="7.24282">
        <ele>1497</ele>
        <time>2014-08-30T10:07:10Z</time>
      </trkpt>
      <trkpt lat="43.95203" lon="7.24284">
        <ele>1498</ele>
        <time>2014-08-30T10:07:13Z</time>
      </trkpt>
      <trkpt lat="43.95201" lon="7.24285">
        <ele>1498</ele>
        <time>2014-08-30T10:07:16Z</time>
      </trkpt>
      <trkpt lat="43.95199" lon="7.24283">
        <ele>1498</ele>
        <time>2014-08-30T10:07:19Z</time>
      </trkpt>
      <trkpt lat="43.95198" lon="7.2428">
        <ele>1498</ele>
        <time>2014-08-30T10:07:22Z</time>
      </trkpt>
      <trkpt lat="43.95196" lon="7.24278">
        <ele>1499</ele>
        <time>2014-08-30T10:07:25Z</time>
      </trkpt>
      <trkpt lat="43.95193" lon="7.24277">
        <ele>1500</ele>
        <time>2014-08-30T10:07:28Z</time>
      </trkpt>
      <trkpt lat="43.95191" lon="7.24278">
        <ele>1500</ele>
        <time>2014-08-30T10:07:31Z</time>
      </trkpt>
      <trkpt lat="43.95188" lon="7.24279">
        <ele>1500</ele>
        <time>2014-08-30T10:07:34Z</time>
      </trkpt>
      <trkpt lat="43.95188" lon="7.24282">
        <ele>1501</ele>
        <time>2014-08-30T10:07:37Z</time>
      </trkpt>
      <trkpt lat="43.9519" lon="7.24283">
        <ele>1502</ele>
        <time>2014-08-30T10:07:40Z</time>
      </trkpt>
      <trkpt lat="43.95192" lon="7.24285">
        <ele>1502</ele>
        <time>2014-08-30T10:07:43Z</time>
      </trkpt>
      <trkpt lat="43.95194" lon="7.24287">
        <ele>1503</ele>
        <time>2014-08-30T10:07:46Z</time>
      </trkpt>
      <trkpt lat="43.95194" lon="7.24289">
        <ele>1504</ele>
        <time>2014-08-30T10:07:49Z</time>
      </trkpt>
      <trkpt lat="43.95194" lon="7.24288">
        <ele>1504</ele>
        <time>2014-08-30T10:07:52Z</time>
      </trkpt>
      <trkpt lat="43.95193" lon="7.24287">
        <ele>1504</ele>
        <time>2014-08-30T10:07:55Z</time>
      </trkpt>
      <trkpt lat="43.95193" lon="7.24288">
        <ele>1505</ele>
        <time>2014-08-30T10:07:58Z</time>
      </trkpt>
      <trkpt lat="43.95193" lon="7.24291">
        <ele>1506</ele>
        <time>2014-08-30T10:08:01Z</time>
      </trkpt>
      <trkpt lat="43.95195" lon="7.24294">
        <ele>1506</ele>
        <time>2014-08-30T10:08:04Z</time>
      </trkpt>
      <trkpt lat="43.95201" lon="7.24293">
        <ele>1507</ele>
        <time>2014-08-30T10:08:07Z</time>
      </trkpt>
      <trkpt lat="43.952" lon="7.24294">
        <ele>1508</ele>
        <time>2014-08-30T10:08:10Z</time>
      </trkpt>
      <trkpt lat="43.95195" lon="7.24296">
        <ele>1508</ele>
        <time>2014-08-30T10:08:13Z</time>
      </trkpt>
      <trkpt lat="43.95191" lon="7.24299">
        <ele>1509</ele>
        <time>2014-08-30T10:08:16Z</time>
      </trkpt>
      <trkpt lat="43.95188" lon="7.24302">
        <ele>1511</ele>
        <time>2014-08-30T10:08:19Z</time>
      </trkpt>
      <trkpt lat="43.95185" lon="7.24303">
        <ele>1511</ele>
        <time>2014-08-30T10:08:22Z</time>
      </trkpt>
      <trkpt lat="43.95182" lon="7.24304">
        <ele>1511</ele>
        <time>2014-08-30T10:08:25Z</time>
      </trkpt>
      <trkpt lat="43.9518" lon="7.24305">
        <ele>1512</ele>
        <time>2014-08-30T10:08:28Z</time>
      </trkpt>
      <trkpt lat="43.95178" lon="7.24307">
        <ele>1513</ele>
        <time>2014-08-30T10:08:31Z</time>
      </trkpt>
      <trkpt lat="43.95176" lon="7.24309">
        <ele>1514</ele>
        <time>2014-08-30T10:08:34Z</time>
      </trkpt>
      <trkpt lat="43.95176" lon="7.2431">
        <ele>1515</ele>
        <time>2014-08-30T10:08:37Z</time>
      </trkpt>
      <trkpt lat="43.95176" lon="7.24313">
        <ele>1515</ele>
        <time>2014-08-30T10:08:40Z</time>
      </trkpt>
      <trkpt lat="43.95174" lon="7.24316">
        <ele>1515</ele>
        <time>2014-08-30T10:08:43Z</time>
      </trkpt>
      <trkpt lat="43.95172" lon="7.24316">
        <ele>1516</ele>
        <time>2014-08-30T10:08:46Z</time>
      </trkpt>
      <trkpt lat="43.95171" lon="7.24314">
        <ele>1517</ele>
        <time>2014-08-30T10:08:49Z</time>
      </trkpt>
      <trkpt lat="43.95171" lon="7.2431">
        <ele>1517</ele>
        <time>2014-08-30T10:08:52Z</time>
      </trkpt>
      <trkpt lat="43.95171" lon="7.24307">
        <ele>1518</ele>
        <time>2014-08-30T10:08:55Z</time>
      </trkpt>
      <trkpt lat="43.9517" lon="7.24306">
        <ele>1519</ele>
        <time>2014-08-30T10:08:58Z</time>
      </trkpt>
      <trkpt lat="43.95169" lon="7.24307">
        <ele>1519</ele>
        <time>2014-08-30T10:09:01Z</time>
      </trkpt>
      <trkpt lat="43.95169" lon="7.24308">
        <ele>1520</ele>
        <time>2014-08-30T10:09:04Z</time>
      </trkpt>
      <trkpt lat="43.95169" lon="7.24311">
        <ele>1521</ele>
        <time>2014-08-30T10:09:07Z</time>
      </trkpt>
      <trkpt lat="43.95169" lon="7.24314">
        <ele>1521</ele>
        <time>2014-08-30T10:09:10Z</time>
      </trkpt>
      <trkpt lat="43.95168" lon="7.24316">
        <ele>1521</ele>
        <time>2014-08-30T10:09:13Z</time>
      </trkpt>
      <trkpt lat="43.95166" lon="7.24318">
        <ele>1522</ele>
        <time>2014-08-30T10:09:16Z</time>
      </trkpt>
      <trkpt lat="43.95164" lon="7.24318">
        <ele>1523</ele>
        <time>2014-08-30T10:09:19Z</time>
      </trkpt>
      <trkpt lat="43.95162" lon="7.24317">
        <ele>1523</ele>
        <time>2014-08-30T10:09:22Z</time>
      </trkpt>
      <trkpt lat="43.95161" lon="7.24318">
        <ele>1523</ele>
        <time>2014-08-30T10:09:25Z</time>
      </trkpt>
      <trkpt lat="43.95161" lon="7.2432">
        <ele>1524</ele>
        <time>2014-08-30T10:09:28Z</time>
      </trkpt>
      <trkpt lat="43.95161" lon="7.24322">
        <ele>1526</ele>
        <time>2014-08-30T10:09:31Z</time>
      </trkpt>
      <trkpt lat="43.95159" lon="7.24323">
        <ele>1526</ele>
        <time>2014-08-30T10:09:34Z</time>
      </trkpt>
      <trkpt lat="43.95158" lon="7.24324">
        <ele>1527</ele>
        <time>2014-08-30T10:09:37Z</time>
      </trkpt>
      <trkpt lat="43.95158" lon="7.24326">
        <ele>1528</ele>
        <time>2014-08-30T10:09:40Z</time>
      </trkpt>
      <trkpt lat="43.95161" lon="7.24328">
        <ele>1528</ele>
        <time>2014-08-30T10:09:43Z</time>
      </trkpt>
      <trkpt lat="43.95163" lon="7.2433">
        <ele>1528</ele>
        <time>2014-08-30T10:09:46Z</time>
      </trkpt>
      <trkpt lat="43.95163" lon="7.24333">
        <ele>1528</ele>
        <time>2014-08-30T10:09:49Z</time>
      </trkpt>
      <trkpt lat="43.95161" lon="7.24337">
        <ele>1530</ele>
        <time>2014-08-30T10:09:52Z</time>
      </trkpt>
      <trkpt lat="43.95159" lon="7.2434">
        <ele>1530</ele>
        <time>2014-08-30T10:09:55Z</time>
      </trkpt>
      <trkpt lat="43.95158" lon="7.24343">
        <ele>1531</ele>
        <time>2014-08-30T10:09:58Z</time>
      </trkpt>
      <trkpt lat="43.95157" lon="7.24345">
        <ele>1532</ele>
        <time>2014-08-30T10:10:01Z</time>
      </trkpt>
      <trkpt lat="43.95154" lon="7.24347">
        <ele>1533</ele>
        <time>2014-08-30T10:10:04Z</time>
      </trkpt>
      <trkpt lat="43.95151" lon="7.24349">
        <ele>1534</ele>
        <time>2014-08-30T10:10:07Z</time>
      </trkpt>
      <trkpt lat="43.95147" lon="7.24351">
        <ele>1535</ele>
        <time>2014-08-30T10:10:10Z</time>
      </trkpt>
      <trkpt lat="43.95143" lon="7.24353">
        <ele>1535</ele>
        <time>2014-08-30T10:10:13Z</time>
      </trkpt>
      <trkpt lat="43.9514" lon="7.24357">
        <ele>1535</ele>
        <time>2014-08-30T10:10:16Z</time>
      </trkpt>
      <trkpt lat="43.95136" lon="7.2436">
        <ele>1535</ele>
        <time>2014-08-30T10:10:19Z</time>
      </trkpt>
      <trkpt lat="43.95132" lon="7.24363">
        <ele>1535</ele>
        <time>2014-08-30T10:10:22Z</time>
      </trkpt>
      <trkpt lat="43.9513" lon="7.24364">
        <ele>1535</ele>
        <time>2014-08-30T10:10:25Z</time>
      </trkpt>
      <trkpt lat="43.95128" lon="7.24363">
        <ele>1535</ele>
        <time>2014-08-30T10:10:28Z</time>
      </trkpt>
      <trkpt lat="43.95125" lon="7.24359">
        <ele>1535</ele>
        <time>2014-08-30T10:10:31Z</time>
      </trkpt>
      <trkpt lat="43.95119" lon="7.24357">
        <ele>1535</ele>
        <time>2014-08-30T10:10:34Z</time>
      </trkpt>
      <trkpt lat="43.95112" lon="7.24358">
        <ele>1535</ele>
        <time>2014-08-30T10:10:37Z</time>
      </trkpt>
      <trkpt lat="43.95105" lon="7.24363">
        <ele>1535</ele>
        <time>2014-08-30T10:10:40Z</time>
      </trkpt>
      <trkpt lat="43.951" lon="7.24367">
        <ele>1535</ele>
        <time>2014-08-30T10:10:43Z</time>
      </trkpt>
      <trkpt lat="43.95096" lon="7.24367">
        <ele>1536</ele>
        <time>2014-08-30T10:10:46Z</time>
      </trkpt>
      <trkpt lat="43.95092" lon="7.24365">
        <ele>1537</ele>
        <time>2014-08-30T10:10:49Z</time>
      </trkpt>
      <trkpt lat="43.95088" lon="7.24362">
        <ele>1538</ele>
        <time>2014-08-30T10:10:52Z</time>
      </trkpt>
      <trkpt lat="43.95086" lon="7.24361">
        <ele>1539</ele>
        <time>2014-08-30T10:10:55Z</time>
      </trkpt>
      <trkpt lat="43.95083" lon="7.2436">
        <ele>1539</ele>
        <time>2014-08-30T10:10:58Z</time>
      </trkpt>
      <trkpt lat="43.95081" lon="7.24358">
        <ele>1539</ele>
        <time>2014-08-30T10:11:01Z</time>
      </trkpt>
      <trkpt lat="43.9508" lon="7.24354">
        <ele>1539</ele>
        <time>2014-08-30T10:11:04Z</time>
      </trkpt>
      <trkpt lat="43.9508" lon="7.24351">
        <ele>1540</ele>
        <time>2014-08-30T10:11:07Z</time>
      </trkpt>
      <trkpt lat="43.95079" lon="7.24349">
        <ele>1541</ele>
        <time>2014-08-30T10:11:10Z</time>
      </trkpt>
      <trkpt lat="43.95075" lon="7.24346">
        <ele>1541</ele>
        <time>2014-08-30T10:11:13Z</time>
      </trkpt>
      <trkpt lat="43.9507" lon="7.2434">
        <ele>1541</ele>
        <time>2014-08-30T10:11:16Z</time>
      </trkpt>
      <trkpt lat="43.95068" lon="7.24335">
        <ele>1541</ele>
        <time>2014-08-30T10:11:19Z</time>
      </trkpt>
      <trkpt lat="43.95068" lon="7.24329">
        <ele>1541</ele>
        <time>2014-08-30T10:11:22Z</time>
      </trkpt>
      <trkpt lat="43.95066" lon="7.24323">
        <ele>1541</ele>
        <time>2014-08-30T10:11:25Z</time>
      </trkpt>
      <trkpt lat="43.95064" lon="7.24315">
        <ele>1541</ele>
        <time>2014-08-30T10:11:28Z</time>
      </trkpt>
      <trkpt lat="43.9506" lon="7.24306">
        <ele>1541</ele>
        <time>2014-08-30T10:11:31Z</time>
      </trkpt>
      <trkpt lat="43.95055" lon="7.24302">
        <ele>1541</ele>
        <time>2014-08-30T10:11:34Z</time>
      </trkpt>
      <trkpt lat="43.95048" lon="7.24305">
        <ele>1541</ele>
        <time>2014-08-30T10:11:37Z</time>
      </trkpt>
      <trkpt lat="43.9504" lon="7.24309">
        <ele>1540</ele>
        <time>2014-08-30T10:11:40Z</time>
      </trkpt>
      <trkpt lat="43.95032" lon="7.24317">
        <ele>1539</ele>
        <time>2014-08-30T10:11:43Z</time>
      </trkpt>
      <trkpt lat="43.95021" lon="7.24323">
        <ele>1537</ele>
        <time>2014-08-30T10:11:46Z</time>
      </trkpt>
      <trkpt lat="43.95012" lon="7.2433">
        <ele>1534</ele>
        <time>2014-08-30T10:11:49Z</time>
      </trkpt>
      <trkpt lat="43.95004" lon="7.24338">
        <ele>1532</ele>
        <time>2014-08-30T10:11:52Z</time>
      </trkpt>
      <trkpt lat="43.94994" lon="7.24344">
        <ele>1530</ele>
        <time>2014-08-30T10:11:55Z</time>
      </trkpt>
      <trkpt lat="43.94978" lon="7.24351">
        <ele>1527</ele>
        <time>2014-08-30T10:11:58Z</time>
      </trkpt>
      <trkpt lat="43.94961" lon="7.24351">
        <ele>1525</ele>
        <time>2014-08-30T10:12:01Z</time>
      </trkpt>
      <trkpt lat="43.94952" lon="7.24343">
        <ele>1523</ele>
        <time>2014-08-30T10:12:04Z</time>
      </trkpt>
      <trkpt lat="43.94944" lon="7.24338">
        <ele>1523</ele>
        <time>2014-08-30T10:12:07Z</time>
      </trkpt>
      <trkpt lat="43.94938" lon="7.24333">
        <ele>1523</ele>
        <time>2014-08-30T10:12:10Z</time>
      </trkpt>
      <trkpt lat="43.94931" lon="7.24331">
        <ele>1523</ele>
        <time>2014-08-30T10:12:13Z</time>
      </trkpt>
      <trkpt lat="43.94921" lon="7.2434">
        <ele>1523</ele>
        <time>2014-08-30T10:12:16Z</time>
      </trkpt>
      <trkpt lat="43.9491" lon="7.24354">
        <ele>1521</ele>
        <time>2014-08-30T10:12:19Z</time>
      </trkpt>
      <trkpt lat="43.94901" lon="7.24368">
        <ele>1518</ele>
        <time>2014-08-30T10:12:22Z</time>
      </trkpt>
      <trkpt lat="43.9489" lon="7.24378">
        <ele>1516</ele>
        <time>2014-08-30T10:12:25Z</time>
      </trkpt>
      <trkpt lat="43.94884" lon="7.24381">
        <ele>1513</ele>
        <time>2014-08-30T10:12:28Z</time>
      </trkpt>
      <trkpt lat="43.94879" lon="7.24383">
        <ele>1511</ele>
        <time>2014-08-30T10:12:31Z</time>
      </trkpt>
      <trkpt lat="43.94872" lon="7.24387">
        <ele>1509</ele>
        <time>2014-08-30T10:12:34Z</time>
      </trkpt>
      <trkpt lat="43.94865" lon="7.24388">
        <ele>1507</ele>
        <time>2014-08-30T10:12:37Z</time>
      </trkpt>
      <trkpt lat="43.9486" lon="7.24387">
        <ele>1504</ele>
        <time>2014-08-30T10:12:40Z</time>
      </trkpt>
      <trkpt lat="43.94864" lon="7.24383">
        <ele>1503</ele>
        <time>2014-08-30T10:12:43Z</time>
      </trkpt>
      <trkpt lat="43.94867" lon="7.24377">
        <ele>1501</ele>
        <time>2014-08-30T10:12:46Z</time>
      </trkpt>
      <trkpt lat="43.94868" lon="7.24375">
        <ele>1500</ele>
        <time>2014-08-30T10:12:49Z</time>
      </trkpt>
      <trkpt lat="43.94868" lon="7.24372">
        <ele>1499</ele>
        <time>2014-08-30T10:12:55Z</time>
      </trkpt>
      <trkpt lat="43.94866" lon="7.24372">
        <ele>1498</ele>
        <time>2014-08-30T10:12:58Z</time>
      </trkpt>
      <trkpt lat="43.94867" lon="7.24371">
        <ele>1497</ele>
        <time>2014-08-30T10:13:01Z</time>
      </trkpt>
      <trkpt lat="43.9487" lon="7.24363">
        <ele>1496</ele>
        <time>2014-08-30T10:13:04Z</time>
      </trkpt>
      <trkpt lat="43.94874" lon="7.2435">
        <ele>1495</ele>
        <time>2014-08-30T10:13:07Z</time>
      </trkpt>
      <trkpt lat="43.94876" lon="7.24339">
        <ele>1493</ele>
        <time>2014-08-30T10:13:10Z</time>
      </trkpt>
      <trkpt lat="43.94876" lon="7.24336">
        <ele>1492</ele>
        <time>2014-08-30T10:13:13Z</time>
      </trkpt>
      <trkpt lat="43.94873" lon="7.24337">
        <ele>1491</ele>
        <time>2014-08-30T10:13:16Z</time>
      </trkpt>
      <trkpt lat="43.94868" lon="7.24344">
        <ele>1490</ele>
        <time>2014-08-30T10:13:19Z</time>
      </trkpt>
      <trkpt lat="43.94865" lon="7.24342">
        <ele>1489</ele>
        <time>2014-08-30T10:13:22Z</time>
      </trkpt>
      <trkpt lat="43.94867" lon="7.24342">
        <ele>1488</ele>
        <time>2014-08-30T10:13:25Z</time>
      </trkpt>
      <trkpt lat="43.94866" lon="7.2434">
        <ele>1488</ele>
        <time>2014-08-30T10:13:29Z</time>
      </trkpt>
      <trkpt lat="43.94863" lon="7.24337">
        <ele>1487</ele>
        <time>2014-08-30T10:13:32Z</time>
      </trkpt>
      <trkpt lat="43.94862" lon="7.24338">
        <ele>1486</ele>
        <time>2014-08-30T10:13:35Z</time>
      </trkpt>
      <trkpt lat="43.94859" lon="7.24339">
        <ele>1485</ele>
        <time>2014-08-30T10:13:38Z</time>
      </trkpt>
      <trkpt lat="43.94853" lon="7.24341">
        <ele>1484</ele>
        <time>2014-08-30T10:13:41Z</time>
      </trkpt>
      <trkpt lat="43.94847" lon="7.24349">
        <ele>1482</ele>
        <time>2014-08-30T10:13:44Z</time>
      </trkpt>
      <trkpt lat="43.94838" lon="7.24359">
        <ele>1481</ele>
        <time>2014-08-30T10:13:47Z</time>
      </trkpt>
      <trkpt lat="43.94824" lon="7.24374">
        <ele>1479</ele>
        <time>2014-08-30T10:13:50Z</time>
      </trkpt>
      <trkpt lat="43.94809" lon="7.24386">
        <ele>1476</ele>
        <time>2014-08-30T10:13:53Z</time>
      </trkpt>
      <trkpt lat="43.948" lon="7.24397">
        <ele>1475</ele>
        <time>2014-08-30T10:13:56Z</time>
      </trkpt>
      <trkpt lat="43.94791" lon="7.24406">
        <ele>1475</ele>
        <time>2014-08-30T10:13:59Z</time>
      </trkpt>
      <trkpt lat="43.94779" lon="7.24412">
        <ele>1474</ele>
        <time>2014-08-30T10:14:02Z</time>
      </trkpt>
      <trkpt lat="43.9477" lon="7.24415">
        <ele>1472</ele>
        <time>2014-08-30T10:14:05Z</time>
      </trkpt>
      <trkpt lat="43.94763" lon="7.24421">
        <ele>1470</ele>
        <time>2014-08-30T10:14:08Z</time>
      </trkpt>
      <trkpt lat="43.94763" lon="7.24413">
        <ele>1468</ele>
        <time>2014-08-30T10:14:11Z</time>
      </trkpt>
      <trkpt lat="43.94768" lon="7.24401">
        <ele>1466</ele>
        <time>2014-08-30T10:14:14Z</time>
      </trkpt>
      <trkpt lat="43.9477" lon="7.24392">
        <ele>1464</ele>
        <time>2014-08-30T10:14:17Z</time>
      </trkpt>
      <trkpt lat="43.94765" lon="7.24392">
        <ele>1462</ele>
        <time>2014-08-30T10:14:20Z</time>
      </trkpt>
      <trkpt lat="43.94753" lon="7.24398">
        <ele>1460</ele>
        <time>2014-08-30T10:14:23Z</time>
      </trkpt>
      <trkpt lat="43.94747" lon="7.244">
        <ele>1458</ele>
        <time>2014-08-30T10:14:26Z</time>
      </trkpt>
      <trkpt lat="43.94747" lon="7.24396">
        <ele>1455</ele>
        <time>2014-08-30T10:14:29Z</time>
      </trkpt>
      <trkpt lat="43.94752" lon="7.24385">
        <ele>1454</ele>
        <time>2014-08-30T10:14:32Z</time>
      </trkpt>
      <trkpt lat="43.94756" lon="7.24374">
        <ele>1452</ele>
        <time>2014-08-30T10:14:35Z</time>
      </trkpt>
      <trkpt lat="43.94752" lon="7.24374">
        <ele>1449</ele>
        <time>2014-08-30T10:14:38Z</time>
      </trkpt>
      <trkpt lat="43.9474" lon="7.24377">
        <ele>1447</ele>
        <time>2014-08-30T10:14:41Z</time>
      </trkpt>
      <trkpt lat="43.94732" lon="7.24376">
        <ele>1444</ele>
        <time>2014-08-30T10:14:44Z</time>
      </trkpt>
      <trkpt lat="43.94731" lon="7.24375">
        <ele>1442</ele>
        <time>2014-08-30T10:14:47Z</time>
      </trkpt>
      <trkpt lat="43.94727" lon="7.24377">
        <ele>1440</ele>
        <time>2014-08-30T10:14:50Z</time>
      </trkpt>
      <trkpt lat="43.94723" lon="7.24372">
        <ele>1439</ele>
        <time>2014-08-30T10:14:53Z</time>
      </trkpt>
      <trkpt lat="43.94722" lon="7.24365">
        <ele>1437</ele>
        <time>2014-08-30T10:14:56Z</time>
      </trkpt>
      <trkpt lat="43.94726" lon="7.24364">
        <ele>1435</ele>
        <time>2014-08-30T10:14:59Z</time>
      </trkpt>
      <trkpt lat="43.94722" lon="7.24357">
        <ele>1433</ele>
        <time>2014-08-30T10:15:02Z</time>
      </trkpt>
      <trkpt lat="43.94714" lon="7.24354">
        <ele>1432</ele>
        <time>2014-08-30T10:15:05Z</time>
      </trkpt>
      <trkpt lat="43.94705" lon="7.24357">
        <ele>1429</ele>
        <time>2014-08-30T10:15:08Z</time>
      </trkpt>
      <trkpt lat="43.94698" lon="7.24362">
        <ele>1427</ele>
        <time>2014-08-30T10:15:11Z</time>
      </trkpt>
      <trkpt lat="43.94697" lon="7.24356">
        <ele>1425</ele>
        <time>2014-08-30T10:15:14Z</time>
      </trkpt>
      <trkpt lat="43.94695" lon="7.24353">
        <ele>1423</ele>
        <time>2014-08-30T10:15:17Z</time>
      </trkpt>
      <trkpt lat="43.9469" lon="7.2436">
        <ele>1421</ele>
        <time>2014-08-30T10:15:20Z</time>
      </trkpt>
      <trkpt lat="43.94684" lon="7.24354">
        <ele>1420</ele>
        <time>2014-08-30T10:15:23Z</time>
      </trkpt>
      <trkpt lat="43.94679" lon="7.24352">
        <ele>1418</ele>
        <time>2014-08-30T10:15:26Z</time>
      </trkpt>
      <trkpt lat="43.94676" lon="7.2435">
        <ele>1417</ele>
        <time>2014-08-30T10:15:29Z</time>
      </trkpt>
      <trkpt lat="43.94672" lon="7.24348">
        <ele>1415</ele>
        <time>2014-08-30T10:15:32Z</time>
      </trkpt>
      <trkpt lat="43.9467" lon="7.24342">
        <ele>1414</ele>
        <time>2014-08-30T10:15:35Z</time>
      </trkpt>
      <trkpt lat="43.94672" lon="7.24338">
        <ele>1413</ele>
        <time>2014-08-30T10:15:38Z</time>
      </trkpt>
      <trkpt lat="43.94668" lon="7.24342">
        <ele>1412</ele>
        <time>2014-08-30T10:15:41Z</time>
      </trkpt>
      <trkpt lat="43.9466" lon="7.24344">
        <ele>1411</ele>
        <time>2014-08-30T10:15:44Z</time>
      </trkpt>
      <trkpt lat="43.94661" lon="7.24335">
        <ele>1409</ele>
        <time>2014-08-30T10:15:47Z</time>
      </trkpt>
      <trkpt lat="43.94658" lon="7.24336">
        <ele>1408</ele>
        <time>2014-08-30T10:15:50Z</time>
      </trkpt>
      <trkpt lat="43.94654" lon="7.24332">
        <ele>1406</ele>
        <time>2014-08-30T10:15:56Z</time>
      </trkpt>
      <trkpt lat="43.94656" lon="7.24322">
        <ele>1405</ele>
        <time>2014-08-30T10:15:59Z</time>
      </trkpt>
      <trkpt lat="43.94651" lon="7.24321">
        <ele>1403</ele>
        <time>2014-08-30T10:16:02Z</time>
      </trkpt>
      <trkpt lat="43.94643" lon="7.24322">
        <ele>1401</ele>
        <time>2014-08-30T10:16:05Z</time>
      </trkpt>
      <trkpt lat="43.94638" lon="7.24323">
        <ele>1399</ele>
        <time>2014-08-30T10:16:08Z</time>
      </trkpt>
      <trkpt lat="43.94632" lon="7.2432">
        <ele>1397</ele>
        <time>2014-08-30T10:16:11Z</time>
      </trkpt>
      <trkpt lat="43.94634" lon="7.24315">
        <ele>1396</ele>
        <time>2014-08-30T10:16:14Z</time>
      </trkpt>
      <trkpt lat="43.94637" lon="7.24308">
        <ele>1394</ele>
        <time>2014-08-30T10:16:17Z</time>
      </trkpt>
      <trkpt lat="43.94636" lon="7.243">
        <ele>1393</ele>
        <time>2014-08-30T10:16:20Z</time>
      </trkpt>
      <trkpt lat="43.94635" lon="7.24295">
        <ele>1392</ele>
        <time>2014-08-30T10:16:23Z</time>
      </trkpt>
      <trkpt lat="43.94628" lon="7.24291">
        <ele>1390</ele>
        <time>2014-08-30T10:16:26Z</time>
      </trkpt>
      <trkpt lat="43.94619" lon="7.24289">
        <ele>1388</ele>
        <time>2014-08-30T10:16:29Z</time>
      </trkpt>
      <trkpt lat="43.94607" lon="7.24279">
        <ele>1386</ele>
        <time>2014-08-30T10:16:32Z</time>
      </trkpt>
      <trkpt lat="43.94594" lon="7.24276">
        <ele>1383</ele>
        <time>2014-08-30T10:16:35Z</time>
      </trkpt>
      <trkpt lat="43.94585" lon="7.2426">
        <ele>1381</ele>
        <time>2014-08-30T10:16:38Z</time>
      </trkpt>
      <trkpt lat="43.94579" lon="7.24239">
        <ele>1380</ele>
        <time>2014-08-30T10:16:41Z</time>
      </trkpt>
      <trkpt lat="43.94572" lon="7.24228">
        <ele>1380</ele>
        <time>2014-08-30T10:16:44Z</time>
      </trkpt>
      <trkpt lat="43.94565" lon="7.24219">
        <ele>1380</ele>
        <time>2014-08-30T10:16:47Z</time>
      </trkpt>
      <trkpt lat="43.94554" lon="7.24207">
        <ele>1379</ele>
        <time>2014-08-30T10:16:50Z</time>
      </trkpt>
      <trkpt lat="43.9455" lon="7.24193">
        <ele>1377</ele>
        <time>2014-08-30T10:16:53Z</time>
      </trkpt>
      <trkpt lat="43.9455" lon="7.24188">
        <ele>1377</ele>
        <time>2014-08-30T10:16:56Z</time>
      </trkpt>
      <trkpt lat="43.94549" lon="7.24185">
        <ele>1377</ele>
        <time>2014-08-30T10:16:59Z</time>
      </trkpt>
      <trkpt lat="43.94549" lon="7.24183">
        <ele>1377</ele>
        <time>2014-08-30T10:17:02Z</time>
      </trkpt>
      <trkpt lat="43.94548" lon="7.2418">
        <ele>1377</ele>
        <time>2014-08-30T10:17:05Z</time>
      </trkpt>
      <trkpt lat="43.9454" lon="7.24167">
        <ele>1377</ele>
        <time>2014-08-30T10:17:08Z</time>
      </trkpt>
      <trkpt lat="43.94537" lon="7.24145">
        <ele>1376</ele>
        <time>2014-08-30T10:17:11Z</time>
      </trkpt>
      <trkpt lat="43.9453" lon="7.2413">
        <ele>1375</ele>
        <time>2014-08-30T10:17:14Z</time>
      </trkpt>
      <trkpt lat="43.94528" lon="7.24118">
        <ele>1375</ele>
        <time>2014-08-30T10:17:17Z</time>
      </trkpt>
      <trkpt lat="43.94517" lon="7.24106">
        <ele>1375</ele>
        <time>2014-08-30T10:17:20Z</time>
      </trkpt>
      <trkpt lat="43.94513" lon="7.24095">
        <ele>1375</ele>
        <time>2014-08-30T10:17:23Z</time>
      </trkpt>
      <trkpt lat="43.94512" lon="7.24085">
        <ele>1375</ele>
        <time>2014-08-30T10:17:26Z</time>
      </trkpt>
      <trkpt lat="43.94501" lon="7.24072">
        <ele>1375</ele>
        <time>2014-08-30T10:17:29Z</time>
      </trkpt>
      <trkpt lat="43.94489" lon="7.2406">
        <ele>1375</ele>
        <time>2014-08-30T10:17:32Z</time>
      </trkpt>
      <trkpt lat="43.94486" lon="7.24051">
        <ele>1375</ele>
        <time>2014-08-30T10:17:35Z</time>
      </trkpt>
      <trkpt lat="43.94487" lon="7.24043">
        <ele>1375</ele>
        <time>2014-08-30T10:17:38Z</time>
      </trkpt>
      <trkpt lat="43.94491" lon="7.24023">
        <ele>1375</ele>
        <time>2014-08-30T10:17:41Z</time>
      </trkpt>
      <trkpt lat="43.94499" lon="7.24004">
        <ele>1375</ele>
        <time>2014-08-30T10:17:44Z</time>
      </trkpt>
      <trkpt lat="43.94501" lon="7.2399">
        <ele>1375</ele>
        <time>2014-08-30T10:17:47Z</time>
      </trkpt>
      <trkpt lat="43.9451" lon="7.23977">
        <ele>1375</ele>
        <time>2014-08-30T10:17:50Z</time>
      </trkpt>
      <trkpt lat="43.94513" lon="7.23981">
        <ele>1375</ele>
        <time>2014-08-30T10:17:53Z</time>
      </trkpt>
      <trkpt lat="43.94501" lon="7.23986">
        <ele>1375</ele>
        <time>2014-08-30T10:17:56Z</time>
      </trkpt>
      <trkpt lat="43.94488" lon="7.23992">
        <ele>1375</ele>
        <time>2014-08-30T10:17:59Z</time>
      </trkpt>
      <trkpt lat="43.94473" lon="7.23999">
        <ele>1373</ele>
        <time>2014-08-30T10:18:02Z</time>
      </trkpt>
      <trkpt lat="43.94458" lon="7.24007">
        <ele>1372</ele>
        <time>2014-08-30T10:18:05Z</time>
      </trkpt>
      <trkpt lat="43.9444" lon="7.24012">
        <ele>1370</ele>
        <time>2014-08-30T10:18:08Z</time>
      </trkpt>
      <trkpt lat="43.94419" lon="7.24012">
        <ele>1368</ele>
        <time>2014-08-30T10:18:11Z</time>
      </trkpt>
      <trkpt lat="43.94406" lon="7.24012">
        <ele>1367</ele>
        <time>2014-08-30T10:18:14Z</time>
      </trkpt>
      <trkpt lat="43.94397" lon="7.24009">
        <ele>1368</ele>
        <time>2014-08-30T10:18:17Z</time>
      </trkpt>
      <trkpt lat="43.94384" lon="7.24005">
        <ele>1368</ele>
        <time>2014-08-30T10:18:20Z</time>
      </trkpt>
      <trkpt lat="43.94366" lon="7.24008">
        <ele>1368</ele>
        <time>2014-08-30T10:18:23Z</time>
      </trkpt>
      <trkpt lat="43.94348" lon="7.2401">
        <ele>1368</ele>
        <time>2014-08-30T10:18:26Z</time>
      </trkpt>
      <trkpt lat="43.94332" lon="7.24009">
        <ele>1367</ele>
        <time>2014-08-30T10:18:29Z</time>
      </trkpt>
      <trkpt lat="43.94316" lon="7.24009">
        <ele>1366</ele>
        <time>2014-08-30T10:18:32Z</time>
      </trkpt>
      <trkpt lat="43.94299" lon="7.24007">
        <ele>1366</ele>
        <time>2014-08-30T10:18:35Z</time>
      </trkpt>
      <trkpt lat="43.94285" lon="7.24001">
        <ele>1365</ele>
        <time>2014-08-30T10:18:38Z</time>
      </trkpt>
      <trkpt lat="43.94272" lon="7.23993">
        <ele>1363</ele>
        <time>2014-08-30T10:18:41Z</time>
      </trkpt>
      <trkpt lat="43.94249" lon="7.23988">
        <ele>1362</ele>
        <time>2014-08-30T10:18:44Z</time>
      </trkpt>
      <trkpt lat="43.94231" lon="7.23988">
        <ele>1361</ele>
        <time>2014-08-30T10:18:47Z</time>
      </trkpt>
      <trkpt lat="43.94222" lon="7.23968">
        <ele>1359</ele>
        <time>2014-08-30T10:18:50Z</time>
      </trkpt>
      <trkpt lat="43.94212" lon="7.23939">
        <ele>1358</ele>
        <time>2014-08-30T10:18:53Z</time>
      </trkpt>
      <trkpt lat="43.94213" lon="7.23907">
        <ele>1356</ele>
        <time>2014-08-30T10:18:56Z</time>
      </trkpt>
      <trkpt lat="43.94208" lon="7.23873">
        <ele>1354</ele>
        <time>2014-08-30T10:18:59Z</time>
      </trkpt>
      <trkpt lat="43.94214" lon="7.23846">
        <ele>1352</ele>
        <time>2014-08-30T10:19:02Z</time>
      </trkpt>
      <trkpt lat="43.94217" lon="7.23814">
        <ele>1350</ele>
        <time>2014-08-30T10:19:05Z</time>
      </trkpt>
      <trkpt lat="43.94221" lon="7.23778">
        <ele>1347</ele>
        <time>2014-08-30T10:19:08Z</time>
      </trkpt>
      <trkpt lat="43.94232" lon="7.23748">
        <ele>1345</ele>
        <time>2014-08-30T10:19:11Z</time>
      </trkpt>
      <trkpt lat="43.94243" lon="7.23724">
        <ele>1342</ele>
        <time>2014-08-30T10:19:14Z</time>
      </trkpt>
      <trkpt lat="43.94235" lon="7.23718">
        <ele>1340</ele>
        <time>2014-08-30T10:19:17Z</time>
      </trkpt>
      <trkpt lat="43.94219" lon="7.23735">
        <ele>1338</ele>
        <time>2014-08-30T10:19:20Z</time>
      </trkpt>
      <trkpt lat="43.94206" lon="7.23763">
        <ele>1337</ele>
        <time>2014-08-30T10:19:23Z</time>
      </trkpt>
      <trkpt lat="43.9419" lon="7.2379">
        <ele>1334</ele>
        <time>2014-08-30T10:19:26Z</time>
      </trkpt>
      <trkpt lat="43.94176" lon="7.23819">
        <ele>1332</ele>
        <time>2014-08-30T10:19:29Z</time>
      </trkpt>
      <trkpt lat="43.94166" lon="7.23847">
        <ele>1329</ele>
        <time>2014-08-30T10:19:32Z</time>
      </trkpt>
      <trkpt lat="43.94151" lon="7.23871">
        <ele>1326</ele>
        <time>2014-08-30T10:19:35Z</time>
      </trkpt>
      <trkpt lat="43.94134" lon="7.23877">
        <ele>1324</ele>
        <time>2014-08-30T10:19:38Z</time>
      </trkpt>
      <trkpt lat="43.94115" lon="7.23872">
        <ele>1322</ele>
        <time>2014-08-30T10:19:41Z</time>
      </trkpt>
      <trkpt lat="43.94091" lon="7.23868">
        <ele>1319</ele>
        <time>2014-08-30T10:19:44Z</time>
      </trkpt>
      <trkpt lat="43.94065" lon="7.23856">
        <ele>1316</ele>
        <time>2014-08-30T10:19:47Z</time>
      </trkpt>
      <trkpt lat="43.94041" lon="7.23843">
        <ele>1313</ele>
        <time>2014-08-30T10:19:50Z</time>
      </trkpt>
      <trkpt lat="43.94027" lon="7.23844">
        <ele>1310</ele>
        <time>2014-08-30T10:19:53Z</time>
      </trkpt>
      <trkpt lat="43.94023" lon="7.23867">
        <ele>1308</ele>
        <time>2014-08-30T10:19:56Z</time>
      </trkpt>
      <trkpt lat="43.94023" lon="7.23899">
        <ele>1306</ele>
        <time>2014-08-30T10:19:59Z</time>
      </trkpt>
      <trkpt lat="43.94017" lon="7.23923">
        <ele>1304</ele>
        <time>2014-08-30T10:20:02Z</time>
      </trkpt>
      <trkpt lat="43.93999" lon="7.23939">
        <ele>1301</ele>
        <time>2014-08-30T10:20:05Z</time>
      </trkpt>
      <trkpt lat="43.93979" lon="7.23961">
        <ele>1298</ele>
        <time>2014-08-30T10:20:08Z</time>
      </trkpt>
      <trkpt lat="43.93962" lon="7.23972">
        <ele>1295</ele>
        <time>2014-08-30T10:20:11Z</time>
      </trkpt>
      <trkpt lat="43.93943" lon="7.23958">
        <ele>1293</ele>
        <time>2014-08-30T10:20:14Z</time>
      </trkpt>
      <trkpt lat="43.93925" lon="7.23954">
        <ele>1289</ele>
        <time>2014-08-30T10:20:17Z</time>
      </trkpt>
      <trkpt lat="43.93911" lon="7.23963">
        <ele>1286</ele>
        <time>2014-08-30T10:20:20Z</time>
      </trkpt>
      <trkpt lat="43.93896" lon="7.23972">
        <ele>1285</ele>
        <time>2014-08-30T10:20:23Z</time>
      </trkpt>
      <trkpt lat="43.93884" lon="7.23975">
        <ele>1284</ele>
        <time>2014-08-30T10:20:26Z</time>
      </trkpt>
      <trkpt lat="43.93866" lon="7.23982">
        <ele>1284</ele>
        <time>2014-08-30T10:20:29Z</time>
      </trkpt>
      <trkpt lat="43.93846" lon="7.23989">
        <ele>1283</ele>
        <time>2014-08-30T10:20:32Z</time>
      </trkpt>
      <trkpt lat="43.93831" lon="7.23995">
        <ele>1282</ele>
        <time>2014-08-30T10:20:35Z</time>
      </trkpt>
      <trkpt lat="43.93816" lon="7.23999">
        <ele>1282</ele>
        <time>2014-08-30T10:20:38Z</time>
      </trkpt>
      <trkpt lat="43.93803" lon="7.23993">
        <ele>1282</ele>
        <time>2014-08-30T10:20:41Z</time>
      </trkpt>
      <trkpt lat="43.9379" lon="7.23978">
        <ele>1281</ele>
        <time>2014-08-30T10:20:44Z</time>
      </trkpt>
      <trkpt lat="43.93779" lon="7.23981">
        <ele>1280</ele>
        <time>2014-08-30T10:20:47Z</time>
      </trkpt>
      <trkpt lat="43.93766" lon="7.23989">
        <ele>1279</ele>
        <time>2014-08-30T10:20:50Z</time>
      </trkpt>
      <trkpt lat="43.93751" lon="7.2398">
        <ele>1277</ele>
        <time>2014-08-30T10:20:53Z</time>
      </trkpt>
      <trkpt lat="43.93741" lon="7.23986">
        <ele>1275</ele>
        <time>2014-08-30T10:20:56Z</time>
      </trkpt>
      <trkpt lat="43.9373" lon="7.2401">
        <ele>1273</ele>
        <time>2014-08-30T10:20:59Z</time>
      </trkpt>
      <trkpt lat="43.93726" lon="7.24032">
        <ele>1271</ele>
        <time>2014-08-30T10:21:02Z</time>
      </trkpt>
      <trkpt lat="43.93724" lon="7.24067">
        <ele>1269</ele>
        <time>2014-08-30T10:21:05Z</time>
      </trkpt>
      <trkpt lat="43.93723" lon="7.24084">
        <ele>1267</ele>
        <time>2014-08-30T10:21:08Z</time>
      </trkpt>
      <trkpt lat="43.93733" lon="7.241">
        <ele>1265</ele>
        <time>2014-08-30T10:21:11Z</time>
      </trkpt>
      <trkpt lat="43.93738" lon="7.24121">
        <ele>1263</ele>
        <time>2014-08-30T10:21:14Z</time>
      </trkpt>
      <trkpt lat="43.9374" lon="7.24146">
        <ele>1262</ele>
        <time>2014-08-30T10:21:17Z</time>
      </trkpt>
      <trkpt lat="43.93741" lon="7.24163">
        <ele>1261</ele>
        <time>2014-08-30T10:21:20Z</time>
      </trkpt>
      <trkpt lat="43.93732" lon="7.24181">
        <ele>1259</ele>
        <time>2014-08-30T10:21:23Z</time>
      </trkpt>
      <trkpt lat="43.93719" lon="7.24199">
        <ele>1258</ele>
        <time>2014-08-30T10:21:26Z</time>
      </trkpt>
      <trkpt lat="43.93716" lon="7.2422">
        <ele>1256</ele>
        <time>2014-08-30T10:21:29Z</time>
      </trkpt>
      <trkpt lat="43.93707" lon="7.24239">
        <ele>1254</ele>
        <time>2014-08-30T10:21:32Z</time>
      </trkpt>
      <trkpt lat="43.93692" lon="7.24255">
        <ele>1252</ele>
        <time>2014-08-30T10:21:35Z</time>
      </trkpt>
      <trkpt lat="43.93675" lon="7.24259">
        <ele>1251</ele>
        <time>2014-08-30T10:21:38Z</time>
      </trkpt>
      <trkpt lat="43.93661" lon="7.24256">
        <ele>1250</ele>
        <time>2014-08-30T10:21:41Z</time>
      </trkpt>
      <trkpt lat="43.93647" lon="7.24274">
        <ele>1249</ele>
        <time>2014-08-30T10:21:44Z</time>
      </trkpt>
      <trkpt lat="43.93639" lon="7.24298">
        <ele>1247</ele>
        <time>2014-08-30T10:21:47Z</time>
      </trkpt>
      <trkpt lat="43.93622" lon="7.24306">
        <ele>1245</ele>
        <time>2014-08-30T10:21:50Z</time>
      </trkpt>
      <trkpt lat="43.93609" lon="7.24309">
        <ele>1245</ele>
        <time>2014-08-30T10:21:53Z</time>
      </trkpt>
      <trkpt lat="43.93602" lon="7.24326">
        <ele>1244</ele>
        <time>2014-08-30T10:21:56Z</time>
      </trkpt>
      <trkpt lat="43.93596" lon="7.24333">
        <ele>1243</ele>
        <time>2014-08-30T10:21:59Z</time>
      </trkpt>
      <trkpt lat="43.93583" lon="7.24334">
        <ele>1243</ele>
        <time>2014-08-30T10:22:02Z</time>
      </trkpt>
      <trkpt lat="43.93567" lon="7.24332">
        <ele>1241</ele>
        <time>2014-08-30T10:22:05Z</time>
      </trkpt>
      <trkpt lat="43.93556" lon="7.24332">
        <ele>1240</ele>
        <time>2014-08-30T10:22:08Z</time>
      </trkpt>
      <trkpt lat="43.93543" lon="7.24332">
        <ele>1239</ele>
        <time>2014-08-30T10:22:11Z</time>
      </trkpt>
      <trkpt lat="43.9353" lon="7.24327">
        <ele>1238</ele>
        <time>2014-08-30T10:22:14Z</time>
      </trkpt>
      <trkpt lat="43.93516" lon="7.2433">
        <ele>1237</ele>
        <time>2014-08-30T10:22:17Z</time>
      </trkpt>
      <trkpt lat="43.93505" lon="7.24344">
        <ele>1237</ele>
        <time>2014-08-30T10:22:20Z</time>
      </trkpt>
      <trkpt lat="43.93496" lon="7.24342">
        <ele>1237</ele>
        <time>2014-08-30T10:22:23Z</time>
      </trkpt>
      <trkpt lat="43.93487" lon="7.2434">
        <ele>1237</ele>
        <time>2014-08-30T10:22:26Z</time>
      </trkpt>
      <trkpt lat="43.93468" lon="7.24353">
        <ele>1237</ele>
        <time>2014-08-30T10:22:29Z</time>
      </trkpt>
      <trkpt lat="43.9345" lon="7.24352">
        <ele>1236</ele>
        <time>2014-08-30T10:22:32Z</time>
      </trkpt>
      <trkpt lat="43.93432" lon="7.24347">
        <ele>1235</ele>
        <time>2014-08-30T10:22:35Z</time>
      </trkpt>
      <trkpt lat="43.93458" lon="7.24286">
        <ele>1235</ele>
        <time>2014-08-30T10:22:38Z</time>
      </trkpt>
      <trkpt lat="43.9343" lon="7.24269">
        <ele>1234</ele>
        <time>2014-08-30T10:22:41Z</time>
      </trkpt>
      <trkpt lat="43.93412" lon="7.24254">
        <ele>1232</ele>
        <time>2014-08-30T10:22:44Z</time>
      </trkpt>
      <trkpt lat="43.93405" lon="7.24259">
        <ele>1232</ele>
        <time>2014-08-30T10:22:47Z</time>
      </trkpt>
      <trkpt lat="43.93386" lon="7.24285">
        <ele>1232</ele>
        <time>2014-08-30T10:22:50Z</time>
      </trkpt>
      <trkpt lat="43.93372" lon="7.24321">
        <ele>1231</ele>
        <time>2014-08-30T10:22:53Z</time>
      </trkpt>
      <trkpt lat="43.93363" lon="7.24365">
        <ele>1227</ele>
        <time>2014-08-30T10:22:56Z</time>
      </trkpt>
      <trkpt lat="43.93358" lon="7.24387">
        <ele>1225</ele>
        <time>2014-08-30T10:22:59Z</time>
      </trkpt>
      <trkpt lat="43.93348" lon="7.24401">
        <ele>1224</ele>
        <time>2014-08-30T10:23:02Z</time>
      </trkpt>
      <trkpt lat="43.93335" lon="7.244">
        <ele>1222</ele>
        <time>2014-08-30T10:23:05Z</time>
      </trkpt>
      <trkpt lat="43.93329" lon="7.24401">
        <ele>1221</ele>
        <time>2014-08-30T10:23:08Z</time>
      </trkpt>
      <trkpt lat="43.93315" lon="7.24413">
        <ele>1218</ele>
        <time>2014-08-30T10:23:11Z</time>
      </trkpt>
      <trkpt lat="43.93304" lon="7.24422">
        <ele>1216</ele>
        <time>2014-08-30T10:23:14Z</time>
      </trkpt>
      <trkpt lat="43.93295" lon="7.24426">
        <ele>1214</ele>
        <time>2014-08-30T10:23:17Z</time>
      </trkpt>
      <trkpt lat="43.93286" lon="7.24429">
        <ele>1211</ele>
        <time>2014-08-30T10:23:20Z</time>
      </trkpt>
      <trkpt lat="43.93285" lon="7.24434">
        <ele>1209</ele>
        <time>2014-08-30T10:23:23Z</time>
      </trkpt>
      <trkpt lat="43.93279" lon="7.24447">
        <ele>1207</ele>
        <time>2014-08-30T10:23:26Z</time>
      </trkpt>
      <trkpt lat="43.93268" lon="7.24465">
        <ele>1205</ele>
        <time>2014-08-30T10:23:29Z</time>
      </trkpt>
      <trkpt lat="43.93257" lon="7.24477">
        <ele>1202</ele>
        <time>2014-08-30T10:23:32Z</time>
      </trkpt>
      <trkpt lat="43.93251" lon="7.24483">
        <ele>1199</ele>
        <time>2014-08-30T10:23:35Z</time>
      </trkpt>
      <trkpt lat="43.93247" lon="7.24491">
        <ele>1196</ele>
        <time>2014-08-30T10:23:38Z</time>
      </trkpt>
      <trkpt lat="43.93234" lon="7.245">
        <ele>1193</ele>
        <time>2014-08-30T10:23:41Z</time>
      </trkpt>
      <trkpt lat="43.93222" lon="7.2451">
        <ele>1190</ele>
        <time>2014-08-30T10:23:44Z</time>
      </trkpt>
      <trkpt lat="43.93215" lon="7.24528">
        <ele>1187</ele>
        <time>2014-08-30T10:23:47Z</time>
      </trkpt>
      <trkpt lat="43.93204" lon="7.2455">
        <ele>1183</ele>
        <time>2014-08-30T10:23:50Z</time>
      </trkpt>
      <trkpt lat="43.93196" lon="7.24561">
        <ele>1180</ele>
        <time>2014-08-30T10:23:53Z</time>
      </trkpt>
      <trkpt lat="43.93188" lon="7.2457">
        <ele>1178</ele>
        <time>2014-08-30T10:23:56Z</time>
      </trkpt>
      <trkpt lat="43.93174" lon="7.24582">
        <ele>1175</ele>
        <time>2014-08-30T10:23:59Z</time>
      </trkpt>
      <trkpt lat="43.93165" lon="7.24585">
        <ele>1173</ele>
        <time>2014-08-30T10:24:02Z</time>
      </trkpt>
      <trkpt lat="43.93158" lon="7.24586">
        <ele>1171</ele>
        <time>2014-08-30T10:24:05Z</time>
      </trkpt>
      <trkpt lat="43.93147" lon="7.24581">
        <ele>1168</ele>
        <time>2014-08-30T10:24:08Z</time>
      </trkpt>
      <trkpt lat="43.93139" lon="7.24572">
        <ele>1166</ele>
        <time>2014-08-30T10:24:11Z</time>
      </trkpt>
      <trkpt lat="43.93131" lon="7.24562">
        <ele>1164</ele>
        <time>2014-08-30T10:24:14Z</time>
      </trkpt>
      <trkpt lat="43.93121" lon="7.2456">
        <ele>1163</ele>
        <time>2014-08-30T10:24:17Z</time>
      </trkpt>
      <trkpt lat="43.93111" lon="7.24559">
        <ele>1161</ele>
        <time>2014-08-30T10:24:20Z</time>
      </trkpt>
      <trkpt lat="43.93095" lon="7.24557">
        <ele>1158</ele>
        <time>2014-08-30T10:24:23Z</time>
      </trkpt>
      <trkpt lat="43.93083" lon="7.24552">
        <ele>1158</ele>
        <time>2014-08-30T10:24:26Z</time>
      </trkpt>
      <trkpt lat="43.93075" lon="7.24545">
        <ele>1158</ele>
        <time>2014-08-30T10:24:29Z</time>
      </trkpt>
      <trkpt lat="43.93069" lon="7.2453">
        <ele>1157</ele>
        <time>2014-08-30T10:24:32Z</time>
      </trkpt>
      <trkpt lat="43.9306" lon="7.2452">
        <ele>1155</ele>
        <time>2014-08-30T10:24:35Z</time>
      </trkpt>
      <trkpt lat="43.93048" lon="7.24513">
        <ele>1154</ele>
        <time>2014-08-30T10:24:38Z</time>
      </trkpt>
      <trkpt lat="43.93036" lon="7.24507">
        <ele>1151</ele>
        <time>2014-08-30T10:24:41Z</time>
      </trkpt>
      <trkpt lat="43.93022" lon="7.24512">
        <ele>1148</ele>
        <time>2014-08-30T10:24:44Z</time>
      </trkpt>
      <trkpt lat="43.93008" lon="7.24521">
        <ele>1146</ele>
        <time>2014-08-30T10:24:47Z</time>
      </trkpt>
      <trkpt lat="43.93" lon="7.24521">
        <ele>1144</ele>
        <time>2014-08-30T10:24:50Z</time>
      </trkpt>
      <trkpt lat="43.92995" lon="7.24515">
        <ele>1142</ele>
        <time>2014-08-30T10:24:53Z</time>
      </trkpt>
      <trkpt lat="43.92988" lon="7.24508">
        <ele>1140</ele>
        <time>2014-08-30T10:24:56Z</time>
      </trkpt>
      <trkpt lat="43.92977" lon="7.24502">
        <ele>1138</ele>
        <time>2014-08-30T10:24:59Z</time>
      </trkpt>
      <trkpt lat="43.92967" lon="7.24498">
        <ele>1136</ele>
        <time>2014-08-30T10:25:02Z</time>
      </trkpt>
      <trkpt lat="43.92958" lon="7.24494">
        <ele>1134</ele>
        <time>2014-08-30T10:25:05Z</time>
      </trkpt>
      <trkpt lat="43.92948" lon="7.24485">
        <ele>1133</ele>
        <time>2014-08-30T10:25:08Z</time>
      </trkpt>
      <trkpt lat="43.92937" lon="7.24486">
        <ele>1131</ele>
        <time>2014-08-30T10:25:11Z</time>
      </trkpt>
      <trkpt lat="43.92928" lon="7.24495">
        <ele>1130</ele>
        <time>2014-08-30T10:25:14Z</time>
      </trkpt>
      <trkpt lat="43.9292" lon="7.24496">
        <ele>1129</ele>
        <time>2014-08-30T10:25:17Z</time>
      </trkpt>
      <trkpt lat="43.92907" lon="7.24494">
        <ele>1127</ele>
        <time>2014-08-30T10:25:20Z</time>
      </trkpt>
      <trkpt lat="43.92896" lon="7.24494">
        <ele>1127</ele>
        <time>2014-08-30T10:25:23Z</time>
      </trkpt>
      <trkpt lat="43.9289" lon="7.24505">
        <ele>1126</ele>
        <time>2014-08-30T10:25:26Z</time>
      </trkpt>
      <trkpt lat="43.92879" lon="7.24513">
        <ele>1125</ele>
        <time>2014-08-30T10:25:29Z</time>
      </trkpt>
      <trkpt lat="43.92868" lon="7.24513">
        <ele>1125</ele>
        <time>2014-08-30T10:25:32Z</time>
      </trkpt>
      <trkpt lat="43.92858" lon="7.24522">
        <ele>1124</ele>
        <time>2014-08-30T10:25:35Z</time>
      </trkpt>
      <trkpt lat="43.92851" lon="7.24529">
        <ele>1123</ele>
        <time>2014-08-30T10:25:38Z</time>
      </trkpt>
      <trkpt lat="43.92845" lon="7.24525">
        <ele>1121</ele>
        <time>2014-08-30T10:25:41Z</time>
      </trkpt>
      <trkpt lat="43.92843" lon="7.24515">
        <ele>1119</ele>
        <time>2014-08-30T10:25:44Z</time>
      </trkpt>
      <trkpt lat="43.92834" lon="7.24511">
        <ele>1118</ele>
        <time>2014-08-30T10:25:47Z</time>
      </trkpt>
      <trkpt lat="43.92818" lon="7.24515">
        <ele>1116</ele>
        <time>2014-08-30T10:25:50Z</time>
      </trkpt>
      <trkpt lat="43.928" lon="7.24521">
        <ele>1114</ele>
        <time>2014-08-30T10:25:53Z</time>
      </trkpt>
      <trkpt lat="43.92788" lon="7.24524">
        <ele>1112</ele>
        <time>2014-08-30T10:25:56Z</time>
      </trkpt>
      <trkpt lat="43.92774" lon="7.24524">
        <ele>1111</ele>
        <time>2014-08-30T10:25:59Z</time>
      </trkpt>
      <trkpt lat="43.92761" lon="7.24526">
        <ele>1110</ele>
        <time>2014-08-30T10:26:02Z</time>
      </trkpt>
      <trkpt lat="43.92757" lon="7.2453">
        <ele>1109</ele>
        <time>2014-08-30T10:26:05Z</time>
      </trkpt>
      <trkpt lat="43.92757" lon="7.24532">
        <ele>1108</ele>
        <time>2014-08-30T10:26:08Z</time>
      </trkpt>
      <trkpt lat="43.92753" lon="7.24525">
        <ele>1107</ele>
        <time>2014-08-30T10:26:11Z</time>
      </trkpt>
      <trkpt lat="43.92749" lon="7.24512">
        <ele>1105</ele>
        <time>2014-08-30T10:26:14Z</time>
      </trkpt>
      <trkpt lat="43.92744" lon="7.24503">
        <ele>1104</ele>
        <time>2014-08-30T10:26:17Z</time>
      </trkpt>
      <trkpt lat="43.92738" lon="7.24494">
        <ele>1102</ele>
        <time>2014-08-30T10:26:20Z</time>
      </trkpt>
      <trkpt lat="43.92731" lon="7.24478">
        <ele>1100</ele>
        <time>2014-08-30T10:26:23Z</time>
      </trkpt>
      <trkpt lat="43.92727" lon="7.24461">
        <ele>1099</ele>
        <time>2014-08-30T10:26:26Z</time>
      </trkpt>
      <trkpt lat="43.92726" lon="7.24455">
        <ele>1100</ele>
        <time>2014-08-30T10:26:29Z</time>
      </trkpt>
      <trkpt lat="43.92717" lon="7.24455">
        <ele>1101</ele>
        <time>2014-08-30T10:26:32Z</time>
      </trkpt>
      <trkpt lat="43.92706" lon="7.24456">
        <ele>1101</ele>
        <time>2014-08-30T10:26:35Z</time>
      </trkpt>
      <trkpt lat="43.92697" lon="7.24453">
        <ele>1101</ele>
        <time>2014-08-30T10:26:38Z</time>
      </trkpt>
      <trkpt lat="43.92691" lon="7.24451">
        <ele>1102</ele>
        <time>2014-08-30T10:26:41Z</time>
      </trkpt>
      <trkpt lat="43.92686" lon="7.2445">
        <ele>1103</ele>
        <time>2014-08-30T10:26:44Z</time>
      </trkpt>
      <trkpt lat="43.92682" lon="7.24447">
        <ele>1105</ele>
        <time>2014-08-30T10:26:47Z</time>
      </trkpt>
      <trkpt lat="43.92677" lon="7.24441">
        <ele>1105</ele>
        <time>2014-08-30T10:26:50Z</time>
      </trkpt>
      <trkpt lat="43.92672" lon="7.24433">
        <ele>1105</ele>
        <time>2014-08-30T10:26:53Z</time>
      </trkpt>
      <trkpt lat="43.92663" lon="7.24434">
        <ele>1105</ele>
        <time>2014-08-30T10:26:56Z</time>
      </trkpt>
      <trkpt lat="43.92651" lon="7.2444">
        <ele>1104</ele>
        <time>2014-08-30T10:26:59Z</time>
      </trkpt>
      <trkpt lat="43.92636" lon="7.24445">
        <ele>1102</ele>
        <time>2014-08-30T10:27:02Z</time>
      </trkpt>
      <trkpt lat="43.92626" lon="7.24446">
        <ele>1101</ele>
        <time>2014-08-30T10:27:05Z</time>
      </trkpt>
      <trkpt lat="43.92616" lon="7.2445">
        <ele>1101</ele>
        <time>2014-08-30T10:27:08Z</time>
      </trkpt>
      <trkpt lat="43.92609" lon="7.24458">
        <ele>1100</ele>
        <time>2014-08-30T10:27:11Z</time>
      </trkpt>
      <trkpt lat="43.92604" lon="7.24452">
        <ele>1098</ele>
        <time>2014-08-30T10:27:14Z</time>
      </trkpt>
      <trkpt lat="43.92598" lon="7.24443">
        <ele>1096</ele>
        <time>2014-08-30T10:27:17Z</time>
      </trkpt>
      <trkpt lat="43.92596" lon="7.24436">
        <ele>1094</ele>
        <time>2014-08-30T10:27:20Z</time>
      </trkpt>
      <trkpt lat="43.92595" lon="7.24425">
        <ele>1091</ele>
        <time>2014-08-30T10:27:23Z</time>
      </trkpt>
      <trkpt lat="43.92594" lon="7.24412">
        <ele>1089</ele>
        <time>2014-08-30T10:27:26Z</time>
      </trkpt>
      <trkpt lat="43.92589" lon="7.24403">
        <ele>1087</ele>
        <time>2014-08-30T10:27:29Z</time>
      </trkpt>
      <trkpt lat="43.92586" lon="7.24395">
        <ele>1085</ele>
        <time>2014-08-30T10:27:32Z</time>
      </trkpt>
      <trkpt lat="43.92585" lon="7.24388">
        <ele>1083</ele>
        <time>2014-08-30T10:27:35Z</time>
      </trkpt>
      <trkpt lat="43.92575" lon="7.24397">
        <ele>1080</ele>
        <time>2014-08-30T10:27:38Z</time>
      </trkpt>
      <trkpt lat="43.92565" lon="7.244">
        <ele>1078</ele>
        <time>2014-08-30T10:27:41Z</time>
      </trkpt>
      <trkpt lat="43.92551" lon="7.24401">
        <ele>1074</ele>
        <time>2014-08-30T10:27:44Z</time>
      </trkpt>
      <trkpt lat="43.92542" lon="7.24401">
        <ele>1071</ele>
        <time>2014-08-30T10:27:47Z</time>
      </trkpt>
      <trkpt lat="43.92538" lon="7.24401">
        <ele>1068</ele>
        <time>2014-08-30T10:27:50Z</time>
      </trkpt>
      <trkpt lat="43.92542" lon="7.24406">
        <ele>1067</ele>
        <time>2014-08-30T10:27:53Z</time>
      </trkpt>
      <trkpt lat="43.9255" lon="7.24413">
        <ele>1064</ele>
        <time>2014-08-30T10:27:56Z</time>
      </trkpt>
      <trkpt lat="43.92554" lon="7.24421">
        <ele>1063</ele>
        <time>2014-08-30T10:27:59Z</time>
      </trkpt>
      <trkpt lat="43.92551" lon="7.24421">
        <ele>1061</ele>
        <time>2014-08-30T10:28:02Z</time>
      </trkpt>
      <trkpt lat="43.92544" lon="7.24422">
        <ele>1059</ele>
        <time>2014-08-30T10:28:05Z</time>
      </trkpt>
      <trkpt lat="43.92536" lon="7.24426">
        <ele>1058</ele>
        <time>2014-08-30T10:28:08Z</time>
      </trkpt>
      <trkpt lat="43.92526" lon="7.24433">
        <ele>1055</ele>
        <time>2014-08-30T10:28:11Z</time>
      </trkpt>
      <trkpt lat="43.92517" lon="7.24441">
        <ele>1051</ele>
        <time>2014-08-30T10:28:14Z</time>
      </trkpt>
      <trkpt lat="43.9251" lon="7.24446">
        <ele>1049</ele>
        <time>2014-08-30T10:28:17Z</time>
      </trkpt>
      <trkpt lat="43.925" lon="7.24452">
        <ele>1046</ele>
        <time>2014-08-30T10:28:20Z</time>
      </trkpt>
      <trkpt lat="43.92492" lon="7.24458">
        <ele>1044</ele>
        <time>2014-08-30T10:28:23Z</time>
      </trkpt>
      <trkpt lat="43.92486" lon="7.24467">
        <ele>1041</ele>
        <time>2014-08-30T10:28:26Z</time>
      </trkpt>
      <trkpt lat="43.92488" lon="7.24469">
        <ele>1038</ele>
        <time>2014-08-30T10:28:29Z</time>
      </trkpt>
      <trkpt lat="43.92493" lon="7.24466">
        <ele>1038</ele>
        <time>2014-08-30T10:28:32Z</time>
      </trkpt>
      <trkpt lat="43.92489" lon="7.2447">
        <ele>1036</ele>
        <time>2014-08-30T10:28:35Z</time>
      </trkpt>
      <trkpt lat="43.9248" lon="7.24481">
        <ele>1034</ele>
        <time>2014-08-30T10:28:38Z</time>
      </trkpt>
      <trkpt lat="43.92473" lon="7.24485">
        <ele>1032</ele>
        <time>2014-08-30T10:28:41Z</time>
      </trkpt>
      <trkpt lat="43.92465" lon="7.24487">
        <ele>1029</ele>
        <time>2014-08-30T10:28:44Z</time>
      </trkpt>
      <trkpt lat="43.92456" lon="7.24493">
        <ele>1027</ele>
        <time>2014-08-30T10:28:47Z</time>
      </trkpt>
      <trkpt lat="43.92451" lon="7.24498">
        <ele>1024</ele>
        <time>2014-08-30T10:28:50Z</time>
      </trkpt>
      <trkpt lat="43.92458" lon="7.24496">
        <ele>1022</ele>
        <time>2014-08-30T10:28:53Z</time>
      </trkpt>
      <trkpt lat="43.92461" lon="7.24501">
        <ele>1020</ele>
        <time>2014-08-30T10:28:56Z</time>
      </trkpt>
      <trkpt lat="43.92455" lon="7.24507">
        <ele>1018</ele>
        <time>2014-08-30T10:28:59Z</time>
      </trkpt>
      <trkpt lat="43.92446" lon="7.24518">
        <ele>1016</ele>
        <time>2014-08-30T10:29:02Z</time>
      </trkpt>
      <trkpt lat="43.92439" lon="7.24531">
        <ele>1014</ele>
        <time>2014-08-30T10:29:05Z</time>
      </trkpt>
      <trkpt lat="43.92436" lon="7.24546">
        <ele>1011</ele>
        <time>2014-08-30T10:29:08Z</time>
      </trkpt>
      <trkpt lat="43.9243" lon="7.24559">
        <ele>1008</ele>
        <time>2014-08-30T10:29:11Z</time>
      </trkpt>
      <trkpt lat="43.9242" lon="7.2457">
        <ele>1006</ele>
        <time>2014-08-30T10:29:14Z</time>
      </trkpt>
      <trkpt lat="43.9241" lon="7.24574">
        <ele>1003</ele>
        <time>2014-08-30T10:29:17Z</time>
      </trkpt>
      <trkpt lat="43.92405" lon="7.24564">
        <ele>1002</ele>
        <time>2014-08-30T10:29:20Z</time>
      </trkpt>
      <trkpt lat="43.92399" lon="7.24555">
        <ele>1002</ele>
        <time>2014-08-30T10:29:23Z</time>
      </trkpt>
      <trkpt lat="43.9239" lon="7.24553">
        <ele>1002</ele>
        <time>2014-08-30T10:29:26Z</time>
      </trkpt>
      <trkpt lat="43.92382" lon="7.24556">
        <ele>1002</ele>
        <time>2014-08-30T10:29:29Z</time>
      </trkpt>
      <trkpt lat="43.92376" lon="7.24552">
        <ele>1002</ele>
        <time>2014-08-30T10:29:32Z</time>
      </trkpt>
      <trkpt lat="43.92372" lon="7.24543">
        <ele>1002</ele>
        <time>2014-08-30T10:29:35Z</time>
      </trkpt>
      <trkpt lat="43.92367" lon="7.2453">
        <ele>1002</ele>
        <time>2014-08-30T10:29:38Z</time>
      </trkpt>
      <trkpt lat="43.92362" lon="7.2452">
        <ele>1001</ele>
        <time>2014-08-30T10:29:41Z</time>
      </trkpt>
      <trkpt lat="43.92357" lon="7.24511">
        <ele>999</ele>
        <time>2014-08-30T10:29:44Z</time>
      </trkpt>
      <trkpt lat="43.92354" lon="7.24504">
        <ele>997</ele>
        <time>2014-08-30T10:29:47Z</time>
      </trkpt>
      <trkpt lat="43.92354" lon="7.24502">
        <ele>995</ele>
        <time>2014-08-30T10:29:50Z</time>
      </trkpt>
      <trkpt lat="43.9235" lon="7.24503">
        <ele>994</ele>
        <time>2014-08-30T10:29:53Z</time>
      </trkpt>
      <trkpt lat="43.92348" lon="7.24497">
        <ele>992</ele>
        <time>2014-08-30T10:29:56Z</time>
      </trkpt>
      <trkpt lat="43.92345" lon="7.24486">
        <ele>991</ele>
        <time>2014-08-30T10:29:59Z</time>
      </trkpt>
      <trkpt lat="43.92343" lon="7.24479">
        <ele>989</ele>
        <time>2014-08-30T10:30:02Z</time>
      </trkpt>
      <trkpt lat="43.9234" lon="7.24481">
        <ele>987</ele>
        <time>2014-08-30T10:30:05Z</time>
      </trkpt>
      <trkpt lat="43.92339" lon="7.24486">
        <ele>985</ele>
        <time>2014-08-30T10:30:08Z</time>
      </trkpt>
      <trkpt lat="43.92337" lon="7.24482">
        <ele>984</ele>
        <time>2014-08-30T10:30:11Z</time>
      </trkpt>
      <trkpt lat="43.92332" lon="7.24474">
        <ele>982</ele>
        <time>2014-08-30T10:30:14Z</time>
      </trkpt>
      <trkpt lat="43.92328" lon="7.24468">
        <ele>980</ele>
        <time>2014-08-30T10:30:17Z</time>
      </trkpt>
      <trkpt lat="43.92323" lon="7.2446">
        <ele>978</ele>
        <time>2014-08-30T10:30:20Z</time>
      </trkpt>
      <trkpt lat="43.92319" lon="7.24457">
        <ele>976</ele>
        <time>2014-08-30T10:30:23Z</time>
      </trkpt>
      <trkpt lat="43.92319" lon="7.24449">
        <ele>975</ele>
        <time>2014-08-30T10:30:26Z</time>
      </trkpt>
      <trkpt lat="43.92315" lon="7.2444">
        <ele>973</ele>
        <time>2014-08-30T10:30:29Z</time>
      </trkpt>
      <trkpt lat="43.92311" lon="7.24435">
        <ele>971</ele>
        <time>2014-08-30T10:30:32Z</time>
      </trkpt>
      <trkpt lat="43.92313" lon="7.24429">
        <ele>969</ele>
        <time>2014-08-30T10:30:35Z</time>
      </trkpt>
      <trkpt lat="43.92316" lon="7.24422">
        <ele>968</ele>
        <time>2014-08-30T10:30:38Z</time>
      </trkpt>
      <trkpt lat="43.92319" lon="7.24413">
        <ele>967</ele>
        <time>2014-08-30T10:30:41Z</time>
      </trkpt>
      <trkpt lat="43.92323" lon="7.24403">
        <ele>967</ele>
        <time>2014-08-30T10:30:44Z</time>
      </trkpt>
      <trkpt lat="43.92322" lon="7.24399">
        <ele>966</ele>
        <time>2014-08-30T10:30:47Z</time>
      </trkpt>
      <trkpt lat="43.92322" lon="7.24395">
        <ele>964</ele>
        <time>2014-08-30T10:30:53Z</time>
      </trkpt>
      <trkpt lat="43.92317" lon="7.24388">
        <ele>964</ele>
        <time>2014-08-30T10:30:56Z</time>
      </trkpt>
      <trkpt lat="43.92314" lon="7.24382">
        <ele>963</ele>
        <time>2014-08-30T10:30:59Z</time>
      </trkpt>
      <trkpt lat="43.92309" lon="7.24378">
        <ele>962</ele>
        <time>2014-08-30T10:31:02Z</time>
      </trkpt>
      <trkpt lat="43.92305" lon="7.24377">
        <ele>962</ele>
        <time>2014-08-30T10:31:05Z</time>
      </trkpt>
      <trkpt lat="43.92299" lon="7.2438">
        <ele>960</ele>
        <time>2014-08-30T10:31:08Z</time>
      </trkpt>
      <trkpt lat="43.92295" lon="7.24381">
        <ele>959</ele>
        <time>2014-08-30T10:31:11Z</time>
      </trkpt>
      <trkpt lat="43.92288" lon="7.24382">
        <ele>958</ele>
        <time>2014-08-30T10:31:14Z</time>
      </trkpt>
      <trkpt lat="43.9228" lon="7.24381">
        <ele>956</ele>
        <time>2014-08-30T10:31:17Z</time>
      </trkpt>
      <trkpt lat="43.9227" lon="7.24377">
        <ele>954</ele>
        <time>2014-08-30T10:31:20Z</time>
      </trkpt>
      <trkpt lat="43.92266" lon="7.2438">
        <ele>951</ele>
        <time>2014-08-30T10:31:23Z</time>
      </trkpt>
      <trkpt lat="43.9227" lon="7.24386">
        <ele>950</ele>
        <time>2014-08-30T10:31:26Z</time>
      </trkpt>
      <trkpt lat="43.92267" lon="7.24384">
        <ele>949</ele>
        <time>2014-08-30T10:31:29Z</time>
      </trkpt>
      <trkpt lat="43.92256" lon="7.24381">
        <ele>947</ele>
        <time>2014-08-30T10:31:32Z</time>
      </trkpt>
      <trkpt lat="43.92253" lon="7.24368">
        <ele>946</ele>
        <time>2014-08-30T10:31:35Z</time>
      </trkpt>
      <trkpt lat="43.92252" lon="7.2436">
        <ele>945</ele>
        <time>2014-08-30T10:31:38Z</time>
      </trkpt>
      <trkpt lat="43.92243" lon="7.2436">
        <ele>943</ele>
        <time>2014-08-30T10:31:41Z</time>
      </trkpt>
      <trkpt lat="43.92237" lon="7.24359">
        <ele>941</ele>
        <time>2014-08-30T10:31:44Z</time>
      </trkpt>
      <trkpt lat="43.92225" lon="7.24365">
        <ele>940</ele>
        <time>2014-08-30T10:31:47Z</time>
      </trkpt>
      <trkpt lat="43.92215" lon="7.24359">
        <ele>938</ele>
        <time>2014-08-30T10:31:50Z</time>
      </trkpt>
      <trkpt lat="43.92212" lon="7.24346">
        <ele>936</ele>
        <time>2014-08-30T10:31:53Z</time>
      </trkpt>
      <trkpt lat="43.92209" lon="7.24342">
        <ele>935</ele>
        <time>2014-08-30T10:31:56Z</time>
      </trkpt>
      <trkpt lat="43.92202" lon="7.24333">
        <ele>934</ele>
        <time>2014-08-30T10:31:59Z</time>
      </trkpt>
      <trkpt lat="43.92194" lon="7.24322">
        <ele>933</ele>
        <time>2014-08-30T10:32:02Z</time>
      </trkpt>
      <trkpt lat="43.92185" lon="7.24318">
        <ele>932</ele>
        <time>2014-08-30T10:32:05Z</time>
      </trkpt>
      <trkpt lat="43.92176" lon="7.24318">
        <ele>931</ele>
        <time>2014-08-30T10:32:08Z</time>
      </trkpt>
      <trkpt lat="43.92169" lon="7.2432">
        <ele>929</ele>
        <time>2014-08-30T10:32:11Z</time>
      </trkpt>
      <trkpt lat="43.92162" lon="7.2433">
        <ele>926</ele>
        <time>2014-08-30T10:32:14Z</time>
      </trkpt>
      <trkpt lat="43.92152" lon="7.24342">
        <ele>923</ele>
        <time>2014-08-30T10:32:17Z</time>
      </trkpt>
      <trkpt lat="43.92144" lon="7.2435">
        <ele>920</ele>
        <time>2014-08-30T10:32:20Z</time>
      </trkpt>
      <trkpt lat="43.9214" lon="7.24361">
        <ele>918</ele>
        <time>2014-08-30T10:32:23Z</time>
      </trkpt>
      <trkpt lat="43.92133" lon="7.24367">
        <ele>916</ele>
        <time>2014-08-30T10:32:26Z</time>
      </trkpt>
      <trkpt lat="43.92124" lon="7.24367">
        <ele>914</ele>
        <time>2014-08-30T10:32:29Z</time>
      </trkpt>
      <trkpt lat="43.92115" lon="7.24365">
        <ele>912</ele>
        <time>2014-08-30T10:32:32Z</time>
      </trkpt>
      <trkpt lat="43.92109" lon="7.24365">
        <ele>909</ele>
        <time>2014-08-30T10:32:35Z</time>
      </trkpt>
      <trkpt lat="43.92106" lon="7.2437">
        <ele>907</ele>
        <time>2014-08-30T10:32:38Z</time>
      </trkpt>
      <trkpt lat="43.92104" lon="7.24368">
        <ele>904</ele>
        <time>2014-08-30T10:32:41Z</time>
      </trkpt>
      <trkpt lat="43.92095" lon="7.24367">
        <ele>902</ele>
        <time>2014-08-30T10:32:44Z</time>
      </trkpt>
      <trkpt lat="43.92086" lon="7.24362">
        <ele>899</ele>
        <time>2014-08-30T10:32:47Z</time>
      </trkpt>
      <trkpt lat="43.92078" lon="7.24357">
        <ele>897</ele>
        <time>2014-08-30T10:32:50Z</time>
      </trkpt>
      <trkpt lat="43.92075" lon="7.24356">
        <ele>894</ele>
        <time>2014-08-30T10:32:53Z</time>
      </trkpt>
      <trkpt lat="43.92072" lon="7.24361">
        <ele>892</ele>
        <time>2014-08-30T10:32:56Z</time>
      </trkpt>
      <trkpt lat="43.92068" lon="7.24359">
        <ele>890</ele>
        <time>2014-08-30T10:32:59Z</time>
      </trkpt>
      <trkpt lat="43.92065" lon="7.24349">
        <ele>889</ele>
        <time>2014-08-30T10:33:02Z</time>
      </trkpt>
      <trkpt lat="43.92057" lon="7.24344">
        <ele>887</ele>
        <time>2014-08-30T10:33:05Z</time>
      </trkpt>
      <trkpt lat="43.92057" lon="7.24353">
        <ele>885</ele>
        <time>2014-08-30T10:33:08Z</time>
      </trkpt>
      <trkpt lat="43.92053" lon="7.24368">
        <ele>884</ele>
        <time>2014-08-30T10:33:11Z</time>
      </trkpt>
      <trkpt lat="43.92044" lon="7.2438">
        <ele>881</ele>
        <time>2014-08-30T10:33:14Z</time>
      </trkpt>
      <trkpt lat="43.92037" lon="7.24392">
        <ele>879</ele>
        <time>2014-08-30T10:33:17Z</time>
      </trkpt>
      <trkpt lat="43.9203" lon="7.2441">
        <ele>876</ele>
        <time>2014-08-30T10:33:20Z</time>
      </trkpt>
      <trkpt lat="43.9202" lon="7.2443">
        <ele>873</ele>
        <time>2014-08-30T10:33:23Z</time>
      </trkpt>
      <trkpt lat="43.92007" lon="7.24448">
        <ele>870</ele>
        <time>2014-08-30T10:33:26Z</time>
      </trkpt>
      <trkpt lat="43.91992" lon="7.2446">
        <ele>868</ele>
        <time>2014-08-30T10:33:29Z</time>
      </trkpt>
      <trkpt lat="43.91976" lon="7.24467">
        <ele>865</ele>
        <time>2014-08-30T10:33:32Z</time>
      </trkpt>
      <trkpt lat="43.91956" lon="7.24476">
        <ele>862</ele>
        <time>2014-08-30T10:33:35Z</time>
      </trkpt>
      <trkpt lat="43.9194" lon="7.24492">
        <ele>859</ele>
        <time>2014-08-30T10:33:38Z</time>
      </trkpt>
      <trkpt lat="43.91926" lon="7.24514">
        <ele>856</ele>
        <time>2014-08-30T10:33:41Z</time>
      </trkpt>
      <trkpt lat="43.91903" lon="7.24524">
        <ele>852</ele>
        <time>2014-08-30T10:33:44Z</time>
      </trkpt>
      <trkpt lat="43.91885" lon="7.24529">
        <ele>848</ele>
        <time>2014-08-30T10:33:47Z</time>
      </trkpt>
      <trkpt lat="43.91876" lon="7.24529">
        <ele>845</ele>
        <time>2014-08-30T10:33:50Z</time>
      </trkpt>
      <trkpt lat="43.91864" lon="7.24533">
        <ele>843</ele>
        <time>2014-08-30T10:33:53Z</time>
      </trkpt>
      <trkpt lat="43.91852" lon="7.24545">
        <ele>842</ele>
        <time>2014-08-30T10:33:56Z</time>
      </trkpt>
      <trkpt lat="43.91843" lon="7.24565">
        <ele>842</ele>
        <time>2014-08-30T10:33:59Z</time>
      </trkpt>
      <trkpt lat="43.91834" lon="7.24589">
        <ele>840</ele>
        <time>2014-08-30T10:34:02Z</time>
      </trkpt>
      <trkpt lat="43.91821" lon="7.24607">
        <ele>840</ele>
        <time>2014-08-30T10:34:05Z</time>
      </trkpt>
      <trkpt lat="43.9181" lon="7.24624">
        <ele>840</ele>
        <time>2014-08-30T10:34:08Z</time>
      </trkpt>
      <trkpt lat="43.91804" lon="7.2464">
        <ele>840</ele>
        <time>2014-08-30T10:34:11Z</time>
      </trkpt>
      <trkpt lat="43.91796" lon="7.24658">
        <ele>840</ele>
        <time>2014-08-30T10:34:14Z</time>
      </trkpt>
      <trkpt lat="43.91779" lon="7.24673">
        <ele>840</ele>
        <time>2014-08-30T10:34:17Z</time>
      </trkpt>
      <trkpt lat="43.9176" lon="7.24685">
        <ele>839</ele>
        <time>2014-08-30T10:34:20Z</time>
      </trkpt>
      <trkpt lat="43.91745" lon="7.24689">
        <ele>837</ele>
        <time>2014-08-30T10:34:23Z</time>
      </trkpt>
      <trkpt lat="43.91735" lon="7.24702">
        <ele>835</ele>
        <time>2014-08-30T10:34:26Z</time>
      </trkpt>
      <trkpt lat="43.91724" lon="7.24705">
        <ele>834</ele>
        <time>2014-08-30T10:34:29Z</time>
      </trkpt>
      <trkpt lat="43.9172" lon="7.24707">
        <ele>832</ele>
        <time>2014-08-30T10:34:32Z</time>
      </trkpt>
      <trkpt lat="43.91722" lon="7.24711">
        <ele>831</ele>
        <time>2014-08-30T10:34:35Z</time>
      </trkpt>
      <trkpt lat="43.91722" lon="7.24712">
        <ele>831</ele>
        <time>2014-08-30T10:34:38Z</time>
      </trkpt>
      <trkpt lat="43.91721" lon="7.24712">
        <ele>831</ele>
        <time>2014-08-30T10:34:44Z</time>
      </trkpt>
      <trkpt lat="43.91721" lon="7.24713">
        <ele>831</ele>
        <time>2014-08-30T10:34:50Z</time>
      </trkpt>
      <trkpt lat="43.91722" lon="7.24713">
        <ele>831</ele>
        <time>2014-08-30T10:35:11Z</time>
      </trkpt>
      <trkpt lat="43.91722" lon="7.24712">
        <ele>831</ele>
        <time>2014-08-30T10:35:20Z</time>
      </trkpt>
      <trkpt lat="43.91723" lon="7.24711">
        <ele>831</ele>
        <time>2014-08-30T10:35:29Z</time>
      </trkpt>
      <trkpt lat="43.91724" lon="7.24711">
        <ele>831</ele>
        <time>2014-08-30T10:35:32Z</time>
      </trkpt>
      <trkpt lat="43.91723" lon="7.24711">
        <ele>831</ele>
        <time>2014-08-30T10:35:41Z</time>
      </trkpt>
      <trkpt lat="43.91724" lon="7.24711">
        <ele>831</ele>
        <time>2014-08-30T10:35:47Z</time>
      </trkpt>
      <trkpt lat="43.91723" lon="7.24711">
        <ele>831</ele>
        <time>2014-08-30T10:35:53Z</time>
      </trkpt>
      <trkpt lat="43.91723" lon="7.24712">
        <ele>831</ele>
        <time>2014-08-30T10:35:56Z</time>
      </trkpt>
      <trkpt lat="43.91722" lon="7.24713">
        <ele>831</ele>
        <time>2014-08-30T10:36:17Z</time>
      </trkpt>
      <trkpt lat="43.91721" lon="7.24714">
        <ele>831</ele>
        <time>2014-08-30T10:36:23Z</time>
      </trkpt>
      <trkpt lat="43.91722" lon="7.24714">
        <ele>831</ele>
        <time>2014-08-30T10:36:29Z</time>
      </trkpt>
      <trkpt lat="43.91722" lon="7.24713">
        <ele>831</ele>
        <time>2014-08-30T10:36:32Z</time>
      </trkpt>
      <trkpt lat="43.91722" lon="7.24714">
        <ele>831</ele>
        <time>2014-08-30T10:36:41Z</time>
      </trkpt>
      <trkpt lat="43.91722" lon="7.24713">
        <ele>831</ele>
        <time>2014-08-30T10:36:44Z</time>
      </trkpt>
      <trkpt lat="43.91723" lon="7.24713">
        <ele>831</ele>
        <time>2014-08-30T10:36:47Z</time>
      </trkpt>
      <trkpt lat="43.91722" lon="7.24713">
        <ele>831</ele>
        <time>2014-08-30T10:36:53Z</time>
      </trkpt>
      <trkpt lat="43.91722" lon="7.24714">
        <ele>831</ele>
        <time>2014-08-30T10:36:56Z</time>
      </trkpt>
      <trkpt lat="43.91721" lon="7.24715">
        <ele>831</ele>
        <time>2014-08-30T10:36:59Z</time>
      </trkpt>
      <trkpt lat="43.91722" lon="7.24715">
        <ele>831</ele>
        <time>2014-08-30T10:37:05Z</time>
      </trkpt>
      <trkpt lat="43.91722" lon="7.24714">
        <ele>831</ele>
        <time>2014-08-30T10:37:11Z</time>
      </trkpt>
      <trkpt lat="43.91722" lon="7.24715">
        <ele>831</ele>
        <time>2014-08-30T10:37:14Z</time>
      </trkpt>
      <trkpt lat="43.91721" lon="7.24715">
        <ele>831</ele>
        <time>2014-08-30T10:37:20Z</time>
      </trkpt>
      <trkpt lat="43.91721" lon="7.24716">
        <ele>831</ele>
        <time>2014-08-30T10:37:23Z</time>
      </trkpt>
      <trkpt lat="43.91721" lon="7.24718">
        <ele>831</ele>
        <time>2014-08-30T10:37:26Z</time>
      </trkpt>
      <trkpt lat="43.9172" lon="7.24719">
        <ele>831</ele>
        <time>2014-08-30T10:37:29Z</time>
      </trkpt>
      <trkpt lat="43.9172" lon="7.24721">
        <ele>831</ele>
        <time>2014-08-30T10:37:32Z</time>
      </trkpt>
      <trkpt lat="43.91718" lon="7.2472">
        <ele>831</ele>
        <time>2014-08-30T10:37:35Z</time>
      </trkpt>
      <trkpt lat="43.91717" lon="7.24723">
        <ele>831</ele>
        <time>2014-08-30T10:37:38Z</time>
      </trkpt>
      <trkpt lat="43.91717" lon="7.24727">
        <ele>831</ele>
        <time>2014-08-30T10:37:41Z</time>
      </trkpt>
      <trkpt lat="43.91718" lon="7.2472">
        <ele>831</ele>
        <time>2014-08-30T10:37:44Z</time>
      </trkpt>
      <trkpt lat="43.91718" lon="7.24711">
        <ele>831</ele>
        <time>2014-08-30T10:37:47Z</time>
      </trkpt>
      <trkpt lat="43.91718" lon="7.24698">
        <ele>831</ele>
        <time>2014-08-30T10:37:50Z</time>
      </trkpt>
      <trkpt lat="43.91719" lon="7.2468">
        <ele>830</ele>
        <time>2014-08-30T10:37:53Z</time>
      </trkpt>
      <trkpt lat="43.91722" lon="7.24662">
        <ele>829</ele>
        <time>2014-08-30T10:37:56Z</time>
      </trkpt>
      <trkpt lat="43.91721" lon="7.24642">
        <ele>829</ele>
        <time>2014-08-30T10:37:59Z</time>
      </trkpt>
      <trkpt lat="43.9172" lon="7.24629">
        <ele>827</ele>
        <time>2014-08-30T10:38:02Z</time>
      </trkpt>
      <trkpt lat="43.9173" lon="7.24617">
        <ele>826</ele>
        <time>2014-08-30T10:38:05Z</time>
      </trkpt>
      <trkpt lat="43.91729" lon="7.24584">
        <ele>823</ele>
        <time>2014-08-30T10:38:08Z</time>
      </trkpt>
      <trkpt lat="43.91729" lon="7.24546">
        <ele>821</ele>
        <time>2014-08-30T10:38:11Z</time>
      </trkpt>
      <trkpt lat="43.91726" lon="7.24521">
        <ele>818</ele>
        <time>2014-08-30T10:38:14Z</time>
      </trkpt>
      <trkpt lat="43.91722" lon="7.24505">
        <ele>817</ele>
        <time>2014-08-30T10:38:17Z</time>
      </trkpt>
      <trkpt lat="43.9172" lon="7.245">
        <ele>817</ele>
        <time>2014-08-30T10:38:20Z</time>
      </trkpt>
      <trkpt lat="43.9172" lon="7.24501">
        <ele>817</ele>
        <time>2014-08-30T10:38:23Z</time>
      </trkpt>
      <trkpt lat="43.9172" lon="7.24502">
        <ele>817</ele>
        <time>2014-08-30T10:38:26Z</time>
      </trkpt>
      <trkpt lat="43.9172" lon="7.24503">
        <ele>817</ele>
        <time>2014-08-30T10:38:29Z</time>
      </trkpt>
      <trkpt lat="43.91719" lon="7.24502">
        <ele>817</ele>
        <time>2014-08-30T10:38:32Z</time>
      </trkpt>
      <trkpt lat="43.91719" lon="7.24501">
        <ele>817</ele>
        <time>2014-08-30T10:38:35Z</time>
      </trkpt>
      <trkpt lat="43.91718" lon="7.245">
        <ele>817</ele>
        <time>2014-08-30T10:38:38Z</time>
      </trkpt>
      <trkpt lat="43.91717" lon="7.24499">
        <ele>817</ele>
        <time>2014-08-30T10:38:44Z</time>
      </trkpt>
      <trkpt lat="43.91716" lon="7.24498">
        <ele>817</ele>
        <time>2014-08-30T10:38:47Z</time>
      </trkpt>
      <trkpt lat="43.91715" lon="7.24498">
        <ele>817</ele>
        <time>2014-08-30T10:38:50Z</time>
      </trkpt>
      <trkpt lat="43.91714" lon="7.24499">
        <ele>817</ele>
        <time>2014-08-30T10:38:53Z</time>
      </trkpt>
      <trkpt lat="43.91715" lon="7.24499">
        <ele>817</ele>
        <time>2014-08-30T10:38:56Z</time>
      </trkpt>
      <trkpt lat="43.91715" lon="7.245">
        <ele>817</ele>
        <time>2014-08-30T10:38:59Z</time>
      </trkpt>
      <trkpt lat="43.91714" lon="7.24499">
        <ele>817</ele>
        <time>2014-08-30T10:39:02Z</time>
      </trkpt>
      <trkpt lat="43.91714" lon="7.24498">
        <ele>817</ele>
        <time>2014-08-30T10:39:05Z</time>
      </trkpt>
      <trkpt lat="43.91714" lon="7.24496">
        <ele>816</ele>
        <time>2014-08-30T10:39:08Z</time>
      </trkpt>
      <trkpt lat="43.91713" lon="7.24495">
        <ele>815</ele>
        <time>2014-08-30T10:39:11Z</time>
      </trkpt>
      <trkpt lat="43.91712" lon="7.24488">
        <ele>814</ele>
        <time>2014-08-30T10:39:14Z</time>
      </trkpt>
      <trkpt lat="43.91713" lon="7.24475">
        <ele>813</ele>
        <time>2014-08-30T10:39:17Z</time>
      </trkpt>
      <trkpt lat="43.91717" lon="7.24465">
        <ele>810</ele>
        <time>2014-08-30T10:39:20Z</time>
      </trkpt>
      <trkpt lat="43.91724" lon="7.24458">
        <ele>808</ele>
        <time>2014-08-30T10:39:23Z</time>
      </trkpt>
      <trkpt lat="43.91728" lon="7.24449">
        <ele>805</ele>
        <time>2014-08-30T10:39:26Z</time>
      </trkpt>
      <trkpt lat="43.91725" lon="7.24442">
        <ele>805</ele>
        <time>2014-08-30T10:39:29Z</time>
      </trkpt>
      <trkpt lat="43.91722" lon="7.24436">
        <ele>805</ele>
        <time>2014-08-30T10:39:32Z</time>
      </trkpt>
      <trkpt lat="43.91722" lon="7.24431">
        <ele>805</ele>
        <time>2014-08-30T10:39:35Z</time>
      </trkpt>
      <trkpt lat="43.91723" lon="7.24425">
        <ele>804</ele>
        <time>2014-08-30T10:39:38Z</time>
      </trkpt>
      <trkpt lat="43.91721" lon="7.2442">
        <ele>803</ele>
        <time>2014-08-30T10:39:41Z</time>
      </trkpt>
      <trkpt lat="43.9172" lon="7.24419">
        <ele>803</ele>
        <time>2014-08-30T10:39:46Z</time>
      </trkpt>
      <trkpt lat="43.91716" lon="7.24414">
        <ele>803</ele>
        <time>2014-08-30T10:39:49Z</time>
      </trkpt>
      <trkpt lat="43.91713" lon="7.24412">
        <ele>803</ele>
        <time>2014-08-30T10:39:52Z</time>
      </trkpt>
      <trkpt lat="43.91712" lon="7.24411">
        <ele>802</ele>
        <time>2014-08-30T10:39:55Z</time>
      </trkpt>
      <trkpt lat="43.91715" lon="7.24404">
        <ele>801</ele>
        <time>2014-08-30T10:39:58Z</time>
      </trkpt>
      <trkpt lat="43.91717" lon="7.24393">
        <ele>800</ele>
        <time>2014-08-30T10:40:01Z</time>
      </trkpt>
      <trkpt lat="43.91714" lon="7.24385">
        <ele>798</ele>
        <time>2014-08-30T10:40:04Z</time>
      </trkpt>
      <trkpt lat="43.91703" lon="7.24366">
        <ele>796</ele>
        <time>2014-08-30T10:40:07Z</time>
      </trkpt>
      <trkpt lat="43.91691" lon="7.2435">
        <ele>794</ele>
        <time>2014-08-30T10:40:10Z</time>
      </trkpt>
      <trkpt lat="43.91683" lon="7.24329">
        <ele>792</ele>
        <time>2014-08-30T10:40:13Z</time>
      </trkpt>
      <trkpt lat="43.91673" lon="7.24325">
        <ele>790</ele>
        <time>2014-08-30T10:40:16Z</time>
      </trkpt>
      <trkpt lat="43.91659" lon="7.24332">
        <ele>790</ele>
        <time>2014-08-30T10:40:19Z</time>
      </trkpt>
      <trkpt lat="43.9165" lon="7.24331">
        <ele>790</ele>
        <time>2014-08-30T10:40:22Z</time>
      </trkpt>
      <trkpt lat="43.91643" lon="7.24326">
        <ele>790</ele>
        <time>2014-08-30T10:40:25Z</time>
      </trkpt>
      <trkpt lat="43.91632" lon="7.24325">
        <ele>790</ele>
        <time>2014-08-30T10:40:28Z</time>
      </trkpt>
      <trkpt lat="43.91623" lon="7.24324">
        <ele>790</ele>
        <time>2014-08-30T10:40:31Z</time>
      </trkpt>
      <trkpt lat="43.91613" lon="7.24327">
        <ele>790</ele>
        <time>2014-08-30T10:40:34Z</time>
      </trkpt>
      <trkpt lat="43.91601" lon="7.24337">
        <ele>790</ele>
        <time>2014-08-30T10:40:37Z</time>
      </trkpt>
      <trkpt lat="43.91589" lon="7.24343">
        <ele>790</ele>
        <time>2014-08-30T10:40:40Z</time>
      </trkpt>
      <trkpt lat="43.91578" lon="7.2434">
        <ele>790</ele>
        <time>2014-08-30T10:40:43Z</time>
      </trkpt>
      <trkpt lat="43.91569" lon="7.24334">
        <ele>791</ele>
        <time>2014-08-30T10:40:46Z</time>
      </trkpt>
      <trkpt lat="43.91561" lon="7.24327">
        <ele>792</ele>
        <time>2014-08-30T10:40:49Z</time>
      </trkpt>
      <trkpt lat="43.91551" lon="7.2432">
        <ele>792</ele>
        <time>2014-08-30T10:40:52Z</time>
      </trkpt>
      <trkpt lat="43.9154" lon="7.24316">
        <ele>794</ele>
        <time>2014-08-30T10:40:55Z</time>
      </trkpt>
      <trkpt lat="43.91529" lon="7.24308">
        <ele>794</ele>
        <time>2014-08-30T10:40:58Z</time>
      </trkpt>
      <trkpt lat="43.91523" lon="7.24296">
        <ele>794</ele>
        <time>2014-08-30T10:41:01Z</time>
      </trkpt>
      <trkpt lat="43.91521" lon="7.24285">
        <ele>796</ele>
        <time>2014-08-30T10:41:04Z</time>
      </trkpt>
      <trkpt lat="43.91519" lon="7.24281">
        <ele>797</ele>
        <time>2014-08-30T10:41:07Z</time>
      </trkpt>
      <trkpt lat="43.9151" lon="7.24286">
        <ele>797</ele>
        <time>2014-08-30T10:41:10Z</time>
      </trkpt>
      <trkpt lat="43.91504" lon="7.24292">
        <ele>797</ele>
        <time>2014-08-30T10:41:13Z</time>
      </trkpt>
      <trkpt lat="43.91501" lon="7.24296">
        <ele>798</ele>
        <time>2014-08-30T10:41:16Z</time>
      </trkpt>
      <trkpt lat="43.91496" lon="7.24299">
        <ele>799</ele>
        <time>2014-08-30T10:41:19Z</time>
      </trkpt>
      <trkpt lat="43.91492" lon="7.24299">
        <ele>800</ele>
        <time>2014-08-30T10:41:22Z</time>
      </trkpt>
      <trkpt lat="43.91487" lon="7.24298">
        <ele>801</ele>
        <time>2014-08-30T10:41:25Z</time>
      </trkpt>
      <trkpt lat="43.91483" lon="7.24299">
        <ele>802</ele>
        <time>2014-08-30T10:41:28Z</time>
      </trkpt>
      <trkpt lat="43.91484" lon="7.24306">
        <ele>803</ele>
        <time>2014-08-30T10:41:31Z</time>
      </trkpt>
      <trkpt lat="43.91486" lon="7.24313">
        <ele>803</ele>
        <time>2014-08-30T10:41:34Z</time>
      </trkpt>
      <trkpt lat="43.91484" lon="7.24321">
        <ele>804</ele>
        <time>2014-08-30T10:41:37Z</time>
      </trkpt>
      <trkpt lat="43.91482" lon="7.24326">
        <ele>805</ele>
        <time>2014-08-30T10:41:40Z</time>
      </trkpt>
      <trkpt lat="43.91482" lon="7.24328">
        <ele>805</ele>
        <time>2014-08-30T10:41:43Z</time>
      </trkpt>
      <trkpt lat="43.9148" lon="7.24335">
        <ele>805</ele>
        <time>2014-08-30T10:41:46Z</time>
      </trkpt>
      <trkpt lat="43.91479" lon="7.24338">
        <ele>805</ele>
        <time>2014-08-30T10:41:49Z</time>
      </trkpt>
      <trkpt lat="43.91478" lon="7.2434">
        <ele>806</ele>
        <time>2014-08-30T10:41:52Z</time>
      </trkpt>
      <trkpt lat="43.91476" lon="7.24343">
        <ele>808</ele>
        <time>2014-08-30T10:41:55Z</time>
      </trkpt>
      <trkpt lat="43.91475" lon="7.24347">
        <ele>808</ele>
        <time>2014-08-30T10:41:58Z</time>
      </trkpt>
      <trkpt lat="43.91475" lon="7.24351">
        <ele>808</ele>
        <time>2014-08-30T10:42:01Z</time>
      </trkpt>
      <trkpt lat="43.91474" lon="7.24355">
        <ele>808</ele>
        <time>2014-08-30T10:42:04Z</time>
      </trkpt>
      <trkpt lat="43.91472" lon="7.2436">
        <ele>810</ele>
        <time>2014-08-30T10:42:07Z</time>
      </trkpt>
      <trkpt lat="43.91471" lon="7.24364">
        <ele>810</ele>
        <time>2014-08-30T10:42:10Z</time>
      </trkpt>
      <trkpt lat="43.91469" lon="7.2437">
        <ele>810</ele>
        <time>2014-08-30T10:42:13Z</time>
      </trkpt>
      <trkpt lat="43.91468" lon="7.24373">
        <ele>810</ele>
        <time>2014-08-30T10:42:16Z</time>
      </trkpt>
      <trkpt lat="43.91468" lon="7.24375">
        <ele>810</ele>
        <time>2014-08-30T10:42:19Z</time>
      </trkpt>
      <trkpt lat="43.91466" lon="7.24379">
        <ele>811</ele>
        <time>2014-08-30T10:42:22Z</time>
      </trkpt>
      <trkpt lat="43.91466" lon="7.24383">
        <ele>812</ele>
        <time>2014-08-30T10:42:25Z</time>
      </trkpt>
      <trkpt lat="43.91464" lon="7.24389">
        <ele>812</ele>
        <time>2014-08-30T10:42:28Z</time>
      </trkpt>
      <trkpt lat="43.91462" lon="7.24392">
        <ele>813</ele>
        <time>2014-08-30T10:42:31Z</time>
      </trkpt>
      <trkpt lat="43.91461" lon="7.24394">
        <ele>814</ele>
        <time>2014-08-30T10:42:34Z</time>
      </trkpt>
      <trkpt lat="43.91459" lon="7.24399">
        <ele>814</ele>
        <time>2014-08-30T10:42:37Z</time>
      </trkpt>
      <trkpt lat="43.91456" lon="7.24405">
        <ele>814</ele>
        <time>2014-08-30T10:42:40Z</time>
      </trkpt>
      <trkpt lat="43.91456" lon="7.24411">
        <ele>814</ele>
        <time>2014-08-30T10:42:43Z</time>
      </trkpt>
      <trkpt lat="43.91455" lon="7.24419">
        <ele>815</ele>
        <time>2014-08-30T10:42:46Z</time>
      </trkpt>
      <trkpt lat="43.91456" lon="7.24427">
        <ele>816</ele>
        <time>2014-08-30T10:42:49Z</time>
      </trkpt>
      <trkpt lat="43.91455" lon="7.24435">
        <ele>816</ele>
        <time>2014-08-30T10:42:52Z</time>
      </trkpt>
      <trkpt lat="43.91453" lon="7.24443">
        <ele>816</ele>
        <time>2014-08-30T10:42:55Z</time>
      </trkpt>
      <trkpt lat="43.91451" lon="7.2445">
        <ele>818</ele>
        <time>2014-08-30T10:42:58Z</time>
      </trkpt>
      <trkpt lat="43.91449" lon="7.24457">
        <ele>819</ele>
        <time>2014-08-30T10:43:01Z</time>
      </trkpt>
      <trkpt lat="43.91448" lon="7.24461">
        <ele>819</ele>
        <time>2014-08-30T10:43:04Z</time>
      </trkpt>
      <trkpt lat="43.91445" lon="7.24466">
        <ele>820</ele>
        <time>2014-08-30T10:43:07Z</time>
      </trkpt>
      <trkpt lat="43.91443" lon="7.24473">
        <ele>821</ele>
        <time>2014-08-30T10:43:10Z</time>
      </trkpt>
      <trkpt lat="43.91442" lon="7.2448">
        <ele>821</ele>
        <time>2014-08-30T10:43:13Z</time>
      </trkpt>
      <trkpt lat="43.91442" lon="7.24484">
        <ele>821</ele>
        <time>2014-08-30T10:43:16Z</time>
      </trkpt>
      <trkpt lat="43.91442" lon="7.24488">
        <ele>822</ele>
        <time>2014-08-30T10:43:19Z</time>
      </trkpt>
      <trkpt lat="43.91441" lon="7.24492">
        <ele>823</ele>
        <time>2014-08-30T10:43:22Z</time>
      </trkpt>
      <trkpt lat="43.91441" lon="7.24495">
        <ele>823</ele>
        <time>2014-08-30T10:43:25Z</time>
      </trkpt>
      <trkpt lat="43.91438" lon="7.24498">
        <ele>823</ele>
        <time>2014-08-30T10:43:28Z</time>
      </trkpt>
      <trkpt lat="43.91434" lon="7.24502">
        <ele>824</ele>
        <time>2014-08-30T10:43:31Z</time>
      </trkpt>
      <trkpt lat="43.91431" lon="7.24503">
        <ele>825</ele>
        <time>2014-08-30T10:43:34Z</time>
      </trkpt>
      <trkpt lat="43.91428" lon="7.24504">
        <ele>825</ele>
        <time>2014-08-30T10:43:37Z</time>
      </trkpt>
      <trkpt lat="43.91425" lon="7.24504">
        <ele>826</ele>
        <time>2014-08-30T10:43:40Z</time>
      </trkpt>
      <trkpt lat="43.91422" lon="7.24504">
        <ele>827</ele>
        <time>2014-08-30T10:43:43Z</time>
      </trkpt>
      <trkpt lat="43.91419" lon="7.24503">
        <ele>827</ele>
        <time>2014-08-30T10:43:46Z</time>
      </trkpt>
      <trkpt lat="43.91415" lon="7.24502">
        <ele>828</ele>
        <time>2014-08-30T10:43:49Z</time>
      </trkpt>
      <trkpt lat="43.91412" lon="7.24502">
        <ele>829</ele>
        <time>2014-08-30T10:43:52Z</time>
      </trkpt>
      <trkpt lat="43.91408" lon="7.245">
        <ele>829</ele>
        <time>2014-08-30T10:43:55Z</time>
      </trkpt>
      <trkpt lat="43.91405" lon="7.24499">
        <ele>830</ele>
        <time>2014-08-30T10:43:58Z</time>
      </trkpt>
      <trkpt lat="43.91402" lon="7.245">
        <ele>831</ele>
        <time>2014-08-30T10:44:01Z</time>
      </trkpt>
      <trkpt lat="43.91399" lon="7.245">
        <ele>831</ele>
        <time>2014-08-30T10:44:04Z</time>
      </trkpt>
      <trkpt lat="43.91394" lon="7.24501">
        <ele>831</ele>
        <time>2014-08-30T10:44:07Z</time>
      </trkpt>
      <trkpt lat="43.91391" lon="7.24502">
        <ele>832</ele>
        <time>2014-08-30T10:44:10Z</time>
      </trkpt>
      <trkpt lat="43.91389" lon="7.24504">
        <ele>834</ele>
        <time>2014-08-30T10:44:13Z</time>
      </trkpt>
      <trkpt lat="43.91386" lon="7.24505">
        <ele>834</ele>
        <time>2014-08-30T10:44:16Z</time>
      </trkpt>
      <trkpt lat="43.91382" lon="7.24505">
        <ele>834</ele>
        <time>2014-08-30T10:44:19Z</time>
      </trkpt>
      <trkpt lat="43.91377" lon="7.24506">
        <ele>834</ele>
        <time>2014-08-30T10:44:22Z</time>
      </trkpt>
      <trkpt lat="43.91373" lon="7.24506">
        <ele>836</ele>
        <time>2014-08-30T10:44:25Z</time>
      </trkpt>
      <trkpt lat="43.9137" lon="7.24507">
        <ele>836</ele>
        <time>2014-08-30T10:44:28Z</time>
      </trkpt>
      <trkpt lat="43.91366" lon="7.24508">
        <ele>836</ele>
        <time>2014-08-30T10:44:31Z</time>
      </trkpt>
      <trkpt lat="43.91363" lon="7.24507">
        <ele>838</ele>
        <time>2014-08-30T10:44:34Z</time>
      </trkpt>
      <trkpt lat="43.91359" lon="7.24505">
        <ele>838</ele>
        <time>2014-08-30T10:44:37Z</time>
      </trkpt>
      <trkpt lat="43.91355" lon="7.24505">
        <ele>838</ele>
        <time>2014-08-30T10:44:40Z</time>
      </trkpt>
      <trkpt lat="43.91351" lon="7.24507">
        <ele>838</ele>
        <time>2014-08-30T10:44:43Z</time>
      </trkpt>
      <trkpt lat="43.91346" lon="7.2451">
        <ele>839</ele>
        <time>2014-08-30T10:44:46Z</time>
      </trkpt>
      <trkpt lat="43.91342" lon="7.2451">
        <ele>840</ele>
        <time>2014-08-30T10:44:49Z</time>
      </trkpt>
      <trkpt lat="43.91338" lon="7.2451">
        <ele>840</ele>
        <time>2014-08-30T10:44:52Z</time>
      </trkpt>
      <trkpt lat="43.91335" lon="7.24511">
        <ele>840</ele>
        <time>2014-08-30T10:44:55Z</time>
      </trkpt>
      <trkpt lat="43.91334" lon="7.24511">
        <ele>841</ele>
        <time>2014-08-30T10:44:58Z</time>
      </trkpt>
      <trkpt lat="43.91331" lon="7.24509">
        <ele>842</ele>
        <time>2014-08-30T10:45:01Z</time>
      </trkpt>
      <trkpt lat="43.91327" lon="7.24505">
        <ele>842</ele>
        <time>2014-08-30T10:45:04Z</time>
      </trkpt>
      <trkpt lat="43.91322" lon="7.24505">
        <ele>842</ele>
        <time>2014-08-30T10:45:07Z</time>
      </trkpt>
      <trkpt lat="43.91317" lon="7.24511">
        <ele>842</ele>
        <time>2014-08-30T10:45:10Z</time>
      </trkpt>
      <trkpt lat="43.91308" lon="7.24517">
        <ele>842</ele>
        <time>2014-08-30T10:45:13Z</time>
      </trkpt>
      <trkpt lat="43.91296" lon="7.24521">
        <ele>841</ele>
        <time>2014-08-30T10:45:16Z</time>
      </trkpt>
      <trkpt lat="43.91283" lon="7.2452">
        <ele>840</ele>
        <time>2014-08-30T10:45:19Z</time>
      </trkpt>
      <trkpt lat="43.91269" lon="7.24521">
        <ele>838</ele>
        <time>2014-08-30T10:45:22Z</time>
      </trkpt>
      <trkpt lat="43.91256" lon="7.24522">
        <ele>837</ele>
        <time>2014-08-30T10:45:25Z</time>
      </trkpt>
      <trkpt lat="43.91245" lon="7.24522">
        <ele>835</ele>
        <time>2014-08-30T10:45:28Z</time>
      </trkpt>
      <trkpt lat="43.91234" lon="7.24518">
        <ele>834</ele>
        <time>2014-08-30T10:45:31Z</time>
      </trkpt>
      <trkpt lat="43.9122" lon="7.24514">
        <ele>833</ele>
        <time>2014-08-30T10:45:34Z</time>
      </trkpt>
      <trkpt lat="43.912" lon="7.24511">
        <ele>830</ele>
        <time>2014-08-30T10:45:37Z</time>
      </trkpt>
      <trkpt lat="43.91177" lon="7.24507">
        <ele>828</ele>
        <time>2014-08-30T10:45:40Z</time>
      </trkpt>
      <trkpt lat="43.91162" lon="7.24505">
        <ele>826</ele>
        <time>2014-08-30T10:45:43Z</time>
      </trkpt>
      <trkpt lat="43.91148" lon="7.24496">
        <ele>824</ele>
        <time>2014-08-30T10:45:46Z</time>
      </trkpt>
      <trkpt lat="43.91134" lon="7.24485">
        <ele>823</ele>
        <time>2014-08-30T10:45:49Z</time>
      </trkpt>
      <trkpt lat="43.9112" lon="7.24477">
        <ele>822</ele>
        <time>2014-08-30T10:45:52Z</time>
      </trkpt>
      <trkpt lat="43.91105" lon="7.24465">
        <ele>820</ele>
        <time>2014-08-30T10:45:55Z</time>
      </trkpt>
      <trkpt lat="43.91094" lon="7.2445">
        <ele>818</ele>
        <time>2014-08-30T10:45:58Z</time>
      </trkpt>
      <trkpt lat="43.91084" lon="7.24437">
        <ele>815</ele>
        <time>2014-08-30T10:46:01Z</time>
      </trkpt>
      <trkpt lat="43.9108" lon="7.24426">
        <ele>813</ele>
        <time>2014-08-30T10:46:04Z</time>
      </trkpt>
      <trkpt lat="43.91083" lon="7.24415">
        <ele>813</ele>
        <time>2014-08-30T10:46:07Z</time>
      </trkpt>
      <trkpt lat="43.91086" lon="7.24399">
        <ele>812</ele>
        <time>2014-08-30T10:46:10Z</time>
      </trkpt>
      <trkpt lat="43.91086" lon="7.24387">
        <ele>810</ele>
        <time>2014-08-30T10:46:13Z</time>
      </trkpt>
      <trkpt lat="43.91076" lon="7.24371">
        <ele>808</ele>
        <time>2014-08-30T10:46:16Z</time>
      </trkpt>
      <trkpt lat="43.91072" lon="7.2435">
        <ele>806</ele>
        <time>2014-08-30T10:46:19Z</time>
      </trkpt>
      <trkpt lat="43.91071" lon="7.24333">
        <ele>803</ele>
        <time>2014-08-30T10:46:22Z</time>
      </trkpt>
      <trkpt lat="43.91069" lon="7.24318">
        <ele>801</ele>
        <time>2014-08-30T10:46:25Z</time>
      </trkpt>
      <trkpt lat="43.91064" lon="7.24296">
        <ele>800</ele>
        <time>2014-08-30T10:46:28Z</time>
      </trkpt>
      <trkpt lat="43.91054" lon="7.24281">
        <ele>799</ele>
        <time>2014-08-30T10:46:31Z</time>
      </trkpt>
      <trkpt lat="43.91041" lon="7.24272">
        <ele>797</ele>
        <time>2014-08-30T10:46:34Z</time>
      </trkpt>
      <trkpt lat="43.91026" lon="7.24261">
        <ele>796</ele>
        <time>2014-08-30T10:46:37Z</time>
      </trkpt>
      <trkpt lat="43.91012" lon="7.2425">
        <ele>796</ele>
        <time>2014-08-30T10:46:40Z</time>
      </trkpt>
      <trkpt lat="43.91005" lon="7.2424">
        <ele>796</ele>
        <time>2014-08-30T10:46:43Z</time>
      </trkpt>
      <trkpt lat="43.91" lon="7.24232">
        <ele>796</ele>
        <time>2014-08-30T10:46:46Z</time>
      </trkpt>
      <trkpt lat="43.9099" lon="7.24224">
        <ele>796</ele>
        <time>2014-08-30T10:46:49Z</time>
      </trkpt>
      <trkpt lat="43.90978" lon="7.24214">
        <ele>796</ele>
        <time>2014-08-30T10:46:52Z</time>
      </trkpt>
      <trkpt lat="43.90968" lon="7.24207">
        <ele>796</ele>
        <time>2014-08-30T10:46:55Z</time>
      </trkpt>
      <trkpt lat="43.90959" lon="7.24201">
        <ele>796</ele>
        <time>2014-08-30T10:46:58Z</time>
      </trkpt>
      <trkpt lat="43.90953" lon="7.24193">
        <ele>796</ele>
        <time>2014-08-30T10:47:01Z</time>
      </trkpt>
      <trkpt lat="43.90947" lon="7.2419">
        <ele>798</ele>
        <time>2014-08-30T10:47:04Z</time>
      </trkpt>
      <trkpt lat="43.9094" lon="7.24187">
        <ele>798</ele>
        <time>2014-08-30T10:47:07Z</time>
      </trkpt>
      <trkpt lat="43.90936" lon="7.24179">
        <ele>799</ele>
        <time>2014-08-30T10:47:10Z</time>
      </trkpt>
      <trkpt lat="43.90935" lon="7.24169">
        <ele>800</ele>
        <time>2014-08-30T10:47:13Z</time>
      </trkpt>
      <trkpt lat="43.9093" lon="7.2416">
        <ele>800</ele>
        <time>2014-08-30T10:47:16Z</time>
      </trkpt>
      <trkpt lat="43.90926" lon="7.24152">
        <ele>801</ele>
        <time>2014-08-30T10:47:19Z</time>
      </trkpt>
      <trkpt lat="43.90924" lon="7.24141">
        <ele>802</ele>
        <time>2014-08-30T10:47:22Z</time>
      </trkpt>
      <trkpt lat="43.90925" lon="7.24129">
        <ele>802</ele>
        <time>2014-08-30T10:47:25Z</time>
      </trkpt>
      <trkpt lat="43.90926" lon="7.24116">
        <ele>802</ele>
        <time>2014-08-30T10:47:28Z</time>
      </trkpt>
      <trkpt lat="43.90933" lon="7.24105">
        <ele>802</ele>
        <time>2014-08-30T10:47:31Z</time>
      </trkpt>
      <trkpt lat="43.90934" lon="7.2409">
        <ele>801</ele>
        <time>2014-08-30T10:47:34Z</time>
      </trkpt>
      <trkpt lat="43.90927" lon="7.24075">
        <ele>800</ele>
        <time>2014-08-30T10:47:37Z</time>
      </trkpt>
      <trkpt lat="43.90919" lon="7.24067">
        <ele>800</ele>
        <time>2014-08-30T10:47:40Z</time>
      </trkpt>
      <trkpt lat="43.90913" lon="7.24064">
        <ele>801</ele>
        <time>2014-08-30T10:47:43Z</time>
      </trkpt>
      <trkpt lat="43.9091" lon="7.24062">
        <ele>802</ele>
        <time>2014-08-30T10:47:46Z</time>
      </trkpt>
      <trkpt lat="43.90918" lon="7.24061">
        <ele>802</ele>
        <time>2014-08-30T10:47:49Z</time>
      </trkpt>
      <trkpt lat="43.90914" lon="7.24058">
        <ele>803</ele>
        <time>2014-08-30T10:47:52Z</time>
      </trkpt>
      <trkpt lat="43.90895" lon="7.24049">
        <ele>805</ele>
        <time>2014-08-30T10:47:55Z</time>
      </trkpt>
      <trkpt lat="43.90891" lon="7.24043">
        <ele>805</ele>
        <time>2014-08-30T10:47:58Z</time>
      </trkpt>
      <trkpt lat="43.90887" lon="7.24038">
        <ele>805</ele>
        <time>2014-08-30T10:48:01Z</time>
      </trkpt>
      <trkpt lat="43.90885" lon="7.24032">
        <ele>806</ele>
        <time>2014-08-30T10:48:04Z</time>
      </trkpt>
      <trkpt lat="43.90883" lon="7.24029">
        <ele>807</ele>
        <time>2014-08-30T10:48:07Z</time>
      </trkpt>
      <trkpt lat="43.90878" lon="7.24023">
        <ele>807</ele>
        <time>2014-08-30T10:48:10Z</time>
      </trkpt>
      <trkpt lat="43.90873" lon="7.24011">
        <ele>807</ele>
        <time>2014-08-30T10:48:13Z</time>
      </trkpt>
      <trkpt lat="43.90873" lon="7.23998">
        <ele>807</ele>
        <time>2014-08-30T10:48:16Z</time>
      </trkpt>
      <trkpt lat="43.90873" lon="7.23985">
        <ele>806</ele>
        <time>2014-08-30T10:48:19Z</time>
      </trkpt>
      <trkpt lat="43.90866" lon="7.2397">
        <ele>805</ele>
        <time>2014-08-30T10:48:22Z</time>
      </trkpt>
      <trkpt lat="43.90863" lon="7.23951">
        <ele>804</ele>
        <time>2014-08-30T10:48:25Z</time>
      </trkpt>
      <trkpt lat="43.90849" lon="7.23935">
        <ele>803</ele>
        <time>2014-08-30T10:48:28Z</time>
      </trkpt>
      <trkpt lat="43.90841" lon="7.23924">
        <ele>801</ele>
        <time>2014-08-30T10:48:31Z</time>
      </trkpt>
      <trkpt lat="43.90836" lon="7.23914">
        <ele>800</ele>
        <time>2014-08-30T10:48:34Z</time>
      </trkpt>
      <trkpt lat="43.90821" lon="7.23897">
        <ele>799</ele>
        <time>2014-08-30T10:48:37Z</time>
      </trkpt>
      <trkpt lat="43.90812" lon="7.23881">
        <ele>798</ele>
        <time>2014-08-30T10:48:40Z</time>
      </trkpt>
      <trkpt lat="43.90802" lon="7.23873">
        <ele>798</ele>
        <time>2014-08-30T10:48:43Z</time>
      </trkpt>
      <trkpt lat="43.90794" lon="7.23865">
        <ele>798</ele>
        <time>2014-08-30T10:48:46Z</time>
      </trkpt>
      <trkpt lat="43.9079" lon="7.23851">
        <ele>798</ele>
        <time>2014-08-30T10:48:49Z</time>
      </trkpt>
      <trkpt lat="43.90783" lon="7.23832">
        <ele>798</ele>
        <time>2014-08-30T10:48:52Z</time>
      </trkpt>
      <trkpt lat="43.90781" lon="7.23814">
        <ele>797</ele>
        <time>2014-08-30T10:48:55Z</time>
      </trkpt>
      <trkpt lat="43.90785" lon="7.23802">
        <ele>795</ele>
        <time>2014-08-30T10:48:58Z</time>
      </trkpt>
      <trkpt lat="43.90787" lon="7.23782">
        <ele>793</ele>
        <time>2014-08-30T10:49:01Z</time>
      </trkpt>
      <trkpt lat="43.9079" lon="7.23765">
        <ele>791</ele>
        <time>2014-08-30T10:49:04Z</time>
      </trkpt>
      <trkpt lat="43.90799" lon="7.23742">
        <ele>788</ele>
        <time>2014-08-30T10:49:07Z</time>
      </trkpt>
      <trkpt lat="43.90809" lon="7.2372">
        <ele>786</ele>
        <time>2014-08-30T10:49:10Z</time>
      </trkpt>
      <trkpt lat="43.90813" lon="7.23698">
        <ele>785</ele>
        <time>2014-08-30T10:49:13Z</time>
      </trkpt>
      <trkpt lat="43.90809" lon="7.23687">
        <ele>785</ele>
        <time>2014-08-30T10:49:16Z</time>
      </trkpt>
      <trkpt lat="43.90803" lon="7.23679">
        <ele>785</ele>
        <time>2014-08-30T10:49:19Z</time>
      </trkpt>
      <trkpt lat="43.9079" lon="7.23676">
        <ele>785</ele>
        <time>2014-08-30T10:49:22Z</time>
      </trkpt>
      <trkpt lat="43.90776" lon="7.23678">
        <ele>785</ele>
        <time>2014-08-30T10:49:25Z</time>
      </trkpt>
      <trkpt lat="43.90761" lon="7.23676">
        <ele>785</ele>
        <time>2014-08-30T10:49:28Z</time>
      </trkpt>
      <trkpt lat="43.90744" lon="7.23671">
        <ele>783</ele>
        <time>2014-08-30T10:49:31Z</time>
      </trkpt>
      <trkpt lat="43.90725" lon="7.23671">
        <ele>782</ele>
        <time>2014-08-30T10:49:34Z</time>
      </trkpt>
      <trkpt lat="43.90707" lon="7.23669">
        <ele>781</ele>
        <time>2014-08-30T10:49:37Z</time>
      </trkpt>
      <trkpt lat="43.90692" lon="7.23657">
        <ele>779</ele>
        <time>2014-08-30T10:49:40Z</time>
      </trkpt>
      <trkpt lat="43.90684" lon="7.23636">
        <ele>777</ele>
        <time>2014-08-30T10:49:43Z</time>
      </trkpt>
      <trkpt lat="43.90674" lon="7.23618">
        <ele>775</ele>
        <time>2014-08-30T10:49:46Z</time>
      </trkpt>
      <trkpt lat="43.90666" lon="7.23601">
        <ele>775</ele>
        <time>2014-08-30T10:49:49Z</time>
      </trkpt>
      <trkpt lat="43.90664" lon="7.23577">
        <ele>774</ele>
        <time>2014-08-30T10:49:52Z</time>
      </trkpt>
      <trkpt lat="43.90661" lon="7.23552">
        <ele>773</ele>
        <time>2014-08-30T10:49:55Z</time>
      </trkpt>
      <trkpt lat="43.90661" lon="7.23531">
        <ele>772</ele>
        <time>2014-08-30T10:49:58Z</time>
      </trkpt>
      <trkpt lat="43.90662" lon="7.23516">
        <ele>771</ele>
        <time>2014-08-30T10:50:01Z</time>
      </trkpt>
      <trkpt lat="43.9066" lon="7.23507">
        <ele>771</ele>
        <time>2014-08-30T10:50:04Z</time>
      </trkpt>
      <trkpt lat="43.90653" lon="7.23489">
        <ele>771</ele>
        <time>2014-08-30T10:50:07Z</time>
      </trkpt>
      <trkpt lat="43.90649" lon="7.23469">
        <ele>771</ele>
        <time>2014-08-30T10:50:10Z</time>
      </trkpt>
      <trkpt lat="43.90646" lon="7.23452">
        <ele>771</ele>
        <time>2014-08-30T10:50:13Z</time>
      </trkpt>
      <trkpt lat="43.9064" lon="7.23434">
        <ele>771</ele>
        <time>2014-08-30T10:50:16Z</time>
      </trkpt>
      <trkpt lat="43.90646" lon="7.23424">
        <ele>771</ele>
        <time>2014-08-30T10:50:19Z</time>
      </trkpt>
      <trkpt lat="43.90653" lon="7.23412">
        <ele>770</ele>
        <time>2014-08-30T10:50:22Z</time>
      </trkpt>
      <trkpt lat="43.90648" lon="7.23413">
        <ele>769</ele>
        <time>2014-08-30T10:50:25Z</time>
      </trkpt>
      <trkpt lat="43.90639" lon="7.23425">
        <ele>769</ele>
        <time>2014-08-30T10:50:28Z</time>
      </trkpt>
      <trkpt lat="43.90633" lon="7.2344">
        <ele>769</ele>
        <time>2014-08-30T10:50:31Z</time>
      </trkpt>
      <trkpt lat="43.90627" lon="7.23459">
        <ele>767</ele>
        <time>2014-08-30T10:50:34Z</time>
      </trkpt>
      <trkpt lat="43.90615" lon="7.2348">
        <ele>766</ele>
        <time>2014-08-30T10:50:37Z</time>
      </trkpt>
      <trkpt lat="43.90601" lon="7.23498">
        <ele>765</ele>
        <time>2014-08-30T10:50:40Z</time>
      </trkpt>
      <trkpt lat="43.90593" lon="7.23515">
        <ele>765</ele>
        <time>2014-08-30T10:50:43Z</time>
      </trkpt>
      <trkpt lat="43.90587" lon="7.23534">
        <ele>764</ele>
        <time>2014-08-30T10:50:46Z</time>
      </trkpt>
      <trkpt lat="43.90584" lon="7.23554">
        <ele>763</ele>
        <time>2014-08-30T10:50:49Z</time>
      </trkpt>
      <trkpt lat="43.90581" lon="7.23569">
        <ele>761</ele>
        <time>2014-08-30T10:50:52Z</time>
      </trkpt>
      <trkpt lat="43.90576" lon="7.23588">
        <ele>760</ele>
        <time>2014-08-30T10:50:55Z</time>
      </trkpt>
      <trkpt lat="43.90562" lon="7.23602">
        <ele>760</ele>
        <time>2014-08-30T10:50:58Z</time>
      </trkpt>
      <trkpt lat="43.90547" lon="7.23609">
        <ele>760</ele>
        <time>2014-08-30T10:51:01Z</time>
      </trkpt>
      <trkpt lat="43.90539" lon="7.23616">
        <ele>760</ele>
        <time>2014-08-30T10:51:04Z</time>
      </trkpt>
      <trkpt lat="43.90532" lon="7.23616">
        <ele>760</ele>
        <time>2014-08-30T10:51:07Z</time>
      </trkpt>
      <trkpt lat="43.90528" lon="7.23619">
        <ele>762</ele>
        <time>2014-08-30T10:51:10Z</time>
      </trkpt>
      <trkpt lat="43.90527" lon="7.23628">
        <ele>763</ele>
        <time>2014-08-30T10:51:13Z</time>
      </trkpt>
      <trkpt lat="43.90528" lon="7.23641">
        <ele>763</ele>
        <time>2014-08-30T10:51:16Z</time>
      </trkpt>
      <trkpt lat="43.90528" lon="7.23655">
        <ele>763</ele>
        <time>2014-08-30T10:51:19Z</time>
      </trkpt>
      <trkpt lat="43.90525" lon="7.23671">
        <ele>763</ele>
        <time>2014-08-30T10:51:22Z</time>
      </trkpt>
      <trkpt lat="43.90526" lon="7.23693">
        <ele>763</ele>
        <time>2014-08-30T10:51:25Z</time>
      </trkpt>
      <trkpt lat="43.90528" lon="7.23717">
        <ele>762</ele>
        <time>2014-08-30T10:51:28Z</time>
      </trkpt>
      <trkpt lat="43.90531" lon="7.23746">
        <ele>760</ele>
        <time>2014-08-30T10:51:31Z</time>
      </trkpt>
      <trkpt lat="43.90525" lon="7.23774">
        <ele>758</ele>
        <time>2014-08-30T10:51:34Z</time>
      </trkpt>
      <trkpt lat="43.90518" lon="7.23794">
        <ele>757</ele>
        <time>2014-08-30T10:51:37Z</time>
      </trkpt>
      <trkpt lat="43.90505" lon="7.23814">
        <ele>755</ele>
        <time>2014-08-30T10:51:40Z</time>
      </trkpt>
      <trkpt lat="43.90491" lon="7.23833">
        <ele>754</ele>
        <time>2014-08-30T10:51:43Z</time>
      </trkpt>
      <trkpt lat="43.90479" lon="7.23837">
        <ele>752</ele>
        <time>2014-08-30T10:51:46Z</time>
      </trkpt>
      <trkpt lat="43.90473" lon="7.23824">
        <ele>751</ele>
        <time>2014-08-30T10:51:49Z</time>
      </trkpt>
      <trkpt lat="43.90473" lon="7.23817">
        <ele>751</ele>
        <time>2014-08-30T10:51:52Z</time>
      </trkpt>
      <trkpt lat="43.90467" lon="7.23825">
        <ele>751</ele>
        <time>2014-08-30T10:51:55Z</time>
      </trkpt>
      <trkpt lat="43.90461" lon="7.23834">
        <ele>751</ele>
        <time>2014-08-30T10:51:58Z</time>
      </trkpt>
      <trkpt lat="43.90455" lon="7.23851">
        <ele>751</ele>
        <time>2014-08-30T10:52:01Z</time>
      </trkpt>
      <trkpt lat="43.90452" lon="7.23866">
        <ele>751</ele>
        <time>2014-08-30T10:52:04Z</time>
      </trkpt>
      <trkpt lat="43.90449" lon="7.23876">
        <ele>752</ele>
        <time>2014-08-30T10:52:07Z</time>
      </trkpt>
      <trkpt lat="43.90439" lon="7.23883">
        <ele>753</ele>
        <time>2014-08-30T10:52:10Z</time>
      </trkpt>
      <trkpt lat="43.90427" lon="7.23889">
        <ele>753</ele>
        <time>2014-08-30T10:52:13Z</time>
      </trkpt>
      <trkpt lat="43.90416" lon="7.2389">
        <ele>753</ele>
        <time>2014-08-30T10:52:16Z</time>
      </trkpt>
      <trkpt lat="43.90411" lon="7.23895">
        <ele>753</ele>
        <time>2014-08-30T10:52:19Z</time>
      </trkpt>
      <trkpt lat="43.90414" lon="7.239">
        <ele>753</ele>
        <time>2014-08-30T10:52:22Z</time>
      </trkpt>
      <trkpt lat="43.90416" lon="7.23914">
        <ele>753</ele>
        <time>2014-08-30T10:52:25Z</time>
      </trkpt>
      <trkpt lat="43.9041" lon="7.23926">
        <ele>754</ele>
        <time>2014-08-30T10:52:28Z</time>
      </trkpt>
      <trkpt lat="43.90408" lon="7.23933">
        <ele>755</ele>
        <time>2014-08-30T10:52:31Z</time>
      </trkpt>
      <trkpt lat="43.90406" lon="7.23936">
        <ele>756</ele>
        <time>2014-08-30T10:52:34Z</time>
      </trkpt>
      <trkpt lat="43.90406" lon="7.23939">
        <ele>758</ele>
        <time>2014-08-30T10:52:37Z</time>
      </trkpt>
      <trkpt lat="43.90405" lon="7.23942">
        <ele>758</ele>
        <time>2014-08-30T10:52:40Z</time>
      </trkpt>
      <trkpt lat="43.90404" lon="7.23944">
        <ele>758</ele>
        <time>2014-08-30T10:52:43Z</time>
      </trkpt>
      <trkpt lat="43.90403" lon="7.23946">
        <ele>758</ele>
        <time>2014-08-30T10:52:46Z</time>
      </trkpt>
      <trkpt lat="43.90402" lon="7.23946">
        <ele>760</ele>
        <time>2014-08-30T10:52:49Z</time>
      </trkpt>
      <trkpt lat="43.90401" lon="7.23947">
        <ele>760</ele>
        <time>2014-08-30T10:52:52Z</time>
      </trkpt>
      <trkpt lat="43.90397" lon="7.23951">
        <ele>760</ele>
        <time>2014-08-30T10:52:55Z</time>
      </trkpt>
      <trkpt lat="43.90388" lon="7.2395">
        <ele>760</ele>
        <time>2014-08-30T10:52:58Z</time>
      </trkpt>
      <trkpt lat="43.90381" lon="7.2395">
        <ele>759</ele>
        <time>2014-08-30T10:53:01Z</time>
      </trkpt>
      <trkpt lat="43.90364" lon="7.23952">
        <ele>758</ele>
        <time>2014-08-30T10:53:04Z</time>
      </trkpt>
      <trkpt lat="43.90344" lon="7.23959">
        <ele>758</ele>
        <time>2014-08-30T10:53:07Z</time>
      </trkpt>
      <trkpt lat="43.90327" lon="7.23958">
        <ele>758</ele>
        <time>2014-08-30T10:53:10Z</time>
      </trkpt>
      <trkpt lat="43.9031" lon="7.23958">
        <ele>758</ele>
        <time>2014-08-30T10:53:13Z</time>
      </trkpt>
      <trkpt lat="43.90297" lon="7.23952">
        <ele>758</ele>
        <time>2014-08-30T10:53:16Z</time>
      </trkpt>
      <trkpt lat="43.90283" lon="7.23945">
        <ele>758</ele>
        <time>2014-08-30T10:53:19Z</time>
      </trkpt>
      <trkpt lat="43.9027" lon="7.23935">
        <ele>756</ele>
        <time>2014-08-30T10:53:22Z</time>
      </trkpt>
      <trkpt lat="43.90265" lon="7.2394">
        <ele>755</ele>
        <time>2014-08-30T10:53:25Z</time>
      </trkpt>
      <trkpt lat="43.90264" lon="7.23957">
        <ele>755</ele>
        <time>2014-08-30T10:53:28Z</time>
      </trkpt>
      <trkpt lat="43.90268" lon="7.23969">
        <ele>755</ele>
        <time>2014-08-30T10:53:31Z</time>
      </trkpt>
      <trkpt lat="43.90273" lon="7.23987">
        <ele>754</ele>
        <time>2014-08-30T10:53:34Z</time>
      </trkpt>
      <trkpt lat="43.90276" lon="7.24013">
        <ele>753</ele>
        <time>2014-08-30T10:53:37Z</time>
      </trkpt>
      <trkpt lat="43.90277" lon="7.24042">
        <ele>753</ele>
        <time>2014-08-30T10:53:40Z</time>
      </trkpt>
      <trkpt lat="43.90275" lon="7.24068">
        <ele>753</ele>
        <time>2014-08-30T10:53:43Z</time>
      </trkpt>
      <trkpt lat="43.90265" lon="7.24094">
        <ele>752</ele>
        <time>2014-08-30T10:53:46Z</time>
      </trkpt>
      <trkpt lat="43.90254" lon="7.24114">
        <ele>750</ele>
        <time>2014-08-30T10:53:49Z</time>
      </trkpt>
      <trkpt lat="43.90243" lon="7.24137">
        <ele>749</ele>
        <time>2014-08-30T10:53:52Z</time>
      </trkpt>
      <trkpt lat="43.90242" lon="7.24152">
        <ele>748</ele>
        <time>2014-08-30T10:53:55Z</time>
      </trkpt>
      <trkpt lat="43.90242" lon="7.24161">
        <ele>746</ele>
        <time>2014-08-30T10:53:58Z</time>
      </trkpt>
      <trkpt lat="43.90233" lon="7.24181">
        <ele>745</ele>
        <time>2014-08-30T10:54:01Z</time>
      </trkpt>
      <trkpt lat="43.90227" lon="7.24194">
        <ele>744</ele>
        <time>2014-08-30T10:54:04Z</time>
      </trkpt>
      <trkpt lat="43.90228" lon="7.242">
        <ele>744</ele>
        <time>2014-08-30T10:54:07Z</time>
      </trkpt>
      <trkpt lat="43.90229" lon="7.24211">
        <ele>746</ele>
        <time>2014-08-30T10:54:10Z</time>
      </trkpt>
      <trkpt lat="43.90232" lon="7.24222">
        <ele>746</ele>
        <time>2014-08-30T10:54:13Z</time>
      </trkpt>
      <trkpt lat="43.90231" lon="7.24235">
        <ele>746</ele>
        <time>2014-08-30T10:54:16Z</time>
      </trkpt>
      <trkpt lat="43.90227" lon="7.24249">
        <ele>748</ele>
        <time>2014-08-30T10:54:19Z</time>
      </trkpt>
      <trkpt lat="43.90228" lon="7.24265">
        <ele>748</ele>
        <time>2014-08-30T10:54:22Z</time>
      </trkpt>
      <trkpt lat="43.90229" lon="7.24279">
        <ele>748</ele>
        <time>2014-08-30T10:54:25Z</time>
      </trkpt>
      <trkpt lat="43.90228" lon="7.24297">
        <ele>748</ele>
        <time>2014-08-30T10:54:28Z</time>
      </trkpt>
      <trkpt lat="43.90226" lon="7.24311">
        <ele>747</ele>
        <time>2014-08-30T10:54:31Z</time>
      </trkpt>
      <trkpt lat="43.90223" lon="7.24326">
        <ele>746</ele>
        <time>2014-08-30T10:54:34Z</time>
      </trkpt>
      <trkpt lat="43.9022" lon="7.2434">
        <ele>745</ele>
        <time>2014-08-30T10:54:37Z</time>
      </trkpt>
      <trkpt lat="43.90218" lon="7.2435">
        <ele>744</ele>
        <time>2014-08-30T10:54:40Z</time>
      </trkpt>
      <trkpt lat="43.90216" lon="7.24358">
        <ele>744</ele>
        <time>2014-08-30T10:54:43Z</time>
      </trkpt>
      <trkpt lat="43.90215" lon="7.24374">
        <ele>743</ele>
        <time>2014-08-30T10:54:46Z</time>
      </trkpt>
      <trkpt lat="43.90201" lon="7.24403">
        <ele>741</ele>
        <time>2014-08-30T10:54:49Z</time>
      </trkpt>
      <trkpt lat="43.90188" lon="7.24433">
        <ele>739</ele>
        <time>2014-08-30T10:54:52Z</time>
      </trkpt>
      <trkpt lat="43.90179" lon="7.24461">
        <ele>737</ele>
        <time>2014-08-30T10:54:55Z</time>
      </trkpt>
      <trkpt lat="43.90165" lon="7.24479">
        <ele>736</ele>
        <time>2014-08-30T10:54:58Z</time>
      </trkpt>
      <trkpt lat="43.90145" lon="7.24502">
        <ele>734</ele>
        <time>2014-08-30T10:55:01Z</time>
      </trkpt>
      <trkpt lat="43.90126" lon="7.24515">
        <ele>733</ele>
        <time>2014-08-30T10:55:04Z</time>
      </trkpt>
      <trkpt lat="43.90111" lon="7.24532">
        <ele>732</ele>
        <time>2014-08-30T10:55:07Z</time>
      </trkpt>
      <trkpt lat="43.90098" lon="7.24541">
        <ele>731</ele>
        <time>2014-08-30T10:55:10Z</time>
      </trkpt>
      <trkpt lat="43.90086" lon="7.24546">
        <ele>729</ele>
        <time>2014-08-30T10:55:13Z</time>
      </trkpt>
      <trkpt lat="43.90074" lon="7.2455">
        <ele>728</ele>
        <time>2014-08-30T10:55:16Z</time>
      </trkpt>
      <trkpt lat="43.90069" lon="7.24547">
        <ele>726</ele>
        <time>2014-08-30T10:55:19Z</time>
      </trkpt>
      <trkpt lat="43.90066" lon="7.24544">
        <ele>726</ele>
        <time>2014-08-30T10:55:22Z</time>
      </trkpt>
      <trkpt lat="43.90052" lon="7.24542">
        <ele>724</ele>
        <time>2014-08-30T10:55:25Z</time>
      </trkpt>
      <trkpt lat="43.90038" lon="7.24539">
        <ele>722</ele>
        <time>2014-08-30T10:55:28Z</time>
      </trkpt>
      <trkpt lat="43.90032" lon="7.24538">
        <ele>719</ele>
        <time>2014-08-30T10:55:31Z</time>
      </trkpt>
      <trkpt lat="43.90021" lon="7.24542">
        <ele>717</ele>
        <time>2014-08-30T10:55:34Z</time>
      </trkpt>
      <trkpt lat="43.90009" lon="7.24545">
        <ele>714</ele>
        <time>2014-08-30T10:55:37Z</time>
      </trkpt>
      <trkpt lat="43.90001" lon="7.24556">
        <ele>713</ele>
        <time>2014-08-30T10:55:40Z</time>
      </trkpt>
      <trkpt lat="43.90006" lon="7.2457">
        <ele>712</ele>
        <time>2014-08-30T10:55:43Z</time>
      </trkpt>
      <trkpt lat="43.90013" lon="7.24575">
        <ele>711</ele>
        <time>2014-08-30T10:55:46Z</time>
      </trkpt>
      <trkpt lat="43.90015" lon="7.24587">
        <ele>709</ele>
        <time>2014-08-30T10:55:49Z</time>
      </trkpt>
      <trkpt lat="43.90012" lon="7.24605">
        <ele>706</ele>
        <time>2014-08-30T10:55:52Z</time>
      </trkpt>
      <trkpt lat="43.90009" lon="7.24619">
        <ele>704</ele>
        <time>2014-08-30T10:55:55Z</time>
      </trkpt>
      <trkpt lat="43.90001" lon="7.24639">
        <ele>703</ele>
        <time>2014-08-30T10:55:58Z</time>
      </trkpt>
      <trkpt lat="43.89986" lon="7.24663">
        <ele>701</ele>
        <time>2014-08-30T10:56:01Z</time>
      </trkpt>
      <trkpt lat="43.89976" lon="7.24678">
        <ele>701</ele>
        <time>2014-08-30T10:56:04Z</time>
      </trkpt>
      <trkpt lat="43.89973" lon="7.24686">
        <ele>701</ele>
        <time>2014-08-30T10:56:07Z</time>
      </trkpt>
      <trkpt lat="43.89969" lon="7.24688">
        <ele>701</ele>
        <time>2014-08-30T10:56:10Z</time>
      </trkpt>
      <trkpt lat="43.89967" lon="7.24691">
        <ele>701</ele>
        <time>2014-08-30T10:56:13Z</time>
      </trkpt>
      <trkpt lat="43.8996" lon="7.24689">
        <ele>701</ele>
        <time>2014-08-30T10:56:16Z</time>
      </trkpt>
      <trkpt lat="43.89949" lon="7.24693">
        <ele>701</ele>
        <time>2014-08-30T10:56:19Z</time>
      </trkpt>
      <trkpt lat="43.89936" lon="7.24694">
        <ele>701</ele>
        <time>2014-08-30T10:56:22Z</time>
      </trkpt>
      <trkpt lat="43.89922" lon="7.24691">
        <ele>701</ele>
        <time>2014-08-30T10:56:25Z</time>
      </trkpt>
      <trkpt lat="43.89909" lon="7.24689">
        <ele>701</ele>
        <time>2014-08-30T10:56:28Z</time>
      </trkpt>
      <trkpt lat="43.89895" lon="7.24691">
        <ele>701</ele>
        <time>2014-08-30T10:56:31Z</time>
      </trkpt>
      <trkpt lat="43.89879" lon="7.24691">
        <ele>701</ele>
        <time>2014-08-30T10:56:34Z</time>
      </trkpt>
      <trkpt lat="43.89863" lon="7.24693">
        <ele>699</ele>
        <time>2014-08-30T10:56:37Z</time>
      </trkpt>
      <trkpt lat="43.89852" lon="7.24697">
        <ele>699</ele>
        <time>2014-08-30T10:56:40Z</time>
      </trkpt>
      <trkpt lat="43.89837" lon="7.24704">
        <ele>699</ele>
        <time>2014-08-30T10:56:43Z</time>
      </trkpt>
      <trkpt lat="43.89821" lon="7.24713">
        <ele>699</ele>
        <time>2014-08-30T10:56:46Z</time>
      </trkpt>
      <trkpt lat="43.89808" lon="7.24714">
        <ele>699</ele>
        <time>2014-08-30T10:56:49Z</time>
      </trkpt>
      <trkpt lat="43.89794" lon="7.24717">
        <ele>699</ele>
        <time>2014-08-30T10:56:52Z</time>
      </trkpt>
      <trkpt lat="43.89779" lon="7.24719">
        <ele>699</ele>
        <time>2014-08-30T10:56:55Z</time>
      </trkpt>
      <trkpt lat="43.89764" lon="7.24721">
        <ele>698</ele>
        <time>2014-08-30T10:56:58Z</time>
      </trkpt>
      <trkpt lat="43.8975" lon="7.24719">
        <ele>697</ele>
        <time>2014-08-30T10:57:01Z</time>
      </trkpt>
      <trkpt lat="43.89735" lon="7.24716">
        <ele>697</ele>
        <time>2014-08-30T10:57:04Z</time>
      </trkpt>
      <trkpt lat="43.89719" lon="7.24715">
        <ele>696</ele>
        <time>2014-08-30T10:57:07Z</time>
      </trkpt>
      <trkpt lat="43.89702" lon="7.24718">
        <ele>694</ele>
        <time>2014-08-30T10:57:10Z</time>
      </trkpt>
      <trkpt lat="43.89687" lon="7.24727">
        <ele>692</ele>
        <time>2014-08-30T10:57:13Z</time>
      </trkpt>
      <trkpt lat="43.89676" lon="7.24737">
        <ele>689</ele>
        <time>2014-08-30T10:57:16Z</time>
      </trkpt>
      <trkpt lat="43.89666" lon="7.24738">
        <ele>688</ele>
        <time>2014-08-30T10:57:20Z</time>
      </trkpt>
      <trkpt lat="43.89661" lon="7.2475">
        <ele>687</ele>
        <time>2014-08-30T10:57:23Z</time>
      </trkpt>
      <trkpt lat="43.89657" lon="7.24758">
        <ele>685</ele>
        <time>2014-08-30T10:57:26Z</time>
      </trkpt>
      <trkpt lat="43.89658" lon="7.24749">
        <ele>684</ele>
        <time>2014-08-30T10:57:29Z</time>
      </trkpt>
      <trkpt lat="43.89661" lon="7.24732">
        <ele>682</ele>
        <time>2014-08-30T10:57:32Z</time>
      </trkpt>
      <trkpt lat="43.89661" lon="7.24715">
        <ele>681</ele>
        <time>2014-08-30T10:57:35Z</time>
      </trkpt>
      <trkpt lat="43.89665" lon="7.247">
        <ele>679</ele>
        <time>2014-08-30T10:57:38Z</time>
      </trkpt>
      <trkpt lat="43.89668" lon="7.24685">
        <ele>677</ele>
        <time>2014-08-30T10:57:41Z</time>
      </trkpt>
      <trkpt lat="43.89673" lon="7.24673">
        <ele>675</ele>
        <time>2014-08-30T10:57:44Z</time>
      </trkpt>
      <trkpt lat="43.89676" lon="7.24658">
        <ele>674</ele>
        <time>2014-08-30T10:57:47Z</time>
      </trkpt>
      <trkpt lat="43.89679" lon="7.24645">
        <ele>672</ele>
        <time>2014-08-30T10:57:50Z</time>
      </trkpt>
      <trkpt lat="43.89683" lon="7.2463">
        <ele>670</ele>
        <time>2014-08-30T10:57:53Z</time>
      </trkpt>
      <trkpt lat="43.89681" lon="7.24611">
        <ele>668</ele>
        <time>2014-08-30T10:57:56Z</time>
      </trkpt>
      <trkpt lat="43.89687" lon="7.24599">
        <ele>666</ele>
        <time>2014-08-30T10:57:59Z</time>
      </trkpt>
      <trkpt lat="43.89695" lon="7.24581">
        <ele>664</ele>
        <time>2014-08-30T10:58:02Z</time>
      </trkpt>
      <trkpt lat="43.89699" lon="7.24558">
        <ele>662</ele>
        <time>2014-08-30T10:58:05Z</time>
      </trkpt>
      <trkpt lat="43.89696" lon="7.24534">
        <ele>662</ele>
        <time>2014-08-30T10:58:08Z</time>
      </trkpt>
      <trkpt lat="43.89695" lon="7.24515">
        <ele>660</ele>
        <time>2014-08-30T10:58:11Z</time>
      </trkpt>
      <trkpt lat="43.8969" lon="7.24498">
        <ele>659</ele>
        <time>2014-08-30T10:58:14Z</time>
      </trkpt>
      <trkpt lat="43.89688" lon="7.24477">
        <ele>658</ele>
        <time>2014-08-30T10:58:17Z</time>
      </trkpt>
      <trkpt lat="43.89691" lon="7.24464">
        <ele>657</ele>
        <time>2014-08-30T10:58:20Z</time>
      </trkpt>
      <trkpt lat="43.89681" lon="7.24471">
        <ele>656</ele>
        <time>2014-08-30T10:58:23Z</time>
      </trkpt>
      <trkpt lat="43.89664" lon="7.24481">
        <ele>655</ele>
        <time>2014-08-30T10:58:26Z</time>
      </trkpt>
      <trkpt lat="43.89657" lon="7.24493">
        <ele>655</ele>
        <time>2014-08-30T10:58:29Z</time>
      </trkpt>
      <trkpt lat="43.89652" lon="7.24509">
        <ele>655</ele>
        <time>2014-08-30T10:58:32Z</time>
      </trkpt>
      <trkpt lat="43.89638" lon="7.24525">
        <ele>655</ele>
        <time>2014-08-30T10:58:35Z</time>
      </trkpt>
      <trkpt lat="43.89623" lon="7.24533">
        <ele>655</ele>
        <time>2014-08-30T10:58:38Z</time>
      </trkpt>
      <trkpt lat="43.89609" lon="7.24541">
        <ele>655</ele>
        <time>2014-08-30T10:58:41Z</time>
      </trkpt>
      <trkpt lat="43.89601" lon="7.24558">
        <ele>655</ele>
        <time>2014-08-30T10:58:44Z</time>
      </trkpt>
      <trkpt lat="43.89592" lon="7.24569">
        <ele>654</ele>
        <time>2014-08-30T10:58:47Z</time>
      </trkpt>
      <trkpt lat="43.89579" lon="7.24576">
        <ele>653</ele>
        <time>2014-08-30T10:58:50Z</time>
      </trkpt>
      <trkpt lat="43.89567" lon="7.24584">
        <ele>652</ele>
        <time>2014-08-30T10:58:53Z</time>
      </trkpt>
      <trkpt lat="43.89556" lon="7.24593">
        <ele>651</ele>
        <time>2014-08-30T10:58:56Z</time>
      </trkpt>
      <trkpt lat="43.89545" lon="7.24597">
        <ele>651</ele>
        <time>2014-08-30T10:58:59Z</time>
      </trkpt>
      <trkpt lat="43.89532" lon="7.246">
        <ele>650</ele>
        <time>2014-08-30T10:59:02Z</time>
      </trkpt>
      <trkpt lat="43.8952" lon="7.2461">
        <ele>648</ele>
        <time>2014-08-30T10:59:05Z</time>
      </trkpt>
      <trkpt lat="43.89507" lon="7.24623">
        <ele>648</ele>
        <time>2014-08-30T10:59:08Z</time>
      </trkpt>
      <trkpt lat="43.89492" lon="7.24627">
        <ele>648</ele>
        <time>2014-08-30T10:59:11Z</time>
      </trkpt>
      <trkpt lat="43.8948" lon="7.24628">
        <ele>648</ele>
        <time>2014-08-30T10:59:14Z</time>
      </trkpt>
      <trkpt lat="43.8947" lon="7.24629">
        <ele>648</ele>
        <time>2014-08-30T10:59:17Z</time>
      </trkpt>
      <trkpt lat="43.89463" lon="7.24636">
        <ele>648</ele>
        <time>2014-08-30T10:59:20Z</time>
      </trkpt>
      <trkpt lat="43.89456" lon="7.24651">
        <ele>648</ele>
        <time>2014-08-30T10:59:23Z</time>
      </trkpt>
      <trkpt lat="43.89447" lon="7.24661">
        <ele>648</ele>
        <time>2014-08-30T10:59:26Z</time>
      </trkpt>
      <trkpt lat="43.89439" lon="7.24669">
        <ele>648</ele>
        <time>2014-08-30T10:59:29Z</time>
      </trkpt>
      <trkpt lat="43.89431" lon="7.24675">
        <ele>648</ele>
        <time>2014-08-30T10:59:32Z</time>
      </trkpt>
      <trkpt lat="43.89422" lon="7.24684">
        <ele>648</ele>
        <time>2014-08-30T10:59:35Z</time>
      </trkpt>
      <trkpt lat="43.89412" lon="7.24694">
        <ele>648</ele>
        <time>2014-08-30T10:59:38Z</time>
      </trkpt>
      <trkpt lat="43.89403" lon="7.24704">
        <ele>650</ele>
        <time>2014-08-30T10:59:41Z</time>
      </trkpt>
      <trkpt lat="43.89397" lon="7.24707">
        <ele>651</ele>
        <time>2014-08-30T10:59:44Z</time>
      </trkpt>
      <trkpt lat="43.89388" lon="7.24704">
        <ele>651</ele>
        <time>2014-08-30T10:59:47Z</time>
      </trkpt>
      <trkpt lat="43.89379" lon="7.24709">
        <ele>651</ele>
        <time>2014-08-30T10:59:50Z</time>
      </trkpt>
      <trkpt lat="43.89372" lon="7.2472">
        <ele>651</ele>
        <time>2014-08-30T10:59:53Z</time>
      </trkpt>
      <trkpt lat="43.8937" lon="7.24732">
        <ele>651</ele>
        <time>2014-08-30T10:59:56Z</time>
      </trkpt>
      <trkpt lat="43.89365" lon="7.24741">
        <ele>652</ele>
        <time>2014-08-30T10:59:59Z</time>
      </trkpt>
      <trkpt lat="43.89358" lon="7.24751">
        <ele>653</ele>
        <time>2014-08-30T11:00:02Z</time>
      </trkpt>
      <trkpt lat="43.89351" lon="7.24759">
        <ele>653</ele>
        <time>2014-08-30T11:00:05Z</time>
      </trkpt>
      <trkpt lat="43.89344" lon="7.24758">
        <ele>653</ele>
        <time>2014-08-30T11:00:08Z</time>
      </trkpt>
      <trkpt lat="43.89339" lon="7.24755">
        <ele>654</ele>
        <time>2014-08-30T11:00:11Z</time>
      </trkpt>
      <trkpt lat="43.89332" lon="7.24754">
        <ele>655</ele>
        <time>2014-08-30T11:00:14Z</time>
      </trkpt>
      <trkpt lat="43.89322" lon="7.2475">
        <ele>653</ele>
        <time>2014-08-30T11:00:17Z</time>
      </trkpt>
      <trkpt lat="43.89314" lon="7.24753">
        <ele>651</ele>
        <time>2014-08-30T11:00:20Z</time>
      </trkpt>
      <trkpt lat="43.89311" lon="7.2476">
        <ele>650</ele>
        <time>2014-08-30T11:00:23Z</time>
      </trkpt>
      <trkpt lat="43.89319" lon="7.24762">
        <ele>649</ele>
        <time>2014-08-30T11:00:26Z</time>
      </trkpt>
      <trkpt lat="43.8932" lon="7.24764">
        <ele>647</ele>
        <time>2014-08-30T11:00:29Z</time>
      </trkpt>
      <trkpt lat="43.8931" lon="7.24766">
        <ele>646</ele>
        <time>2014-08-30T11:00:32Z</time>
      </trkpt>
      <trkpt lat="43.89298" lon="7.24771">
        <ele>645</ele>
        <time>2014-08-30T11:00:35Z</time>
      </trkpt>
      <trkpt lat="43.8929" lon="7.24768">
        <ele>644</ele>
        <time>2014-08-30T11:00:38Z</time>
      </trkpt>
      <trkpt lat="43.89283" lon="7.24759">
        <ele>642</ele>
        <time>2014-08-30T11:00:41Z</time>
      </trkpt>
      <trkpt lat="43.89278" lon="7.24748">
        <ele>640</ele>
        <time>2014-08-30T11:00:44Z</time>
      </trkpt>
      <trkpt lat="43.89286" lon="7.24735">
        <ele>637</ele>
        <time>2014-08-30T11:00:47Z</time>
      </trkpt>
      <trkpt lat="43.89292" lon="7.24723">
        <ele>635</ele>
        <time>2014-08-30T11:00:50Z</time>
      </trkpt>
      <trkpt lat="43.89286" lon="7.24713">
        <ele>632</ele>
        <time>2014-08-30T11:00:53Z</time>
      </trkpt>
      <trkpt lat="43.89271" lon="7.2471">
        <ele>632</ele>
        <time>2014-08-30T11:00:56Z</time>
      </trkpt>
      <trkpt lat="43.89254" lon="7.24699">
        <ele>632</ele>
        <time>2014-08-30T11:00:59Z</time>
      </trkpt>
      <trkpt lat="43.8924" lon="7.24692">
        <ele>632</ele>
        <time>2014-08-30T11:01:02Z</time>
      </trkpt>
      <trkpt lat="43.89227" lon="7.24692">
        <ele>632</ele>
        <time>2014-08-30T11:01:05Z</time>
      </trkpt>
      <trkpt lat="43.89225" lon="7.24682">
        <ele>632</ele>
        <time>2014-08-30T11:01:08Z</time>
      </trkpt>
      <trkpt lat="43.89216" lon="7.24671">
        <ele>632</ele>
        <time>2014-08-30T11:01:11Z</time>
      </trkpt>
      <trkpt lat="43.89207" lon="7.2466">
        <ele>632</ele>
        <time>2014-08-30T11:01:14Z</time>
      </trkpt>
      <trkpt lat="43.89197" lon="7.24649">
        <ele>631</ele>
        <time>2014-08-30T11:01:17Z</time>
      </trkpt>
      <trkpt lat="43.89192" lon="7.24639">
        <ele>630</ele>
        <time>2014-08-30T11:01:20Z</time>
      </trkpt>
      <trkpt lat="43.89195" lon="7.24631">
        <ele>629</ele>
        <time>2014-08-30T11:01:23Z</time>
      </trkpt>
      <trkpt lat="43.89205" lon="7.24618">
        <ele>627</ele>
        <time>2014-08-30T11:01:26Z</time>
      </trkpt>
      <trkpt lat="43.89215" lon="7.246">
        <ele>627</ele>
        <time>2014-08-30T11:01:29Z</time>
      </trkpt>
      <trkpt lat="43.89222" lon="7.24586">
        <ele>627</ele>
        <time>2014-08-30T11:01:32Z</time>
      </trkpt>
      <trkpt lat="43.89214" lon="7.24577">
        <ele>627</ele>
        <time>2014-08-30T11:01:35Z</time>
      </trkpt>
      <trkpt lat="43.89208" lon="7.24577">
        <ele>627</ele>
        <time>2014-08-30T11:01:38Z</time>
      </trkpt>
      <trkpt lat="43.8919" lon="7.24574">
        <ele>627</ele>
        <time>2014-08-30T11:01:41Z</time>
      </trkpt>
      <trkpt lat="43.8917" lon="7.24577">
        <ele>627</ele>
        <time>2014-08-30T11:01:44Z</time>
      </trkpt>
      <trkpt lat="43.89155" lon="7.24582">
        <ele>627</ele>
        <time>2014-08-30T11:01:47Z</time>
      </trkpt>
      <trkpt lat="43.89144" lon="7.24583">
        <ele>627</ele>
        <time>2014-08-30T11:01:50Z</time>
      </trkpt>
      <trkpt lat="43.89133" lon="7.24573">
        <ele>627</ele>
        <time>2014-08-30T11:01:53Z</time>
      </trkpt>
      <trkpt lat="43.89126" lon="7.24558">
        <ele>627</ele>
        <time>2014-08-30T11:01:56Z</time>
      </trkpt>
      <trkpt lat="43.89128" lon="7.24542">
        <ele>627</ele>
        <time>2014-08-30T11:01:59Z</time>
      </trkpt>
      <trkpt lat="43.89129" lon="7.24528">
        <ele>628</ele>
        <time>2014-08-30T11:02:02Z</time>
      </trkpt>
      <trkpt lat="43.89124" lon="7.24515">
        <ele>629</ele>
        <time>2014-08-30T11:02:05Z</time>
      </trkpt>
      <trkpt lat="43.89121" lon="7.24502">
        <ele>629</ele>
        <time>2014-08-30T11:02:08Z</time>
      </trkpt>
      <trkpt lat="43.89123" lon="7.24488">
        <ele>629</ele>
        <time>2014-08-30T11:02:11Z</time>
      </trkpt>
      <trkpt lat="43.89122" lon="7.24481">
        <ele>631</ele>
        <time>2014-08-30T11:02:14Z</time>
      </trkpt>
      <trkpt lat="43.89114" lon="7.24477">
        <ele>632</ele>
        <time>2014-08-30T11:02:17Z</time>
      </trkpt>
      <trkpt lat="43.89106" lon="7.24476">
        <ele>632</ele>
        <time>2014-08-30T11:02:20Z</time>
      </trkpt>
      <trkpt lat="43.89103" lon="7.24476">
        <ele>632</ele>
        <time>2014-08-30T11:02:23Z</time>
      </trkpt>
      <trkpt lat="43.89099" lon="7.24468">
        <ele>632</ele>
        <time>2014-08-30T11:02:26Z</time>
      </trkpt>
      <trkpt lat="43.8909" lon="7.24464">
        <ele>632</ele>
        <time>2014-08-30T11:02:29Z</time>
      </trkpt>
      <trkpt lat="43.89077" lon="7.24463">
        <ele>632</ele>
        <time>2014-08-30T11:02:32Z</time>
      </trkpt>
      <trkpt lat="43.89061" lon="7.24455">
        <ele>632</ele>
        <time>2014-08-30T11:02:35Z</time>
      </trkpt>
      <trkpt lat="43.89051" lon="7.24442">
        <ele>632</ele>
        <time>2014-08-30T11:02:38Z</time>
      </trkpt>
      <trkpt lat="43.89044" lon="7.24428">
        <ele>632</ele>
        <time>2014-08-30T11:02:41Z</time>
      </trkpt>
      <trkpt lat="43.89044" lon="7.24413">
        <ele>632</ele>
        <time>2014-08-30T11:02:44Z</time>
      </trkpt>
      <trkpt lat="43.89043" lon="7.24397">
        <ele>632</ele>
        <time>2014-08-30T11:02:47Z</time>
      </trkpt>
      <trkpt lat="43.89043" lon="7.24378">
        <ele>632</ele>
        <time>2014-08-30T11:02:50Z</time>
      </trkpt>
      <trkpt lat="43.89045" lon="7.2436">
        <ele>632</ele>
        <time>2014-08-30T11:02:53Z</time>
      </trkpt>
      <trkpt lat="43.89043" lon="7.24344">
        <ele>632</ele>
        <time>2014-08-30T11:02:56Z</time>
      </trkpt>
      <trkpt lat="43.8904" lon="7.24326">
        <ele>632</ele>
        <time>2014-08-30T11:02:59Z</time>
      </trkpt>
      <trkpt lat="43.89033" lon="7.24319">
        <ele>632</ele>
        <time>2014-08-30T11:03:02Z</time>
      </trkpt>
      <trkpt lat="43.89025" lon="7.24311">
        <ele>632</ele>
        <time>2014-08-30T11:03:05Z</time>
      </trkpt>
      <trkpt lat="43.89015" lon="7.24297">
        <ele>632</ele>
        <time>2014-08-30T11:03:08Z</time>
      </trkpt>
      <trkpt lat="43.89006" lon="7.24289">
        <ele>632</ele>
        <time>2014-08-30T11:03:11Z</time>
      </trkpt>
      <trkpt lat="43.88994" lon="7.24282">
        <ele>632</ele>
        <time>2014-08-30T11:03:14Z</time>
      </trkpt>
      <trkpt lat="43.8899" lon="7.24272">
        <ele>632</ele>
        <time>2014-08-30T11:03:17Z</time>
      </trkpt>
      <trkpt lat="43.88996" lon="7.24266">
        <ele>632</ele>
        <time>2014-08-30T11:03:20Z</time>
      </trkpt>
      <trkpt lat="43.88998" lon="7.24261">
        <ele>632</ele>
        <time>2014-08-30T11:03:23Z</time>
      </trkpt>
      <trkpt lat="43.89007" lon="7.24246">
        <ele>632</ele>
        <time>2014-08-30T11:03:26Z</time>
      </trkpt>
      <trkpt lat="43.89018" lon="7.24224">
        <ele>632</ele>
        <time>2014-08-30T11:03:29Z</time>
      </trkpt>
      <trkpt lat="43.89024" lon="7.2421">
        <ele>632</ele>
        <time>2014-08-30T11:03:32Z</time>
      </trkpt>
      <trkpt lat="43.89021" lon="7.24197">
        <ele>632</ele>
        <time>2014-08-30T11:03:35Z</time>
      </trkpt>
      <trkpt lat="43.89003" lon="7.24191">
        <ele>632</ele>
        <time>2014-08-30T11:03:38Z</time>
      </trkpt>
      <trkpt lat="43.88989" lon="7.24189">
        <ele>632</ele>
        <time>2014-08-30T11:03:41Z</time>
      </trkpt>
      <trkpt lat="43.88974" lon="7.24192">
        <ele>633</ele>
        <time>2014-08-30T11:03:44Z</time>
      </trkpt>
      <trkpt lat="43.88962" lon="7.24195">
        <ele>634</ele>
        <time>2014-08-30T11:03:47Z</time>
      </trkpt>
      <trkpt lat="43.88955" lon="7.24188">
        <ele>634</ele>
        <time>2014-08-30T11:03:50Z</time>
      </trkpt>
      <trkpt lat="43.8895" lon="7.24177">
        <ele>634</ele>
        <time>2014-08-30T11:03:53Z</time>
      </trkpt>
      <trkpt lat="43.88949" lon="7.24164">
        <ele>634</ele>
        <time>2014-08-30T11:03:56Z</time>
      </trkpt>
      <trkpt lat="43.88956" lon="7.24152">
        <ele>634</ele>
        <time>2014-08-30T11:03:59Z</time>
      </trkpt>
      <trkpt lat="43.8895" lon="7.24142">
        <ele>634</ele>
        <time>2014-08-30T11:04:02Z</time>
      </trkpt>
      <trkpt lat="43.88936" lon="7.24144">
        <ele>634</ele>
        <time>2014-08-30T11:04:05Z</time>
      </trkpt>
      <trkpt lat="43.8892" lon="7.24145">
        <ele>634</ele>
        <time>2014-08-30T11:04:08Z</time>
      </trkpt>
      <trkpt lat="43.88906" lon="7.24146">
        <ele>634</ele>
        <time>2014-08-30T11:04:11Z</time>
      </trkpt>
      <trkpt lat="43.88895" lon="7.24149">
        <ele>633</ele>
        <time>2014-08-30T11:04:14Z</time>
      </trkpt>
      <trkpt lat="43.88885" lon="7.24149">
        <ele>632</ele>
        <time>2014-08-30T11:04:17Z</time>
      </trkpt>
      <trkpt lat="43.88876" lon="7.24152">
        <ele>630</ele>
        <time>2014-08-30T11:04:20Z</time>
      </trkpt>
      <trkpt lat="43.88873" lon="7.24177">
        <ele>628</ele>
        <time>2014-08-30T11:04:25Z</time>
      </trkpt>
      <trkpt lat="43.88871" lon="7.24185">
        <ele>625</ele>
        <time>2014-08-30T11:04:28Z</time>
      </trkpt>
      <trkpt lat="43.88871" lon="7.24188">
        <ele>622</ele>
        <time>2014-08-30T11:04:31Z</time>
      </trkpt>
      <trkpt lat="43.88874" lon="7.24178">
        <ele>621</ele>
        <time>2014-08-30T11:04:34Z</time>
      </trkpt>
      <trkpt lat="43.88874" lon="7.24179">
        <ele>620</ele>
        <time>2014-08-30T11:04:37Z</time>
      </trkpt>
      <trkpt lat="43.88869" lon="7.24189">
        <ele>619</ele>
        <time>2014-08-30T11:04:40Z</time>
      </trkpt>
      <trkpt lat="43.88861" lon="7.242">
        <ele>617</ele>
        <time>2014-08-30T11:04:43Z</time>
      </trkpt>
      <trkpt lat="43.8886" lon="7.24208">
        <ele>616</ele>
        <time>2014-08-30T11:04:46Z</time>
      </trkpt>
      <trkpt lat="43.88861" lon="7.24211">
        <ele>614</ele>
        <time>2014-08-30T11:04:49Z</time>
      </trkpt>
      <trkpt lat="43.88859" lon="7.2422">
        <ele>613</ele>
        <time>2014-08-30T11:04:52Z</time>
      </trkpt>
      <trkpt lat="43.88859" lon="7.24228">
        <ele>611</ele>
        <time>2014-08-30T11:04:55Z</time>
      </trkpt>
      <trkpt lat="43.88858" lon="7.2423">
        <ele>610</ele>
        <time>2014-08-30T11:04:58Z</time>
      </trkpt>
      <trkpt lat="43.88853" lon="7.24226">
        <ele>609</ele>
        <time>2014-08-30T11:05:01Z</time>
      </trkpt>
      <trkpt lat="43.88848" lon="7.24225">
        <ele>608</ele>
        <time>2014-08-30T11:05:04Z</time>
      </trkpt>
      <trkpt lat="43.88843" lon="7.24227">
        <ele>606</ele>
        <time>2014-08-30T11:05:07Z</time>
      </trkpt>
      <trkpt lat="43.88836" lon="7.24232">
        <ele>605</ele>
        <time>2014-08-30T11:05:10Z</time>
      </trkpt>
      <trkpt lat="43.88827" lon="7.24238">
        <ele>603</ele>
        <time>2014-08-30T11:05:13Z</time>
      </trkpt>
      <trkpt lat="43.88813" lon="7.24245">
        <ele>601</ele>
        <time>2014-08-30T11:05:16Z</time>
      </trkpt>
      <trkpt lat="43.88801" lon="7.24256">
        <ele>599</ele>
        <time>2014-08-30T11:05:19Z</time>
      </trkpt>
      <trkpt lat="43.88789" lon="7.24261">
        <ele>597</ele>
        <time>2014-08-30T11:05:22Z</time>
      </trkpt>
      <trkpt lat="43.88777" lon="7.24269">
        <ele>595</ele>
        <time>2014-08-30T11:05:25Z</time>
      </trkpt>
      <trkpt lat="43.88769" lon="7.24274">
        <ele>593</ele>
        <time>2014-08-30T11:05:28Z</time>
      </trkpt>
      <trkpt lat="43.88769" lon="7.24262">
        <ele>592</ele>
        <time>2014-08-30T11:05:31Z</time>
      </trkpt>
      <trkpt lat="43.88772" lon="7.24243">
        <ele>590</ele>
        <time>2014-08-30T11:05:34Z</time>
      </trkpt>
      <trkpt lat="43.88773" lon="7.24225">
        <ele>588</ele>
        <time>2014-08-30T11:05:37Z</time>
      </trkpt>
      <trkpt lat="43.88773" lon="7.24212">
        <ele>586</ele>
        <time>2014-08-30T11:05:40Z</time>
      </trkpt>
      <trkpt lat="43.88766" lon="7.24215">
        <ele>584</ele>
        <time>2014-08-30T11:05:43Z</time>
      </trkpt>
      <trkpt lat="43.88763" lon="7.24227">
        <ele>582</ele>
        <time>2014-08-30T11:05:46Z</time>
      </trkpt>
      <trkpt lat="43.88762" lon="7.24241">
        <ele>581</ele>
        <time>2014-08-30T11:05:49Z</time>
      </trkpt>
      <trkpt lat="43.88761" lon="7.24251">
        <ele>579</ele>
        <time>2014-08-30T11:05:52Z</time>
      </trkpt>
      <trkpt lat="43.88754" lon="7.24266">
        <ele>578</ele>
        <time>2014-08-30T11:05:55Z</time>
      </trkpt>
      <trkpt lat="43.88745" lon="7.24281">
        <ele>576</ele>
        <time>2014-08-30T11:05:58Z</time>
      </trkpt>
      <trkpt lat="43.88738" lon="7.24296">
        <ele>574</ele>
        <time>2014-08-30T11:06:01Z</time>
      </trkpt>
      <trkpt lat="43.88734" lon="7.24305">
        <ele>572</ele>
        <time>2014-08-30T11:06:04Z</time>
      </trkpt>
      <trkpt lat="43.88733" lon="7.24304">
        <ele>570</ele>
        <time>2014-08-30T11:06:07Z</time>
      </trkpt>
      <trkpt lat="43.88732" lon="7.24301">
        <ele>568</ele>
        <time>2014-08-30T11:06:10Z</time>
      </trkpt>
      <trkpt lat="43.88731" lon="7.2429">
        <ele>567</ele>
        <time>2014-08-30T11:06:13Z</time>
      </trkpt>
      <trkpt lat="43.88731" lon="7.24273">
        <ele>565</ele>
        <time>2014-08-30T11:06:16Z</time>
      </trkpt>
      <trkpt lat="43.88729" lon="7.2426">
        <ele>563</ele>
        <time>2014-08-30T11:06:19Z</time>
      </trkpt>
      <trkpt lat="43.88732" lon="7.24249">
        <ele>561</ele>
        <time>2014-08-30T11:06:22Z</time>
      </trkpt>
      <trkpt lat="43.88728" lon="7.24254">
        <ele>559</ele>
        <time>2014-08-30T11:06:25Z</time>
      </trkpt>
      <trkpt lat="43.88725" lon="7.24257">
        <ele>557</ele>
        <time>2014-08-30T11:06:28Z</time>
      </trkpt>
      <trkpt lat="43.88722" lon="7.24249">
        <ele>556</ele>
        <time>2014-08-30T11:06:31Z</time>
      </trkpt>
      <trkpt lat="43.88723" lon="7.24239">
        <ele>555</ele>
        <time>2014-08-30T11:06:34Z</time>
      </trkpt>
      <trkpt lat="43.8872" lon="7.24234">
        <ele>553</ele>
        <time>2014-08-30T11:06:37Z</time>
      </trkpt>
      <trkpt lat="43.88712" lon="7.24241">
        <ele>552</ele>
        <time>2014-08-30T11:06:40Z</time>
      </trkpt>
      <trkpt lat="43.88711" lon="7.24237">
        <ele>550</ele>
        <time>2014-08-30T11:06:43Z</time>
      </trkpt>
      <trkpt lat="43.88712" lon="7.24227">
        <ele>548</ele>
        <time>2014-08-30T11:06:46Z</time>
      </trkpt>
      <trkpt lat="43.88709" lon="7.24219">
        <ele>545</ele>
        <time>2014-08-30T11:06:49Z</time>
      </trkpt>
      <trkpt lat="43.88708" lon="7.2421">
        <ele>543</ele>
        <time>2014-08-30T11:06:52Z</time>
      </trkpt>
      <trkpt lat="43.88703" lon="7.24216">
        <ele>541</ele>
        <time>2014-08-30T11:06:55Z</time>
      </trkpt>
      <trkpt lat="43.88695" lon="7.24224">
        <ele>540</ele>
        <time>2014-08-30T11:06:58Z</time>
      </trkpt>
      <trkpt lat="43.88691" lon="7.24222">
        <ele>538</ele>
        <time>2014-08-30T11:07:01Z</time>
      </trkpt>
      <trkpt lat="43.88693" lon="7.24212">
        <ele>537</ele>
        <time>2014-08-30T11:07:04Z</time>
      </trkpt>
      <trkpt lat="43.88691" lon="7.24206">
        <ele>535</ele>
        <time>2014-08-30T11:07:07Z</time>
      </trkpt>
      <trkpt lat="43.8869" lon="7.24199">
        <ele>533</ele>
        <time>2014-08-30T11:07:10Z</time>
      </trkpt>
      <trkpt lat="43.88688" lon="7.24199">
        <ele>532</ele>
        <time>2014-08-30T11:07:13Z</time>
      </trkpt>
      <trkpt lat="43.88682" lon="7.24205">
        <ele>531</ele>
        <time>2014-08-30T11:07:16Z</time>
      </trkpt>
      <trkpt lat="43.88684" lon="7.24199">
        <ele>530</ele>
        <time>2014-08-30T11:07:19Z</time>
      </trkpt>
      <trkpt lat="43.88683" lon="7.24188">
        <ele>528</ele>
        <time>2014-08-30T11:07:22Z</time>
      </trkpt>
      <trkpt lat="43.88681" lon="7.24174">
        <ele>526</ele>
        <time>2014-08-30T11:07:25Z</time>
      </trkpt>
      <trkpt lat="43.88681" lon="7.24159">
        <ele>523</ele>
        <time>2014-08-30T11:07:28Z</time>
      </trkpt>
      <trkpt lat="43.88684" lon="7.24148">
        <ele>521</ele>
        <time>2014-08-30T11:07:31Z</time>
      </trkpt>
      <trkpt lat="43.88688" lon="7.24124">
        <ele>517</ele>
        <time>2014-08-30T11:07:37Z</time>
      </trkpt>
      <trkpt lat="43.88681" lon="7.24128">
        <ele>515</ele>
        <time>2014-08-30T11:07:40Z</time>
      </trkpt>
      <trkpt lat="43.88674" lon="7.2414">
        <ele>514</ele>
        <time>2014-08-30T11:07:43Z</time>
      </trkpt>
      <trkpt lat="43.88665" lon="7.24145">
        <ele>512</ele>
        <time>2014-08-30T11:07:46Z</time>
      </trkpt>
      <trkpt lat="43.88656" lon="7.24151">
        <ele>510</ele>
        <time>2014-08-30T11:07:49Z</time>
      </trkpt>
      <trkpt lat="43.88653" lon="7.2415">
        <ele>508</ele>
        <time>2014-08-30T11:07:52Z</time>
      </trkpt>
      <trkpt lat="43.88656" lon="7.24141">
        <ele>507</ele>
        <time>2014-08-30T11:07:55Z</time>
      </trkpt>
      <trkpt lat="43.88659" lon="7.2413">
        <ele>506</ele>
        <time>2014-08-30T11:07:58Z</time>
      </trkpt>
      <trkpt lat="43.88656" lon="7.24129">
        <ele>504</ele>
        <time>2014-08-30T11:08:01Z</time>
      </trkpt>
      <trkpt lat="43.88646" lon="7.24136">
        <ele>503</ele>
        <time>2014-08-30T11:08:04Z</time>
      </trkpt>
      <trkpt lat="43.88637" lon="7.24144">
        <ele>501</ele>
        <time>2014-08-30T11:08:07Z</time>
      </trkpt>
      <trkpt lat="43.88634" lon="7.24158">
        <ele>499</ele>
        <time>2014-08-30T11:08:10Z</time>
      </trkpt>
      <trkpt lat="43.88628" lon="7.24172">
        <ele>497</ele>
        <time>2014-08-30T11:08:13Z</time>
      </trkpt>
      <trkpt lat="43.88625" lon="7.24191">
        <ele>495</ele>
        <time>2014-08-30T11:08:16Z</time>
      </trkpt>
      <trkpt lat="43.8862" lon="7.24213">
        <ele>493</ele>
        <time>2014-08-30T11:08:19Z</time>
      </trkpt>
      <trkpt lat="43.88613" lon="7.24233">
        <ele>490</ele>
        <time>2014-08-30T11:08:22Z</time>
      </trkpt>
      <trkpt lat="43.88611" lon="7.24244">
        <ele>488</ele>
        <time>2014-08-30T11:08:25Z</time>
      </trkpt>
      <trkpt lat="43.88611" lon="7.24259">
        <ele>486</ele>
        <time>2014-08-30T11:08:28Z</time>
      </trkpt>
      <trkpt lat="43.88609" lon="7.24264">
        <ele>483</ele>
        <time>2014-08-30T11:08:31Z</time>
      </trkpt>
      <trkpt lat="43.88609" lon="7.24259">
        <ele>482</ele>
        <time>2014-08-30T11:08:34Z</time>
      </trkpt>
      <trkpt lat="43.88608" lon="7.24251">
        <ele>481</ele>
        <time>2014-08-30T11:08:37Z</time>
      </trkpt>
      <trkpt lat="43.88609" lon="7.24234">
        <ele>480</ele>
        <time>2014-08-30T11:08:40Z</time>
      </trkpt>
      <trkpt lat="43.88611" lon="7.24217">
        <ele>478</ele>
        <time>2014-08-30T11:08:43Z</time>
      </trkpt>
      <trkpt lat="43.88612" lon="7.24199">
        <ele>476</ele>
        <time>2014-08-30T11:08:46Z</time>
      </trkpt>
      <trkpt lat="43.88609" lon="7.24185">
        <ele>474</ele>
        <time>2014-08-30T11:08:49Z</time>
      </trkpt>
      <trkpt lat="43.88607" lon="7.24176">
        <ele>472</ele>
        <time>2014-08-30T11:08:52Z</time>
      </trkpt>
      <trkpt lat="43.88608" lon="7.2416">
        <ele>470</ele>
        <time>2014-08-30T11:08:55Z</time>
      </trkpt>
      <trkpt lat="43.88612" lon="7.24147">
        <ele>468</ele>
        <time>2014-08-30T11:08:58Z</time>
      </trkpt>
      <trkpt lat="43.88608" lon="7.24133">
        <ele>465</ele>
        <time>2014-08-30T11:09:01Z</time>
      </trkpt>
      <trkpt lat="43.88606" lon="7.24114">
        <ele>463</ele>
        <time>2014-08-30T11:09:04Z</time>
      </trkpt>
      <trkpt lat="43.88599" lon="7.24104">
        <ele>461</ele>
        <time>2014-08-30T11:09:07Z</time>
      </trkpt>
      <trkpt lat="43.88587" lon="7.24092">
        <ele>459</ele>
        <time>2014-08-30T11:09:10Z</time>
      </trkpt>
      <trkpt lat="43.88572" lon="7.24085">
        <ele>457</ele>
        <time>2014-08-30T11:09:13Z</time>
      </trkpt>
      <trkpt lat="43.88555" lon="7.2408">
        <ele>455</ele>
        <time>2014-08-30T11:09:16Z</time>
      </trkpt>
      <trkpt lat="43.88544" lon="7.2407">
        <ele>453</ele>
        <time>2014-08-30T11:09:19Z</time>
      </trkpt>
      <trkpt lat="43.88532" lon="7.24064">
        <ele>452</ele>
        <time>2014-08-30T11:09:22Z</time>
      </trkpt>
      <trkpt lat="43.88515" lon="7.24064">
        <ele>450</ele>
        <time>2014-08-30T11:09:25Z</time>
      </trkpt>
      <trkpt lat="43.88504" lon="7.24064">
        <ele>448</ele>
        <time>2014-08-30T11:09:28Z</time>
      </trkpt>
      <trkpt lat="43.88492" lon="7.24065">
        <ele>446</ele>
        <time>2014-08-30T11:09:31Z</time>
      </trkpt>
      <trkpt lat="43.88484" lon="7.24058">
        <ele>443</ele>
        <time>2014-08-30T11:09:34Z</time>
      </trkpt>
      <trkpt lat="43.88477" lon="7.24048">
        <ele>441</ele>
        <time>2014-08-30T11:09:37Z</time>
      </trkpt>
      <trkpt lat="43.88468" lon="7.24041">
        <ele>439</ele>
        <time>2014-08-30T11:09:40Z</time>
      </trkpt>
      <trkpt lat="43.88464" lon="7.24034">
        <ele>437</ele>
        <time>2014-08-30T11:09:43Z</time>
      </trkpt>
      <trkpt lat="43.88458" lon="7.24019">
        <ele>435</ele>
        <time>2014-08-30T11:09:46Z</time>
      </trkpt>
      <trkpt lat="43.88453" lon="7.24003">
        <ele>433</ele>
        <time>2014-08-30T11:09:49Z</time>
      </trkpt>
      <trkpt lat="43.88446" lon="7.23988">
        <ele>431</ele>
        <time>2014-08-30T11:09:52Z</time>
      </trkpt>
      <trkpt lat="43.88444" lon="7.23976">
        <ele>429</ele>
        <time>2014-08-30T11:09:55Z</time>
      </trkpt>
      <trkpt lat="43.8844" lon="7.23962">
        <ele>428</ele>
        <time>2014-08-30T11:09:58Z</time>
      </trkpt>
      <trkpt lat="43.88438" lon="7.23955">
        <ele>426</ele>
        <time>2014-08-30T11:10:01Z</time>
      </trkpt>
      <trkpt lat="43.88429" lon="7.2394">
        <ele>425</ele>
        <time>2014-08-30T11:10:04Z</time>
      </trkpt>
      <trkpt lat="43.88419" lon="7.23924">
        <ele>424</ele>
        <time>2014-08-30T11:10:07Z</time>
      </trkpt>
      <trkpt lat="43.88415" lon="7.2391">
        <ele>423</ele>
        <time>2014-08-30T11:10:11Z</time>
      </trkpt>
      <trkpt lat="43.88415" lon="7.23901">
        <ele>422</ele>
        <time>2014-08-30T11:10:14Z</time>
      </trkpt>
      <trkpt lat="43.88414" lon="7.23891">
        <ele>420</ele>
        <time>2014-08-30T11:10:17Z</time>
      </trkpt>
      <trkpt lat="43.88411" lon="7.23883">
        <ele>418</ele>
        <time>2014-08-30T11:10:20Z</time>
      </trkpt>
      <trkpt lat="43.88407" lon="7.23886">
        <ele>416</ele>
        <time>2014-08-30T11:10:23Z</time>
      </trkpt>
      <trkpt lat="43.88402" lon="7.23892">
        <ele>415</ele>
        <time>2014-08-30T11:10:26Z</time>
      </trkpt>
      <trkpt lat="43.88399" lon="7.239">
        <ele>413</ele>
        <time>2014-08-30T11:10:29Z</time>
      </trkpt>
      <trkpt lat="43.88396" lon="7.23898">
        <ele>412</ele>
        <time>2014-08-30T11:10:32Z</time>
      </trkpt>
      <trkpt lat="43.88395" lon="7.23892">
        <ele>411</ele>
        <time>2014-08-30T11:10:35Z</time>
      </trkpt>
      <trkpt lat="43.88396" lon="7.23883">
        <ele>410</ele>
        <time>2014-08-30T11:10:38Z</time>
      </trkpt>
      <trkpt lat="43.88397" lon="7.23871">
        <ele>408</ele>
        <time>2014-08-30T11:10:41Z</time>
      </trkpt>
      <trkpt lat="43.88395" lon="7.23862">
        <ele>407</ele>
        <time>2014-08-30T11:10:44Z</time>
      </trkpt>
      <trkpt lat="43.8839" lon="7.23852">
        <ele>405</ele>
        <time>2014-08-30T11:10:47Z</time>
      </trkpt>
      <trkpt lat="43.8838" lon="7.23837">
        <ele>402</ele>
        <time>2014-08-30T11:10:50Z</time>
      </trkpt>
      <trkpt lat="43.88371" lon="7.23821">
        <ele>400</ele>
        <time>2014-08-30T11:10:53Z</time>
      </trkpt>
      <trkpt lat="43.88363" lon="7.238">
        <ele>398</ele>
        <time>2014-08-30T11:10:56Z</time>
      </trkpt>
      <trkpt lat="43.88359" lon="7.23785">
        <ele>396</ele>
        <time>2014-08-30T11:10:59Z</time>
      </trkpt>
      <trkpt lat="43.88355" lon="7.23773">
        <ele>395</ele>
        <time>2014-08-30T11:11:02Z</time>
      </trkpt>
      <trkpt lat="43.88348" lon="7.23753">
        <ele>394</ele>
        <time>2014-08-30T11:11:05Z</time>
      </trkpt>
      <trkpt lat="43.88336" lon="7.23733">
        <ele>393</ele>
        <time>2014-08-30T11:11:08Z</time>
      </trkpt>
      <trkpt lat="43.88328" lon="7.23711">
        <ele>392</ele>
        <time>2014-08-30T11:11:11Z</time>
      </trkpt>
      <trkpt lat="43.88321" lon="7.23693">
        <ele>392</ele>
        <time>2014-08-30T11:11:14Z</time>
      </trkpt>
      <trkpt lat="43.8831" lon="7.23678">
        <ele>392</ele>
        <time>2014-08-30T11:11:17Z</time>
      </trkpt>
      <trkpt lat="43.88306" lon="7.23668">
        <ele>392</ele>
        <time>2014-08-30T11:11:20Z</time>
      </trkpt>
      <trkpt lat="43.88293" lon="7.23658">
        <ele>392</ele>
        <time>2014-08-30T11:11:23Z</time>
      </trkpt>
      <trkpt lat="43.88281" lon="7.23642">
        <ele>392</ele>
        <time>2014-08-30T11:11:26Z</time>
      </trkpt>
      <trkpt lat="43.88279" lon="7.23625">
        <ele>392</ele>
        <time>2014-08-30T11:11:29Z</time>
      </trkpt>
      <trkpt lat="43.88288" lon="7.23622">
        <ele>392</ele>
        <time>2014-08-30T11:11:32Z</time>
      </trkpt>
      <trkpt lat="43.88284" lon="7.23616">
        <ele>391</ele>
        <time>2014-08-30T11:11:35Z</time>
      </trkpt>
      <trkpt lat="43.88281" lon="7.23613">
        <ele>390</ele>
        <time>2014-08-30T11:11:38Z</time>
      </trkpt>
      <trkpt lat="43.88272" lon="7.23601">
        <ele>388</ele>
        <time>2014-08-30T11:11:41Z</time>
      </trkpt>
      <trkpt lat="43.8826" lon="7.23589">
        <ele>385</ele>
        <time>2014-08-30T11:11:44Z</time>
      </trkpt>
      <trkpt lat="43.88257" lon="7.2358">
        <ele>383</ele>
        <time>2014-08-30T11:11:47Z</time>
      </trkpt>
      <trkpt lat="43.88248" lon="7.23569">
        <ele>381</ele>
        <time>2014-08-30T11:11:50Z</time>
      </trkpt>
      <trkpt lat="43.88234" lon="7.23556">
        <ele>378</ele>
        <time>2014-08-30T11:11:53Z</time>
      </trkpt>
      <trkpt lat="43.88228" lon="7.23536">
        <ele>375</ele>
        <time>2014-08-30T11:11:56Z</time>
      </trkpt>
      <trkpt lat="43.88226" lon="7.23524">
        <ele>374</ele>
        <time>2014-08-30T11:11:59Z</time>
      </trkpt>
      <trkpt lat="43.88221" lon="7.23521">
        <ele>372</ele>
        <time>2014-08-30T11:12:02Z</time>
      </trkpt>
      <trkpt lat="43.8821" lon="7.23518">
        <ele>370</ele>
        <time>2014-08-30T11:12:05Z</time>
      </trkpt>
      <trkpt lat="43.88206" lon="7.23505">
        <ele>367</ele>
        <time>2014-08-30T11:12:08Z</time>
      </trkpt>
      <trkpt lat="43.88203" lon="7.23482">
        <ele>363</ele>
        <time>2014-08-30T11:12:11Z</time>
      </trkpt>
      <trkpt lat="43.88201" lon="7.23463">
        <ele>360</ele>
        <time>2014-08-30T11:12:14Z</time>
      </trkpt>
      <trkpt lat="43.88206" lon="7.23455">
        <ele>357</ele>
        <time>2014-08-30T11:12:17Z</time>
      </trkpt>
      <trkpt lat="43.88202" lon="7.23456">
        <ele>355</ele>
        <time>2014-08-30T11:12:20Z</time>
      </trkpt>
      <trkpt lat="43.88188" lon="7.23458">
        <ele>354</ele>
        <time>2014-08-30T11:12:23Z</time>
      </trkpt>
      <trkpt lat="43.8818" lon="7.23453">
        <ele>352</ele>
        <time>2014-08-30T11:12:26Z</time>
      </trkpt>
      <trkpt lat="43.88188" lon="7.23447">
        <ele>350</ele>
        <time>2014-08-30T11:12:29Z</time>
      </trkpt>
      <trkpt lat="43.88191" lon="7.23437">
        <ele>349</ele>
        <time>2014-08-30T11:12:32Z</time>
      </trkpt>
      <trkpt lat="43.88185" lon="7.23433">
        <ele>348</ele>
        <time>2014-08-30T11:12:35Z</time>
      </trkpt>
      <trkpt lat="43.88162" lon="7.23426">
        <ele>346</ele>
        <time>2014-08-30T11:12:38Z</time>
      </trkpt>
      <trkpt lat="43.88142" lon="7.23419">
        <ele>343</ele>
        <time>2014-08-30T11:12:41Z</time>
      </trkpt>
      <trkpt lat="43.88125" lon="7.23415">
        <ele>340</ele>
        <time>2014-08-30T11:12:44Z</time>
      </trkpt>
      <trkpt lat="43.88112" lon="7.23417">
        <ele>337</ele>
        <time>2014-08-30T11:12:47Z</time>
      </trkpt>
      <trkpt lat="43.88105" lon="7.23429">
        <ele>334</ele>
        <time>2014-08-30T11:12:50Z</time>
      </trkpt>
      <trkpt lat="43.88102" lon="7.23423">
        <ele>334</ele>
        <time>2014-08-30T11:12:53Z</time>
      </trkpt>
      <trkpt lat="43.88109" lon="7.23409">
        <ele>333</ele>
        <time>2014-08-30T11:12:56Z</time>
      </trkpt>
      <trkpt lat="43.88115" lon="7.23397">
        <ele>331</ele>
        <time>2014-08-30T11:12:59Z</time>
      </trkpt>
      <trkpt lat="43.88108" lon="7.23397">
        <ele>330</ele>
        <time>2014-08-30T11:13:02Z</time>
      </trkpt>
      <trkpt lat="43.881" lon="7.234">
        <ele>329</ele>
        <time>2014-08-30T11:13:05Z</time>
      </trkpt>
      <trkpt lat="43.88099" lon="7.23398">
        <ele>327</ele>
        <time>2014-08-30T11:13:08Z</time>
      </trkpt>
      <trkpt lat="43.88102" lon="7.23389">
        <ele>326</ele>
        <time>2014-08-30T11:13:11Z</time>
      </trkpt>
      <trkpt lat="43.88104" lon="7.23386">
        <ele>324</ele>
        <time>2014-08-30T11:13:14Z</time>
      </trkpt>
      <trkpt lat="43.88107" lon="7.23386">
        <ele>324</ele>
        <time>2014-08-30T11:13:17Z</time>
      </trkpt>
      <trkpt lat="43.88107" lon="7.23385">
        <ele>323</ele>
        <time>2014-08-30T11:13:20Z</time>
      </trkpt>
      <trkpt lat="43.88105" lon="7.23384">
        <ele>322</ele>
        <time>2014-08-30T11:13:23Z</time>
      </trkpt>
      <trkpt lat="43.88105" lon="7.23382">
        <ele>321</ele>
        <time>2014-08-30T11:13:26Z</time>
      </trkpt>
      <trkpt lat="43.88107" lon="7.23382">
        <ele>320</ele>
        <time>2014-08-30T11:13:29Z</time>
      </trkpt>
      <trkpt lat="43.88109" lon="7.23384">
        <ele>319</ele>
        <time>2014-08-30T11:13:32Z</time>
      </trkpt>
      <trkpt lat="43.88105" lon="7.23381">
        <ele>318</ele>
        <time>2014-08-30T11:13:35Z</time>
      </trkpt>
      <trkpt lat="43.88093" lon="7.23376">
        <ele>315</ele>
        <time>2014-08-30T11:13:38Z</time>
      </trkpt>
      <trkpt lat="43.88096" lon="7.23355">
        <ele>314</ele>
        <time>2014-08-30T11:13:41Z</time>
      </trkpt>
      <trkpt lat="43.88107" lon="7.23349">
        <ele>313</ele>
        <time>2014-08-30T11:13:44Z</time>
      </trkpt>
      <trkpt lat="43.88112" lon="7.2335">
        <ele>312</ele>
        <time>2014-08-30T11:13:47Z</time>
      </trkpt>
      <trkpt lat="43.88112" lon="7.23352">
        <ele>310</ele>
        <time>2014-08-30T11:13:50Z</time>
      </trkpt>
      <trkpt lat="43.88114" lon="7.23363">
        <ele>307</ele>
        <time>2014-08-30T11:13:53Z</time>
      </trkpt>
      <trkpt lat="43.88122" lon="7.23369">
        <ele>305</ele>
        <time>2014-08-30T11:13:56Z</time>
      </trkpt>
      <trkpt lat="43.88128" lon="7.23366">
        <ele>303</ele>
        <time>2014-08-30T11:13:59Z</time>
      </trkpt>
      <trkpt lat="43.88131" lon="7.23363">
        <ele>302</ele>
        <time>2014-08-30T11:14:02Z</time>
      </trkpt>
      <trkpt lat="43.88135" lon="7.2336">
        <ele>302</ele>
        <time>2014-08-30T11:14:05Z</time>
      </trkpt>
      <trkpt lat="43.88136" lon="7.23358">
        <ele>300</ele>
        <time>2014-08-30T11:14:08Z</time>
      </trkpt>
      <trkpt lat="43.88134" lon="7.2336">
        <ele>300</ele>
        <time>2014-08-30T11:14:11Z</time>
      </trkpt>
      <trkpt lat="43.88131" lon="7.23356">
        <ele>298</ele>
        <time>2014-08-30T11:14:17Z</time>
      </trkpt>
      <trkpt lat="43.88126" lon="7.23347">
        <ele>298</ele>
        <time>2014-08-30T11:14:20Z</time>
      </trkpt>
      <trkpt lat="43.88118" lon="7.23332">
        <ele>298</ele>
        <time>2014-08-30T11:14:23Z</time>
      </trkpt>
      <trkpt lat="43.88109" lon="7.23319">
        <ele>298</ele>
        <time>2014-08-30T11:14:26Z</time>
      </trkpt>
      <trkpt lat="43.88102" lon="7.23305">
        <ele>298</ele>
        <time>2014-08-30T11:14:29Z</time>
      </trkpt>
      <trkpt lat="43.88098" lon="7.23288">
        <ele>298</ele>
        <time>2014-08-30T11:14:32Z</time>
      </trkpt>
      <trkpt lat="43.88093" lon="7.23279">
        <ele>298</ele>
        <time>2014-08-30T11:14:35Z</time>
      </trkpt>
      <trkpt lat="43.88089" lon="7.23276">
        <ele>298</ele>
        <time>2014-08-30T11:14:38Z</time>
      </trkpt>
      <trkpt lat="43.88077" lon="7.23272">
        <ele>296</ele>
        <time>2014-08-30T11:14:41Z</time>
      </trkpt>
      <trkpt lat="43.88063" lon="7.2327">
        <ele>294</ele>
        <time>2014-08-30T11:14:44Z</time>
      </trkpt>
      <trkpt lat="43.88051" lon="7.23275">
        <ele>292</ele>
        <time>2014-08-30T11:14:47Z</time>
      </trkpt>
      <trkpt lat="43.88037" lon="7.23277">
        <ele>290</ele>
        <time>2014-08-30T11:14:50Z</time>
      </trkpt>
      <trkpt lat="43.8803" lon="7.23273">
        <ele>287</ele>
        <time>2014-08-30T11:14:53Z</time>
      </trkpt>
      <trkpt lat="43.88026" lon="7.23266">
        <ele>287</ele>
        <time>2014-08-30T11:14:56Z</time>
      </trkpt>
      <trkpt lat="43.88023" lon="7.23259">
        <ele>286</ele>
        <time>2014-08-30T11:14:59Z</time>
      </trkpt>
      <trkpt lat="43.88019" lon="7.23254">
        <ele>285</ele>
        <time>2014-08-30T11:15:02Z</time>
      </trkpt>
      <trkpt lat="43.88012" lon="7.23253">
        <ele>284</ele>
        <time>2014-08-30T11:15:05Z</time>
      </trkpt>
      <trkpt lat="43.88004" lon="7.2325">
        <ele>283</ele>
        <time>2014-08-30T11:15:08Z</time>
      </trkpt>
      <trkpt lat="43.87994" lon="7.2325">
        <ele>281</ele>
        <time>2014-08-30T11:15:11Z</time>
      </trkpt>
      <trkpt lat="43.87986" lon="7.23257">
        <ele>280</ele>
        <time>2014-08-30T11:15:14Z</time>
      </trkpt>
      <trkpt lat="43.87981" lon="7.23268">
        <ele>278</ele>
        <time>2014-08-30T11:15:17Z</time>
      </trkpt>
      <trkpt lat="43.87978" lon="7.23273">
        <ele>277</ele>
        <time>2014-08-30T11:15:20Z</time>
      </trkpt>
      <trkpt lat="43.87978" lon="7.23276">
        <ele>275</ele>
        <time>2014-08-30T11:15:23Z</time>
      </trkpt>
      <trkpt lat="43.87978" lon="7.2327">
        <ele>274</ele>
        <time>2014-08-30T11:15:26Z</time>
      </trkpt>
      <trkpt lat="43.87978" lon="7.23262">
        <ele>272</ele>
        <time>2014-08-30T11:15:29Z</time>
      </trkpt>
      <trkpt lat="43.87974" lon="7.23245">
        <ele>270</ele>
        <time>2014-08-30T11:15:32Z</time>
      </trkpt>
      <trkpt lat="43.87973" lon="7.23229">
        <ele>268</ele>
        <time>2014-08-30T11:15:35Z</time>
      </trkpt>
      <trkpt lat="43.87972" lon="7.23226">
        <ele>267</ele>
        <time>2014-08-30T11:15:38Z</time>
      </trkpt>
      <trkpt lat="43.87972" lon="7.23213">
        <ele>267</ele>
        <time>2014-08-30T11:15:41Z</time>
      </trkpt>
      <trkpt lat="43.87973" lon="7.23197">
        <ele>265</ele>
        <time>2014-08-30T11:15:44Z</time>
      </trkpt>
      <trkpt lat="43.87971" lon="7.23191">
        <ele>264</ele>
        <time>2014-08-30T11:15:47Z</time>
      </trkpt>
      <trkpt lat="43.87969" lon="7.23187">
        <ele>264</ele>
        <time>2014-08-30T11:15:50Z</time>
      </trkpt>
      <trkpt lat="43.8797" lon="7.23171">
        <ele>263</ele>
        <time>2014-08-30T11:15:53Z</time>
      </trkpt>
      <trkpt lat="43.87971" lon="7.2315">
        <ele>261</ele>
        <time>2014-08-30T11:15:56Z</time>
      </trkpt>
      <trkpt lat="43.87968" lon="7.23134">
        <ele>260</ele>
        <time>2014-08-30T11:15:59Z</time>
      </trkpt>
      <trkpt lat="43.87968" lon="7.23125">
        <ele>260</ele>
        <time>2014-08-30T11:16:02Z</time>
      </trkpt>
      <trkpt lat="43.87965" lon="7.23124">
        <ele>258</ele>
        <time>2014-08-30T11:16:05Z</time>
      </trkpt>
      <trkpt lat="43.87958" lon="7.23139">
        <ele>258</ele>
        <time>2014-08-30T11:16:08Z</time>
      </trkpt>
      <trkpt lat="43.87953" lon="7.23167">
        <ele>257</ele>
        <time>2014-08-30T11:16:11Z</time>
      </trkpt>
      <trkpt lat="43.87954" lon="7.23201">
        <ele>255</ele>
        <time>2014-08-30T11:16:14Z</time>
      </trkpt>
      <trkpt lat="43.87952" lon="7.23237">
        <ele>254</ele>
        <time>2014-08-30T11:16:17Z</time>
      </trkpt>
      <trkpt lat="43.87949" lon="7.23257">
        <ele>252</ele>
        <time>2014-08-30T11:16:20Z</time>
      </trkpt>
      <trkpt lat="43.87944" lon="7.23254">
        <ele>251</ele>
        <time>2014-08-30T11:16:23Z</time>
      </trkpt>
      <trkpt lat="43.87942" lon="7.23241">
        <ele>251</ele>
        <time>2014-08-30T11:16:26Z</time>
      </trkpt>
      <trkpt lat="43.87938" lon="7.23213">
        <ele>249</ele>
        <time>2014-08-30T11:16:29Z</time>
      </trkpt>
      <trkpt lat="43.87933" lon="7.23179">
        <ele>247</ele>
        <time>2014-08-30T11:16:32Z</time>
      </trkpt>
      <trkpt lat="43.87923" lon="7.23149">
        <ele>245</ele>
        <time>2014-08-30T11:16:35Z</time>
      </trkpt>
      <trkpt lat="43.87919" lon="7.23142">
        <ele>242</ele>
        <time>2014-08-30T11:16:38Z</time>
      </trkpt>
      <trkpt lat="43.87917" lon="7.2314">
        <ele>241</ele>
        <time>2014-08-30T11:16:41Z</time>
      </trkpt>
      <trkpt lat="43.87915" lon="7.23138">
        <ele>241</ele>
        <time>2014-08-30T11:16:44Z</time>
      </trkpt>
      <trkpt lat="43.87912" lon="7.23136">
        <ele>239</ele>
        <time>2014-08-30T11:16:50Z</time>
      </trkpt>
      <trkpt lat="43.879" lon="7.23126">
        <ele>239</ele>
        <time>2014-08-30T11:16:53Z</time>
      </trkpt>
      <trkpt lat="43.87892" lon="7.23127">
        <ele>238</ele>
        <time>2014-08-30T11:16:56Z</time>
      </trkpt>
      <trkpt lat="43.87884" lon="7.23129">
        <ele>238</ele>
        <time>2014-08-30T11:16:59Z</time>
      </trkpt>
      <trkpt lat="43.87869" lon="7.23129">
        <ele>239</ele>
        <time>2014-08-30T11:17:02Z</time>
      </trkpt>
      <trkpt lat="43.87853" lon="7.23132">
        <ele>239</ele>
        <time>2014-08-30T11:17:05Z</time>
      </trkpt>
      <trkpt lat="43.87846" lon="7.23135">
        <ele>239</ele>
        <time>2014-08-30T11:17:08Z</time>
      </trkpt>
      <trkpt lat="43.8785" lon="7.23147">
        <ele>239</ele>
        <time>2014-08-30T11:17:11Z</time>
      </trkpt>
      <trkpt lat="43.8785" lon="7.23152">
        <ele>240</ele>
        <time>2014-08-30T11:17:14Z</time>
      </trkpt>
      <trkpt lat="43.8785" lon="7.23159">
        <ele>241</ele>
        <time>2014-08-30T11:17:17Z</time>
      </trkpt>
      <trkpt lat="43.87848" lon="7.23163">
        <ele>241</ele>
        <time>2014-08-30T11:17:20Z</time>
      </trkpt>
      <trkpt lat="43.87847" lon="7.23164">
        <ele>241</ele>
        <time>2014-08-30T11:17:23Z</time>
      </trkpt>
      <trkpt lat="43.87846" lon="7.23166">
        <ele>241</ele>
        <time>2014-08-30T11:17:26Z</time>
      </trkpt>
      <trkpt lat="43.87845" lon="7.23169">
        <ele>242</ele>
        <time>2014-08-30T11:17:29Z</time>
      </trkpt>
      <trkpt lat="43.87844" lon="7.23169">
        <ele>243</ele>
        <time>2014-08-30T11:17:32Z</time>
      </trkpt>
      <trkpt lat="43.87843" lon="7.23172">
        <ele>243</ele>
        <time>2014-08-30T11:17:35Z</time>
      </trkpt>
      <trkpt lat="43.87842" lon="7.23174">
        <ele>244</ele>
        <time>2014-08-30T11:17:38Z</time>
      </trkpt>
      <trkpt lat="43.87841" lon="7.23177">
        <ele>245</ele>
        <time>2014-08-30T11:17:41Z</time>
      </trkpt>
      <trkpt lat="43.87842" lon="7.2318">
        <ele>245</ele>
        <time>2014-08-30T11:17:44Z</time>
      </trkpt>
      <trkpt lat="43.87841" lon="7.23184">
        <ele>245</ele>
        <time>2014-08-30T11:17:47Z</time>
      </trkpt>
      <trkpt lat="43.87842" lon="7.23187">
        <ele>246</ele>
        <time>2014-08-30T11:17:50Z</time>
      </trkpt>
      <trkpt lat="43.87842" lon="7.23192">
        <ele>247</ele>
        <time>2014-08-30T11:17:53Z</time>
      </trkpt>
      <trkpt lat="43.87841" lon="7.23194">
        <ele>247</ele>
        <time>2014-08-30T11:17:56Z</time>
      </trkpt>
      <trkpt lat="43.87841" lon="7.23193">
        <ele>247</ele>
        <time>2014-08-30T11:17:59Z</time>
      </trkpt>
      <trkpt lat="43.87841" lon="7.2319">
        <ele>248</ele>
        <time>2014-08-30T11:18:02Z</time>
      </trkpt>
      <trkpt lat="43.87842" lon="7.23188">
        <ele>250</ele>
        <time>2014-08-30T11:18:05Z</time>
      </trkpt>
      <trkpt lat="43.87841" lon="7.23187">
        <ele>250</ele>
        <time>2014-08-30T11:18:08Z</time>
      </trkpt>
      <trkpt lat="43.8784" lon="7.23187">
        <ele>250</ele>
        <time>2014-08-30T11:18:11Z</time>
      </trkpt>
      <trkpt lat="43.87838" lon="7.23185">
        <ele>250</ele>
        <time>2014-08-30T11:18:14Z</time>
      </trkpt>
      <trkpt lat="43.87837" lon="7.23183">
        <ele>251</ele>
        <time>2014-08-30T11:18:17Z</time>
      </trkpt>
      <trkpt lat="43.87834" lon="7.23181">
        <ele>252</ele>
        <time>2014-08-30T11:18:20Z</time>
      </trkpt>
      <trkpt lat="43.87832" lon="7.23177">
        <ele>252</ele>
        <time>2014-08-30T11:18:23Z</time>
      </trkpt>
      <trkpt lat="43.87833" lon="7.23173">
        <ele>252</ele>
        <time>2014-08-30T11:18:26Z</time>
      </trkpt>
      <trkpt lat="43.87832" lon="7.23171">
        <ele>253</ele>
        <time>2014-08-30T11:18:29Z</time>
      </trkpt>
      <trkpt lat="43.87832" lon="7.23165">
        <ele>254</ele>
        <time>2014-08-30T11:18:32Z</time>
      </trkpt>
      <trkpt lat="43.87832" lon="7.23161">
        <ele>254</ele>
        <time>2014-08-30T11:18:35Z</time>
      </trkpt>
      <trkpt lat="43.8783" lon="7.23158">
        <ele>254</ele>
        <time>2014-08-30T11:18:38Z</time>
      </trkpt>
      <trkpt lat="43.87829" lon="7.23154">
        <ele>256</ele>
        <time>2014-08-30T11:18:41Z</time>
      </trkpt>
      <trkpt lat="43.87826" lon="7.2315">
        <ele>256</ele>
        <time>2014-08-30T11:18:44Z</time>
      </trkpt>
      <trkpt lat="43.87821" lon="7.23148">
        <ele>256</ele>
        <time>2014-08-30T11:18:47Z</time>
      </trkpt>
      <trkpt lat="43.87819" lon="7.23145">
        <ele>256</ele>
        <time>2014-08-30T11:18:50Z</time>
      </trkpt>
      <trkpt lat="43.87819" lon="7.23142">
        <ele>257</ele>
        <time>2014-08-30T11:18:53Z</time>
      </trkpt>
      <trkpt lat="43.87818" lon="7.23137">
        <ele>258</ele>
        <time>2014-08-30T11:18:56Z</time>
      </trkpt>
      <trkpt lat="43.87818" lon="7.23134">
        <ele>258</ele>
        <time>2014-08-30T11:18:59Z</time>
      </trkpt>
      <trkpt lat="43.87816" lon="7.23132">
        <ele>258</ele>
        <time>2014-08-30T11:19:02Z</time>
      </trkpt>
      <trkpt lat="43.87815" lon="7.23129">
        <ele>259</ele>
        <time>2014-08-30T11:19:05Z</time>
      </trkpt>
      <trkpt lat="43.87814" lon="7.23124">
        <ele>260</ele>
        <time>2014-08-30T11:19:08Z</time>
      </trkpt>
      <trkpt lat="43.87814" lon="7.23122">
        <ele>261</ele>
        <time>2014-08-30T11:19:11Z</time>
      </trkpt>
      <trkpt lat="43.87811" lon="7.23121">
        <ele>261</ele>
        <time>2014-08-30T11:19:14Z</time>
      </trkpt>
      <trkpt lat="43.8781" lon="7.23118">
        <ele>262</ele>
        <time>2014-08-30T11:19:17Z</time>
      </trkpt>
      <trkpt lat="43.87808" lon="7.23114">
        <ele>263</ele>
        <time>2014-08-30T11:19:20Z</time>
      </trkpt>
      <trkpt lat="43.87804" lon="7.23112">
        <ele>263</ele>
        <time>2014-08-30T11:19:23Z</time>
      </trkpt>
      <trkpt lat="43.878" lon="7.23109">
        <ele>263</ele>
        <time>2014-08-30T11:19:26Z</time>
      </trkpt>
      <trkpt lat="43.87799" lon="7.23106">
        <ele>263</ele>
        <time>2014-08-30T11:19:29Z</time>
      </trkpt>
      <trkpt lat="43.87798" lon="7.23103">
        <ele>264</ele>
        <time>2014-08-30T11:19:32Z</time>
      </trkpt>
      <trkpt lat="43.87796" lon="7.23102">
        <ele>265</ele>
        <time>2014-08-30T11:19:35Z</time>
      </trkpt>
      <trkpt lat="43.87793" lon="7.231">
        <ele>265</ele>
        <time>2014-08-30T11:19:38Z</time>
      </trkpt>
      <trkpt lat="43.8779" lon="7.23099">
        <ele>265</ele>
        <time>2014-08-30T11:19:41Z</time>
      </trkpt>
      <trkpt lat="43.87786" lon="7.23097">
        <ele>265</ele>
        <time>2014-08-30T11:19:44Z</time>
      </trkpt>
      <trkpt lat="43.87785" lon="7.23094">
        <ele>267</ele>
        <time>2014-08-30T11:19:47Z</time>
      </trkpt>
      <trkpt lat="43.87787" lon="7.23089">
        <ele>267</ele>
        <time>2014-08-30T11:19:50Z</time>
      </trkpt>
      <trkpt lat="43.87793" lon="7.23088">
        <ele>267</ele>
        <time>2014-08-30T11:19:53Z</time>
      </trkpt>
      <trkpt lat="43.87795" lon="7.23091">
        <ele>267</ele>
        <time>2014-08-30T11:19:56Z</time>
      </trkpt>
      <trkpt lat="43.87794" lon="7.23092">
        <ele>268</ele>
        <time>2014-08-30T11:19:59Z</time>
      </trkpt>
      <trkpt lat="43.87792" lon="7.23088">
        <ele>269</ele>
        <time>2014-08-30T11:20:02Z</time>
      </trkpt>
      <trkpt lat="43.87791" lon="7.23085">
        <ele>269</ele>
        <time>2014-08-30T11:20:05Z</time>
      </trkpt>
      <trkpt lat="43.87786" lon="7.23085">
        <ele>269</ele>
        <time>2014-08-30T11:20:08Z</time>
      </trkpt>
      <trkpt lat="43.87782" lon="7.23084">
        <ele>270</ele>
        <time>2014-08-30T11:20:11Z</time>
      </trkpt>
      <trkpt lat="43.8778" lon="7.2308">
        <ele>271</ele>
        <time>2014-08-30T11:20:14Z</time>
      </trkpt>
      <trkpt lat="43.87778" lon="7.23077">
        <ele>271</ele>
        <time>2014-08-30T11:20:17Z</time>
      </trkpt>
      <trkpt lat="43.87776" lon="7.23075">
        <ele>271</ele>
        <time>2014-08-30T11:20:20Z</time>
      </trkpt>
      <trkpt lat="43.87775" lon="7.23074">
        <ele>272</ele>
        <time>2014-08-30T11:20:23Z</time>
      </trkpt>
      <trkpt lat="43.87771" lon="7.23072">
        <ele>273</ele>
        <time>2014-08-30T11:20:26Z</time>
      </trkpt>
      <trkpt lat="43.87768" lon="7.23069">
        <ele>274</ele>
        <time>2014-08-30T11:20:29Z</time>
      </trkpt>
      <trkpt lat="43.87764" lon="7.23068">
        <ele>274</ele>
        <time>2014-08-30T11:20:32Z</time>
      </trkpt>
      <trkpt lat="43.87761" lon="7.23065">
        <ele>274</ele>
        <time>2014-08-30T11:20:35Z</time>
      </trkpt>
      <trkpt lat="43.87757" lon="7.23062">
        <ele>275</ele>
        <time>2014-08-30T11:20:38Z</time>
      </trkpt>
      <trkpt lat="43.87755" lon="7.23058">
        <ele>276</ele>
        <time>2014-08-30T11:20:41Z</time>
      </trkpt>
      <trkpt lat="43.87752" lon="7.23056">
        <ele>276</ele>
        <time>2014-08-30T11:20:44Z</time>
      </trkpt>
      <trkpt lat="43.8775" lon="7.23054">
        <ele>276</ele>
        <time>2014-08-30T11:20:47Z</time>
      </trkpt>
      <trkpt lat="43.87748" lon="7.23053">
        <ele>277</ele>
        <time>2014-08-30T11:20:50Z</time>
      </trkpt>
      <trkpt lat="43.87747" lon="7.23052">
        <ele>278</ele>
        <time>2014-08-30T11:20:53Z</time>
      </trkpt>
      <trkpt lat="43.87745" lon="7.2305">
        <ele>278</ele>
        <time>2014-08-30T11:20:56Z</time>
      </trkpt>
      <trkpt lat="43.87744" lon="7.2305">
        <ele>278</ele>
        <time>2014-08-30T11:20:59Z</time>
      </trkpt>
      <trkpt lat="43.87742" lon="7.23051">
        <ele>279</ele>
        <time>2014-08-30T11:21:02Z</time>
      </trkpt>
      <trkpt lat="43.8774" lon="7.23052">
        <ele>280</ele>
        <time>2014-08-30T11:21:05Z</time>
      </trkpt>
      <trkpt lat="43.87738" lon="7.23052">
        <ele>280</ele>
        <time>2014-08-30T11:21:08Z</time>
      </trkpt>
      <trkpt lat="43.87737" lon="7.23051">
        <ele>281</ele>
        <time>2014-08-30T11:21:11Z</time>
      </trkpt>
      <trkpt lat="43.87733" lon="7.23049">
        <ele>282</ele>
        <time>2014-08-30T11:21:14Z</time>
      </trkpt>
      <trkpt lat="43.8773" lon="7.23045">
        <ele>283</ele>
        <time>2014-08-30T11:21:17Z</time>
      </trkpt>
      <trkpt lat="43.8773" lon="7.23042">
        <ele>284</ele>
        <time>2014-08-30T11:21:20Z</time>
      </trkpt>
      <trkpt lat="43.87727" lon="7.23035">
        <ele>284</ele>
        <time>2014-08-30T11:21:23Z</time>
      </trkpt>
      <trkpt lat="43.87721" lon="7.23028">
        <ele>284</ele>
        <time>2014-08-30T11:21:26Z</time>
      </trkpt>
      <trkpt lat="43.87715" lon="7.23025">
        <ele>284</ele>
        <time>2014-08-30T11:21:29Z</time>
      </trkpt>
      <trkpt lat="43.87712" lon="7.23024">
        <ele>284</ele>
        <time>2014-08-30T11:21:32Z</time>
      </trkpt>
      <trkpt lat="43.87709" lon="7.23022">
        <ele>284</ele>
        <time>2014-08-30T11:21:35Z</time>
      </trkpt>
      <trkpt lat="43.87705" lon="7.23022">
        <ele>284</ele>
        <time>2014-08-30T11:21:38Z</time>
      </trkpt>
      <trkpt lat="43.87702" lon="7.2302">
        <ele>285</ele>
        <time>2014-08-30T11:21:41Z</time>
      </trkpt>
      <trkpt lat="43.87698" lon="7.23019">
        <ele>286</ele>
        <time>2014-08-30T11:21:44Z</time>
      </trkpt>
      <trkpt lat="43.87695" lon="7.23018">
        <ele>286</ele>
        <time>2014-08-30T11:21:47Z</time>
      </trkpt>
      <trkpt lat="43.87692" lon="7.23016">
        <ele>287</ele>
        <time>2014-08-30T11:21:50Z</time>
      </trkpt>
      <trkpt lat="43.87689" lon="7.23016">
        <ele>288</ele>
        <time>2014-08-30T11:21:53Z</time>
      </trkpt>
      <trkpt lat="43.87686" lon="7.23016">
        <ele>288</ele>
        <time>2014-08-30T11:21:56Z</time>
      </trkpt>
      <trkpt lat="43.87682" lon="7.23015">
        <ele>289</ele>
        <time>2014-08-30T11:21:59Z</time>
      </trkpt>
      <trkpt lat="43.87679" lon="7.23014">
        <ele>290</ele>
        <time>2014-08-30T11:22:02Z</time>
      </trkpt>
      <trkpt lat="43.87676" lon="7.23012">
        <ele>290</ele>
        <time>2014-08-30T11:22:05Z</time>
      </trkpt>
      <trkpt lat="43.87674" lon="7.23012">
        <ele>291</ele>
        <time>2014-08-30T11:22:08Z</time>
      </trkpt>
      <trkpt lat="43.87673" lon="7.23012">
        <ele>292</ele>
        <time>2014-08-30T11:22:11Z</time>
      </trkpt>
      <trkpt lat="43.87673" lon="7.23013">
        <ele>292</ele>
        <time>2014-08-30T11:22:14Z</time>
      </trkpt>
      <trkpt lat="43.87672" lon="7.2301">
        <ele>292</ele>
        <time>2014-08-30T11:22:17Z</time>
      </trkpt>
      <trkpt lat="43.87668" lon="7.23007">
        <ele>292</ele>
        <time>2014-08-30T11:22:20Z</time>
      </trkpt>
      <trkpt lat="43.87662" lon="7.23002">
        <ele>292</ele>
        <time>2014-08-30T11:22:23Z</time>
      </trkpt>
      <trkpt lat="43.87656" lon="7.22998">
        <ele>293</ele>
        <time>2014-08-30T11:22:26Z</time>
      </trkpt>
      <trkpt lat="43.87652" lon="7.22995">
        <ele>295</ele>
        <time>2014-08-30T11:22:29Z</time>
      </trkpt>
      <trkpt lat="43.87648" lon="7.22992">
        <ele>295</ele>
        <time>2014-08-30T11:22:32Z</time>
      </trkpt>
      <trkpt lat="43.87646" lon="7.2299">
        <ele>295</ele>
        <time>2014-08-30T11:22:35Z</time>
      </trkpt>
      <trkpt lat="43.87643" lon="7.22988">
        <ele>296</ele>
        <time>2014-08-30T11:22:38Z</time>
      </trkpt>
      <trkpt lat="43.87641" lon="7.22984">
        <ele>297</ele>
        <time>2014-08-30T11:22:41Z</time>
      </trkpt>
      <trkpt lat="43.8764" lon="7.22982">
        <ele>297</ele>
        <time>2014-08-30T11:22:44Z</time>
      </trkpt>
      <trkpt lat="43.87638" lon="7.22979">
        <ele>297</ele>
        <time>2014-08-30T11:22:47Z</time>
      </trkpt>
      <trkpt lat="43.87635" lon="7.22974">
        <ele>297</ele>
        <time>2014-08-30T11:22:50Z</time>
      </trkpt>
      <trkpt lat="43.87633" lon="7.22968">
        <ele>298</ele>
        <time>2014-08-30T11:22:53Z</time>
      </trkpt>
      <trkpt lat="43.87632" lon="7.22959">
        <ele>299</ele>
        <time>2014-08-30T11:22:56Z</time>
      </trkpt>
      <trkpt lat="43.8763" lon="7.22949">
        <ele>299</ele>
        <time>2014-08-30T11:22:59Z</time>
      </trkpt>
      <trkpt lat="43.87627" lon="7.22937">
        <ele>299</ele>
        <time>2014-08-30T11:23:02Z</time>
      </trkpt>
      <trkpt lat="43.87623" lon="7.22926">
        <ele>299</ele>
        <time>2014-08-30T11:23:05Z</time>
      </trkpt>
      <trkpt lat="43.87619" lon="7.22917">
        <ele>299</ele>
        <time>2014-08-30T11:23:08Z</time>
      </trkpt>
      <trkpt lat="43.87616" lon="7.22909">
        <ele>301</ele>
        <time>2014-08-30T11:23:11Z</time>
      </trkpt>
      <trkpt lat="43.87612" lon="7.22903">
        <ele>302</ele>
        <time>2014-08-30T11:23:14Z</time>
      </trkpt>
      <trkpt lat="43.87608" lon="7.22897">
        <ele>302</ele>
        <time>2014-08-30T11:23:17Z</time>
      </trkpt>
      <trkpt lat="43.87605" lon="7.2289">
        <ele>303</ele>
        <time>2014-08-30T11:23:20Z</time>
      </trkpt>
      <trkpt lat="43.87602" lon="7.22882">
        <ele>304</ele>
        <time>2014-08-30T11:23:23Z</time>
      </trkpt>
      <trkpt lat="43.87598" lon="7.22874">
        <ele>304</ele>
        <time>2014-08-30T11:23:26Z</time>
      </trkpt>
      <trkpt lat="43.87592" lon="7.22868">
        <ele>304</ele>
        <time>2014-08-30T11:23:29Z</time>
      </trkpt>
      <trkpt lat="43.87585" lon="7.22864">
        <ele>305</ele>
        <time>2014-08-30T11:23:32Z</time>
      </trkpt>
      <trkpt lat="43.87577" lon="7.22864">
        <ele>306</ele>
        <time>2014-08-30T11:23:35Z</time>
      </trkpt>
      <trkpt lat="43.87569" lon="7.22864">
        <ele>306</ele>
        <time>2014-08-30T11:23:38Z</time>
      </trkpt>
      <trkpt lat="43.87561" lon="7.22863">
        <ele>307</ele>
        <time>2014-08-30T11:23:41Z</time>
      </trkpt>
      <trkpt lat="43.87553" lon="7.2286">
        <ele>308</ele>
        <time>2014-08-30T11:23:44Z</time>
      </trkpt>
      <trkpt lat="43.87547" lon="7.22851">
        <ele>308</ele>
        <time>2014-08-30T11:23:47Z</time>
      </trkpt>
      <trkpt lat="43.87545" lon="7.22839">
        <ele>308</ele>
        <time>2014-08-30T11:23:50Z</time>
      </trkpt>
      <trkpt lat="43.87548" lon="7.22827">
        <ele>308</ele>
        <time>2014-08-30T11:23:53Z</time>
      </trkpt>
      <trkpt lat="43.87552" lon="7.22821">
        <ele>308</ele>
        <time>2014-08-30T11:23:56Z</time>
      </trkpt>
      <trkpt lat="43.87554" lon="7.2282">
        <ele>309</ele>
        <time>2014-08-30T11:23:59Z</time>
      </trkpt>
      <trkpt lat="43.87555" lon="7.22819">
        <ele>310</ele>
        <time>2014-08-30T11:24:02Z</time>
      </trkpt>
      <trkpt lat="43.87556" lon="7.22817">
        <ele>310</ele>
        <time>2014-08-30T11:24:05Z</time>
      </trkpt>
      <trkpt lat="43.87557" lon="7.22815">
        <ele>310</ele>
        <time>2014-08-30T11:24:08Z</time>
      </trkpt>
      <trkpt lat="43.87559" lon="7.2281">
        <ele>310</ele>
        <time>2014-08-30T11:24:11Z</time>
      </trkpt>
      <trkpt lat="43.8756" lon="7.22806">
        <ele>310</ele>
        <time>2014-08-30T11:24:14Z</time>
      </trkpt>
      <trkpt lat="43.87561" lon="7.22802">
        <ele>312</ele>
        <time>2014-08-30T11:24:17Z</time>
      </trkpt>
      <trkpt lat="43.87561" lon="7.22799">
        <ele>312</ele>
        <time>2014-08-30T11:24:20Z</time>
      </trkpt>
      <trkpt lat="43.87562" lon="7.22796">
        <ele>312</ele>
        <time>2014-08-30T11:24:23Z</time>
      </trkpt>
      <trkpt lat="43.87564" lon="7.22792">
        <ele>313</ele>
        <time>2014-08-30T11:24:26Z</time>
      </trkpt>
      <trkpt lat="43.87565" lon="7.22788">
        <ele>314</ele>
        <time>2014-08-30T11:24:29Z</time>
      </trkpt>
      <trkpt lat="43.87567" lon="7.22785">
        <ele>314</ele>
        <time>2014-08-30T11:24:32Z</time>
      </trkpt>
      <trkpt lat="43.87568" lon="7.22781">
        <ele>314</ele>
        <time>2014-08-30T11:24:35Z</time>
      </trkpt>
      <trkpt lat="43.87568" lon="7.22778">
        <ele>315</ele>
        <time>2014-08-30T11:24:38Z</time>
      </trkpt>
      <trkpt lat="43.87568" lon="7.22775">
        <ele>316</ele>
        <time>2014-08-30T11:24:41Z</time>
      </trkpt>
      <trkpt lat="43.87569" lon="7.22773">
        <ele>316</ele>
        <time>2014-08-30T11:24:44Z</time>
      </trkpt>
      <trkpt lat="43.87569" lon="7.22772">
        <ele>316</ele>
        <time>2014-08-30T11:24:47Z</time>
      </trkpt>
      <trkpt lat="43.87567" lon="7.22769">
        <ele>318</ele>
        <time>2014-08-30T11:24:50Z</time>
      </trkpt>
      <trkpt lat="43.87566" lon="7.22765">
        <ele>319</ele>
        <time>2014-08-30T11:24:53Z</time>
      </trkpt>
      <trkpt lat="43.87562" lon="7.22762">
        <ele>319</ele>
        <time>2014-08-30T11:24:56Z</time>
      </trkpt>
      <trkpt lat="43.8756" lon="7.22757">
        <ele>319</ele>
        <time>2014-08-30T11:24:59Z</time>
      </trkpt>
      <trkpt lat="43.87558" lon="7.22751">
        <ele>319</ele>
        <time>2014-08-30T11:25:02Z</time>
      </trkpt>
      <trkpt lat="43.87556" lon="7.22746">
        <ele>320</ele>
        <time>2014-08-30T11:25:05Z</time>
      </trkpt>
      <trkpt lat="43.87554" lon="7.22743">
        <ele>321</ele>
        <time>2014-08-30T11:25:08Z</time>
      </trkpt>
      <trkpt lat="43.87552" lon="7.22739">
        <ele>321</ele>
        <time>2014-08-30T11:25:11Z</time>
      </trkpt>
      <trkpt lat="43.87549" lon="7.22736">
        <ele>322</ele>
        <time>2014-08-30T11:25:14Z</time>
      </trkpt>
      <trkpt lat="43.87547" lon="7.22733">
        <ele>323</ele>
        <time>2014-08-30T11:25:17Z</time>
      </trkpt>
      <trkpt lat="43.87545" lon="7.22729">
        <ele>323</ele>
        <time>2014-08-30T11:25:20Z</time>
      </trkpt>
      <trkpt lat="43.87543" lon="7.22727">
        <ele>323</ele>
        <time>2014-08-30T11:25:23Z</time>
      </trkpt>
      <trkpt lat="43.87541" lon="7.22725">
        <ele>324</ele>
        <time>2014-08-30T11:25:26Z</time>
      </trkpt>
      <trkpt lat="43.87538" lon="7.22724">
        <ele>325</ele>
        <time>2014-08-30T11:25:29Z</time>
      </trkpt>
      <trkpt lat="43.87536" lon="7.22721">
        <ele>325</ele>
        <time>2014-08-30T11:25:32Z</time>
      </trkpt>
      <trkpt lat="43.87536" lon="7.22717">
        <ele>326</ele>
        <time>2014-08-30T11:25:35Z</time>
      </trkpt>
      <trkpt lat="43.87535" lon="7.22715">
        <ele>327</ele>
        <time>2014-08-30T11:25:38Z</time>
      </trkpt>
      <trkpt lat="43.87537" lon="7.22716">
        <ele>327</ele>
        <time>2014-08-30T11:25:41Z</time>
      </trkpt>
      <trkpt lat="43.87538" lon="7.22719">
        <ele>327</ele>
        <time>2014-08-30T11:25:44Z</time>
      </trkpt>
      <trkpt lat="43.87539" lon="7.22721">
        <ele>327</ele>
        <time>2014-08-30T11:25:47Z</time>
      </trkpt>
      <trkpt lat="43.8754" lon="7.22724">
        <ele>328</ele>
        <time>2014-08-30T11:25:50Z</time>
      </trkpt>
      <trkpt lat="43.87541" lon="7.22727">
        <ele>330</ele>
        <time>2014-08-30T11:25:53Z</time>
      </trkpt>
      <trkpt lat="43.87541" lon="7.22731">
        <ele>330</ele>
        <time>2014-08-30T11:25:56Z</time>
      </trkpt>
      <trkpt lat="43.87542" lon="7.22734">
        <ele>330</ele>
        <time>2014-08-30T11:25:59Z</time>
      </trkpt>
      <trkpt lat="43.87542" lon="7.22738">
        <ele>330</ele>
        <time>2014-08-30T11:26:02Z</time>
      </trkpt>
      <trkpt lat="43.87542" lon="7.22742">
        <ele>331</ele>
        <time>2014-08-30T11:26:05Z</time>
      </trkpt>
      <trkpt lat="43.87541" lon="7.22746">
        <ele>332</ele>
        <time>2014-08-30T11:26:08Z</time>
      </trkpt>
      <trkpt lat="43.87539" lon="7.22749">
        <ele>332</ele>
        <time>2014-08-30T11:26:11Z</time>
      </trkpt>
      <trkpt lat="43.87539" lon="7.22753">
        <ele>332</ele>
        <time>2014-08-30T11:26:14Z</time>
      </trkpt>
      <trkpt lat="43.8754" lon="7.22756">
        <ele>332</ele>
        <time>2014-08-30T11:26:17Z</time>
      </trkpt>
      <trkpt lat="43.87541" lon="7.2276">
        <ele>333</ele>
        <time>2014-08-30T11:26:20Z</time>
      </trkpt>
      <trkpt lat="43.8754" lon="7.22763">
        <ele>334</ele>
        <time>2014-08-30T11:26:23Z</time>
      </trkpt>
      <trkpt lat="43.87538" lon="7.22763">
        <ele>334</ele>
        <time>2014-08-30T11:26:26Z</time>
      </trkpt>
      <trkpt lat="43.87537" lon="7.2276">
        <ele>334</ele>
        <time>2014-08-30T11:26:29Z</time>
      </trkpt>
      <trkpt lat="43.87537" lon="7.22757">
        <ele>335</ele>
        <time>2014-08-30T11:26:32Z</time>
      </trkpt>
      <trkpt lat="43.87535" lon="7.22755">
        <ele>336</ele>
        <time>2014-08-30T11:26:35Z</time>
      </trkpt>
      <trkpt lat="43.87533" lon="7.22752">
        <ele>336</ele>
        <time>2014-08-30T11:26:38Z</time>
      </trkpt>
      <trkpt lat="43.87532" lon="7.22749">
        <ele>336</ele>
        <time>2014-08-30T11:26:41Z</time>
      </trkpt>
      <trkpt lat="43.87529" lon="7.22747">
        <ele>337</ele>
        <time>2014-08-30T11:26:44Z</time>
      </trkpt>
      <trkpt lat="43.87526" lon="7.22745">
        <ele>338</ele>
        <time>2014-08-30T11:26:47Z</time>
      </trkpt>
      <trkpt lat="43.87523" lon="7.22743">
        <ele>338</ele>
        <time>2014-08-30T11:26:50Z</time>
      </trkpt>
      <trkpt lat="43.87523" lon="7.22738">
        <ele>338</ele>
        <time>2014-08-30T11:26:53Z</time>
      </trkpt>
      <trkpt lat="43.87522" lon="7.22734">
        <ele>338</ele>
        <time>2014-08-30T11:26:56Z</time>
      </trkpt>
      <trkpt lat="43.87521" lon="7.22732">
        <ele>339</ele>
        <time>2014-08-30T11:26:59Z</time>
      </trkpt>
      <trkpt lat="43.8752" lon="7.22732">
        <ele>340</ele>
        <time>2014-08-30T11:27:02Z</time>
      </trkpt>
      <trkpt lat="43.87519" lon="7.22733">
        <ele>341</ele>
        <time>2014-08-30T11:27:05Z</time>
      </trkpt>
      <trkpt lat="43.8752" lon="7.22736">
        <ele>341</ele>
        <time>2014-08-30T11:27:08Z</time>
      </trkpt>
      <trkpt lat="43.8752" lon="7.22739">
        <ele>341</ele>
        <time>2014-08-30T11:27:11Z</time>
      </trkpt>
      <trkpt lat="43.87521" lon="7.22741">
        <ele>341</ele>
        <time>2014-08-30T11:27:14Z</time>
      </trkpt>
      <trkpt lat="43.87521" lon="7.22744">
        <ele>342</ele>
        <time>2014-08-30T11:27:17Z</time>
      </trkpt>
      <trkpt lat="43.87522" lon="7.22746">
        <ele>343</ele>
        <time>2014-08-30T11:27:20Z</time>
      </trkpt>
      <trkpt lat="43.87521" lon="7.22749">
        <ele>343</ele>
        <time>2014-08-30T11:27:23Z</time>
      </trkpt>
      <trkpt lat="43.87519" lon="7.2275">
        <ele>344</ele>
        <time>2014-08-30T11:27:26Z</time>
      </trkpt>
      <trkpt lat="43.87517" lon="7.22748">
        <ele>345</ele>
        <time>2014-08-30T11:27:29Z</time>
      </trkpt>
      <trkpt lat="43.87515" lon="7.22745">
        <ele>345</ele>
        <time>2014-08-30T11:27:32Z</time>
      </trkpt>
      <trkpt lat="43.87514" lon="7.22742">
        <ele>345</ele>
        <time>2014-08-30T11:27:35Z</time>
      </trkpt>
      <trkpt lat="43.87512" lon="7.22739">
        <ele>345</ele>
        <time>2014-08-30T11:27:38Z</time>
      </trkpt>
      <trkpt lat="43.87509" lon="7.22738">
        <ele>347</ele>
        <time>2014-08-30T11:27:41Z</time>
      </trkpt>
      <trkpt lat="43.87505" lon="7.22737">
        <ele>347</ele>
        <time>2014-08-30T11:27:44Z</time>
      </trkpt>
      <trkpt lat="43.87504" lon="7.22735">
        <ele>347</ele>
        <time>2014-08-30T11:27:47Z</time>
      </trkpt>
      <trkpt lat="43.87502" lon="7.22733">
        <ele>347</ele>
        <time>2014-08-30T11:27:50Z</time>
      </trkpt>
      <trkpt lat="43.87501" lon="7.2273">
        <ele>347</ele>
        <time>2014-08-30T11:27:53Z</time>
      </trkpt>
      <trkpt lat="43.875" lon="7.22726">
        <ele>349</ele>
        <time>2014-08-30T11:27:56Z</time>
      </trkpt>
      <trkpt lat="43.87498" lon="7.22723">
        <ele>349</ele>
        <time>2014-08-30T11:27:59Z</time>
      </trkpt>
      <trkpt lat="43.87496" lon="7.22721">
        <ele>349</ele>
        <time>2014-08-30T11:28:02Z</time>
      </trkpt>
      <trkpt lat="43.87498" lon="7.22721">
        <ele>351</ele>
        <time>2014-08-30T11:28:08Z</time>
      </trkpt>
      <trkpt lat="43.87499" lon="7.22724">
        <ele>351</ele>
        <time>2014-08-30T11:28:11Z</time>
      </trkpt>
      <trkpt lat="43.87499" lon="7.22727">
        <ele>351</ele>
        <time>2014-08-30T11:28:14Z</time>
      </trkpt>
      <trkpt lat="43.87499" lon="7.22731">
        <ele>351</ele>
        <time>2014-08-30T11:28:17Z</time>
      </trkpt>
      <trkpt lat="43.87499" lon="7.22733">
        <ele>352</ele>
        <time>2014-08-30T11:28:20Z</time>
      </trkpt>
      <trkpt lat="43.87499" lon="7.22735">
        <ele>354</ele>
        <time>2014-08-30T11:28:23Z</time>
      </trkpt>
      <trkpt lat="43.87498" lon="7.22738">
        <ele>354</ele>
        <time>2014-08-30T11:28:26Z</time>
      </trkpt>
      <trkpt lat="43.87497" lon="7.22742">
        <ele>354</ele>
        <time>2014-08-30T11:28:29Z</time>
      </trkpt>
      <trkpt lat="43.87495" lon="7.22745">
        <ele>354</ele>
        <time>2014-08-30T11:28:32Z</time>
      </trkpt>
      <trkpt lat="43.87494" lon="7.22746">
        <ele>354</ele>
        <time>2014-08-30T11:28:35Z</time>
      </trkpt>
      <trkpt lat="43.87491" lon="7.22746">
        <ele>355</ele>
        <time>2014-08-30T11:28:38Z</time>
      </trkpt>
      <trkpt lat="43.87489" lon="7.22743">
        <ele>356</ele>
        <time>2014-08-30T11:28:41Z</time>
      </trkpt>
      <trkpt lat="43.87488" lon="7.22741">
        <ele>356</ele>
        <time>2014-08-30T11:28:44Z</time>
      </trkpt>
      <trkpt lat="43.87488" lon="7.22739">
        <ele>356</ele>
        <time>2014-08-30T11:28:47Z</time>
      </trkpt>
      <trkpt lat="43.87487" lon="7.22737">
        <ele>357</ele>
        <time>2014-08-30T11:28:50Z</time>
      </trkpt>
      <trkpt lat="43.87486" lon="7.22735">
        <ele>358</ele>
        <time>2014-08-30T11:28:53Z</time>
      </trkpt>
      <trkpt lat="43.87483" lon="7.22732">
        <ele>358</ele>
        <time>2014-08-30T11:28:56Z</time>
      </trkpt>
      <trkpt lat="43.87481" lon="7.22729">
        <ele>358</ele>
        <time>2014-08-30T11:28:59Z</time>
      </trkpt>
      <trkpt lat="43.87479" lon="7.22726">
        <ele>359</ele>
        <time>2014-08-30T11:29:02Z</time>
      </trkpt>
      <trkpt lat="43.87478" lon="7.22722">
        <ele>360</ele>
        <time>2014-08-30T11:29:05Z</time>
      </trkpt>
      <trkpt lat="43.87476" lon="7.2272">
        <ele>360</ele>
        <time>2014-08-30T11:29:08Z</time>
      </trkpt>
      <trkpt lat="43.87472" lon="7.22721">
        <ele>360</ele>
        <time>2014-08-30T11:29:11Z</time>
      </trkpt>
      <trkpt lat="43.87468" lon="7.22719">
        <ele>360</ele>
        <time>2014-08-30T11:29:14Z</time>
      </trkpt>
      <trkpt lat="43.87468" lon="7.22714">
        <ele>360</ele>
        <time>2014-08-30T11:29:17Z</time>
      </trkpt>
      <trkpt lat="43.87469" lon="7.2271">
        <ele>361</ele>
        <time>2014-08-30T11:29:20Z</time>
      </trkpt>
      <trkpt lat="43.87471" lon="7.22706">
        <ele>362</ele>
        <time>2014-08-30T11:29:23Z</time>
      </trkpt>
      <trkpt lat="43.8747" lon="7.22708">
        <ele>364</ele>
        <time>2014-08-30T11:29:29Z</time>
      </trkpt>
      <trkpt lat="43.8747" lon="7.22711">
        <ele>364</ele>
        <time>2014-08-30T11:29:32Z</time>
      </trkpt>
      <trkpt lat="43.87471" lon="7.22712">
        <ele>364</ele>
        <time>2014-08-30T11:29:35Z</time>
      </trkpt>
      <trkpt lat="43.87473" lon="7.22713">
        <ele>364</ele>
        <time>2014-08-30T11:29:38Z</time>
      </trkpt>
      <trkpt lat="43.87475" lon="7.22715">
        <ele>365</ele>
        <time>2014-08-30T11:29:41Z</time>
      </trkpt>
      <trkpt lat="43.87475" lon="7.22718">
        <ele>367</ele>
        <time>2014-08-30T11:29:44Z</time>
      </trkpt>
      <trkpt lat="43.87474" lon="7.22721">
        <ele>367</ele>
        <time>2014-08-30T11:29:47Z</time>
      </trkpt>
      <trkpt lat="43.87473" lon="7.22723">
        <ele>367</ele>
        <time>2014-08-30T11:29:50Z</time>
      </trkpt>
      <trkpt lat="43.8747" lon="7.22722">
        <ele>367</ele>
        <time>2014-08-30T11:29:53Z</time>
      </trkpt>
      <trkpt lat="43.87468" lon="7.22721">
        <ele>368</ele>
        <time>2014-08-30T11:29:56Z</time>
      </trkpt>
      <trkpt lat="43.87466" lon="7.22719">
        <ele>369</ele>
        <time>2014-08-30T11:29:59Z</time>
      </trkpt>
      <trkpt lat="43.87463" lon="7.22718">
        <ele>369</ele>
        <time>2014-08-30T11:30:02Z</time>
      </trkpt>
      <trkpt lat="43.8746" lon="7.22718">
        <ele>370</ele>
        <time>2014-08-30T11:30:05Z</time>
      </trkpt>
      <trkpt lat="43.87458" lon="7.22718">
        <ele>371</ele>
        <time>2014-08-30T11:30:08Z</time>
      </trkpt>
      <trkpt lat="43.87457" lon="7.22719">
        <ele>371</ele>
        <time>2014-08-30T11:30:11Z</time>
      </trkpt>
      <trkpt lat="43.8746" lon="7.2272">
        <ele>371</ele>
        <time>2014-08-30T11:30:14Z</time>
      </trkpt>
      <trkpt lat="43.87462" lon="7.22722">
        <ele>371</ele>
        <time>2014-08-30T11:30:17Z</time>
      </trkpt>
      <trkpt lat="43.87462" lon="7.22724">
        <ele>372</ele>
        <time>2014-08-30T11:30:20Z</time>
      </trkpt>
      <trkpt lat="43.87461" lon="7.22725">
        <ele>373</ele>
        <time>2014-08-30T11:30:23Z</time>
      </trkpt>
      <trkpt lat="43.87457" lon="7.22725">
        <ele>373</ele>
        <time>2014-08-30T11:30:26Z</time>
      </trkpt>
      <trkpt lat="43.87455" lon="7.22723">
        <ele>373</ele>
        <time>2014-08-30T11:30:29Z</time>
      </trkpt>
      <trkpt lat="43.87453" lon="7.22721">
        <ele>374</ele>
        <time>2014-08-30T11:30:32Z</time>
      </trkpt>
      <trkpt lat="43.87451" lon="7.2272">
        <ele>375</ele>
        <time>2014-08-30T11:30:35Z</time>
      </trkpt>
      <trkpt lat="43.87449" lon="7.2272">
        <ele>375</ele>
        <time>2014-08-30T11:30:38Z</time>
      </trkpt>
      <trkpt lat="43.87446" lon="7.2272">
        <ele>375</ele>
        <time>2014-08-30T11:30:41Z</time>
      </trkpt>
      <trkpt lat="43.87444" lon="7.22719">
        <ele>376</ele>
        <time>2014-08-30T11:30:44Z</time>
      </trkpt>
      <trkpt lat="43.87444" lon="7.22716">
        <ele>377</ele>
        <time>2014-08-30T11:30:47Z</time>
      </trkpt>
      <trkpt lat="43.87443" lon="7.22712">
        <ele>377</ele>
        <time>2014-08-30T11:30:50Z</time>
      </trkpt>
      <trkpt lat="43.87443" lon="7.22709">
        <ele>377</ele>
        <time>2014-08-30T11:30:53Z</time>
      </trkpt>
      <trkpt lat="43.87443" lon="7.22705">
        <ele>377</ele>
        <time>2014-08-30T11:30:56Z</time>
      </trkpt>
      <trkpt lat="43.87441" lon="7.22701">
        <ele>377</ele>
        <time>2014-08-30T11:30:59Z</time>
      </trkpt>
      <trkpt lat="43.8744" lon="7.22698">
        <ele>377</ele>
        <time>2014-08-30T11:31:02Z</time>
      </trkpt>
      <trkpt lat="43.87439" lon="7.22693">
        <ele>378</ele>
        <time>2014-08-30T11:31:05Z</time>
      </trkpt>
      <trkpt lat="43.87439" lon="7.22689">
        <ele>379</ele>
        <time>2014-08-30T11:31:08Z</time>
      </trkpt>
      <trkpt lat="43.87439" lon="7.22685">
        <ele>379</ele>
        <time>2014-08-30T11:31:11Z</time>
      </trkpt>
      <trkpt lat="43.87441" lon="7.22679">
        <ele>380</ele>
        <time>2014-08-30T11:31:14Z</time>
      </trkpt>
      <trkpt lat="43.87444" lon="7.22671">
        <ele>381</ele>
        <time>2014-08-30T11:31:17Z</time>
      </trkpt>
      <trkpt lat="43.87445" lon="7.22665">
        <ele>381</ele>
        <time>2014-08-30T11:31:20Z</time>
      </trkpt>
      <trkpt lat="43.87444" lon="7.22661">
        <ele>381</ele>
        <time>2014-08-30T11:31:23Z</time>
      </trkpt>
      <trkpt lat="43.87444" lon="7.22657">
        <ele>381</ele>
        <time>2014-08-30T11:31:26Z</time>
      </trkpt>
      <trkpt lat="43.87442" lon="7.22654">
        <ele>383</ele>
        <time>2014-08-30T11:31:29Z</time>
      </trkpt>
      <trkpt lat="43.87441" lon="7.22653">
        <ele>383</ele>
        <time>2014-08-30T11:31:32Z</time>
      </trkpt>
      <trkpt lat="43.87439" lon="7.22652">
        <ele>383</ele>
        <time>2014-08-30T11:31:35Z</time>
      </trkpt>
      <trkpt lat="43.87442" lon="7.22646">
        <ele>383</ele>
        <time>2014-08-30T11:31:38Z</time>
      </trkpt>
      <trkpt lat="43.87445" lon="7.22643">
        <ele>385</ele>
        <time>2014-08-30T11:31:41Z</time>
      </trkpt>
      <trkpt lat="43.87447" lon="7.22644">
        <ele>386</ele>
        <time>2014-08-30T11:31:44Z</time>
      </trkpt>
      <trkpt lat="43.87448" lon="7.22647">
        <ele>386</ele>
        <time>2014-08-30T11:31:47Z</time>
      </trkpt>
      <trkpt lat="43.87448" lon="7.22651">
        <ele>386</ele>
        <time>2014-08-30T11:31:50Z</time>
      </trkpt>
      <trkpt lat="43.87446" lon="7.22652">
        <ele>387</ele>
        <time>2014-08-30T11:31:53Z</time>
      </trkpt>
      <trkpt lat="43.87443" lon="7.22651">
        <ele>388</ele>
        <time>2014-08-30T11:31:56Z</time>
      </trkpt>
      <trkpt lat="43.8744" lon="7.22649">
        <ele>388</ele>
        <time>2014-08-30T11:31:59Z</time>
      </trkpt>
      <trkpt lat="43.87436" lon="7.22646">
        <ele>388</ele>
        <time>2014-08-30T11:32:02Z</time>
      </trkpt>
      <trkpt lat="43.87434" lon="7.22645">
        <ele>389</ele>
        <time>2014-08-30T11:32:05Z</time>
      </trkpt>
      <trkpt lat="43.87431" lon="7.22645">
        <ele>390</ele>
        <time>2014-08-30T11:32:08Z</time>
      </trkpt>
      <trkpt lat="43.87428" lon="7.22643">
        <ele>390</ele>
        <time>2014-08-30T11:32:11Z</time>
      </trkpt>
      <trkpt lat="43.87426" lon="7.2264">
        <ele>390</ele>
        <time>2014-08-30T11:32:14Z</time>
      </trkpt>
      <trkpt lat="43.87424" lon="7.22639">
        <ele>390</ele>
        <time>2014-08-30T11:32:17Z</time>
      </trkpt>
      <trkpt lat="43.87421" lon="7.22638">
        <ele>392</ele>
        <time>2014-08-30T11:32:20Z</time>
      </trkpt>
      <trkpt lat="43.87419" lon="7.22638">
        <ele>392</ele>
        <time>2014-08-30T11:32:23Z</time>
      </trkpt>
      <trkpt lat="43.87416" lon="7.22639">
        <ele>392</ele>
        <time>2014-08-30T11:32:26Z</time>
      </trkpt>
      <trkpt lat="43.87414" lon="7.2264">
        <ele>393</ele>
        <time>2014-08-30T11:32:29Z</time>
      </trkpt>
      <trkpt lat="43.87411" lon="7.2264">
        <ele>394</ele>
        <time>2014-08-30T11:32:32Z</time>
      </trkpt>
      <trkpt lat="43.87408" lon="7.22642">
        <ele>395</ele>
        <time>2014-08-30T11:32:35Z</time>
      </trkpt>
      <trkpt lat="43.87405" lon="7.22643">
        <ele>396</ele>
        <time>2014-08-30T11:32:38Z</time>
      </trkpt>
      <trkpt lat="43.87402" lon="7.22645">
        <ele>396</ele>
        <time>2014-08-30T11:32:41Z</time>
      </trkpt>
      <trkpt lat="43.87401" lon="7.22645">
        <ele>396</ele>
        <time>2014-08-30T11:32:44Z</time>
      </trkpt>
      <trkpt lat="43.874" lon="7.22647">
        <ele>396</ele>
        <time>2014-08-30T11:32:47Z</time>
      </trkpt>
      <trkpt lat="43.87395" lon="7.2265">
        <ele>396</ele>
        <time>2014-08-30T11:32:50Z</time>
      </trkpt>
      <trkpt lat="43.87389" lon="7.22655">
        <ele>396</ele>
        <time>2014-08-30T11:32:53Z</time>
      </trkpt>
      <trkpt lat="43.87384" lon="7.22659">
        <ele>396</ele>
        <time>2014-08-30T11:32:56Z</time>
      </trkpt>
      <trkpt lat="43.87381" lon="7.22663">
        <ele>397</ele>
        <time>2014-08-30T11:32:59Z</time>
      </trkpt>
      <trkpt lat="43.87378" lon="7.22667">
        <ele>398</ele>
        <time>2014-08-30T11:33:02Z</time>
      </trkpt>
      <trkpt lat="43.87375" lon="7.2267">
        <ele>398</ele>
        <time>2014-08-30T11:33:05Z</time>
      </trkpt>
      <trkpt lat="43.87371" lon="7.22673">
        <ele>398</ele>
        <time>2014-08-30T11:33:08Z</time>
      </trkpt>
      <trkpt lat="43.87366" lon="7.22677">
        <ele>398</ele>
        <time>2014-08-30T11:33:11Z</time>
      </trkpt>
      <trkpt lat="43.87363" lon="7.22679">
        <ele>400</ele>
        <time>2014-08-30T11:33:14Z</time>
      </trkpt>
      <trkpt lat="43.8736" lon="7.2268">
        <ele>400</ele>
        <time>2014-08-30T11:33:17Z</time>
      </trkpt>
      <trkpt lat="43.87355" lon="7.22682">
        <ele>400</ele>
        <time>2014-08-30T11:33:20Z</time>
      </trkpt>
      <trkpt lat="43.87351" lon="7.22684">
        <ele>400</ele>
        <time>2014-08-30T11:33:23Z</time>
      </trkpt>
      <trkpt lat="43.87349" lon="7.22687">
        <ele>402</ele>
        <time>2014-08-30T11:33:26Z</time>
      </trkpt>
      <trkpt lat="43.87347" lon="7.22689">
        <ele>403</ele>
        <time>2014-08-30T11:33:29Z</time>
      </trkpt>
      <trkpt lat="43.87345" lon="7.2269">
        <ele>404</ele>
        <time>2014-08-30T11:33:32Z</time>
      </trkpt>
      <trkpt lat="43.87342" lon="7.22691">
        <ele>405</ele>
        <time>2014-08-30T11:33:35Z</time>
      </trkpt>
      <trkpt lat="43.87338" lon="7.22693">
        <ele>405</ele>
        <time>2014-08-30T11:33:38Z</time>
      </trkpt>
      <trkpt lat="43.87334" lon="7.22694">
        <ele>405</ele>
        <time>2014-08-30T11:33:41Z</time>
      </trkpt>
      <trkpt lat="43.87331" lon="7.22694">
        <ele>406</ele>
        <time>2014-08-30T11:33:44Z</time>
      </trkpt>
      <trkpt lat="43.87328" lon="7.22695">
        <ele>407</ele>
        <time>2014-08-30T11:33:47Z</time>
      </trkpt>
      <trkpt lat="43.87326" lon="7.22695">
        <ele>407</ele>
        <time>2014-08-30T11:33:50Z</time>
      </trkpt>
      <trkpt lat="43.87323" lon="7.22693">
        <ele>407</ele>
        <time>2014-08-30T11:33:53Z</time>
      </trkpt>
      <trkpt lat="43.87321" lon="7.22691">
        <ele>407</ele>
        <time>2014-08-30T11:33:56Z</time>
      </trkpt>
      <trkpt lat="43.87318" lon="7.2269">
        <ele>408</ele>
        <time>2014-08-30T11:33:59Z</time>
      </trkpt>
      <trkpt lat="43.87316" lon="7.2269">
        <ele>409</ele>
        <time>2014-08-30T11:34:02Z</time>
      </trkpt>
      <trkpt lat="43.87313" lon="7.22688">
        <ele>409</ele>
        <time>2014-08-30T11:34:05Z</time>
      </trkpt>
      <trkpt lat="43.8731" lon="7.22684">
        <ele>409</ele>
        <time>2014-08-30T11:34:08Z</time>
      </trkpt>
      <trkpt lat="43.87308" lon="7.2268">
        <ele>410</ele>
        <time>2014-08-30T11:34:11Z</time>
      </trkpt>
      <trkpt lat="43.87306" lon="7.22677">
        <ele>411</ele>
        <time>2014-08-30T11:34:14Z</time>
      </trkpt>
      <trkpt lat="43.87306" lon="7.22676">
        <ele>411</ele>
        <time>2014-08-30T11:34:17Z</time>
      </trkpt>
      <trkpt lat="43.87305" lon="7.22673">
        <ele>411</ele>
        <time>2014-08-30T11:34:20Z</time>
      </trkpt>
      <trkpt lat="43.87302" lon="7.22667">
        <ele>411</ele>
        <time>2014-08-30T11:34:23Z</time>
      </trkpt>
      <trkpt lat="43.87298" lon="7.22661">
        <ele>411</ele>
        <time>2014-08-30T11:34:26Z</time>
      </trkpt>
      <trkpt lat="43.87295" lon="7.22656">
        <ele>412</ele>
        <time>2014-08-30T11:34:29Z</time>
      </trkpt>
      <trkpt lat="43.87291" lon="7.22651">
        <ele>413</ele>
        <time>2014-08-30T11:34:32Z</time>
      </trkpt>
      <trkpt lat="43.87288" lon="7.22646">
        <ele>413</ele>
        <time>2014-08-30T11:34:35Z</time>
      </trkpt>
      <trkpt lat="43.87285" lon="7.22642">
        <ele>413</ele>
        <time>2014-08-30T11:34:38Z</time>
      </trkpt>
      <trkpt lat="43.87282" lon="7.22637">
        <ele>414</ele>
        <time>2014-08-30T11:34:41Z</time>
      </trkpt>
      <trkpt lat="43.87279" lon="7.22634">
        <ele>416</ele>
        <time>2014-08-30T11:34:44Z</time>
      </trkpt>
      <trkpt lat="43.87277" lon="7.2263">
        <ele>416</ele>
        <time>2014-08-30T11:34:47Z</time>
      </trkpt>
      <trkpt lat="43.87275" lon="7.22626">
        <ele>416</ele>
        <time>2014-08-30T11:34:50Z</time>
      </trkpt>
      <trkpt lat="43.87272" lon="7.22622">
        <ele>416</ele>
        <time>2014-08-30T11:34:53Z</time>
      </trkpt>
      <trkpt lat="43.8727" lon="7.22617">
        <ele>417</ele>
        <time>2014-08-30T11:34:56Z</time>
      </trkpt>
      <trkpt lat="43.87268" lon="7.22613">
        <ele>418</ele>
        <time>2014-08-30T11:34:59Z</time>
      </trkpt>
      <trkpt lat="43.87266" lon="7.22608">
        <ele>418</ele>
        <time>2014-08-30T11:35:02Z</time>
      </trkpt>
      <trkpt lat="43.87265" lon="7.22604">
        <ele>418</ele>
        <time>2014-08-30T11:35:05Z</time>
      </trkpt>
      <trkpt lat="43.87263" lon="7.22599">
        <ele>418</ele>
        <time>2014-08-30T11:35:08Z</time>
      </trkpt>
      <trkpt lat="43.87262" lon="7.22594">
        <ele>418</ele>
        <time>2014-08-30T11:35:11Z</time>
      </trkpt>
      <trkpt lat="43.87261" lon="7.2259">
        <ele>420</ele>
        <time>2014-08-30T11:35:14Z</time>
      </trkpt>
      <trkpt lat="43.8726" lon="7.22586">
        <ele>420</ele>
        <time>2014-08-30T11:35:17Z</time>
      </trkpt>
      <trkpt lat="43.87259" lon="7.22582">
        <ele>420</ele>
        <time>2014-08-30T11:35:20Z</time>
      </trkpt>
      <trkpt lat="43.87256" lon="7.22579">
        <ele>420</ele>
        <time>2014-08-30T11:35:23Z</time>
      </trkpt>
      <trkpt lat="43.87254" lon="7.22577">
        <ele>422</ele>
        <time>2014-08-30T11:35:26Z</time>
      </trkpt>
      <trkpt lat="43.87251" lon="7.22574">
        <ele>422</ele>
        <time>2014-08-30T11:35:29Z</time>
      </trkpt>
      <trkpt lat="43.87248" lon="7.22571">
        <ele>422</ele>
        <time>2014-08-30T11:35:32Z</time>
      </trkpt>
      <trkpt lat="43.87245" lon="7.22568">
        <ele>422</ele>
        <time>2014-08-30T11:35:35Z</time>
      </trkpt>
      <trkpt lat="43.87242" lon="7.22566">
        <ele>422</ele>
        <time>2014-08-30T11:35:38Z</time>
      </trkpt>
      <trkpt lat="43.87239" lon="7.22562">
        <ele>423</ele>
        <time>2014-08-30T11:35:41Z</time>
      </trkpt>
      <trkpt lat="43.87236" lon="7.22558">
        <ele>424</ele>
        <time>2014-08-30T11:35:44Z</time>
      </trkpt>
      <trkpt lat="43.87234" lon="7.22556">
        <ele>424</ele>
        <time>2014-08-30T11:35:47Z</time>
      </trkpt>
      <trkpt lat="43.87232" lon="7.22554">
        <ele>424</ele>
        <time>2014-08-30T11:35:50Z</time>
      </trkpt>
      <trkpt lat="43.87228" lon="7.22551">
        <ele>424</ele>
        <time>2014-08-30T11:35:53Z</time>
      </trkpt>
      <trkpt lat="43.87222" lon="7.22547">
        <ele>424</ele>
        <time>2014-08-30T11:35:56Z</time>
      </trkpt>
      <trkpt lat="43.87217" lon="7.22543">
        <ele>426</ele>
        <time>2014-08-30T11:35:59Z</time>
      </trkpt>
      <trkpt lat="43.87215" lon="7.22539">
        <ele>427</ele>
        <time>2014-08-30T11:36:02Z</time>
      </trkpt>
      <trkpt lat="43.87214" lon="7.22534">
        <ele>427</ele>
        <time>2014-08-30T11:36:05Z</time>
      </trkpt>
      <trkpt lat="43.87212" lon="7.2253">
        <ele>428</ele>
        <time>2014-08-30T11:36:08Z</time>
      </trkpt>
      <trkpt lat="43.8721" lon="7.22525">
        <ele>429</ele>
        <time>2014-08-30T11:36:11Z</time>
      </trkpt>
      <trkpt lat="43.87208" lon="7.22522">
        <ele>429</ele>
        <time>2014-08-30T11:36:14Z</time>
      </trkpt>
      <trkpt lat="43.87205" lon="7.22519">
        <ele>430</ele>
        <time>2014-08-30T11:36:17Z</time>
      </trkpt>
      <trkpt lat="43.87203" lon="7.22516">
        <ele>431</ele>
        <time>2014-08-30T11:36:20Z</time>
      </trkpt>
      <trkpt lat="43.87201" lon="7.22513">
        <ele>431</ele>
        <time>2014-08-30T11:36:23Z</time>
      </trkpt>
      <trkpt lat="43.87199" lon="7.2251">
        <ele>431</ele>
        <time>2014-08-30T11:36:26Z</time>
      </trkpt>
      <trkpt lat="43.87196" lon="7.22507">
        <ele>431</ele>
        <time>2014-08-30T11:36:29Z</time>
      </trkpt>
      <trkpt lat="43.87193" lon="7.22505">
        <ele>432</ele>
        <time>2014-08-30T11:36:32Z</time>
      </trkpt>
      <trkpt lat="43.87189" lon="7.22506">
        <ele>433</ele>
        <time>2014-08-30T11:36:35Z</time>
      </trkpt>
      <trkpt lat="43.87188" lon="7.22511">
        <ele>433</ele>
        <time>2014-08-30T11:36:38Z</time>
      </trkpt>
      <trkpt lat="43.87187" lon="7.22517">
        <ele>433</ele>
        <time>2014-08-30T11:36:41Z</time>
      </trkpt>
      <trkpt lat="43.87186" lon="7.22521">
        <ele>434</ele>
        <time>2014-08-30T11:36:44Z</time>
      </trkpt>
      <trkpt lat="43.87186" lon="7.22523">
        <ele>435</ele>
        <time>2014-08-30T11:36:47Z</time>
      </trkpt>
      <trkpt lat="43.87186" lon="7.22522">
        <ele>435</ele>
        <time>2014-08-30T11:36:50Z</time>
      </trkpt>
      <trkpt lat="43.87186" lon="7.22521">
        <ele>435</ele>
        <time>2014-08-30T11:36:56Z</time>
      </trkpt>
      <trkpt lat="43.87186" lon="7.22522">
        <ele>435</ele>
        <time>2014-08-30T11:37:11Z</time>
      </trkpt>
      <trkpt lat="43.87183" lon="7.22526">
        <ele>435</ele>
        <time>2014-08-30T11:37:14Z</time>
      </trkpt>
      <trkpt lat="43.87178" lon="7.22532">
        <ele>435</ele>
        <time>2014-08-30T11:37:17Z</time>
      </trkpt>
      <trkpt lat="43.87173" lon="7.22537">
        <ele>435</ele>
        <time>2014-08-30T11:37:20Z</time>
      </trkpt>
      <trkpt lat="43.87167" lon="7.22541">
        <ele>435</ele>
        <time>2014-08-30T11:37:23Z</time>
      </trkpt>
      <trkpt lat="43.87163" lon="7.22546">
        <ele>435</ele>
        <time>2014-08-30T11:37:26Z</time>
      </trkpt>
      <trkpt lat="43.87159" lon="7.22549">
        <ele>435</ele>
        <time>2014-08-30T11:37:29Z</time>
      </trkpt>
      <trkpt lat="43.87154" lon="7.22553">
        <ele>436</ele>
        <time>2014-08-30T11:37:32Z</time>
      </trkpt>
      <trkpt lat="43.87148" lon="7.22558">
        <ele>437</ele>
        <time>2014-08-30T11:37:35Z</time>
      </trkpt>
      <trkpt lat="43.87143" lon="7.22562">
        <ele>438</ele>
        <time>2014-08-30T11:37:38Z</time>
      </trkpt>
      <trkpt lat="43.87139" lon="7.22566">
        <ele>438</ele>
        <time>2014-08-30T11:37:41Z</time>
      </trkpt>
      <trkpt lat="43.87134" lon="7.22573">
        <ele>438</ele>
        <time>2014-08-30T11:37:44Z</time>
      </trkpt>
      <trkpt lat="43.8713" lon="7.22579">
        <ele>438</ele>
        <time>2014-08-30T11:37:48Z</time>
      </trkpt>
      <trkpt lat="43.87121" lon="7.22591">
        <ele>438</ele>
        <time>2014-08-30T11:37:51Z</time>
      </trkpt>
      <trkpt lat="43.87114" lon="7.22598">
        <ele>438</ele>
        <time>2014-08-30T11:37:54Z</time>
      </trkpt>
      <trkpt lat="43.87109" lon="7.22606">
        <ele>438</ele>
        <time>2014-08-30T11:37:57Z</time>
      </trkpt>
      <trkpt lat="43.87104" lon="7.22614">
        <ele>438</ele>
        <time>2014-08-30T11:38:00Z</time>
      </trkpt>
      <trkpt lat="43.87098" lon="7.22625">
        <ele>438</ele>
        <time>2014-08-30T11:38:03Z</time>
      </trkpt>
      <trkpt lat="43.87094" lon="7.22637">
        <ele>440</ele>
        <time>2014-08-30T11:38:06Z</time>
      </trkpt>
      <trkpt lat="43.87089" lon="7.22649">
        <ele>440</ele>
        <time>2014-08-30T11:38:09Z</time>
      </trkpt>
      <trkpt lat="43.87083" lon="7.22653">
        <ele>441</ele>
        <time>2014-08-30T11:38:12Z</time>
      </trkpt>
      <trkpt lat="43.87077" lon="7.22645">
        <ele>442</ele>
        <time>2014-08-30T11:38:15Z</time>
      </trkpt>
      <trkpt lat="43.87073" lon="7.22635">
        <ele>442</ele>
        <time>2014-08-30T11:38:18Z</time>
      </trkpt>
      <trkpt lat="43.87069" lon="7.22627">
        <ele>442</ele>
        <time>2014-08-30T11:38:21Z</time>
      </trkpt>
      <trkpt lat="43.87065" lon="7.22621">
        <ele>442</ele>
        <time>2014-08-30T11:38:24Z</time>
      </trkpt>
      <trkpt lat="43.87063" lon="7.22617">
        <ele>444</ele>
        <time>2014-08-30T11:38:27Z</time>
      </trkpt>
      <trkpt lat="43.87061" lon="7.22611">
        <ele>444</ele>
        <time>2014-08-30T11:38:30Z</time>
      </trkpt>
      <trkpt lat="43.87059" lon="7.22606">
        <ele>444</ele>
        <time>2014-08-30T11:38:33Z</time>
      </trkpt>
      <trkpt lat="43.87057" lon="7.22603">
        <ele>444</ele>
        <time>2014-08-30T11:38:36Z</time>
      </trkpt>
      <trkpt lat="43.87053" lon="7.226">
        <ele>444</ele>
        <time>2014-08-30T11:38:39Z</time>
      </trkpt>
      <trkpt lat="43.8705" lon="7.22597">
        <ele>446</ele>
        <time>2014-08-30T11:38:42Z</time>
      </trkpt>
      <trkpt lat="43.87045" lon="7.22594">
        <ele>447</ele>
        <time>2014-08-30T11:38:45Z</time>
      </trkpt>
      <trkpt lat="43.87042" lon="7.2259">
        <ele>448</ele>
        <time>2014-08-30T11:38:48Z</time>
      </trkpt>
      <trkpt lat="43.87038" lon="7.22586">
        <ele>448</ele>
        <time>2014-08-30T11:38:51Z</time>
      </trkpt>
      <trkpt lat="43.87035" lon="7.22583">
        <ele>449</ele>
        <time>2014-08-30T11:38:54Z</time>
      </trkpt>
      <trkpt lat="43.87032" lon="7.22581">
        <ele>450</ele>
        <time>2014-08-30T11:38:57Z</time>
      </trkpt>
      <trkpt lat="43.87028" lon="7.22579">
        <ele>450</ele>
        <time>2014-08-30T11:39:00Z</time>
      </trkpt>
      <trkpt lat="43.87024" lon="7.22577">
        <ele>450</ele>
        <time>2014-08-30T11:39:03Z</time>
      </trkpt>
      <trkpt lat="43.8702" lon="7.22577">
        <ele>450</ele>
        <time>2014-08-30T11:39:06Z</time>
      </trkpt>
      <trkpt lat="43.87015" lon="7.22577">
        <ele>452</ele>
        <time>2014-08-30T11:39:09Z</time>
      </trkpt>
      <trkpt lat="43.87012" lon="7.22578">
        <ele>452</ele>
        <time>2014-08-30T11:39:12Z</time>
      </trkpt>
      <trkpt lat="43.87009" lon="7.22579">
        <ele>453</ele>
        <time>2014-08-30T11:39:15Z</time>
      </trkpt>
      <trkpt lat="43.87005" lon="7.2258">
        <ele>454</ele>
        <time>2014-08-30T11:39:18Z</time>
      </trkpt>
      <trkpt lat="43.87001" lon="7.22581">
        <ele>454</ele>
        <time>2014-08-30T11:39:21Z</time>
      </trkpt>
      <trkpt lat="43.86997" lon="7.22583">
        <ele>454</ele>
        <time>2014-08-30T11:39:24Z</time>
      </trkpt>
      <trkpt lat="43.86992" lon="7.22584">
        <ele>455</ele>
        <time>2014-08-30T11:39:27Z</time>
      </trkpt>
      <trkpt lat="43.86992" lon="7.22587">
        <ele>456</ele>
        <time>2014-08-30T11:39:30Z</time>
      </trkpt>
      <trkpt lat="43.86994" lon="7.22589">
        <ele>457</ele>
        <time>2014-08-30T11:39:33Z</time>
      </trkpt>
      <trkpt lat="43.86999" lon="7.22589">
        <ele>457</ele>
        <time>2014-08-30T11:39:36Z</time>
      </trkpt>
      <trkpt lat="43.87002" lon="7.2259">
        <ele>457</ele>
        <time>2014-08-30T11:39:39Z</time>
      </trkpt>
      <trkpt lat="43.87005" lon="7.22592">
        <ele>457</ele>
        <time>2014-08-30T11:39:42Z</time>
      </trkpt>
      <trkpt lat="43.87007" lon="7.22596">
        <ele>458</ele>
        <time>2014-08-30T11:39:45Z</time>
      </trkpt>
      <trkpt lat="43.87009" lon="7.22602">
        <ele>459</ele>
        <time>2014-08-30T11:39:48Z</time>
      </trkpt>
      <trkpt lat="43.87012" lon="7.22606">
        <ele>459</ele>
        <time>2014-08-30T11:39:51Z</time>
      </trkpt>
      <trkpt lat="43.87015" lon="7.22609">
        <ele>459</ele>
        <time>2014-08-30T11:39:54Z</time>
      </trkpt>
      <trkpt lat="43.87017" lon="7.22613">
        <ele>459</ele>
        <time>2014-08-30T11:39:57Z</time>
      </trkpt>
      <trkpt lat="43.87018" lon="7.22616">
        <ele>460</ele>
        <time>2014-08-30T11:40:00Z</time>
      </trkpt>
      <trkpt lat="43.87019" lon="7.22619">
        <ele>461</ele>
        <time>2014-08-30T11:40:03Z</time>
      </trkpt>
      <trkpt lat="43.87017" lon="7.22619">
        <ele>461</ele>
        <time>2014-08-30T11:40:06Z</time>
      </trkpt>
      <trkpt lat="43.87014" lon="7.22617">
        <ele>461</ele>
        <time>2014-08-30T11:40:09Z</time>
      </trkpt>
      <trkpt lat="43.87011" lon="7.22615">
        <ele>462</ele>
        <time>2014-08-30T11:40:12Z</time>
      </trkpt>
      <trkpt lat="43.87008" lon="7.22615">
        <ele>463</ele>
        <time>2014-08-30T11:40:15Z</time>
      </trkpt>
      <trkpt lat="43.87004" lon="7.22615">
        <ele>463</ele>
        <time>2014-08-30T11:40:18Z</time>
      </trkpt>
      <trkpt lat="43.87001" lon="7.22615">
        <ele>464</ele>
        <time>2014-08-30T11:40:21Z</time>
      </trkpt>
      <trkpt lat="43.86998" lon="7.22615">
        <ele>465</ele>
        <time>2014-08-30T11:40:24Z</time>
      </trkpt>
      <trkpt lat="43.86996" lon="7.22615">
        <ele>466</ele>
        <time>2014-08-30T11:40:27Z</time>
      </trkpt>
      <trkpt lat="43.86994" lon="7.22615">
        <ele>466</ele>
        <time>2014-08-30T11:40:30Z</time>
      </trkpt>
      <trkpt lat="43.86992" lon="7.22614">
        <ele>466</ele>
        <time>2014-08-30T11:40:33Z</time>
      </trkpt>
      <trkpt lat="43.86988" lon="7.22615">
        <ele>466</ele>
        <time>2014-08-30T11:40:36Z</time>
      </trkpt>
      <trkpt lat="43.86985" lon="7.22616">
        <ele>468</ele>
        <time>2014-08-30T11:40:39Z</time>
      </trkpt>
      <trkpt lat="43.86981" lon="7.22616">
        <ele>468</ele>
        <time>2014-08-30T11:40:42Z</time>
      </trkpt>
      <trkpt lat="43.86978" lon="7.22616">
        <ele>468</ele>
        <time>2014-08-30T11:40:45Z</time>
      </trkpt>
      <trkpt lat="43.86975" lon="7.22617">
        <ele>468</ele>
        <time>2014-08-30T11:40:48Z</time>
      </trkpt>
      <trkpt lat="43.86972" lon="7.22616">
        <ele>469</ele>
        <time>2014-08-30T11:40:51Z</time>
      </trkpt>
      <trkpt lat="43.86969" lon="7.22616">
        <ele>470</ele>
        <time>2014-08-30T11:40:54Z</time>
      </trkpt>
      <trkpt lat="43.86966" lon="7.22616">
        <ele>470</ele>
        <time>2014-08-30T11:40:57Z</time>
      </trkpt>
      <trkpt lat="43.86963" lon="7.22618">
        <ele>471</ele>
        <time>2014-08-30T11:41:00Z</time>
      </trkpt>
      <trkpt lat="43.8696" lon="7.2262">
        <ele>472</ele>
        <time>2014-08-30T11:41:03Z</time>
      </trkpt>
      <trkpt lat="43.86958" lon="7.22621">
        <ele>472</ele>
        <time>2014-08-30T11:41:06Z</time>
      </trkpt>
      <trkpt lat="43.86955" lon="7.22622">
        <ele>472</ele>
        <time>2014-08-30T11:41:09Z</time>
      </trkpt>
      <trkpt lat="43.86952" lon="7.22623">
        <ele>473</ele>
        <time>2014-08-30T11:41:12Z</time>
      </trkpt>
      <trkpt lat="43.8695" lon="7.22624">
        <ele>474</ele>
        <time>2014-08-30T11:41:15Z</time>
      </trkpt>
      <trkpt lat="43.86947" lon="7.22626">
        <ele>474</ele>
        <time>2014-08-30T11:41:18Z</time>
      </trkpt>
      <trkpt lat="43.86943" lon="7.22628">
        <ele>474</ele>
        <time>2014-08-30T11:41:21Z</time>
      </trkpt>
      <trkpt lat="43.8694" lon="7.22628">
        <ele>474</ele>
        <time>2014-08-30T11:41:24Z</time>
      </trkpt>
      <trkpt lat="43.86937" lon="7.22629">
        <ele>475</ele>
        <time>2014-08-30T11:41:27Z</time>
      </trkpt>
      <trkpt lat="43.86935" lon="7.2263">
        <ele>476</ele>
        <time>2014-08-30T11:41:30Z</time>
      </trkpt>
      <trkpt lat="43.86932" lon="7.22633">
        <ele>476</ele>
        <time>2014-08-30T11:41:33Z</time>
      </trkpt>
      <trkpt lat="43.86929" lon="7.22636">
        <ele>476</ele>
        <time>2014-08-30T11:41:36Z</time>
      </trkpt>
      <trkpt lat="43.86927" lon="7.22639">
        <ele>477</ele>
        <time>2014-08-30T11:41:39Z</time>
      </trkpt>
      <trkpt lat="43.86924" lon="7.22642">
        <ele>478</ele>
        <time>2014-08-30T11:41:42Z</time>
      </trkpt>
      <trkpt lat="43.8692" lon="7.22645">
        <ele>478</ele>
        <time>2014-08-30T11:41:45Z</time>
      </trkpt>
      <trkpt lat="43.86917" lon="7.22648">
        <ele>478</ele>
        <time>2014-08-30T11:41:48Z</time>
      </trkpt>
      <trkpt lat="43.86913" lon="7.22652">
        <ele>478</ele>
        <time>2014-08-30T11:41:51Z</time>
      </trkpt>
      <trkpt lat="43.86911" lon="7.22656">
        <ele>478</ele>
        <time>2014-08-30T11:41:54Z</time>
      </trkpt>
      <trkpt lat="43.86908" lon="7.22661">
        <ele>479</ele>
        <time>2014-08-30T11:41:57Z</time>
      </trkpt>
      <trkpt lat="43.86905" lon="7.22666">
        <ele>480</ele>
        <time>2014-08-30T11:42:00Z</time>
      </trkpt>
      <trkpt lat="43.86903" lon="7.2267">
        <ele>480</ele>
        <time>2014-08-30T11:42:03Z</time>
      </trkpt>
      <trkpt lat="43.86901" lon="7.22673">
        <ele>480</ele>
        <time>2014-08-30T11:42:06Z</time>
      </trkpt>
      <trkpt lat="43.86899" lon="7.22676">
        <ele>481</ele>
        <time>2014-08-30T11:42:09Z</time>
      </trkpt>
      <trkpt lat="43.86897" lon="7.22679">
        <ele>482</ele>
        <time>2014-08-30T11:42:12Z</time>
      </trkpt>
      <trkpt lat="43.86894" lon="7.22682">
        <ele>482</ele>
        <time>2014-08-30T11:42:15Z</time>
      </trkpt>
      <trkpt lat="43.86891" lon="7.22684">
        <ele>482</ele>
        <time>2014-08-30T11:42:18Z</time>
      </trkpt>
      <trkpt lat="43.86887" lon="7.22686">
        <ele>482</ele>
        <time>2014-08-30T11:42:21Z</time>
      </trkpt>
      <trkpt lat="43.86884" lon="7.22687">
        <ele>482</ele>
        <time>2014-08-30T11:42:24Z</time>
      </trkpt>
      <trkpt lat="43.8688" lon="7.22689">
        <ele>484</ele>
        <time>2014-08-30T11:42:27Z</time>
      </trkpt>
      <trkpt lat="43.86877" lon="7.22692">
        <ele>484</ele>
        <time>2014-08-30T11:42:30Z</time>
      </trkpt>
      <trkpt lat="43.86874" lon="7.22695">
        <ele>484</ele>
        <time>2014-08-30T11:42:33Z</time>
      </trkpt>
      <trkpt lat="43.8687" lon="7.22697">
        <ele>484</ele>
        <time>2014-08-30T11:42:36Z</time>
      </trkpt>
      <trkpt lat="43.86866" lon="7.227">
        <ele>484</ele>
        <time>2014-08-30T11:42:39Z</time>
      </trkpt>
      <trkpt lat="43.86863" lon="7.22703">
        <ele>485</ele>
        <time>2014-08-30T11:42:42Z</time>
      </trkpt>
      <trkpt lat="43.86859" lon="7.22707">
        <ele>486</ele>
        <time>2014-08-30T11:42:45Z</time>
      </trkpt>
      <trkpt lat="43.86857" lon="7.22712">
        <ele>486</ele>
        <time>2014-08-30T11:42:48Z</time>
      </trkpt>
      <trkpt lat="43.86855" lon="7.22717">
        <ele>486</ele>
        <time>2014-08-30T11:42:51Z</time>
      </trkpt>
      <trkpt lat="43.86856" lon="7.22722">
        <ele>487</ele>
        <time>2014-08-30T11:42:54Z</time>
      </trkpt>
      <trkpt lat="43.86857" lon="7.22728">
        <ele>488</ele>
        <time>2014-08-30T11:42:57Z</time>
      </trkpt>
      <trkpt lat="43.86858" lon="7.22735">
        <ele>488</ele>
        <time>2014-08-30T11:43:00Z</time>
      </trkpt>
      <trkpt lat="43.86858" lon="7.22741">
        <ele>488</ele>
        <time>2014-08-30T11:43:03Z</time>
      </trkpt>
      <trkpt lat="43.86856" lon="7.22746">
        <ele>488</ele>
        <time>2014-08-30T11:43:06Z</time>
      </trkpt>
      <trkpt lat="43.86853" lon="7.22749">
        <ele>489</ele>
        <time>2014-08-30T11:43:09Z</time>
      </trkpt>
      <trkpt lat="43.8685" lon="7.22752">
        <ele>490</ele>
        <time>2014-08-30T11:43:12Z</time>
      </trkpt>
      <trkpt lat="43.86846" lon="7.22753">
        <ele>490</ele>
        <time>2014-08-30T11:43:15Z</time>
      </trkpt>
      <trkpt lat="43.86843" lon="7.22754">
        <ele>490</ele>
        <time>2014-08-30T11:43:18Z</time>
      </trkpt>
      <trkpt lat="43.86839" lon="7.22756">
        <ele>491</ele>
        <time>2014-08-30T11:43:21Z</time>
      </trkpt>
      <trkpt lat="43.86836" lon="7.22758">
        <ele>493</ele>
        <time>2014-08-30T11:43:24Z</time>
      </trkpt>
      <trkpt lat="43.86833" lon="7.22761">
        <ele>493</ele>
        <time>2014-08-30T11:43:27Z</time>
      </trkpt>
      <trkpt lat="43.8683" lon="7.22764">
        <ele>493</ele>
        <time>2014-08-30T11:43:30Z</time>
      </trkpt>
      <trkpt lat="43.86828" lon="7.22766">
        <ele>495</ele>
        <time>2014-08-30T11:43:33Z</time>
      </trkpt>
      <trkpt lat="43.86825" lon="7.2277">
        <ele>495</ele>
        <time>2014-08-30T11:43:36Z</time>
      </trkpt>
      <trkpt lat="43.86824" lon="7.22773">
        <ele>495</ele>
        <time>2014-08-30T11:43:39Z</time>
      </trkpt>
      <trkpt lat="43.86823" lon="7.22776">
        <ele>496</ele>
        <time>2014-08-30T11:43:42Z</time>
      </trkpt>
      <trkpt lat="43.86822" lon="7.22781">
        <ele>497</ele>
        <time>2014-08-30T11:43:57Z</time>
      </trkpt>
      <trkpt lat="43.86819" lon="7.22786">
        <ele>497</ele>
        <time>2014-08-30T11:44:00Z</time>
      </trkpt>
      <trkpt lat="43.86818" lon="7.22792">
        <ele>497</ele>
        <time>2014-08-30T11:44:03Z</time>
      </trkpt>
      <trkpt lat="43.86817" lon="7.22796">
        <ele>497</ele>
        <time>2014-08-30T11:44:06Z</time>
      </trkpt>
      <trkpt lat="43.86816" lon="7.22799">
        <ele>497</ele>
        <time>2014-08-30T11:44:09Z</time>
      </trkpt>
      <trkpt lat="43.86813" lon="7.22805">
        <ele>497</ele>
        <time>2014-08-30T11:44:12Z</time>
      </trkpt>
      <trkpt lat="43.8681" lon="7.22812">
        <ele>498</ele>
        <time>2014-08-30T11:44:15Z</time>
      </trkpt>
      <trkpt lat="43.86804" lon="7.2282">
        <ele>500</ele>
        <time>2014-08-30T11:44:18Z</time>
      </trkpt>
      <trkpt lat="43.86799" lon="7.22824">
        <ele>501</ele>
        <time>2014-08-30T11:44:21Z</time>
      </trkpt>
      <trkpt lat="43.86796" lon="7.22827">
        <ele>501</ele>
        <time>2014-08-30T11:44:24Z</time>
      </trkpt>
      <trkpt lat="43.86792" lon="7.22828">
        <ele>501</ele>
        <time>2014-08-30T11:44:27Z</time>
      </trkpt>
      <trkpt lat="43.86789" lon="7.22829">
        <ele>502</ele>
        <time>2014-08-30T11:44:30Z</time>
      </trkpt>
      <trkpt lat="43.86785" lon="7.22831">
        <ele>504</ele>
        <time>2014-08-30T11:44:33Z</time>
      </trkpt>
      <trkpt lat="43.86782" lon="7.22834">
        <ele>504</ele>
        <time>2014-08-30T11:44:36Z</time>
      </trkpt>
      <trkpt lat="43.86778" lon="7.22833">
        <ele>504</ele>
        <time>2014-08-30T11:44:39Z</time>
      </trkpt>
      <trkpt lat="43.86775" lon="7.22831">
        <ele>505</ele>
        <time>2014-08-30T11:44:42Z</time>
      </trkpt>
      <trkpt lat="43.86773" lon="7.22828">
        <ele>506</ele>
        <time>2014-08-30T11:44:45Z</time>
      </trkpt>
      <trkpt lat="43.86772" lon="7.22826">
        <ele>506</ele>
        <time>2014-08-30T11:44:48Z</time>
      </trkpt>
      <trkpt lat="43.86771" lon="7.22825">
        <ele>506</ele>
        <time>2014-08-30T11:44:51Z</time>
      </trkpt>
      <trkpt lat="43.86771" lon="7.22826">
        <ele>506</ele>
        <time>2014-08-30T11:44:54Z</time>
      </trkpt>
      <trkpt lat="43.86772" lon="7.22826">
        <ele>506</ele>
        <time>2014-08-30T11:45:00Z</time>
      </trkpt>
      <trkpt lat="43.8677" lon="7.22827">
        <ele>506</ele>
        <time>2014-08-30T11:45:03Z</time>
      </trkpt>
      <trkpt lat="43.86766" lon="7.22829">
        <ele>506</ele>
        <time>2014-08-30T11:45:06Z</time>
      </trkpt>
      <trkpt lat="43.86759" lon="7.2283">
        <ele>506</ele>
        <time>2014-08-30T11:45:09Z</time>
      </trkpt>
      <trkpt lat="43.86751" lon="7.22832">
        <ele>508</ele>
        <time>2014-08-30T11:45:12Z</time>
      </trkpt>
      <trkpt lat="43.86744" lon="7.22835">
        <ele>508</ele>
        <time>2014-08-30T11:45:15Z</time>
      </trkpt>
      <trkpt lat="43.8674" lon="7.22838">
        <ele>508</ele>
        <time>2014-08-30T11:45:18Z</time>
      </trkpt>
      <trkpt lat="43.86736" lon="7.22841">
        <ele>509</ele>
        <time>2014-08-30T11:45:21Z</time>
      </trkpt>
      <trkpt lat="43.86731" lon="7.22845">
        <ele>510</ele>
        <time>2014-08-30T11:45:24Z</time>
      </trkpt>
      <trkpt lat="43.86726" lon="7.22849">
        <ele>510</ele>
        <time>2014-08-30T11:45:27Z</time>
      </trkpt>
      <trkpt lat="43.8672" lon="7.22852">
        <ele>511</ele>
        <time>2014-08-30T11:45:30Z</time>
      </trkpt>
      <trkpt lat="43.86713" lon="7.22854">
        <ele>512</ele>
        <time>2014-08-30T11:45:33Z</time>
      </trkpt>
      <trkpt lat="43.86707" lon="7.2285">
        <ele>513</ele>
        <time>2014-08-30T11:45:36Z</time>
      </trkpt>
      <trkpt lat="43.86702" lon="7.2284">
        <ele>514</ele>
        <time>2014-08-30T11:45:39Z</time>
      </trkpt>
      <trkpt lat="43.86696" lon="7.22832">
        <ele>514</ele>
        <time>2014-08-30T11:45:42Z</time>
      </trkpt>
      <trkpt lat="43.86691" lon="7.22825">
        <ele>514</ele>
        <time>2014-08-30T11:45:45Z</time>
      </trkpt>
      <trkpt lat="43.86684" lon="7.2282">
        <ele>514</ele>
        <time>2014-08-30T11:45:48Z</time>
      </trkpt>
      <trkpt lat="43.86676" lon="7.22824">
        <ele>514</ele>
        <time>2014-08-30T11:45:51Z</time>
      </trkpt>
      <trkpt lat="43.86667" lon="7.22829">
        <ele>514</ele>
        <time>2014-08-30T11:45:54Z</time>
      </trkpt>
      <trkpt lat="43.86659" lon="7.22836">
        <ele>514</ele>
        <time>2014-08-30T11:45:57Z</time>
      </trkpt>
      <trkpt lat="43.86652" lon="7.22839">
        <ele>514</ele>
        <time>2014-08-30T11:46:00Z</time>
      </trkpt>
      <trkpt lat="43.86646" lon="7.22842">
        <ele>514</ele>
        <time>2014-08-30T11:46:03Z</time>
      </trkpt>
      <trkpt lat="43.86642" lon="7.22845">
        <ele>516</ele>
        <time>2014-08-30T11:46:06Z</time>
      </trkpt>
      <trkpt lat="43.86638" lon="7.22851">
        <ele>516</ele>
        <time>2014-08-30T11:46:09Z</time>
      </trkpt>
      <trkpt lat="43.86633" lon="7.22855">
        <ele>518</ele>
        <time>2014-08-30T11:46:12Z</time>
      </trkpt>
      <trkpt lat="43.86628" lon="7.22857">
        <ele>518</ele>
        <time>2014-08-30T11:46:15Z</time>
      </trkpt>
      <trkpt lat="43.86624" lon="7.2286">
        <ele>519</ele>
        <time>2014-08-30T11:46:18Z</time>
      </trkpt>
      <trkpt lat="43.86621" lon="7.22864">
        <ele>521</ele>
        <time>2014-08-30T11:46:21Z</time>
      </trkpt>
      <trkpt lat="43.86619" lon="7.22867">
        <ele>521</ele>
        <time>2014-08-30T11:46:24Z</time>
      </trkpt>
      <trkpt lat="43.86618" lon="7.22869">
        <ele>521</ele>
        <time>2014-08-30T11:46:27Z</time>
      </trkpt>
      <trkpt lat="43.86617" lon="7.2287">
        <ele>523</ele>
        <time>2014-08-30T11:46:30Z</time>
      </trkpt>
      <trkpt lat="43.86613" lon="7.2287">
        <ele>523</ele>
        <time>2014-08-30T11:46:33Z</time>
      </trkpt>
      <trkpt lat="43.86607" lon="7.22869">
        <ele>523</ele>
        <time>2014-08-30T11:46:36Z</time>
      </trkpt>
      <trkpt lat="43.86601" lon="7.22866">
        <ele>523</ele>
        <time>2014-08-30T11:46:39Z</time>
      </trkpt>
      <trkpt lat="43.86601" lon="7.22857">
        <ele>523</ele>
        <time>2014-08-30T11:46:42Z</time>
      </trkpt>
      <trkpt lat="43.86604" lon="7.22846">
        <ele>523</ele>
        <time>2014-08-30T11:46:45Z</time>
      </trkpt>
      <trkpt lat="43.86609" lon="7.22835">
        <ele>523</ele>
        <time>2014-08-30T11:46:48Z</time>
      </trkpt>
      <trkpt lat="43.86614" lon="7.22825">
        <ele>523</ele>
        <time>2014-08-30T11:46:51Z</time>
      </trkpt>
      <trkpt lat="43.86619" lon="7.22815">
        <ele>523</ele>
        <time>2014-08-30T11:46:54Z</time>
      </trkpt>
      <trkpt lat="43.86626" lon="7.22803">
        <ele>524</ele>
        <time>2014-08-30T11:46:57Z</time>
      </trkpt>
      <trkpt lat="43.86631" lon="7.22793">
        <ele>525</ele>
        <time>2014-08-30T11:47:00Z</time>
      </trkpt>
      <trkpt lat="43.86637" lon="7.22783">
        <ele>525</ele>
        <time>2014-08-30T11:47:03Z</time>
      </trkpt>
      <trkpt lat="43.86642" lon="7.22774">
        <ele>525</ele>
        <time>2014-08-30T11:47:06Z</time>
      </trkpt>
      <trkpt lat="43.8665" lon="7.22763">
        <ele>525</ele>
        <time>2014-08-30T11:47:09Z</time>
      </trkpt>
      <trkpt lat="43.8666" lon="7.2275">
        <ele>526</ele>
        <time>2014-08-30T11:47:12Z</time>
      </trkpt>
      <trkpt lat="43.86669" lon="7.22736">
        <ele>527</ele>
        <time>2014-08-30T11:47:15Z</time>
      </trkpt>
      <trkpt lat="43.86678" lon="7.22725">
        <ele>527</ele>
        <time>2014-08-30T11:47:18Z</time>
      </trkpt>
      <trkpt lat="43.86685" lon="7.22713">
        <ele>527</ele>
        <time>2014-08-30T11:47:21Z</time>
      </trkpt>
      <trkpt lat="43.86691" lon="7.22699">
        <ele>527</ele>
        <time>2014-08-30T11:47:24Z</time>
      </trkpt>
      <trkpt lat="43.86693" lon="7.22684">
        <ele>527</ele>
        <time>2014-08-30T11:47:27Z</time>
      </trkpt>
      <trkpt lat="43.86687" lon="7.22667">
        <ele>527</ele>
        <time>2014-08-30T11:47:30Z</time>
      </trkpt>
      <trkpt lat="43.86675" lon="7.22659">
        <ele>527</ele>
        <time>2014-08-30T11:47:33Z</time>
      </trkpt>
      <trkpt lat="43.86661" lon="7.22658">
        <ele>528</ele>
        <time>2014-08-30T11:47:36Z</time>
      </trkpt>
      <trkpt lat="43.86647" lon="7.22661">
        <ele>529</ele>
        <time>2014-08-30T11:47:39Z</time>
      </trkpt>
      <trkpt lat="43.86634" lon="7.22668">
        <ele>529</ele>
        <time>2014-08-30T11:47:42Z</time>
      </trkpt>
      <trkpt lat="43.86616" lon="7.2268">
        <ele>529</ele>
        <time>2014-08-30T11:47:45Z</time>
      </trkpt>
      <trkpt lat="43.86603" lon="7.22689">
        <ele>529</ele>
        <time>2014-08-30T11:47:48Z</time>
      </trkpt>
      <trkpt lat="43.86591" lon="7.22699">
        <ele>529</ele>
        <time>2014-08-30T11:47:51Z</time>
      </trkpt>
      <trkpt lat="43.8658" lon="7.2271">
        <ele>529</ele>
        <time>2014-08-30T11:47:54Z</time>
      </trkpt>
      <trkpt lat="43.86565" lon="7.22715">
        <ele>529</ele>
        <time>2014-08-30T11:47:57Z</time>
      </trkpt>
      <trkpt lat="43.8655" lon="7.22716">
        <ele>529</ele>
        <time>2014-08-30T11:48:00Z</time>
      </trkpt>
      <trkpt lat="43.86536" lon="7.22713">
        <ele>529</ele>
        <time>2014-08-30T11:48:03Z</time>
      </trkpt>
      <trkpt lat="43.86521" lon="7.22713">
        <ele>528</ele>
        <time>2014-08-30T11:48:06Z</time>
      </trkpt>
      <trkpt lat="43.86507" lon="7.22719">
        <ele>527</ele>
        <time>2014-08-30T11:48:09Z</time>
      </trkpt>
      <trkpt lat="43.86492" lon="7.2272">
        <ele>527</ele>
        <time>2014-08-30T11:48:12Z</time>
      </trkpt>
      <trkpt lat="43.86475" lon="7.22723">
        <ele>527</ele>
        <time>2014-08-30T11:48:15Z</time>
      </trkpt>
      <trkpt lat="43.86458" lon="7.22727">
        <ele>527</ele>
        <time>2014-08-30T11:48:18Z</time>
      </trkpt>
      <trkpt lat="43.8644" lon="7.22728">
        <ele>527</ele>
        <time>2014-08-30T11:48:21Z</time>
      </trkpt>
      <trkpt lat="43.86424" lon="7.22731">
        <ele>527</ele>
        <time>2014-08-30T11:48:24Z</time>
      </trkpt>
      <trkpt lat="43.86409" lon="7.22732">
        <ele>526</ele>
        <time>2014-08-30T11:48:27Z</time>
      </trkpt>
      <trkpt lat="43.86393" lon="7.22737">
        <ele>524</ele>
        <time>2014-08-30T11:48:30Z</time>
      </trkpt>
      <trkpt lat="43.86374" lon="7.22743">
        <ele>524</ele>
        <time>2014-08-30T11:48:33Z</time>
      </trkpt>
      <trkpt lat="43.86355" lon="7.2275">
        <ele>524</ele>
        <time>2014-08-30T11:48:36Z</time>
      </trkpt>
      <trkpt lat="43.86333" lon="7.22759">
        <ele>524</ele>
        <time>2014-08-30T11:48:39Z</time>
      </trkpt>
      <trkpt lat="43.86313" lon="7.22779">
        <ele>524</ele>
        <time>2014-08-30T11:48:42Z</time>
      </trkpt>
      <trkpt lat="43.86296" lon="7.22801">
        <ele>524</ele>
        <time>2014-08-30T11:48:45Z</time>
      </trkpt>
      <trkpt lat="43.8628" lon="7.22821">
        <ele>524</ele>
        <time>2014-08-30T11:48:48Z</time>
      </trkpt>
      <trkpt lat="43.86263" lon="7.2284">
        <ele>522</ele>
        <time>2014-08-30T11:48:51Z</time>
      </trkpt>
      <trkpt lat="43.86247" lon="7.22856">
        <ele>522</ele>
        <time>2014-08-30T11:48:54Z</time>
      </trkpt>
      <trkpt lat="43.86231" lon="7.22871">
        <ele>522</ele>
        <time>2014-08-30T11:48:57Z</time>
      </trkpt>
      <trkpt lat="43.86215" lon="7.22886">
        <ele>522</ele>
        <time>2014-08-30T11:49:00Z</time>
      </trkpt>
      <trkpt lat="43.862" lon="7.229">
        <ele>522</ele>
        <time>2014-08-30T11:49:03Z</time>
      </trkpt>
      <trkpt lat="43.86184" lon="7.22906">
        <ele>522</ele>
        <time>2014-08-30T11:49:06Z</time>
      </trkpt>
      <trkpt lat="43.86167" lon="7.22906">
        <ele>522</ele>
        <time>2014-08-30T11:49:09Z</time>
      </trkpt>
      <trkpt lat="43.86149" lon="7.22906">
        <ele>522</ele>
        <time>2014-08-30T11:49:12Z</time>
      </trkpt>
      <trkpt lat="43.86133" lon="7.22905">
        <ele>522</ele>
        <time>2014-08-30T11:49:15Z</time>
      </trkpt>
      <trkpt lat="43.86118" lon="7.22905">
        <ele>523</ele>
        <time>2014-08-30T11:49:18Z</time>
      </trkpt>
      <trkpt lat="43.86107" lon="7.22905">
        <ele>524</ele>
        <time>2014-08-30T11:49:21Z</time>
      </trkpt>
      <trkpt lat="43.8609" lon="7.22905">
        <ele>525</ele>
        <time>2014-08-30T11:49:24Z</time>
      </trkpt>
      <trkpt lat="43.86075" lon="7.22904">
        <ele>525</ele>
        <time>2014-08-30T11:49:27Z</time>
      </trkpt>
      <trkpt lat="43.86063" lon="7.22903">
        <ele>525</ele>
        <time>2014-08-30T11:49:30Z</time>
      </trkpt>
      <trkpt lat="43.86053" lon="7.22902">
        <ele>525</ele>
        <time>2014-08-30T11:49:33Z</time>
      </trkpt>
      <trkpt lat="43.86042" lon="7.22901">
        <ele>527</ele>
        <time>2014-08-30T11:49:36Z</time>
      </trkpt>
      <trkpt lat="43.8603" lon="7.22901">
        <ele>527</ele>
        <time>2014-08-30T11:49:39Z</time>
      </trkpt>
      <trkpt lat="43.86023" lon="7.22903">
        <ele>527</ele>
        <time>2014-08-30T11:49:42Z</time>
      </trkpt>
      <trkpt lat="43.8602" lon="7.22909">
        <ele>529</ele>
        <time>2014-08-30T11:49:45Z</time>
      </trkpt>
      <trkpt lat="43.86019" lon="7.2291">
        <ele>529</ele>
        <time>2014-08-30T11:49:48Z</time>
      </trkpt>
      <trkpt lat="43.86019" lon="7.22909">
        <ele>529</ele>
        <time>2014-08-30T11:49:51Z</time>
      </trkpt>
      <trkpt lat="43.86019" lon="7.22908">
        <ele>529</ele>
        <time>2014-08-30T11:49:54Z</time>
      </trkpt>
      <trkpt lat="43.86019" lon="7.22907">
        <ele>529</ele>
        <time>2014-08-30T11:49:57Z</time>
      </trkpt>
      <trkpt lat="43.86019" lon="7.22906">
        <ele>529</ele>
        <time>2014-08-30T11:50:03Z</time>
      </trkpt>
      <trkpt lat="43.86018" lon="7.22906">
        <ele>529</ele>
        <time>2014-08-30T11:50:06Z</time>
      </trkpt>
      <trkpt lat="43.86018" lon="7.22905">
        <ele>529</ele>
        <time>2014-08-30T11:50:12Z</time>
      </trkpt>
      <trkpt lat="43.86017" lon="7.22904">
        <ele>529</ele>
        <time>2014-08-30T11:50:15Z</time>
      </trkpt>
      <trkpt lat="43.86018" lon="7.22905">
        <ele>529</ele>
        <time>2014-08-30T11:50:27Z</time>
      </trkpt>
      <trkpt lat="43.86018" lon="7.22904">
        <ele>529</ele>
        <time>2014-08-30T11:50:33Z</time>
      </trkpt>
      <trkpt lat="43.86017" lon="7.22904">
        <ele>529</ele>
        <time>2014-08-30T11:50:36Z</time>
      </trkpt>
      <trkpt lat="43.86017" lon="7.22903">
        <ele>529</ele>
        <time>2014-08-30T11:50:42Z</time>
      </trkpt>
      <trkpt lat="43.86017" lon="7.22902">
        <ele>529</ele>
        <time>2014-08-30T11:50:54Z</time>
      </trkpt>
      <trkpt lat="43.86016" lon="7.22902">
        <ele>529</ele>
        <time>2014-08-30T11:50:57Z</time>
      </trkpt>
      <trkpt lat="43.86015" lon="7.22901">
        <ele>529</ele>
        <time>2014-08-30T11:51:06Z</time>
      </trkpt>
      <trkpt lat="43.86015" lon="7.229">
        <ele>529</ele>
        <time>2014-08-30T11:51:12Z</time>
      </trkpt>
      <trkpt lat="43.86014" lon="7.22901">
        <ele>529</ele>
        <time>2014-08-30T11:51:15Z</time>
      </trkpt>
      <trkpt lat="43.86013" lon="7.22901">
        <ele>529</ele>
        <time>2014-08-30T11:51:21Z</time>
      </trkpt>
      <trkpt lat="43.86013" lon="7.229">
        <ele>529</ele>
        <time>2014-08-30T11:51:24Z</time>
      </trkpt>
      <trkpt lat="43.86013" lon="7.22899">
        <ele>529</ele>
        <time>2014-08-30T11:51:27Z</time>
      </trkpt>
      <trkpt lat="43.86012" lon="7.22898">
        <ele>529</ele>
        <time>2014-08-30T11:51:30Z</time>
      </trkpt>
      <trkpt lat="43.86012" lon="7.22897">
        <ele>529</ele>
        <time>2014-08-30T11:51:33Z</time>
      </trkpt>
      <trkpt lat="43.86011" lon="7.22896">
        <ele>530</ele>
        <time>2014-08-30T11:51:36Z</time>
      </trkpt>
      <trkpt lat="43.8601" lon="7.22894">
        <ele>531</ele>
        <time>2014-08-30T11:51:39Z</time>
      </trkpt>
      <trkpt lat="43.86009" lon="7.22894">
        <ele>531</ele>
        <time>2014-08-30T11:51:48Z</time>
      </trkpt>
      <trkpt lat="43.8601" lon="7.22894">
        <ele>531</ele>
        <time>2014-08-30T11:51:51Z</time>
      </trkpt>
      <trkpt lat="43.8601" lon="7.22895">
        <ele>531</ele>
        <time>2014-08-30T11:51:54Z</time>
      </trkpt>
      <trkpt lat="43.86009" lon="7.22894">
        <ele>531</ele>
        <time>2014-08-30T11:51:57Z</time>
      </trkpt>
      <trkpt lat="43.86009" lon="7.22893">
        <ele>531</ele>
        <time>2014-08-30T11:52:00Z</time>
      </trkpt>
      <trkpt lat="43.86009" lon="7.22892">
        <ele>531</ele>
        <time>2014-08-30T11:52:03Z</time>
      </trkpt>
      <trkpt lat="43.86008" lon="7.22891">
        <ele>531</ele>
        <time>2014-08-30T11:52:06Z</time>
      </trkpt>
      <trkpt lat="43.86008" lon="7.2289">
        <ele>531</ele>
        <time>2014-08-30T11:52:09Z</time>
      </trkpt>
      <trkpt lat="43.86008" lon="7.22889">
        <ele>531</ele>
        <time>2014-08-30T11:52:15Z</time>
      </trkpt>
      <trkpt lat="43.86007" lon="7.22889">
        <ele>531</ele>
        <time>2014-08-30T11:52:18Z</time>
      </trkpt>
      <trkpt lat="43.86007" lon="7.22888">
        <ele>531</ele>
        <time>2014-08-30T11:52:21Z</time>
      </trkpt>
      <trkpt lat="43.86007" lon="7.22887">
        <ele>531</ele>
        <time>2014-08-30T11:52:24Z</time>
      </trkpt>
      <trkpt lat="43.86007" lon="7.22888">
        <ele>531</ele>
        <time>2014-08-30T11:52:27Z</time>
      </trkpt>
      <trkpt lat="43.86007" lon="7.22889">
        <ele>531</ele>
        <time>2014-08-30T11:52:30Z</time>
      </trkpt>
      <trkpt lat="43.86007" lon="7.2289">
        <ele>531</ele>
        <time>2014-08-30T11:52:36Z</time>
      </trkpt>
      <trkpt lat="43.86007" lon="7.22891">
        <ele>531</ele>
        <time>2014-08-30T11:52:57Z</time>
      </trkpt>
      <trkpt lat="43.86007" lon="7.22892">
        <ele>531</ele>
        <time>2014-08-30T11:53:00Z</time>
      </trkpt>
      <trkpt lat="43.8601" lon="7.22892">
        <ele>531</ele>
        <time>2014-08-30T11:53:03Z</time>
      </trkpt>
      <trkpt lat="43.86006" lon="7.22891">
        <ele>531</ele>
        <time>2014-08-30T11:53:06Z</time>
      </trkpt>
      <trkpt lat="43.85997" lon="7.22898">
        <ele>531</ele>
        <time>2014-08-30T11:53:09Z</time>
      </trkpt>
      <trkpt lat="43.85986" lon="7.22907">
        <ele>531</ele>
        <time>2014-08-30T11:53:12Z</time>
      </trkpt>
      <trkpt lat="43.85975" lon="7.22922">
        <ele>531</ele>
        <time>2014-08-30T11:53:15Z</time>
      </trkpt>
      <trkpt lat="43.85964" lon="7.2294">
        <ele>531</ele>
        <time>2014-08-30T11:53:18Z</time>
      </trkpt>
      <trkpt lat="43.85954" lon="7.22959">
        <ele>531</ele>
        <time>2014-08-30T11:53:21Z</time>
      </trkpt>
      <trkpt lat="43.85942" lon="7.22977">
        <ele>531</ele>
        <time>2014-08-30T11:53:24Z</time>
      </trkpt>
      <trkpt lat="43.85928" lon="7.22995">
        <ele>531</ele>
        <time>2014-08-30T11:53:27Z</time>
      </trkpt>
      <trkpt lat="43.85915" lon="7.2301">
        <ele>530</ele>
        <time>2014-08-30T11:53:30Z</time>
      </trkpt>
      <trkpt lat="43.859" lon="7.23023">
        <ele>529</ele>
        <time>2014-08-30T11:53:33Z</time>
      </trkpt>
      <trkpt lat="43.85881" lon="7.2303">
        <ele>529</ele>
        <time>2014-08-30T11:53:36Z</time>
      </trkpt>
      <trkpt lat="43.85864" lon="7.23029">
        <ele>529</ele>
        <time>2014-08-30T11:53:39Z</time>
      </trkpt>
      <trkpt lat="43.85843" lon="7.23034">
        <ele>529</ele>
        <time>2014-08-30T11:53:42Z</time>
      </trkpt>
      <trkpt lat="43.85826" lon="7.23032">
        <ele>529</ele>
        <time>2014-08-30T11:53:45Z</time>
      </trkpt>
      <trkpt lat="43.85808" lon="7.23033">
        <ele>529</ele>
        <time>2014-08-30T11:53:48Z</time>
      </trkpt>
      <trkpt lat="43.8579" lon="7.23031">
        <ele>529</ele>
        <time>2014-08-30T11:53:51Z</time>
      </trkpt>
      <trkpt lat="43.85774" lon="7.23028">
        <ele>529</ele>
        <time>2014-08-30T11:53:54Z</time>
      </trkpt>
      <trkpt lat="43.85757" lon="7.23033">
        <ele>529</ele>
        <time>2014-08-30T11:53:57Z</time>
      </trkpt>
      <trkpt lat="43.8574" lon="7.23043">
        <ele>529</ele>
        <time>2014-08-30T11:54:00Z</time>
      </trkpt>
      <trkpt lat="43.85725" lon="7.23055">
        <ele>529</ele>
        <time>2014-08-30T11:54:03Z</time>
      </trkpt>
      <trkpt lat="43.85709" lon="7.23068">
        <ele>529</ele>
        <time>2014-08-30T11:54:06Z</time>
      </trkpt>
      <trkpt lat="43.85695" lon="7.23082">
        <ele>529</ele>
        <time>2014-08-30T11:54:09Z</time>
      </trkpt>
      <trkpt lat="43.85682" lon="7.23098">
        <ele>529</ele>
        <time>2014-08-30T11:54:12Z</time>
      </trkpt>
      <trkpt lat="43.85668" lon="7.23109">
        <ele>529</ele>
        <time>2014-08-30T11:54:15Z</time>
      </trkpt>
      <trkpt lat="43.8565" lon="7.23114">
        <ele>529</ele>
        <time>2014-08-30T11:54:18Z</time>
      </trkpt>
      <trkpt lat="43.85633" lon="7.23114">
        <ele>529</ele>
        <time>2014-08-30T11:54:21Z</time>
      </trkpt>
      <trkpt lat="43.85616" lon="7.23115">
        <ele>529</ele>
        <time>2014-08-30T11:54:24Z</time>
      </trkpt>
      <trkpt lat="43.85601" lon="7.23118">
        <ele>529</ele>
        <time>2014-08-30T11:54:27Z</time>
      </trkpt>
      <trkpt lat="43.85586" lon="7.2313">
        <ele>530</ele>
        <time>2014-08-30T11:54:30Z</time>
      </trkpt>
      <trkpt lat="43.85572" lon="7.23142">
        <ele>531</ele>
        <time>2014-08-30T11:54:33Z</time>
      </trkpt>
      <trkpt lat="43.85558" lon="7.23152">
        <ele>531</ele>
        <time>2014-08-30T11:54:36Z</time>
      </trkpt>
      <trkpt lat="43.85544" lon="7.23161">
        <ele>531</ele>
        <time>2014-08-30T11:54:39Z</time>
      </trkpt>
      <trkpt lat="43.85529" lon="7.23171">
        <ele>531</ele>
        <time>2014-08-30T11:54:42Z</time>
      </trkpt>
      <trkpt lat="43.85513" lon="7.23184">
        <ele>531</ele>
        <time>2014-08-30T11:54:45Z</time>
      </trkpt>
      <trkpt lat="43.85497" lon="7.23195">
        <ele>531</ele>
        <time>2014-08-30T11:54:48Z</time>
      </trkpt>
      <trkpt lat="43.85483" lon="7.23203">
        <ele>531</ele>
        <time>2014-08-30T11:54:51Z</time>
      </trkpt>
      <trkpt lat="43.8547" lon="7.23213">
        <ele>531</ele>
        <time>2014-08-30T11:54:54Z</time>
      </trkpt>
      <trkpt lat="43.85455" lon="7.23224">
        <ele>531</ele>
        <time>2014-08-30T11:54:57Z</time>
      </trkpt>
      <trkpt lat="43.8544" lon="7.23234">
        <ele>531</ele>
        <time>2014-08-30T11:55:00Z</time>
      </trkpt>
      <trkpt lat="43.85423" lon="7.23243">
        <ele>531</ele>
        <time>2014-08-30T11:55:03Z</time>
      </trkpt>
      <trkpt lat="43.85406" lon="7.23255">
        <ele>531</ele>
        <time>2014-08-30T11:55:06Z</time>
      </trkpt>
      <trkpt lat="43.85394" lon="7.23267">
        <ele>531</ele>
        <time>2014-08-30T11:55:09Z</time>
      </trkpt>
      <trkpt lat="43.85381" lon="7.23283">
        <ele>531</ele>
        <time>2014-08-30T11:55:12Z</time>
      </trkpt>
      <trkpt lat="43.85367" lon="7.23302">
        <ele>531</ele>
        <time>2014-08-30T11:55:15Z</time>
      </trkpt>
      <trkpt lat="43.85355" lon="7.23321">
        <ele>531</ele>
        <time>2014-08-30T11:55:18Z</time>
      </trkpt>
      <trkpt lat="43.85345" lon="7.23341">
        <ele>531</ele>
        <time>2014-08-30T11:55:21Z</time>
      </trkpt>
      <trkpt lat="43.85331" lon="7.23358">
        <ele>531</ele>
        <time>2014-08-30T11:55:24Z</time>
      </trkpt>
      <trkpt lat="43.8532" lon="7.23375">
        <ele>531</ele>
        <time>2014-08-30T11:55:27Z</time>
      </trkpt>
      <trkpt lat="43.85307" lon="7.23393">
        <ele>533</ele>
        <time>2014-08-30T11:55:30Z</time>
      </trkpt>
      <trkpt lat="43.85294" lon="7.23411">
        <ele>533</ele>
        <time>2014-08-30T11:55:33Z</time>
      </trkpt>
      <trkpt lat="43.85279" lon="7.23423">
        <ele>533</ele>
        <time>2014-08-30T11:55:36Z</time>
      </trkpt>
      <trkpt lat="43.85262" lon="7.23431">
        <ele>533</ele>
        <time>2014-08-30T11:55:39Z</time>
      </trkpt>
      <trkpt lat="43.85248" lon="7.23442">
        <ele>533</ele>
        <time>2014-08-30T11:55:42Z</time>
      </trkpt>
      <trkpt lat="43.85235" lon="7.23452">
        <ele>535</ele>
        <time>2014-08-30T11:55:45Z</time>
      </trkpt>
      <trkpt lat="43.85226" lon="7.23461">
        <ele>535</ele>
        <time>2014-08-30T11:55:48Z</time>
      </trkpt>
      <trkpt lat="43.85221" lon="7.23472">
        <ele>537</ele>
        <time>2014-08-30T11:55:51Z</time>
      </trkpt>
      <trkpt lat="43.85217" lon="7.23484">
        <ele>537</ele>
        <time>2014-08-30T11:55:54Z</time>
      </trkpt>
      <trkpt lat="43.8521" lon="7.23496">
        <ele>537</ele>
        <time>2014-08-30T11:55:57Z</time>
      </trkpt>
      <trkpt lat="43.85204" lon="7.23507">
        <ele>539</ele>
        <time>2014-08-30T11:56:00Z</time>
      </trkpt>
      <trkpt lat="43.85202" lon="7.23517">
        <ele>540</ele>
        <time>2014-08-30T11:56:03Z</time>
      </trkpt>
      <trkpt lat="43.85196" lon="7.23528">
        <ele>540</ele>
        <time>2014-08-30T11:56:06Z</time>
      </trkpt>
      <trkpt lat="43.85188" lon="7.23541">
        <ele>540</ele>
        <time>2014-08-30T11:56:09Z</time>
      </trkpt>
      <trkpt lat="43.85178" lon="7.23557">
        <ele>541</ele>
        <time>2014-08-30T11:56:12Z</time>
      </trkpt>
      <trkpt lat="43.85168" lon="7.23569">
        <ele>542</ele>
        <time>2014-08-30T11:56:15Z</time>
      </trkpt>
      <trkpt lat="43.85159" lon="7.23576">
        <ele>543</ele>
        <time>2014-08-30T11:56:18Z</time>
      </trkpt>
      <trkpt lat="43.8515" lon="7.23583">
        <ele>544</ele>
        <time>2014-08-30T11:56:21Z</time>
      </trkpt>
      <trkpt lat="43.85141" lon="7.23586">
        <ele>544</ele>
        <time>2014-08-30T11:56:24Z</time>
      </trkpt>
      <trkpt lat="43.85132" lon="7.23589">
        <ele>545</ele>
        <time>2014-08-30T11:56:27Z</time>
      </trkpt>
      <trkpt lat="43.85121" lon="7.23594">
        <ele>546</ele>
        <time>2014-08-30T11:56:30Z</time>
      </trkpt>
      <trkpt lat="43.8511" lon="7.23599">
        <ele>546</ele>
        <time>2014-08-30T11:56:33Z</time>
      </trkpt>
      <trkpt lat="43.85099" lon="7.23607">
        <ele>547</ele>
        <time>2014-08-30T11:56:36Z</time>
      </trkpt>
      <trkpt lat="43.85089" lon="7.23614">
        <ele>548</ele>
        <time>2014-08-30T11:56:39Z</time>
      </trkpt>
      <trkpt lat="43.85079" lon="7.2362">
        <ele>548</ele>
        <time>2014-08-30T11:56:42Z</time>
      </trkpt>
      <trkpt lat="43.85069" lon="7.23627">
        <ele>549</ele>
        <time>2014-08-30T11:56:45Z</time>
      </trkpt>
      <trkpt lat="43.85061" lon="7.23633">
        <ele>550</ele>
        <time>2014-08-30T11:56:48Z</time>
      </trkpt>
      <trkpt lat="43.85056" lon="7.23636">
        <ele>550</ele>
        <time>2014-08-30T11:56:51Z</time>
      </trkpt>
      <trkpt lat="43.8505" lon="7.2364">
        <ele>550</ele>
        <time>2014-08-30T11:56:54Z</time>
      </trkpt>
      <trkpt lat="43.8504" lon="7.23648">
        <ele>552</ele>
        <time>2014-08-30T11:56:57Z</time>
      </trkpt>
      <trkpt lat="43.8503" lon="7.23656">
        <ele>552</ele>
        <time>2014-08-30T11:57:00Z</time>
      </trkpt>
      <trkpt lat="43.85021" lon="7.23663">
        <ele>553</ele>
        <time>2014-08-30T11:57:03Z</time>
      </trkpt>
      <trkpt lat="43.8501" lon="7.23672">
        <ele>555</ele>
        <time>2014-08-30T11:57:06Z</time>
      </trkpt>
      <trkpt lat="43.85001" lon="7.23678">
        <ele>555</ele>
        <time>2014-08-30T11:57:09Z</time>
      </trkpt>
      <trkpt lat="43.84991" lon="7.23685">
        <ele>555</ele>
        <time>2014-08-30T11:57:12Z</time>
      </trkpt>
      <trkpt lat="43.84981" lon="7.23692">
        <ele>556</ele>
        <time>2014-08-30T11:57:15Z</time>
      </trkpt>
      <trkpt lat="43.84968" lon="7.23701">
        <ele>557</ele>
        <time>2014-08-30T11:57:18Z</time>
      </trkpt>
      <trkpt lat="43.84956" lon="7.23712">
        <ele>557</ele>
        <time>2014-08-30T11:57:21Z</time>
      </trkpt>
      <trkpt lat="43.84941" lon="7.23726">
        <ele>557</ele>
        <time>2014-08-30T11:57:24Z</time>
      </trkpt>
      <trkpt lat="43.84927" lon="7.23738">
        <ele>557</ele>
        <time>2014-08-30T11:57:27Z</time>
      </trkpt>
      <trkpt lat="43.84915" lon="7.23746">
        <ele>557</ele>
        <time>2014-08-30T11:57:30Z</time>
      </trkpt>
      <trkpt lat="43.84903" lon="7.23756">
        <ele>557</ele>
        <time>2014-08-30T11:57:33Z</time>
      </trkpt>
      <trkpt lat="43.84888" lon="7.23769">
        <ele>557</ele>
        <time>2014-08-30T11:57:36Z</time>
      </trkpt>
      <trkpt lat="43.84873" lon="7.23781">
        <ele>557</ele>
        <time>2014-08-30T11:57:39Z</time>
      </trkpt>
      <trkpt lat="43.8486" lon="7.2379">
        <ele>557</ele>
        <time>2014-08-30T11:57:42Z</time>
      </trkpt>
      <trkpt lat="43.84848" lon="7.238">
        <ele>557</ele>
        <time>2014-08-30T11:57:45Z</time>
      </trkpt>
      <trkpt lat="43.84834" lon="7.23812">
        <ele>557</ele>
        <time>2014-08-30T11:57:48Z</time>
      </trkpt>
      <trkpt lat="43.84821" lon="7.23822">
        <ele>557</ele>
        <time>2014-08-30T11:57:51Z</time>
      </trkpt>
      <trkpt lat="43.84809" lon="7.23829">
        <ele>557</ele>
        <time>2014-08-30T11:57:54Z</time>
      </trkpt>
      <trkpt lat="43.84794" lon="7.23841">
        <ele>557</ele>
        <time>2014-08-30T11:57:57Z</time>
      </trkpt>
      <trkpt lat="43.8478" lon="7.23852">
        <ele>557</ele>
        <time>2014-08-30T11:58:00Z</time>
      </trkpt>
      <trkpt lat="43.84765" lon="7.23863">
        <ele>557</ele>
        <time>2014-08-30T11:58:03Z</time>
      </trkpt>
      <trkpt lat="43.84751" lon="7.23875">
        <ele>557</ele>
        <time>2014-08-30T11:58:06Z</time>
      </trkpt>
      <trkpt lat="43.84736" lon="7.23886">
        <ele>557</ele>
        <time>2014-08-30T11:58:09Z</time>
      </trkpt>
      <trkpt lat="43.8472" lon="7.23897">
        <ele>557</ele>
        <time>2014-08-30T11:58:12Z</time>
      </trkpt>
      <trkpt lat="43.84704" lon="7.23911">
        <ele>557</ele>
        <time>2014-08-30T11:58:15Z</time>
      </trkpt>
      <trkpt lat="43.84687" lon="7.23924">
        <ele>557</ele>
        <time>2014-08-30T11:58:18Z</time>
      </trkpt>
      <trkpt lat="43.84671" lon="7.23936">
        <ele>556</ele>
        <time>2014-08-30T11:58:21Z</time>
      </trkpt>
      <trkpt lat="43.84656" lon="7.23947">
        <ele>555</ele>
        <time>2014-08-30T11:58:24Z</time>
      </trkpt>
      <trkpt lat="43.8464" lon="7.23959">
        <ele>555</ele>
        <time>2014-08-30T11:58:27Z</time>
      </trkpt>
      <trkpt lat="43.84625" lon="7.23971">
        <ele>555</ele>
        <time>2014-08-30T11:58:30Z</time>
      </trkpt>
      <trkpt lat="43.84608" lon="7.23984">
        <ele>555</ele>
        <time>2014-08-30T11:58:33Z</time>
      </trkpt>
      <trkpt lat="43.8459" lon="7.23996">
        <ele>555</ele>
        <time>2014-08-30T11:58:36Z</time>
      </trkpt>
      <trkpt lat="43.84574" lon="7.24008">
        <ele>554</ele>
        <time>2014-08-30T11:58:39Z</time>
      </trkpt>
      <trkpt lat="43.84555" lon="7.24023">
        <ele>553</ele>
        <time>2014-08-30T11:58:42Z</time>
      </trkpt>
      <trkpt lat="43.84537" lon="7.24037">
        <ele>552</ele>
        <time>2014-08-30T11:58:45Z</time>
      </trkpt>
      <trkpt lat="43.84518" lon="7.24051">
        <ele>552</ele>
        <time>2014-08-30T11:58:48Z</time>
      </trkpt>
      <trkpt lat="43.84496" lon="7.24066">
        <ele>552</ele>
        <time>2014-08-30T11:58:51Z</time>
      </trkpt>
      <trkpt lat="43.84476" lon="7.24081">
        <ele>551</ele>
        <time>2014-08-30T11:58:54Z</time>
      </trkpt>
      <trkpt lat="43.84455" lon="7.24094">
        <ele>550</ele>
        <time>2014-08-30T11:58:57Z</time>
      </trkpt>
      <trkpt lat="43.84432" lon="7.24095">
        <ele>550</ele>
        <time>2014-08-30T11:59:00Z</time>
      </trkpt>
      <trkpt lat="43.84414" lon="7.24104">
        <ele>549</ele>
        <time>2014-08-30T11:59:03Z</time>
      </trkpt>
      <trkpt lat="43.84404" lon="7.24131">
        <ele>548</ele>
        <time>2014-08-30T11:59:06Z</time>
      </trkpt>
      <trkpt lat="43.84393" lon="7.24157">
        <ele>548</ele>
        <time>2014-08-30T11:59:09Z</time>
      </trkpt>
      <trkpt lat="43.8438" lon="7.24176">
        <ele>548</ele>
        <time>2014-08-30T11:59:12Z</time>
      </trkpt>
      <trkpt lat="43.84367" lon="7.24197">
        <ele>548</ele>
        <time>2014-08-30T11:59:15Z</time>
      </trkpt>
      <trkpt lat="43.84349" lon="7.24221">
        <ele>547</ele>
        <time>2014-08-30T11:59:18Z</time>
      </trkpt>
      <trkpt lat="43.84335" lon="7.24247">
        <ele>546</ele>
        <time>2014-08-30T11:59:21Z</time>
      </trkpt>
      <trkpt lat="43.84323" lon="7.24273">
        <ele>546</ele>
        <time>2014-08-30T11:59:24Z</time>
      </trkpt>
      <trkpt lat="43.84308" lon="7.24295">
        <ele>545</ele>
        <time>2014-08-30T11:59:27Z</time>
      </trkpt>
      <trkpt lat="43.84288" lon="7.24309">
        <ele>544</ele>
        <time>2014-08-30T11:59:30Z</time>
      </trkpt>
      <trkpt lat="43.84267" lon="7.24321">
        <ele>543</ele>
        <time>2014-08-30T11:59:33Z</time>
      </trkpt>
      <trkpt lat="43.84248" lon="7.24339">
        <ele>542</ele>
        <time>2014-08-30T11:59:36Z</time>
      </trkpt>
      <trkpt lat="43.84226" lon="7.24365">
        <ele>542</ele>
        <time>2014-08-30T11:59:39Z</time>
      </trkpt>
      <trkpt lat="43.84212" lon="7.24374">
        <ele>542</ele>
        <time>2014-08-30T11:59:42Z</time>
      </trkpt>
      <trkpt lat="43.84202" lon="7.24366">
        <ele>542</ele>
        <time>2014-08-30T11:59:45Z</time>
      </trkpt>
      <trkpt lat="43.84203" lon="7.24353">
        <ele>542</ele>
        <time>2014-08-30T11:59:48Z</time>
      </trkpt>
      <trkpt lat="43.84207" lon="7.24342">
        <ele>542</ele>
        <time>2014-08-30T11:59:51Z</time>
      </trkpt>
      <trkpt lat="43.8421" lon="7.24335">
        <ele>544</ele>
        <time>2014-08-30T11:59:54Z</time>
      </trkpt>
      <trkpt lat="43.84209" lon="7.24327">
        <ele>544</ele>
        <time>2014-08-30T11:59:57Z</time>
      </trkpt>
      <trkpt lat="43.84203" lon="7.24315">
        <ele>544</ele>
        <time>2014-08-30T12:00:00Z</time>
      </trkpt>
      <trkpt lat="43.84195" lon="7.24304">
        <ele>546</ele>
        <time>2014-08-30T12:00:03Z</time>
      </trkpt>
      <trkpt lat="43.8419" lon="7.24289">
        <ele>546</ele>
        <time>2014-08-30T12:00:06Z</time>
      </trkpt>
      <trkpt lat="43.84185" lon="7.24275">
        <ele>546</ele>
        <time>2014-08-30T12:00:09Z</time>
      </trkpt>
      <trkpt lat="43.84184" lon="7.24262">
        <ele>546</ele>
        <time>2014-08-30T12:00:12Z</time>
      </trkpt>
      <trkpt lat="43.8418" lon="7.2425">
        <ele>546</ele>
        <time>2014-08-30T12:00:15Z</time>
      </trkpt>
      <trkpt lat="43.84176" lon="7.24238">
        <ele>546</ele>
        <time>2014-08-30T12:00:18Z</time>
      </trkpt>
      <trkpt lat="43.84173" lon="7.2422">
        <ele>546</ele>
        <time>2014-08-30T12:00:21Z</time>
      </trkpt>
      <trkpt lat="43.8417" lon="7.24201">
        <ele>546</ele>
        <time>2014-08-30T12:00:24Z</time>
      </trkpt>
      <trkpt lat="43.84172" lon="7.24184">
        <ele>546</ele>
        <time>2014-08-30T12:00:27Z</time>
      </trkpt>
      <trkpt lat="43.84174" lon="7.24168">
        <ele>546</ele>
        <time>2014-08-30T12:00:30Z</time>
      </trkpt>
      <trkpt lat="43.84177" lon="7.24152">
        <ele>547</ele>
        <time>2014-08-30T12:00:33Z</time>
      </trkpt>
      <trkpt lat="43.84181" lon="7.24138">
        <ele>548</ele>
        <time>2014-08-30T12:00:36Z</time>
      </trkpt>
      <trkpt lat="43.84183" lon="7.24125">
        <ele>548</ele>
        <time>2014-08-30T12:00:39Z</time>
      </trkpt>
      <trkpt lat="43.84183" lon="7.24111">
        <ele>549</ele>
        <time>2014-08-30T12:00:42Z</time>
      </trkpt>
      <trkpt lat="43.84183" lon="7.24104">
        <ele>550</ele>
        <time>2014-08-30T12:00:45Z</time>
      </trkpt>
      <trkpt lat="43.84182" lon="7.24099">
        <ele>550</ele>
        <time>2014-08-30T12:00:48Z</time>
      </trkpt>
      <trkpt lat="43.84181" lon="7.24093">
        <ele>550</ele>
        <time>2014-08-30T12:00:51Z</time>
      </trkpt>
      <trkpt lat="43.8418" lon="7.24089">
        <ele>551</ele>
        <time>2014-08-30T12:00:54Z</time>
      </trkpt>
      <trkpt lat="43.8418" lon="7.24082">
        <ele>552</ele>
        <time>2014-08-30T12:00:57Z</time>
      </trkpt>
      <trkpt lat="43.84177" lon="7.24074">
        <ele>552</ele>
        <time>2014-08-30T12:01:00Z</time>
      </trkpt>
      <trkpt lat="43.84172" lon="7.24066">
        <ele>552</ele>
        <time>2014-08-30T12:01:03Z</time>
      </trkpt>
      <trkpt lat="43.84168" lon="7.24057">
        <ele>553</ele>
        <time>2014-08-30T12:01:06Z</time>
      </trkpt>
      <trkpt lat="43.84164" lon="7.24049">
        <ele>554</ele>
        <time>2014-08-30T12:01:09Z</time>
      </trkpt>
      <trkpt lat="43.8416" lon="7.24041">
        <ele>555</ele>
        <time>2014-08-30T12:01:12Z</time>
      </trkpt>
      <trkpt lat="43.84154" lon="7.24033">
        <ele>555</ele>
        <time>2014-08-30T12:01:15Z</time>
      </trkpt>
      <trkpt lat="43.84148" lon="7.24023">
        <ele>555</ele>
        <time>2014-08-30T12:01:18Z</time>
      </trkpt>
      <trkpt lat="43.84142" lon="7.24013">
        <ele>555</ele>
        <time>2014-08-30T12:01:21Z</time>
      </trkpt>
      <trkpt lat="43.84134" lon="7.23999">
        <ele>555</ele>
        <time>2014-08-30T12:01:24Z</time>
      </trkpt>
      <trkpt lat="43.84132" lon="7.23986">
        <ele>555</ele>
        <time>2014-08-30T12:01:27Z</time>
      </trkpt>
      <trkpt lat="43.84133" lon="7.23968">
        <ele>555</ele>
        <time>2014-08-30T12:01:30Z</time>
      </trkpt>
      <trkpt lat="43.84135" lon="7.23953">
        <ele>555</ele>
        <time>2014-08-30T12:01:33Z</time>
      </trkpt>
      <trkpt lat="43.84137" lon="7.23941">
        <ele>555</ele>
        <time>2014-08-30T12:01:36Z</time>
      </trkpt>
      <trkpt lat="43.84138" lon="7.23926">
        <ele>555</ele>
        <time>2014-08-30T12:01:39Z</time>
      </trkpt>
      <trkpt lat="43.84138" lon="7.23911">
        <ele>555</ele>
        <time>2014-08-30T12:01:42Z</time>
      </trkpt>
      <trkpt lat="43.84141" lon="7.23899">
        <ele>556</ele>
        <time>2014-08-30T12:01:45Z</time>
      </trkpt>
      <trkpt lat="43.84145" lon="7.23886">
        <ele>557</ele>
        <time>2014-08-30T12:01:48Z</time>
      </trkpt>
      <trkpt lat="43.84148" lon="7.23872">
        <ele>557</ele>
        <time>2014-08-30T12:01:51Z</time>
      </trkpt>
      <trkpt lat="43.84151" lon="7.23861">
        <ele>557</ele>
        <time>2014-08-30T12:01:54Z</time>
      </trkpt>
      <trkpt lat="43.84151" lon="7.23846">
        <ele>557</ele>
        <time>2014-08-30T12:01:57Z</time>
      </trkpt>
      <trkpt lat="43.8415" lon="7.23835">
        <ele>557</ele>
        <time>2014-08-30T12:02:00Z</time>
      </trkpt>
      <trkpt lat="43.8415" lon="7.23825">
        <ele>557</ele>
        <time>2014-08-30T12:02:03Z</time>
      </trkpt>
      <trkpt lat="43.84149" lon="7.23814">
        <ele>558</ele>
        <time>2014-08-30T12:02:06Z</time>
      </trkpt>
      <trkpt lat="43.84148" lon="7.23805">
        <ele>559</ele>
        <time>2014-08-30T12:02:09Z</time>
      </trkpt>
      <trkpt lat="43.8415" lon="7.23795">
        <ele>559</ele>
        <time>2014-08-30T12:02:12Z</time>
      </trkpt>
      <trkpt lat="43.84151" lon="7.23788">
        <ele>560</ele>
        <time>2014-08-30T12:02:15Z</time>
      </trkpt>
      <trkpt lat="43.84153" lon="7.23785">
        <ele>561</ele>
        <time>2014-08-30T12:02:18Z</time>
      </trkpt>
      <trkpt lat="43.84153" lon="7.23781">
        <ele>561</ele>
        <time>2014-08-30T12:02:21Z</time>
      </trkpt>
      <trkpt lat="43.84153" lon="7.23769">
        <ele>561</ele>
        <time>2014-08-30T12:02:24Z</time>
      </trkpt>
      <trkpt lat="43.84154" lon="7.23755">
        <ele>561</ele>
        <time>2014-08-30T12:02:27Z</time>
      </trkpt>
      <trkpt lat="43.84156" lon="7.23742">
        <ele>561</ele>
        <time>2014-08-30T12:02:30Z</time>
      </trkpt>
      <trkpt lat="43.84158" lon="7.23732">
        <ele>561</ele>
        <time>2014-08-30T12:02:33Z</time>
      </trkpt>
      <trkpt lat="43.84161" lon="7.2372">
        <ele>561</ele>
        <time>2014-08-30T12:02:36Z</time>
      </trkpt>
      <trkpt lat="43.84163" lon="7.23708">
        <ele>561</ele>
        <time>2014-08-30T12:02:39Z</time>
      </trkpt>
      <trkpt lat="43.84166" lon="7.23696">
        <ele>561</ele>
        <time>2014-08-30T12:02:42Z</time>
      </trkpt>
      <trkpt lat="43.84171" lon="7.23686">
        <ele>562</ele>
        <time>2014-08-30T12:02:45Z</time>
      </trkpt>
      <trkpt lat="43.84173" lon="7.23681">
        <ele>563</ele>
        <time>2014-08-30T12:02:48Z</time>
      </trkpt>
      <trkpt lat="43.84165" lon="7.23676">
        <ele>565</ele>
        <time>2014-08-30T12:02:51Z</time>
      </trkpt>
      <trkpt lat="43.84154" lon="7.23672">
        <ele>566</ele>
        <time>2014-08-30T12:02:54Z</time>
      </trkpt>
      <trkpt lat="43.84147" lon="7.23667">
        <ele>566</ele>
        <time>2014-08-30T12:02:57Z</time>
      </trkpt>
      <trkpt lat="43.84141" lon="7.23663">
        <ele>566</ele>
        <time>2014-08-30T12:03:00Z</time>
      </trkpt>
      <trkpt lat="43.84136" lon="7.23661">
        <ele>566</ele>
        <time>2014-08-30T12:03:03Z</time>
      </trkpt>
      <trkpt lat="43.8413" lon="7.23657">
        <ele>568</ele>
        <time>2014-08-30T12:03:06Z</time>
      </trkpt>
      <trkpt lat="43.84122" lon="7.23654">
        <ele>568</ele>
        <time>2014-08-30T12:03:09Z</time>
      </trkpt>
      <trkpt lat="43.84113" lon="7.23651">
        <ele>568</ele>
        <time>2014-08-30T12:03:12Z</time>
      </trkpt>
      <trkpt lat="43.84105" lon="7.23647">
        <ele>568</ele>
        <time>2014-08-30T12:03:15Z</time>
      </trkpt>
      <trkpt lat="43.841" lon="7.23656">
        <ele>568</ele>
        <time>2014-08-30T12:03:18Z</time>
      </trkpt>
      <trkpt lat="43.84099" lon="7.23665">
        <ele>568</ele>
        <time>2014-08-30T12:03:21Z</time>
      </trkpt>
      <trkpt lat="43.841" lon="7.23673">
        <ele>569</ele>
        <time>2014-08-30T12:03:24Z</time>
      </trkpt>
      <trkpt lat="43.84099" lon="7.23683">
        <ele>570</ele>
        <time>2014-08-30T12:03:27Z</time>
      </trkpt>
      <trkpt lat="43.841" lon="7.23691">
        <ele>570</ele>
        <time>2014-08-30T12:03:30Z</time>
      </trkpt>
      <trkpt lat="43.84099" lon="7.23696">
        <ele>571</ele>
        <time>2014-08-30T12:03:33Z</time>
      </trkpt>
      <trkpt lat="43.84096" lon="7.23705">
        <ele>572</ele>
        <time>2014-08-30T12:03:36Z</time>
      </trkpt>
      <trkpt lat="43.84097" lon="7.23711">
        <ele>572</ele>
        <time>2014-08-30T12:03:39Z</time>
      </trkpt>
      <trkpt lat="43.84096" lon="7.23716">
        <ele>572</ele>
        <time>2014-08-30T12:03:42Z</time>
      </trkpt>
      <trkpt lat="43.84094" lon="7.23721">
        <ele>573</ele>
        <time>2014-08-30T12:03:45Z</time>
      </trkpt>
      <trkpt lat="43.84091" lon="7.23724">
        <ele>574</ele>
        <time>2014-08-30T12:03:48Z</time>
      </trkpt>
      <trkpt lat="43.84087" lon="7.23725">
        <ele>574</ele>
        <time>2014-08-30T12:03:51Z</time>
      </trkpt>
      <trkpt lat="43.84086" lon="7.23728">
        <ele>576</ele>
        <time>2014-08-30T12:03:54Z</time>
      </trkpt>
      <trkpt lat="43.84085" lon="7.23731">
        <ele>576</ele>
        <time>2014-08-30T12:03:57Z</time>
      </trkpt>
      <trkpt lat="43.84082" lon="7.23735">
        <ele>577</ele>
        <time>2014-08-30T12:04:00Z</time>
      </trkpt>
      <trkpt lat="43.8408" lon="7.23737">
        <ele>578</ele>
        <time>2014-08-30T12:04:03Z</time>
      </trkpt>
      <trkpt lat="43.84078" lon="7.23738">
        <ele>578</ele>
        <time>2014-08-30T12:04:06Z</time>
      </trkpt>
      <trkpt lat="43.84075" lon="7.23741">
        <ele>579</ele>
        <time>2014-08-30T12:04:09Z</time>
      </trkpt>
      <trkpt lat="43.84074" lon="7.23742">
        <ele>580</ele>
        <time>2014-08-30T12:04:12Z</time>
      </trkpt>
      <trkpt lat="43.84073" lon="7.23744">
        <ele>580</ele>
        <time>2014-08-30T12:04:15Z</time>
      </trkpt>
      <trkpt lat="43.84071" lon="7.23746">
        <ele>580</ele>
        <time>2014-08-30T12:04:18Z</time>
      </trkpt>
      <trkpt lat="43.8407" lon="7.23749">
        <ele>581</ele>
        <time>2014-08-30T12:04:21Z</time>
      </trkpt>
      <trkpt lat="43.84068" lon="7.23753">
        <ele>583</ele>
        <time>2014-08-30T12:04:24Z</time>
      </trkpt>
      <trkpt lat="43.84066" lon="7.23755">
        <ele>583</ele>
        <time>2014-08-30T12:04:27Z</time>
      </trkpt>
      <trkpt lat="43.84063" lon="7.23757">
        <ele>583</ele>
        <time>2014-08-30T12:04:30Z</time>
      </trkpt>
      <trkpt lat="43.84061" lon="7.23758">
        <ele>584</ele>
        <time>2014-08-30T12:04:33Z</time>
      </trkpt>
      <trkpt lat="43.84058" lon="7.23758">
        <ele>585</ele>
        <time>2014-08-30T12:04:36Z</time>
      </trkpt>
      <trkpt lat="43.84055" lon="7.23759">
        <ele>585</ele>
        <time>2014-08-30T12:04:39Z</time>
      </trkpt>
      <trkpt lat="43.84053" lon="7.2376">
        <ele>586</ele>
        <time>2014-08-30T12:04:42Z</time>
      </trkpt>
      <trkpt lat="43.8405" lon="7.23761">
        <ele>587</ele>
        <time>2014-08-30T12:04:45Z</time>
      </trkpt>
      <trkpt lat="43.84048" lon="7.23761">
        <ele>587</ele>
        <time>2014-08-30T12:04:48Z</time>
      </trkpt>
      <trkpt lat="43.84046" lon="7.2376">
        <ele>588</ele>
        <time>2014-08-30T12:04:51Z</time>
      </trkpt>
      <trkpt lat="43.84044" lon="7.23758">
        <ele>589</ele>
        <time>2014-08-30T12:04:54Z</time>
      </trkpt>
      <trkpt lat="43.84044" lon="7.23756">
        <ele>589</ele>
        <time>2014-08-30T12:04:57Z</time>
      </trkpt>
      <trkpt lat="43.84044" lon="7.23755">
        <ele>589</ele>
        <time>2014-08-30T12:05:00Z</time>
      </trkpt>
      <trkpt lat="43.84045" lon="7.23755">
        <ele>589</ele>
        <time>2014-08-30T12:05:03Z</time>
      </trkpt>
      <trkpt lat="43.84045" lon="7.23753">
        <ele>589</ele>
        <time>2014-08-30T12:05:06Z</time>
      </trkpt>
      <trkpt lat="43.84044" lon="7.23749">
        <ele>589</ele>
        <time>2014-08-30T12:05:09Z</time>
      </trkpt>
      <trkpt lat="43.84043" lon="7.23743">
        <ele>589</ele>
        <time>2014-08-30T12:05:12Z</time>
      </trkpt>
      <trkpt lat="43.84043" lon="7.23736">
        <ele>590</ele>
        <time>2014-08-30T12:05:15Z</time>
      </trkpt>
      <trkpt lat="43.84041" lon="7.2373">
        <ele>591</ele>
        <time>2014-08-30T12:05:18Z</time>
      </trkpt>
      <trkpt lat="43.84038" lon="7.23726">
        <ele>591</ele>
        <time>2014-08-30T12:05:21Z</time>
      </trkpt>
      <trkpt lat="43.84033" lon="7.23724">
        <ele>593</ele>
        <time>2014-08-30T12:05:24Z</time>
      </trkpt>
      <trkpt lat="43.84028" lon="7.23723">
        <ele>593</ele>
        <time>2014-08-30T12:05:27Z</time>
      </trkpt>
      <trkpt lat="43.84023" lon="7.23723">
        <ele>594</ele>
        <time>2014-08-30T12:05:30Z</time>
      </trkpt>
      <trkpt lat="43.84019" lon="7.23724">
        <ele>595</ele>
        <time>2014-08-30T12:05:33Z</time>
      </trkpt>
      <trkpt lat="43.84016" lon="7.23725">
        <ele>595</ele>
        <time>2014-08-30T12:05:36Z</time>
      </trkpt>
      <trkpt lat="43.84013" lon="7.23726">
        <ele>595</ele>
        <time>2014-08-30T12:05:39Z</time>
      </trkpt>
      <trkpt lat="43.84009" lon="7.23724">
        <ele>596</ele>
        <time>2014-08-30T12:05:42Z</time>
      </trkpt>
      <trkpt lat="43.84006" lon="7.23722">
        <ele>597</ele>
        <time>2014-08-30T12:05:45Z</time>
      </trkpt>
      <trkpt lat="43.84002" lon="7.2372">
        <ele>598</ele>
        <time>2014-08-30T12:05:48Z</time>
      </trkpt>
      <trkpt lat="43.83997" lon="7.23717">
        <ele>599</ele>
        <time>2014-08-30T12:05:51Z</time>
      </trkpt>
      <trkpt lat="43.83993" lon="7.23716">
        <ele>599</ele>
        <time>2014-08-30T12:05:54Z</time>
      </trkpt>
      <trkpt lat="43.83988" lon="7.23716">
        <ele>599</ele>
        <time>2014-08-30T12:05:57Z</time>
      </trkpt>
      <trkpt lat="43.83983" lon="7.23714">
        <ele>599</ele>
        <time>2014-08-30T12:06:00Z</time>
      </trkpt>
      <trkpt lat="43.83976" lon="7.23715">
        <ele>599</ele>
        <time>2014-08-30T12:06:03Z</time>
      </trkpt>
      <trkpt lat="43.83967" lon="7.23717">
        <ele>599</ele>
        <time>2014-08-30T12:06:08Z</time>
      </trkpt>
      <trkpt lat="43.83945" lon="7.23725">
        <ele>599</ele>
        <time>2014-08-30T12:06:11Z</time>
      </trkpt>
      <trkpt lat="43.8393" lon="7.23733">
        <ele>599</ele>
        <time>2014-08-30T12:06:14Z</time>
      </trkpt>
      <trkpt lat="43.83919" lon="7.23738">
        <ele>596</ele>
        <time>2014-08-30T12:06:17Z</time>
      </trkpt>
      <trkpt lat="43.8391" lon="7.23736">
        <ele>593</ele>
        <time>2014-08-30T12:06:20Z</time>
      </trkpt>
      <trkpt lat="43.83906" lon="7.23727">
        <ele>591</ele>
        <time>2014-08-30T12:06:23Z</time>
      </trkpt>
      <trkpt lat="43.839" lon="7.23722">
        <ele>588</ele>
        <time>2014-08-30T12:06:26Z</time>
      </trkpt>
      <trkpt lat="43.83893" lon="7.23723">
        <ele>586</ele>
        <time>2014-08-30T12:06:29Z</time>
      </trkpt>
      <trkpt lat="43.83886" lon="7.23726">
        <ele>584</ele>
        <time>2014-08-30T12:06:32Z</time>
      </trkpt>
      <trkpt lat="43.83879" lon="7.23729">
        <ele>582</ele>
        <time>2014-08-30T12:06:35Z</time>
      </trkpt>
      <trkpt lat="43.83872" lon="7.23729">
        <ele>580</ele>
        <time>2014-08-30T12:06:38Z</time>
      </trkpt>
      <trkpt lat="43.83866" lon="7.23728">
        <ele>578</ele>
        <time>2014-08-30T12:06:41Z</time>
      </trkpt>
      <trkpt lat="43.8386" lon="7.23732">
        <ele>576</ele>
        <time>2014-08-30T12:06:44Z</time>
      </trkpt>
      <trkpt lat="43.83854" lon="7.23735">
        <ele>574</ele>
        <time>2014-08-30T12:06:47Z</time>
      </trkpt>
      <trkpt lat="43.83849" lon="7.23736">
        <ele>572</ele>
        <time>2014-08-30T12:06:50Z</time>
      </trkpt>
      <trkpt lat="43.83841" lon="7.23738">
        <ele>570</ele>
        <time>2014-08-30T12:06:53Z</time>
      </trkpt>
      <trkpt lat="43.83832" lon="7.23745">
        <ele>568</ele>
        <time>2014-08-30T12:06:56Z</time>
      </trkpt>
      <trkpt lat="43.8382" lon="7.23758">
        <ele>566</ele>
        <time>2014-08-30T12:06:59Z</time>
      </trkpt>
      <trkpt lat="43.83804" lon="7.23777">
        <ele>563</ele>
        <time>2014-08-30T12:07:02Z</time>
      </trkpt>
      <trkpt lat="43.83793" lon="7.23796">
        <ele>562</ele>
        <time>2014-08-30T12:07:05Z</time>
      </trkpt>
      <trkpt lat="43.83788" lon="7.23804">
        <ele>560</ele>
        <time>2014-08-30T12:07:08Z</time>
      </trkpt>
      <trkpt lat="43.83781" lon="7.23821">
        <ele>557</ele>
        <time>2014-08-30T12:07:11Z</time>
      </trkpt>
      <trkpt lat="43.83776" lon="7.23832">
        <ele>555</ele>
        <time>2014-08-30T12:07:14Z</time>
      </trkpt>
      <trkpt lat="43.83766" lon="7.23837">
        <ele>554</ele>
        <time>2014-08-30T12:07:17Z</time>
      </trkpt>
      <trkpt lat="43.83751" lon="7.23842">
        <ele>553</ele>
        <time>2014-08-30T12:07:20Z</time>
      </trkpt>
      <trkpt lat="43.83738" lon="7.23844">
        <ele>551</ele>
        <time>2014-08-30T12:07:23Z</time>
      </trkpt>
      <trkpt lat="43.83726" lon="7.23845">
        <ele>548</ele>
        <time>2014-08-30T12:07:26Z</time>
      </trkpt>
      <trkpt lat="43.83715" lon="7.23843">
        <ele>545</ele>
        <time>2014-08-30T12:07:29Z</time>
      </trkpt>
      <trkpt lat="43.83711" lon="7.23843">
        <ele>542</ele>
        <time>2014-08-30T12:07:32Z</time>
      </trkpt>
      <trkpt lat="43.83709" lon="7.23838">
        <ele>540</ele>
        <time>2014-08-30T12:07:35Z</time>
      </trkpt>
      <trkpt lat="43.83709" lon="7.23833">
        <ele>539</ele>
        <time>2014-08-30T12:07:38Z</time>
      </trkpt>
      <trkpt lat="43.83705" lon="7.23829">
        <ele>537</ele>
        <time>2014-08-30T12:07:41Z</time>
      </trkpt>
      <trkpt lat="43.83699" lon="7.23829">
        <ele>535</ele>
        <time>2014-08-30T12:07:44Z</time>
      </trkpt>
      <trkpt lat="43.837" lon="7.23826">
        <ele>533</ele>
        <time>2014-08-30T12:07:47Z</time>
      </trkpt>
      <trkpt lat="43.83701" lon="7.23821">
        <ele>531</ele>
        <time>2014-08-30T12:07:50Z</time>
      </trkpt>
      <trkpt lat="43.83694" lon="7.23825">
        <ele>530</ele>
        <time>2014-08-30T12:07:53Z</time>
      </trkpt>
      <trkpt lat="43.8369" lon="7.23816">
        <ele>528</ele>
        <time>2014-08-30T12:07:56Z</time>
      </trkpt>
      <trkpt lat="43.83688" lon="7.23805">
        <ele>526</ele>
        <time>2014-08-30T12:07:59Z</time>
      </trkpt>
      <trkpt lat="43.83695" lon="7.23803">
        <ele>525</ele>
        <time>2014-08-30T12:08:02Z</time>
      </trkpt>
      <trkpt lat="43.83697" lon="7.23801">
        <ele>524</ele>
        <time>2014-08-30T12:08:05Z</time>
      </trkpt>
      <trkpt lat="43.83692" lon="7.23796">
        <ele>523</ele>
        <time>2014-08-30T12:08:08Z</time>
      </trkpt>
      <trkpt lat="43.83687" lon="7.23793">
        <ele>520</ele>
        <time>2014-08-30T12:08:11Z</time>
      </trkpt>
      <trkpt lat="43.83679" lon="7.238">
        <ele>518</ele>
        <time>2014-08-30T12:08:14Z</time>
      </trkpt>
      <trkpt lat="43.83671" lon="7.23803">
        <ele>516</ele>
        <time>2014-08-30T12:08:17Z</time>
      </trkpt>
      <trkpt lat="43.83663" lon="7.238">
        <ele>514</ele>
        <time>2014-08-30T12:08:20Z</time>
      </trkpt>
      <trkpt lat="43.8366" lon="7.23798">
        <ele>513</ele>
        <time>2014-08-30T12:08:24Z</time>
      </trkpt>
      <trkpt lat="43.83664" lon="7.23793">
        <ele>511</ele>
        <time>2014-08-30T12:08:27Z</time>
      </trkpt>
      <trkpt lat="43.83659" lon="7.23785">
        <ele>509</ele>
        <time>2014-08-30T12:08:30Z</time>
      </trkpt>
      <trkpt lat="43.83655" lon="7.23777">
        <ele>506</ele>
        <time>2014-08-30T12:08:33Z</time>
      </trkpt>
      <trkpt lat="43.83654" lon="7.23771">
        <ele>504</ele>
        <time>2014-08-30T12:08:36Z</time>
      </trkpt>
      <trkpt lat="43.83648" lon="7.23774">
        <ele>501</ele>
        <time>2014-08-30T12:08:39Z</time>
      </trkpt>
      <trkpt lat="43.83639" lon="7.23785">
        <ele>499</ele>
        <time>2014-08-30T12:08:42Z</time>
      </trkpt>
      <trkpt lat="43.83623" lon="7.23792">
        <ele>498</ele>
        <time>2014-08-30T12:08:45Z</time>
      </trkpt>
      <trkpt lat="43.83606" lon="7.23798">
        <ele>498</ele>
        <time>2014-08-30T12:08:48Z</time>
      </trkpt>
      <trkpt lat="43.83592" lon="7.23811">
        <ele>497</ele>
        <time>2014-08-30T12:08:51Z</time>
      </trkpt>
      <trkpt lat="43.83583" lon="7.23818">
        <ele>496</ele>
        <time>2014-08-30T12:08:54Z</time>
      </trkpt>
      <trkpt lat="43.83574" lon="7.23826">
        <ele>495</ele>
        <time>2014-08-30T12:08:57Z</time>
      </trkpt>
      <trkpt lat="43.83567" lon="7.23833">
        <ele>496</ele>
        <time>2014-08-30T12:09:00Z</time>
      </trkpt>
      <trkpt lat="43.8356" lon="7.23841">
        <ele>498</ele>
        <time>2014-08-30T12:09:03Z</time>
      </trkpt>
      <trkpt lat="43.83555" lon="7.23851">
        <ele>498</ele>
        <time>2014-08-30T12:09:06Z</time>
      </trkpt>
      <trkpt lat="43.83553" lon="7.23864">
        <ele>498</ele>
        <time>2014-08-30T12:09:09Z</time>
      </trkpt>
      <trkpt lat="43.83549" lon="7.23875">
        <ele>498</ele>
        <time>2014-08-30T12:09:12Z</time>
      </trkpt>
      <trkpt lat="43.83545" lon="7.23881">
        <ele>499</ele>
        <time>2014-08-30T12:09:15Z</time>
      </trkpt>
      <trkpt lat="43.83541" lon="7.23888">
        <ele>500</ele>
        <time>2014-08-30T12:09:18Z</time>
      </trkpt>
      <trkpt lat="43.83536" lon="7.23896">
        <ele>500</ele>
        <time>2014-08-30T12:09:21Z</time>
      </trkpt>
      <trkpt lat="43.83533" lon="7.23905">
        <ele>501</ele>
        <time>2014-08-30T12:09:24Z</time>
      </trkpt>
      <trkpt lat="43.83528" lon="7.23916">
        <ele>502</ele>
        <time>2014-08-30T12:09:27Z</time>
      </trkpt>
      <trkpt lat="43.83522" lon="7.23926">
        <ele>502</ele>
        <time>2014-08-30T12:09:30Z</time>
      </trkpt>
      <trkpt lat="43.83517" lon="7.23934">
        <ele>503</ele>
        <time>2014-08-30T12:09:33Z</time>
      </trkpt>
      <trkpt lat="43.83511" lon="7.23942">
        <ele>504</ele>
        <time>2014-08-30T12:09:36Z</time>
      </trkpt>
      <trkpt lat="43.83506" lon="7.23952">
        <ele>504</ele>
        <time>2014-08-30T12:09:39Z</time>
      </trkpt>
      <trkpt lat="43.835" lon="7.23961">
        <ele>504</ele>
        <time>2014-08-30T12:09:42Z</time>
      </trkpt>
      <trkpt lat="43.83492" lon="7.23968">
        <ele>505</ele>
        <time>2014-08-30T12:09:45Z</time>
      </trkpt>
      <trkpt lat="43.83485" lon="7.23979">
        <ele>506</ele>
        <time>2014-08-30T12:09:48Z</time>
      </trkpt>
      <trkpt lat="43.83477" lon="7.23988">
        <ele>506</ele>
        <time>2014-08-30T12:09:51Z</time>
      </trkpt>
      <trkpt lat="43.8347" lon="7.24">
        <ele>506</ele>
        <time>2014-08-30T12:09:54Z</time>
      </trkpt>
      <trkpt lat="43.83466" lon="7.24011">
        <ele>506</ele>
        <time>2014-08-30T12:09:57Z</time>
      </trkpt>
      <trkpt lat="43.83462" lon="7.24025">
        <ele>506</ele>
        <time>2014-08-30T12:10:00Z</time>
      </trkpt>
      <trkpt lat="43.83464" lon="7.24042">
        <ele>506</ele>
        <time>2014-08-30T12:10:03Z</time>
      </trkpt>
      <trkpt lat="43.83462" lon="7.24054">
        <ele>506</ele>
        <time>2014-08-30T12:10:06Z</time>
      </trkpt>
      <trkpt lat="43.83464" lon="7.24067">
        <ele>506</ele>
        <time>2014-08-30T12:10:09Z</time>
      </trkpt>
      <trkpt lat="43.83469" lon="7.24079">
        <ele>507</ele>
        <time>2014-08-30T12:10:12Z</time>
      </trkpt>
      <trkpt lat="43.83475" lon="7.24085">
        <ele>508</ele>
        <time>2014-08-30T12:10:15Z</time>
      </trkpt>
      <trkpt lat="43.83478" lon="7.24088">
        <ele>509</ele>
        <time>2014-08-30T12:10:18Z</time>
      </trkpt>
      <trkpt lat="43.83481" lon="7.24094">
        <ele>510</ele>
        <time>2014-08-30T12:10:21Z</time>
      </trkpt>
      <trkpt lat="43.83482" lon="7.24098">
        <ele>511</ele>
        <time>2014-08-30T12:10:24Z</time>
      </trkpt>
      <trkpt lat="43.83484" lon="7.24102">
        <ele>511</ele>
        <time>2014-08-30T12:10:27Z</time>
      </trkpt>
      <trkpt lat="43.83487" lon="7.24107">
        <ele>512</ele>
        <time>2014-08-30T12:10:30Z</time>
      </trkpt>
      <trkpt lat="43.83491" lon="7.24109">
        <ele>513</ele>
        <time>2014-08-30T12:10:33Z</time>
      </trkpt>
      <trkpt lat="43.83493" lon="7.24113">
        <ele>513</ele>
        <time>2014-08-30T12:10:36Z</time>
      </trkpt>
      <trkpt lat="43.83497" lon="7.24117">
        <ele>514</ele>
        <time>2014-08-30T12:10:39Z</time>
      </trkpt>
      <trkpt lat="43.83501" lon="7.24122">
        <ele>515</ele>
        <time>2014-08-30T12:10:42Z</time>
      </trkpt>
      <trkpt lat="43.83505" lon="7.24126">
        <ele>515</ele>
        <time>2014-08-30T12:10:45Z</time>
      </trkpt>
      <trkpt lat="43.83508" lon="7.2413">
        <ele>516</ele>
        <time>2014-08-30T12:10:48Z</time>
      </trkpt>
      <trkpt lat="43.8351" lon="7.24133">
        <ele>517</ele>
        <time>2014-08-30T12:10:51Z</time>
      </trkpt>
      <trkpt lat="43.83512" lon="7.24136">
        <ele>517</ele>
        <time>2014-08-30T12:10:54Z</time>
      </trkpt>
      <trkpt lat="43.83514" lon="7.24138">
        <ele>518</ele>
        <time>2014-08-30T12:10:57Z</time>
      </trkpt>
      <trkpt lat="43.83517" lon="7.24142">
        <ele>519</ele>
        <time>2014-08-30T12:11:00Z</time>
      </trkpt>
      <trkpt lat="43.83517" lon="7.24144">
        <ele>519</ele>
        <time>2014-08-30T12:11:09Z</time>
      </trkpt>
      <trkpt lat="43.83521" lon="7.2415">
        <ele>519</ele>
        <time>2014-08-30T12:11:12Z</time>
      </trkpt>
      <trkpt lat="43.83526" lon="7.24157">
        <ele>520</ele>
        <time>2014-08-30T12:11:15Z</time>
      </trkpt>
      <trkpt lat="43.83532" lon="7.24161">
        <ele>522</ele>
        <time>2014-08-30T12:11:18Z</time>
      </trkpt>
      <trkpt lat="43.83536" lon="7.24164">
        <ele>522</ele>
        <time>2014-08-30T12:11:21Z</time>
      </trkpt>
      <trkpt lat="43.8354" lon="7.24167">
        <ele>522</ele>
        <time>2014-08-30T12:11:24Z</time>
      </trkpt>
      <trkpt lat="43.83546" lon="7.2417">
        <ele>523</ele>
        <time>2014-08-30T12:11:27Z</time>
      </trkpt>
      <trkpt lat="43.83552" lon="7.24173">
        <ele>524</ele>
        <time>2014-08-30T12:11:30Z</time>
      </trkpt>
      <trkpt lat="43.83557" lon="7.24175">
        <ele>524</ele>
        <time>2014-08-30T12:11:33Z</time>
      </trkpt>
      <trkpt lat="43.83561" lon="7.24177">
        <ele>526</ele>
        <time>2014-08-30T12:11:36Z</time>
      </trkpt>
      <trkpt lat="43.83566" lon="7.24177">
        <ele>526</ele>
        <time>2014-08-30T12:11:39Z</time>
      </trkpt>
      <trkpt lat="43.83572" lon="7.24179">
        <ele>526</ele>
        <time>2014-08-30T12:11:42Z</time>
      </trkpt>
      <trkpt lat="43.83576" lon="7.2418">
        <ele>526</ele>
        <time>2014-08-30T12:11:45Z</time>
      </trkpt>
      <trkpt lat="43.83578" lon="7.24181">
        <ele>527</ele>
        <time>2014-08-30T12:11:48Z</time>
      </trkpt>
      <trkpt lat="43.83581" lon="7.24181">
        <ele>528</ele>
        <time>2014-08-30T12:11:51Z</time>
      </trkpt>
      <trkpt lat="43.83584" lon="7.24181">
        <ele>528</ele>
        <time>2014-08-30T12:11:54Z</time>
      </trkpt>
      <trkpt lat="43.83586" lon="7.24182">
        <ele>529</ele>
        <time>2014-08-30T12:11:57Z</time>
      </trkpt>
      <trkpt lat="43.83588" lon="7.24184">
        <ele>530</ele>
        <time>2014-08-30T12:12:00Z</time>
      </trkpt>
      <trkpt lat="43.83588" lon="7.24187">
        <ele>530</ele>
        <time>2014-08-30T12:12:03Z</time>
      </trkpt>
      <trkpt lat="43.83589" lon="7.2419">
        <ele>530</ele>
        <time>2014-08-30T12:12:06Z</time>
      </trkpt>
      <trkpt lat="43.83591" lon="7.24195">
        <ele>532</ele>
        <time>2014-08-30T12:12:09Z</time>
      </trkpt>
      <trkpt lat="43.83591" lon="7.24203">
        <ele>532</ele>
        <time>2014-08-30T12:12:12Z</time>
      </trkpt>
      <trkpt lat="43.83586" lon="7.24207">
        <ele>532</ele>
        <time>2014-08-30T12:12:15Z</time>
      </trkpt>
      <trkpt lat="43.83582" lon="7.24211">
        <ele>532</ele>
        <time>2014-08-30T12:12:18Z</time>
      </trkpt>
      <trkpt lat="43.83578" lon="7.24216">
        <ele>532</ele>
        <time>2014-08-30T12:12:21Z</time>
      </trkpt>
      <trkpt lat="43.83574" lon="7.24222">
        <ele>532</ele>
        <time>2014-08-30T12:12:24Z</time>
      </trkpt>
      <trkpt lat="43.83574" lon="7.24234">
        <ele>533</ele>
        <time>2014-08-30T12:12:27Z</time>
      </trkpt>
      <trkpt lat="43.83575" lon="7.24245">
        <ele>534</ele>
        <time>2014-08-30T12:12:30Z</time>
      </trkpt>
      <trkpt lat="43.83575" lon="7.24254">
        <ele>535</ele>
        <time>2014-08-30T12:12:33Z</time>
      </trkpt>
      <trkpt lat="43.83576" lon="7.24263">
        <ele>535</ele>
        <time>2014-08-30T12:12:36Z</time>
      </trkpt>
      <trkpt lat="43.83577" lon="7.2427">
        <ele>536</ele>
        <time>2014-08-30T12:12:39Z</time>
      </trkpt>
      <trkpt lat="43.83579" lon="7.24276">
        <ele>537</ele>
        <time>2014-08-30T12:12:42Z</time>
      </trkpt>
      <trkpt lat="43.8358" lon="7.24283">
        <ele>538</ele>
        <time>2014-08-30T12:12:45Z</time>
      </trkpt>
      <trkpt lat="43.8358" lon="7.24291">
        <ele>539</ele>
        <time>2014-08-30T12:12:48Z</time>
      </trkpt>
      <trkpt lat="43.83581" lon="7.24298">
        <ele>539</ele>
        <time>2014-08-30T12:12:51Z</time>
      </trkpt>
      <trkpt lat="43.83583" lon="7.24305">
        <ele>541</ele>
        <time>2014-08-30T12:12:54Z</time>
      </trkpt>
      <trkpt lat="43.83583" lon="7.24314">
        <ele>541</ele>
        <time>2014-08-30T12:12:57Z</time>
      </trkpt>
      <trkpt lat="43.83587" lon="7.2432">
        <ele>541</ele>
        <time>2014-08-30T12:13:00Z</time>
      </trkpt>
      <trkpt lat="43.83589" lon="7.24325">
        <ele>543</ele>
        <time>2014-08-30T12:13:03Z</time>
      </trkpt>
      <trkpt lat="43.83591" lon="7.24331">
        <ele>543</ele>
        <time>2014-08-30T12:13:06Z</time>
      </trkpt>
      <trkpt lat="43.83594" lon="7.24337">
        <ele>543</ele>
        <time>2014-08-30T12:13:09Z</time>
      </trkpt>
      <trkpt lat="43.83597" lon="7.24341">
        <ele>543</ele>
        <time>2014-08-30T12:13:12Z</time>
      </trkpt>
      <trkpt lat="43.83598" lon="7.24348">
        <ele>543</ele>
        <time>2014-08-30T12:13:15Z</time>
      </trkpt>
      <trkpt lat="43.83597" lon="7.24354">
        <ele>544</ele>
        <time>2014-08-30T12:13:18Z</time>
      </trkpt>
      <trkpt lat="43.83594" lon="7.2436">
        <ele>545</ele>
        <time>2014-08-30T12:13:21Z</time>
      </trkpt>
      <trkpt lat="43.83592" lon="7.24365">
        <ele>546</ele>
        <time>2014-08-30T12:13:24Z</time>
      </trkpt>
      <trkpt lat="43.8359" lon="7.24374">
        <ele>546</ele>
        <time>2014-08-30T12:13:27Z</time>
      </trkpt>
      <trkpt lat="43.83587" lon="7.24383">
        <ele>546</ele>
        <time>2014-08-30T12:13:30Z</time>
      </trkpt>
      <trkpt lat="43.83582" lon="7.24393">
        <ele>547</ele>
        <time>2014-08-30T12:13:33Z</time>
      </trkpt>
      <trkpt lat="43.83579" lon="7.24402">
        <ele>548</ele>
        <time>2014-08-30T12:13:36Z</time>
      </trkpt>
      <trkpt lat="43.83578" lon="7.24414">
        <ele>548</ele>
        <time>2014-08-30T12:13:39Z</time>
      </trkpt>
      <trkpt lat="43.83578" lon="7.24426">
        <ele>549</ele>
        <time>2014-08-30T12:13:42Z</time>
      </trkpt>
      <trkpt lat="43.83579" lon="7.24435">
        <ele>550</ele>
        <time>2014-08-30T12:13:45Z</time>
      </trkpt>
      <trkpt lat="43.83581" lon="7.24444">
        <ele>550</ele>
        <time>2014-08-30T12:13:48Z</time>
      </trkpt>
      <trkpt lat="43.83585" lon="7.24452">
        <ele>550</ele>
        <time>2014-08-30T12:13:51Z</time>
      </trkpt>
      <trkpt lat="43.83589" lon="7.24462">
        <ele>551</ele>
        <time>2014-08-30T12:13:54Z</time>
      </trkpt>
      <trkpt lat="43.83594" lon="7.24472">
        <ele>552</ele>
        <time>2014-08-30T12:13:57Z</time>
      </trkpt>
      <trkpt lat="43.83594" lon="7.24484">
        <ele>551</ele>
        <time>2014-08-30T12:14:00Z</time>
      </trkpt>
      <trkpt lat="43.83592" lon="7.245">
        <ele>549</ele>
        <time>2014-08-30T12:14:03Z</time>
      </trkpt>
      <trkpt lat="43.8359" lon="7.24522">
        <ele>547</ele>
        <time>2014-08-30T12:14:06Z</time>
      </trkpt>
      <trkpt lat="43.83587" lon="7.24545">
        <ele>547</ele>
        <time>2014-08-30T12:14:09Z</time>
      </trkpt>
      <trkpt lat="43.83584" lon="7.24562">
        <ele>546</ele>
        <time>2014-08-30T12:14:12Z</time>
      </trkpt>
      <trkpt lat="43.83579" lon="7.24581">
        <ele>544</ele>
        <time>2014-08-30T12:14:15Z</time>
      </trkpt>
      <trkpt lat="43.83571" lon="7.24598">
        <ele>541</ele>
        <time>2014-08-30T12:14:18Z</time>
      </trkpt>
      <trkpt lat="43.83561" lon="7.24618">
        <ele>538</ele>
        <time>2014-08-30T12:14:21Z</time>
      </trkpt>
      <trkpt lat="43.83559" lon="7.24621">
        <ele>535</ele>
        <time>2014-08-30T12:14:24Z</time>
      </trkpt>
      <trkpt lat="43.83559" lon="7.2462">
        <ele>533</ele>
        <time>2014-08-30T12:14:27Z</time>
      </trkpt>
      <trkpt lat="43.83555" lon="7.24624">
        <ele>531</ele>
        <time>2014-08-30T12:14:30Z</time>
      </trkpt>
      <trkpt lat="43.83546" lon="7.2463">
        <ele>529</ele>
        <time>2014-08-30T12:14:33Z</time>
      </trkpt>
      <trkpt lat="43.83534" lon="7.24634">
        <ele>528</ele>
        <time>2014-08-30T12:14:36Z</time>
      </trkpt>
      <trkpt lat="43.83523" lon="7.24646">
        <ele>527</ele>
        <time>2014-08-30T12:14:39Z</time>
      </trkpt>
      <trkpt lat="43.83501" lon="7.24662">
        <ele>526</ele>
        <time>2014-08-30T12:14:42Z</time>
      </trkpt>
      <trkpt lat="43.8348" lon="7.24679">
        <ele>524</ele>
        <time>2014-08-30T12:14:45Z</time>
      </trkpt>
      <trkpt lat="43.83471" lon="7.24687">
        <ele>523</ele>
        <time>2014-08-30T12:14:48Z</time>
      </trkpt>
      <trkpt lat="43.83461" lon="7.24694">
        <ele>523</ele>
        <time>2014-08-30T12:14:51Z</time>
      </trkpt>
      <trkpt lat="43.83437" lon="7.24712">
        <ele>523</ele>
        <time>2014-08-30T12:14:54Z</time>
      </trkpt>
      <trkpt lat="43.83411" lon="7.24728">
        <ele>522</ele>
        <time>2014-08-30T12:14:57Z</time>
      </trkpt>
      <trkpt lat="43.83386" lon="7.24745">
        <ele>521</ele>
        <time>2014-08-30T12:15:00Z</time>
      </trkpt>
      <trkpt lat="43.83369" lon="7.24751">
        <ele>521</ele>
        <time>2014-08-30T12:15:03Z</time>
      </trkpt>
      <trkpt lat="43.83354" lon="7.24756">
        <ele>521</ele>
        <time>2014-08-30T12:15:06Z</time>
      </trkpt>
      <trkpt lat="43.83337" lon="7.24759">
        <ele>523</ele>
        <time>2014-08-30T12:15:09Z</time>
      </trkpt>
      <trkpt lat="43.8332" lon="7.24764">
        <ele>523</ele>
        <time>2014-08-30T12:15:12Z</time>
      </trkpt>
      <trkpt lat="43.83308" lon="7.24774">
        <ele>523</ele>
        <time>2014-08-30T12:15:15Z</time>
      </trkpt>
      <trkpt lat="43.83297" lon="7.24782">
        <ele>523</ele>
        <time>2014-08-30T12:15:18Z</time>
      </trkpt>
      <trkpt lat="43.83283" lon="7.24785">
        <ele>524</ele>
        <time>2014-08-30T12:15:21Z</time>
      </trkpt>
      <trkpt lat="43.83269" lon="7.24787">
        <ele>525</ele>
        <time>2014-08-30T12:15:24Z</time>
      </trkpt>
      <trkpt lat="43.83257" lon="7.24788">
        <ele>525</ele>
        <time>2014-08-30T12:15:27Z</time>
      </trkpt>
      <trkpt lat="43.8325" lon="7.24791">
        <ele>527</ele>
        <time>2014-08-30T12:15:30Z</time>
      </trkpt>
      <trkpt lat="43.8324" lon="7.24794">
        <ele>528</ele>
        <time>2014-08-30T12:15:33Z</time>
      </trkpt>
      <trkpt lat="43.83229" lon="7.24795">
        <ele>528</ele>
        <time>2014-08-30T12:15:36Z</time>
      </trkpt>
      <trkpt lat="43.83217" lon="7.24798">
        <ele>528</ele>
        <time>2014-08-30T12:15:39Z</time>
      </trkpt>
      <trkpt lat="43.83204" lon="7.24802">
        <ele>530</ele>
        <time>2014-08-30T12:15:42Z</time>
      </trkpt>
      <trkpt lat="43.83192" lon="7.24804">
        <ele>530</ele>
        <time>2014-08-30T12:15:45Z</time>
      </trkpt>
      <trkpt lat="43.83182" lon="7.24809">
        <ele>531</ele>
        <time>2014-08-30T12:15:48Z</time>
      </trkpt>
      <trkpt lat="43.83174" lon="7.24815">
        <ele>532</ele>
        <time>2014-08-30T12:15:51Z</time>
      </trkpt>
      <trkpt lat="43.83165" lon="7.24822">
        <ele>533</ele>
        <time>2014-08-30T12:15:54Z</time>
      </trkpt>
      <trkpt lat="43.83156" lon="7.2483">
        <ele>534</ele>
        <time>2014-08-30T12:15:57Z</time>
      </trkpt>
      <trkpt lat="43.83147" lon="7.24837">
        <ele>534</ele>
        <time>2014-08-30T12:16:00Z</time>
      </trkpt>
      <trkpt lat="43.83139" lon="7.24843">
        <ele>536</ele>
        <time>2014-08-30T12:16:03Z</time>
      </trkpt>
      <trkpt lat="43.8313" lon="7.24849">
        <ele>537</ele>
        <time>2014-08-30T12:16:06Z</time>
      </trkpt>
      <trkpt lat="43.83121" lon="7.24854">
        <ele>537</ele>
        <time>2014-08-30T12:16:09Z</time>
      </trkpt>
      <trkpt lat="43.8311" lon="7.24857">
        <ele>539</ele>
        <time>2014-08-30T12:16:12Z</time>
      </trkpt>
      <trkpt lat="43.83099" lon="7.2486">
        <ele>539</ele>
        <time>2014-08-30T12:16:15Z</time>
      </trkpt>
      <trkpt lat="43.83085" lon="7.24856">
        <ele>539</ele>
        <time>2014-08-30T12:16:18Z</time>
      </trkpt>
      <trkpt lat="43.83072" lon="7.24855">
        <ele>539</ele>
        <time>2014-08-30T12:16:21Z</time>
      </trkpt>
      <trkpt lat="43.8306" lon="7.2486">
        <ele>539</ele>
        <time>2014-08-30T12:16:24Z</time>
      </trkpt>
      <trkpt lat="43.83046" lon="7.24877">
        <ele>539</ele>
        <time>2014-08-30T12:16:27Z</time>
      </trkpt>
      <trkpt lat="43.8303" lon="7.24896">
        <ele>539</ele>
        <time>2014-08-30T12:16:30Z</time>
      </trkpt>
      <trkpt lat="43.83011" lon="7.24891">
        <ele>537</ele>
        <time>2014-08-30T12:16:33Z</time>
      </trkpt>
      <trkpt lat="43.82999" lon="7.24873">
        <ele>536</ele>
        <time>2014-08-30T12:16:36Z</time>
      </trkpt>
      <trkpt lat="43.82987" lon="7.24868">
        <ele>537</ele>
        <time>2014-08-30T12:16:39Z</time>
      </trkpt>
      <trkpt lat="43.82977" lon="7.24865">
        <ele>538</ele>
        <time>2014-08-30T12:16:42Z</time>
      </trkpt>
      <trkpt lat="43.82965" lon="7.24862">
        <ele>539</ele>
        <time>2014-08-30T12:16:45Z</time>
      </trkpt>
      <trkpt lat="43.82954" lon="7.24864">
        <ele>541</ele>
        <time>2014-08-30T12:16:48Z</time>
      </trkpt>
      <trkpt lat="43.82941" lon="7.24868">
        <ele>541</ele>
        <time>2014-08-30T12:16:51Z</time>
      </trkpt>
      <trkpt lat="43.82925" lon="7.24873">
        <ele>541</ele>
        <time>2014-08-30T12:16:54Z</time>
      </trkpt>
      <trkpt lat="43.8291" lon="7.24883">
        <ele>541</ele>
        <time>2014-08-30T12:16:57Z</time>
      </trkpt>
      <trkpt lat="43.82894" lon="7.24897">
        <ele>541</ele>
        <time>2014-08-30T12:17:00Z</time>
      </trkpt>
      <trkpt lat="43.82878" lon="7.24912">
        <ele>541</ele>
        <time>2014-08-30T12:17:03Z</time>
      </trkpt>
      <trkpt lat="43.82865" lon="7.2493">
        <ele>541</ele>
        <time>2014-08-30T12:17:06Z</time>
      </trkpt>
      <trkpt lat="43.82856" lon="7.24953">
        <ele>541</ele>
        <time>2014-08-30T12:17:09Z</time>
      </trkpt>
      <trkpt lat="43.82844" lon="7.24968">
        <ele>540</ele>
        <time>2014-08-30T12:17:12Z</time>
      </trkpt>
      <trkpt lat="43.82825" lon="7.24967">
        <ele>539</ele>
        <time>2014-08-30T12:17:15Z</time>
      </trkpt>
      <trkpt lat="43.82808" lon="7.2496">
        <ele>538</ele>
        <time>2014-08-30T12:17:18Z</time>
      </trkpt>
      <trkpt lat="43.82789" lon="7.24954">
        <ele>538</ele>
        <time>2014-08-30T12:17:21Z</time>
      </trkpt>
      <trkpt lat="43.82763" lon="7.24956">
        <ele>537</ele>
        <time>2014-08-30T12:17:24Z</time>
      </trkpt>
      <trkpt lat="43.82743" lon="7.24971">
        <ele>535</ele>
        <time>2014-08-30T12:17:27Z</time>
      </trkpt>
      <trkpt lat="43.8273" lon="7.24982">
        <ele>534</ele>
        <time>2014-08-30T12:17:30Z</time>
      </trkpt>
      <trkpt lat="43.82719" lon="7.24988">
        <ele>536</ele>
        <time>2014-08-30T12:17:33Z</time>
      </trkpt>
      <trkpt lat="43.8271" lon="7.24994">
        <ele>536</ele>
        <time>2014-08-30T12:17:36Z</time>
      </trkpt>
      <trkpt lat="43.82702" lon="7.24998">
        <ele>538</ele>
        <time>2014-08-30T12:17:39Z</time>
      </trkpt>
      <trkpt lat="43.82695" lon="7.25005">
        <ele>539</ele>
        <time>2014-08-30T12:17:42Z</time>
      </trkpt>
      <trkpt lat="43.82688" lon="7.2501">
        <ele>541</ele>
        <time>2014-08-30T12:17:45Z</time>
      </trkpt>
      <trkpt lat="43.82681" lon="7.25016">
        <ele>541</ele>
        <time>2014-08-30T12:17:48Z</time>
      </trkpt>
      <trkpt lat="43.82675" lon="7.25021">
        <ele>542</ele>
        <time>2014-08-30T12:17:51Z</time>
      </trkpt>
      <trkpt lat="43.82669" lon="7.25028">
        <ele>543</ele>
        <time>2014-08-30T12:17:54Z</time>
      </trkpt>
      <trkpt lat="43.82661" lon="7.25034">
        <ele>544</ele>
        <time>2014-08-30T12:17:57Z</time>
      </trkpt>
      <trkpt lat="43.82654" lon="7.2504">
        <ele>545</ele>
        <time>2014-08-30T12:18:00Z</time>
      </trkpt>
      <trkpt lat="43.82649" lon="7.25047">
        <ele>545</ele>
        <time>2014-08-30T12:18:03Z</time>
      </trkpt>
      <trkpt lat="43.82643" lon="7.25053">
        <ele>546</ele>
        <time>2014-08-30T12:18:06Z</time>
      </trkpt>
      <trkpt lat="43.82638" lon="7.25059">
        <ele>547</ele>
        <time>2014-08-30T12:18:09Z</time>
      </trkpt>
      <trkpt lat="43.82631" lon="7.25064">
        <ele>548</ele>
        <time>2014-08-30T12:18:12Z</time>
      </trkpt>
      <trkpt lat="43.82625" lon="7.2507">
        <ele>549</ele>
        <time>2014-08-30T12:18:15Z</time>
      </trkpt>
      <trkpt lat="43.82618" lon="7.25075">
        <ele>549</ele>
        <time>2014-08-30T12:18:18Z</time>
      </trkpt>
      <trkpt lat="43.82611" lon="7.25081">
        <ele>550</ele>
        <time>2014-08-30T12:18:21Z</time>
      </trkpt>
      <trkpt lat="43.82605" lon="7.25086">
        <ele>551</ele>
        <time>2014-08-30T12:18:24Z</time>
      </trkpt>
      <trkpt lat="43.82599" lon="7.25091">
        <ele>551</ele>
        <time>2014-08-30T12:18:27Z</time>
      </trkpt>
      <trkpt lat="43.82594" lon="7.25097">
        <ele>553</ele>
        <time>2014-08-30T12:18:30Z</time>
      </trkpt>
      <trkpt lat="43.82588" lon="7.25103">
        <ele>553</ele>
        <time>2014-08-30T12:18:33Z</time>
      </trkpt>
      <trkpt lat="43.82582" lon="7.25107">
        <ele>554</ele>
        <time>2014-08-30T12:18:36Z</time>
      </trkpt>
      <trkpt lat="43.82576" lon="7.25109">
        <ele>555</ele>
        <time>2014-08-30T12:18:39Z</time>
      </trkpt>
      <trkpt lat="43.8257" lon="7.25113">
        <ele>555</ele>
        <time>2014-08-30T12:18:42Z</time>
      </trkpt>
      <trkpt lat="43.82563" lon="7.25117">
        <ele>556</ele>
        <time>2014-08-30T12:18:45Z</time>
      </trkpt>
      <trkpt lat="43.82558" lon="7.25123">
        <ele>557</ele>
        <time>2014-08-30T12:18:48Z</time>
      </trkpt>
      <trkpt lat="43.82552" lon="7.25128">
        <ele>558</ele>
        <time>2014-08-30T12:18:51Z</time>
      </trkpt>
      <trkpt lat="43.82546" lon="7.25131">
        <ele>559</ele>
        <time>2014-08-30T12:18:54Z</time>
      </trkpt>
      <trkpt lat="43.8254" lon="7.25136">
        <ele>560</ele>
        <time>2014-08-30T12:18:57Z</time>
      </trkpt>
      <trkpt lat="43.82534" lon="7.25141">
        <ele>560</ele>
        <time>2014-08-30T12:19:00Z</time>
      </trkpt>
      <trkpt lat="43.82528" lon="7.25147">
        <ele>561</ele>
        <time>2014-08-30T12:19:03Z</time>
      </trkpt>
      <trkpt lat="43.82522" lon="7.2515">
        <ele>562</ele>
        <time>2014-08-30T12:19:06Z</time>
      </trkpt>
      <trkpt lat="43.82517" lon="7.25153">
        <ele>562</ele>
        <time>2014-08-30T12:19:09Z</time>
      </trkpt>
      <trkpt lat="43.8251" lon="7.25155">
        <ele>563</ele>
        <time>2014-08-30T12:19:12Z</time>
      </trkpt>
      <trkpt lat="43.82503" lon="7.25157">
        <ele>564</ele>
        <time>2014-08-30T12:19:15Z</time>
      </trkpt>
      <trkpt lat="43.82497" lon="7.25159">
        <ele>564</ele>
        <time>2014-08-30T12:19:18Z</time>
      </trkpt>
      <trkpt lat="43.8249" lon="7.25163">
        <ele>566</ele>
        <time>2014-08-30T12:19:21Z</time>
      </trkpt>
      <trkpt lat="43.82485" lon="7.2517">
        <ele>566</ele>
        <time>2014-08-30T12:19:24Z</time>
      </trkpt>
      <trkpt lat="43.8248" lon="7.25175">
        <ele>566</ele>
        <time>2014-08-30T12:19:27Z</time>
      </trkpt>
      <trkpt lat="43.82473" lon="7.2518">
        <ele>567</ele>
        <time>2014-08-30T12:19:30Z</time>
      </trkpt>
      <trkpt lat="43.82466" lon="7.25185">
        <ele>568</ele>
        <time>2014-08-30T12:19:33Z</time>
      </trkpt>
      <trkpt lat="43.8246" lon="7.25189">
        <ele>568</ele>
        <time>2014-08-30T12:19:36Z</time>
      </trkpt>
      <trkpt lat="43.82454" lon="7.25193">
        <ele>569</ele>
        <time>2014-08-30T12:19:39Z</time>
      </trkpt>
      <trkpt lat="43.82447" lon="7.25195">
        <ele>570</ele>
        <time>2014-08-30T12:19:42Z</time>
      </trkpt>
      <trkpt lat="43.82439" lon="7.25198">
        <ele>570</ele>
        <time>2014-08-30T12:19:45Z</time>
      </trkpt>
      <trkpt lat="43.82431" lon="7.25201">
        <ele>571</ele>
        <time>2014-08-30T12:19:48Z</time>
      </trkpt>
      <trkpt lat="43.82423" lon="7.25204">
        <ele>572</ele>
        <time>2014-08-30T12:19:51Z</time>
      </trkpt>
      <trkpt lat="43.82414" lon="7.25208">
        <ele>572</ele>
        <time>2014-08-30T12:19:54Z</time>
      </trkpt>
      <trkpt lat="43.82406" lon="7.25213">
        <ele>572</ele>
        <time>2014-08-30T12:19:57Z</time>
      </trkpt>
      <trkpt lat="43.82401" lon="7.25224">
        <ele>574</ele>
        <time>2014-08-30T12:20:00Z</time>
      </trkpt>
      <trkpt lat="43.82395" lon="7.25233">
        <ele>574</ele>
        <time>2014-08-30T12:20:03Z</time>
      </trkpt>
      <trkpt lat="43.82387" lon="7.25242">
        <ele>574</ele>
        <time>2014-08-30T12:20:06Z</time>
      </trkpt>
      <trkpt lat="43.8238" lon="7.25249">
        <ele>574</ele>
        <time>2014-08-30T12:20:09Z</time>
      </trkpt>
      <trkpt lat="43.8237" lon="7.25256">
        <ele>574</ele>
        <time>2014-08-30T12:20:12Z</time>
      </trkpt>
      <trkpt lat="43.82359" lon="7.25263">
        <ele>574</ele>
        <time>2014-08-30T12:20:15Z</time>
      </trkpt>
      <trkpt lat="43.82347" lon="7.25269">
        <ele>574</ele>
        <time>2014-08-30T12:20:18Z</time>
      </trkpt>
      <trkpt lat="43.82334" lon="7.25276">
        <ele>574</ele>
        <time>2014-08-30T12:20:21Z</time>
      </trkpt>
      <trkpt lat="43.8232" lon="7.25283">
        <ele>574</ele>
        <time>2014-08-30T12:20:24Z</time>
      </trkpt>
      <trkpt lat="43.82307" lon="7.25292">
        <ele>574</ele>
        <time>2014-08-30T12:20:27Z</time>
      </trkpt>
      <trkpt lat="43.82294" lon="7.25302">
        <ele>574</ele>
        <time>2014-08-30T12:20:30Z</time>
      </trkpt>
      <trkpt lat="43.82281" lon="7.25312">
        <ele>574</ele>
        <time>2014-08-30T12:20:33Z</time>
      </trkpt>
      <trkpt lat="43.82267" lon="7.25321">
        <ele>574</ele>
        <time>2014-08-30T12:20:36Z</time>
      </trkpt>
      <trkpt lat="43.82255" lon="7.25334">
        <ele>574</ele>
        <time>2014-08-30T12:20:39Z</time>
      </trkpt>
      <trkpt lat="43.82244" lon="7.25347">
        <ele>574</ele>
        <time>2014-08-30T12:20:42Z</time>
      </trkpt>
      <trkpt lat="43.82232" lon="7.25364">
        <ele>574</ele>
        <time>2014-08-30T12:20:45Z</time>
      </trkpt>
      <trkpt lat="43.82219" lon="7.25381">
        <ele>574</ele>
        <time>2014-08-30T12:20:48Z</time>
      </trkpt>
      <trkpt lat="43.82205" lon="7.25396">
        <ele>574</ele>
        <time>2014-08-30T12:20:51Z</time>
      </trkpt>
      <trkpt lat="43.82192" lon="7.25408">
        <ele>573</ele>
        <time>2014-08-30T12:20:54Z</time>
      </trkpt>
      <trkpt lat="43.82177" lon="7.25417">
        <ele>572</ele>
        <time>2014-08-30T12:20:57Z</time>
      </trkpt>
      <trkpt lat="43.82163" lon="7.25427">
        <ele>572</ele>
        <time>2014-08-30T12:21:00Z</time>
      </trkpt>
      <trkpt lat="43.8215" lon="7.2544">
        <ele>572</ele>
        <time>2014-08-30T12:21:03Z</time>
      </trkpt>
      <trkpt lat="43.82138" lon="7.25455">
        <ele>572</ele>
        <time>2014-08-30T12:21:06Z</time>
      </trkpt>
      <trkpt lat="43.82125" lon="7.2547">
        <ele>572</ele>
        <time>2014-08-30T12:21:09Z</time>
      </trkpt>
      <trkpt lat="43.82112" lon="7.2548">
        <ele>570</ele>
        <time>2014-08-30T12:21:12Z</time>
      </trkpt>
      <trkpt lat="43.82098" lon="7.25487">
        <ele>570</ele>
        <time>2014-08-30T12:21:15Z</time>
      </trkpt>
      <trkpt lat="43.82083" lon="7.25495">
        <ele>570</ele>
        <time>2014-08-30T12:21:18Z</time>
      </trkpt>
      <trkpt lat="43.82069" lon="7.25504">
        <ele>570</ele>
        <time>2014-08-30T12:21:21Z</time>
      </trkpt>
      <trkpt lat="43.82057" lon="7.25513">
        <ele>571</ele>
        <time>2014-08-30T12:21:24Z</time>
      </trkpt>
      <trkpt lat="43.82045" lon="7.25525">
        <ele>572</ele>
        <time>2014-08-30T12:21:27Z</time>
      </trkpt>
      <trkpt lat="43.82033" lon="7.25535">
        <ele>572</ele>
        <time>2014-08-30T12:21:30Z</time>
      </trkpt>
      <trkpt lat="43.82022" lon="7.25546">
        <ele>572</ele>
        <time>2014-08-30T12:21:33Z</time>
      </trkpt>
      <trkpt lat="43.8201" lon="7.25556">
        <ele>572</ele>
        <time>2014-08-30T12:21:36Z</time>
      </trkpt>
      <trkpt lat="43.82" lon="7.25568">
        <ele>574</ele>
        <time>2014-08-30T12:21:39Z</time>
      </trkpt>
      <trkpt lat="43.8199" lon="7.25579">
        <ele>574</ele>
        <time>2014-08-30T12:21:42Z</time>
      </trkpt>
      <trkpt lat="43.8198" lon="7.2559">
        <ele>574</ele>
        <time>2014-08-30T12:21:45Z</time>
      </trkpt>
      <trkpt lat="43.81969" lon="7.256">
        <ele>574</ele>
        <time>2014-08-30T12:21:48Z</time>
      </trkpt>
      <trkpt lat="43.81958" lon="7.2561">
        <ele>574</ele>
        <time>2014-08-30T12:21:51Z</time>
      </trkpt>
      <trkpt lat="43.81951" lon="7.25621">
        <ele>576</ele>
        <time>2014-08-30T12:21:54Z</time>
      </trkpt>
      <trkpt lat="43.81948" lon="7.25631">
        <ele>577</ele>
        <time>2014-08-30T12:21:57Z</time>
      </trkpt>
      <trkpt lat="43.81944" lon="7.25641">
        <ele>577</ele>
        <time>2014-08-30T12:22:00Z</time>
      </trkpt>
      <trkpt lat="43.81941" lon="7.2565">
        <ele>579</ele>
        <time>2014-08-30T12:22:03Z</time>
      </trkpt>
      <trkpt lat="43.81937" lon="7.25659">
        <ele>579</ele>
        <time>2014-08-30T12:22:06Z</time>
      </trkpt>
      <trkpt lat="43.81933" lon="7.25669">
        <ele>580</ele>
        <time>2014-08-30T12:22:09Z</time>
      </trkpt>
      <trkpt lat="43.8193" lon="7.25677">
        <ele>581</ele>
        <time>2014-08-30T12:22:12Z</time>
      </trkpt>
      <trkpt lat="43.81925" lon="7.25686">
        <ele>581</ele>
        <time>2014-08-30T12:22:15Z</time>
      </trkpt>
      <trkpt lat="43.8192" lon="7.25693">
        <ele>581</ele>
        <time>2014-08-30T12:22:18Z</time>
      </trkpt>
      <trkpt lat="43.81916" lon="7.25701">
        <ele>582</ele>
        <time>2014-08-30T12:22:21Z</time>
      </trkpt>
      <trkpt lat="43.81912" lon="7.25708">
        <ele>584</ele>
        <time>2014-08-30T12:22:24Z</time>
      </trkpt>
      <trkpt lat="43.81906" lon="7.25717">
        <ele>584</ele>
        <time>2014-08-30T12:22:27Z</time>
      </trkpt>
      <trkpt lat="43.81903" lon="7.25725">
        <ele>585</ele>
        <time>2014-08-30T12:22:30Z</time>
      </trkpt>
      <trkpt lat="43.81898" lon="7.25731">
        <ele>586</ele>
        <time>2014-08-30T12:22:33Z</time>
      </trkpt>
      <trkpt lat="43.81895" lon="7.25737">
        <ele>586</ele>
        <time>2014-08-30T12:22:36Z</time>
      </trkpt>
      <trkpt lat="43.81891" lon="7.25744">
        <ele>586</ele>
        <time>2014-08-30T12:22:39Z</time>
      </trkpt>
      <trkpt lat="43.81892" lon="7.25752">
        <ele>587</ele>
        <time>2014-08-30T12:22:42Z</time>
      </trkpt>
      <trkpt lat="43.81883" lon="7.2576">
        <ele>588</ele>
        <time>2014-08-30T12:22:45Z</time>
      </trkpt>
      <trkpt lat="43.81875" lon="7.25764">
        <ele>588</ele>
        <time>2014-08-30T12:22:48Z</time>
      </trkpt>
      <trkpt lat="43.81867" lon="7.25769">
        <ele>589</ele>
        <time>2014-08-30T12:22:51Z</time>
      </trkpt>
      <trkpt lat="43.81859" lon="7.2577">
        <ele>590</ele>
        <time>2014-08-30T12:22:54Z</time>
      </trkpt>
      <trkpt lat="43.81851" lon="7.2577">
        <ele>590</ele>
        <time>2014-08-30T12:22:57Z</time>
      </trkpt>
      <trkpt lat="43.81844" lon="7.25769">
        <ele>590</ele>
        <time>2014-08-30T12:23:00Z</time>
      </trkpt>
      <trkpt lat="43.81837" lon="7.25767">
        <ele>591</ele>
        <time>2014-08-30T12:23:03Z</time>
      </trkpt>
      <trkpt lat="43.8183" lon="7.25764">
        <ele>592</ele>
        <time>2014-08-30T12:23:06Z</time>
      </trkpt>
      <trkpt lat="43.81824" lon="7.25759">
        <ele>592</ele>
        <time>2014-08-30T12:23:09Z</time>
      </trkpt>
      <trkpt lat="43.81819" lon="7.25753">
        <ele>593</ele>
        <time>2014-08-30T12:23:12Z</time>
      </trkpt>
      <trkpt lat="43.81813" lon="7.25746">
        <ele>594</ele>
        <time>2014-08-30T12:23:15Z</time>
      </trkpt>
      <trkpt lat="43.81809" lon="7.25738">
        <ele>594</ele>
        <time>2014-08-30T12:23:18Z</time>
      </trkpt>
      <trkpt lat="43.81805" lon="7.25729">
        <ele>595</ele>
        <time>2014-08-30T12:23:21Z</time>
      </trkpt>
      <trkpt lat="43.81801" lon="7.2572">
        <ele>596</ele>
        <time>2014-08-30T12:23:24Z</time>
      </trkpt>
      <trkpt lat="43.81798" lon="7.25711">
        <ele>597</ele>
        <time>2014-08-30T12:23:27Z</time>
      </trkpt>
      <trkpt lat="43.81793" lon="7.25703">
        <ele>598</ele>
        <time>2014-08-30T12:23:30Z</time>
      </trkpt>
      <trkpt lat="43.8179" lon="7.25694">
        <ele>599</ele>
        <time>2014-08-30T12:23:33Z</time>
      </trkpt>
      <trkpt lat="43.81788" lon="7.25685">
        <ele>599</ele>
        <time>2014-08-30T12:23:36Z</time>
      </trkpt>
      <trkpt lat="43.81786" lon="7.25676">
        <ele>599</ele>
        <time>2014-08-30T12:23:39Z</time>
      </trkpt>
      <trkpt lat="43.81783" lon="7.25666">
        <ele>600</ele>
        <time>2014-08-30T12:23:42Z</time>
      </trkpt>
      <trkpt lat="43.8178" lon="7.25657">
        <ele>601</ele>
        <time>2014-08-30T12:23:45Z</time>
      </trkpt>
      <trkpt lat="43.81778" lon="7.25647">
        <ele>601</ele>
        <time>2014-08-30T12:23:48Z</time>
      </trkpt>
      <trkpt lat="43.81776" lon="7.25637">
        <ele>602</ele>
        <time>2014-08-30T12:23:51Z</time>
      </trkpt>
      <trkpt lat="43.81774" lon="7.25627">
        <ele>603</ele>
        <time>2014-08-30T12:23:54Z</time>
      </trkpt>
      <trkpt lat="43.81773" lon="7.25617">
        <ele>603</ele>
        <time>2014-08-30T12:23:57Z</time>
      </trkpt>
      <trkpt lat="43.81772" lon="7.25608">
        <ele>603</ele>
        <time>2014-08-30T12:24:00Z</time>
      </trkpt>
      <trkpt lat="43.81771" lon="7.25598">
        <ele>604</ele>
        <time>2014-08-30T12:24:03Z</time>
      </trkpt>
      <trkpt lat="43.8177" lon="7.25587">
        <ele>605</ele>
        <time>2014-08-30T12:24:06Z</time>
      </trkpt>
      <trkpt lat="43.81768" lon="7.25577">
        <ele>606</ele>
        <time>2014-08-30T12:24:09Z</time>
      </trkpt>
      <trkpt lat="43.81766" lon="7.25568">
        <ele>607</ele>
        <time>2014-08-30T12:24:12Z</time>
      </trkpt>
      <trkpt lat="43.81765" lon="7.25558">
        <ele>607</ele>
        <time>2014-08-30T12:24:15Z</time>
      </trkpt>
      <trkpt lat="43.81763" lon="7.25549">
        <ele>607</ele>
        <time>2014-08-30T12:24:18Z</time>
      </trkpt>
      <trkpt lat="43.8176" lon="7.2554">
        <ele>609</ele>
        <time>2014-08-30T12:24:21Z</time>
      </trkpt>
      <trkpt lat="43.81757" lon="7.25531">
        <ele>610</ele>
        <time>2014-08-30T12:24:24Z</time>
      </trkpt>
      <trkpt lat="43.81753" lon="7.25522">
        <ele>610</ele>
        <time>2014-08-30T12:24:27Z</time>
      </trkpt>
      <trkpt lat="43.81749" lon="7.25515">
        <ele>611</ele>
        <time>2014-08-30T12:24:30Z</time>
      </trkpt>
      <trkpt lat="43.81745" lon="7.25507">
        <ele>612</ele>
        <time>2014-08-30T12:24:33Z</time>
      </trkpt>
      <trkpt lat="43.81741" lon="7.255">
        <ele>612</ele>
        <time>2014-08-30T12:24:36Z</time>
      </trkpt>
      <trkpt lat="43.81736" lon="7.25494">
        <ele>613</ele>
        <time>2014-08-30T12:24:39Z</time>
      </trkpt>
      <trkpt lat="43.8173" lon="7.25488">
        <ele>614</ele>
        <time>2014-08-30T12:24:42Z</time>
      </trkpt>
      <trkpt lat="43.81724" lon="7.25481">
        <ele>614</ele>
        <time>2014-08-30T12:24:45Z</time>
      </trkpt>
      <trkpt lat="43.81717" lon="7.25474">
        <ele>614</ele>
        <time>2014-08-30T12:24:48Z</time>
      </trkpt>
      <trkpt lat="43.81709" lon="7.25467">
        <ele>614</ele>
        <time>2014-08-30T12:24:51Z</time>
      </trkpt>
      <trkpt lat="43.81703" lon="7.25461">
        <ele>614</ele>
        <time>2014-08-30T12:24:54Z</time>
      </trkpt>
      <trkpt lat="43.81699" lon="7.25456">
        <ele>615</ele>
        <time>2014-08-30T12:24:57Z</time>
      </trkpt>
      <trkpt lat="43.81695" lon="7.25452">
        <ele>616</ele>
        <time>2014-08-30T12:25:00Z</time>
      </trkpt>
      <trkpt lat="43.8169" lon="7.25449">
        <ele>617</ele>
        <time>2014-08-30T12:25:03Z</time>
      </trkpt>
      <trkpt lat="43.81684" lon="7.25446">
        <ele>618</ele>
        <time>2014-08-30T12:25:06Z</time>
      </trkpt>
      <trkpt lat="43.8168" lon="7.25442">
        <ele>618</ele>
        <time>2014-08-30T12:25:09Z</time>
      </trkpt>
      <trkpt lat="43.81676" lon="7.25438">
        <ele>618</ele>
        <time>2014-08-30T12:25:12Z</time>
      </trkpt>
      <trkpt lat="43.81672" lon="7.25433">
        <ele>620</ele>
        <time>2014-08-30T12:25:15Z</time>
      </trkpt>
      <trkpt lat="43.81668" lon="7.2543">
        <ele>621</ele>
        <time>2014-08-30T12:25:18Z</time>
      </trkpt>
      <trkpt lat="43.81664" lon="7.25426">
        <ele>621</ele>
        <time>2014-08-30T12:25:21Z</time>
      </trkpt>
      <trkpt lat="43.81661" lon="7.25423">
        <ele>622</ele>
        <time>2014-08-30T12:25:24Z</time>
      </trkpt>
      <trkpt lat="43.81656" lon="7.25419">
        <ele>623</ele>
        <time>2014-08-30T12:25:27Z</time>
      </trkpt>
      <trkpt lat="43.81655" lon="7.25417">
        <ele>623</ele>
        <time>2014-08-30T12:25:30Z</time>
      </trkpt>
      <trkpt lat="43.81656" lon="7.25417">
        <ele>624</ele>
        <time>2014-08-30T12:25:33Z</time>
      </trkpt>
      <trkpt lat="43.81655" lon="7.25418">
        <ele>625</ele>
        <time>2014-08-30T12:25:36Z</time>
      </trkpt>
      <trkpt lat="43.81653" lon="7.25417">
        <ele>625</ele>
        <time>2014-08-30T12:25:39Z</time>
      </trkpt>
      <trkpt lat="43.8165" lon="7.25414">
        <ele>625</ele>
        <time>2014-08-30T12:25:42Z</time>
      </trkpt>
      <trkpt lat="43.81646" lon="7.25412">
        <ele>625</ele>
        <time>2014-08-30T12:25:45Z</time>
      </trkpt>
      <trkpt lat="43.81643" lon="7.25408">
        <ele>625</ele>
        <time>2014-08-30T12:25:48Z</time>
      </trkpt>
      <trkpt lat="43.81641" lon="7.25404">
        <ele>626</ele>
        <time>2014-08-30T12:25:51Z</time>
      </trkpt>
      <trkpt lat="43.81638" lon="7.25402">
        <ele>627</ele>
        <time>2014-08-30T12:25:54Z</time>
      </trkpt>
      <trkpt lat="43.81635" lon="7.254">
        <ele>627</ele>
        <time>2014-08-30T12:25:57Z</time>
      </trkpt>
      <trkpt lat="43.81633" lon="7.25398">
        <ele>627</ele>
        <time>2014-08-30T12:26:00Z</time>
      </trkpt>
      <trkpt lat="43.81632" lon="7.25396">
        <ele>628</ele>
        <time>2014-08-30T12:26:03Z</time>
      </trkpt>
      <trkpt lat="43.81629" lon="7.25393">
        <ele>629</ele>
        <time>2014-08-30T12:26:06Z</time>
      </trkpt>
      <trkpt lat="43.81627" lon="7.25389">
        <ele>629</ele>
        <time>2014-08-30T12:26:09Z</time>
      </trkpt>
      <trkpt lat="43.81625" lon="7.25387">
        <ele>630</ele>
        <time>2014-08-30T12:26:12Z</time>
      </trkpt>
      <trkpt lat="43.81623" lon="7.25384">
        <ele>631</ele>
        <time>2014-08-30T12:26:15Z</time>
      </trkpt>
      <trkpt lat="43.81621" lon="7.25382">
        <ele>632</ele>
        <time>2014-08-30T12:26:18Z</time>
      </trkpt>
      <trkpt lat="43.81618" lon="7.25379">
        <ele>632</ele>
        <time>2014-08-30T12:26:21Z</time>
      </trkpt>
      <trkpt lat="43.81616" lon="7.25376">
        <ele>632</ele>
        <time>2014-08-30T12:26:24Z</time>
      </trkpt>
      <trkpt lat="43.81614" lon="7.25374">
        <ele>633</ele>
        <time>2014-08-30T12:26:27Z</time>
      </trkpt>
      <trkpt lat="43.81611" lon="7.25371">
        <ele>634</ele>
        <time>2014-08-30T12:26:30Z</time>
      </trkpt>
      <trkpt lat="43.81607" lon="7.25369">
        <ele>634</ele>
        <time>2014-08-30T12:26:33Z</time>
      </trkpt>
      <trkpt lat="43.81605" lon="7.25368">
        <ele>635</ele>
        <time>2014-08-30T12:26:36Z</time>
      </trkpt>
      <trkpt lat="43.81604" lon="7.25368">
        <ele>636</ele>
        <time>2014-08-30T12:26:39Z</time>
      </trkpt>
      <trkpt lat="43.81603" lon="7.25368">
        <ele>636</ele>
        <time>2014-08-30T12:26:42Z</time>
      </trkpt>
      <trkpt lat="43.81602" lon="7.25368">
        <ele>637</ele>
        <time>2014-08-30T12:26:45Z</time>
      </trkpt>
      <trkpt lat="43.816" lon="7.25366">
        <ele>639</ele>
        <time>2014-08-30T12:26:48Z</time>
      </trkpt>
      <trkpt lat="43.81598" lon="7.25365">
        <ele>639</ele>
        <time>2014-08-30T12:26:51Z</time>
      </trkpt>
      <trkpt lat="43.81596" lon="7.25363">
        <ele>639</ele>
        <time>2014-08-30T12:26:54Z</time>
      </trkpt>
      <trkpt lat="43.81594" lon="7.25362">
        <ele>640</ele>
        <time>2014-08-30T12:26:57Z</time>
      </trkpt>
      <trkpt lat="43.81591" lon="7.25361">
        <ele>641</ele>
        <time>2014-08-30T12:27:00Z</time>
      </trkpt>
      <trkpt lat="43.81589" lon="7.2536">
        <ele>641</ele>
        <time>2014-08-30T12:27:03Z</time>
      </trkpt>
      <trkpt lat="43.81588" lon="7.25359">
        <ele>642</ele>
        <time>2014-08-30T12:27:06Z</time>
      </trkpt>
      <trkpt lat="43.81586" lon="7.25358">
        <ele>643</ele>
        <time>2014-08-30T12:27:09Z</time>
      </trkpt>
      <trkpt lat="43.81585" lon="7.25357">
        <ele>643</ele>
        <time>2014-08-30T12:27:12Z</time>
      </trkpt>
      <trkpt lat="43.81584" lon="7.25355">
        <ele>643</ele>
        <time>2014-08-30T12:27:15Z</time>
      </trkpt>
      <trkpt lat="43.81583" lon="7.25354">
        <ele>644</ele>
        <time>2014-08-30T12:27:18Z</time>
      </trkpt>
      <trkpt lat="43.81581" lon="7.25354">
        <ele>645</ele>
        <time>2014-08-30T12:27:21Z</time>
      </trkpt>
      <trkpt lat="43.8158" lon="7.25354">
        <ele>646</ele>
        <time>2014-08-30T12:27:24Z</time>
      </trkpt>
      <trkpt lat="43.81579" lon="7.25353">
        <ele>647</ele>
        <time>2014-08-30T12:27:27Z</time>
      </trkpt>
      <trkpt lat="43.81577" lon="7.25352">
        <ele>647</ele>
        <time>2014-08-30T12:27:30Z</time>
      </trkpt>
      <trkpt lat="43.81576" lon="7.25351">
        <ele>647</ele>
        <time>2014-08-30T12:27:33Z</time>
      </trkpt>
      <trkpt lat="43.81574" lon="7.25349">
        <ele>648</ele>
        <time>2014-08-30T12:27:36Z</time>
      </trkpt>
      <trkpt lat="43.81572" lon="7.25348">
        <ele>649</ele>
        <time>2014-08-30T12:27:39Z</time>
      </trkpt>
      <trkpt lat="43.81571" lon="7.25347">
        <ele>649</ele>
        <time>2014-08-30T12:27:42Z</time>
      </trkpt>
      <trkpt lat="43.81569" lon="7.25346">
        <ele>650</ele>
        <time>2014-08-30T12:27:45Z</time>
      </trkpt>
      <trkpt lat="43.81567" lon="7.25346">
        <ele>651</ele>
        <time>2014-08-30T12:27:48Z</time>
      </trkpt>
      <trkpt lat="43.81565" lon="7.25345">
        <ele>651</ele>
        <time>2014-08-30T12:27:51Z</time>
      </trkpt>
      <trkpt lat="43.81561" lon="7.25345">
        <ele>652</ele>
        <time>2014-08-30T12:27:54Z</time>
      </trkpt>
      <trkpt lat="43.81558" lon="7.25346">
        <ele>653</ele>
        <time>2014-08-30T12:27:57Z</time>
      </trkpt>
      <trkpt lat="43.81554" lon="7.25347">
        <ele>653</ele>
        <time>2014-08-30T12:28:00Z</time>
      </trkpt>
      <trkpt lat="43.81551" lon="7.25347">
        <ele>653</ele>
        <time>2014-08-30T12:28:03Z</time>
      </trkpt>
      <trkpt lat="43.81546" lon="7.25348">
        <ele>653</ele>
        <time>2014-08-30T12:28:06Z</time>
      </trkpt>
      <trkpt lat="43.81541" lon="7.25349">
        <ele>653</ele>
        <time>2014-08-30T12:28:09Z</time>
      </trkpt>
      <trkpt lat="43.81535" lon="7.25349">
        <ele>653</ele>
        <time>2014-08-30T12:28:12Z</time>
      </trkpt>
      <trkpt lat="43.8153" lon="7.2535">
        <ele>653</ele>
        <time>2014-08-30T12:28:15Z</time>
      </trkpt>
      <trkpt lat="43.81527" lon="7.25352">
        <ele>655</ele>
        <time>2014-08-30T12:28:18Z</time>
      </trkpt>
      <trkpt lat="43.81524" lon="7.25355">
        <ele>656</ele>
        <time>2014-08-30T12:28:21Z</time>
      </trkpt>
      <trkpt lat="43.81522" lon="7.25357">
        <ele>656</ele>
        <time>2014-08-30T12:28:24Z</time>
      </trkpt>
      <trkpt lat="43.81519" lon="7.25359">
        <ele>656</ele>
        <time>2014-08-30T12:28:27Z</time>
      </trkpt>
      <trkpt lat="43.81518" lon="7.25361">
        <ele>658</ele>
        <time>2014-08-30T12:28:30Z</time>
      </trkpt>
      <trkpt lat="43.81516" lon="7.25361">
        <ele>658</ele>
        <time>2014-08-30T12:28:33Z</time>
      </trkpt>
      <trkpt lat="43.81514" lon="7.25362">
        <ele>659</ele>
        <time>2014-08-30T12:28:36Z</time>
      </trkpt>
      <trkpt lat="43.81511" lon="7.25361">
        <ele>660</ele>
        <time>2014-08-30T12:28:39Z</time>
      </trkpt>
      <trkpt lat="43.81508" lon="7.25362">
        <ele>660</ele>
        <time>2014-08-30T12:28:42Z</time>
      </trkpt>
      <trkpt lat="43.81505" lon="7.25363">
        <ele>660</ele>
        <time>2014-08-30T12:28:45Z</time>
      </trkpt>
      <trkpt lat="43.81502" lon="7.25363">
        <ele>661</ele>
        <time>2014-08-30T12:28:48Z</time>
      </trkpt>
      <trkpt lat="43.81499" lon="7.25364">
        <ele>662</ele>
        <time>2014-08-30T12:28:51Z</time>
      </trkpt>
      <trkpt lat="43.81497" lon="7.25366">
        <ele>662</ele>
        <time>2014-08-30T12:28:54Z</time>
      </trkpt>
      <trkpt lat="43.81495" lon="7.25368">
        <ele>662</ele>
        <time>2014-08-30T12:28:57Z</time>
      </trkpt>
      <trkpt lat="43.81495" lon="7.2537">
        <ele>664</ele>
        <time>2014-08-30T12:29:00Z</time>
      </trkpt>
      <trkpt lat="43.81495" lon="7.25371">
        <ele>664</ele>
        <time>2014-08-30T12:29:03Z</time>
      </trkpt>
      <trkpt lat="43.81493" lon="7.25373">
        <ele>664</ele>
        <time>2014-08-30T12:29:09Z</time>
      </trkpt>
      <trkpt lat="43.8149" lon="7.25375">
        <ele>665</ele>
        <time>2014-08-30T12:29:12Z</time>
      </trkpt>
      <trkpt lat="43.81488" lon="7.25376">
        <ele>666</ele>
        <time>2014-08-30T12:29:15Z</time>
      </trkpt>
      <trkpt lat="43.81486" lon="7.25377">
        <ele>666</ele>
        <time>2014-08-30T12:29:18Z</time>
      </trkpt>
      <trkpt lat="43.81484" lon="7.25378">
        <ele>667</ele>
        <time>2014-08-30T12:29:21Z</time>
      </trkpt>
      <trkpt lat="43.81483" lon="7.25381">
        <ele>669</ele>
        <time>2014-08-30T12:29:24Z</time>
      </trkpt>
      <trkpt lat="43.8148" lon="7.25382">
        <ele>669</ele>
        <time>2014-08-30T12:29:27Z</time>
      </trkpt>
      <trkpt lat="43.81477" lon="7.25383">
        <ele>669</ele>
        <time>2014-08-30T12:29:30Z</time>
      </trkpt>
      <trkpt lat="43.81475" lon="7.25384">
        <ele>669</ele>
        <time>2014-08-30T12:29:33Z</time>
      </trkpt>
      <trkpt lat="43.81472" lon="7.25385">
        <ele>670</ele>
        <time>2014-08-30T12:29:36Z</time>
      </trkpt>
      <trkpt lat="43.81469" lon="7.25386">
        <ele>671</ele>
        <time>2014-08-30T12:29:39Z</time>
      </trkpt>
      <trkpt lat="43.81465" lon="7.25386">
        <ele>671</ele>
        <time>2014-08-30T12:29:42Z</time>
      </trkpt>
      <trkpt lat="43.81462" lon="7.25386">
        <ele>671</ele>
        <time>2014-08-30T12:29:45Z</time>
      </trkpt>
      <trkpt lat="43.81459" lon="7.25387">
        <ele>672</ele>
        <time>2014-08-30T12:29:48Z</time>
      </trkpt>
      <trkpt lat="43.81455" lon="7.25387">
        <ele>673</ele>
        <time>2014-08-30T12:29:51Z</time>
      </trkpt>
      <trkpt lat="43.81452" lon="7.25388">
        <ele>673</ele>
        <time>2014-08-30T12:29:54Z</time>
      </trkpt>
      <trkpt lat="43.81448" lon="7.2539">
        <ele>673</ele>
        <time>2014-08-30T12:29:57Z</time>
      </trkpt>
      <trkpt lat="43.81445" lon="7.25391">
        <ele>675</ele>
        <time>2014-08-30T12:30:00Z</time>
      </trkpt>
      <trkpt lat="43.81441" lon="7.25394">
        <ele>675</ele>
        <time>2014-08-30T12:30:03Z</time>
      </trkpt>
      <trkpt lat="43.81438" lon="7.25396">
        <ele>675</ele>
        <time>2014-08-30T12:30:06Z</time>
      </trkpt>
      <trkpt lat="43.81433" lon="7.25398">
        <ele>675</ele>
        <time>2014-08-30T12:30:09Z</time>
      </trkpt>
      <trkpt lat="43.81426" lon="7.25397">
        <ele>675</ele>
        <time>2014-08-30T12:30:12Z</time>
      </trkpt>
      <trkpt lat="43.81415" lon="7.25395">
        <ele>674</ele>
        <time>2014-08-30T12:30:15Z</time>
      </trkpt>
      <trkpt lat="43.81399" lon="7.25393">
        <ele>673</ele>
        <time>2014-08-30T12:30:18Z</time>
      </trkpt>
      <trkpt lat="43.81372" lon="7.25389">
        <ele>671</ele>
        <time>2014-08-30T12:30:21Z</time>
      </trkpt>
      <trkpt lat="43.81353" lon="7.25385">
        <ele>669</ele>
        <time>2014-08-30T12:30:24Z</time>
      </trkpt>
      <trkpt lat="43.81334" lon="7.25379">
        <ele>667</ele>
        <time>2014-08-30T12:30:27Z</time>
      </trkpt>
      <trkpt lat="43.81319" lon="7.25373">
        <ele>667</ele>
        <time>2014-08-30T12:30:30Z</time>
      </trkpt>
      <trkpt lat="43.81308" lon="7.25374">
        <ele>667</ele>
        <time>2014-08-30T12:30:33Z</time>
      </trkpt>
      <trkpt lat="43.81301" lon="7.25373">
        <ele>668</ele>
        <time>2014-08-30T12:30:36Z</time>
      </trkpt>
      <trkpt lat="43.81297" lon="7.25371">
        <ele>670</ele>
        <time>2014-08-30T12:30:39Z</time>
      </trkpt>
      <trkpt lat="43.81291" lon="7.25368">
        <ele>671</ele>
        <time>2014-08-30T12:30:43Z</time>
      </trkpt>
      <trkpt lat="43.81287" lon="7.25366">
        <ele>671</ele>
        <time>2014-08-30T12:30:46Z</time>
      </trkpt>
      <trkpt lat="43.81284" lon="7.25364">
        <ele>673</ele>
        <time>2014-08-30T12:30:49Z</time>
      </trkpt>
      <trkpt lat="43.8128" lon="7.25363">
        <ele>673</ele>
        <time>2014-08-30T12:30:52Z</time>
      </trkpt>
      <trkpt lat="43.81277" lon="7.25361">
        <ele>673</ele>
        <time>2014-08-30T12:30:55Z</time>
      </trkpt>
      <trkpt lat="43.81273" lon="7.25359">
        <ele>675</ele>
        <time>2014-08-30T12:30:58Z</time>
      </trkpt>
      <trkpt lat="43.8127" lon="7.25358">
        <ele>675</ele>
        <time>2014-08-30T12:31:01Z</time>
      </trkpt>
      <trkpt lat="43.81267" lon="7.25358">
        <ele>675</ele>
        <time>2014-08-30T12:31:04Z</time>
      </trkpt>
      <trkpt lat="43.81264" lon="7.25358">
        <ele>676</ele>
        <time>2014-08-30T12:31:07Z</time>
      </trkpt>
      <trkpt lat="43.81262" lon="7.25357">
        <ele>678</ele>
        <time>2014-08-30T12:31:10Z</time>
      </trkpt>
      <trkpt lat="43.8126" lon="7.25355">
        <ele>678</ele>
        <time>2014-08-30T12:31:13Z</time>
      </trkpt>
      <trkpt lat="43.81258" lon="7.25353">
        <ele>680</ele>
        <time>2014-08-30T12:31:25Z</time>
      </trkpt>
      <trkpt lat="43.81256" lon="7.25349">
        <ele>680</ele>
        <time>2014-08-30T12:31:28Z</time>
      </trkpt>
      <trkpt lat="43.81254" lon="7.25346">
        <ele>680</ele>
        <time>2014-08-30T12:31:31Z</time>
      </trkpt>
      <trkpt lat="43.81251" lon="7.25345">
        <ele>681</ele>
        <time>2014-08-30T12:31:34Z</time>
      </trkpt>
      <trkpt lat="43.81247" lon="7.25345">
        <ele>682</ele>
        <time>2014-08-30T12:31:37Z</time>
      </trkpt>
      <trkpt lat="43.81245" lon="7.25346">
        <ele>682</ele>
        <time>2014-08-30T12:31:40Z</time>
      </trkpt>
      <trkpt lat="43.81241" lon="7.25346">
        <ele>683</ele>
        <time>2014-08-30T12:31:43Z</time>
      </trkpt>
      <trkpt lat="43.81238" lon="7.25345">
        <ele>684</ele>
        <time>2014-08-30T12:31:46Z</time>
      </trkpt>
      <trkpt lat="43.81235" lon="7.25344">
        <ele>684</ele>
        <time>2014-08-30T12:31:49Z</time>
      </trkpt>
      <trkpt lat="43.81232" lon="7.25342">
        <ele>685</ele>
        <time>2014-08-30T12:31:52Z</time>
      </trkpt>
      <trkpt lat="43.8123" lon="7.25339">
        <ele>686</ele>
        <time>2014-08-30T12:31:55Z</time>
      </trkpt>
      <trkpt lat="43.81228" lon="7.25337">
        <ele>686</ele>
        <time>2014-08-30T12:31:58Z</time>
      </trkpt>
      <trkpt lat="43.81225" lon="7.25338">
        <ele>687</ele>
        <time>2014-08-30T12:32:01Z</time>
      </trkpt>
      <trkpt lat="43.81223" lon="7.25337">
        <ele>688</ele>
        <time>2014-08-30T12:32:04Z</time>
      </trkpt>
      <trkpt lat="43.8122" lon="7.25335">
        <ele>688</ele>
        <time>2014-08-30T12:32:07Z</time>
      </trkpt>
      <trkpt lat="43.81216" lon="7.25332">
        <ele>688</ele>
        <time>2014-08-30T12:32:10Z</time>
      </trkpt>
      <trkpt lat="43.81213" lon="7.25334">
        <ele>688</ele>
        <time>2014-08-30T12:32:13Z</time>
      </trkpt>
      <trkpt lat="43.81214" lon="7.25334">
        <ele>688</ele>
        <time>2014-08-30T12:32:16Z</time>
      </trkpt>
      <trkpt lat="43.81212" lon="7.25333">
        <ele>689</ele>
        <time>2014-08-30T12:32:25Z</time>
      </trkpt>
      <trkpt lat="43.81206" lon="7.25332">
        <ele>690</ele>
        <time>2014-08-30T12:32:28Z</time>
      </trkpt>
      <trkpt lat="43.81198" lon="7.25331">
        <ele>690</ele>
        <time>2014-08-30T12:32:31Z</time>
      </trkpt>
      <trkpt lat="43.81191" lon="7.25331">
        <ele>690</ele>
        <time>2014-08-30T12:32:34Z</time>
      </trkpt>
      <trkpt lat="43.81184" lon="7.25327">
        <ele>690</ele>
        <time>2014-08-30T12:32:37Z</time>
      </trkpt>
      <trkpt lat="43.81178" lon="7.25323">
        <ele>692</ele>
        <time>2014-08-30T12:32:40Z</time>
      </trkpt>
      <trkpt lat="43.81171" lon="7.2532">
        <ele>693</ele>
        <time>2014-08-30T12:32:43Z</time>
      </trkpt>
      <trkpt lat="43.81166" lon="7.25316">
        <ele>693</ele>
        <time>2014-08-30T12:32:46Z</time>
      </trkpt>
      <trkpt lat="43.8116" lon="7.2531">
        <ele>693</ele>
        <time>2014-08-30T12:32:49Z</time>
      </trkpt>
      <trkpt lat="43.81154" lon="7.25306">
        <ele>693</ele>
        <time>2014-08-30T12:32:52Z</time>
      </trkpt>
      <trkpt lat="43.8115" lon="7.25303">
        <ele>695</ele>
        <time>2014-08-30T12:32:55Z</time>
      </trkpt>
      <trkpt lat="43.81148" lon="7.253">
        <ele>695</ele>
        <time>2014-08-30T12:32:58Z</time>
      </trkpt>
      <trkpt lat="43.81146" lon="7.25298">
        <ele>696</ele>
        <time>2014-08-30T12:33:01Z</time>
      </trkpt>
      <trkpt lat="43.81143" lon="7.25296">
        <ele>697</ele>
        <time>2014-08-30T12:33:04Z</time>
      </trkpt>
      <trkpt lat="43.81139" lon="7.25294">
        <ele>697</ele>
        <time>2014-08-30T12:33:07Z</time>
      </trkpt>
      <trkpt lat="43.81136" lon="7.25293">
        <ele>697</ele>
        <time>2014-08-30T12:33:10Z</time>
      </trkpt>
      <trkpt lat="43.81132" lon="7.25293">
        <ele>698</ele>
        <time>2014-08-30T12:33:13Z</time>
      </trkpt>
      <trkpt lat="43.81126" lon="7.2529">
        <ele>699</ele>
        <time>2014-08-30T12:33:16Z</time>
      </trkpt>
      <trkpt lat="43.81121" lon="7.25287">
        <ele>699</ele>
        <time>2014-08-30T12:33:19Z</time>
      </trkpt>
      <trkpt lat="43.81117" lon="7.25286">
        <ele>701</ele>
        <time>2014-08-30T12:33:22Z</time>
      </trkpt>
      <trkpt lat="43.81113" lon="7.25283">
        <ele>701</ele>
        <time>2014-08-30T12:33:25Z</time>
      </trkpt>
      <trkpt lat="43.8111" lon="7.25281">
        <ele>701</ele>
        <time>2014-08-30T12:33:28Z</time>
      </trkpt>
      <trkpt lat="43.81107" lon="7.25278">
        <ele>701</ele>
        <time>2014-08-30T12:33:31Z</time>
      </trkpt>
      <trkpt lat="43.81105" lon="7.25274">
        <ele>702</ele>
        <time>2014-08-30T12:33:34Z</time>
      </trkpt>
      <trkpt lat="43.81102" lon="7.2527">
        <ele>703</ele>
        <time>2014-08-30T12:33:37Z</time>
      </trkpt>
      <trkpt lat="43.811" lon="7.25266">
        <ele>703</ele>
        <time>2014-08-30T12:33:40Z</time>
      </trkpt>
      <trkpt lat="43.81099" lon="7.25263">
        <ele>704</ele>
        <time>2014-08-30T12:33:43Z</time>
      </trkpt>
      <trkpt lat="43.81097" lon="7.25262">
        <ele>705</ele>
        <time>2014-08-30T12:33:46Z</time>
      </trkpt>
      <trkpt lat="43.81094" lon="7.25262">
        <ele>705</ele>
        <time>2014-08-30T12:33:49Z</time>
      </trkpt>
      <trkpt lat="43.8109" lon="7.25261">
        <ele>706</ele>
        <time>2014-08-30T12:33:52Z</time>
      </trkpt>
      <trkpt lat="43.81087" lon="7.25259">
        <ele>707</ele>
        <time>2014-08-30T12:33:55Z</time>
      </trkpt>
      <trkpt lat="43.81085" lon="7.25257">
        <ele>707</ele>
        <time>2014-08-30T12:33:58Z</time>
      </trkpt>
      <trkpt lat="43.81083" lon="7.25256">
        <ele>708</ele>
        <time>2014-08-30T12:34:01Z</time>
      </trkpt>
      <trkpt lat="43.8108" lon="7.25254">
        <ele>709</ele>
        <time>2014-08-30T12:34:04Z</time>
      </trkpt>
      <trkpt lat="43.81078" lon="7.25253">
        <ele>709</ele>
        <time>2014-08-30T12:34:07Z</time>
      </trkpt>
      <trkpt lat="43.81075" lon="7.25251">
        <ele>710</ele>
        <time>2014-08-30T12:34:10Z</time>
      </trkpt>
      <trkpt lat="43.81071" lon="7.25249">
        <ele>711</ele>
        <time>2014-08-30T12:34:13Z</time>
      </trkpt>
      <trkpt lat="43.81068" lon="7.25247">
        <ele>711</ele>
        <time>2014-08-30T12:34:16Z</time>
      </trkpt>
      <trkpt lat="43.81065" lon="7.25244">
        <ele>711</ele>
        <time>2014-08-30T12:34:19Z</time>
      </trkpt>
      <trkpt lat="43.81064" lon="7.25241">
        <ele>712</ele>
        <time>2014-08-30T12:34:22Z</time>
      </trkpt>
      <trkpt lat="43.81061" lon="7.25237">
        <ele>714</ele>
        <time>2014-08-30T12:34:25Z</time>
      </trkpt>
      <trkpt lat="43.81058" lon="7.25234">
        <ele>714</ele>
        <time>2014-08-30T12:34:28Z</time>
      </trkpt>
      <trkpt lat="43.81057" lon="7.25233">
        <ele>714</ele>
        <time>2014-08-30T12:34:31Z</time>
      </trkpt>
      <trkpt lat="43.81057" lon="7.25234">
        <ele>714</ele>
        <time>2014-08-30T12:34:34Z</time>
      </trkpt>
      <trkpt lat="43.81056" lon="7.25233">
        <ele>714</ele>
        <time>2014-08-30T12:34:40Z</time>
      </trkpt>
      <trkpt lat="43.81054" lon="7.2523">
        <ele>714</ele>
        <time>2014-08-30T12:34:43Z</time>
      </trkpt>
      <trkpt lat="43.81049" lon="7.25224">
        <ele>714</ele>
        <time>2014-08-30T12:34:46Z</time>
      </trkpt>
      <trkpt lat="43.81043" lon="7.25215">
        <ele>715</ele>
        <time>2014-08-30T12:34:49Z</time>
      </trkpt>
      <trkpt lat="43.81037" lon="7.25205">
        <ele>716</ele>
        <time>2014-08-30T12:34:52Z</time>
      </trkpt>
      <trkpt lat="43.81031" lon="7.25196">
        <ele>716</ele>
        <time>2014-08-30T12:34:55Z</time>
      </trkpt>
      <trkpt lat="43.81025" lon="7.25187">
        <ele>716</ele>
        <time>2014-08-30T12:34:58Z</time>
      </trkpt>
      <trkpt lat="43.81019" lon="7.2518">
        <ele>716</ele>
        <time>2014-08-30T12:35:01Z</time>
      </trkpt>
      <trkpt lat="43.81012" lon="7.25174">
        <ele>717</ele>
        <time>2014-08-30T12:35:04Z</time>
      </trkpt>
      <trkpt lat="43.81005" lon="7.25167">
        <ele>718</ele>
        <time>2014-08-30T12:35:07Z</time>
      </trkpt>
      <trkpt lat="43.80998" lon="7.25158">
        <ele>718</ele>
        <time>2014-08-30T12:35:10Z</time>
      </trkpt>
      <trkpt lat="43.80992" lon="7.25148">
        <ele>718</ele>
        <time>2014-08-30T12:35:13Z</time>
      </trkpt>
      <trkpt lat="43.80986" lon="7.25138">
        <ele>718</ele>
        <time>2014-08-30T12:35:16Z</time>
      </trkpt>
      <trkpt lat="43.80981" lon="7.2513">
        <ele>719</ele>
        <time>2014-08-30T12:35:19Z</time>
      </trkpt>
      <trkpt lat="43.80977" lon="7.25124">
        <ele>720</ele>
        <time>2014-08-30T12:35:22Z</time>
      </trkpt>
      <trkpt lat="43.80973" lon="7.2512">
        <ele>721</ele>
        <time>2014-08-30T12:35:25Z</time>
      </trkpt>
      <trkpt lat="43.80969" lon="7.25116">
        <ele>722</ele>
        <time>2014-08-30T12:35:28Z</time>
      </trkpt>
      <trkpt lat="43.80966" lon="7.25113">
        <ele>722</ele>
        <time>2014-08-30T12:35:31Z</time>
      </trkpt>
      <trkpt lat="43.80961" lon="7.2511">
        <ele>724</ele>
        <time>2014-08-30T12:35:34Z</time>
      </trkpt>
      <trkpt lat="43.80958" lon="7.25107">
        <ele>725</ele>
        <time>2014-08-30T12:35:37Z</time>
      </trkpt>
      <trkpt lat="43.80954" lon="7.25103">
        <ele>726</ele>
        <time>2014-08-30T12:35:40Z</time>
      </trkpt>
      <trkpt lat="43.80949" lon="7.25099">
        <ele>727</ele>
        <time>2014-08-30T12:35:43Z</time>
      </trkpt>
      <trkpt lat="43.80944" lon="7.25096">
        <ele>727</ele>
        <time>2014-08-30T12:35:46Z</time>
      </trkpt>
      <trkpt lat="43.80939" lon="7.25093">
        <ele>728</ele>
        <time>2014-08-30T12:35:49Z</time>
      </trkpt>
      <trkpt lat="43.80935" lon="7.2509">
        <ele>729</ele>
        <time>2014-08-30T12:35:52Z</time>
      </trkpt>
      <trkpt lat="43.80931" lon="7.25087">
        <ele>729</ele>
        <time>2014-08-30T12:35:55Z</time>
      </trkpt>
      <trkpt lat="43.80926" lon="7.25084">
        <ele>729</ele>
        <time>2014-08-30T12:35:58Z</time>
      </trkpt>
      <trkpt lat="43.8092" lon="7.25083">
        <ele>729</ele>
        <time>2014-08-30T12:36:01Z</time>
      </trkpt>
      <trkpt lat="43.80913" lon="7.25081">
        <ele>729</ele>
        <time>2014-08-30T12:36:04Z</time>
      </trkpt>
      <trkpt lat="43.80906" lon="7.25078">
        <ele>729</ele>
        <time>2014-08-30T12:36:07Z</time>
      </trkpt>
      <trkpt lat="43.80899" lon="7.25074">
        <ele>731</ele>
        <time>2014-08-30T12:36:10Z</time>
      </trkpt>
      <trkpt lat="43.80893" lon="7.25072">
        <ele>731</ele>
        <time>2014-08-30T12:36:13Z</time>
      </trkpt>
      <trkpt lat="43.80885" lon="7.25072">
        <ele>731</ele>
        <time>2014-08-30T12:36:16Z</time>
      </trkpt>
      <trkpt lat="43.80876" lon="7.25071">
        <ele>731</ele>
        <time>2014-08-30T12:36:19Z</time>
      </trkpt>
      <trkpt lat="43.80868" lon="7.25067">
        <ele>731</ele>
        <time>2014-08-30T12:36:22Z</time>
      </trkpt>
      <trkpt lat="43.80859" lon="7.25062">
        <ele>732</ele>
        <time>2014-08-30T12:36:25Z</time>
      </trkpt>
      <trkpt lat="43.80852" lon="7.25057">
        <ele>733</ele>
        <time>2014-08-30T12:36:28Z</time>
      </trkpt>
      <trkpt lat="43.80848" lon="7.25051">
        <ele>734</ele>
        <time>2014-08-30T12:36:31Z</time>
      </trkpt>
      <trkpt lat="43.80846" lon="7.25046">
        <ele>736</ele>
        <time>2014-08-30T12:36:34Z</time>
      </trkpt>
      <trkpt lat="43.80842" lon="7.25043">
        <ele>736</ele>
        <time>2014-08-30T12:36:37Z</time>
      </trkpt>
      <trkpt lat="43.80837" lon="7.25043">
        <ele>736</ele>
        <time>2014-08-30T12:36:40Z</time>
      </trkpt>
      <trkpt lat="43.80834" lon="7.25049">
        <ele>736</ele>
        <time>2014-08-30T12:36:43Z</time>
      </trkpt>
      <trkpt lat="43.80831" lon="7.25057">
        <ele>737</ele>
        <time>2014-08-30T12:36:46Z</time>
      </trkpt>
      <trkpt lat="43.80828" lon="7.25064">
        <ele>738</ele>
        <time>2014-08-30T12:36:49Z</time>
      </trkpt>
      <trkpt lat="43.80824" lon="7.2507">
        <ele>738</ele>
        <time>2014-08-30T12:36:52Z</time>
      </trkpt>
      <trkpt lat="43.8082" lon="7.25075">
        <ele>739</ele>
        <time>2014-08-30T12:36:55Z</time>
      </trkpt>
      <trkpt lat="43.80817" lon="7.2508">
        <ele>740</ele>
        <time>2014-08-30T12:36:58Z</time>
      </trkpt>
      <trkpt lat="43.80812" lon="7.25085">
        <ele>740</ele>
        <time>2014-08-30T12:37:01Z</time>
      </trkpt>
      <trkpt lat="43.80806" lon="7.2509">
        <ele>740</ele>
        <time>2014-08-30T12:37:04Z</time>
      </trkpt>
      <trkpt lat="43.80799" lon="7.25096">
        <ele>740</ele>
        <time>2014-08-30T12:37:07Z</time>
      </trkpt>
      <trkpt lat="43.80792" lon="7.25102">
        <ele>742</ele>
        <time>2014-08-30T12:37:10Z</time>
      </trkpt>
      <trkpt lat="43.80783" lon="7.25106">
        <ele>743</ele>
        <time>2014-08-30T12:37:13Z</time>
      </trkpt>
      <trkpt lat="43.80773" lon="7.2511">
        <ele>743</ele>
        <time>2014-08-30T12:37:16Z</time>
      </trkpt>
      <trkpt lat="43.80758" lon="7.25113">
        <ele>742</ele>
        <time>2014-08-30T12:37:19Z</time>
      </trkpt>
      <trkpt lat="43.8073" lon="7.2511">
        <ele>740</ele>
        <time>2014-08-30T12:37:22Z</time>
      </trkpt>
      <trkpt lat="43.80709" lon="7.25107">
        <ele>738</ele>
        <time>2014-08-30T12:37:25Z</time>
      </trkpt>
      <trkpt lat="43.80695" lon="7.25103">
        <ele>736</ele>
        <time>2014-08-30T12:37:28Z</time>
      </trkpt>
      <trkpt lat="43.80681" lon="7.25105">
        <ele>735</ele>
        <time>2014-08-30T12:37:31Z</time>
      </trkpt>
      <trkpt lat="43.80664" lon="7.25105">
        <ele>734</ele>
        <time>2014-08-30T12:37:34Z</time>
      </trkpt>
      <trkpt lat="43.80651" lon="7.25106">
        <ele>733</ele>
        <time>2014-08-30T12:37:37Z</time>
      </trkpt>
      <trkpt lat="43.80642" lon="7.25108">
        <ele>733</ele>
        <time>2014-08-30T12:37:40Z</time>
      </trkpt>
      <trkpt lat="43.80634" lon="7.25113">
        <ele>734</ele>
        <time>2014-08-30T12:37:43Z</time>
      </trkpt>
      <trkpt lat="43.8062" lon="7.25117">
        <ele>736</ele>
        <time>2014-08-30T12:37:46Z</time>
      </trkpt>
      <trkpt lat="43.80604" lon="7.25122">
        <ele>736</ele>
        <time>2014-08-30T12:37:49Z</time>
      </trkpt>
      <trkpt lat="43.8059" lon="7.25123">
        <ele>736</ele>
        <time>2014-08-30T12:37:52Z</time>
      </trkpt>
      <trkpt lat="43.80573" lon="7.25122">
        <ele>735</ele>
        <time>2014-08-30T12:37:55Z</time>
      </trkpt>
      <trkpt lat="43.80555" lon="7.25123">
        <ele>733</ele>
        <time>2014-08-30T12:37:58Z</time>
      </trkpt>
      <trkpt lat="43.80538" lon="7.25124">
        <ele>732</ele>
        <time>2014-08-30T12:38:01Z</time>
      </trkpt>
      <trkpt lat="43.8052" lon="7.25127">
        <ele>730</ele>
        <time>2014-08-30T12:38:04Z</time>
      </trkpt>
      <trkpt lat="43.80507" lon="7.25134">
        <ele>729</ele>
        <time>2014-08-30T12:38:07Z</time>
      </trkpt>
      <trkpt lat="43.80496" lon="7.25138">
        <ele>729</ele>
        <time>2014-08-30T12:38:10Z</time>
      </trkpt>
      <trkpt lat="43.80482" lon="7.25141">
        <ele>729</ele>
        <time>2014-08-30T12:38:13Z</time>
      </trkpt>
      <trkpt lat="43.80469" lon="7.25146">
        <ele>729</ele>
        <time>2014-08-30T12:38:16Z</time>
      </trkpt>
      <trkpt lat="43.80457" lon="7.25152">
        <ele>729</ele>
        <time>2014-08-30T12:38:19Z</time>
      </trkpt>
      <trkpt lat="43.80445" lon="7.25157">
        <ele>731</ele>
        <time>2014-08-30T12:38:22Z</time>
      </trkpt>
      <trkpt lat="43.80433" lon="7.25162">
        <ele>731</ele>
        <time>2014-08-30T12:38:25Z</time>
      </trkpt>
      <trkpt lat="43.80416" lon="7.25166">
        <ele>731</ele>
        <time>2014-08-30T12:38:28Z</time>
      </trkpt>
      <trkpt lat="43.80397" lon="7.25172">
        <ele>729</ele>
        <time>2014-08-30T12:38:31Z</time>
      </trkpt>
      <trkpt lat="43.80376" lon="7.25175">
        <ele>727</ele>
        <time>2014-08-30T12:38:34Z</time>
      </trkpt>
      <trkpt lat="43.80354" lon="7.25175">
        <ele>725</ele>
        <time>2014-08-30T12:38:37Z</time>
      </trkpt>
      <trkpt lat="43.8033" lon="7.25173">
        <ele>722</ele>
        <time>2014-08-30T12:38:40Z</time>
      </trkpt>
      <trkpt lat="43.80305" lon="7.25167">
        <ele>719</ele>
        <time>2014-08-30T12:38:43Z</time>
      </trkpt>
      <trkpt lat="43.80283" lon="7.25155">
        <ele>717</ele>
        <time>2014-08-30T12:38:46Z</time>
      </trkpt>
      <trkpt lat="43.80267" lon="7.25141">
        <ele>717</ele>
        <time>2014-08-30T12:38:49Z</time>
      </trkpt>
      <trkpt lat="43.80261" lon="7.25129">
        <ele>717</ele>
        <time>2014-08-30T12:38:52Z</time>
      </trkpt>
      <trkpt lat="43.80252" lon="7.25119">
        <ele>717</ele>
        <time>2014-08-30T12:38:55Z</time>
      </trkpt>
      <trkpt lat="43.80239" lon="7.25106">
        <ele>717</ele>
        <time>2014-08-30T12:38:58Z</time>
      </trkpt>
      <trkpt lat="43.80225" lon="7.25089">
        <ele>717</ele>
        <time>2014-08-30T12:39:01Z</time>
      </trkpt>
      <trkpt lat="43.80214" lon="7.2507">
        <ele>717</ele>
        <time>2014-08-30T12:39:04Z</time>
      </trkpt>
      <trkpt lat="43.80206" lon="7.2505">
        <ele>717</ele>
        <time>2014-08-30T12:39:07Z</time>
      </trkpt>
      <trkpt lat="43.802" lon="7.2503">
        <ele>717</ele>
        <time>2014-08-30T12:39:10Z</time>
      </trkpt>
      <trkpt lat="43.80193" lon="7.25019">
        <ele>717</ele>
        <time>2014-08-30T12:39:13Z</time>
      </trkpt>
      <trkpt lat="43.80183" lon="7.25008">
        <ele>716</ele>
        <time>2014-08-30T12:39:16Z</time>
      </trkpt>
      <trkpt lat="43.80168" lon="7.2499">
        <ele>712</ele>
        <time>2014-08-30T12:39:19Z</time>
      </trkpt>
      <trkpt lat="43.80158" lon="7.24982">
        <ele>709</ele>
        <time>2014-08-30T12:39:22Z</time>
      </trkpt>
      <trkpt lat="43.80145" lon="7.24983">
        <ele>707</ele>
        <time>2014-08-30T12:39:25Z</time>
      </trkpt>
      <trkpt lat="43.80129" lon="7.24983">
        <ele>706</ele>
        <time>2014-08-30T12:39:28Z</time>
      </trkpt>
      <trkpt lat="43.80117" lon="7.24969">
        <ele>704</ele>
        <time>2014-08-30T12:39:31Z</time>
      </trkpt>
      <trkpt lat="43.80109" lon="7.24949">
        <ele>703</ele>
        <time>2014-08-30T12:39:34Z</time>
      </trkpt>
      <trkpt lat="43.80098" lon="7.24928">
        <ele>703</ele>
        <time>2014-08-30T12:39:37Z</time>
      </trkpt>
      <trkpt lat="43.80087" lon="7.24912">
        <ele>703</ele>
        <time>2014-08-30T12:39:40Z</time>
      </trkpt>
      <trkpt lat="43.80082" lon="7.24892">
        <ele>703</ele>
        <time>2014-08-30T12:39:43Z</time>
      </trkpt>
      <trkpt lat="43.80073" lon="7.24868">
        <ele>702</ele>
        <time>2014-08-30T12:39:46Z</time>
      </trkpt>
      <trkpt lat="43.8007" lon="7.24839">
        <ele>700</ele>
        <time>2014-08-30T12:39:49Z</time>
      </trkpt>
      <trkpt lat="43.80075" lon="7.24816">
        <ele>698</ele>
        <time>2014-08-30T12:39:52Z</time>
      </trkpt>
      <trkpt lat="43.80074" lon="7.24797">
        <ele>698</ele>
        <time>2014-08-30T12:39:55Z</time>
      </trkpt>
      <trkpt lat="43.8007" lon="7.2478">
        <ele>697</ele>
        <time>2014-08-30T12:39:58Z</time>
      </trkpt>
      <trkpt lat="43.80066" lon="7.24757">
        <ele>695</ele>
        <time>2014-08-30T12:40:01Z</time>
      </trkpt>
      <trkpt lat="43.80062" lon="7.24733">
        <ele>693</ele>
        <time>2014-08-30T12:40:04Z</time>
      </trkpt>
      <trkpt lat="43.80056" lon="7.24712">
        <ele>691</ele>
        <time>2014-08-30T12:40:07Z</time>
      </trkpt>
      <trkpt lat="43.80046" lon="7.24694">
        <ele>688</ele>
        <time>2014-08-30T12:40:10Z</time>
      </trkpt>
      <trkpt lat="43.80043" lon="7.24679">
        <ele>685</ele>
        <time>2014-08-30T12:40:13Z</time>
      </trkpt>
      <trkpt lat="43.80036" lon="7.24675">
        <ele>683</ele>
        <time>2014-08-30T12:40:16Z</time>
      </trkpt>
      <trkpt lat="43.80026" lon="7.24682">
        <ele>683</ele>
        <time>2014-08-30T12:40:19Z</time>
      </trkpt>
      <trkpt lat="43.80021" lon="7.24682">
        <ele>683</ele>
        <time>2014-08-30T12:40:22Z</time>
      </trkpt>
      <trkpt lat="43.8002" lon="7.24679">
        <ele>684</ele>
        <time>2014-08-30T12:40:25Z</time>
      </trkpt>
      <trkpt lat="43.80016" lon="7.24677">
        <ele>685</ele>
        <time>2014-08-30T12:40:28Z</time>
      </trkpt>
      <trkpt lat="43.80013" lon="7.24678">
        <ele>686</ele>
        <time>2014-08-30T12:40:31Z</time>
      </trkpt>
      <trkpt lat="43.80009" lon="7.24679">
        <ele>687</ele>
        <time>2014-08-30T12:40:34Z</time>
      </trkpt>
      <trkpt lat="43.80006" lon="7.24682">
        <ele>687</ele>
        <time>2014-08-30T12:40:37Z</time>
      </trkpt>
      <trkpt lat="43.80003" lon="7.24685">
        <ele>687</ele>
        <time>2014-08-30T12:40:40Z</time>
      </trkpt>
      <trkpt lat="43.80001" lon="7.24686">
        <ele>687</ele>
        <time>2014-08-30T12:40:43Z</time>
      </trkpt>
      <trkpt lat="43.79997" lon="7.24688">
        <ele>688</ele>
        <time>2014-08-30T12:40:46Z</time>
      </trkpt>
      <trkpt lat="43.79993" lon="7.24688">
        <ele>689</ele>
        <time>2014-08-30T12:40:49Z</time>
      </trkpt>
      <trkpt lat="43.79988" lon="7.24688">
        <ele>689</ele>
        <time>2014-08-30T12:40:52Z</time>
      </trkpt>
      <trkpt lat="43.79984" lon="7.24688">
        <ele>689</ele>
        <time>2014-08-30T12:40:55Z</time>
      </trkpt>
      <trkpt lat="43.7998" lon="7.24688">
        <ele>689</ele>
        <time>2014-08-30T12:40:58Z</time>
      </trkpt>
      <trkpt lat="43.79976" lon="7.24689">
        <ele>690</ele>
        <time>2014-08-30T12:41:01Z</time>
      </trkpt>
      <trkpt lat="43.79971" lon="7.24689">
        <ele>691</ele>
        <time>2014-08-30T12:41:04Z</time>
      </trkpt>
      <trkpt lat="43.79967" lon="7.2469">
        <ele>692</ele>
        <time>2014-08-30T12:41:07Z</time>
      </trkpt>
      <trkpt lat="43.79963" lon="7.24691">
        <ele>692</ele>
        <time>2014-08-30T12:41:10Z</time>
      </trkpt>
      <trkpt lat="43.79958" lon="7.24692">
        <ele>692</ele>
        <time>2014-08-30T12:41:13Z</time>
      </trkpt>
      <trkpt lat="43.79954" lon="7.24695">
        <ele>692</ele>
        <time>2014-08-30T12:41:16Z</time>
      </trkpt>
      <trkpt lat="43.7995" lon="7.24696">
        <ele>692</ele>
        <time>2014-08-30T12:41:19Z</time>
      </trkpt>
      <trkpt lat="43.79947" lon="7.24696">
        <ele>692</ele>
        <time>2014-08-30T12:41:22Z</time>
      </trkpt>
      <trkpt lat="43.79943" lon="7.24698">
        <ele>692</ele>
        <time>2014-08-30T12:41:25Z</time>
      </trkpt>
      <trkpt lat="43.79939" lon="7.24699">
        <ele>694</ele>
        <time>2014-08-30T12:41:28Z</time>
      </trkpt>
      <trkpt lat="43.79936" lon="7.247">
        <ele>694</ele>
        <time>2014-08-30T12:41:31Z</time>
      </trkpt>
      <trkpt lat="43.79933" lon="7.24702">
        <ele>694</ele>
        <time>2014-08-30T12:41:34Z</time>
      </trkpt>
      <trkpt lat="43.79929" lon="7.24704">
        <ele>694</ele>
        <time>2014-08-30T12:41:37Z</time>
      </trkpt>
      <trkpt lat="43.79925" lon="7.24705">
        <ele>695</ele>
        <time>2014-08-30T12:41:40Z</time>
      </trkpt>
      <trkpt lat="43.79921" lon="7.24706">
        <ele>696</ele>
        <time>2014-08-30T12:41:43Z</time>
      </trkpt>
      <trkpt lat="43.79917" lon="7.24707">
        <ele>696</ele>
        <time>2014-08-30T12:41:46Z</time>
      </trkpt>
      <trkpt lat="43.79912" lon="7.24708">
        <ele>696</ele>
        <time>2014-08-30T12:41:49Z</time>
      </trkpt>
      <trkpt lat="43.79909" lon="7.24709">
        <ele>696</ele>
        <time>2014-08-30T12:41:52Z</time>
      </trkpt>
      <trkpt lat="43.79905" lon="7.2471">
        <ele>697</ele>
        <time>2014-08-30T12:41:55Z</time>
      </trkpt>
      <trkpt lat="43.79902" lon="7.24711">
        <ele>698</ele>
        <time>2014-08-30T12:41:58Z</time>
      </trkpt>
      <trkpt lat="43.79898" lon="7.24712">
        <ele>698</ele>
        <time>2014-08-30T12:42:01Z</time>
      </trkpt>
      <trkpt lat="43.79895" lon="7.24713">
        <ele>698</ele>
        <time>2014-08-30T12:42:04Z</time>
      </trkpt>
      <trkpt lat="43.79891" lon="7.24715">
        <ele>698</ele>
        <time>2014-08-30T12:42:07Z</time>
      </trkpt>
      <trkpt lat="43.79887" lon="7.24716">
        <ele>698</ele>
        <time>2014-08-30T12:42:10Z</time>
      </trkpt>
      <trkpt lat="43.79884" lon="7.24716">
        <ele>700</ele>
        <time>2014-08-30T12:42:13Z</time>
      </trkpt>
      <trkpt lat="43.79881" lon="7.24717">
        <ele>700</ele>
        <time>2014-08-30T12:42:16Z</time>
      </trkpt>
      <trkpt lat="43.79878" lon="7.24718">
        <ele>700</ele>
        <time>2014-08-30T12:42:19Z</time>
      </trkpt>
      <trkpt lat="43.79874" lon="7.2472">
        <ele>700</ele>
        <time>2014-08-30T12:42:22Z</time>
      </trkpt>
      <trkpt lat="43.79872" lon="7.24722">
        <ele>701</ele>
        <time>2014-08-30T12:42:25Z</time>
      </trkpt>
      <trkpt lat="43.79868" lon="7.24723">
        <ele>702</ele>
        <time>2014-08-30T12:42:28Z</time>
      </trkpt>
      <trkpt lat="43.79864" lon="7.24725">
        <ele>703</ele>
        <time>2014-08-30T12:42:31Z</time>
      </trkpt>
      <trkpt lat="43.79862" lon="7.24726">
        <ele>703</ele>
        <time>2014-08-30T12:42:34Z</time>
      </trkpt>
      <trkpt lat="43.7986" lon="7.24726">
        <ele>703</ele>
        <time>2014-08-30T12:42:37Z</time>
      </trkpt>
      <trkpt lat="43.7986" lon="7.24727">
        <ele>703</ele>
        <time>2014-08-30T12:42:40Z</time>
      </trkpt>
      <trkpt lat="43.7986" lon="7.24728">
        <ele>703</ele>
        <time>2014-08-30T12:42:43Z</time>
      </trkpt>
      <trkpt lat="43.79861" lon="7.24728">
        <ele>703</ele>
        <time>2014-08-30T12:42:46Z</time>
      </trkpt>
      <trkpt lat="43.79856" lon="7.24732">
        <ele>703</ele>
        <time>2014-08-30T12:42:49Z</time>
      </trkpt>
      <trkpt lat="43.79851" lon="7.24735">
        <ele>703</ele>
        <time>2014-08-30T12:42:52Z</time>
      </trkpt>
      <trkpt lat="43.79846" lon="7.24739">
        <ele>703</ele>
        <time>2014-08-30T12:42:55Z</time>
      </trkpt>
      <trkpt lat="43.7984" lon="7.24742">
        <ele>704</ele>
        <time>2014-08-30T12:42:58Z</time>
      </trkpt>
      <trkpt lat="43.79835" lon="7.24746">
        <ele>705</ele>
        <time>2014-08-30T12:43:01Z</time>
      </trkpt>
      <trkpt lat="43.79831" lon="7.2475">
        <ele>705</ele>
        <time>2014-08-30T12:43:04Z</time>
      </trkpt>
      <trkpt lat="43.79827" lon="7.24752">
        <ele>705</ele>
        <time>2014-08-30T12:43:07Z</time>
      </trkpt>
      <trkpt lat="43.79825" lon="7.24755">
        <ele>705</ele>
        <time>2014-08-30T12:43:10Z</time>
      </trkpt>
      <trkpt lat="43.79822" lon="7.24758">
        <ele>706</ele>
        <time>2014-08-30T12:43:13Z</time>
      </trkpt>
      <trkpt lat="43.7982" lon="7.24758">
        <ele>707</ele>
        <time>2014-08-30T12:43:16Z</time>
      </trkpt>
      <trkpt lat="43.79819" lon="7.24758">
        <ele>707</ele>
        <time>2014-08-30T12:43:19Z</time>
      </trkpt>
      <trkpt lat="43.79816" lon="7.24758">
        <ele>707</ele>
        <time>2014-08-30T12:43:22Z</time>
      </trkpt>
      <trkpt lat="43.79812" lon="7.24758">
        <ele>708</ele>
        <time>2014-08-30T12:43:25Z</time>
      </trkpt>
      <trkpt lat="43.79808" lon="7.2476">
        <ele>709</ele>
        <time>2014-08-30T12:43:28Z</time>
      </trkpt>
      <trkpt lat="43.79802" lon="7.24765">
        <ele>709</ele>
        <time>2014-08-30T12:43:31Z</time>
      </trkpt>
      <trkpt lat="43.79794" lon="7.24773">
        <ele>709</ele>
        <time>2014-08-30T12:43:34Z</time>
      </trkpt>
      <trkpt lat="43.79784" lon="7.24781">
        <ele>709</ele>
        <time>2014-08-30T12:43:37Z</time>
      </trkpt>
      <trkpt lat="43.79772" lon="7.24788">
        <ele>709</ele>
        <time>2014-08-30T12:43:40Z</time>
      </trkpt>
      <trkpt lat="43.79757" lon="7.24792">
        <ele>709</ele>
        <time>2014-08-30T12:43:43Z</time>
      </trkpt>
      <trkpt lat="43.79737" lon="7.24803">
        <ele>707</ele>
        <time>2014-08-30T12:43:46Z</time>
      </trkpt>
      <trkpt lat="43.79715" lon="7.24821">
        <ele>705</ele>
        <time>2014-08-30T12:43:49Z</time>
      </trkpt>
      <trkpt lat="43.79696" lon="7.24841">
        <ele>703</ele>
        <time>2014-08-30T12:43:52Z</time>
      </trkpt>
      <trkpt lat="43.79678" lon="7.24863">
        <ele>701</ele>
        <time>2014-08-30T12:43:55Z</time>
      </trkpt>
      <trkpt lat="43.79661" lon="7.24881">
        <ele>699</ele>
        <time>2014-08-30T12:43:58Z</time>
      </trkpt>
      <trkpt lat="43.79642" lon="7.24899">
        <ele>696</ele>
        <time>2014-08-30T12:44:01Z</time>
      </trkpt>
      <trkpt lat="43.7962" lon="7.24911">
        <ele>694</ele>
        <time>2014-08-30T12:44:04Z</time>
      </trkpt>
      <trkpt lat="43.79593" lon="7.24912">
        <ele>691</ele>
        <time>2014-08-30T12:44:07Z</time>
      </trkpt>
      <trkpt lat="43.79565" lon="7.24909">
        <ele>687</ele>
        <time>2014-08-30T12:44:10Z</time>
      </trkpt>
      <trkpt lat="43.79537" lon="7.24906">
        <ele>684</ele>
        <time>2014-08-30T12:44:13Z</time>
      </trkpt>
      <trkpt lat="43.79511" lon="7.24902">
        <ele>684</ele>
        <time>2014-08-30T12:44:16Z</time>
      </trkpt>
      <trkpt lat="43.79485" lon="7.24893">
        <ele>683</ele>
        <time>2014-08-30T12:44:19Z</time>
      </trkpt>
      <trkpt lat="43.79459" lon="7.24881">
        <ele>681</ele>
        <time>2014-08-30T12:44:22Z</time>
      </trkpt>
      <trkpt lat="43.79434" lon="7.24869">
        <ele>680</ele>
        <time>2014-08-30T12:44:25Z</time>
      </trkpt>
      <trkpt lat="43.79411" lon="7.24856">
        <ele>679</ele>
        <time>2014-08-30T12:44:28Z</time>
      </trkpt>
      <trkpt lat="43.79389" lon="7.24844">
        <ele>679</ele>
        <time>2014-08-30T12:44:31Z</time>
      </trkpt>
      <trkpt lat="43.79369" lon="7.24838">
        <ele>679</ele>
        <time>2014-08-30T12:44:34Z</time>
      </trkpt>
      <trkpt lat="43.79357" lon="7.24837">
        <ele>679</ele>
        <time>2014-08-30T12:44:37Z</time>
      </trkpt>
      <trkpt lat="43.79351" lon="7.24836">
        <ele>679</ele>
        <time>2014-08-30T12:44:40Z</time>
      </trkpt>
      <trkpt lat="43.79342" lon="7.24838">
        <ele>679</ele>
        <time>2014-08-30T12:44:43Z</time>
      </trkpt>
      <trkpt lat="43.79332" lon="7.24834">
        <ele>678</ele>
        <time>2014-08-30T12:44:46Z</time>
      </trkpt>
      <trkpt lat="43.79325" lon="7.24828">
        <ele>677</ele>
        <time>2014-08-30T12:44:49Z</time>
      </trkpt>
      <trkpt lat="43.79313" lon="7.24822">
        <ele>677</ele>
        <time>2014-08-30T12:44:52Z</time>
      </trkpt>
      <trkpt lat="43.79299" lon="7.24809">
        <ele>677</ele>
        <time>2014-08-30T12:44:55Z</time>
      </trkpt>
      <trkpt lat="43.79291" lon="7.24796">
        <ele>677</ele>
        <time>2014-08-30T12:44:58Z</time>
      </trkpt>
      <trkpt lat="43.79287" lon="7.248">
        <ele>675</ele>
        <time>2014-08-30T12:45:01Z</time>
      </trkpt>
      <trkpt lat="43.79275" lon="7.24815">
        <ele>674</ele>
        <time>2014-08-30T12:45:04Z</time>
      </trkpt>
      <trkpt lat="43.79256" lon="7.24828">
        <ele>671</ele>
        <time>2014-08-30T12:45:07Z</time>
      </trkpt>
      <trkpt lat="43.79238" lon="7.24838">
        <ele>670</ele>
        <time>2014-08-30T12:45:10Z</time>
      </trkpt>
      <trkpt lat="43.79227" lon="7.24853">
        <ele>670</ele>
        <time>2014-08-30T12:45:13Z</time>
      </trkpt>
      <trkpt lat="43.79218" lon="7.24864">
        <ele>670</ele>
        <time>2014-08-30T12:45:16Z</time>
      </trkpt>
      <trkpt lat="43.79211" lon="7.2487">
        <ele>670</ele>
        <time>2014-08-30T12:45:19Z</time>
      </trkpt>
      <trkpt lat="43.79203" lon="7.24877">
        <ele>670</ele>
        <time>2014-08-30T12:45:22Z</time>
      </trkpt>
      <trkpt lat="43.79202" lon="7.24887">
        <ele>670</ele>
        <time>2014-08-30T12:45:25Z</time>
      </trkpt>
      <trkpt lat="43.79204" lon="7.24897">
        <ele>670</ele>
        <time>2014-08-30T12:45:28Z</time>
      </trkpt>
      <trkpt lat="43.79204" lon="7.24904">
        <ele>669</ele>
        <time>2014-08-30T12:45:31Z</time>
      </trkpt>
      <trkpt lat="43.79201" lon="7.24916">
        <ele>668</ele>
        <time>2014-08-30T12:45:34Z</time>
      </trkpt>
      <trkpt lat="43.79199" lon="7.24927">
        <ele>666</ele>
        <time>2014-08-30T12:45:37Z</time>
      </trkpt>
      <trkpt lat="43.79203" lon="7.24932">
        <ele>664</ele>
        <time>2014-08-30T12:45:40Z</time>
      </trkpt>
      <trkpt lat="43.79211" lon="7.24932">
        <ele>662</ele>
        <time>2014-08-30T12:45:43Z</time>
      </trkpt>
      <trkpt lat="43.79217" lon="7.24932">
        <ele>660</ele>
        <time>2014-08-30T12:45:46Z</time>
      </trkpt>
      <trkpt lat="43.79216" lon="7.24935">
        <ele>658</ele>
        <time>2014-08-30T12:45:49Z</time>
      </trkpt>
      <trkpt lat="43.79215" lon="7.24939">
        <ele>658</ele>
        <time>2014-08-30T12:45:52Z</time>
      </trkpt>
      <trkpt lat="43.79216" lon="7.24943">
        <ele>657</ele>
        <time>2014-08-30T12:45:55Z</time>
      </trkpt>
      <trkpt lat="43.79214" lon="7.24945">
        <ele>655</ele>
        <time>2014-08-30T12:45:58Z</time>
      </trkpt>
      <trkpt lat="43.79216" lon="7.24947">
        <ele>654</ele>
        <time>2014-08-30T12:46:01Z</time>
      </trkpt>
      <trkpt lat="43.79219" lon="7.24945">
        <ele>653</ele>
        <time>2014-08-30T12:46:04Z</time>
      </trkpt>
      <trkpt lat="43.79225" lon="7.24946">
        <ele>653</ele>
        <time>2014-08-30T12:46:07Z</time>
      </trkpt>
      <trkpt lat="43.79229" lon="7.24945">
        <ele>652</ele>
        <time>2014-08-30T12:46:10Z</time>
      </trkpt>
      <trkpt lat="43.79232" lon="7.24944">
        <ele>651</ele>
        <time>2014-08-30T12:46:13Z</time>
      </trkpt>
      <trkpt lat="43.79234" lon="7.24944">
        <ele>650</ele>
        <time>2014-08-30T12:46:16Z</time>
      </trkpt>
      <trkpt lat="43.79237" lon="7.24946">
        <ele>649</ele>
        <time>2014-08-30T12:46:19Z</time>
      </trkpt>
      <trkpt lat="43.79244" lon="7.2495">
        <ele>647</ele>
        <time>2014-08-30T12:46:22Z</time>
      </trkpt>
      <trkpt lat="43.79251" lon="7.24956">
        <ele>645</ele>
        <time>2014-08-30T12:46:25Z</time>
      </trkpt>
      <trkpt lat="43.79254" lon="7.24965">
        <ele>643</ele>
        <time>2014-08-30T12:46:28Z</time>
      </trkpt>
      <trkpt lat="43.79259" lon="7.2497">
        <ele>640</ele>
        <time>2014-08-30T12:46:31Z</time>
      </trkpt>
      <trkpt lat="43.79258" lon="7.24978">
        <ele>638</ele>
        <time>2014-08-30T12:46:34Z</time>
      </trkpt>
      <trkpt lat="43.79261" lon="7.24985">
        <ele>637</ele>
        <time>2014-08-30T12:46:37Z</time>
      </trkpt>
      <trkpt lat="43.79267" lon="7.24986">
        <ele>634</ele>
        <time>2014-08-30T12:46:40Z</time>
      </trkpt>
      <trkpt lat="43.79267" lon="7.2499">
        <ele>632</ele>
        <time>2014-08-30T12:46:43Z</time>
      </trkpt>
      <trkpt lat="43.79265" lon="7.24995">
        <ele>630</ele>
        <time>2014-08-30T12:46:46Z</time>
      </trkpt>
      <trkpt lat="43.79265" lon="7.25001">
        <ele>629</ele>
        <time>2014-08-30T12:46:49Z</time>
      </trkpt>
      <trkpt lat="43.79264" lon="7.25003">
        <ele>627</ele>
        <time>2014-08-30T12:46:52Z</time>
      </trkpt>
      <trkpt lat="43.79265" lon="7.25003">
        <ele>627</ele>
        <time>2014-08-30T12:46:55Z</time>
      </trkpt>
      <trkpt lat="43.79262" lon="7.25013">
        <ele>626</ele>
        <time>2014-08-30T12:46:58Z</time>
      </trkpt>
      <trkpt lat="43.79254" lon="7.25021">
        <ele>625</ele>
        <time>2014-08-30T12:47:01Z</time>
      </trkpt>
      <trkpt lat="43.79247" lon="7.25028">
        <ele>625</ele>
        <time>2014-08-30T12:47:04Z</time>
      </trkpt>
      <trkpt lat="43.79236" lon="7.2503">
        <ele>625</ele>
        <time>2014-08-30T12:47:07Z</time>
      </trkpt>
      <trkpt lat="43.7923" lon="7.25034">
        <ele>624</ele>
        <time>2014-08-30T12:47:10Z</time>
      </trkpt>
      <trkpt lat="43.79222" lon="7.25036">
        <ele>623</ele>
        <time>2014-08-30T12:47:13Z</time>
      </trkpt>
      <trkpt lat="43.79211" lon="7.25043">
        <ele>623</ele>
        <time>2014-08-30T12:47:16Z</time>
      </trkpt>
      <trkpt lat="43.79204" lon="7.25051">
        <ele>623</ele>
        <time>2014-08-30T12:47:19Z</time>
      </trkpt>
      <trkpt lat="43.79201" lon="7.25056">
        <ele>622</ele>
        <time>2014-08-30T12:47:22Z</time>
      </trkpt>
      <trkpt lat="43.79195" lon="7.25064">
        <ele>621</ele>
        <time>2014-08-30T12:47:25Z</time>
      </trkpt>
      <trkpt lat="43.79188" lon="7.25071">
        <ele>620</ele>
        <time>2014-08-30T12:47:28Z</time>
      </trkpt>
      <trkpt lat="43.79182" lon="7.2508">
        <ele>619</ele>
        <time>2014-08-30T12:47:31Z</time>
      </trkpt>
      <trkpt lat="43.79176" lon="7.25095">
        <ele>618</ele>
        <time>2014-08-30T12:47:34Z</time>
      </trkpt>
      <trkpt lat="43.79168" lon="7.25106">
        <ele>617</ele>
        <time>2014-08-30T12:47:37Z</time>
      </trkpt>
      <trkpt lat="43.79163" lon="7.25117">
        <ele>616</ele>
        <time>2014-08-30T12:47:40Z</time>
      </trkpt>
      <trkpt lat="43.7916" lon="7.25135">
        <ele>615</ele>
        <time>2014-08-30T12:47:44Z</time>
      </trkpt>
      <trkpt lat="43.79154" lon="7.25146">
        <ele>614</ele>
        <time>2014-08-30T12:47:47Z</time>
      </trkpt>
      <trkpt lat="43.79153" lon="7.25155">
        <ele>612</ele>
        <time>2014-08-30T12:47:50Z</time>
      </trkpt>
      <trkpt lat="43.79147" lon="7.25165">
        <ele>611</ele>
        <time>2014-08-30T12:47:53Z</time>
      </trkpt>
      <trkpt lat="43.79144" lon="7.25174">
        <ele>609</ele>
        <time>2014-08-30T12:47:56Z</time>
      </trkpt>
      <trkpt lat="43.7914" lon="7.25181">
        <ele>608</ele>
        <time>2014-08-30T12:47:59Z</time>
      </trkpt>
      <trkpt lat="43.79135" lon="7.25191">
        <ele>607</ele>
        <time>2014-08-30T12:48:02Z</time>
      </trkpt>
      <trkpt lat="43.7913" lon="7.25201">
        <ele>605</ele>
        <time>2014-08-30T12:48:05Z</time>
      </trkpt>
      <trkpt lat="43.79122" lon="7.25208">
        <ele>604</ele>
        <time>2014-08-30T12:48:08Z</time>
      </trkpt>
      <trkpt lat="43.79119" lon="7.2521">
        <ele>603</ele>
        <time>2014-08-30T12:48:11Z</time>
      </trkpt>
      <trkpt lat="43.79117" lon="7.25215">
        <ele>602</ele>
        <time>2014-08-30T12:48:14Z</time>
      </trkpt>
      <trkpt lat="43.7911" lon="7.25222">
        <ele>601</ele>
        <time>2014-08-30T12:48:17Z</time>
      </trkpt>
      <trkpt lat="43.79104" lon="7.25229">
        <ele>599</ele>
        <time>2014-08-30T12:48:20Z</time>
      </trkpt>
      <trkpt lat="43.79097" lon="7.25235">
        <ele>598</ele>
        <time>2014-08-30T12:48:23Z</time>
      </trkpt>
      <trkpt lat="43.79091" lon="7.25234">
        <ele>597</ele>
        <time>2014-08-30T12:48:26Z</time>
      </trkpt>
      <trkpt lat="43.79085" lon="7.25231">
        <ele>596</ele>
        <time>2014-08-30T12:48:29Z</time>
      </trkpt>
      <trkpt lat="43.79078" lon="7.25228">
        <ele>596</ele>
        <time>2014-08-30T12:48:32Z</time>
      </trkpt>
      <trkpt lat="43.7907" lon="7.25225">
        <ele>596</ele>
        <time>2014-08-30T12:48:35Z</time>
      </trkpt>
      <trkpt lat="43.79062" lon="7.25223">
        <ele>596</ele>
        <time>2014-08-30T12:48:38Z</time>
      </trkpt>
      <trkpt lat="43.79059" lon="7.25218">
        <ele>596</ele>
        <time>2014-08-30T12:48:41Z</time>
      </trkpt>
      <trkpt lat="43.79053" lon="7.25216">
        <ele>596</ele>
        <time>2014-08-30T12:48:44Z</time>
      </trkpt>
      <trkpt lat="43.79049" lon="7.2521">
        <ele>596</ele>
        <time>2014-08-30T12:48:47Z</time>
      </trkpt>
      <trkpt lat="43.79045" lon="7.25201">
        <ele>596</ele>
        <time>2014-08-30T12:48:50Z</time>
      </trkpt>
      <trkpt lat="43.79042" lon="7.25195">
        <ele>596</ele>
        <time>2014-08-30T12:48:53Z</time>
      </trkpt>
      <trkpt lat="43.79041" lon="7.25193">
        <ele>596</ele>
        <time>2014-08-30T12:48:56Z</time>
      </trkpt>
      <trkpt lat="43.79036" lon="7.25189">
        <ele>596</ele>
        <time>2014-08-30T12:48:59Z</time>
      </trkpt>
      <trkpt lat="43.7903" lon="7.25177">
        <ele>595</ele>
        <time>2014-08-30T12:49:02Z</time>
      </trkpt>
      <trkpt lat="43.79023" lon="7.25165">
        <ele>594</ele>
        <time>2014-08-30T12:49:05Z</time>
      </trkpt>
      <trkpt lat="43.79013" lon="7.25153">
        <ele>592</ele>
        <time>2014-08-30T12:49:08Z</time>
      </trkpt>
      <trkpt lat="43.79004" lon="7.25139">
        <ele>592</ele>
        <time>2014-08-30T12:49:11Z</time>
      </trkpt>
      <trkpt lat="43.78997" lon="7.25125">
        <ele>592</ele>
        <time>2014-08-30T12:49:14Z</time>
      </trkpt>
      <trkpt lat="43.78989" lon="7.25112">
        <ele>592</ele>
        <time>2014-08-30T12:49:17Z</time>
      </trkpt>
      <trkpt lat="43.78981" lon="7.25099">
        <ele>592</ele>
        <time>2014-08-30T12:49:20Z</time>
      </trkpt>
      <trkpt lat="43.78973" lon="7.25084">
        <ele>592</ele>
        <time>2014-08-30T12:49:23Z</time>
      </trkpt>
      <trkpt lat="43.78966" lon="7.25069">
        <ele>593</ele>
        <time>2014-08-30T12:49:26Z</time>
      </trkpt>
      <trkpt lat="43.78959" lon="7.25053">
        <ele>594</ele>
        <time>2014-08-30T12:49:29Z</time>
      </trkpt>
      <trkpt lat="43.78949" lon="7.2504">
        <ele>594</ele>
        <time>2014-08-30T12:49:32Z</time>
      </trkpt>
      <trkpt lat="43.78935" lon="7.25039">
        <ele>594</ele>
        <time>2014-08-30T12:49:35Z</time>
      </trkpt>
      <trkpt lat="43.78916" lon="7.25046">
        <ele>594</ele>
        <time>2014-08-30T12:49:38Z</time>
      </trkpt>
      <trkpt lat="43.78899" lon="7.25048">
        <ele>594</ele>
        <time>2014-08-30T12:49:41Z</time>
      </trkpt>
      <trkpt lat="43.78882" lon="7.25051">
        <ele>594</ele>
        <time>2014-08-30T12:49:44Z</time>
      </trkpt>
      <trkpt lat="43.78864" lon="7.25055">
        <ele>594</ele>
        <time>2014-08-30T12:49:47Z</time>
      </trkpt>
      <trkpt lat="43.78848" lon="7.25057">
        <ele>594</ele>
        <time>2014-08-30T12:49:50Z</time>
      </trkpt>
      <trkpt lat="43.7883" lon="7.25058">
        <ele>594</ele>
        <time>2014-08-30T12:49:53Z</time>
      </trkpt>
      <trkpt lat="43.78812" lon="7.25058">
        <ele>592</ele>
        <time>2014-08-30T12:49:56Z</time>
      </trkpt>
      <trkpt lat="43.78791" lon="7.25055">
        <ele>591</ele>
        <time>2014-08-30T12:49:59Z</time>
      </trkpt>
      <trkpt lat="43.78768" lon="7.25049">
        <ele>589</ele>
        <time>2014-08-30T12:50:02Z</time>
      </trkpt>
      <trkpt lat="43.78741" lon="7.25048">
        <ele>587</ele>
        <time>2014-08-30T12:50:05Z</time>
      </trkpt>
      <trkpt lat="43.78713" lon="7.25058">
        <ele>585</ele>
        <time>2014-08-30T12:50:08Z</time>
      </trkpt>
      <trkpt lat="43.78691" lon="7.25069">
        <ele>583</ele>
        <time>2014-08-30T12:50:11Z</time>
      </trkpt>
      <trkpt lat="43.7867" lon="7.25075">
        <ele>582</ele>
        <time>2014-08-30T12:50:14Z</time>
      </trkpt>
      <trkpt lat="43.7865" lon="7.25076">
        <ele>582</ele>
        <time>2014-08-30T12:50:17Z</time>
      </trkpt>
      <trkpt lat="43.78633" lon="7.2508">
        <ele>582</ele>
        <time>2014-08-30T12:50:20Z</time>
      </trkpt>
      <trkpt lat="43.78619" lon="7.25083">
        <ele>583</ele>
        <time>2014-08-30T12:50:23Z</time>
      </trkpt>
      <trkpt lat="43.78607" lon="7.25087">
        <ele>584</ele>
        <time>2014-08-30T12:50:26Z</time>
      </trkpt>
      <trkpt lat="43.78594" lon="7.25095">
        <ele>584</ele>
        <time>2014-08-30T12:50:29Z</time>
      </trkpt>
      <trkpt lat="43.7858" lon="7.25102">
        <ele>584</ele>
        <time>2014-08-30T12:50:32Z</time>
      </trkpt>
      <trkpt lat="43.78566" lon="7.25109">
        <ele>584</ele>
        <time>2014-08-30T12:50:35Z</time>
      </trkpt>
      <trkpt lat="43.78555" lon="7.25104">
        <ele>584</ele>
        <time>2014-08-30T12:50:38Z</time>
      </trkpt>
      <trkpt lat="43.78546" lon="7.25098">
        <ele>586</ele>
        <time>2014-08-30T12:50:41Z</time>
      </trkpt>
      <trkpt lat="43.78533" lon="7.25099">
        <ele>587</ele>
        <time>2014-08-30T12:50:44Z</time>
      </trkpt>
      <trkpt lat="43.78519" lon="7.25104">
        <ele>588</ele>
        <time>2014-08-30T12:50:47Z</time>
      </trkpt>
      <trkpt lat="43.78506" lon="7.25115">
        <ele>588</ele>
        <time>2014-08-30T12:50:50Z</time>
      </trkpt>
      <trkpt lat="43.7849" lon="7.25123">
        <ele>588</ele>
        <time>2014-08-30T12:50:53Z</time>
      </trkpt>
      <trkpt lat="43.78474" lon="7.25136">
        <ele>586</ele>
        <time>2014-08-30T12:50:56Z</time>
      </trkpt>
      <trkpt lat="43.78456" lon="7.25148">
        <ele>584</ele>
        <time>2014-08-30T12:50:59Z</time>
      </trkpt>
      <trkpt lat="43.7844" lon="7.25161">
        <ele>581</ele>
        <time>2014-08-30T12:51:02Z</time>
      </trkpt>
      <trkpt lat="43.78424" lon="7.25176">
        <ele>579</ele>
        <time>2014-08-30T12:51:05Z</time>
      </trkpt>
      <trkpt lat="43.78407" lon="7.25193">
        <ele>577</ele>
        <time>2014-08-30T12:51:08Z</time>
      </trkpt>
      <trkpt lat="43.78392" lon="7.25208">
        <ele>576</ele>
        <time>2014-08-30T12:51:11Z</time>
      </trkpt>
      <trkpt lat="43.7838" lon="7.2521">
        <ele>576</ele>
        <time>2014-08-30T12:51:14Z</time>
      </trkpt>
      <trkpt lat="43.7837" lon="7.25208">
        <ele>575</ele>
        <time>2014-08-30T12:51:17Z</time>
      </trkpt>
      <trkpt lat="43.78361" lon="7.252">
        <ele>573</ele>
        <time>2014-08-30T12:51:20Z</time>
      </trkpt>
      <trkpt lat="43.78354" lon="7.25189">
        <ele>571</ele>
        <time>2014-08-30T12:51:23Z</time>
      </trkpt>
      <trkpt lat="43.78359" lon="7.25176">
        <ele>568</ele>
        <time>2014-08-30T12:51:26Z</time>
      </trkpt>
      <trkpt lat="43.7837" lon="7.2516">
        <ele>565</ele>
        <time>2014-08-30T12:51:29Z</time>
      </trkpt>
      <trkpt lat="43.78377" lon="7.25152">
        <ele>564</ele>
        <time>2014-08-30T12:51:32Z</time>
      </trkpt>
      <trkpt lat="43.7837" lon="7.25155">
        <ele>562</ele>
        <time>2014-08-30T12:51:35Z</time>
      </trkpt>
      <trkpt lat="43.78353" lon="7.25164">
        <ele>561</ele>
        <time>2014-08-30T12:51:38Z</time>
      </trkpt>
      <trkpt lat="43.78332" lon="7.25177">
        <ele>559</ele>
        <time>2014-08-30T12:51:41Z</time>
      </trkpt>
      <trkpt lat="43.7831" lon="7.25194">
        <ele>557</ele>
        <time>2014-08-30T12:51:44Z</time>
      </trkpt>
      <trkpt lat="43.78285" lon="7.2521">
        <ele>554</ele>
        <time>2014-08-30T12:51:47Z</time>
      </trkpt>
      <trkpt lat="43.78256" lon="7.25228">
        <ele>551</ele>
        <time>2014-08-30T12:51:50Z</time>
      </trkpt>
      <trkpt lat="43.78227" lon="7.25249">
        <ele>548</ele>
        <time>2014-08-30T12:51:53Z</time>
      </trkpt>
      <trkpt lat="43.78208" lon="7.25259">
        <ele>545</ele>
        <time>2014-08-30T12:51:56Z</time>
      </trkpt>
      <trkpt lat="43.78198" lon="7.2527">
        <ele>543</ele>
        <time>2014-08-30T12:51:59Z</time>
      </trkpt>
      <trkpt lat="43.78192" lon="7.25283">
        <ele>541</ele>
        <time>2014-08-30T12:52:02Z</time>
      </trkpt>
      <trkpt lat="43.78182" lon="7.25275">
        <ele>541</ele>
        <time>2014-08-30T12:52:05Z</time>
      </trkpt>
      <trkpt lat="43.78169" lon="7.25262">
        <ele>541</ele>
        <time>2014-08-30T12:52:08Z</time>
      </trkpt>
      <trkpt lat="43.7816" lon="7.25252">
        <ele>542</ele>
        <time>2014-08-30T12:52:11Z</time>
      </trkpt>
      <trkpt lat="43.78156" lon="7.25242">
        <ele>544</ele>
        <time>2014-08-30T12:52:14Z</time>
      </trkpt>
      <trkpt lat="43.78157" lon="7.25231">
        <ele>546</ele>
        <time>2014-08-30T12:52:17Z</time>
      </trkpt>
      <trkpt lat="43.78161" lon="7.25222">
        <ele>547</ele>
        <time>2014-08-30T12:52:20Z</time>
      </trkpt>
      <trkpt lat="43.78172" lon="7.25209">
        <ele>548</ele>
        <time>2014-08-30T12:52:23Z</time>
      </trkpt>
      <trkpt lat="43.78188" lon="7.25186">
        <ele>547</ele>
        <time>2014-08-30T12:52:26Z</time>
      </trkpt>
      <trkpt lat="43.78203" lon="7.2516">
        <ele>544</ele>
        <time>2014-08-30T12:52:29Z</time>
      </trkpt>
      <trkpt lat="43.78214" lon="7.25133">
        <ele>542</ele>
        <time>2014-08-30T12:52:32Z</time>
      </trkpt>
      <trkpt lat="43.78224" lon="7.25112">
        <ele>540</ele>
        <time>2014-08-30T12:52:35Z</time>
      </trkpt>
      <trkpt lat="43.78228" lon="7.25103">
        <ele>539</ele>
        <time>2014-08-30T12:52:38Z</time>
      </trkpt>
      <trkpt lat="43.78228" lon="7.25101">
        <ele>539</ele>
        <time>2014-08-30T12:52:41Z</time>
      </trkpt>
      <trkpt lat="43.7823" lon="7.25095">
        <ele>539</ele>
        <time>2014-08-30T12:52:44Z</time>
      </trkpt>
      <trkpt lat="43.78227" lon="7.25089">
        <ele>540</ele>
        <time>2014-08-30T12:52:47Z</time>
      </trkpt>
      <trkpt lat="43.78223" lon="7.25083">
        <ele>541</ele>
        <time>2014-08-30T12:52:50Z</time>
      </trkpt>
      <trkpt lat="43.78223" lon="7.25079">
        <ele>542</ele>
        <time>2014-08-30T12:52:53Z</time>
      </trkpt>
      <trkpt lat="43.78224" lon="7.25075">
        <ele>543</ele>
        <time>2014-08-30T12:52:56Z</time>
      </trkpt>
      <trkpt lat="43.78225" lon="7.25073">
        <ele>543</ele>
        <time>2014-08-30T12:52:59Z</time>
      </trkpt>
      <trkpt lat="43.78224" lon="7.25074">
        <ele>543</ele>
        <time>2014-08-30T12:53:02Z</time>
      </trkpt>
      <trkpt lat="43.78223" lon="7.25072">
        <ele>543</ele>
        <time>2014-08-30T12:53:05Z</time>
      </trkpt>
      <trkpt lat="43.78222" lon="7.25067">
        <ele>544</ele>
        <time>2014-08-30T12:53:08Z</time>
      </trkpt>
      <trkpt lat="43.78221" lon="7.25062">
        <ele>545</ele>
        <time>2014-08-30T12:53:11Z</time>
      </trkpt>
      <trkpt lat="43.78221" lon="7.25058">
        <ele>545</ele>
        <time>2014-08-30T12:53:14Z</time>
      </trkpt>
      <trkpt lat="43.78222" lon="7.25053">
        <ele>546</ele>
        <time>2014-08-30T12:53:17Z</time>
      </trkpt>
      <trkpt lat="43.78221" lon="7.25047">
        <ele>547</ele>
        <time>2014-08-30T12:53:20Z</time>
      </trkpt>
      <trkpt lat="43.78221" lon="7.25042">
        <ele>547</ele>
        <time>2014-08-30T12:53:23Z</time>
      </trkpt>
      <trkpt lat="43.7822" lon="7.25038">
        <ele>547</ele>
        <time>2014-08-30T12:53:26Z</time>
      </trkpt>
      <trkpt lat="43.78221" lon="7.25033">
        <ele>547</ele>
        <time>2014-08-30T12:53:29Z</time>
      </trkpt>
      <trkpt lat="43.78221" lon="7.25029">
        <ele>548</ele>
        <time>2014-08-30T12:53:32Z</time>
      </trkpt>
      <trkpt lat="43.7822" lon="7.25025">
        <ele>549</ele>
        <time>2014-08-30T12:53:35Z</time>
      </trkpt>
      <trkpt lat="43.7822" lon="7.25022">
        <ele>549</ele>
        <time>2014-08-30T12:53:38Z</time>
      </trkpt>
      <trkpt lat="43.7822" lon="7.25019">
        <ele>550</ele>
        <time>2014-08-30T12:53:41Z</time>
      </trkpt>
      <trkpt lat="43.78219" lon="7.25015">
        <ele>551</ele>
        <time>2014-08-30T12:53:44Z</time>
      </trkpt>
      <trkpt lat="43.7822" lon="7.25011">
        <ele>551</ele>
        <time>2014-08-30T12:53:47Z</time>
      </trkpt>
      <trkpt lat="43.78219" lon="7.25007">
        <ele>552</ele>
        <time>2014-08-30T12:53:50Z</time>
      </trkpt>
      <trkpt lat="43.78218" lon="7.25004">
        <ele>553</ele>
        <time>2014-08-30T12:53:53Z</time>
      </trkpt>
      <trkpt lat="43.78218" lon="7.25001">
        <ele>554</ele>
        <time>2014-08-30T12:53:56Z</time>
      </trkpt>
      <trkpt lat="43.78215" lon="7.24999">
        <ele>554</ele>
        <time>2014-08-30T12:53:59Z</time>
      </trkpt>
      <trkpt lat="43.78214" lon="7.24995">
        <ele>555</ele>
        <time>2014-08-30T12:54:02Z</time>
      </trkpt>
      <trkpt lat="43.78213" lon="7.24991">
        <ele>556</ele>
        <time>2014-08-30T12:54:05Z</time>
      </trkpt>
      <trkpt lat="43.78213" lon="7.24988">
        <ele>556</ele>
        <time>2014-08-30T12:54:08Z</time>
      </trkpt>
      <trkpt lat="43.78213" lon="7.24985">
        <ele>556</ele>
        <time>2014-08-30T12:54:11Z</time>
      </trkpt>
      <trkpt lat="43.78212" lon="7.24982">
        <ele>557</ele>
        <time>2014-08-30T12:54:14Z</time>
      </trkpt>
      <trkpt lat="43.78211" lon="7.24977">
        <ele>558</ele>
        <time>2014-08-30T12:54:17Z</time>
      </trkpt>
      <trkpt lat="43.78211" lon="7.24973">
        <ele>558</ele>
        <time>2014-08-30T12:54:20Z</time>
      </trkpt>
      <trkpt lat="43.7821" lon="7.24969">
        <ele>558</ele>
        <time>2014-08-30T12:54:23Z</time>
      </trkpt>
      <trkpt lat="43.7821" lon="7.24965">
        <ele>560</ele>
        <time>2014-08-30T12:54:26Z</time>
      </trkpt>
      <trkpt lat="43.7821" lon="7.24962">
        <ele>560</ele>
        <time>2014-08-30T12:54:29Z</time>
      </trkpt>
      <trkpt lat="43.78208" lon="7.24959">
        <ele>560</ele>
        <time>2014-08-30T12:54:32Z</time>
      </trkpt>
      <trkpt lat="43.78208" lon="7.24956">
        <ele>561</ele>
        <time>2014-08-30T12:54:35Z</time>
      </trkpt>
      <trkpt lat="43.78207" lon="7.24953">
        <ele>562</ele>
        <time>2014-08-30T12:54:38Z</time>
      </trkpt>
      <trkpt lat="43.78202" lon="7.24951">
        <ele>562</ele>
        <time>2014-08-30T12:54:41Z</time>
      </trkpt>
      <trkpt lat="43.78199" lon="7.24947">
        <ele>563</ele>
        <time>2014-08-30T12:54:44Z</time>
      </trkpt>
      <trkpt lat="43.78196" lon="7.24947">
        <ele>564</ele>
        <time>2014-08-30T12:54:47Z</time>
      </trkpt>
      <trkpt lat="43.78194" lon="7.24945">
        <ele>564</ele>
        <time>2014-08-30T12:54:50Z</time>
      </trkpt>
      <trkpt lat="43.78192" lon="7.24941">
        <ele>565</ele>
        <time>2014-08-30T12:54:53Z</time>
      </trkpt>
      <trkpt lat="43.7819" lon="7.24937">
        <ele>566</ele>
        <time>2014-08-30T12:54:56Z</time>
      </trkpt>
      <trkpt lat="43.78188" lon="7.24934">
        <ele>566</ele>
        <time>2014-08-30T12:54:59Z</time>
      </trkpt>
      <trkpt lat="43.78185" lon="7.2493">
        <ele>566</ele>
        <time>2014-08-30T12:55:02Z</time>
      </trkpt>
      <trkpt lat="43.78182" lon="7.24927">
        <ele>568</ele>
        <time>2014-08-30T12:55:05Z</time>
      </trkpt>
      <trkpt lat="43.78179" lon="7.24924">
        <ele>568</ele>
        <time>2014-08-30T12:55:08Z</time>
      </trkpt>
      <trkpt lat="43.78176" lon="7.2492">
        <ele>568</ele>
        <time>2014-08-30T12:55:11Z</time>
      </trkpt>
      <trkpt lat="43.78172" lon="7.24916">
        <ele>568</ele>
        <time>2014-08-30T12:55:14Z</time>
      </trkpt>
      <trkpt lat="43.7817" lon="7.24913">
        <ele>568</ele>
        <time>2014-08-30T12:55:17Z</time>
      </trkpt>
      <trkpt lat="43.78167" lon="7.2491">
        <ele>568</ele>
        <time>2014-08-30T12:55:20Z</time>
      </trkpt>
      <trkpt lat="43.78163" lon="7.24909">
        <ele>570</ele>
        <time>2014-08-30T12:55:23Z</time>
      </trkpt>
      <trkpt lat="43.78159" lon="7.24905">
        <ele>570</ele>
        <time>2014-08-30T12:55:26Z</time>
      </trkpt>
      <trkpt lat="43.78155" lon="7.24902">
        <ele>570</ele>
        <time>2014-08-30T12:55:29Z</time>
      </trkpt>
      <trkpt lat="43.78153" lon="7.24901">
        <ele>570</ele>
        <time>2014-08-30T12:55:32Z</time>
      </trkpt>
      <trkpt lat="43.7815" lon="7.249">
        <ele>570</ele>
        <time>2014-08-30T12:55:35Z</time>
      </trkpt>
      <trkpt lat="43.78145" lon="7.24899">
        <ele>571</ele>
        <time>2014-08-30T12:55:38Z</time>
      </trkpt>
      <trkpt lat="43.78141" lon="7.24895">
        <ele>572</ele>
        <time>2014-08-30T12:55:41Z</time>
      </trkpt>
      <trkpt lat="43.78139" lon="7.24893">
        <ele>572</ele>
        <time>2014-08-30T12:55:44Z</time>
      </trkpt>
      <trkpt lat="43.78135" lon="7.24891">
        <ele>572</ele>
        <time>2014-08-30T12:55:47Z</time>
      </trkpt>
      <trkpt lat="43.7813" lon="7.2489">
        <ele>572</ele>
        <time>2014-08-30T12:55:50Z</time>
      </trkpt>
      <trkpt lat="43.78127" lon="7.24887">
        <ele>574</ele>
        <time>2014-08-30T12:55:53Z</time>
      </trkpt>
      <trkpt lat="43.78124" lon="7.24884">
        <ele>574</ele>
        <time>2014-08-30T12:55:56Z</time>
      </trkpt>
      <trkpt lat="43.78119" lon="7.24882">
        <ele>574</ele>
        <time>2014-08-30T12:55:59Z</time>
      </trkpt>
      <trkpt lat="43.78117" lon="7.24884">
        <ele>574</ele>
        <time>2014-08-30T12:56:02Z</time>
      </trkpt>
      <trkpt lat="43.78115" lon="7.24885">
        <ele>574</ele>
        <time>2014-08-30T12:56:05Z</time>
      </trkpt>
      <trkpt lat="43.78112" lon="7.24884">
        <ele>576</ele>
        <time>2014-08-30T12:56:08Z</time>
      </trkpt>
      <trkpt lat="43.78107" lon="7.24882">
        <ele>576</ele>
        <time>2014-08-30T12:56:11Z</time>
      </trkpt>
      <trkpt lat="43.78104" lon="7.2488">
        <ele>576</ele>
        <time>2014-08-30T12:56:14Z</time>
      </trkpt>
      <trkpt lat="43.78101" lon="7.24879">
        <ele>577</ele>
        <time>2014-08-30T12:56:17Z</time>
      </trkpt>
      <trkpt lat="43.78097" lon="7.24879">
        <ele>578</ele>
        <time>2014-08-30T12:56:20Z</time>
      </trkpt>
      <trkpt lat="43.78095" lon="7.24878">
        <ele>579</ele>
        <time>2014-08-30T12:56:23Z</time>
      </trkpt>
      <trkpt lat="43.78093" lon="7.24879">
        <ele>579</ele>
        <time>2014-08-30T12:56:26Z</time>
      </trkpt>
      <trkpt lat="43.78092" lon="7.24881">
        <ele>579</ele>
        <time>2014-08-30T12:56:29Z</time>
      </trkpt>
      <trkpt lat="43.78089" lon="7.24883">
        <ele>580</ele>
        <time>2014-08-30T12:56:32Z</time>
      </trkpt>
      <trkpt lat="43.78088" lon="7.24885">
        <ele>581</ele>
        <time>2014-08-30T12:56:35Z</time>
      </trkpt>
      <trkpt lat="43.78085" lon="7.24886">
        <ele>581</ele>
        <time>2014-08-30T12:56:38Z</time>
      </trkpt>
      <trkpt lat="43.78082" lon="7.24886">
        <ele>581</ele>
        <time>2014-08-30T12:56:41Z</time>
      </trkpt>
      <trkpt lat="43.7808" lon="7.24886">
        <ele>582</ele>
        <time>2014-08-30T12:56:44Z</time>
      </trkpt>
      <trkpt lat="43.78079" lon="7.24885">
        <ele>583</ele>
        <time>2014-08-30T12:56:47Z</time>
      </trkpt>
      <trkpt lat="43.78077" lon="7.24884">
        <ele>583</ele>
        <time>2014-08-30T12:56:50Z</time>
      </trkpt>
      <trkpt lat="43.78074" lon="7.24885">
        <ele>583</ele>
        <time>2014-08-30T12:56:53Z</time>
      </trkpt>
      <trkpt lat="43.78071" lon="7.24887">
        <ele>584</ele>
        <time>2014-08-30T12:56:56Z</time>
      </trkpt>
      <trkpt lat="43.78069" lon="7.24889">
        <ele>585</ele>
        <time>2014-08-30T12:56:59Z</time>
      </trkpt>
      <trkpt lat="43.78067" lon="7.2489">
        <ele>585</ele>
        <time>2014-08-30T12:57:02Z</time>
      </trkpt>
      <trkpt lat="43.78068" lon="7.24889">
        <ele>585</ele>
        <time>2014-08-30T12:57:05Z</time>
      </trkpt>
      <trkpt lat="43.78066" lon="7.24889">
        <ele>586</ele>
        <time>2014-08-30T12:57:08Z</time>
      </trkpt>
      <trkpt lat="43.78063" lon="7.24889">
        <ele>588</ele>
        <time>2014-08-30T12:57:11Z</time>
      </trkpt>
      <trkpt lat="43.78061" lon="7.24888">
        <ele>588</ele>
        <time>2014-08-30T12:57:14Z</time>
      </trkpt>
      <trkpt lat="43.78058" lon="7.24888">
        <ele>588</ele>
        <time>2014-08-30T12:57:17Z</time>
      </trkpt>
      <trkpt lat="43.78054" lon="7.24886">
        <ele>589</ele>
        <time>2014-08-30T12:57:20Z</time>
      </trkpt>
      <trkpt lat="43.7805" lon="7.24885">
        <ele>590</ele>
        <time>2014-08-30T12:57:23Z</time>
      </trkpt>
      <trkpt lat="43.78048" lon="7.24884">
        <ele>590</ele>
        <time>2014-08-30T12:57:26Z</time>
      </trkpt>
      <trkpt lat="43.78048" lon="7.24885">
        <ele>590</ele>
        <time>2014-08-30T12:57:29Z</time>
      </trkpt>
      <trkpt lat="43.78048" lon="7.24884">
        <ele>590</ele>
        <time>2014-08-30T12:57:32Z</time>
      </trkpt>
      <trkpt lat="43.78047" lon="7.24883">
        <ele>590</ele>
        <time>2014-08-30T12:57:35Z</time>
      </trkpt>
      <trkpt lat="43.78046" lon="7.24883">
        <ele>592</ele>
        <time>2014-08-30T12:57:38Z</time>
      </trkpt>
      <trkpt lat="43.78045" lon="7.24882">
        <ele>592</ele>
        <time>2014-08-30T12:57:41Z</time>
      </trkpt>
      <trkpt lat="43.78041" lon="7.24882">
        <ele>592</ele>
        <time>2014-08-30T12:57:44Z</time>
      </trkpt>
      <trkpt lat="43.78038" lon="7.24884">
        <ele>592</ele>
        <time>2014-08-30T12:57:47Z</time>
      </trkpt>
      <trkpt lat="43.78035" lon="7.24886">
        <ele>593</ele>
        <time>2014-08-30T12:57:50Z</time>
      </trkpt>
      <trkpt lat="43.78032" lon="7.24887">
        <ele>594</ele>
        <time>2014-08-30T12:57:53Z</time>
      </trkpt>
      <trkpt lat="43.7803" lon="7.24885">
        <ele>594</ele>
        <time>2014-08-30T12:57:56Z</time>
      </trkpt>
      <trkpt lat="43.78028" lon="7.24884">
        <ele>594</ele>
        <time>2014-08-30T12:57:59Z</time>
      </trkpt>
      <trkpt lat="43.78024" lon="7.24884">
        <ele>595</ele>
        <time>2014-08-30T12:58:02Z</time>
      </trkpt>
      <trkpt lat="43.78021" lon="7.24886">
        <ele>596</ele>
        <time>2014-08-30T12:58:05Z</time>
      </trkpt>
      <trkpt lat="43.78018" lon="7.24887">
        <ele>597</ele>
        <time>2014-08-30T12:58:08Z</time>
      </trkpt>
      <trkpt lat="43.78016" lon="7.24886">
        <ele>598</ele>
        <time>2014-08-30T12:58:11Z</time>
      </trkpt>
      <trkpt lat="43.78013" lon="7.24886">
        <ele>598</ele>
        <time>2014-08-30T12:58:14Z</time>
      </trkpt>
      <trkpt lat="43.78011" lon="7.24884">
        <ele>598</ele>
        <time>2014-08-30T12:58:17Z</time>
      </trkpt>
      <trkpt lat="43.78009" lon="7.24882">
        <ele>598</ele>
        <time>2014-08-30T12:58:20Z</time>
      </trkpt>
      <trkpt lat="43.78007" lon="7.2488">
        <ele>598</ele>
        <time>2014-08-30T12:58:23Z</time>
      </trkpt>
      <trkpt lat="43.78" lon="7.24878">
        <ele>598</ele>
        <time>2014-08-30T12:58:26Z</time>
      </trkpt>
      <trkpt lat="43.77992" lon="7.24876">
        <ele>598</ele>
        <time>2014-08-30T12:58:29Z</time>
      </trkpt>
      <trkpt lat="43.77988" lon="7.24876">
        <ele>598</ele>
        <time>2014-08-30T12:58:32Z</time>
      </trkpt>
      <trkpt lat="43.77986" lon="7.24872">
        <ele>598</ele>
        <time>2014-08-30T12:58:35Z</time>
      </trkpt>
      <trkpt lat="43.77984" lon="7.24867">
        <ele>599</ele>
        <time>2014-08-30T12:58:38Z</time>
      </trkpt>
      <trkpt lat="43.77984" lon="7.24862">
        <ele>600</ele>
        <time>2014-08-30T12:58:41Z</time>
      </trkpt>
      <trkpt lat="43.77983" lon="7.24857">
        <ele>600</ele>
        <time>2014-08-30T12:58:44Z</time>
      </trkpt>
      <trkpt lat="43.77983" lon="7.24853">
        <ele>600</ele>
        <time>2014-08-30T12:58:47Z</time>
      </trkpt>
      <trkpt lat="43.77983" lon="7.24849">
        <ele>600</ele>
        <time>2014-08-30T12:58:50Z</time>
      </trkpt>
      <trkpt lat="43.77982" lon="7.24845">
        <ele>600</ele>
        <time>2014-08-30T12:58:53Z</time>
      </trkpt>
      <trkpt lat="43.77981" lon="7.2484">
        <ele>600</ele>
        <time>2014-08-30T12:58:56Z</time>
      </trkpt>
      <trkpt lat="43.77979" lon="7.24835">
        <ele>601</ele>
        <time>2014-08-30T12:58:59Z</time>
      </trkpt>
      <trkpt lat="43.77978" lon="7.24832">
        <ele>602</ele>
        <time>2014-08-30T12:59:02Z</time>
      </trkpt>
      <trkpt lat="43.77977" lon="7.24828">
        <ele>602</ele>
        <time>2014-08-30T12:59:05Z</time>
      </trkpt>
      <trkpt lat="43.77976" lon="7.24824">
        <ele>603</ele>
        <time>2014-08-30T12:59:08Z</time>
      </trkpt>
      <trkpt lat="43.77976" lon="7.24819">
        <ele>605</ele>
        <time>2014-08-30T12:59:11Z</time>
      </trkpt>
      <trkpt lat="43.77976" lon="7.24816">
        <ele>605</ele>
        <time>2014-08-30T12:59:14Z</time>
      </trkpt>
      <trkpt lat="43.77974" lon="7.24816">
        <ele>605</ele>
        <time>2014-08-30T12:59:17Z</time>
      </trkpt>
      <trkpt lat="43.77973" lon="7.24815">
        <ele>606</ele>
        <time>2014-08-30T12:59:20Z</time>
      </trkpt>
      <trkpt lat="43.77972" lon="7.24815">
        <ele>607</ele>
        <time>2014-08-30T12:59:23Z</time>
      </trkpt>
      <trkpt lat="43.7797" lon="7.24814">
        <ele>607</ele>
        <time>2014-08-30T12:59:26Z</time>
      </trkpt>
      <trkpt lat="43.77969" lon="7.24813">
        <ele>609</ele>
        <time>2014-08-30T12:59:29Z</time>
      </trkpt>
      <trkpt lat="43.77968" lon="7.24812">
        <ele>609</ele>
        <time>2014-08-30T12:59:32Z</time>
      </trkpt>
      <trkpt lat="43.77967" lon="7.24811">
        <ele>609</ele>
        <time>2014-08-30T12:59:35Z</time>
      </trkpt>
      <trkpt lat="43.77965" lon="7.24809">
        <ele>609</ele>
        <time>2014-08-30T12:59:38Z</time>
      </trkpt>
      <trkpt lat="43.77964" lon="7.24807">
        <ele>611</ele>
        <time>2014-08-30T12:59:41Z</time>
      </trkpt>
      <trkpt lat="43.77961" lon="7.24805">
        <ele>611</ele>
        <time>2014-08-30T12:59:44Z</time>
      </trkpt>
      <trkpt lat="43.7796" lon="7.24805">
        <ele>611</ele>
        <time>2014-08-30T12:59:47Z</time>
      </trkpt>
      <trkpt lat="43.7796" lon="7.24807">
        <ele>611</ele>
        <time>2014-08-30T12:59:50Z</time>
      </trkpt>
      <trkpt lat="43.77959" lon="7.2481">
        <ele>611</ele>
        <time>2014-08-30T12:59:53Z</time>
      </trkpt>
      <trkpt lat="43.77958" lon="7.24812">
        <ele>613</ele>
        <time>2014-08-30T12:59:56Z</time>
      </trkpt>
      <trkpt lat="43.77956" lon="7.24815">
        <ele>614</ele>
        <time>2014-08-30T12:59:59Z</time>
      </trkpt>
      <trkpt lat="43.77954" lon="7.24819">
        <ele>614</ele>
        <time>2014-08-30T13:00:02Z</time>
      </trkpt>
      <trkpt lat="43.77953" lon="7.24823">
        <ele>614</ele>
        <time>2014-08-30T13:00:05Z</time>
      </trkpt>
      <trkpt lat="43.77952" lon="7.24826">
        <ele>614</ele>
        <time>2014-08-30T13:00:08Z</time>
      </trkpt>
      <trkpt lat="43.77949" lon="7.24824">
        <ele>615</ele>
        <time>2014-08-30T13:00:11Z</time>
      </trkpt>
      <trkpt lat="43.77945" lon="7.2482">
        <ele>616</ele>
        <time>2014-08-30T13:00:14Z</time>
      </trkpt>
      <trkpt lat="43.77943" lon="7.24818">
        <ele>616</ele>
        <time>2014-08-30T13:00:17Z</time>
      </trkpt>
      <trkpt lat="43.77943" lon="7.24823">
        <ele>616</ele>
        <time>2014-08-30T13:00:20Z</time>
      </trkpt>
      <trkpt lat="43.77942" lon="7.24824">
        <ele>618</ele>
        <time>2014-08-30T13:00:23Z</time>
      </trkpt>
      <trkpt lat="43.77939" lon="7.24822">
        <ele>618</ele>
        <time>2014-08-30T13:00:26Z</time>
      </trkpt>
      <trkpt lat="43.77936" lon="7.24821">
        <ele>619</ele>
        <time>2014-08-30T13:00:29Z</time>
      </trkpt>
      <trkpt lat="43.77934" lon="7.24817">
        <ele>620</ele>
        <time>2014-08-30T13:00:32Z</time>
      </trkpt>
      <trkpt lat="43.77934" lon="7.24814">
        <ele>620</ele>
        <time>2014-08-30T13:00:35Z</time>
      </trkpt>
      <trkpt lat="43.77933" lon="7.24812">
        <ele>620</ele>
        <time>2014-08-30T13:00:38Z</time>
      </trkpt>
      <trkpt lat="43.77932" lon="7.24812">
        <ele>620</ele>
        <time>2014-08-30T13:00:41Z</time>
      </trkpt>
      <trkpt lat="43.77929" lon="7.24812">
        <ele>621</ele>
        <time>2014-08-30T13:00:44Z</time>
      </trkpt>
      <trkpt lat="43.77927" lon="7.24813">
        <ele>622</ele>
        <time>2014-08-30T13:00:47Z</time>
      </trkpt>
      <trkpt lat="43.77925" lon="7.24815">
        <ele>622</ele>
        <time>2014-08-30T13:00:50Z</time>
      </trkpt>
      <trkpt lat="43.77923" lon="7.24815">
        <ele>622</ele>
        <time>2014-08-30T13:00:53Z</time>
      </trkpt>
      <trkpt lat="43.77921" lon="7.24813">
        <ele>624</ele>
        <time>2014-08-30T13:00:56Z</time>
      </trkpt>
      <trkpt lat="43.77919" lon="7.2481">
        <ele>624</ele>
        <time>2014-08-30T13:00:59Z</time>
      </trkpt>
      <trkpt lat="43.77917" lon="7.24807">
        <ele>624</ele>
        <time>2014-08-30T13:01:02Z</time>
      </trkpt>
      <trkpt lat="43.77916" lon="7.24803">
        <ele>624</ele>
        <time>2014-08-30T13:01:05Z</time>
      </trkpt>
      <trkpt lat="43.77914" lon="7.24803">
        <ele>625</ele>
        <time>2014-08-30T13:01:08Z</time>
      </trkpt>
      <trkpt lat="43.77913" lon="7.24806">
        <ele>627</ele>
        <time>2014-08-30T13:01:11Z</time>
      </trkpt>
      <trkpt lat="43.77912" lon="7.24809">
        <ele>627</ele>
        <time>2014-08-30T13:01:14Z</time>
      </trkpt>
      <trkpt lat="43.7791" lon="7.24812">
        <ele>627</ele>
        <time>2014-08-30T13:01:17Z</time>
      </trkpt>
      <trkpt lat="43.77908" lon="7.24814">
        <ele>627</ele>
        <time>2014-08-30T13:01:20Z</time>
      </trkpt>
      <trkpt lat="43.77905" lon="7.24816">
        <ele>628</ele>
        <time>2014-08-30T13:01:23Z</time>
      </trkpt>
      <trkpt lat="43.77902" lon="7.24818">
        <ele>629</ele>
        <time>2014-08-30T13:01:26Z</time>
      </trkpt>
      <trkpt lat="43.779" lon="7.24819">
        <ele>629</ele>
        <time>2014-08-30T13:01:29Z</time>
      </trkpt>
      <trkpt lat="43.77897" lon="7.2482">
        <ele>629</ele>
        <time>2014-08-30T13:01:32Z</time>
      </trkpt>
      <trkpt lat="43.77895" lon="7.24821">
        <ele>630</ele>
        <time>2014-08-30T13:01:35Z</time>
      </trkpt>
      <trkpt lat="43.77891" lon="7.24823">
        <ele>631</ele>
        <time>2014-08-30T13:01:38Z</time>
      </trkpt>
      <trkpt lat="43.77888" lon="7.24825">
        <ele>631</ele>
        <time>2014-08-30T13:01:41Z</time>
      </trkpt>
      <trkpt lat="43.77886" lon="7.24827">
        <ele>632</ele>
        <time>2014-08-30T13:01:44Z</time>
      </trkpt>
      <trkpt lat="43.77885" lon="7.24829">
        <ele>633</ele>
        <time>2014-08-30T13:01:47Z</time>
      </trkpt>
      <trkpt lat="43.77884" lon="7.24831">
        <ele>633</ele>
        <time>2014-08-30T13:01:50Z</time>
      </trkpt>
      <trkpt lat="43.77883" lon="7.24834">
        <ele>633</ele>
        <time>2014-08-30T13:01:53Z</time>
      </trkpt>
      <trkpt lat="43.77882" lon="7.24835">
        <ele>633</ele>
        <time>2014-08-30T13:01:56Z</time>
      </trkpt>
      <trkpt lat="43.7788" lon="7.24837">
        <ele>633</ele>
        <time>2014-08-30T13:01:59Z</time>
      </trkpt>
      <trkpt lat="43.7788" lon="7.24836">
        <ele>633</ele>
        <time>2014-08-30T13:02:05Z</time>
      </trkpt>
      <trkpt lat="43.77878" lon="7.24836">
        <ele>635</ele>
        <time>2014-08-30T13:02:08Z</time>
      </trkpt>
      <trkpt lat="43.77876" lon="7.24838">
        <ele>635</ele>
        <time>2014-08-30T13:02:11Z</time>
      </trkpt>
      <trkpt lat="43.77872" lon="7.24839">
        <ele>635</ele>
        <time>2014-08-30T13:02:14Z</time>
      </trkpt>
      <trkpt lat="43.7787" lon="7.2484">
        <ele>635</ele>
        <time>2014-08-30T13:02:17Z</time>
      </trkpt>
      <trkpt lat="43.77867" lon="7.24841">
        <ele>637</ele>
        <time>2014-08-30T13:02:20Z</time>
      </trkpt>
      <trkpt lat="43.77864" lon="7.24842">
        <ele>638</ele>
        <time>2014-08-30T13:02:23Z</time>
      </trkpt>
      <trkpt lat="43.77862" lon="7.24843">
        <ele>638</ele>
        <time>2014-08-30T13:02:26Z</time>
      </trkpt>
      <trkpt lat="43.77861" lon="7.24845">
        <ele>638</ele>
        <time>2014-08-30T13:02:29Z</time>
      </trkpt>
      <trkpt lat="43.77859" lon="7.24849">
        <ele>638</ele>
        <time>2014-08-30T13:02:32Z</time>
      </trkpt>
      <trkpt lat="43.77857" lon="7.24851">
        <ele>640</ele>
        <time>2014-08-30T13:02:35Z</time>
      </trkpt>
      <trkpt lat="43.77856" lon="7.24853">
        <ele>640</ele>
        <time>2014-08-30T13:02:38Z</time>
      </trkpt>
      <trkpt lat="43.77854" lon="7.24855">
        <ele>640</ele>
        <time>2014-08-30T13:02:41Z</time>
      </trkpt>
      <trkpt lat="43.77852" lon="7.24858">
        <ele>640</ele>
        <time>2014-08-30T13:02:44Z</time>
      </trkpt>
      <trkpt lat="43.7785" lon="7.24861">
        <ele>642</ele>
        <time>2014-08-30T13:02:47Z</time>
      </trkpt>
      <trkpt lat="43.77848" lon="7.24864">
        <ele>642</ele>
        <time>2014-08-30T13:02:50Z</time>
      </trkpt>
      <trkpt lat="43.77846" lon="7.24865">
        <ele>642</ele>
        <time>2014-08-30T13:02:53Z</time>
      </trkpt>
      <trkpt lat="43.77843" lon="7.24866">
        <ele>644</ele>
        <time>2014-08-30T13:02:56Z</time>
      </trkpt>
      <trkpt lat="43.77841" lon="7.24866">
        <ele>644</ele>
        <time>2014-08-30T13:02:59Z</time>
      </trkpt>
      <trkpt lat="43.7784" lon="7.24866">
        <ele>644</ele>
        <time>2014-08-30T13:03:02Z</time>
      </trkpt>
      <trkpt lat="43.7784" lon="7.24865">
        <ele>644</ele>
        <time>2014-08-30T13:03:05Z</time>
      </trkpt>
      <trkpt lat="43.77839" lon="7.24866">
        <ele>644</ele>
        <time>2014-08-30T13:03:11Z</time>
      </trkpt>
      <trkpt lat="43.77836" lon="7.24866">
        <ele>644</ele>
        <time>2014-08-30T13:03:14Z</time>
      </trkpt>
      <trkpt lat="43.77832" lon="7.24867">
        <ele>646</ele>
        <time>2014-08-30T13:03:17Z</time>
      </trkpt>
      <trkpt lat="43.7783" lon="7.24868">
        <ele>646</ele>
        <time>2014-08-30T13:03:20Z</time>
      </trkpt>
      <trkpt lat="43.77827" lon="7.24869">
        <ele>647</ele>
        <time>2014-08-30T13:03:23Z</time>
      </trkpt>
      <trkpt lat="43.77825" lon="7.24871">
        <ele>648</ele>
        <time>2014-08-30T13:03:26Z</time>
      </trkpt>
      <trkpt lat="43.77823" lon="7.24873">
        <ele>648</ele>
        <time>2014-08-30T13:03:29Z</time>
      </trkpt>
      <trkpt lat="43.77821" lon="7.24875">
        <ele>648</ele>
        <time>2014-08-30T13:03:32Z</time>
      </trkpt>
      <trkpt lat="43.77818" lon="7.24877">
        <ele>648</ele>
        <time>2014-08-30T13:03:35Z</time>
      </trkpt>
      <trkpt lat="43.77816" lon="7.2488">
        <ele>649</ele>
        <time>2014-08-30T13:03:38Z</time>
      </trkpt>
      <trkpt lat="43.77814" lon="7.24882">
        <ele>651</ele>
        <time>2014-08-30T13:03:41Z</time>
      </trkpt>
      <trkpt lat="43.77811" lon="7.2488">
        <ele>651</ele>
        <time>2014-08-30T13:03:44Z</time>
      </trkpt>
      <trkpt lat="43.77808" lon="7.24877">
        <ele>651</ele>
        <time>2014-08-30T13:03:47Z</time>
      </trkpt>
      <trkpt lat="43.77806" lon="7.24877">
        <ele>651</ele>
        <time>2014-08-30T13:03:50Z</time>
      </trkpt>
      <trkpt lat="43.77804" lon="7.24877">
        <ele>653</ele>
        <time>2014-08-30T13:03:53Z</time>
      </trkpt>
      <trkpt lat="43.77801" lon="7.24877">
        <ele>653</ele>
        <time>2014-08-30T13:03:56Z</time>
      </trkpt>
      <trkpt lat="43.77798" lon="7.24877">
        <ele>654</ele>
        <time>2014-08-30T13:03:59Z</time>
      </trkpt>
      <trkpt lat="43.77795" lon="7.24876">
        <ele>655</ele>
        <time>2014-08-30T13:04:02Z</time>
      </trkpt>
      <trkpt lat="43.77792" lon="7.24876">
        <ele>655</ele>
        <time>2014-08-30T13:04:05Z</time>
      </trkpt>
      <trkpt lat="43.77788" lon="7.24877">
        <ele>655</ele>
        <time>2014-08-30T13:04:08Z</time>
      </trkpt>
      <trkpt lat="43.77785" lon="7.24881">
        <ele>656</ele>
        <time>2014-08-30T13:04:11Z</time>
      </trkpt>
      <trkpt lat="43.77782" lon="7.24884">
        <ele>657</ele>
        <time>2014-08-30T13:04:14Z</time>
      </trkpt>
      <trkpt lat="43.77778" lon="7.24887">
        <ele>657</ele>
        <time>2014-08-30T13:04:17Z</time>
      </trkpt>
      <trkpt lat="43.77775" lon="7.2489">
        <ele>657</ele>
        <time>2014-08-30T13:04:20Z</time>
      </trkpt>
      <trkpt lat="43.77772" lon="7.24894">
        <ele>657</ele>
        <time>2014-08-30T13:04:23Z</time>
      </trkpt>
      <trkpt lat="43.77769" lon="7.24898">
        <ele>657</ele>
        <time>2014-08-30T13:04:26Z</time>
      </trkpt>
      <trkpt lat="43.77765" lon="7.249">
        <ele>658</ele>
        <time>2014-08-30T13:04:29Z</time>
      </trkpt>
      <trkpt lat="43.77761" lon="7.24901">
        <ele>659</ele>
        <time>2014-08-30T13:04:32Z</time>
      </trkpt>
      <trkpt lat="43.77757" lon="7.24902">
        <ele>659</ele>
        <time>2014-08-30T13:04:35Z</time>
      </trkpt>
      <trkpt lat="43.77752" lon="7.24902">
        <ele>659</ele>
        <time>2014-08-30T13:04:38Z</time>
      </trkpt>
      <trkpt lat="43.77744" lon="7.24903">
        <ele>659</ele>
        <time>2014-08-30T13:04:41Z</time>
      </trkpt>
      <trkpt lat="43.77732" lon="7.24906">
        <ele>659</ele>
        <time>2014-08-30T13:04:44Z</time>
      </trkpt>
      <trkpt lat="43.77721" lon="7.24911">
        <ele>659</ele>
        <time>2014-08-30T13:04:47Z</time>
      </trkpt>
      <trkpt lat="43.77709" lon="7.24915">
        <ele>659</ele>
        <time>2014-08-30T13:04:50Z</time>
      </trkpt>
      <trkpt lat="43.77699" lon="7.24919">
        <ele>659</ele>
        <time>2014-08-30T13:04:53Z</time>
      </trkpt>
      <trkpt lat="43.77688" lon="7.24919">
        <ele>659</ele>
        <time>2014-08-30T13:04:56Z</time>
      </trkpt>
      <trkpt lat="43.77677" lon="7.24914">
        <ele>659</ele>
        <time>2014-08-30T13:04:59Z</time>
      </trkpt>
      <trkpt lat="43.77666" lon="7.24907">
        <ele>659</ele>
        <time>2014-08-30T13:05:02Z</time>
      </trkpt>
      <trkpt lat="43.77658" lon="7.24905">
        <ele>659</ele>
        <time>2014-08-30T13:05:05Z</time>
      </trkpt>
      <trkpt lat="43.77651" lon="7.24906">
        <ele>661</ele>
        <time>2014-08-30T13:05:08Z</time>
      </trkpt>
      <trkpt lat="43.77646" lon="7.24908">
        <ele>661</ele>
        <time>2014-08-30T13:05:11Z</time>
      </trkpt>
      <trkpt lat="43.77642" lon="7.24909">
        <ele>662</ele>
        <time>2014-08-30T13:05:14Z</time>
      </trkpt>
      <trkpt lat="43.77637" lon="7.24909">
        <ele>663</ele>
        <time>2014-08-30T13:05:17Z</time>
      </trkpt>
      <trkpt lat="43.77632" lon="7.24908">
        <ele>663</ele>
        <time>2014-08-30T13:05:20Z</time>
      </trkpt>
      <trkpt lat="43.77627" lon="7.24908">
        <ele>664</ele>
        <time>2014-08-30T13:05:23Z</time>
      </trkpt>
      <trkpt lat="43.77622" lon="7.24909">
        <ele>666</ele>
        <time>2014-08-30T13:05:26Z</time>
      </trkpt>
      <trkpt lat="43.77617" lon="7.2491">
        <ele>666</ele>
        <time>2014-08-30T13:05:29Z</time>
      </trkpt>
      <trkpt lat="43.77612" lon="7.2491">
        <ele>666</ele>
        <time>2014-08-30T13:05:32Z</time>
      </trkpt>
      <trkpt lat="43.77605" lon="7.24911">
        <ele>666</ele>
        <time>2014-08-30T13:05:35Z</time>
      </trkpt>
      <trkpt lat="43.77598" lon="7.24912">
        <ele>666</ele>
        <time>2014-08-30T13:05:38Z</time>
      </trkpt>
      <trkpt lat="43.77589" lon="7.24914">
        <ele>666</ele>
        <time>2014-08-30T13:05:41Z</time>
      </trkpt>
      <trkpt lat="43.77579" lon="7.24918">
        <ele>666</ele>
        <time>2014-08-30T13:05:44Z</time>
      </trkpt>
      <trkpt lat="43.77569" lon="7.24921">
        <ele>666</ele>
        <time>2014-08-30T13:05:47Z</time>
      </trkpt>
      <trkpt lat="43.7756" lon="7.24925">
        <ele>666</ele>
        <time>2014-08-30T13:05:50Z</time>
      </trkpt>
      <trkpt lat="43.77551" lon="7.24928">
        <ele>666</ele>
        <time>2014-08-30T13:05:53Z</time>
      </trkpt>
      <trkpt lat="43.77542" lon="7.24931">
        <ele>666</ele>
        <time>2014-08-30T13:05:56Z</time>
      </trkpt>
      <trkpt lat="43.77533" lon="7.24932">
        <ele>666</ele>
        <time>2014-08-30T13:05:59Z</time>
      </trkpt>
      <trkpt lat="43.77524" lon="7.24934">
        <ele>666</ele>
        <time>2014-08-30T13:06:02Z</time>
      </trkpt>
      <trkpt lat="43.77517" lon="7.24936">
        <ele>666</ele>
        <time>2014-08-30T13:06:05Z</time>
      </trkpt>
      <trkpt lat="43.77509" lon="7.24939">
        <ele>666</ele>
        <time>2014-08-30T13:06:08Z</time>
      </trkpt>
      <trkpt lat="43.775" lon="7.24941">
        <ele>666</ele>
        <time>2014-08-30T13:06:11Z</time>
      </trkpt>
      <trkpt lat="43.7749" lon="7.24942">
        <ele>666</ele>
        <time>2014-08-30T13:06:14Z</time>
      </trkpt>
      <trkpt lat="43.77479" lon="7.24943">
        <ele>666</ele>
        <time>2014-08-30T13:06:17Z</time>
      </trkpt>
      <trkpt lat="43.77469" lon="7.24944">
        <ele>666</ele>
        <time>2014-08-30T13:06:20Z</time>
      </trkpt>
      <trkpt lat="43.7746" lon="7.24946">
        <ele>667</ele>
        <time>2014-08-30T13:06:23Z</time>
      </trkpt>
      <trkpt lat="43.77451" lon="7.24945">
        <ele>668</ele>
        <time>2014-08-30T13:06:26Z</time>
      </trkpt>
      <trkpt lat="43.77442" lon="7.24943">
        <ele>668</ele>
        <time>2014-08-30T13:06:29Z</time>
      </trkpt>
      <trkpt lat="43.77433" lon="7.24942">
        <ele>668</ele>
        <time>2014-08-30T13:06:32Z</time>
      </trkpt>
      <trkpt lat="43.77426" lon="7.24944">
        <ele>669</ele>
        <time>2014-08-30T13:06:35Z</time>
      </trkpt>
      <trkpt lat="43.77419" lon="7.24946">
        <ele>671</ele>
        <time>2014-08-30T13:06:38Z</time>
      </trkpt>
      <trkpt lat="43.77412" lon="7.24947">
        <ele>671</ele>
        <time>2014-08-30T13:06:41Z</time>
      </trkpt>
      <trkpt lat="43.77408" lon="7.24949">
        <ele>671</ele>
        <time>2014-08-30T13:06:44Z</time>
      </trkpt>
      <trkpt lat="43.77407" lon="7.2495">
        <ele>671</ele>
        <time>2014-08-30T13:06:47Z</time>
      </trkpt>
      <trkpt lat="43.77406" lon="7.2495">
        <ele>672</ele>
        <time>2014-08-30T13:06:50Z</time>
      </trkpt>
      <trkpt lat="43.77404" lon="7.2495">
        <ele>673</ele>
        <time>2014-08-30T13:06:53Z</time>
      </trkpt>
      <trkpt lat="43.774" lon="7.2495">
        <ele>673</ele>
        <time>2014-08-30T13:06:56Z</time>
      </trkpt>
      <trkpt lat="43.77393" lon="7.2495">
        <ele>673</ele>
        <time>2014-08-30T13:06:59Z</time>
      </trkpt>
      <trkpt lat="43.77385" lon="7.24949">
        <ele>673</ele>
        <time>2014-08-30T13:07:02Z</time>
      </trkpt>
      <trkpt lat="43.77379" lon="7.24949">
        <ele>673</ele>
        <time>2014-08-30T13:07:05Z</time>
      </trkpt>
      <trkpt lat="43.77374" lon="7.24949">
        <ele>673</ele>
        <time>2014-08-30T13:07:08Z</time>
      </trkpt>
      <trkpt lat="43.77371" lon="7.24951">
        <ele>675</ele>
        <time>2014-08-30T13:07:11Z</time>
      </trkpt>
      <trkpt lat="43.77368" lon="7.24952">
        <ele>675</ele>
        <time>2014-08-30T13:07:14Z</time>
      </trkpt>
      <trkpt lat="43.77364" lon="7.24952">
        <ele>675</ele>
        <time>2014-08-30T13:07:17Z</time>
      </trkpt>
      <trkpt lat="43.77361" lon="7.24953">
        <ele>676</ele>
        <time>2014-08-30T13:07:20Z</time>
      </trkpt>
      <trkpt lat="43.77357" lon="7.24954">
        <ele>677</ele>
        <time>2014-08-30T13:07:23Z</time>
      </trkpt>
      <trkpt lat="43.77354" lon="7.24956">
        <ele>677</ele>
        <time>2014-08-30T13:07:26Z</time>
      </trkpt>
      <trkpt lat="43.77351" lon="7.24958">
        <ele>677</ele>
        <time>2014-08-30T13:07:29Z</time>
      </trkpt>
      <trkpt lat="43.77348" lon="7.24959">
        <ele>678</ele>
        <time>2014-08-30T13:07:32Z</time>
      </trkpt>
      <trkpt lat="43.77344" lon="7.2496">
        <ele>679</ele>
        <time>2014-08-30T13:07:35Z</time>
      </trkpt>
      <trkpt lat="43.77341" lon="7.24961">
        <ele>679</ele>
        <time>2014-08-30T13:07:38Z</time>
      </trkpt>
      <trkpt lat="43.77337" lon="7.24962">
        <ele>679</ele>
        <time>2014-08-30T13:07:41Z</time>
      </trkpt>
      <trkpt lat="43.77334" lon="7.24963">
        <ele>679</ele>
        <time>2014-08-30T13:07:44Z</time>
      </trkpt>
      <trkpt lat="43.7733" lon="7.24962">
        <ele>680</ele>
        <time>2014-08-30T13:07:47Z</time>
      </trkpt>
      <trkpt lat="43.77327" lon="7.24962">
        <ele>680</ele>
        <time>2014-08-30T13:07:50Z</time>
      </trkpt>
      <trkpt lat="43.77323" lon="7.24963">
        <ele>681</ele>
        <time>2014-08-30T13:07:53Z</time>
      </trkpt>
      <trkpt lat="43.7732" lon="7.24964">
        <ele>681</ele>
        <time>2014-08-30T13:07:56Z</time>
      </trkpt>
      <trkpt lat="43.77317" lon="7.24964">
        <ele>681</ele>
        <time>2014-08-30T13:07:59Z</time>
      </trkpt>
      <trkpt lat="43.77314" lon="7.24965">
        <ele>681</ele>
        <time>2014-08-30T13:08:02Z</time>
      </trkpt>
      <trkpt lat="43.7731" lon="7.24966">
        <ele>681</ele>
        <time>2014-08-30T13:08:05Z</time>
      </trkpt>
      <trkpt lat="43.77307" lon="7.24966">
        <ele>681</ele>
        <time>2014-08-30T13:08:08Z</time>
      </trkpt>
      <trkpt lat="43.77303" lon="7.24968">
        <ele>682</ele>
        <time>2014-08-30T13:08:11Z</time>
      </trkpt>
      <trkpt lat="43.77299" lon="7.24969">
        <ele>683</ele>
        <time>2014-08-30T13:08:14Z</time>
      </trkpt>
      <trkpt lat="43.77295" lon="7.2497">
        <ele>683</ele>
        <time>2014-08-30T13:08:17Z</time>
      </trkpt>
      <trkpt lat="43.77293" lon="7.2497">
        <ele>683</ele>
        <time>2014-08-30T13:08:20Z</time>
      </trkpt>
      <trkpt lat="43.7729" lon="7.24971">
        <ele>683</ele>
        <time>2014-08-30T13:08:23Z</time>
      </trkpt>
      <trkpt lat="43.77286" lon="7.24971">
        <ele>683</ele>
        <time>2014-08-30T13:08:26Z</time>
      </trkpt>
      <trkpt lat="43.77283" lon="7.24971">
        <ele>683</ele>
        <time>2014-08-30T13:08:29Z</time>
      </trkpt>
      <trkpt lat="43.77278" lon="7.24971">
        <ele>683</ele>
        <time>2014-08-30T13:08:32Z</time>
      </trkpt>
      <trkpt lat="43.77271" lon="7.24972">
        <ele>684</ele>
        <time>2014-08-30T13:08:35Z</time>
      </trkpt>
      <trkpt lat="43.77262" lon="7.24973">
        <ele>685</ele>
        <time>2014-08-30T13:08:38Z</time>
      </trkpt>
      <trkpt lat="43.77252" lon="7.24974">
        <ele>685</ele>
        <time>2014-08-30T13:08:41Z</time>
      </trkpt>
      <trkpt lat="43.77242" lon="7.24977">
        <ele>685</ele>
        <time>2014-08-30T13:08:44Z</time>
      </trkpt>
      <trkpt lat="43.77233" lon="7.24979">
        <ele>686</ele>
        <time>2014-08-30T13:08:47Z</time>
      </trkpt>
      <trkpt lat="43.77223" lon="7.24982">
        <ele>687</ele>
        <time>2014-08-30T13:08:50Z</time>
      </trkpt>
      <trkpt lat="43.77214" lon="7.24984">
        <ele>687</ele>
        <time>2014-08-30T13:08:53Z</time>
      </trkpt>
      <trkpt lat="43.77205" lon="7.24985">
        <ele>687</ele>
        <time>2014-08-30T13:08:56Z</time>
      </trkpt>
      <trkpt lat="43.77195" lon="7.24986">
        <ele>687</ele>
        <time>2014-08-30T13:08:59Z</time>
      </trkpt>
      <trkpt lat="43.77186" lon="7.24986">
        <ele>687</ele>
        <time>2014-08-30T13:09:02Z</time>
      </trkpt>
      <trkpt lat="43.77174" lon="7.24987">
        <ele>687</ele>
        <time>2014-08-30T13:09:05Z</time>
      </trkpt>
      <trkpt lat="43.77163" lon="7.24988">
        <ele>687</ele>
        <time>2014-08-30T13:09:08Z</time>
      </trkpt>
      <trkpt lat="43.77153" lon="7.2499">
        <ele>687</ele>
        <time>2014-08-30T13:09:11Z</time>
      </trkpt>
      <trkpt lat="43.77142" lon="7.24992">
        <ele>687</ele>
        <time>2014-08-30T13:09:14Z</time>
      </trkpt>
      <trkpt lat="43.77131" lon="7.24993">
        <ele>687</ele>
        <time>2014-08-30T13:09:17Z</time>
      </trkpt>
      <trkpt lat="43.77119" lon="7.24993">
        <ele>687</ele>
        <time>2014-08-30T13:09:20Z</time>
      </trkpt>
      <trkpt lat="43.77107" lon="7.24993">
        <ele>687</ele>
        <time>2014-08-30T13:09:23Z</time>
      </trkpt>
      <trkpt lat="43.77094" lon="7.24993">
        <ele>687</ele>
        <time>2014-08-30T13:09:26Z</time>
      </trkpt>
      <trkpt lat="43.77083" lon="7.24994">
        <ele>687</ele>
        <time>2014-08-30T13:09:29Z</time>
      </trkpt>
      <trkpt lat="43.77072" lon="7.24991">
        <ele>687</ele>
        <time>2014-08-30T13:09:32Z</time>
      </trkpt>
      <trkpt lat="43.77062" lon="7.24984">
        <ele>687</ele>
        <time>2014-08-30T13:09:35Z</time>
      </trkpt>
      <trkpt lat="43.77054" lon="7.24976">
        <ele>687</ele>
        <time>2014-08-30T13:09:38Z</time>
      </trkpt>
      <trkpt lat="43.77044" lon="7.2497">
        <ele>687</ele>
        <time>2014-08-30T13:09:41Z</time>
      </trkpt>
      <trkpt lat="43.77034" lon="7.24966">
        <ele>687</ele>
        <time>2014-08-30T13:09:44Z</time>
      </trkpt>
      <trkpt lat="43.77025" lon="7.24966">
        <ele>687</ele>
        <time>2014-08-30T13:09:47Z</time>
      </trkpt>
      <trkpt lat="43.77019" lon="7.2497">
        <ele>687</ele>
        <time>2014-08-30T13:09:50Z</time>
      </trkpt>
      <trkpt lat="43.77015" lon="7.24975">
        <ele>689</ele>
        <time>2014-08-30T13:09:53Z</time>
      </trkpt>
      <trkpt lat="43.77012" lon="7.24977">
        <ele>690</ele>
        <time>2014-08-30T13:09:56Z</time>
      </trkpt>
      <trkpt lat="43.77007" lon="7.24981">
        <ele>690</ele>
        <time>2014-08-30T13:09:59Z</time>
      </trkpt>
      <trkpt lat="43.77" lon="7.24985">
        <ele>690</ele>
        <time>2014-08-30T13:10:02Z</time>
      </trkpt>
      <trkpt lat="43.7699" lon="7.2499">
        <ele>690</ele>
        <time>2014-08-30T13:10:05Z</time>
      </trkpt>
      <trkpt lat="43.76979" lon="7.24994">
        <ele>689</ele>
        <time>2014-08-30T13:10:08Z</time>
      </trkpt>
      <trkpt lat="43.76966" lon="7.24998">
        <ele>687</ele>
        <time>2014-08-30T13:10:11Z</time>
      </trkpt>
      <trkpt lat="43.76954" lon="7.25001">
        <ele>687</ele>
        <time>2014-08-30T13:10:14Z</time>
      </trkpt>
      <trkpt lat="43.76944" lon="7.25004">
        <ele>686</ele>
        <time>2014-08-30T13:10:17Z</time>
      </trkpt>
      <trkpt lat="43.76935" lon="7.25008">
        <ele>685</ele>
        <time>2014-08-30T13:10:20Z</time>
      </trkpt>
      <trkpt lat="43.76923" lon="7.25015">
        <ele>683</ele>
        <time>2014-08-30T13:10:23Z</time>
      </trkpt>
      <trkpt lat="43.76903" lon="7.25028">
        <ele>681</ele>
        <time>2014-08-30T13:10:26Z</time>
      </trkpt>
      <trkpt lat="43.76886" lon="7.25034">
        <ele>680</ele>
        <time>2014-08-30T13:10:29Z</time>
      </trkpt>
      <trkpt lat="43.76866" lon="7.25034">
        <ele>677</ele>
        <time>2014-08-30T13:10:32Z</time>
      </trkpt>
      <trkpt lat="43.76845" lon="7.25036">
        <ele>674</ele>
        <time>2014-08-30T13:10:35Z</time>
      </trkpt>
      <trkpt lat="43.76831" lon="7.25043">
        <ele>671</ele>
        <time>2014-08-30T13:10:38Z</time>
      </trkpt>
      <trkpt lat="43.76817" lon="7.25045">
        <ele>670</ele>
        <time>2014-08-30T13:10:41Z</time>
      </trkpt>
      <trkpt lat="43.76803" lon="7.25037">
        <ele>670</ele>
        <time>2014-08-30T13:10:44Z</time>
      </trkpt>
      <trkpt lat="43.76791" lon="7.2503">
        <ele>670</ele>
        <time>2014-08-30T13:10:47Z</time>
      </trkpt>
      <trkpt lat="43.76776" lon="7.25035">
        <ele>669</ele>
        <time>2014-08-30T13:10:50Z</time>
      </trkpt>
      <trkpt lat="43.7676" lon="7.25043">
        <ele>668</ele>
        <time>2014-08-30T13:10:53Z</time>
      </trkpt>
      <trkpt lat="43.76745" lon="7.25049">
        <ele>667</ele>
        <time>2014-08-30T13:10:56Z</time>
      </trkpt>
      <trkpt lat="43.76734" lon="7.25056">
        <ele>665</ele>
        <time>2014-08-30T13:10:59Z</time>
      </trkpt>
      <trkpt lat="43.76724" lon="7.25055">
        <ele>664</ele>
        <time>2014-08-30T13:11:02Z</time>
      </trkpt>
      <trkpt lat="43.76713" lon="7.25051">
        <ele>662</ele>
        <time>2014-08-30T13:11:05Z</time>
      </trkpt>
      <trkpt lat="43.76702" lon="7.25051">
        <ele>660</ele>
        <time>2014-08-30T13:11:08Z</time>
      </trkpt>
      <trkpt lat="43.76689" lon="7.25047">
        <ele>659</ele>
        <time>2014-08-30T13:11:11Z</time>
      </trkpt>
      <trkpt lat="43.76679" lon="7.25056">
        <ele>657</ele>
        <time>2014-08-30T13:11:14Z</time>
      </trkpt>
      <trkpt lat="43.76674" lon="7.25076">
        <ele>656</ele>
        <time>2014-08-30T13:11:17Z</time>
      </trkpt>
      <trkpt lat="43.76662" lon="7.25089">
        <ele>654</ele>
        <time>2014-08-30T13:11:20Z</time>
      </trkpt>
      <trkpt lat="43.76645" lon="7.25091">
        <ele>652</ele>
        <time>2014-08-30T13:11:23Z</time>
      </trkpt>
      <trkpt lat="43.76628" lon="7.25092">
        <ele>650</ele>
        <time>2014-08-30T13:11:26Z</time>
      </trkpt>
      <trkpt lat="43.76616" lon="7.25093">
        <ele>648</ele>
        <time>2014-08-30T13:11:29Z</time>
      </trkpt>
      <trkpt lat="43.76601" lon="7.25097">
        <ele>647</ele>
        <time>2014-08-30T13:11:32Z</time>
      </trkpt>
      <trkpt lat="43.76586" lon="7.25102">
        <ele>646</ele>
        <time>2014-08-30T13:11:35Z</time>
      </trkpt>
      <trkpt lat="43.7657" lon="7.25106">
        <ele>645</ele>
        <time>2014-08-30T13:11:38Z</time>
      </trkpt>
      <trkpt lat="43.76552" lon="7.25116">
        <ele>643</ele>
        <time>2014-08-30T13:11:41Z</time>
      </trkpt>
      <trkpt lat="43.76536" lon="7.25128">
        <ele>641</ele>
        <time>2014-08-30T13:11:44Z</time>
      </trkpt>
      <trkpt lat="43.76518" lon="7.25127">
        <ele>639</ele>
        <time>2014-08-30T13:11:47Z</time>
      </trkpt>
      <trkpt lat="43.76501" lon="7.25116">
        <ele>638</ele>
        <time>2014-08-30T13:11:50Z</time>
      </trkpt>
      <trkpt lat="43.76489" lon="7.25112">
        <ele>636</ele>
        <time>2014-08-30T13:11:53Z</time>
      </trkpt>
      <trkpt lat="43.76476" lon="7.2511">
        <ele>635</ele>
        <time>2014-08-30T13:11:56Z</time>
      </trkpt>
      <trkpt lat="43.7647" lon="7.25115">
        <ele>633</ele>
        <time>2014-08-30T13:11:59Z</time>
      </trkpt>
      <trkpt lat="43.76461" lon="7.25117">
        <ele>632</ele>
        <time>2014-08-30T13:12:02Z</time>
      </trkpt>
      <trkpt lat="43.76447" lon="7.25121">
        <ele>631</ele>
        <time>2014-08-30T13:12:05Z</time>
      </trkpt>
      <trkpt lat="43.76433" lon="7.25128">
        <ele>630</ele>
        <time>2014-08-30T13:12:08Z</time>
      </trkpt>
      <trkpt lat="43.76424" lon="7.25133">
        <ele>629</ele>
        <time>2014-08-30T13:12:11Z</time>
      </trkpt>
      <trkpt lat="43.76415" lon="7.25135">
        <ele>628</ele>
        <time>2014-08-30T13:12:14Z</time>
      </trkpt>
      <trkpt lat="43.76407" lon="7.25142">
        <ele>626</ele>
        <time>2014-08-30T13:12:17Z</time>
      </trkpt>
      <trkpt lat="43.76397" lon="7.2515">
        <ele>624</ele>
        <time>2014-08-30T13:12:20Z</time>
      </trkpt>
      <trkpt lat="43.76382" lon="7.25162">
        <ele>622</ele>
        <time>2014-08-30T13:12:23Z</time>
      </trkpt>
      <trkpt lat="43.7637" lon="7.25173">
        <ele>621</ele>
        <time>2014-08-30T13:12:26Z</time>
      </trkpt>
      <trkpt lat="43.7636" lon="7.25182">
        <ele>620</ele>
        <time>2014-08-30T13:12:29Z</time>
      </trkpt>
      <trkpt lat="43.7635" lon="7.25197">
        <ele>620</ele>
        <time>2014-08-30T13:12:32Z</time>
      </trkpt>
      <trkpt lat="43.76338" lon="7.25203">
        <ele>619</ele>
        <time>2014-08-30T13:12:35Z</time>
      </trkpt>
      <trkpt lat="43.76326" lon="7.25201">
        <ele>618</ele>
        <time>2014-08-30T13:12:38Z</time>
      </trkpt>
      <trkpt lat="43.76311" lon="7.25198">
        <ele>616</ele>
        <time>2014-08-30T13:12:41Z</time>
      </trkpt>
      <trkpt lat="43.76295" lon="7.25202">
        <ele>613</ele>
        <time>2014-08-30T13:12:44Z</time>
      </trkpt>
      <trkpt lat="43.76283" lon="7.25205">
        <ele>611</ele>
        <time>2014-08-30T13:12:47Z</time>
      </trkpt>
      <trkpt lat="43.76269" lon="7.25205">
        <ele>609</ele>
        <time>2014-08-30T13:12:50Z</time>
      </trkpt>
      <trkpt lat="43.76252" lon="7.25207">
        <ele>608</ele>
        <time>2014-08-30T13:12:53Z</time>
      </trkpt>
      <trkpt lat="43.76238" lon="7.2521">
        <ele>607</ele>
        <time>2014-08-30T13:12:56Z</time>
      </trkpt>
      <trkpt lat="43.76228" lon="7.2521">
        <ele>606</ele>
        <time>2014-08-30T13:12:59Z</time>
      </trkpt>
      <trkpt lat="43.76217" lon="7.2521">
        <ele>605</ele>
        <time>2014-08-30T13:13:02Z</time>
      </trkpt>
      <trkpt lat="43.76202" lon="7.25216">
        <ele>603</ele>
        <time>2014-08-30T13:13:05Z</time>
      </trkpt>
      <trkpt lat="43.76192" lon="7.2522">
        <ele>602</ele>
        <time>2014-08-30T13:13:08Z</time>
      </trkpt>
      <trkpt lat="43.76185" lon="7.25223">
        <ele>602</ele>
        <time>2014-08-30T13:13:11Z</time>
      </trkpt>
      <trkpt lat="43.76179" lon="7.25228">
        <ele>601</ele>
        <time>2014-08-30T13:13:14Z</time>
      </trkpt>
      <trkpt lat="43.7617" lon="7.25234">
        <ele>600</ele>
        <time>2014-08-30T13:13:17Z</time>
      </trkpt>
      <trkpt lat="43.76157" lon="7.25241">
        <ele>600</ele>
        <time>2014-08-30T13:13:20Z</time>
      </trkpt>
      <trkpt lat="43.76148" lon="7.25247">
        <ele>600</ele>
        <time>2014-08-30T13:13:23Z</time>
      </trkpt>
      <trkpt lat="43.76142" lon="7.25248">
        <ele>598</ele>
        <time>2014-08-30T13:13:26Z</time>
      </trkpt>
      <trkpt lat="43.76137" lon="7.2525">
        <ele>596</ele>
        <time>2014-08-30T13:13:29Z</time>
      </trkpt>
      <trkpt lat="43.7613" lon="7.25253">
        <ele>595</ele>
        <time>2014-08-30T13:13:32Z</time>
      </trkpt>
      <trkpt lat="43.7612" lon="7.25261">
        <ele>594</ele>
        <time>2014-08-30T13:13:35Z</time>
      </trkpt>
      <trkpt lat="43.76105" lon="7.25268">
        <ele>592</ele>
        <time>2014-08-30T13:13:38Z</time>
      </trkpt>
      <trkpt lat="43.76096" lon="7.25277">
        <ele>590</ele>
        <time>2014-08-30T13:13:41Z</time>
      </trkpt>
      <trkpt lat="43.7609" lon="7.25279">
        <ele>589</ele>
        <time>2014-08-30T13:13:44Z</time>
      </trkpt>
      <trkpt lat="43.76083" lon="7.2528">
        <ele>588</ele>
        <time>2014-08-30T13:13:47Z</time>
      </trkpt>
      <trkpt lat="43.76074" lon="7.25284">
        <ele>586</ele>
        <time>2014-08-30T13:13:50Z</time>
      </trkpt>
      <trkpt lat="43.76057" lon="7.25293">
        <ele>585</ele>
        <time>2014-08-30T13:13:53Z</time>
      </trkpt>
      <trkpt lat="43.76043" lon="7.25303">
        <ele>583</ele>
        <time>2014-08-30T13:13:56Z</time>
      </trkpt>
      <trkpt lat="43.76038" lon="7.25308">
        <ele>582</ele>
        <time>2014-08-30T13:13:59Z</time>
      </trkpt>
      <trkpt lat="43.76028" lon="7.25307">
        <ele>581</ele>
        <time>2014-08-30T13:14:02Z</time>
      </trkpt>
      <trkpt lat="43.76014" lon="7.25314">
        <ele>579</ele>
        <time>2014-08-30T13:14:05Z</time>
      </trkpt>
      <trkpt lat="43.76004" lon="7.25321">
        <ele>578</ele>
        <time>2014-08-30T13:14:08Z</time>
      </trkpt>
      <trkpt lat="43.75996" lon="7.25325">
        <ele>576</ele>
        <time>2014-08-30T13:14:11Z</time>
      </trkpt>
      <trkpt lat="43.75988" lon="7.25332">
        <ele>576</ele>
        <time>2014-08-30T13:14:14Z</time>
      </trkpt>
      <trkpt lat="43.75979" lon="7.2534">
        <ele>574</ele>
        <time>2014-08-30T13:14:17Z</time>
      </trkpt>
      <trkpt lat="43.75971" lon="7.25344">
        <ele>573</ele>
        <time>2014-08-30T13:14:20Z</time>
      </trkpt>
      <trkpt lat="43.75958" lon="7.25352">
        <ele>573</ele>
        <time>2014-08-30T13:14:23Z</time>
      </trkpt>
      <trkpt lat="43.75943" lon="7.25361">
        <ele>572</ele>
        <time>2014-08-30T13:14:26Z</time>
      </trkpt>
      <trkpt lat="43.75927" lon="7.25373">
        <ele>570</ele>
        <time>2014-08-30T13:14:29Z</time>
      </trkpt>
      <trkpt lat="43.75915" lon="7.25384">
        <ele>569</ele>
        <time>2014-08-30T13:14:32Z</time>
      </trkpt>
      <trkpt lat="43.75906" lon="7.25391">
        <ele>568</ele>
        <time>2014-08-30T13:14:35Z</time>
      </trkpt>
      <trkpt lat="43.75895" lon="7.25401">
        <ele>567</ele>
        <time>2014-08-30T13:14:38Z</time>
      </trkpt>
      <trkpt lat="43.75884" lon="7.25413">
        <ele>565</ele>
        <time>2014-08-30T13:14:41Z</time>
      </trkpt>
      <trkpt lat="43.75871" lon="7.25424">
        <ele>564</ele>
        <time>2014-08-30T13:14:44Z</time>
      </trkpt>
      <trkpt lat="43.75863" lon="7.25429">
        <ele>564</ele>
        <time>2014-08-30T13:14:47Z</time>
      </trkpt>
      <trkpt lat="43.75859" lon="7.25431">
        <ele>564</ele>
        <time>2014-08-30T13:14:50Z</time>
      </trkpt>
      <trkpt lat="43.75852" lon="7.25434">
        <ele>564</ele>
        <time>2014-08-30T13:14:53Z</time>
      </trkpt>
      <trkpt lat="43.75841" lon="7.25437">
        <ele>563</ele>
        <time>2014-08-30T13:14:57Z</time>
      </trkpt>
      <trkpt lat="43.75828" lon="7.25442">
        <ele>561</ele>
        <time>2014-08-30T13:15:00Z</time>
      </trkpt>
      <trkpt lat="43.75815" lon="7.25452">
        <ele>559</ele>
        <time>2014-08-30T13:15:03Z</time>
      </trkpt>
      <trkpt lat="43.75803" lon="7.25454">
        <ele>557</ele>
        <time>2014-08-30T13:15:06Z</time>
      </trkpt>
      <trkpt lat="43.75792" lon="7.25464">
        <ele>555</ele>
        <time>2014-08-30T13:15:09Z</time>
      </trkpt>
      <trkpt lat="43.75781" lon="7.25469">
        <ele>553</ele>
        <time>2014-08-30T13:15:12Z</time>
      </trkpt>
      <trkpt lat="43.75769" lon="7.2548">
        <ele>552</ele>
        <time>2014-08-30T13:15:15Z</time>
      </trkpt>
      <trkpt lat="43.75755" lon="7.25492">
        <ele>551</ele>
        <time>2014-08-30T13:15:18Z</time>
      </trkpt>
      <trkpt lat="43.75743" lon="7.25497">
        <ele>550</ele>
        <time>2014-08-30T13:15:21Z</time>
      </trkpt>
      <trkpt lat="43.75733" lon="7.25499">
        <ele>548</ele>
        <time>2014-08-30T13:15:24Z</time>
      </trkpt>
      <trkpt lat="43.75723" lon="7.25506">
        <ele>547</ele>
        <time>2014-08-30T13:15:27Z</time>
      </trkpt>
      <trkpt lat="43.7571" lon="7.25514">
        <ele>546</ele>
        <time>2014-08-30T13:15:30Z</time>
      </trkpt>
      <trkpt lat="43.75697" lon="7.25516">
        <ele>544</ele>
        <time>2014-08-30T13:15:33Z</time>
      </trkpt>
      <trkpt lat="43.75685" lon="7.25518">
        <ele>544</ele>
        <time>2014-08-30T13:15:36Z</time>
      </trkpt>
      <trkpt lat="43.75671" lon="7.25527">
        <ele>542</ele>
        <time>2014-08-30T13:15:39Z</time>
      </trkpt>
      <trkpt lat="43.75658" lon="7.25533">
        <ele>542</ele>
        <time>2014-08-30T13:15:42Z</time>
      </trkpt>
      <trkpt lat="43.75649" lon="7.25535">
        <ele>540</ele>
        <time>2014-08-30T13:15:45Z</time>
      </trkpt>
      <trkpt lat="43.7564" lon="7.25542">
        <ele>539</ele>
        <time>2014-08-30T13:15:48Z</time>
      </trkpt>
      <trkpt lat="43.75628" lon="7.25552">
        <ele>538</ele>
        <time>2014-08-30T13:15:51Z</time>
      </trkpt>
      <trkpt lat="43.75615" lon="7.25561">
        <ele>537</ele>
        <time>2014-08-30T13:15:54Z</time>
      </trkpt>
      <trkpt lat="43.75604" lon="7.25567">
        <ele>535</ele>
        <time>2014-08-30T13:15:57Z</time>
      </trkpt>
      <trkpt lat="43.75594" lon="7.25569">
        <ele>534</ele>
        <time>2014-08-30T13:16:00Z</time>
      </trkpt>
      <trkpt lat="43.75583" lon="7.25573">
        <ele>533</ele>
        <time>2014-08-30T13:16:03Z</time>
      </trkpt>
      <trkpt lat="43.75571" lon="7.2558">
        <ele>530</ele>
        <time>2014-08-30T13:16:06Z</time>
      </trkpt>
      <trkpt lat="43.75558" lon="7.25588">
        <ele>528</ele>
        <time>2014-08-30T13:16:09Z</time>
      </trkpt>
      <trkpt lat="43.75547" lon="7.25599">
        <ele>527</ele>
        <time>2014-08-30T13:16:12Z</time>
      </trkpt>
      <trkpt lat="43.75537" lon="7.25615">
        <ele>526</ele>
        <time>2014-08-30T13:16:15Z</time>
      </trkpt>
      <trkpt lat="43.75529" lon="7.25632">
        <ele>524</ele>
        <time>2014-08-30T13:16:18Z</time>
      </trkpt>
      <trkpt lat="43.75527" lon="7.2565">
        <ele>523</ele>
        <time>2014-08-30T13:16:21Z</time>
      </trkpt>
      <trkpt lat="43.75528" lon="7.2567">
        <ele>522</ele>
        <time>2014-08-30T13:16:24Z</time>
      </trkpt>
      <trkpt lat="43.75526" lon="7.25693">
        <ele>520</ele>
        <time>2014-08-30T13:16:27Z</time>
      </trkpt>
      <trkpt lat="43.75521" lon="7.25709">
        <ele>519</ele>
        <time>2014-08-30T13:16:30Z</time>
      </trkpt>
      <trkpt lat="43.75517" lon="7.25716">
        <ele>518</ele>
        <time>2014-08-30T13:16:33Z</time>
      </trkpt>
      <trkpt lat="43.75509" lon="7.25718">
        <ele>516</ele>
        <time>2014-08-30T13:16:36Z</time>
      </trkpt>
      <trkpt lat="43.75501" lon="7.25722">
        <ele>514</ele>
        <time>2014-08-30T13:16:39Z</time>
      </trkpt>
      <trkpt lat="43.75492" lon="7.25741">
        <ele>511</ele>
        <time>2014-08-30T13:16:42Z</time>
      </trkpt>
      <trkpt lat="43.75486" lon="7.25769">
        <ele>508</ele>
        <time>2014-08-30T13:16:45Z</time>
      </trkpt>
      <trkpt lat="43.75477" lon="7.25784">
        <ele>507</ele>
        <time>2014-08-30T13:16:48Z</time>
      </trkpt>
      <trkpt lat="43.75461" lon="7.25788">
        <ele>507</ele>
        <time>2014-08-30T13:16:51Z</time>
      </trkpt>
      <trkpt lat="43.75449" lon="7.25796">
        <ele>507</ele>
        <time>2014-08-30T13:16:54Z</time>
      </trkpt>
      <trkpt lat="43.75437" lon="7.25799">
        <ele>506</ele>
        <time>2014-08-30T13:16:57Z</time>
      </trkpt>
      <trkpt lat="43.75425" lon="7.25798">
        <ele>505</ele>
        <time>2014-08-30T13:17:00Z</time>
      </trkpt>
      <trkpt lat="43.75415" lon="7.25801">
        <ele>505</ele>
        <time>2014-08-30T13:17:03Z</time>
      </trkpt>
      <trkpt lat="43.75405" lon="7.25806">
        <ele>505</ele>
        <time>2014-08-30T13:17:06Z</time>
      </trkpt>
      <trkpt lat="43.75397" lon="7.25803">
        <ele>507</ele>
        <time>2014-08-30T13:17:09Z</time>
      </trkpt>
      <trkpt lat="43.75389" lon="7.25797">
        <ele>507</ele>
        <time>2014-08-30T13:17:12Z</time>
      </trkpt>
      <trkpt lat="43.75382" lon="7.25795">
        <ele>507</ele>
        <time>2014-08-30T13:17:15Z</time>
      </trkpt>
      <trkpt lat="43.75373" lon="7.25792">
        <ele>507</ele>
        <time>2014-08-30T13:17:18Z</time>
      </trkpt>
      <trkpt lat="43.75366" lon="7.25782">
        <ele>507</ele>
        <time>2014-08-30T13:17:21Z</time>
      </trkpt>
      <trkpt lat="43.75359" lon="7.2578">
        <ele>507</ele>
        <time>2014-08-30T13:17:24Z</time>
      </trkpt>
      <trkpt lat="43.75346" lon="7.25782">
        <ele>506</ele>
        <time>2014-08-30T13:17:27Z</time>
      </trkpt>
      <trkpt lat="43.75332" lon="7.25796">
        <ele>505</ele>
        <time>2014-08-30T13:17:30Z</time>
      </trkpt>
      <trkpt lat="43.7532" lon="7.25811">
        <ele>503</ele>
        <time>2014-08-30T13:17:33Z</time>
      </trkpt>
      <trkpt lat="43.75307" lon="7.25815">
        <ele>502</ele>
        <time>2014-08-30T13:17:36Z</time>
      </trkpt>
      <trkpt lat="43.75296" lon="7.25824">
        <ele>501</ele>
        <time>2014-08-30T13:17:39Z</time>
      </trkpt>
      <trkpt lat="43.75289" lon="7.25829">
        <ele>501</ele>
        <time>2014-08-30T13:17:42Z</time>
      </trkpt>
      <trkpt lat="43.7528" lon="7.25834">
        <ele>501</ele>
        <time>2014-08-30T13:17:45Z</time>
      </trkpt>
      <trkpt lat="43.75269" lon="7.25837">
        <ele>501</ele>
        <time>2014-08-30T13:17:48Z</time>
      </trkpt>
      <trkpt lat="43.75261" lon="7.25844">
        <ele>501</ele>
        <time>2014-08-30T13:17:51Z</time>
      </trkpt>
      <trkpt lat="43.75253" lon="7.25853">
        <ele>501</ele>
        <time>2014-08-30T13:17:54Z</time>
      </trkpt>
      <trkpt lat="43.75241" lon="7.25852">
        <ele>501</ele>
        <time>2014-08-30T13:17:57Z</time>
      </trkpt>
      <trkpt lat="43.75226" lon="7.25852">
        <ele>500</ele>
        <time>2014-08-30T13:18:00Z</time>
      </trkpt>
      <trkpt lat="43.75206" lon="7.25859">
        <ele>499</ele>
        <time>2014-08-30T13:18:03Z</time>
      </trkpt>
      <trkpt lat="43.75189" lon="7.25868">
        <ele>498</ele>
        <time>2014-08-30T13:18:06Z</time>
      </trkpt>
      <trkpt lat="43.75173" lon="7.25872">
        <ele>496</ele>
        <time>2014-08-30T13:18:09Z</time>
      </trkpt>
      <trkpt lat="43.7516" lon="7.25872">
        <ele>495</ele>
        <time>2014-08-30T13:18:12Z</time>
      </trkpt>
      <trkpt lat="43.75146" lon="7.25872">
        <ele>494</ele>
        <time>2014-08-30T13:18:15Z</time>
      </trkpt>
      <trkpt lat="43.75131" lon="7.25869">
        <ele>494</ele>
        <time>2014-08-30T13:18:18Z</time>
      </trkpt>
      <trkpt lat="43.75116" lon="7.2587">
        <ele>492</ele>
        <time>2014-08-30T13:18:21Z</time>
      </trkpt>
      <trkpt lat="43.75099" lon="7.25874">
        <ele>491</ele>
        <time>2014-08-30T13:18:24Z</time>
      </trkpt>
      <trkpt lat="43.75084" lon="7.2587">
        <ele>489</ele>
        <time>2014-08-30T13:18:27Z</time>
      </trkpt>
      <trkpt lat="43.75069" lon="7.25859">
        <ele>489</ele>
        <time>2014-08-30T13:18:30Z</time>
      </trkpt>
      <trkpt lat="43.75053" lon="7.25857">
        <ele>488</ele>
        <time>2014-08-30T13:18:33Z</time>
      </trkpt>
      <trkpt lat="43.75035" lon="7.25856">
        <ele>487</ele>
        <time>2014-08-30T13:18:36Z</time>
      </trkpt>
      <trkpt lat="43.75021" lon="7.25856">
        <ele>486</ele>
        <time>2014-08-30T13:18:39Z</time>
      </trkpt>
      <trkpt lat="43.75011" lon="7.25853">
        <ele>485</ele>
        <time>2014-08-30T13:18:42Z</time>
      </trkpt>
      <trkpt lat="43.74997" lon="7.25849">
        <ele>483</ele>
        <time>2014-08-30T13:18:45Z</time>
      </trkpt>
      <trkpt lat="43.74982" lon="7.25852">
        <ele>483</ele>
        <time>2014-08-30T13:18:48Z</time>
      </trkpt>
      <trkpt lat="43.74971" lon="7.25852">
        <ele>483</ele>
        <time>2014-08-30T13:18:51Z</time>
      </trkpt>
      <trkpt lat="43.74963" lon="7.25844">
        <ele>483</ele>
        <time>2014-08-30T13:18:54Z</time>
      </trkpt>
      <trkpt lat="43.7495" lon="7.25837">
        <ele>481</ele>
        <time>2014-08-30T13:18:57Z</time>
      </trkpt>
      <trkpt lat="43.74934" lon="7.25834">
        <ele>480</ele>
        <time>2014-08-30T13:19:00Z</time>
      </trkpt>
      <trkpt lat="43.74921" lon="7.25834">
        <ele>480</ele>
        <time>2014-08-30T13:19:03Z</time>
      </trkpt>
      <trkpt lat="43.74911" lon="7.25837">
        <ele>480</ele>
        <time>2014-08-30T13:19:06Z</time>
      </trkpt>
      <trkpt lat="43.749" lon="7.25839">
        <ele>480</ele>
        <time>2014-08-30T13:19:09Z</time>
      </trkpt>
      <trkpt lat="43.74887" lon="7.2584">
        <ele>480</ele>
        <time>2014-08-30T13:19:12Z</time>
      </trkpt>
      <trkpt lat="43.74874" lon="7.25838">
        <ele>480</ele>
        <time>2014-08-30T13:19:15Z</time>
      </trkpt>
      <trkpt lat="43.7486" lon="7.25837">
        <ele>480</ele>
        <time>2014-08-30T13:19:18Z</time>
      </trkpt>
      <trkpt lat="43.74847" lon="7.25838">
        <ele>480</ele>
        <time>2014-08-30T13:19:21Z</time>
      </trkpt>
      <trkpt lat="43.74833" lon="7.25838">
        <ele>480</ele>
        <time>2014-08-30T13:19:24Z</time>
      </trkpt>
      <trkpt lat="43.7482" lon="7.25838">
        <ele>480</ele>
        <time>2014-08-30T13:19:27Z</time>
      </trkpt>
      <trkpt lat="43.74806" lon="7.25838">
        <ele>480</ele>
        <time>2014-08-30T13:19:30Z</time>
      </trkpt>
      <trkpt lat="43.74793" lon="7.25838">
        <ele>480</ele>
        <time>2014-08-30T13:19:33Z</time>
      </trkpt>
      <trkpt lat="43.74779" lon="7.2584">
        <ele>480</ele>
        <time>2014-08-30T13:19:36Z</time>
      </trkpt>
      <trkpt lat="43.74769" lon="7.25845">
        <ele>479</ele>
        <time>2014-08-30T13:19:39Z</time>
      </trkpt>
      <trkpt lat="43.74759" lon="7.25851">
        <ele>478</ele>
        <time>2014-08-30T13:19:42Z</time>
      </trkpt>
      <trkpt lat="43.74746" lon="7.25861">
        <ele>478</ele>
        <time>2014-08-30T13:19:45Z</time>
      </trkpt>
      <trkpt lat="43.74732" lon="7.2587">
        <ele>477</ele>
        <time>2014-08-30T13:19:48Z</time>
      </trkpt>
      <trkpt lat="43.74721" lon="7.25876">
        <ele>476</ele>
        <time>2014-08-30T13:19:51Z</time>
      </trkpt>
      <trkpt lat="43.74714" lon="7.2588">
        <ele>474</ele>
        <time>2014-08-30T13:19:54Z</time>
      </trkpt>
      <trkpt lat="43.74712" lon="7.25888">
        <ele>472</ele>
        <time>2014-08-30T13:19:57Z</time>
      </trkpt>
      <trkpt lat="43.74711" lon="7.25889">
        <ele>471</ele>
        <time>2014-08-30T13:20:00Z</time>
      </trkpt>
      <trkpt lat="43.74709" lon="7.25887">
        <ele>469</ele>
        <time>2014-08-30T13:20:03Z</time>
      </trkpt>
      <trkpt lat="43.74701" lon="7.25884">
        <ele>469</ele>
        <time>2014-08-30T13:20:06Z</time>
      </trkpt>
      <trkpt lat="43.74693" lon="7.25883">
        <ele>467</ele>
        <time>2014-08-30T13:20:09Z</time>
      </trkpt>
      <trkpt lat="43.74688" lon="7.25884">
        <ele>466</ele>
        <time>2014-08-30T13:20:12Z</time>
      </trkpt>
      <trkpt lat="43.74686" lon="7.25886">
        <ele>465</ele>
        <time>2014-08-30T13:20:15Z</time>
      </trkpt>
      <trkpt lat="43.74684" lon="7.25886">
        <ele>464</ele>
        <time>2014-08-30T13:20:18Z</time>
      </trkpt>
      <trkpt lat="43.74682" lon="7.25887">
        <ele>463</ele>
        <time>2014-08-30T13:20:21Z</time>
      </trkpt>
      <trkpt lat="43.74683" lon="7.25883">
        <ele>462</ele>
        <time>2014-08-30T13:20:24Z</time>
      </trkpt>
      <trkpt lat="43.74679" lon="7.25876">
        <ele>460</ele>
        <time>2014-08-30T13:20:27Z</time>
      </trkpt>
      <trkpt lat="43.74667" lon="7.25864">
        <ele>459</ele>
        <time>2014-08-30T13:20:30Z</time>
      </trkpt>
      <trkpt lat="43.74656" lon="7.25853">
        <ele>458</ele>
        <time>2014-08-30T13:20:33Z</time>
      </trkpt>
      <trkpt lat="43.74649" lon="7.25857">
        <ele>458</ele>
        <time>2014-08-30T13:20:36Z</time>
      </trkpt>
      <trkpt lat="43.74636" lon="7.25866">
        <ele>457</ele>
        <time>2014-08-30T13:20:39Z</time>
      </trkpt>
      <trkpt lat="43.74621" lon="7.2587">
        <ele>456</ele>
        <time>2014-08-30T13:20:42Z</time>
      </trkpt>
      <trkpt lat="43.74609" lon="7.25875">
        <ele>456</ele>
        <time>2014-08-30T13:20:45Z</time>
      </trkpt>
      <trkpt lat="43.74601" lon="7.25876">
        <ele>456</ele>
        <time>2014-08-30T13:20:48Z</time>
      </trkpt>
      <trkpt lat="43.74593" lon="7.25872">
        <ele>454</ele>
        <time>2014-08-30T13:20:51Z</time>
      </trkpt>
      <trkpt lat="43.74586" lon="7.25871">
        <ele>452</ele>
        <time>2014-08-30T13:20:54Z</time>
      </trkpt>
      <trkpt lat="43.74579" lon="7.25871">
        <ele>450</ele>
        <time>2014-08-30T13:20:57Z</time>
      </trkpt>
      <trkpt lat="43.74569" lon="7.25871">
        <ele>448</ele>
        <time>2014-08-30T13:21:00Z</time>
      </trkpt>
      <trkpt lat="43.7456" lon="7.25868">
        <ele>446</ele>
        <time>2014-08-30T13:21:03Z</time>
      </trkpt>
      <trkpt lat="43.74553" lon="7.25869">
        <ele>443</ele>
        <time>2014-08-30T13:21:06Z</time>
      </trkpt>
      <trkpt lat="43.7455" lon="7.25879">
        <ele>441</ele>
        <time>2014-08-30T13:21:09Z</time>
      </trkpt>
      <trkpt lat="43.74548" lon="7.25892">
        <ele>439</ele>
        <time>2014-08-30T13:21:12Z</time>
      </trkpt>
      <trkpt lat="43.74549" lon="7.25901">
        <ele>437</ele>
        <time>2014-08-30T13:21:15Z</time>
      </trkpt>
      <trkpt lat="43.74551" lon="7.25911">
        <ele>435</ele>
        <time>2014-08-30T13:21:18Z</time>
      </trkpt>
      <trkpt lat="43.74549" lon="7.25917">
        <ele>433</ele>
        <time>2014-08-30T13:21:21Z</time>
      </trkpt>
      <trkpt lat="43.74545" lon="7.25916">
        <ele>431</ele>
        <time>2014-08-30T13:21:24Z</time>
      </trkpt>
      <trkpt lat="43.74544" lon="7.25921">
        <ele>429</ele>
        <time>2014-08-30T13:21:27Z</time>
      </trkpt>
      <trkpt lat="43.74541" lon="7.25927">
        <ele>429</ele>
        <time>2014-08-30T13:21:30Z</time>
      </trkpt>
      <trkpt lat="43.74535" lon="7.25929">
        <ele>427</ele>
        <time>2014-08-30T13:21:33Z</time>
      </trkpt>
      <trkpt lat="43.74529" lon="7.25933">
        <ele>425</ele>
        <time>2014-08-30T13:21:36Z</time>
      </trkpt>
      <trkpt lat="43.74528" lon="7.25942">
        <ele>423</ele>
        <time>2014-08-30T13:21:39Z</time>
      </trkpt>
      <trkpt lat="43.74527" lon="7.25944">
        <ele>421</ele>
        <time>2014-08-30T13:21:42Z</time>
      </trkpt>
      <trkpt lat="43.74523" lon="7.25943">
        <ele>420</ele>
        <time>2014-08-30T13:21:45Z</time>
      </trkpt>
      <trkpt lat="43.74515" lon="7.25942">
        <ele>418</ele>
        <time>2014-08-30T13:21:48Z</time>
      </trkpt>
      <trkpt lat="43.74509" lon="7.25942">
        <ele>416</ele>
        <time>2014-08-30T13:21:51Z</time>
      </trkpt>
      <trkpt lat="43.74504" lon="7.25945">
        <ele>414</ele>
        <time>2014-08-30T13:21:54Z</time>
      </trkpt>
      <trkpt lat="43.74497" lon="7.25944">
        <ele>412</ele>
        <time>2014-08-30T13:21:57Z</time>
      </trkpt>
      <trkpt lat="43.74491" lon="7.25946">
        <ele>410</ele>
        <time>2014-08-30T13:22:00Z</time>
      </trkpt>
      <trkpt lat="43.74489" lon="7.25948">
        <ele>408</ele>
        <time>2014-08-30T13:22:03Z</time>
      </trkpt>
      <trkpt lat="43.74486" lon="7.25949">
        <ele>408</ele>
        <time>2014-08-30T13:22:06Z</time>
      </trkpt>
      <trkpt lat="43.74479" lon="7.25951">
        <ele>406</ele>
        <time>2014-08-30T13:22:09Z</time>
      </trkpt>
      <trkpt lat="43.74471" lon="7.25956">
        <ele>405</ele>
        <time>2014-08-30T13:22:12Z</time>
      </trkpt>
      <trkpt lat="43.74465" lon="7.25961">
        <ele>403</ele>
        <time>2014-08-30T13:22:15Z</time>
      </trkpt>
      <trkpt lat="43.74459" lon="7.25962">
        <ele>401</ele>
        <time>2014-08-30T13:22:18Z</time>
      </trkpt>
      <trkpt lat="43.74448" lon="7.25963">
        <ele>399</ele>
        <time>2014-08-30T13:22:21Z</time>
      </trkpt>
      <trkpt lat="43.74443" lon="7.25964">
        <ele>397</ele>
        <time>2014-08-30T13:22:24Z</time>
      </trkpt>
      <trkpt lat="43.74446" lon="7.25971">
        <ele>395</ele>
        <time>2014-08-30T13:22:27Z</time>
      </trkpt>
      <trkpt lat="43.74456" lon="7.25981">
        <ele>394</ele>
        <time>2014-08-30T13:22:30Z</time>
      </trkpt>
      <trkpt lat="43.74461" lon="7.25991">
        <ele>392</ele>
        <time>2014-08-30T13:22:33Z</time>
      </trkpt>
      <trkpt lat="43.74466" lon="7.26004">
        <ele>391</ele>
        <time>2014-08-30T13:22:36Z</time>
      </trkpt>
      <trkpt lat="43.74474" lon="7.26021">
        <ele>389</ele>
        <time>2014-08-30T13:22:39Z</time>
      </trkpt>
      <trkpt lat="43.74481" lon="7.26037">
        <ele>386</ele>
        <time>2014-08-30T13:22:42Z</time>
      </trkpt>
      <trkpt lat="43.74491" lon="7.2605">
        <ele>383</ele>
        <time>2014-08-30T13:22:45Z</time>
      </trkpt>
      <trkpt lat="43.74508" lon="7.26074">
        <ele>380</ele>
        <time>2014-08-30T13:22:48Z</time>
      </trkpt>
      <trkpt lat="43.74527" lon="7.26103">
        <ele>377</ele>
        <time>2014-08-30T13:22:51Z</time>
      </trkpt>
      <trkpt lat="43.74545" lon="7.26127">
        <ele>374</ele>
        <time>2014-08-30T13:22:54Z</time>
      </trkpt>
      <trkpt lat="43.74557" lon="7.26146">
        <ele>372</ele>
        <time>2014-08-30T13:22:57Z</time>
      </trkpt>
      <trkpt lat="43.74561" lon="7.26157">
        <ele>370</ele>
        <time>2014-08-30T13:23:00Z</time>
      </trkpt>
      <trkpt lat="43.74564" lon="7.26166">
        <ele>367</ele>
        <time>2014-08-30T13:23:03Z</time>
      </trkpt>
      <trkpt lat="43.74561" lon="7.26168">
        <ele>365</ele>
        <time>2014-08-30T13:23:06Z</time>
      </trkpt>
      <trkpt lat="43.74562" lon="7.2617">
        <ele>364</ele>
        <time>2014-08-30T13:23:09Z</time>
      </trkpt>
      <trkpt lat="43.74564" lon="7.26175">
        <ele>363</ele>
        <time>2014-08-30T13:23:12Z</time>
      </trkpt>
      <trkpt lat="43.7456" lon="7.26183">
        <ele>362</ele>
        <time>2014-08-30T13:23:15Z</time>
      </trkpt>
      <trkpt lat="43.74555" lon="7.26192">
        <ele>360</ele>
        <time>2014-08-30T13:23:18Z</time>
      </trkpt>
      <trkpt lat="43.74553" lon="7.26196">
        <ele>358</ele>
        <time>2014-08-30T13:23:21Z</time>
      </trkpt>
      <trkpt lat="43.74551" lon="7.26198">
        <ele>357</ele>
        <time>2014-08-30T13:23:24Z</time>
      </trkpt>
      <trkpt lat="43.74544" lon="7.262">
        <ele>356</ele>
        <time>2014-08-30T13:23:27Z</time>
      </trkpt>
      <trkpt lat="43.74545" lon="7.26212">
        <ele>354</ele>
        <time>2014-08-30T13:23:30Z</time>
      </trkpt>
      <trkpt lat="43.74542" lon="7.26232">
        <ele>351</ele>
        <time>2014-08-30T13:23:33Z</time>
      </trkpt>
      <trkpt lat="43.74526" lon="7.26247">
        <ele>348</ele>
        <time>2014-08-30T13:23:36Z</time>
      </trkpt>
      <trkpt lat="43.74506" lon="7.26257">
        <ele>345</ele>
        <time>2014-08-30T13:23:39Z</time>
      </trkpt>
      <trkpt lat="43.74486" lon="7.26284">
        <ele>341</ele>
        <time>2014-08-30T13:23:42Z</time>
      </trkpt>
      <trkpt lat="43.74468" lon="7.26316">
        <ele>337</ele>
        <time>2014-08-30T13:23:45Z</time>
      </trkpt>
      <trkpt lat="43.7445" lon="7.26331">
        <ele>333</ele>
        <time>2014-08-30T13:23:48Z</time>
      </trkpt>
      <trkpt lat="43.74427" lon="7.26333">
        <ele>330</ele>
        <time>2014-08-30T13:23:51Z</time>
      </trkpt>
      <trkpt lat="43.74409" lon="7.26343">
        <ele>328</ele>
        <time>2014-08-30T13:23:54Z</time>
      </trkpt>
      <trkpt lat="43.74391" lon="7.26346">
        <ele>326</ele>
        <time>2014-08-30T13:23:57Z</time>
      </trkpt>
      <trkpt lat="43.74373" lon="7.26346">
        <ele>326</ele>
        <time>2014-08-30T13:24:00Z</time>
      </trkpt>
      <trkpt lat="43.74358" lon="7.26351">
        <ele>326</ele>
        <time>2014-08-30T13:24:03Z</time>
      </trkpt>
      <trkpt lat="43.74354" lon="7.26364">
        <ele>328</ele>
        <time>2014-08-30T13:24:06Z</time>
      </trkpt>
      <trkpt lat="43.74357" lon="7.2639">
        <ele>328</ele>
        <time>2014-08-30T13:24:09Z</time>
      </trkpt>
      <trkpt lat="43.74361" lon="7.26416">
        <ele>328</ele>
        <time>2014-08-30T13:24:12Z</time>
      </trkpt>
      <trkpt lat="43.74366" lon="7.2644">
        <ele>329</ele>
        <time>2014-08-30T13:24:15Z</time>
      </trkpt>
      <trkpt lat="43.74373" lon="7.26463">
        <ele>330</ele>
        <time>2014-08-30T13:24:18Z</time>
      </trkpt>
      <trkpt lat="43.74375" lon="7.26486">
        <ele>330</ele>
        <time>2014-08-30T13:24:21Z</time>
      </trkpt>
      <trkpt lat="43.74376" lon="7.2651">
        <ele>330</ele>
        <time>2014-08-30T13:24:24Z</time>
      </trkpt>
      <trkpt lat="43.74381" lon="7.26536">
        <ele>330</ele>
        <time>2014-08-30T13:24:27Z</time>
      </trkpt>
      <trkpt lat="43.74386" lon="7.2656">
        <ele>330</ele>
        <time>2014-08-30T13:24:30Z</time>
      </trkpt>
      <trkpt lat="43.74391" lon="7.26587">
        <ele>330</ele>
        <time>2014-08-30T13:24:33Z</time>
      </trkpt>
      <trkpt lat="43.74398" lon="7.26618">
        <ele>330</ele>
        <time>2014-08-30T13:24:36Z</time>
      </trkpt>
      <trkpt lat="43.74403" lon="7.26646">
        <ele>330</ele>
        <time>2014-08-30T13:24:39Z</time>
      </trkpt>
      <trkpt lat="43.74409" lon="7.26673">
        <ele>330</ele>
        <time>2014-08-30T13:24:42Z</time>
      </trkpt>
      <trkpt lat="43.74421" lon="7.26701">
        <ele>330</ele>
        <time>2014-08-30T13:24:45Z</time>
      </trkpt>
      <trkpt lat="43.74436" lon="7.26731">
        <ele>330</ele>
        <time>2014-08-30T13:24:48Z</time>
      </trkpt>
      <trkpt lat="43.74439" lon="7.26763">
        <ele>330</ele>
        <time>2014-08-30T13:24:51Z</time>
      </trkpt>
      <trkpt lat="43.74437" lon="7.2679">
        <ele>330</ele>
        <time>2014-08-30T13:24:54Z</time>
      </trkpt>
      <trkpt lat="43.74432" lon="7.2682">
        <ele>330</ele>
        <time>2014-08-30T13:24:57Z</time>
      </trkpt>
      <trkpt lat="43.74426" lon="7.26851">
        <ele>330</ele>
        <time>2014-08-30T13:25:00Z</time>
      </trkpt>
      <trkpt lat="43.74421" lon="7.26877">
        <ele>330</ele>
        <time>2014-08-30T13:25:05Z</time>
      </trkpt>
      <trkpt lat="43.74412" lon="7.26938">
        <ele>329</ele>
        <time>2014-08-30T13:25:08Z</time>
      </trkpt>
      <trkpt lat="43.74407" lon="7.26976">
        <ele>328</ele>
        <time>2014-08-30T13:25:11Z</time>
      </trkpt>
      <trkpt lat="43.744" lon="7.27015">
        <ele>326</ele>
        <time>2014-08-30T13:25:14Z</time>
      </trkpt>
      <trkpt lat="43.74392" lon="7.27054">
        <ele>324</ele>
        <time>2014-08-30T13:25:17Z</time>
      </trkpt>
      <trkpt lat="43.74383" lon="7.27093">
        <ele>322</ele>
        <time>2014-08-30T13:25:20Z</time>
      </trkpt>
      <trkpt lat="43.74377" lon="7.27131">
        <ele>320</ele>
        <time>2014-08-30T13:25:23Z</time>
      </trkpt>
      <trkpt lat="43.74391" lon="7.27158">
        <ele>317</ele>
        <time>2014-08-30T13:25:26Z</time>
      </trkpt>
      <trkpt lat="43.74409" lon="7.27174">
        <ele>315</ele>
        <time>2014-08-30T13:25:29Z</time>
      </trkpt>
      <trkpt lat="43.74425" lon="7.27189">
        <ele>313</ele>
        <time>2014-08-30T13:25:32Z</time>
      </trkpt>
      <trkpt lat="43.74442" lon="7.27209">
        <ele>310</ele>
        <time>2014-08-30T13:25:35Z</time>
      </trkpt>
      <trkpt lat="43.74453" lon="7.27222">
        <ele>306</ele>
        <time>2014-08-30T13:25:38Z</time>
      </trkpt>
      <trkpt lat="43.74464" lon="7.27234">
        <ele>303</ele>
        <time>2014-08-30T13:25:41Z</time>
      </trkpt>
      <trkpt lat="43.74478" lon="7.27251">
        <ele>299</ele>
        <time>2014-08-30T13:25:44Z</time>
      </trkpt>
      <trkpt lat="43.7449" lon="7.27266">
        <ele>294</ele>
        <time>2014-08-30T13:25:47Z</time>
      </trkpt>
      <trkpt lat="43.745" lon="7.27282">
        <ele>289</ele>
        <time>2014-08-30T13:25:50Z</time>
      </trkpt>
      <trkpt lat="43.74505" lon="7.27296">
        <ele>285</ele>
        <time>2014-08-30T13:25:53Z</time>
      </trkpt>
      <trkpt lat="43.74512" lon="7.27315">
        <ele>281</ele>
        <time>2014-08-30T13:25:56Z</time>
      </trkpt>
      <trkpt lat="43.74516" lon="7.27343">
        <ele>278</ele>
        <time>2014-08-30T13:25:59Z</time>
      </trkpt>
      <trkpt lat="43.74513" lon="7.27364">
        <ele>276</ele>
        <time>2014-08-30T13:26:02Z</time>
      </trkpt>
      <trkpt lat="43.74506" lon="7.27382">
        <ele>276</ele>
        <time>2014-08-30T13:26:05Z</time>
      </trkpt>
      <trkpt lat="43.74498" lon="7.27395">
        <ele>276</ele>
        <time>2014-08-30T13:26:08Z</time>
      </trkpt>
      <trkpt lat="43.74489" lon="7.2741">
        <ele>276</ele>
        <time>2014-08-30T13:26:11Z</time>
      </trkpt>
      <trkpt lat="43.74472" lon="7.27426">
        <ele>275</ele>
        <time>2014-08-30T13:26:14Z</time>
      </trkpt>
      <trkpt lat="43.74451" lon="7.27442">
        <ele>274</ele>
        <time>2014-08-30T13:26:17Z</time>
      </trkpt>
      <trkpt lat="43.7443" lon="7.27458">
        <ele>274</ele>
        <time>2014-08-30T13:26:20Z</time>
      </trkpt>
      <trkpt lat="43.74409" lon="7.27475">
        <ele>274</ele>
        <time>2014-08-30T13:26:23Z</time>
      </trkpt>
      <trkpt lat="43.74389" lon="7.27493">
        <ele>274</ele>
        <time>2014-08-30T13:26:26Z</time>
      </trkpt>
      <trkpt lat="43.74368" lon="7.2751">
        <ele>274</ele>
        <time>2014-08-30T13:26:29Z</time>
      </trkpt>
      <trkpt lat="43.74347" lon="7.27523">
        <ele>274</ele>
        <time>2014-08-30T13:26:32Z</time>
      </trkpt>
      <trkpt lat="43.74328" lon="7.27533">
        <ele>274</ele>
        <time>2014-08-30T13:26:35Z</time>
      </trkpt>
      <trkpt lat="43.74309" lon="7.2755">
        <ele>272</ele>
        <time>2014-08-30T13:26:38Z</time>
      </trkpt>
      <trkpt lat="43.74294" lon="7.27569">
        <ele>268</ele>
        <time>2014-08-30T13:26:41Z</time>
      </trkpt>
      <trkpt lat="43.74291" lon="7.27602">
        <ele>264</ele>
        <time>2014-08-30T13:26:44Z</time>
      </trkpt>
      <trkpt lat="43.74285" lon="7.27634">
        <ele>261</ele>
        <time>2014-08-30T13:26:47Z</time>
      </trkpt>
      <trkpt lat="43.74267" lon="7.27651">
        <ele>257</ele>
        <time>2014-08-30T13:26:50Z</time>
      </trkpt>
      <trkpt lat="43.74256" lon="7.27669">
        <ele>252</ele>
        <time>2014-08-30T13:26:53Z</time>
      </trkpt>
      <trkpt lat="43.74248" lon="7.27679">
        <ele>248</ele>
        <time>2014-08-30T13:26:56Z</time>
      </trkpt>
      <trkpt lat="43.74247" lon="7.27688">
        <ele>245</ele>
        <time>2014-08-30T13:26:59Z</time>
      </trkpt>
      <trkpt lat="43.74246" lon="7.27705">
        <ele>242</ele>
        <time>2014-08-30T13:27:02Z</time>
      </trkpt>
      <trkpt lat="43.74244" lon="7.27722">
        <ele>239</ele>
        <time>2014-08-30T13:27:05Z</time>
      </trkpt>
      <trkpt lat="43.74244" lon="7.27728">
        <ele>237</ele>
        <time>2014-08-30T13:27:08Z</time>
      </trkpt>
      <trkpt lat="43.74245" lon="7.27735">
        <ele>234</ele>
        <time>2014-08-30T13:27:11Z</time>
      </trkpt>
      <trkpt lat="43.7424" lon="7.27741">
        <ele>232</ele>
        <time>2014-08-30T13:27:14Z</time>
      </trkpt>
      <trkpt lat="43.74239" lon="7.27756">
        <ele>231</ele>
        <time>2014-08-30T13:27:17Z</time>
      </trkpt>
      <trkpt lat="43.74239" lon="7.27765">
        <ele>229</ele>
        <time>2014-08-30T13:27:20Z</time>
      </trkpt>
      <trkpt lat="43.74241" lon="7.27772">
        <ele>229</ele>
        <time>2014-08-30T13:27:23Z</time>
      </trkpt>
      <trkpt lat="43.74245" lon="7.27787">
        <ele>227</ele>
        <time>2014-08-30T13:27:26Z</time>
      </trkpt>
      <trkpt lat="43.74249" lon="7.27804">
        <ele>225</ele>
        <time>2014-08-30T13:27:29Z</time>
      </trkpt>
      <trkpt lat="43.74255" lon="7.27821">
        <ele>223</ele>
        <time>2014-08-30T13:27:32Z</time>
      </trkpt>
      <trkpt lat="43.74259" lon="7.27843">
        <ele>220</ele>
        <time>2014-08-30T13:27:35Z</time>
      </trkpt>
      <trkpt lat="43.74264" lon="7.27853">
        <ele>218</ele>
        <time>2014-08-30T13:27:38Z</time>
      </trkpt>
      <trkpt lat="43.74266" lon="7.27855">
        <ele>214</ele>
        <time>2014-08-30T13:27:41Z</time>
      </trkpt>
      <trkpt lat="43.74266" lon="7.27856">
        <ele>212</ele>
        <time>2014-08-30T13:27:44Z</time>
      </trkpt>
      <trkpt lat="43.74269" lon="7.27866">
        <ele>210</ele>
        <time>2014-08-30T13:27:47Z</time>
      </trkpt>
      <trkpt lat="43.7428" lon="7.27885">
        <ele>208</ele>
        <time>2014-08-30T13:27:50Z</time>
      </trkpt>
      <trkpt lat="43.74289" lon="7.27902">
        <ele>205</ele>
        <time>2014-08-30T13:27:53Z</time>
      </trkpt>
      <trkpt lat="43.74293" lon="7.27911">
        <ele>203</ele>
        <time>2014-08-30T13:27:56Z</time>
      </trkpt>
      <trkpt lat="43.74298" lon="7.27925">
        <ele>201</ele>
        <time>2014-08-30T13:27:59Z</time>
      </trkpt>
      <trkpt lat="43.74303" lon="7.27931">
        <ele>199</ele>
        <time>2014-08-30T13:28:02Z</time>
      </trkpt>
      <trkpt lat="43.74308" lon="7.27929">
        <ele>197</ele>
        <time>2014-08-30T13:28:05Z</time>
      </trkpt>
      <trkpt lat="43.74313" lon="7.27933">
        <ele>195</ele>
        <time>2014-08-30T13:28:08Z</time>
      </trkpt>
      <trkpt lat="43.7432" lon="7.27939">
        <ele>194</ele>
        <time>2014-08-30T13:28:11Z</time>
      </trkpt>
      <trkpt lat="43.74322" lon="7.27943">
        <ele>191</ele>
        <time>2014-08-30T13:28:14Z</time>
      </trkpt>
      <trkpt lat="43.74321" lon="7.27945">
        <ele>190</ele>
        <time>2014-08-30T13:28:17Z</time>
      </trkpt>
      <trkpt lat="43.74324" lon="7.27947">
        <ele>189</ele>
        <time>2014-08-30T13:28:20Z</time>
      </trkpt>
      <trkpt lat="43.74327" lon="7.27951">
        <ele>188</ele>
        <time>2014-08-30T13:28:23Z</time>
      </trkpt>
      <trkpt lat="43.74329" lon="7.27954">
        <ele>186</ele>
        <time>2014-08-30T13:28:26Z</time>
      </trkpt>
      <trkpt lat="43.74332" lon="7.27959">
        <ele>185</ele>
        <time>2014-08-30T13:28:29Z</time>
      </trkpt>
      <trkpt lat="43.74334" lon="7.27963">
        <ele>183</ele>
        <time>2014-08-30T13:28:32Z</time>
      </trkpt>
      <trkpt lat="43.74336" lon="7.27967">
        <ele>181</ele>
        <time>2014-08-30T13:28:35Z</time>
      </trkpt>
      <trkpt lat="43.74337" lon="7.27972">
        <ele>180</ele>
        <time>2014-08-30T13:28:38Z</time>
      </trkpt>
      <trkpt lat="43.7434" lon="7.27978">
        <ele>178</ele>
        <time>2014-08-30T13:28:41Z</time>
      </trkpt>
      <trkpt lat="43.74342" lon="7.27983">
        <ele>177</ele>
        <time>2014-08-30T13:28:44Z</time>
      </trkpt>
      <trkpt lat="43.74342" lon="7.27988">
        <ele>176</ele>
        <time>2014-08-30T13:28:47Z</time>
      </trkpt>
      <trkpt lat="43.74344" lon="7.27994">
        <ele>174</ele>
        <time>2014-08-30T13:28:50Z</time>
      </trkpt>
      <trkpt lat="43.74342" lon="7.28002">
        <ele>173</ele>
        <time>2014-08-30T13:28:53Z</time>
      </trkpt>
      <trkpt lat="43.74337" lon="7.28012">
        <ele>171</ele>
        <time>2014-08-30T13:28:56Z</time>
      </trkpt>
      <trkpt lat="43.74331" lon="7.28022">
        <ele>170</ele>
        <time>2014-08-30T13:28:59Z</time>
      </trkpt>
      <trkpt lat="43.74325" lon="7.28028">
        <ele>170</ele>
        <time>2014-08-30T13:29:02Z</time>
      </trkpt>
      <trkpt lat="43.7432" lon="7.28035">
        <ele>170</ele>
        <time>2014-08-30T13:29:05Z</time>
      </trkpt>
      <trkpt lat="43.74316" lon="7.28045">
        <ele>171</ele>
        <time>2014-08-30T13:29:08Z</time>
      </trkpt>
      <trkpt lat="43.74311" lon="7.28052">
        <ele>172</ele>
        <time>2014-08-30T13:29:11Z</time>
      </trkpt>
      <trkpt lat="43.74307" lon="7.28057">
        <ele>174</ele>
        <time>2014-08-30T13:29:14Z</time>
      </trkpt>
      <trkpt lat="43.74304" lon="7.28061">
        <ele>174</ele>
        <time>2014-08-30T13:29:17Z</time>
      </trkpt>
      <trkpt lat="43.74302" lon="7.28068">
        <ele>175</ele>
        <time>2014-08-30T13:29:20Z</time>
      </trkpt>
      <trkpt lat="43.74302" lon="7.28078">
        <ele>176</ele>
        <time>2014-08-30T13:29:23Z</time>
      </trkpt>
      <trkpt lat="43.74302" lon="7.28084">
        <ele>176</ele>
        <time>2014-08-30T13:29:26Z</time>
      </trkpt>
      <trkpt lat="43.74301" lon="7.28087">
        <ele>176</ele>
        <time>2014-08-30T13:29:29Z</time>
      </trkpt>
      <trkpt lat="43.74301" lon="7.28093">
        <ele>176</ele>
        <time>2014-08-30T13:29:32Z</time>
      </trkpt>
      <trkpt lat="43.743" lon="7.28101">
        <ele>176</ele>
        <time>2014-08-30T13:29:35Z</time>
      </trkpt>
      <trkpt lat="43.74299" lon="7.28115">
        <ele>176</ele>
        <time>2014-08-30T13:29:38Z</time>
      </trkpt>
      <trkpt lat="43.7429" lon="7.28124">
        <ele>176</ele>
        <time>2014-08-30T13:29:41Z</time>
      </trkpt>
      <trkpt lat="43.74277" lon="7.28135">
        <ele>176</ele>
        <time>2014-08-30T13:29:44Z</time>
      </trkpt>
      <trkpt lat="43.74271" lon="7.28154">
        <ele>175</ele>
        <time>2014-08-30T13:29:47Z</time>
      </trkpt>
      <trkpt lat="43.74266" lon="7.28176">
        <ele>172</ele>
        <time>2014-08-30T13:29:50Z</time>
      </trkpt>
      <trkpt lat="43.7426" lon="7.28194">
        <ele>169</ele>
        <time>2014-08-30T13:29:53Z</time>
      </trkpt>
      <trkpt lat="43.74254" lon="7.28209">
        <ele>167</ele>
        <time>2014-08-30T13:29:56Z</time>
      </trkpt>
      <trkpt lat="43.74244" lon="7.28227">
        <ele>165</ele>
        <time>2014-08-30T13:29:59Z</time>
      </trkpt>
      <trkpt lat="43.74231" lon="7.28244">
        <ele>162</ele>
        <time>2014-08-30T13:30:02Z</time>
      </trkpt>
      <trkpt lat="43.74219" lon="7.28254">
        <ele>159</ele>
        <time>2014-08-30T13:30:05Z</time>
      </trkpt>
      <trkpt lat="43.74211" lon="7.2827">
        <ele>159</ele>
        <time>2014-08-30T13:30:08Z</time>
      </trkpt>
      <trkpt lat="43.74212" lon="7.28285">
        <ele>159</ele>
        <time>2014-08-30T13:30:11Z</time>
      </trkpt>
      <trkpt lat="43.74202" lon="7.283">
        <ele>158</ele>
        <time>2014-08-30T13:30:14Z</time>
      </trkpt>
      <trkpt lat="43.74185" lon="7.28315">
        <ele>155</ele>
        <time>2014-08-30T13:30:17Z</time>
      </trkpt>
      <trkpt lat="43.74173" lon="7.28327">
        <ele>153</ele>
        <time>2014-08-30T13:30:20Z</time>
      </trkpt>
      <trkpt lat="43.74171" lon="7.28342">
        <ele>152</ele>
        <time>2014-08-30T13:30:23Z</time>
      </trkpt>
      <trkpt lat="43.74171" lon="7.28355">
        <ele>151</ele>
        <time>2014-08-30T13:30:26Z</time>
      </trkpt>
      <trkpt lat="43.74175" lon="7.28368">
        <ele>149</ele>
        <time>2014-08-30T13:30:29Z</time>
      </trkpt>
      <trkpt lat="43.74169" lon="7.28379">
        <ele>147</ele>
        <time>2014-08-30T13:30:32Z</time>
      </trkpt>
      <trkpt lat="43.74161" lon="7.28391">
        <ele>145</ele>
        <time>2014-08-30T13:30:35Z</time>
      </trkpt>
      <trkpt lat="43.7416" lon="7.28401">
        <ele>142</ele>
        <time>2014-08-30T13:30:38Z</time>
      </trkpt>
      <trkpt lat="43.74154" lon="7.2842">
        <ele>140</ele>
        <time>2014-08-30T13:30:41Z</time>
      </trkpt>
      <trkpt lat="43.74142" lon="7.28443">
        <ele>138</ele>
        <time>2014-08-30T13:30:44Z</time>
      </trkpt>
      <trkpt lat="43.74131" lon="7.28456">
        <ele>137</ele>
        <time>2014-08-30T13:30:47Z</time>
      </trkpt>
      <trkpt lat="43.74129" lon="7.28468">
        <ele>136</ele>
        <time>2014-08-30T13:30:50Z</time>
      </trkpt>
      <trkpt lat="43.7412" lon="7.28473">
        <ele>134</ele>
        <time>2014-08-30T13:30:53Z</time>
      </trkpt>
      <trkpt lat="43.74107" lon="7.28476">
        <ele>131</ele>
        <time>2014-08-30T13:30:56Z</time>
      </trkpt>
      <trkpt lat="43.74097" lon="7.28482">
        <ele>129</ele>
        <time>2014-08-30T13:30:59Z</time>
      </trkpt>
      <trkpt lat="43.7409" lon="7.28487">
        <ele>126</ele>
        <time>2014-08-30T13:31:02Z</time>
      </trkpt>
      <trkpt lat="43.74083" lon="7.28503">
        <ele>123</ele>
        <time>2014-08-30T13:31:05Z</time>
      </trkpt>
      <trkpt lat="43.74077" lon="7.28514">
        <ele>121</ele>
        <time>2014-08-30T13:31:08Z</time>
      </trkpt>
      <trkpt lat="43.74076" lon="7.28522">
        <ele>119</ele>
        <time>2014-08-30T13:31:11Z</time>
      </trkpt>
      <trkpt lat="43.74073" lon="7.28534">
        <ele>117</ele>
        <time>2014-08-30T13:31:14Z</time>
      </trkpt>
      <trkpt lat="43.74073" lon="7.28538">
        <ele>115</ele>
        <time>2014-08-30T13:31:17Z</time>
      </trkpt>
      <trkpt lat="43.74074" lon="7.2854">
        <ele>112</ele>
        <time>2014-08-30T13:31:20Z</time>
      </trkpt>
      <trkpt lat="43.74069" lon="7.28543">
        <ele>110</ele>
        <time>2014-08-30T13:31:23Z</time>
      </trkpt>
      <trkpt lat="43.74064" lon="7.28546">
        <ele>108</ele>
        <time>2014-08-30T13:31:26Z</time>
      </trkpt>
      <trkpt lat="43.74065" lon="7.28548">
        <ele>106</ele>
        <time>2014-08-30T13:31:29Z</time>
      </trkpt>
      <trkpt lat="43.74067" lon="7.2855">
        <ele>105</ele>
        <time>2014-08-30T13:31:32Z</time>
      </trkpt>
      <trkpt lat="43.74074" lon="7.28558">
        <ele>103</ele>
        <time>2014-08-30T13:31:35Z</time>
      </trkpt>
      <trkpt lat="43.74074" lon="7.28565">
        <ele>101</ele>
        <time>2014-08-30T13:31:38Z</time>
      </trkpt>
      <trkpt lat="43.7407" lon="7.28568">
        <ele>100</ele>
        <time>2014-08-30T13:31:41Z</time>
      </trkpt>
      <trkpt lat="43.74063" lon="7.28573">
        <ele>99</ele>
        <time>2014-08-30T13:31:44Z</time>
      </trkpt>
      <trkpt lat="43.74052" lon="7.28587">
        <ele>97</ele>
        <time>2014-08-30T13:31:47Z</time>
      </trkpt>
      <trkpt lat="43.74044" lon="7.28606">
        <ele>94</ele>
        <time>2014-08-30T13:31:50Z</time>
      </trkpt>
      <trkpt lat="43.74029" lon="7.2864">
        <ele>91</ele>
        <time>2014-08-30T13:31:53Z</time>
      </trkpt>
      <trkpt lat="43.74011" lon="7.28671">
        <ele>88</ele>
        <time>2014-08-30T13:31:56Z</time>
      </trkpt>
      <trkpt lat="43.73997" lon="7.287">
        <ele>86</ele>
        <time>2014-08-30T13:31:59Z</time>
      </trkpt>
      <trkpt lat="43.73984" lon="7.28718">
        <ele>83</ele>
        <time>2014-08-30T13:32:02Z</time>
      </trkpt>
      <trkpt lat="43.73977" lon="7.28717">
        <ele>82</ele>
        <time>2014-08-30T13:32:05Z</time>
      </trkpt>
    </trkseg>
  </trk>
</gpx>